<?xml version="1.0" encoding="UTF-8" standalone="no" ?>
<gpx xmlns="http://www.topografix.com/GPX/1/1" xmlns:xsi="http://www.w3.org/2001/XMLSchema-instance" xsi:schemaLocation="http://www.topografix.com/GPX/1/1 http://www.topografix.com/GPX/1/1/gpx.xsd" version="1.1" creator="VisuGPX - https://www.visugpx.com">
  <metadata>
    <name>Plo del Naou</name>
    <desc><![CDATA[Rando raquettes facile à partie de Payolle. La vue au sommet est magnifique.]]></desc>
  </metadata>
  <trk>
    <name><![CDATA[Plo del Naou]]></name>
    <trkseg>
      <trkpt lat="42.94271" lon="0.27899">
        <ele>1086.45896</ele>
        <time>2024-01-12T07:49:46Z</time>
      </trkpt>
      <trkpt lat="42.9427" lon="0.279">
        <ele>1085.9666</ele>
        <time>2024-01-12T07:49:48Z</time>
      </trkpt>
      <trkpt lat="42.94269" lon="0.27901">
        <ele>1086.03107</ele>
        <time>2024-01-12T07:49:49Z</time>
      </trkpt>
      <trkpt lat="42.94269" lon="0.27901">
        <ele>1085.86432</ele>
        <time>2024-01-12T07:49:51Z</time>
      </trkpt>
      <trkpt lat="42.94269" lon="0.27901">
        <ele>1085.8345</ele>
        <time>2024-01-12T07:49:52Z</time>
      </trkpt>
      <trkpt lat="42.9427" lon="0.279">
        <ele>1086.04947</ele>
        <time>2024-01-12T07:49:55Z</time>
      </trkpt>
      <trkpt lat="42.94269" lon="0.27901">
        <ele>1086.08573</ele>
        <time>2024-01-12T07:49:57Z</time>
      </trkpt>
      <trkpt lat="42.94269" lon="0.27902">
        <ele>1085.48295</ele>
        <time>2024-01-12T07:49:59Z</time>
      </trkpt>
      <trkpt lat="42.9427" lon="0.27901">
        <ele>1087.72563</ele>
        <time>2024-01-12T07:50:08Z</time>
      </trkpt>
      <trkpt lat="42.94269" lon="0.27899">
        <ele>1088.00576</ele>
        <time>2024-01-12T07:50:09Z</time>
      </trkpt>
      <trkpt lat="42.94271" lon="0.27898">
        <ele>1088.07719</ele>
        <time>2024-01-12T07:50:10Z</time>
      </trkpt>
      <trkpt lat="42.94272" lon="0.27896">
        <ele>1088.18232</ele>
        <time>2024-01-12T07:50:11Z</time>
      </trkpt>
      <trkpt lat="42.94273" lon="0.27895">
        <ele>1088.13677</ele>
        <time>2024-01-12T07:50:12Z</time>
      </trkpt>
      <trkpt lat="42.94274" lon="0.27894">
        <ele>1088.30588</ele>
        <time>2024-01-12T07:50:13Z</time>
      </trkpt>
      <trkpt lat="42.94274" lon="0.27892">
        <ele>1088.67956</ele>
        <time>2024-01-12T07:50:14Z</time>
      </trkpt>
      <trkpt lat="42.94274" lon="0.2789">
        <ele>1088.48594</ele>
        <time>2024-01-12T07:50:15Z</time>
      </trkpt>
      <trkpt lat="42.94275" lon="0.27888">
        <ele>1088.3451</ele>
        <time>2024-01-12T07:50:16Z</time>
      </trkpt>
      <trkpt lat="42.94275" lon="0.27886">
        <ele>1088.60607</ele>
        <time>2024-01-12T07:50:18Z</time>
      </trkpt>
      <trkpt lat="42.94275" lon="0.27884">
        <ele>1088.53948</ele>
        <time>2024-01-12T07:50:19Z</time>
      </trkpt>
      <trkpt lat="42.94276" lon="0.27883">
        <ele>1088.36782</ele>
        <time>2024-01-12T07:50:20Z</time>
      </trkpt>
      <trkpt lat="42.94276" lon="0.27881">
        <ele>1088.03043</ele>
        <time>2024-01-12T07:50:21Z</time>
      </trkpt>
      <trkpt lat="42.94275" lon="0.2788">
        <ele>1087.59841</ele>
        <time>2024-01-12T07:50:22Z</time>
      </trkpt>
      <trkpt lat="42.94275" lon="0.27879">
        <ele>1087.58412</ele>
        <time>2024-01-12T07:50:23Z</time>
      </trkpt>
      <trkpt lat="42.94275" lon="0.27877">
        <ele>1087.33237</ele>
        <time>2024-01-12T07:50:24Z</time>
      </trkpt>
      <trkpt lat="42.94275" lon="0.27875">
        <ele>1086.15236</ele>
        <time>2024-01-12T07:50:26Z</time>
      </trkpt>
      <trkpt lat="42.94274" lon="0.27875">
        <ele>1084.91268</ele>
        <time>2024-01-12T07:50:29Z</time>
      </trkpt>
      <trkpt lat="42.94273" lon="0.27874">
        <ele>1085.86797</ele>
        <time>2024-01-12T07:50:32Z</time>
      </trkpt>
      <trkpt lat="42.94271" lon="0.27872">
        <ele>1085.34269</ele>
        <time>2024-01-12T07:50:49Z</time>
      </trkpt>
      <trkpt lat="42.94272" lon="0.27871">
        <ele>1084.71109</ele>
        <time>2024-01-12T07:51:02Z</time>
      </trkpt>
      <trkpt lat="42.94271" lon="0.27869">
        <ele>1091.16281</ele>
        <time>2024-01-12T07:51:06Z</time>
      </trkpt>
      <trkpt lat="42.94272" lon="0.27871">
        <ele>1089.57605</ele>
        <time>2024-01-12T07:51:07Z</time>
      </trkpt>
      <trkpt lat="42.94273" lon="0.27873">
        <ele>1088.24301</ele>
        <time>2024-01-12T07:51:10Z</time>
      </trkpt>
      <trkpt lat="42.94273" lon="0.27874">
        <ele>1092.35422</ele>
        <time>2024-01-12T07:51:13Z</time>
      </trkpt>
      <trkpt lat="42.94272" lon="0.27875">
        <ele>1082.60291</ele>
        <time>2024-01-12T07:51:22Z</time>
      </trkpt>
      <trkpt lat="42.94273" lon="0.27875">
        <ele>1081.15</ele>
        <time>2024-01-12T07:51:30Z</time>
      </trkpt>
      <trkpt lat="42.94274" lon="0.27877">
        <ele>1083.72503</ele>
        <time>2024-01-12T07:51:35Z</time>
      </trkpt>
      <trkpt lat="42.94274" lon="0.27878">
        <ele>1084.46807</ele>
        <time>2024-01-12T07:51:36Z</time>
      </trkpt>
      <trkpt lat="42.94275" lon="0.27881">
        <ele>1083.38937</ele>
        <time>2024-01-12T07:51:39Z</time>
      </trkpt>
      <trkpt lat="42.94275" lon="0.27882">
        <ele>1087.9575</ele>
        <time>2024-01-12T07:51:41Z</time>
      </trkpt>
      <trkpt lat="42.94274" lon="0.27883">
        <ele>1085.91889</ele>
        <time>2024-01-12T07:51:44Z</time>
      </trkpt>
      <trkpt lat="42.94274" lon="0.27885">
        <ele>1088.26829</ele>
        <time>2024-01-12T07:51:49Z</time>
      </trkpt>
      <trkpt lat="42.94274" lon="0.27887">
        <ele>1090.95296</ele>
        <time>2024-01-12T07:51:51Z</time>
      </trkpt>
      <trkpt lat="42.94274" lon="0.27888">
        <ele>1090.86247</ele>
        <time>2024-01-12T07:51:54Z</time>
      </trkpt>
      <trkpt lat="42.94275" lon="0.27891">
        <ele>1089.83716</ele>
        <time>2024-01-12T07:51:56Z</time>
      </trkpt>
      <trkpt lat="42.94274" lon="0.27892">
        <ele>1088.13114</ele>
        <time>2024-01-12T07:51:58Z</time>
      </trkpt>
      <trkpt lat="42.94273" lon="0.27893">
        <ele>1086.98061</ele>
        <time>2024-01-12T07:52:00Z</time>
      </trkpt>
      <trkpt lat="42.94272" lon="0.27894">
        <ele>1086.35777</ele>
        <time>2024-01-12T07:52:02Z</time>
      </trkpt>
      <trkpt lat="42.94271" lon="0.27895">
        <ele>1086.50412</ele>
        <time>2024-01-12T07:52:03Z</time>
      </trkpt>
      <trkpt lat="42.9427" lon="0.27897">
        <ele>1086.80957</ele>
        <time>2024-01-12T07:52:04Z</time>
      </trkpt>
      <trkpt lat="42.9427" lon="0.27899">
        <ele>1087.52603</ele>
        <time>2024-01-12T07:52:06Z</time>
      </trkpt>
      <trkpt lat="42.94269" lon="0.279">
        <ele>1087.10608</ele>
        <time>2024-01-12T07:52:07Z</time>
      </trkpt>
      <trkpt lat="42.94268" lon="0.27902">
        <ele>1088.27806</ele>
        <time>2024-01-12T07:52:09Z</time>
      </trkpt>
      <trkpt lat="42.9427" lon="0.27903">
        <ele>1087.95406</ele>
        <time>2024-01-12T07:52:22Z</time>
      </trkpt>
      <trkpt lat="42.94269" lon="0.27905">
        <ele>1088.15133</ele>
        <time>2024-01-12T07:52:34Z</time>
      </trkpt>
      <trkpt lat="42.9427" lon="0.27905">
        <ele>1089.81763</ele>
        <time>2024-01-12T07:52:39Z</time>
      </trkpt>
      <trkpt lat="42.94271" lon="0.27905">
        <ele>1091.59083</ele>
        <time>2024-01-12T07:52:40Z</time>
      </trkpt>
      <trkpt lat="42.94271" lon="0.27904">
        <ele>1091.00226</ele>
        <time>2024-01-12T07:52:44Z</time>
      </trkpt>
      <trkpt lat="42.94272" lon="0.27904">
        <ele>1091.33729</ele>
        <time>2024-01-12T07:52:57Z</time>
      </trkpt>
      <trkpt lat="42.94273" lon="0.27903">
        <ele>1091.92662</ele>
        <time>2024-01-12T07:52:59Z</time>
      </trkpt>
      <trkpt lat="42.94273" lon="0.27903">
        <ele>1089.45202</ele>
        <time>2024-01-12T07:53:07Z</time>
      </trkpt>
      <trkpt lat="42.94272" lon="0.27904">
        <ele>1082.61893</ele>
        <time>2024-01-12T07:53:15Z</time>
      </trkpt>
      <trkpt lat="42.94273" lon="0.27902">
        <ele>1082.77127</ele>
        <time>2024-01-12T07:53:19Z</time>
      </trkpt>
      <trkpt lat="42.94276" lon="0.27901">
        <ele>1082.56389</ele>
        <time>2024-01-12T07:53:23Z</time>
      </trkpt>
      <trkpt lat="42.94276" lon="0.27903">
        <ele>1083.75497</ele>
        <time>2024-01-12T07:53:25Z</time>
      </trkpt>
      <trkpt lat="42.94275" lon="0.27904">
        <ele>1085.96272</ele>
        <time>2024-01-12T07:53:29Z</time>
      </trkpt>
      <trkpt lat="42.94274" lon="0.27904">
        <ele>1085.70979</ele>
        <time>2024-01-12T07:53:32Z</time>
      </trkpt>
      <trkpt lat="42.94275" lon="0.27903">
        <ele>1087.11332</ele>
        <time>2024-01-12T07:53:36Z</time>
      </trkpt>
      <trkpt lat="42.94276" lon="0.27903">
        <ele>1087.17183</ele>
        <time>2024-01-12T07:53:37Z</time>
      </trkpt>
      <trkpt lat="42.94275" lon="0.27904">
        <ele>1086.07369</ele>
        <time>2024-01-12T07:53:41Z</time>
      </trkpt>
      <trkpt lat="42.94274" lon="0.27902">
        <ele>1087.47803</ele>
        <time>2024-01-12T07:53:50Z</time>
      </trkpt>
      <trkpt lat="42.94273" lon="0.279">
        <ele>1087.876</ele>
        <time>2024-01-12T07:53:52Z</time>
      </trkpt>
      <trkpt lat="42.94272" lon="0.27901">
        <ele>1088.17067</ele>
        <time>2024-01-12T07:53:54Z</time>
      </trkpt>
      <trkpt lat="42.94271" lon="0.27901">
        <ele>1087.82555</ele>
        <time>2024-01-12T07:53:56Z</time>
      </trkpt>
      <trkpt lat="42.94271" lon="0.27902">
        <ele>1087.53922</ele>
        <time>2024-01-12T07:53:58Z</time>
      </trkpt>
      <trkpt lat="42.94271" lon="0.27902">
        <ele>1084.36936</ele>
        <time>2024-01-12T07:54:02Z</time>
      </trkpt>
      <trkpt lat="42.94271" lon="0.27904">
        <ele>1087.22527</ele>
        <time>2024-01-12T07:54:14Z</time>
      </trkpt>
      <trkpt lat="42.94271" lon="0.27905">
        <ele>1087.13094</ele>
        <time>2024-01-12T07:54:16Z</time>
      </trkpt>
      <trkpt lat="42.9427" lon="0.27905">
        <ele>1086.88069</ele>
        <time>2024-01-12T07:54:18Z</time>
      </trkpt>
      <trkpt lat="42.94268" lon="0.27907">
        <ele>1086.04271</ele>
        <time>2024-01-12T07:54:20Z</time>
      </trkpt>
      <trkpt lat="42.94269" lon="0.27907">
        <ele>1091.80653</ele>
        <time>2024-01-12T07:54:25Z</time>
      </trkpt>
      <trkpt lat="42.94269" lon="0.27909">
        <ele>1087.01872</ele>
        <time>2024-01-12T07:54:35Z</time>
      </trkpt>
      <trkpt lat="42.94269" lon="0.27908">
        <ele>1086.06882</ele>
        <time>2024-01-12T07:55:05Z</time>
      </trkpt>
      <trkpt lat="42.9427" lon="0.27905">
        <ele>1086.1968</ele>
        <time>2024-01-12T07:55:14Z</time>
      </trkpt>
      <trkpt lat="42.94271" lon="0.27904">
        <ele>1092.17286</ele>
        <time>2024-01-12T07:55:16Z</time>
      </trkpt>
      <trkpt lat="42.9427" lon="0.27901">
        <ele>1097.76354</ele>
        <time>2024-01-12T07:55:19Z</time>
      </trkpt>
      <trkpt lat="42.94269" lon="0.279">
        <ele>1096.8005</ele>
        <time>2024-01-12T07:55:23Z</time>
      </trkpt>
      <trkpt lat="42.94268" lon="0.27901">
        <ele>1094.82298</ele>
        <time>2024-01-12T07:55:25Z</time>
      </trkpt>
      <trkpt lat="42.94268" lon="0.27903">
        <ele>1091.89378</ele>
        <time>2024-01-12T07:55:28Z</time>
      </trkpt>
      <trkpt lat="42.94268" lon="0.27904">
        <ele>1091.83939</ele>
        <time>2024-01-12T07:55:31Z</time>
      </trkpt>
      <trkpt lat="42.94267" lon="0.27905">
        <ele>1086.0826</ele>
        <time>2024-01-12T07:55:40Z</time>
      </trkpt>
      <trkpt lat="42.94268" lon="0.27905">
        <ele>1087.52217</ele>
        <time>2024-01-12T07:55:54Z</time>
      </trkpt>
      <trkpt lat="42.94268" lon="0.27906">
        <ele>1083.85128</ele>
        <time>2024-01-12T07:56:03Z</time>
      </trkpt>
      <trkpt lat="42.94267" lon="0.27907">
        <ele>1083.79395</ele>
        <time>2024-01-12T07:56:04Z</time>
      </trkpt>
      <trkpt lat="42.94266" lon="0.27908">
        <ele>1086.74312</ele>
        <time>2024-01-12T07:56:08Z</time>
      </trkpt>
      <trkpt lat="42.94265" lon="0.2791">
        <ele>1086.87129</ele>
        <time>2024-01-12T07:56:10Z</time>
      </trkpt>
      <trkpt lat="42.94264" lon="0.27912">
        <ele>1088.52053</ele>
        <time>2024-01-12T07:56:12Z</time>
      </trkpt>
      <trkpt lat="42.94263" lon="0.27913">
        <ele>1089.12134</ele>
        <time>2024-01-12T07:56:13Z</time>
      </trkpt>
      <trkpt lat="42.94263" lon="0.27915">
        <ele>1088.3443</ele>
        <time>2024-01-12T07:56:15Z</time>
      </trkpt>
      <trkpt lat="42.94262" lon="0.27916">
        <ele>1088.80892</ele>
        <time>2024-01-12T07:56:16Z</time>
      </trkpt>
      <trkpt lat="42.94261" lon="0.27917">
        <ele>1089.70758</ele>
        <time>2024-01-12T07:56:17Z</time>
      </trkpt>
      <trkpt lat="42.94261" lon="0.27919">
        <ele>1089.83923</ele>
        <time>2024-01-12T07:56:18Z</time>
      </trkpt>
      <trkpt lat="42.9426" lon="0.2792">
        <ele>1089.28621</ele>
        <time>2024-01-12T07:56:19Z</time>
      </trkpt>
      <trkpt lat="42.94259" lon="0.27922">
        <ele>1089.6058</ele>
        <time>2024-01-12T07:56:21Z</time>
      </trkpt>
      <trkpt lat="42.94258" lon="0.27924">
        <ele>1090.08449</ele>
        <time>2024-01-12T07:56:23Z</time>
      </trkpt>
      <trkpt lat="42.94257" lon="0.27925">
        <ele>1090.65098</ele>
        <time>2024-01-12T07:56:25Z</time>
      </trkpt>
      <trkpt lat="42.94257" lon="0.27927">
        <ele>1090.35623</ele>
        <time>2024-01-12T07:56:26Z</time>
      </trkpt>
      <trkpt lat="42.94256" lon="0.27929">
        <ele>1090.65651</ele>
        <time>2024-01-12T07:56:27Z</time>
      </trkpt>
      <trkpt lat="42.94256" lon="0.27931">
        <ele>1090.36329</ele>
        <time>2024-01-12T07:56:28Z</time>
      </trkpt>
      <trkpt lat="42.94256" lon="0.27932">
        <ele>1090.59747</ele>
        <time>2024-01-12T07:56:30Z</time>
      </trkpt>
      <trkpt lat="42.94255" lon="0.27933">
        <ele>1090.81278</ele>
        <time>2024-01-12T07:56:31Z</time>
      </trkpt>
      <trkpt lat="42.94254" lon="0.27934">
        <ele>1091.47467</ele>
        <time>2024-01-12T07:56:32Z</time>
      </trkpt>
      <trkpt lat="42.94253" lon="0.27937">
        <ele>1091.18455</ele>
        <time>2024-01-12T07:56:34Z</time>
      </trkpt>
      <trkpt lat="42.94253" lon="0.27938">
        <ele>1090.99888</ele>
        <time>2024-01-12T07:56:35Z</time>
      </trkpt>
      <trkpt lat="42.94253" lon="0.27939">
        <ele>1090.63303</ele>
        <time>2024-01-12T07:56:36Z</time>
      </trkpt>
      <trkpt lat="42.94252" lon="0.27941">
        <ele>1092.17357</ele>
        <time>2024-01-12T07:56:37Z</time>
      </trkpt>
      <trkpt lat="42.94251" lon="0.27942">
        <ele>1091.06382</ele>
        <time>2024-01-12T07:56:38Z</time>
      </trkpt>
      <trkpt lat="42.94251" lon="0.27944">
        <ele>1089.33874</ele>
        <time>2024-01-12T07:56:39Z</time>
      </trkpt>
      <trkpt lat="42.9425" lon="0.27945">
        <ele>1090.39312</ele>
        <time>2024-01-12T07:56:41Z</time>
      </trkpt>
      <trkpt lat="42.94249" lon="0.27947">
        <ele>1091.60315</ele>
        <time>2024-01-12T07:56:42Z</time>
      </trkpt>
      <trkpt lat="42.94249" lon="0.27948">
        <ele>1091.96599</ele>
        <time>2024-01-12T07:56:43Z</time>
      </trkpt>
      <trkpt lat="42.94248" lon="0.27949">
        <ele>1092.19073</ele>
        <time>2024-01-12T07:56:44Z</time>
      </trkpt>
      <trkpt lat="42.94247" lon="0.27951">
        <ele>1092.40612</ele>
        <time>2024-01-12T07:56:45Z</time>
      </trkpt>
      <trkpt lat="42.94246" lon="0.27953">
        <ele>1092.8202</ele>
        <time>2024-01-12T07:56:47Z</time>
      </trkpt>
      <trkpt lat="42.94245" lon="0.27954">
        <ele>1092.77407</ele>
        <time>2024-01-12T07:56:48Z</time>
      </trkpt>
      <trkpt lat="42.94244" lon="0.27956">
        <ele>1092.29883</ele>
        <time>2024-01-12T07:56:50Z</time>
      </trkpt>
      <trkpt lat="42.94243" lon="0.27958">
        <ele>1091.88702</ele>
        <time>2024-01-12T07:56:52Z</time>
      </trkpt>
      <trkpt lat="42.94243" lon="0.2796">
        <ele>1090.78108</ele>
        <time>2024-01-12T07:56:54Z</time>
      </trkpt>
      <trkpt lat="42.94242" lon="0.27962">
        <ele>1092.48966</ele>
        <time>2024-01-12T07:56:56Z</time>
      </trkpt>
      <trkpt lat="42.94241" lon="0.27964">
        <ele>1092.46896</ele>
        <time>2024-01-12T07:56:58Z</time>
      </trkpt>
      <trkpt lat="42.94241" lon="0.27966">
        <ele>1092.53448</ele>
        <time>2024-01-12T07:57:00Z</time>
      </trkpt>
      <trkpt lat="42.9424" lon="0.27967">
        <ele>1092.76252</ele>
        <time>2024-01-12T07:57:01Z</time>
      </trkpt>
      <trkpt lat="42.94238" lon="0.27969">
        <ele>1092.71475</ele>
        <time>2024-01-12T07:57:03Z</time>
      </trkpt>
      <trkpt lat="42.94238" lon="0.27971">
        <ele>1092.68071</ele>
        <time>2024-01-12T07:57:05Z</time>
      </trkpt>
      <trkpt lat="42.94238" lon="0.27972">
        <ele>1092.77667</ele>
        <time>2024-01-12T07:57:06Z</time>
      </trkpt>
      <trkpt lat="42.94237" lon="0.27974">
        <ele>1092.80755</ele>
        <time>2024-01-12T07:57:07Z</time>
      </trkpt>
      <trkpt lat="42.94236" lon="0.27976">
        <ele>1093.36449</ele>
        <time>2024-01-12T07:57:09Z</time>
      </trkpt>
      <trkpt lat="42.94235" lon="0.27978">
        <ele>1093.41619</ele>
        <time>2024-01-12T07:57:13Z</time>
      </trkpt>
      <trkpt lat="42.94234" lon="0.27979">
        <ele>1092.59807</ele>
        <time>2024-01-12T07:57:14Z</time>
      </trkpt>
      <trkpt lat="42.94234" lon="0.27981">
        <ele>1093.64889</ele>
        <time>2024-01-12T07:57:15Z</time>
      </trkpt>
      <trkpt lat="42.94233" lon="0.27984">
        <ele>1091.63279</ele>
        <time>2024-01-12T07:57:17Z</time>
      </trkpt>
      <trkpt lat="42.94232" lon="0.27985">
        <ele>1091.9996</ele>
        <time>2024-01-12T07:57:18Z</time>
      </trkpt>
      <trkpt lat="42.94231" lon="0.27986">
        <ele>1092.06016</ele>
        <time>2024-01-12T07:57:19Z</time>
      </trkpt>
      <trkpt lat="42.94231" lon="0.27989">
        <ele>1090.93879</ele>
        <time>2024-01-12T07:57:21Z</time>
      </trkpt>
      <trkpt lat="42.94231" lon="0.27991">
        <ele>1091.76441</ele>
        <time>2024-01-12T07:57:22Z</time>
      </trkpt>
      <trkpt lat="42.9423" lon="0.27992">
        <ele>1093.38147</ele>
        <time>2024-01-12T07:57:23Z</time>
      </trkpt>
      <trkpt lat="42.9423" lon="0.27993">
        <ele>1093.51465</ele>
        <time>2024-01-12T07:57:24Z</time>
      </trkpt>
      <trkpt lat="42.94229" lon="0.27995">
        <ele>1093.37712</ele>
        <time>2024-01-12T07:57:26Z</time>
      </trkpt>
      <trkpt lat="42.94228" lon="0.27997">
        <ele>1092.70852</ele>
        <time>2024-01-12T07:57:27Z</time>
      </trkpt>
      <trkpt lat="42.94227" lon="0.27998">
        <ele>1092.60455</ele>
        <time>2024-01-12T07:57:28Z</time>
      </trkpt>
      <trkpt lat="42.94227" lon="0.28001">
        <ele>1092.04068</ele>
        <time>2024-01-12T07:57:30Z</time>
      </trkpt>
      <trkpt lat="42.94227" lon="0.28002">
        <ele>1093.13719</ele>
        <time>2024-01-12T07:57:31Z</time>
      </trkpt>
      <trkpt lat="42.94227" lon="0.28004">
        <ele>1092.19046</ele>
        <time>2024-01-12T07:57:32Z</time>
      </trkpt>
      <trkpt lat="42.94226" lon="0.28006">
        <ele>1091.96663</ele>
        <time>2024-01-12T07:57:33Z</time>
      </trkpt>
      <trkpt lat="42.94226" lon="0.28008">
        <ele>1091.99991</ele>
        <time>2024-01-12T07:57:34Z</time>
      </trkpt>
      <trkpt lat="42.94225" lon="0.2801">
        <ele>1094.01278</ele>
        <time>2024-01-12T07:57:36Z</time>
      </trkpt>
      <trkpt lat="42.94225" lon="0.28012">
        <ele>1093.34813</ele>
        <time>2024-01-12T07:57:37Z</time>
      </trkpt>
      <trkpt lat="42.94226" lon="0.28013">
        <ele>1093.61403</ele>
        <time>2024-01-12T07:57:38Z</time>
      </trkpt>
      <trkpt lat="42.94227" lon="0.28015">
        <ele>1092.34017</ele>
        <time>2024-01-12T07:57:39Z</time>
      </trkpt>
      <trkpt lat="42.94228" lon="0.28017">
        <ele>1091.96389</ele>
        <time>2024-01-12T07:57:40Z</time>
      </trkpt>
      <trkpt lat="42.94228" lon="0.28019">
        <ele>1092.17591</ele>
        <time>2024-01-12T07:57:41Z</time>
      </trkpt>
      <trkpt lat="42.94227" lon="0.2802">
        <ele>1092.88112</ele>
        <time>2024-01-12T07:57:43Z</time>
      </trkpt>
      <trkpt lat="42.94226" lon="0.28022">
        <ele>1092.98098</ele>
        <time>2024-01-12T07:57:44Z</time>
      </trkpt>
      <trkpt lat="42.94226" lon="0.28022">
        <ele>1092.91019</ele>
        <time>2024-01-12T07:57:45Z</time>
      </trkpt>
      <trkpt lat="42.94224" lon="0.28023">
        <ele>1092.23086</ele>
        <time>2024-01-12T07:57:46Z</time>
      </trkpt>
      <trkpt lat="42.94223" lon="0.28024">
        <ele>1091.81697</ele>
        <time>2024-01-12T07:57:48Z</time>
      </trkpt>
      <trkpt lat="42.94222" lon="0.28025">
        <ele>1092.80225</ele>
        <time>2024-01-12T07:57:49Z</time>
      </trkpt>
      <trkpt lat="42.94221" lon="0.28027">
        <ele>1091.86501</ele>
        <time>2024-01-12T07:57:50Z</time>
      </trkpt>
      <trkpt lat="42.94221" lon="0.28028">
        <ele>1091.15445</ele>
        <time>2024-01-12T07:57:51Z</time>
      </trkpt>
      <trkpt lat="42.94219" lon="0.28029">
        <ele>1091.81025</ele>
        <time>2024-01-12T07:57:52Z</time>
      </trkpt>
      <trkpt lat="42.94218" lon="0.28032">
        <ele>1092.45817</ele>
        <time>2024-01-12T07:57:54Z</time>
      </trkpt>
      <trkpt lat="42.94217" lon="0.28034">
        <ele>1091.69025</ele>
        <time>2024-01-12T07:57:55Z</time>
      </trkpt>
      <trkpt lat="42.94216" lon="0.28035">
        <ele>1090.76468</ele>
        <time>2024-01-12T07:57:56Z</time>
      </trkpt>
      <trkpt lat="42.94215" lon="0.28036">
        <ele>1091.495</ele>
        <time>2024-01-12T07:57:57Z</time>
      </trkpt>
      <trkpt lat="42.94214" lon="0.28037">
        <ele>1091.29496</ele>
        <time>2024-01-12T07:57:58Z</time>
      </trkpt>
      <trkpt lat="42.94213" lon="0.28037">
        <ele>1092.20109</ele>
        <time>2024-01-12T07:57:59Z</time>
      </trkpt>
      <trkpt lat="42.94213" lon="0.28039">
        <ele>1092.64613</ele>
        <time>2024-01-12T07:58:00Z</time>
      </trkpt>
      <trkpt lat="42.94212" lon="0.2804">
        <ele>1092.56938</ele>
        <time>2024-01-12T07:58:01Z</time>
      </trkpt>
      <trkpt lat="42.94211" lon="0.28041">
        <ele>1092.85034</ele>
        <time>2024-01-12T07:58:02Z</time>
      </trkpt>
      <trkpt lat="42.9421" lon="0.28041">
        <ele>1092.72965</ele>
        <time>2024-01-12T07:58:03Z</time>
      </trkpt>
      <trkpt lat="42.94209" lon="0.28043">
        <ele>1093.55107</ele>
        <time>2024-01-12T07:58:05Z</time>
      </trkpt>
      <trkpt lat="42.94208" lon="0.28043">
        <ele>1092.63945</ele>
        <time>2024-01-12T07:58:08Z</time>
      </trkpt>
      <trkpt lat="42.94207" lon="0.28045">
        <ele>1092.00998</ele>
        <time>2024-01-12T07:58:09Z</time>
      </trkpt>
      <trkpt lat="42.94206" lon="0.28046">
        <ele>1087.52831</ele>
        <time>2024-01-12T07:58:10Z</time>
      </trkpt>
      <trkpt lat="42.94205" lon="0.28048">
        <ele>1089.75376</ele>
        <time>2024-01-12T07:58:12Z</time>
      </trkpt>
      <trkpt lat="42.94204" lon="0.28048">
        <ele>1089.57779</ele>
        <time>2024-01-12T07:58:13Z</time>
      </trkpt>
      <trkpt lat="42.94203" lon="0.28049">
        <ele>1089.54928</ele>
        <time>2024-01-12T07:58:14Z</time>
      </trkpt>
      <trkpt lat="42.94202" lon="0.28051">
        <ele>1088.9307</ele>
        <time>2024-01-12T07:58:16Z</time>
      </trkpt>
      <trkpt lat="42.94201" lon="0.28052">
        <ele>1088.87396</ele>
        <time>2024-01-12T07:58:17Z</time>
      </trkpt>
      <trkpt lat="42.942" lon="0.28052">
        <ele>1089.41793</ele>
        <time>2024-01-12T07:58:18Z</time>
      </trkpt>
      <trkpt lat="42.94199" lon="0.28053">
        <ele>1091.18353</ele>
        <time>2024-01-12T07:58:19Z</time>
      </trkpt>
      <trkpt lat="42.94198" lon="0.28054">
        <ele>1092.85549</ele>
        <time>2024-01-12T07:58:20Z</time>
      </trkpt>
      <trkpt lat="42.94197" lon="0.28055">
        <ele>1091.44954</ele>
        <time>2024-01-12T07:58:21Z</time>
      </trkpt>
      <trkpt lat="42.94196" lon="0.28055">
        <ele>1092.66598</ele>
        <time>2024-01-12T07:58:22Z</time>
      </trkpt>
      <trkpt lat="42.94194" lon="0.28057">
        <ele>1092.57059</ele>
        <time>2024-01-12T07:58:24Z</time>
      </trkpt>
      <trkpt lat="42.94193" lon="0.28057">
        <ele>1092.90186</ele>
        <time>2024-01-12T07:58:25Z</time>
      </trkpt>
      <trkpt lat="42.94192" lon="0.28057">
        <ele>1093.22874</ele>
        <time>2024-01-12T07:58:26Z</time>
      </trkpt>
      <trkpt lat="42.94191" lon="0.28058">
        <ele>1093.00894</ele>
        <time>2024-01-12T07:58:28Z</time>
      </trkpt>
      <trkpt lat="42.9419" lon="0.28059">
        <ele>1091.72538</ele>
        <time>2024-01-12T07:58:29Z</time>
      </trkpt>
      <trkpt lat="42.94189" lon="0.2806">
        <ele>1091.951</ele>
        <time>2024-01-12T07:58:30Z</time>
      </trkpt>
      <trkpt lat="42.94188" lon="0.28061">
        <ele>1091.57198</ele>
        <time>2024-01-12T07:58:31Z</time>
      </trkpt>
      <trkpt lat="42.94187" lon="0.28062">
        <ele>1092.32715</ele>
        <time>2024-01-12T07:58:32Z</time>
      </trkpt>
      <trkpt lat="42.94186" lon="0.28063">
        <ele>1090.79492</ele>
        <time>2024-01-12T07:58:33Z</time>
      </trkpt>
      <trkpt lat="42.94185" lon="0.28064">
        <ele>1088.50072</ele>
        <time>2024-01-12T07:58:34Z</time>
      </trkpt>
      <trkpt lat="42.94183" lon="0.28065">
        <ele>1090.95772</ele>
        <time>2024-01-12T07:58:36Z</time>
      </trkpt>
      <trkpt lat="42.94182" lon="0.28066">
        <ele>1092.50342</ele>
        <time>2024-01-12T07:58:38Z</time>
      </trkpt>
      <trkpt lat="42.94181" lon="0.28068">
        <ele>1092.74317</ele>
        <time>2024-01-12T07:58:39Z</time>
      </trkpt>
      <trkpt lat="42.9418" lon="0.28069">
        <ele>1092.71474</ele>
        <time>2024-01-12T07:58:40Z</time>
      </trkpt>
      <trkpt lat="42.94179" lon="0.2807">
        <ele>1091.47504</ele>
        <time>2024-01-12T07:58:41Z</time>
      </trkpt>
      <trkpt lat="42.94177" lon="0.2807">
        <ele>1092.85162</ele>
        <time>2024-01-12T07:58:43Z</time>
      </trkpt>
      <trkpt lat="42.94176" lon="0.28072">
        <ele>1092.77667</ele>
        <time>2024-01-12T07:58:44Z</time>
      </trkpt>
      <trkpt lat="42.94174" lon="0.28073">
        <ele>1093.025</ele>
        <time>2024-01-12T07:58:46Z</time>
      </trkpt>
      <trkpt lat="42.94173" lon="0.28074">
        <ele>1092.44611</ele>
        <time>2024-01-12T07:58:47Z</time>
      </trkpt>
      <trkpt lat="42.94171" lon="0.28075">
        <ele>1092.38844</ele>
        <time>2024-01-12T07:58:48Z</time>
      </trkpt>
      <trkpt lat="42.9417" lon="0.28075">
        <ele>1091.69257</ele>
        <time>2024-01-12T07:58:49Z</time>
      </trkpt>
      <trkpt lat="42.9417" lon="0.28076">
        <ele>1090.66955</ele>
        <time>2024-01-12T07:58:51Z</time>
      </trkpt>
      <trkpt lat="42.94169" lon="0.28078">
        <ele>1091.43354</ele>
        <time>2024-01-12T07:58:58Z</time>
      </trkpt>
      <trkpt lat="42.94168" lon="0.28079">
        <ele>1090.79223</ele>
        <time>2024-01-12T07:59:00Z</time>
      </trkpt>
      <trkpt lat="42.94167" lon="0.2808">
        <ele>1090.87074</ele>
        <time>2024-01-12T07:59:01Z</time>
      </trkpt>
      <trkpt lat="42.94166" lon="0.28081">
        <ele>1091.20322</ele>
        <time>2024-01-12T07:59:02Z</time>
      </trkpt>
      <trkpt lat="42.94165" lon="0.28082">
        <ele>1092.39139</ele>
        <time>2024-01-12T07:59:04Z</time>
      </trkpt>
      <trkpt lat="42.94164" lon="0.28083">
        <ele>1092.35309</ele>
        <time>2024-01-12T07:59:05Z</time>
      </trkpt>
      <trkpt lat="42.94163" lon="0.28084">
        <ele>1092.49124</ele>
        <time>2024-01-12T07:59:06Z</time>
      </trkpt>
      <trkpt lat="42.94162" lon="0.28085">
        <ele>1092.77838</ele>
        <time>2024-01-12T07:59:07Z</time>
      </trkpt>
      <trkpt lat="42.94161" lon="0.28085">
        <ele>1093.27828</ele>
        <time>2024-01-12T07:59:09Z</time>
      </trkpt>
      <trkpt lat="42.9416" lon="0.28086">
        <ele>1093.41399</ele>
        <time>2024-01-12T07:59:10Z</time>
      </trkpt>
      <trkpt lat="42.94158" lon="0.28087">
        <ele>1092.54049</ele>
        <time>2024-01-12T07:59:11Z</time>
      </trkpt>
      <trkpt lat="42.94156" lon="0.28088">
        <ele>1095.09438</ele>
        <time>2024-01-12T07:59:13Z</time>
      </trkpt>
      <trkpt lat="42.94155" lon="0.28089">
        <ele>1095.14321</ele>
        <time>2024-01-12T07:59:14Z</time>
      </trkpt>
      <trkpt lat="42.94154" lon="0.2809">
        <ele>1094.42754</ele>
        <time>2024-01-12T07:59:16Z</time>
      </trkpt>
      <trkpt lat="42.94153" lon="0.28091">
        <ele>1096.28845</ele>
        <time>2024-01-12T07:59:17Z</time>
      </trkpt>
      <trkpt lat="42.94151" lon="0.28093">
        <ele>1096.21767</ele>
        <time>2024-01-12T07:59:19Z</time>
      </trkpt>
      <trkpt lat="42.9415" lon="0.28093">
        <ele>1097.6512</ele>
        <time>2024-01-12T07:59:21Z</time>
      </trkpt>
      <trkpt lat="42.94149" lon="0.28094">
        <ele>1096.83369</ele>
        <time>2024-01-12T07:59:22Z</time>
      </trkpt>
      <trkpt lat="42.94148" lon="0.28095">
        <ele>1095.4639</ele>
        <time>2024-01-12T07:59:23Z</time>
      </trkpt>
      <trkpt lat="42.94147" lon="0.28096">
        <ele>1099.65575</ele>
        <time>2024-01-12T07:59:25Z</time>
      </trkpt>
      <trkpt lat="42.94146" lon="0.28097">
        <ele>1098.17543</ele>
        <time>2024-01-12T07:59:26Z</time>
      </trkpt>
      <trkpt lat="42.94145" lon="0.28098">
        <ele>1096.688</ele>
        <time>2024-01-12T07:59:27Z</time>
      </trkpt>
      <trkpt lat="42.94144" lon="0.28099">
        <ele>1096.70953</ele>
        <time>2024-01-12T07:59:28Z</time>
      </trkpt>
      <trkpt lat="42.94143" lon="0.28099">
        <ele>1096.47764</ele>
        <time>2024-01-12T07:59:29Z</time>
      </trkpt>
      <trkpt lat="42.94141" lon="0.281">
        <ele>1097.18379</ele>
        <time>2024-01-12T07:59:31Z</time>
      </trkpt>
      <trkpt lat="42.9414" lon="0.28101">
        <ele>1097.46757</ele>
        <time>2024-01-12T07:59:32Z</time>
      </trkpt>
      <trkpt lat="42.94139" lon="0.28102">
        <ele>1097.04382</ele>
        <time>2024-01-12T07:59:33Z</time>
      </trkpt>
      <trkpt lat="42.94138" lon="0.28103">
        <ele>1097.0875</ele>
        <time>2024-01-12T07:59:35Z</time>
      </trkpt>
      <trkpt lat="42.94137" lon="0.28104">
        <ele>1097.57645</ele>
        <time>2024-01-12T07:59:36Z</time>
      </trkpt>
      <trkpt lat="42.94136" lon="0.28106">
        <ele>1096.6786</ele>
        <time>2024-01-12T07:59:37Z</time>
      </trkpt>
      <trkpt lat="42.94135" lon="0.28106">
        <ele>1098.29942</ele>
        <time>2024-01-12T07:59:38Z</time>
      </trkpt>
      <trkpt lat="42.94134" lon="0.28107">
        <ele>1098.52662</ele>
        <time>2024-01-12T07:59:39Z</time>
      </trkpt>
      <trkpt lat="42.94133" lon="0.28108">
        <ele>1099.30096</ele>
        <time>2024-01-12T07:59:40Z</time>
      </trkpt>
      <trkpt lat="42.94133" lon="0.28109">
        <ele>1099.32735</ele>
        <time>2024-01-12T07:59:41Z</time>
      </trkpt>
      <trkpt lat="42.94131" lon="0.2811">
        <ele>1099.6008</ele>
        <time>2024-01-12T07:59:43Z</time>
      </trkpt>
      <trkpt lat="42.9413" lon="0.28111">
        <ele>1099.72144</ele>
        <time>2024-01-12T07:59:44Z</time>
      </trkpt>
      <trkpt lat="42.94128" lon="0.28112">
        <ele>1099.13095</ele>
        <time>2024-01-12T07:59:46Z</time>
      </trkpt>
      <trkpt lat="42.94127" lon="0.28114">
        <ele>1096.41099</ele>
        <time>2024-01-12T07:59:48Z</time>
      </trkpt>
      <trkpt lat="42.94125" lon="0.28115">
        <ele>1099.31951</ele>
        <time>2024-01-12T07:59:50Z</time>
      </trkpt>
      <trkpt lat="42.94123" lon="0.28117">
        <ele>1099.32829</ele>
        <time>2024-01-12T07:59:52Z</time>
      </trkpt>
      <trkpt lat="42.94122" lon="0.28117">
        <ele>1099.59654</ele>
        <time>2024-01-12T07:59:53Z</time>
      </trkpt>
      <trkpt lat="42.94122" lon="0.28118">
        <ele>1098.76877</ele>
        <time>2024-01-12T07:59:54Z</time>
      </trkpt>
      <trkpt lat="42.94121" lon="0.2812">
        <ele>1098.57233</ele>
        <time>2024-01-12T07:59:55Z</time>
      </trkpt>
      <trkpt lat="42.94119" lon="0.28121">
        <ele>1098.59545</ele>
        <time>2024-01-12T07:59:57Z</time>
      </trkpt>
      <trkpt lat="42.94118" lon="0.28123">
        <ele>1098.09023</ele>
        <time>2024-01-12T07:59:59Z</time>
      </trkpt>
      <trkpt lat="42.94117" lon="0.28124">
        <ele>1098.35912</ele>
        <time>2024-01-12T08:00:00Z</time>
      </trkpt>
      <trkpt lat="42.94116" lon="0.28125">
        <ele>1102.1312</ele>
        <time>2024-01-12T08:00:02Z</time>
      </trkpt>
      <trkpt lat="42.94115" lon="0.28127">
        <ele>1102.0512</ele>
        <time>2024-01-12T08:00:04Z</time>
      </trkpt>
      <trkpt lat="42.94114" lon="0.28129">
        <ele>1101.50239</ele>
        <time>2024-01-12T08:00:05Z</time>
      </trkpt>
      <trkpt lat="42.94114" lon="0.2813">
        <ele>1100.40032</ele>
        <time>2024-01-12T08:00:06Z</time>
      </trkpt>
      <trkpt lat="42.94113" lon="0.28131">
        <ele>1099.97057</ele>
        <time>2024-01-12T08:00:07Z</time>
      </trkpt>
      <trkpt lat="42.94111" lon="0.28132">
        <ele>1098.97886</ele>
        <time>2024-01-12T08:00:09Z</time>
      </trkpt>
      <trkpt lat="42.94111" lon="0.28133">
        <ele>1097.41015</ele>
        <time>2024-01-12T08:00:10Z</time>
      </trkpt>
      <trkpt lat="42.9411" lon="0.28135">
        <ele>1099.22093</ele>
        <time>2024-01-12T08:00:12Z</time>
      </trkpt>
      <trkpt lat="42.94109" lon="0.28137">
        <ele>1099.42947</ele>
        <time>2024-01-12T08:00:13Z</time>
      </trkpt>
      <trkpt lat="42.94109" lon="0.28138">
        <ele>1099.25714</ele>
        <time>2024-01-12T08:00:14Z</time>
      </trkpt>
      <trkpt lat="42.94108" lon="0.28139">
        <ele>1099.70068</ele>
        <time>2024-01-12T08:00:15Z</time>
      </trkpt>
      <trkpt lat="42.94107" lon="0.2814">
        <ele>1100.6325</ele>
        <time>2024-01-12T08:00:17Z</time>
      </trkpt>
      <trkpt lat="42.94106" lon="0.28142">
        <ele>1099.71201</ele>
        <time>2024-01-12T08:00:18Z</time>
      </trkpt>
      <trkpt lat="42.94106" lon="0.28143">
        <ele>1099.98649</ele>
        <time>2024-01-12T08:00:19Z</time>
      </trkpt>
      <trkpt lat="42.94105" lon="0.28144">
        <ele>1100.23314</ele>
        <time>2024-01-12T08:00:20Z</time>
      </trkpt>
      <trkpt lat="42.94104" lon="0.28145">
        <ele>1100.39725</ele>
        <time>2024-01-12T08:00:21Z</time>
      </trkpt>
      <trkpt lat="42.94103" lon="0.28147">
        <ele>1100.64292</ele>
        <time>2024-01-12T08:00:23Z</time>
      </trkpt>
      <trkpt lat="42.94103" lon="0.28149">
        <ele>1098.56018</ele>
        <time>2024-01-12T08:00:31Z</time>
      </trkpt>
      <trkpt lat="42.94102" lon="0.2815">
        <ele>1100.49428</ele>
        <time>2024-01-12T08:00:33Z</time>
      </trkpt>
      <trkpt lat="42.94101" lon="0.28152">
        <ele>1101.61364</ele>
        <time>2024-01-12T08:00:35Z</time>
      </trkpt>
      <trkpt lat="42.941" lon="0.28153">
        <ele>1101.70797</ele>
        <time>2024-01-12T08:00:37Z</time>
      </trkpt>
      <trkpt lat="42.941" lon="0.28154">
        <ele>1102.10629</ele>
        <time>2024-01-12T08:00:38Z</time>
      </trkpt>
      <trkpt lat="42.94099" lon="0.28155">
        <ele>1101.479</ele>
        <time>2024-01-12T08:00:39Z</time>
      </trkpt>
      <trkpt lat="42.94098" lon="0.28157">
        <ele>1101.75367</ele>
        <time>2024-01-12T08:00:40Z</time>
      </trkpt>
      <trkpt lat="42.94098" lon="0.28158">
        <ele>1102.16795</ele>
        <time>2024-01-12T08:00:42Z</time>
      </trkpt>
      <trkpt lat="42.94097" lon="0.28161">
        <ele>1103.41317</ele>
        <time>2024-01-12T08:00:44Z</time>
      </trkpt>
      <trkpt lat="42.94096" lon="0.28163">
        <ele>1102.65913</ele>
        <time>2024-01-12T08:00:46Z</time>
      </trkpt>
      <trkpt lat="42.94096" lon="0.28164">
        <ele>1103.43331</ele>
        <time>2024-01-12T08:00:47Z</time>
      </trkpt>
      <trkpt lat="42.94095" lon="0.28166">
        <ele>1104.03884</ele>
        <time>2024-01-12T08:00:49Z</time>
      </trkpt>
      <trkpt lat="42.94094" lon="0.28167">
        <ele>1104.35148</ele>
        <time>2024-01-12T08:00:51Z</time>
      </trkpt>
      <trkpt lat="42.94094" lon="0.28169">
        <ele>1104.77512</ele>
        <time>2024-01-12T08:00:52Z</time>
      </trkpt>
      <trkpt lat="42.94093" lon="0.2817">
        <ele>1105.8797</ele>
        <time>2024-01-12T08:00:54Z</time>
      </trkpt>
      <trkpt lat="42.94092" lon="0.28172">
        <ele>1105.81984</ele>
        <time>2024-01-12T08:00:55Z</time>
      </trkpt>
      <trkpt lat="42.94092" lon="0.28173">
        <ele>1105.09757</ele>
        <time>2024-01-12T08:00:56Z</time>
      </trkpt>
      <trkpt lat="42.94091" lon="0.28175">
        <ele>1106.90635</ele>
        <time>2024-01-12T08:00:58Z</time>
      </trkpt>
      <trkpt lat="42.9409" lon="0.28176">
        <ele>1108.99666</ele>
        <time>2024-01-12T08:01:00Z</time>
      </trkpt>
      <trkpt lat="42.94089" lon="0.28179">
        <ele>1108.40733</ele>
        <time>2024-01-12T08:01:02Z</time>
      </trkpt>
      <trkpt lat="42.94089" lon="0.28181">
        <ele>1108.1732</ele>
        <time>2024-01-12T08:01:03Z</time>
      </trkpt>
      <trkpt lat="42.94088" lon="0.28182">
        <ele>1110.19725</ele>
        <time>2024-01-12T08:01:05Z</time>
      </trkpt>
      <trkpt lat="42.94087" lon="0.28185">
        <ele>1108.92235</ele>
        <time>2024-01-12T08:01:07Z</time>
      </trkpt>
      <trkpt lat="42.94086" lon="0.28188">
        <ele>1108.7789</ele>
        <time>2024-01-12T08:01:09Z</time>
      </trkpt>
      <trkpt lat="42.94085" lon="0.28189">
        <ele>1108.6195</ele>
        <time>2024-01-12T08:01:10Z</time>
      </trkpt>
      <trkpt lat="42.94085" lon="0.28191">
        <ele>1107.62736</ele>
        <time>2024-01-12T08:01:11Z</time>
      </trkpt>
      <trkpt lat="42.94084" lon="0.28192">
        <ele>1106.15025</ele>
        <time>2024-01-12T08:01:13Z</time>
      </trkpt>
      <trkpt lat="42.94083" lon="0.28193">
        <ele>1106.89518</ele>
        <time>2024-01-12T08:01:14Z</time>
      </trkpt>
      <trkpt lat="42.94082" lon="0.28194">
        <ele>1107.91473</ele>
        <time>2024-01-12T08:01:15Z</time>
      </trkpt>
      <trkpt lat="42.94081" lon="0.28195">
        <ele>1107.54494</ele>
        <time>2024-01-12T08:01:17Z</time>
      </trkpt>
      <trkpt lat="42.9408" lon="0.28197">
        <ele>1108.54602</ele>
        <time>2024-01-12T08:01:19Z</time>
      </trkpt>
      <trkpt lat="42.9408" lon="0.282">
        <ele>1107.52626</ele>
        <time>2024-01-12T08:01:21Z</time>
      </trkpt>
      <trkpt lat="42.94079" lon="0.28202">
        <ele>1107.21233</ele>
        <time>2024-01-12T08:01:23Z</time>
      </trkpt>
      <trkpt lat="42.94078" lon="0.28203">
        <ele>1106.76953</ele>
        <time>2024-01-12T08:01:24Z</time>
      </trkpt>
      <trkpt lat="42.94078" lon="0.28204">
        <ele>1106.60986</ele>
        <time>2024-01-12T08:01:25Z</time>
      </trkpt>
      <trkpt lat="42.94077" lon="0.28205">
        <ele>1108.18706</ele>
        <time>2024-01-12T08:01:27Z</time>
      </trkpt>
      <trkpt lat="42.94076" lon="0.28208">
        <ele>1108.71766</ele>
        <time>2024-01-12T08:01:29Z</time>
      </trkpt>
      <trkpt lat="42.94075" lon="0.2821">
        <ele>1108.81089</ele>
        <time>2024-01-12T08:01:31Z</time>
      </trkpt>
      <trkpt lat="42.94074" lon="0.28211">
        <ele>1108.61917</ele>
        <time>2024-01-12T08:01:32Z</time>
      </trkpt>
      <trkpt lat="42.94073" lon="0.28212">
        <ele>1108.23206</ele>
        <time>2024-01-12T08:01:33Z</time>
      </trkpt>
      <trkpt lat="42.94073" lon="0.28214">
        <ele>1107.92046</ele>
        <time>2024-01-12T08:01:35Z</time>
      </trkpt>
      <trkpt lat="42.94072" lon="0.28216">
        <ele>1107.6896</ele>
        <time>2024-01-12T08:01:36Z</time>
      </trkpt>
      <trkpt lat="42.94072" lon="0.28217">
        <ele>1107.59903</ele>
        <time>2024-01-12T08:01:37Z</time>
      </trkpt>
      <trkpt lat="42.94071" lon="0.28218">
        <ele>1107.37298</ele>
        <time>2024-01-12T08:01:38Z</time>
      </trkpt>
      <trkpt lat="42.9407" lon="0.28219">
        <ele>1106.22232</ele>
        <time>2024-01-12T08:01:39Z</time>
      </trkpt>
      <trkpt lat="42.94069" lon="0.28221">
        <ele>1106.47885</ele>
        <time>2024-01-12T08:01:41Z</time>
      </trkpt>
      <trkpt lat="42.94069" lon="0.28223">
        <ele>1106.31191</ele>
        <time>2024-01-12T08:01:42Z</time>
      </trkpt>
      <trkpt lat="42.94067" lon="0.28223">
        <ele>1107.03672</ele>
        <time>2024-01-12T08:01:43Z</time>
      </trkpt>
      <trkpt lat="42.94067" lon="0.28224">
        <ele>1107.36805</ele>
        <time>2024-01-12T08:01:44Z</time>
      </trkpt>
      <trkpt lat="42.94066" lon="0.28225">
        <ele>1109.60819</ele>
        <time>2024-01-12T08:01:46Z</time>
      </trkpt>
      <trkpt lat="42.94065" lon="0.28225">
        <ele>1108.8932</ele>
        <time>2024-01-12T08:01:47Z</time>
      </trkpt>
      <trkpt lat="42.94064" lon="0.28227">
        <ele>1107.31741</ele>
        <time>2024-01-12T08:01:49Z</time>
      </trkpt>
      <trkpt lat="42.94063" lon="0.28229">
        <ele>1106.91364</ele>
        <time>2024-01-12T08:01:50Z</time>
      </trkpt>
      <trkpt lat="42.94062" lon="0.28229">
        <ele>1108.38186</ele>
        <time>2024-01-12T08:01:52Z</time>
      </trkpt>
      <trkpt lat="42.94061" lon="0.28231">
        <ele>1106.55905</ele>
        <time>2024-01-12T08:01:53Z</time>
      </trkpt>
      <trkpt lat="42.94059" lon="0.28233">
        <ele>1106.82212</ele>
        <time>2024-01-12T08:01:55Z</time>
      </trkpt>
      <trkpt lat="42.94058" lon="0.28234">
        <ele>1107.41964</ele>
        <time>2024-01-12T08:01:57Z</time>
      </trkpt>
      <trkpt lat="42.94058" lon="0.28236">
        <ele>1107.73828</ele>
        <time>2024-01-12T08:01:59Z</time>
      </trkpt>
      <trkpt lat="42.94057" lon="0.28235">
        <ele>1109.4377</ele>
        <time>2024-01-12T08:02:20Z</time>
      </trkpt>
      <trkpt lat="42.94055" lon="0.28235">
        <ele>1112.2581</ele>
        <time>2024-01-12T08:02:28Z</time>
      </trkpt>
      <trkpt lat="42.94056" lon="0.28237">
        <ele>1110.52924</ele>
        <time>2024-01-12T08:02:35Z</time>
      </trkpt>
      <trkpt lat="42.94055" lon="0.28237">
        <ele>1110.89423</ele>
        <time>2024-01-12T08:02:38Z</time>
      </trkpt>
      <trkpt lat="42.94054" lon="0.28239">
        <ele>1112.05622</ele>
        <time>2024-01-12T08:02:40Z</time>
      </trkpt>
      <trkpt lat="42.94053" lon="0.2824">
        <ele>1111.58706</ele>
        <time>2024-01-12T08:02:42Z</time>
      </trkpt>
      <trkpt lat="42.94052" lon="0.28241">
        <ele>1112.14107</ele>
        <time>2024-01-12T08:02:43Z</time>
      </trkpt>
      <trkpt lat="42.94051" lon="0.28243">
        <ele>1109.19636</ele>
        <time>2024-01-12T08:02:45Z</time>
      </trkpt>
      <trkpt lat="42.94051" lon="0.28244">
        <ele>1108.59061</ele>
        <time>2024-01-12T08:02:46Z</time>
      </trkpt>
      <trkpt lat="42.9405" lon="0.28246">
        <ele>1108.6269</ele>
        <time>2024-01-12T08:02:47Z</time>
      </trkpt>
      <trkpt lat="42.94049" lon="0.28247">
        <ele>1105.08093</ele>
        <time>2024-01-12T08:02:49Z</time>
      </trkpt>
      <trkpt lat="42.94048" lon="0.28249">
        <ele>1105.21068</ele>
        <time>2024-01-12T08:02:50Z</time>
      </trkpt>
      <trkpt lat="42.94047" lon="0.28249">
        <ele>1105.57688</ele>
        <time>2024-01-12T08:02:51Z</time>
      </trkpt>
      <trkpt lat="42.94046" lon="0.28251">
        <ele>1104.54087</ele>
        <time>2024-01-12T08:02:52Z</time>
      </trkpt>
      <trkpt lat="42.94045" lon="0.28251">
        <ele>1102.32145</ele>
        <time>2024-01-12T08:02:53Z</time>
      </trkpt>
      <trkpt lat="42.94044" lon="0.28252">
        <ele>1104.76349</ele>
        <time>2024-01-12T08:02:55Z</time>
      </trkpt>
      <trkpt lat="42.94044" lon="0.28253">
        <ele>1107.11495</ele>
        <time>2024-01-12T08:02:56Z</time>
      </trkpt>
      <trkpt lat="42.94042" lon="0.28255">
        <ele>1108.32374</ele>
        <time>2024-01-12T08:02:58Z</time>
      </trkpt>
      <trkpt lat="42.94041" lon="0.28255">
        <ele>1108.81723</ele>
        <time>2024-01-12T08:02:59Z</time>
      </trkpt>
      <trkpt lat="42.9404" lon="0.28256">
        <ele>1108.95549</ele>
        <time>2024-01-12T08:03:00Z</time>
      </trkpt>
      <trkpt lat="42.9404" lon="0.28257">
        <ele>1108.20962</ele>
        <time>2024-01-12T08:03:01Z</time>
      </trkpt>
      <trkpt lat="42.94039" lon="0.28258">
        <ele>1108.96463</ele>
        <time>2024-01-12T08:03:02Z</time>
      </trkpt>
      <trkpt lat="42.94038" lon="0.28259">
        <ele>1109.23643</ele>
        <time>2024-01-12T08:03:03Z</time>
      </trkpt>
      <trkpt lat="42.94037" lon="0.2826">
        <ele>1109.88002</ele>
        <time>2024-01-12T08:03:04Z</time>
      </trkpt>
      <trkpt lat="42.94036" lon="0.28261">
        <ele>1110.00748</ele>
        <time>2024-01-12T08:03:05Z</time>
      </trkpt>
      <trkpt lat="42.94035" lon="0.28263">
        <ele>1109.35657</ele>
        <time>2024-01-12T08:03:06Z</time>
      </trkpt>
      <trkpt lat="42.94034" lon="0.28264">
        <ele>1109.37385</ele>
        <time>2024-01-12T08:03:07Z</time>
      </trkpt>
      <trkpt lat="42.94034" lon="0.28265">
        <ele>1106.70582</ele>
        <time>2024-01-12T08:03:08Z</time>
      </trkpt>
      <trkpt lat="42.94033" lon="0.28266">
        <ele>1108.84419</ele>
        <time>2024-01-12T08:03:09Z</time>
      </trkpt>
      <trkpt lat="42.94032" lon="0.28267">
        <ele>1109.66646</ele>
        <time>2024-01-12T08:03:11Z</time>
      </trkpt>
      <trkpt lat="42.9403" lon="0.28268">
        <ele>1109.68434</ele>
        <time>2024-01-12T08:03:13Z</time>
      </trkpt>
      <trkpt lat="42.9403" lon="0.2827">
        <ele>1110.11743</ele>
        <time>2024-01-12T08:03:14Z</time>
      </trkpt>
      <trkpt lat="42.94029" lon="0.28271">
        <ele>1109.69021</ele>
        <time>2024-01-12T08:03:15Z</time>
      </trkpt>
      <trkpt lat="42.94027" lon="0.28273">
        <ele>1110.19754</ele>
        <time>2024-01-12T08:03:17Z</time>
      </trkpt>
      <trkpt lat="42.94025" lon="0.28274">
        <ele>1109.58341</ele>
        <time>2024-01-12T08:03:19Z</time>
      </trkpt>
      <trkpt lat="42.94025" lon="0.28276">
        <ele>1109.95371</ele>
        <time>2024-01-12T08:03:20Z</time>
      </trkpt>
      <trkpt lat="42.94024" lon="0.28277">
        <ele>1110.25039</ele>
        <time>2024-01-12T08:03:21Z</time>
      </trkpt>
      <trkpt lat="42.94023" lon="0.28278">
        <ele>1109.81673</ele>
        <time>2024-01-12T08:03:22Z</time>
      </trkpt>
      <trkpt lat="42.94022" lon="0.28279">
        <ele>1107.5889</ele>
        <time>2024-01-12T08:03:23Z</time>
      </trkpt>
      <trkpt lat="42.94021" lon="0.2828">
        <ele>1107.34019</ele>
        <time>2024-01-12T08:03:24Z</time>
      </trkpt>
      <trkpt lat="42.9402" lon="0.28281">
        <ele>1106.65662</ele>
        <time>2024-01-12T08:03:25Z</time>
      </trkpt>
      <trkpt lat="42.9402" lon="0.28283">
        <ele>1106.60786</ele>
        <time>2024-01-12T08:03:26Z</time>
      </trkpt>
      <trkpt lat="42.94018" lon="0.28285">
        <ele>1106.77246</ele>
        <time>2024-01-12T08:03:28Z</time>
      </trkpt>
      <trkpt lat="42.94018" lon="0.28286">
        <ele>1106.91163</ele>
        <time>2024-01-12T08:03:29Z</time>
      </trkpt>
      <trkpt lat="42.94016" lon="0.28285">
        <ele>1106.25887</ele>
        <time>2024-01-12T08:03:30Z</time>
      </trkpt>
      <trkpt lat="42.94015" lon="0.28286">
        <ele>1106.57204</ele>
        <time>2024-01-12T08:03:31Z</time>
      </trkpt>
      <trkpt lat="42.94014" lon="0.28288">
        <ele>1101.65311</ele>
        <time>2024-01-12T08:03:32Z</time>
      </trkpt>
      <trkpt lat="42.94013" lon="0.2829">
        <ele>1098.80604</ele>
        <time>2024-01-12T08:03:33Z</time>
      </trkpt>
      <trkpt lat="42.94012" lon="0.28291">
        <ele>1096.92466</ele>
        <time>2024-01-12T08:03:34Z</time>
      </trkpt>
      <trkpt lat="42.94011" lon="0.28291">
        <ele>1097.88952</ele>
        <time>2024-01-12T08:03:35Z</time>
      </trkpt>
      <trkpt lat="42.9401" lon="0.28292">
        <ele>1098.83975</ele>
        <time>2024-01-12T08:03:36Z</time>
      </trkpt>
      <trkpt lat="42.94009" lon="0.28293">
        <ele>1099.65029</ele>
        <time>2024-01-12T08:03:37Z</time>
      </trkpt>
      <trkpt lat="42.94008" lon="0.28295">
        <ele>1103.47362</ele>
        <time>2024-01-12T08:03:39Z</time>
      </trkpt>
      <trkpt lat="42.94007" lon="0.28296">
        <ele>1103.96498</ele>
        <time>2024-01-12T08:03:40Z</time>
      </trkpt>
      <trkpt lat="42.94006" lon="0.28297">
        <ele>1104.88701</ele>
        <time>2024-01-12T08:03:41Z</time>
      </trkpt>
      <trkpt lat="42.94005" lon="0.28299">
        <ele>1106.61151</ele>
        <time>2024-01-12T08:03:43Z</time>
      </trkpt>
      <trkpt lat="42.94004" lon="0.283">
        <ele>1108.44854</ele>
        <time>2024-01-12T08:03:44Z</time>
      </trkpt>
      <trkpt lat="42.94003" lon="0.28301">
        <ele>1110.50624</ele>
        <time>2024-01-12T08:03:45Z</time>
      </trkpt>
      <trkpt lat="42.94002" lon="0.28303">
        <ele>1108.80681</ele>
        <time>2024-01-12T08:03:47Z</time>
      </trkpt>
      <trkpt lat="42.94001" lon="0.28304">
        <ele>1108.227</ele>
        <time>2024-01-12T08:03:48Z</time>
      </trkpt>
      <trkpt lat="42.94" lon="0.28305">
        <ele>1108.34545</ele>
        <time>2024-01-12T08:03:49Z</time>
      </trkpt>
      <trkpt lat="42.93999" lon="0.28306">
        <ele>1108.0978</ele>
        <time>2024-01-12T08:03:50Z</time>
      </trkpt>
      <trkpt lat="42.93998" lon="0.28308">
        <ele>1108.47903</ele>
        <time>2024-01-12T08:03:52Z</time>
      </trkpt>
      <trkpt lat="42.93997" lon="0.2831">
        <ele>1108.94191</ele>
        <time>2024-01-12T08:03:54Z</time>
      </trkpt>
      <trkpt lat="42.93995" lon="0.28311">
        <ele>1107.09515</ele>
        <time>2024-01-12T08:03:56Z</time>
      </trkpt>
      <trkpt lat="42.93994" lon="0.28314">
        <ele>1109.50529</ele>
        <time>2024-01-12T08:03:58Z</time>
      </trkpt>
      <trkpt lat="42.93993" lon="0.28316">
        <ele>1109.33671</ele>
        <time>2024-01-12T08:04:00Z</time>
      </trkpt>
      <trkpt lat="42.93992" lon="0.28318">
        <ele>1111.35906</ele>
        <time>2024-01-12T08:04:02Z</time>
      </trkpt>
      <trkpt lat="42.93991" lon="0.28319">
        <ele>1110.20905</ele>
        <time>2024-01-12T08:04:03Z</time>
      </trkpt>
      <trkpt lat="42.9399" lon="0.2832">
        <ele>1110.58596</ele>
        <time>2024-01-12T08:04:04Z</time>
      </trkpt>
      <trkpt lat="42.9399" lon="0.28321">
        <ele>1110.23956</ele>
        <time>2024-01-12T08:04:05Z</time>
      </trkpt>
      <trkpt lat="42.93989" lon="0.28323">
        <ele>1109.99526</ele>
        <time>2024-01-12T08:04:06Z</time>
      </trkpt>
      <trkpt lat="42.93989" lon="0.28325">
        <ele>1110.64169</ele>
        <time>2024-01-12T08:04:07Z</time>
      </trkpt>
      <trkpt lat="42.93988" lon="0.28327">
        <ele>1110.44405</ele>
        <time>2024-01-12T08:04:09Z</time>
      </trkpt>
      <trkpt lat="42.93987" lon="0.28328">
        <ele>1110.23101</ele>
        <time>2024-01-12T08:04:10Z</time>
      </trkpt>
      <trkpt lat="42.93986" lon="0.28329">
        <ele>1109.85009</ele>
        <time>2024-01-12T08:04:11Z</time>
      </trkpt>
      <trkpt lat="42.93985" lon="0.2833">
        <ele>1109.16958</ele>
        <time>2024-01-12T08:04:12Z</time>
      </trkpt>
      <trkpt lat="42.93984" lon="0.28331">
        <ele>1109.03578</ele>
        <time>2024-01-12T08:04:13Z</time>
      </trkpt>
      <trkpt lat="42.93984" lon="0.28333">
        <ele>1109.28693</ele>
        <time>2024-01-12T08:04:14Z</time>
      </trkpt>
      <trkpt lat="42.93982" lon="0.28334">
        <ele>1108.82814</ele>
        <time>2024-01-12T08:04:15Z</time>
      </trkpt>
      <trkpt lat="42.93981" lon="0.28335">
        <ele>1107.74102</ele>
        <time>2024-01-12T08:04:16Z</time>
      </trkpt>
      <trkpt lat="42.9398" lon="0.28336">
        <ele>1108.96387</ele>
        <time>2024-01-12T08:04:18Z</time>
      </trkpt>
      <trkpt lat="42.93979" lon="0.28338">
        <ele>1108.48325</ele>
        <time>2024-01-12T08:04:19Z</time>
      </trkpt>
      <trkpt lat="42.93979" lon="0.28339">
        <ele>1108.83361</ele>
        <time>2024-01-12T08:04:20Z</time>
      </trkpt>
      <trkpt lat="42.93978" lon="0.2834">
        <ele>1107.9198</ele>
        <time>2024-01-12T08:04:21Z</time>
      </trkpt>
      <trkpt lat="42.93977" lon="0.28341">
        <ele>1107.71646</ele>
        <time>2024-01-12T08:04:22Z</time>
      </trkpt>
      <trkpt lat="42.93976" lon="0.28342">
        <ele>1108.21035</ele>
        <time>2024-01-12T08:04:23Z</time>
      </trkpt>
      <trkpt lat="42.93976" lon="0.28343">
        <ele>1107.86197</ele>
        <time>2024-01-12T08:04:24Z</time>
      </trkpt>
      <trkpt lat="42.93975" lon="0.28344">
        <ele>1108.00569</ele>
        <time>2024-01-12T08:04:25Z</time>
      </trkpt>
      <trkpt lat="42.93974" lon="0.28345">
        <ele>1107.65888</ele>
        <time>2024-01-12T08:04:26Z</time>
      </trkpt>
      <trkpt lat="42.93973" lon="0.28345">
        <ele>1107.6586</ele>
        <time>2024-01-12T08:04:27Z</time>
      </trkpt>
      <trkpt lat="42.93972" lon="0.28346">
        <ele>1110.54565</ele>
        <time>2024-01-12T08:04:29Z</time>
      </trkpt>
      <trkpt lat="42.93971" lon="0.28347">
        <ele>1109.75742</ele>
        <time>2024-01-12T08:04:30Z</time>
      </trkpt>
      <trkpt lat="42.9397" lon="0.28349">
        <ele>1110.37953</ele>
        <time>2024-01-12T08:04:31Z</time>
      </trkpt>
      <trkpt lat="42.9397" lon="0.2835">
        <ele>1109.33189</ele>
        <time>2024-01-12T08:04:32Z</time>
      </trkpt>
      <trkpt lat="42.93969" lon="0.28351">
        <ele>1109.15682</ele>
        <time>2024-01-12T08:04:33Z</time>
      </trkpt>
      <trkpt lat="42.93968" lon="0.28352">
        <ele>1110.06889</ele>
        <time>2024-01-12T08:04:34Z</time>
      </trkpt>
      <trkpt lat="42.93967" lon="0.28353">
        <ele>1109.16594</ele>
        <time>2024-01-12T08:04:35Z</time>
      </trkpt>
      <trkpt lat="42.93967" lon="0.28355">
        <ele>1109.15194</ele>
        <time>2024-01-12T08:04:36Z</time>
      </trkpt>
      <trkpt lat="42.93966" lon="0.28356">
        <ele>1107.64799</ele>
        <time>2024-01-12T08:04:38Z</time>
      </trkpt>
      <trkpt lat="42.93965" lon="0.28358">
        <ele>1107.20451</ele>
        <time>2024-01-12T08:04:40Z</time>
      </trkpt>
      <trkpt lat="42.93964" lon="0.28359">
        <ele>1105.81731</ele>
        <time>2024-01-12T08:04:41Z</time>
      </trkpt>
      <trkpt lat="42.93963" lon="0.2836">
        <ele>1105.39209</ele>
        <time>2024-01-12T08:04:42Z</time>
      </trkpt>
      <trkpt lat="42.93963" lon="0.28362">
        <ele>1105.58167</ele>
        <time>2024-01-12T08:04:43Z</time>
      </trkpt>
      <trkpt lat="42.93962" lon="0.28364">
        <ele>1106.63089</ele>
        <time>2024-01-12T08:04:45Z</time>
      </trkpt>
      <trkpt lat="42.9396" lon="0.28365">
        <ele>1106.52894</ele>
        <time>2024-01-12T08:04:47Z</time>
      </trkpt>
      <trkpt lat="42.93959" lon="0.28366">
        <ele>1106.79259</ele>
        <time>2024-01-12T08:04:48Z</time>
      </trkpt>
      <trkpt lat="42.93958" lon="0.28367">
        <ele>1106.50306</ele>
        <time>2024-01-12T08:04:49Z</time>
      </trkpt>
      <trkpt lat="42.93957" lon="0.28368">
        <ele>1106.68919</ele>
        <time>2024-01-12T08:04:50Z</time>
      </trkpt>
      <trkpt lat="42.93956" lon="0.28369">
        <ele>1106.56461</ele>
        <time>2024-01-12T08:04:51Z</time>
      </trkpt>
      <trkpt lat="42.93956" lon="0.2837">
        <ele>1105.91537</ele>
        <time>2024-01-12T08:04:52Z</time>
      </trkpt>
      <trkpt lat="42.93955" lon="0.28372">
        <ele>1105.82467</ele>
        <time>2024-01-12T08:04:53Z</time>
      </trkpt>
      <trkpt lat="42.93955" lon="0.28373">
        <ele>1106.66056</ele>
        <time>2024-01-12T08:04:54Z</time>
      </trkpt>
      <trkpt lat="42.93954" lon="0.28374">
        <ele>1107.56331</ele>
        <time>2024-01-12T08:04:55Z</time>
      </trkpt>
      <trkpt lat="42.93953" lon="0.28376">
        <ele>1106.52082</ele>
        <time>2024-01-12T08:04:56Z</time>
      </trkpt>
      <trkpt lat="42.93952" lon="0.28377">
        <ele>1107.60337</ele>
        <time>2024-01-12T08:04:58Z</time>
      </trkpt>
      <trkpt lat="42.93951" lon="0.28378">
        <ele>1107.70761</ele>
        <time>2024-01-12T08:04:59Z</time>
      </trkpt>
      <trkpt lat="42.9395" lon="0.2838">
        <ele>1108.38566</ele>
        <time>2024-01-12T08:05:00Z</time>
      </trkpt>
      <trkpt lat="42.93949" lon="0.2838">
        <ele>1108.33831</ele>
        <time>2024-01-12T08:05:01Z</time>
      </trkpt>
      <trkpt lat="42.93948" lon="0.28381">
        <ele>1108.31653</ele>
        <time>2024-01-12T08:05:02Z</time>
      </trkpt>
      <trkpt lat="42.93946" lon="0.28383">
        <ele>1108.22642</ele>
        <time>2024-01-12T08:05:04Z</time>
      </trkpt>
      <trkpt lat="42.93945" lon="0.28384">
        <ele>1108.06934</ele>
        <time>2024-01-12T08:05:05Z</time>
      </trkpt>
      <trkpt lat="42.93945" lon="0.28386">
        <ele>1107.93445</ele>
        <time>2024-01-12T08:05:06Z</time>
      </trkpt>
      <trkpt lat="42.93944" lon="0.28387">
        <ele>1109.63326</ele>
        <time>2024-01-12T08:05:07Z</time>
      </trkpt>
      <trkpt lat="42.93944" lon="0.28388">
        <ele>1109.44564</ele>
        <time>2024-01-12T08:05:08Z</time>
      </trkpt>
      <trkpt lat="42.93943" lon="0.2839">
        <ele>1109.2428</ele>
        <time>2024-01-12T08:05:09Z</time>
      </trkpt>
      <trkpt lat="42.93942" lon="0.28391">
        <ele>1108.89519</ele>
        <time>2024-01-12T08:05:10Z</time>
      </trkpt>
      <trkpt lat="42.93941" lon="0.28392">
        <ele>1105.72336</ele>
        <time>2024-01-12T08:05:11Z</time>
      </trkpt>
      <trkpt lat="42.93941" lon="0.28393">
        <ele>1106.923</ele>
        <time>2024-01-12T08:05:12Z</time>
      </trkpt>
      <trkpt lat="42.93939" lon="0.28394">
        <ele>1107.63876</ele>
        <time>2024-01-12T08:05:13Z</time>
      </trkpt>
      <trkpt lat="42.93939" lon="0.28396">
        <ele>1107.72491</ele>
        <time>2024-01-12T08:05:14Z</time>
      </trkpt>
      <trkpt lat="42.93938" lon="0.28397">
        <ele>1108.25994</ele>
        <time>2024-01-12T08:05:15Z</time>
      </trkpt>
      <trkpt lat="42.93938" lon="0.28398">
        <ele>1108.48856</ele>
        <time>2024-01-12T08:05:16Z</time>
      </trkpt>
      <trkpt lat="42.93937" lon="0.28399">
        <ele>1108.96065</ele>
        <time>2024-01-12T08:05:17Z</time>
      </trkpt>
      <trkpt lat="42.93935" lon="0.28401">
        <ele>1110.90658</ele>
        <time>2024-01-12T08:05:19Z</time>
      </trkpt>
      <trkpt lat="42.93934" lon="0.28403">
        <ele>1111.22134</ele>
        <time>2024-01-12T08:05:21Z</time>
      </trkpt>
      <trkpt lat="42.93933" lon="0.28404">
        <ele>1109.52021</ele>
        <time>2024-01-12T08:05:23Z</time>
      </trkpt>
      <trkpt lat="42.93932" lon="0.28405">
        <ele>1110.60947</ele>
        <time>2024-01-12T08:05:24Z</time>
      </trkpt>
      <trkpt lat="42.93931" lon="0.28406">
        <ele>1111.16197</ele>
        <time>2024-01-12T08:05:25Z</time>
      </trkpt>
      <trkpt lat="42.93931" lon="0.28408">
        <ele>1112.05646</ele>
        <time>2024-01-12T08:05:27Z</time>
      </trkpt>
      <trkpt lat="42.93931" lon="0.28409">
        <ele>1112.20541</ele>
        <time>2024-01-12T08:05:28Z</time>
      </trkpt>
      <trkpt lat="42.9393" lon="0.2841">
        <ele>1111.80228</ele>
        <time>2024-01-12T08:05:29Z</time>
      </trkpt>
      <trkpt lat="42.9393" lon="0.28412">
        <ele>1111.66721</ele>
        <time>2024-01-12T08:05:30Z</time>
      </trkpt>
      <trkpt lat="42.93929" lon="0.28413">
        <ele>1112.43048</ele>
        <time>2024-01-12T08:05:31Z</time>
      </trkpt>
      <trkpt lat="42.93928" lon="0.28414">
        <ele>1112.40715</ele>
        <time>2024-01-12T08:05:32Z</time>
      </trkpt>
      <trkpt lat="42.93927" lon="0.28415">
        <ele>1113.11695</ele>
        <time>2024-01-12T08:05:33Z</time>
      </trkpt>
      <trkpt lat="42.93926" lon="0.28417">
        <ele>1112.23001</ele>
        <time>2024-01-12T08:05:34Z</time>
      </trkpt>
      <trkpt lat="42.93925" lon="0.28418">
        <ele>1111.15014</ele>
        <time>2024-01-12T08:05:35Z</time>
      </trkpt>
      <trkpt lat="42.93925" lon="0.28419">
        <ele>1112.3189</ele>
        <time>2024-01-12T08:05:36Z</time>
      </trkpt>
      <trkpt lat="42.93924" lon="0.28421">
        <ele>1112.86971</ele>
        <time>2024-01-12T08:05:37Z</time>
      </trkpt>
      <trkpt lat="42.93924" lon="0.28422">
        <ele>1112.97881</ele>
        <time>2024-01-12T08:05:38Z</time>
      </trkpt>
      <trkpt lat="42.93922" lon="0.28424">
        <ele>1110.76637</ele>
        <time>2024-01-12T08:05:40Z</time>
      </trkpt>
      <trkpt lat="42.93922" lon="0.28425">
        <ele>1110.87583</ele>
        <time>2024-01-12T08:05:41Z</time>
      </trkpt>
      <trkpt lat="42.93921" lon="0.28427">
        <ele>1111.74155</ele>
        <time>2024-01-12T08:05:42Z</time>
      </trkpt>
      <trkpt lat="42.93921" lon="0.28428">
        <ele>1111.23146</ele>
        <time>2024-01-12T08:05:43Z</time>
      </trkpt>
      <trkpt lat="42.9392" lon="0.28429">
        <ele>1112.7132</ele>
        <time>2024-01-12T08:05:44Z</time>
      </trkpt>
      <trkpt lat="42.93919" lon="0.2843">
        <ele>1112.84227</ele>
        <time>2024-01-12T08:05:45Z</time>
      </trkpt>
      <trkpt lat="42.93918" lon="0.28432">
        <ele>1112.91379</ele>
        <time>2024-01-12T08:05:47Z</time>
      </trkpt>
      <trkpt lat="42.93917" lon="0.28434">
        <ele>1113.38654</ele>
        <time>2024-01-12T08:05:48Z</time>
      </trkpt>
      <trkpt lat="42.93917" lon="0.28436">
        <ele>1113.30401</ele>
        <time>2024-01-12T08:05:50Z</time>
      </trkpt>
      <trkpt lat="42.93916" lon="0.28436">
        <ele>1113.85931</ele>
        <time>2024-01-12T08:05:51Z</time>
      </trkpt>
      <trkpt lat="42.93915" lon="0.28438">
        <ele>1115.91646</ele>
        <time>2024-01-12T08:05:52Z</time>
      </trkpt>
      <trkpt lat="42.93914" lon="0.28439">
        <ele>1115.47527</ele>
        <time>2024-01-12T08:05:53Z</time>
      </trkpt>
      <trkpt lat="42.93913" lon="0.28441">
        <ele>1116.02897</ele>
        <time>2024-01-12T08:05:54Z</time>
      </trkpt>
      <trkpt lat="42.93912" lon="0.28444">
        <ele>1114.96132</ele>
        <time>2024-01-12T08:05:56Z</time>
      </trkpt>
      <trkpt lat="42.93911" lon="0.28445">
        <ele>1114.7164</ele>
        <time>2024-01-12T08:05:57Z</time>
      </trkpt>
      <trkpt lat="42.93911" lon="0.28446">
        <ele>1113.46724</ele>
        <time>2024-01-12T08:05:58Z</time>
      </trkpt>
      <trkpt lat="42.9391" lon="0.28447">
        <ele>1113.72353</ele>
        <time>2024-01-12T08:05:59Z</time>
      </trkpt>
      <trkpt lat="42.93909" lon="0.28448">
        <ele>1113.95615</ele>
        <time>2024-01-12T08:06:00Z</time>
      </trkpt>
      <trkpt lat="42.93908" lon="0.2845">
        <ele>1112.89373</ele>
        <time>2024-01-12T08:06:01Z</time>
      </trkpt>
      <trkpt lat="42.93907" lon="0.28451">
        <ele>1113.41758</ele>
        <time>2024-01-12T08:06:02Z</time>
      </trkpt>
      <trkpt lat="42.93907" lon="0.28453">
        <ele>1114.54131</ele>
        <time>2024-01-12T08:06:04Z</time>
      </trkpt>
      <trkpt lat="42.93906" lon="0.28456">
        <ele>1114.20025</ele>
        <time>2024-01-12T08:06:06Z</time>
      </trkpt>
      <trkpt lat="42.93904" lon="0.28458">
        <ele>1114.29068</ele>
        <time>2024-01-12T08:06:08Z</time>
      </trkpt>
      <trkpt lat="42.93903" lon="0.28458">
        <ele>1114.19014</ele>
        <time>2024-01-12T08:06:09Z</time>
      </trkpt>
      <trkpt lat="42.93903" lon="0.2846">
        <ele>1113.7976</ele>
        <time>2024-01-12T08:06:10Z</time>
      </trkpt>
      <trkpt lat="42.93902" lon="0.28462">
        <ele>1113.21749</ele>
        <time>2024-01-12T08:06:12Z</time>
      </trkpt>
      <trkpt lat="42.93901" lon="0.28464">
        <ele>1113.44561</ele>
        <time>2024-01-12T08:06:13Z</time>
      </trkpt>
      <trkpt lat="42.93901" lon="0.28465">
        <ele>1113.15862</ele>
        <time>2024-01-12T08:06:14Z</time>
      </trkpt>
      <trkpt lat="42.939" lon="0.28466">
        <ele>1113.54968</ele>
        <time>2024-01-12T08:06:15Z</time>
      </trkpt>
      <trkpt lat="42.93898" lon="0.28468">
        <ele>1114.40203</ele>
        <time>2024-01-12T08:06:17Z</time>
      </trkpt>
      <trkpt lat="42.93898" lon="0.2847">
        <ele>1114.05745</ele>
        <time>2024-01-12T08:06:18Z</time>
      </trkpt>
      <trkpt lat="42.93897" lon="0.28471">
        <ele>1114.28971</ele>
        <time>2024-01-12T08:06:19Z</time>
      </trkpt>
      <trkpt lat="42.93896" lon="0.28473">
        <ele>1113.84142</ele>
        <time>2024-01-12T08:06:20Z</time>
      </trkpt>
      <trkpt lat="42.93895" lon="0.28475">
        <ele>1115.35835</ele>
        <time>2024-01-12T08:06:22Z</time>
      </trkpt>
      <trkpt lat="42.93894" lon="0.28476">
        <ele>1115.70598</ele>
        <time>2024-01-12T08:06:24Z</time>
      </trkpt>
      <trkpt lat="42.93893" lon="0.28478">
        <ele>1115.10655</ele>
        <time>2024-01-12T08:06:25Z</time>
      </trkpt>
      <trkpt lat="42.93892" lon="0.28479">
        <ele>1114.08423</ele>
        <time>2024-01-12T08:06:26Z</time>
      </trkpt>
      <trkpt lat="42.93891" lon="0.2848">
        <ele>1114.43347</ele>
        <time>2024-01-12T08:06:27Z</time>
      </trkpt>
      <trkpt lat="42.9389" lon="0.28483">
        <ele>1115.49436</ele>
        <time>2024-01-12T08:06:29Z</time>
      </trkpt>
      <trkpt lat="42.93889" lon="0.28484">
        <ele>1114.72366</ele>
        <time>2024-01-12T08:06:31Z</time>
      </trkpt>
      <trkpt lat="42.93888" lon="0.28485">
        <ele>1115.64795</ele>
        <time>2024-01-12T08:06:32Z</time>
      </trkpt>
      <trkpt lat="42.93887" lon="0.28486">
        <ele>1114.93889</ele>
        <time>2024-01-12T08:06:33Z</time>
      </trkpt>
      <trkpt lat="42.93886" lon="0.28487">
        <ele>1114.72349</ele>
        <time>2024-01-12T08:06:34Z</time>
      </trkpt>
      <trkpt lat="42.93886" lon="0.28488">
        <ele>1113.81293</ele>
        <time>2024-01-12T08:06:35Z</time>
      </trkpt>
      <trkpt lat="42.93885" lon="0.28489">
        <ele>1114.11248</ele>
        <time>2024-01-12T08:06:36Z</time>
      </trkpt>
      <trkpt lat="42.93885" lon="0.28491">
        <ele>1113.90122</ele>
        <time>2024-01-12T08:06:37Z</time>
      </trkpt>
      <trkpt lat="42.93884" lon="0.28492">
        <ele>1113.738</ele>
        <time>2024-01-12T08:06:38Z</time>
      </trkpt>
      <trkpt lat="42.93883" lon="0.28493">
        <ele>1113.40888</ele>
        <time>2024-01-12T08:06:39Z</time>
      </trkpt>
      <trkpt lat="42.93882" lon="0.28495">
        <ele>1114.7314</ele>
        <time>2024-01-12T08:06:41Z</time>
      </trkpt>
      <trkpt lat="42.93881" lon="0.28496">
        <ele>1114.7494</ele>
        <time>2024-01-12T08:06:42Z</time>
      </trkpt>
      <trkpt lat="42.9388" lon="0.28497">
        <ele>1114.98736</ele>
        <time>2024-01-12T08:06:43Z</time>
      </trkpt>
      <trkpt lat="42.9388" lon="0.28499">
        <ele>1115.12043</ele>
        <time>2024-01-12T08:06:44Z</time>
      </trkpt>
      <trkpt lat="42.93879" lon="0.28501">
        <ele>1115.22413</ele>
        <time>2024-01-12T08:06:46Z</time>
      </trkpt>
      <trkpt lat="42.93878" lon="0.28503">
        <ele>1114.96596</ele>
        <time>2024-01-12T08:06:48Z</time>
      </trkpt>
      <trkpt lat="42.93877" lon="0.28504">
        <ele>1115.29621</ele>
        <time>2024-01-12T08:06:49Z</time>
      </trkpt>
      <trkpt lat="42.93876" lon="0.28505">
        <ele>1115.34834</ele>
        <time>2024-01-12T08:06:50Z</time>
      </trkpt>
      <trkpt lat="42.93875" lon="0.28506">
        <ele>1115.37992</ele>
        <time>2024-01-12T08:06:51Z</time>
      </trkpt>
      <trkpt lat="42.93875" lon="0.28508">
        <ele>1115.96439</ele>
        <time>2024-01-12T08:06:52Z</time>
      </trkpt>
      <trkpt lat="42.93874" lon="0.2851">
        <ele>1115.02213</ele>
        <time>2024-01-12T08:06:53Z</time>
      </trkpt>
      <trkpt lat="42.93873" lon="0.28511">
        <ele>1115.00998</ele>
        <time>2024-01-12T08:06:54Z</time>
      </trkpt>
      <trkpt lat="42.93872" lon="0.28513">
        <ele>1113.17035</ele>
        <time>2024-01-12T08:06:56Z</time>
      </trkpt>
      <trkpt lat="42.9387" lon="0.28516">
        <ele>1114.0931</ele>
        <time>2024-01-12T08:06:58Z</time>
      </trkpt>
      <trkpt lat="42.9387" lon="0.28517">
        <ele>1113.34155</ele>
        <time>2024-01-12T08:06:59Z</time>
      </trkpt>
      <trkpt lat="42.93869" lon="0.28517">
        <ele>1113.68308</ele>
        <time>2024-01-12T08:07:00Z</time>
      </trkpt>
      <trkpt lat="42.93868" lon="0.28519">
        <ele>1112.8885</ele>
        <time>2024-01-12T08:07:01Z</time>
      </trkpt>
      <trkpt lat="42.93867" lon="0.2852">
        <ele>1113.53821</ele>
        <time>2024-01-12T08:07:02Z</time>
      </trkpt>
      <trkpt lat="42.93866" lon="0.28521">
        <ele>1114.66153</ele>
        <time>2024-01-12T08:07:03Z</time>
      </trkpt>
      <trkpt lat="42.93865" lon="0.28523">
        <ele>1115.09369</ele>
        <time>2024-01-12T08:07:05Z</time>
      </trkpt>
      <trkpt lat="42.93864" lon="0.28524">
        <ele>1114.72662</ele>
        <time>2024-01-12T08:07:06Z</time>
      </trkpt>
      <trkpt lat="42.93863" lon="0.28525">
        <ele>1114.45462</ele>
        <time>2024-01-12T08:07:07Z</time>
      </trkpt>
      <trkpt lat="42.93863" lon="0.28526">
        <ele>1115.07734</ele>
        <time>2024-01-12T08:07:08Z</time>
      </trkpt>
      <trkpt lat="42.93862" lon="0.28527">
        <ele>1115.70446</ele>
        <time>2024-01-12T08:07:09Z</time>
      </trkpt>
      <trkpt lat="42.93861" lon="0.28529">
        <ele>1114.37435</ele>
        <time>2024-01-12T08:07:10Z</time>
      </trkpt>
      <trkpt lat="42.93861" lon="0.2853">
        <ele>1114.57812</ele>
        <time>2024-01-12T08:07:11Z</time>
      </trkpt>
      <trkpt lat="42.9386" lon="0.28532">
        <ele>1113.50829</ele>
        <time>2024-01-12T08:07:12Z</time>
      </trkpt>
      <trkpt lat="42.93859" lon="0.28533">
        <ele>1113.63104</ele>
        <time>2024-01-12T08:07:13Z</time>
      </trkpt>
      <trkpt lat="42.93859" lon="0.28534">
        <ele>1114.2906</ele>
        <time>2024-01-12T08:07:14Z</time>
      </trkpt>
      <trkpt lat="42.93858" lon="0.28535">
        <ele>1114.21353</ele>
        <time>2024-01-12T08:07:15Z</time>
      </trkpt>
      <trkpt lat="42.93857" lon="0.28537">
        <ele>1114.64283</ele>
        <time>2024-01-12T08:07:16Z</time>
      </trkpt>
      <trkpt lat="42.93857" lon="0.28539">
        <ele>1113.19719</ele>
        <time>2024-01-12T08:07:18Z</time>
      </trkpt>
      <trkpt lat="42.93856" lon="0.2854">
        <ele>1114.0427</ele>
        <time>2024-01-12T08:07:19Z</time>
      </trkpt>
      <trkpt lat="42.93855" lon="0.28541">
        <ele>1114.72462</ele>
        <time>2024-01-12T08:07:20Z</time>
      </trkpt>
      <trkpt lat="42.93855" lon="0.28543">
        <ele>1114.85403</ele>
        <time>2024-01-12T08:07:21Z</time>
      </trkpt>
      <trkpt lat="42.93854" lon="0.28544">
        <ele>1114.1883</ele>
        <time>2024-01-12T08:07:22Z</time>
      </trkpt>
      <trkpt lat="42.93853" lon="0.28545">
        <ele>1113.8672</ele>
        <time>2024-01-12T08:07:23Z</time>
      </trkpt>
      <trkpt lat="42.93852" lon="0.28546">
        <ele>1114.07045</ele>
        <time>2024-01-12T08:07:24Z</time>
      </trkpt>
      <trkpt lat="42.93852" lon="0.28547">
        <ele>1114.14519</ele>
        <time>2024-01-12T08:07:25Z</time>
      </trkpt>
      <trkpt lat="42.9385" lon="0.28549">
        <ele>1112.90358</ele>
        <time>2024-01-12T08:07:26Z</time>
      </trkpt>
      <trkpt lat="42.93849" lon="0.2855">
        <ele>1113.19601</ele>
        <time>2024-01-12T08:07:27Z</time>
      </trkpt>
      <trkpt lat="42.93849" lon="0.28553">
        <ele>1112.08884</ele>
        <time>2024-01-12T08:07:29Z</time>
      </trkpt>
      <trkpt lat="42.93848" lon="0.28554">
        <ele>1113.21359</ele>
        <time>2024-01-12T08:07:30Z</time>
      </trkpt>
      <trkpt lat="42.93847" lon="0.28555">
        <ele>1113.1235</ele>
        <time>2024-01-12T08:07:31Z</time>
      </trkpt>
      <trkpt lat="42.93846" lon="0.28556">
        <ele>1113.18689</ele>
        <time>2024-01-12T08:07:32Z</time>
      </trkpt>
      <trkpt lat="42.93845" lon="0.28557">
        <ele>1113.19498</ele>
        <time>2024-01-12T08:07:33Z</time>
      </trkpt>
      <trkpt lat="42.93844" lon="0.28559">
        <ele>1112.82084</ele>
        <time>2024-01-12T08:07:34Z</time>
      </trkpt>
      <trkpt lat="42.93843" lon="0.2856">
        <ele>1111.99837</ele>
        <time>2024-01-12T08:07:35Z</time>
      </trkpt>
      <trkpt lat="42.93843" lon="0.28561">
        <ele>1112.43185</ele>
        <time>2024-01-12T08:07:36Z</time>
      </trkpt>
      <trkpt lat="42.93841" lon="0.28562">
        <ele>1113.17498</ele>
        <time>2024-01-12T08:07:38Z</time>
      </trkpt>
      <trkpt lat="42.93841" lon="0.28564">
        <ele>1112.78987</ele>
        <time>2024-01-12T08:07:40Z</time>
      </trkpt>
      <trkpt lat="42.9384" lon="0.28566">
        <ele>1113.04636</ele>
        <time>2024-01-12T08:07:41Z</time>
      </trkpt>
      <trkpt lat="42.93839" lon="0.28568">
        <ele>1113.20926</ele>
        <time>2024-01-12T08:07:43Z</time>
      </trkpt>
      <trkpt lat="42.93838" lon="0.2857">
        <ele>1114.74493</ele>
        <time>2024-01-12T08:07:45Z</time>
      </trkpt>
      <trkpt lat="42.93837" lon="0.28571">
        <ele>1115.35672</ele>
        <time>2024-01-12T08:07:46Z</time>
      </trkpt>
      <trkpt lat="42.93836" lon="0.28573">
        <ele>1115.62237</ele>
        <time>2024-01-12T08:07:47Z</time>
      </trkpt>
      <trkpt lat="42.93836" lon="0.28574">
        <ele>1115.17984</ele>
        <time>2024-01-12T08:07:48Z</time>
      </trkpt>
      <trkpt lat="42.93835" lon="0.28575">
        <ele>1115.65926</ele>
        <time>2024-01-12T08:07:49Z</time>
      </trkpt>
      <trkpt lat="42.93834" lon="0.28576">
        <ele>1116.24881</ele>
        <time>2024-01-12T08:07:50Z</time>
      </trkpt>
      <trkpt lat="42.93833" lon="0.28577">
        <ele>1115.75933</ele>
        <time>2024-01-12T08:07:52Z</time>
      </trkpt>
      <trkpt lat="42.93832" lon="0.28579">
        <ele>1113.48506</ele>
        <time>2024-01-12T08:07:54Z</time>
      </trkpt>
      <trkpt lat="42.93831" lon="0.28581">
        <ele>1113.79448</ele>
        <time>2024-01-12T08:07:55Z</time>
      </trkpt>
      <trkpt lat="42.93829" lon="0.28583">
        <ele>1115.33121</ele>
        <time>2024-01-12T08:07:57Z</time>
      </trkpt>
      <trkpt lat="42.93829" lon="0.28584">
        <ele>1115.14328</ele>
        <time>2024-01-12T08:07:58Z</time>
      </trkpt>
      <trkpt lat="42.93828" lon="0.28585">
        <ele>1114.77292</ele>
        <time>2024-01-12T08:07:59Z</time>
      </trkpt>
      <trkpt lat="42.93827" lon="0.28586">
        <ele>1113.9239</ele>
        <time>2024-01-12T08:08:00Z</time>
      </trkpt>
      <trkpt lat="42.93826" lon="0.28587">
        <ele>1114.52335</ele>
        <time>2024-01-12T08:08:01Z</time>
      </trkpt>
      <trkpt lat="42.93825" lon="0.28589">
        <ele>1115.24057</ele>
        <time>2024-01-12T08:08:03Z</time>
      </trkpt>
      <trkpt lat="42.93824" lon="0.2859">
        <ele>1114.97025</ele>
        <time>2024-01-12T08:08:04Z</time>
      </trkpt>
      <trkpt lat="42.93823" lon="0.28592">
        <ele>1113.56317</ele>
        <time>2024-01-12T08:08:05Z</time>
      </trkpt>
      <trkpt lat="42.93822" lon="0.28593">
        <ele>1114.12163</ele>
        <time>2024-01-12T08:08:06Z</time>
      </trkpt>
      <trkpt lat="42.93821" lon="0.28596">
        <ele>1113.88786</ele>
        <time>2024-01-12T08:08:08Z</time>
      </trkpt>
      <trkpt lat="42.93821" lon="0.28597">
        <ele>1113.70771</ele>
        <time>2024-01-12T08:08:09Z</time>
      </trkpt>
      <trkpt lat="42.93819" lon="0.28598">
        <ele>1112.39799</ele>
        <time>2024-01-12T08:08:11Z</time>
      </trkpt>
      <trkpt lat="42.93819" lon="0.28599">
        <ele>1113.05149</ele>
        <time>2024-01-12T08:08:12Z</time>
      </trkpt>
      <trkpt lat="42.93818" lon="0.286">
        <ele>1113.33357</ele>
        <time>2024-01-12T08:08:13Z</time>
      </trkpt>
      <trkpt lat="42.93817" lon="0.28601">
        <ele>1113.31039</ele>
        <time>2024-01-12T08:08:14Z</time>
      </trkpt>
      <trkpt lat="42.93816" lon="0.28603">
        <ele>1112.10793</ele>
        <time>2024-01-12T08:08:15Z</time>
      </trkpt>
      <trkpt lat="42.93816" lon="0.28604">
        <ele>1111.71089</ele>
        <time>2024-01-12T08:08:16Z</time>
      </trkpt>
      <trkpt lat="42.93815" lon="0.28605">
        <ele>1112.68436</ele>
        <time>2024-01-12T08:08:17Z</time>
      </trkpt>
      <trkpt lat="42.93814" lon="0.28608">
        <ele>1112.1136</ele>
        <time>2024-01-12T08:08:19Z</time>
      </trkpt>
      <trkpt lat="42.93814" lon="0.28609">
        <ele>1112.48013</ele>
        <time>2024-01-12T08:08:20Z</time>
      </trkpt>
      <trkpt lat="42.93813" lon="0.2861">
        <ele>1112.98097</ele>
        <time>2024-01-12T08:08:21Z</time>
      </trkpt>
      <trkpt lat="42.93812" lon="0.28611">
        <ele>1113.60958</ele>
        <time>2024-01-12T08:08:22Z</time>
      </trkpt>
      <trkpt lat="42.93812" lon="0.28612">
        <ele>1114.10948</ele>
        <time>2024-01-12T08:08:23Z</time>
      </trkpt>
      <trkpt lat="42.93811" lon="0.28614">
        <ele>1115.11531</ele>
        <time>2024-01-12T08:08:24Z</time>
      </trkpt>
      <trkpt lat="42.93811" lon="0.28615">
        <ele>1114.52285</ele>
        <time>2024-01-12T08:08:25Z</time>
      </trkpt>
      <trkpt lat="42.9381" lon="0.28616">
        <ele>1114.91795</ele>
        <time>2024-01-12T08:08:26Z</time>
      </trkpt>
      <trkpt lat="42.93808" lon="0.28617">
        <ele>1114.90719</ele>
        <time>2024-01-12T08:08:27Z</time>
      </trkpt>
      <trkpt lat="42.93808" lon="0.28618">
        <ele>1114.83364</ele>
        <time>2024-01-12T08:08:28Z</time>
      </trkpt>
      <trkpt lat="42.93807" lon="0.28619">
        <ele>1114.634</ele>
        <time>2024-01-12T08:08:29Z</time>
      </trkpt>
      <trkpt lat="42.93806" lon="0.2862">
        <ele>1115.67465</ele>
        <time>2024-01-12T08:08:30Z</time>
      </trkpt>
      <trkpt lat="42.93804" lon="0.28621">
        <ele>1113.17578</ele>
        <time>2024-01-12T08:08:31Z</time>
      </trkpt>
      <trkpt lat="42.93804" lon="0.28623">
        <ele>1113.29077</ele>
        <time>2024-01-12T08:08:32Z</time>
      </trkpt>
      <trkpt lat="42.93803" lon="0.28624">
        <ele>1113.48631</ele>
        <time>2024-01-12T08:08:33Z</time>
      </trkpt>
      <trkpt lat="42.93802" lon="0.28625">
        <ele>1114.12488</ele>
        <time>2024-01-12T08:08:34Z</time>
      </trkpt>
      <trkpt lat="42.93802" lon="0.28626">
        <ele>1113.9636</ele>
        <time>2024-01-12T08:08:35Z</time>
      </trkpt>
      <trkpt lat="42.93801" lon="0.28628">
        <ele>1114.09238</ele>
        <time>2024-01-12T08:08:36Z</time>
      </trkpt>
      <trkpt lat="42.93801" lon="0.28629">
        <ele>1112.97526</ele>
        <time>2024-01-12T08:08:37Z</time>
      </trkpt>
      <trkpt lat="42.93799" lon="0.28632">
        <ele>1112.70583</ele>
        <time>2024-01-12T08:08:39Z</time>
      </trkpt>
      <trkpt lat="42.93798" lon="0.28633">
        <ele>1112.6885</ele>
        <time>2024-01-12T08:08:40Z</time>
      </trkpt>
      <trkpt lat="42.93797" lon="0.28633">
        <ele>1112.3649</ele>
        <time>2024-01-12T08:08:41Z</time>
      </trkpt>
      <trkpt lat="42.93796" lon="0.28634">
        <ele>1113.13776</ele>
        <time>2024-01-12T08:08:42Z</time>
      </trkpt>
      <trkpt lat="42.93795" lon="0.28637">
        <ele>1113.05033</ele>
        <time>2024-01-12T08:08:44Z</time>
      </trkpt>
      <trkpt lat="42.93795" lon="0.28639">
        <ele>1113.36798</ele>
        <time>2024-01-12T08:08:45Z</time>
      </trkpt>
      <trkpt lat="42.93793" lon="0.2864">
        <ele>1113.16279</ele>
        <time>2024-01-12T08:08:46Z</time>
      </trkpt>
      <trkpt lat="42.93793" lon="0.28641">
        <ele>1113.92454</ele>
        <time>2024-01-12T08:08:47Z</time>
      </trkpt>
      <trkpt lat="42.93792" lon="0.28642">
        <ele>1113.88344</ele>
        <time>2024-01-12T08:08:48Z</time>
      </trkpt>
      <trkpt lat="42.93791" lon="0.28644">
        <ele>1113.19449</ele>
        <time>2024-01-12T08:08:50Z</time>
      </trkpt>
      <trkpt lat="42.9379" lon="0.28645">
        <ele>1113.01548</ele>
        <time>2024-01-12T08:08:51Z</time>
      </trkpt>
      <trkpt lat="42.9379" lon="0.28646">
        <ele>1113.60698</ele>
        <time>2024-01-12T08:08:52Z</time>
      </trkpt>
      <trkpt lat="42.93789" lon="0.28649">
        <ele>1113.49491</ele>
        <time>2024-01-12T08:08:54Z</time>
      </trkpt>
      <trkpt lat="42.93789" lon="0.2865">
        <ele>1113.75924</ele>
        <time>2024-01-12T08:08:55Z</time>
      </trkpt>
      <trkpt lat="42.93788" lon="0.28651">
        <ele>1113.26394</ele>
        <time>2024-01-12T08:08:56Z</time>
      </trkpt>
      <trkpt lat="42.93787" lon="0.28653">
        <ele>1114.54957</ele>
        <time>2024-01-12T08:08:58Z</time>
      </trkpt>
      <trkpt lat="42.93786" lon="0.28655">
        <ele>1115.29544</ele>
        <time>2024-01-12T08:09:00Z</time>
      </trkpt>
      <trkpt lat="42.93784" lon="0.28657">
        <ele>1118.41318</ele>
        <time>2024-01-12T08:09:02Z</time>
      </trkpt>
      <trkpt lat="42.93784" lon="0.28659">
        <ele>1117.26297</ele>
        <time>2024-01-12T08:09:03Z</time>
      </trkpt>
      <trkpt lat="42.93783" lon="0.2866">
        <ele>1117.26268</ele>
        <time>2024-01-12T08:09:05Z</time>
      </trkpt>
      <trkpt lat="42.93782" lon="0.28662">
        <ele>1116.73588</ele>
        <time>2024-01-12T08:09:06Z</time>
      </trkpt>
      <trkpt lat="42.93781" lon="0.28664">
        <ele>1115.4235</ele>
        <time>2024-01-12T08:09:08Z</time>
      </trkpt>
      <trkpt lat="42.9378" lon="0.28665">
        <ele>1116.3456</ele>
        <time>2024-01-12T08:09:09Z</time>
      </trkpt>
      <trkpt lat="42.9378" lon="0.28667">
        <ele>1115.99725</ele>
        <time>2024-01-12T08:09:10Z</time>
      </trkpt>
      <trkpt lat="42.93779" lon="0.28668">
        <ele>1116.07637</ele>
        <time>2024-01-12T08:09:11Z</time>
      </trkpt>
      <trkpt lat="42.93778" lon="0.2867">
        <ele>1117.41229</ele>
        <time>2024-01-12T08:09:13Z</time>
      </trkpt>
      <trkpt lat="42.93777" lon="0.28671">
        <ele>1116.98639</ele>
        <time>2024-01-12T08:09:14Z</time>
      </trkpt>
      <trkpt lat="42.93776" lon="0.28672">
        <ele>1117.85235</ele>
        <time>2024-01-12T08:09:15Z</time>
      </trkpt>
      <trkpt lat="42.93775" lon="0.28674">
        <ele>1117.45337</ele>
        <time>2024-01-12T08:09:16Z</time>
      </trkpt>
      <trkpt lat="42.93775" lon="0.28675">
        <ele>1117.17218</ele>
        <time>2024-01-12T08:09:17Z</time>
      </trkpt>
      <trkpt lat="42.93774" lon="0.28676">
        <ele>1117.7723</ele>
        <time>2024-01-12T08:09:18Z</time>
      </trkpt>
      <trkpt lat="42.93773" lon="0.28678">
        <ele>1118.00225</ele>
        <time>2024-01-12T08:09:19Z</time>
      </trkpt>
      <trkpt lat="42.93772" lon="0.28679">
        <ele>1118.49395</ele>
        <time>2024-01-12T08:09:20Z</time>
      </trkpt>
      <trkpt lat="42.93771" lon="0.2868">
        <ele>1119.11389</ele>
        <time>2024-01-12T08:09:22Z</time>
      </trkpt>
      <trkpt lat="42.9377" lon="0.28682">
        <ele>1119.70067</ele>
        <time>2024-01-12T08:09:23Z</time>
      </trkpt>
      <trkpt lat="42.93769" lon="0.28683">
        <ele>1120.78697</ele>
        <time>2024-01-12T08:09:25Z</time>
      </trkpt>
      <trkpt lat="42.93768" lon="0.28685">
        <ele>1120.18297</ele>
        <time>2024-01-12T08:09:26Z</time>
      </trkpt>
      <trkpt lat="42.93767" lon="0.28686">
        <ele>1120.50112</ele>
        <time>2024-01-12T08:09:27Z</time>
      </trkpt>
      <trkpt lat="42.93767" lon="0.28687">
        <ele>1119.62215</ele>
        <time>2024-01-12T08:09:28Z</time>
      </trkpt>
      <trkpt lat="42.93766" lon="0.28688">
        <ele>1119.70897</ele>
        <time>2024-01-12T08:09:29Z</time>
      </trkpt>
      <trkpt lat="42.93766" lon="0.2869">
        <ele>1119.91812</ele>
        <time>2024-01-12T08:09:30Z</time>
      </trkpt>
      <trkpt lat="42.93765" lon="0.28691">
        <ele>1119.35372</ele>
        <time>2024-01-12T08:09:31Z</time>
      </trkpt>
      <trkpt lat="42.93764" lon="0.28693">
        <ele>1119.65628</ele>
        <time>2024-01-12T08:09:33Z</time>
      </trkpt>
      <trkpt lat="42.93763" lon="0.28694">
        <ele>1121.38975</ele>
        <time>2024-01-12T08:09:34Z</time>
      </trkpt>
      <trkpt lat="42.93762" lon="0.28695">
        <ele>1121.21679</ele>
        <time>2024-01-12T08:09:36Z</time>
      </trkpt>
      <trkpt lat="42.93761" lon="0.28697">
        <ele>1120.44925</ele>
        <time>2024-01-12T08:09:37Z</time>
      </trkpt>
      <trkpt lat="42.9376" lon="0.28698">
        <ele>1121.01891</ele>
        <time>2024-01-12T08:09:38Z</time>
      </trkpt>
      <trkpt lat="42.93758" lon="0.287">
        <ele>1122.67041</ele>
        <time>2024-01-12T08:09:40Z</time>
      </trkpt>
      <trkpt lat="42.93757" lon="0.28703">
        <ele>1122.51787</ele>
        <time>2024-01-12T08:09:42Z</time>
      </trkpt>
      <trkpt lat="42.93757" lon="0.28704">
        <ele>1122.75499</ele>
        <time>2024-01-12T08:09:43Z</time>
      </trkpt>
      <trkpt lat="42.93756" lon="0.28705">
        <ele>1122.15231</ele>
        <time>2024-01-12T08:09:44Z</time>
      </trkpt>
      <trkpt lat="42.93755" lon="0.28707">
        <ele>1121.79316</ele>
        <time>2024-01-12T08:09:45Z</time>
      </trkpt>
      <trkpt lat="42.93754" lon="0.28708">
        <ele>1120.43452</ele>
        <time>2024-01-12T08:09:46Z</time>
      </trkpt>
      <trkpt lat="42.93753" lon="0.28709">
        <ele>1121.15862</ele>
        <time>2024-01-12T08:09:47Z</time>
      </trkpt>
      <trkpt lat="42.93752" lon="0.2871">
        <ele>1121.96139</ele>
        <time>2024-01-12T08:09:48Z</time>
      </trkpt>
      <trkpt lat="42.93752" lon="0.28711">
        <ele>1121.23707</ele>
        <time>2024-01-12T08:09:49Z</time>
      </trkpt>
      <trkpt lat="42.93751" lon="0.28713">
        <ele>1121.76049</ele>
        <time>2024-01-12T08:09:51Z</time>
      </trkpt>
      <trkpt lat="42.9375" lon="0.28714">
        <ele>1122.46742</ele>
        <time>2024-01-12T08:09:52Z</time>
      </trkpt>
      <trkpt lat="42.93749" lon="0.28716">
        <ele>1122.71835</ele>
        <time>2024-01-12T08:09:53Z</time>
      </trkpt>
      <trkpt lat="42.93749" lon="0.28717">
        <ele>1121.70027</ele>
        <time>2024-01-12T08:09:54Z</time>
      </trkpt>
      <trkpt lat="42.93748" lon="0.28718">
        <ele>1121.83885</ele>
        <time>2024-01-12T08:09:55Z</time>
      </trkpt>
      <trkpt lat="42.93747" lon="0.28719">
        <ele>1121.83355</ele>
        <time>2024-01-12T08:09:56Z</time>
      </trkpt>
      <trkpt lat="42.93746" lon="0.2872">
        <ele>1121.95264</ele>
        <time>2024-01-12T08:09:57Z</time>
      </trkpt>
      <trkpt lat="42.93745" lon="0.28721">
        <ele>1121.59623</ele>
        <time>2024-01-12T08:09:58Z</time>
      </trkpt>
      <trkpt lat="42.93745" lon="0.28723">
        <ele>1121.33085</ele>
        <time>2024-01-12T08:10:00Z</time>
      </trkpt>
      <trkpt lat="42.93744" lon="0.28724">
        <ele>1121.50552</ele>
        <time>2024-01-12T08:10:01Z</time>
      </trkpt>
      <trkpt lat="42.93743" lon="0.28726">
        <ele>1121.2146</ele>
        <time>2024-01-12T08:10:02Z</time>
      </trkpt>
      <trkpt lat="42.93743" lon="0.28727">
        <ele>1122.14356</ele>
        <time>2024-01-12T08:10:03Z</time>
      </trkpt>
      <trkpt lat="42.93742" lon="0.28728">
        <ele>1122.45788</ele>
        <time>2024-01-12T08:10:04Z</time>
      </trkpt>
      <trkpt lat="42.93741" lon="0.2873">
        <ele>1122.41088</ele>
        <time>2024-01-12T08:10:05Z</time>
      </trkpt>
      <trkpt lat="42.9374" lon="0.28732">
        <ele>1121.11541</ele>
        <time>2024-01-12T08:10:07Z</time>
      </trkpt>
      <trkpt lat="42.93739" lon="0.28733">
        <ele>1121.68352</ele>
        <time>2024-01-12T08:10:08Z</time>
      </trkpt>
      <trkpt lat="42.93738" lon="0.28736">
        <ele>1121.06124</ele>
        <time>2024-01-12T08:10:10Z</time>
      </trkpt>
      <trkpt lat="42.93737" lon="0.28738">
        <ele>1119.12793</ele>
        <time>2024-01-12T08:10:12Z</time>
      </trkpt>
      <trkpt lat="42.93736" lon="0.28739">
        <ele>1119.78354</ele>
        <time>2024-01-12T08:10:13Z</time>
      </trkpt>
      <trkpt lat="42.93735" lon="0.28741">
        <ele>1120.57213</ele>
        <time>2024-01-12T08:10:15Z</time>
      </trkpt>
      <trkpt lat="42.93734" lon="0.28743">
        <ele>1120.1041</ele>
        <time>2024-01-12T08:10:16Z</time>
      </trkpt>
      <trkpt lat="42.93733" lon="0.28744">
        <ele>1120.27051</ele>
        <time>2024-01-12T08:10:18Z</time>
      </trkpt>
      <trkpt lat="42.93733" lon="0.28746">
        <ele>1120.94605</ele>
        <time>2024-01-12T08:10:19Z</time>
      </trkpt>
      <trkpt lat="42.93732" lon="0.28747">
        <ele>1121.13272</ele>
        <time>2024-01-12T08:10:20Z</time>
      </trkpt>
      <trkpt lat="42.93732" lon="0.28748">
        <ele>1120.32368</ele>
        <time>2024-01-12T08:10:21Z</time>
      </trkpt>
      <trkpt lat="42.9373" lon="0.28749">
        <ele>1120.16044</ele>
        <time>2024-01-12T08:10:22Z</time>
      </trkpt>
      <trkpt lat="42.9373" lon="0.28751">
        <ele>1118.90791</ele>
        <time>2024-01-12T08:10:23Z</time>
      </trkpt>
      <trkpt lat="42.93729" lon="0.28752">
        <ele>1120.05172</ele>
        <time>2024-01-12T08:10:24Z</time>
      </trkpt>
      <trkpt lat="42.93728" lon="0.28753">
        <ele>1120.51999</ele>
        <time>2024-01-12T08:10:26Z</time>
      </trkpt>
      <trkpt lat="42.93728" lon="0.28754">
        <ele>1121.26284</ele>
        <time>2024-01-12T08:10:27Z</time>
      </trkpt>
      <trkpt lat="42.93727" lon="0.28755">
        <ele>1120.68173</ele>
        <time>2024-01-12T08:10:28Z</time>
      </trkpt>
      <trkpt lat="42.93726" lon="0.28756">
        <ele>1121.22685</ele>
        <time>2024-01-12T08:10:29Z</time>
      </trkpt>
      <trkpt lat="42.93725" lon="0.28757">
        <ele>1121.72738</ele>
        <time>2024-01-12T08:10:30Z</time>
      </trkpt>
      <trkpt lat="42.93724" lon="0.28758">
        <ele>1121.98305</ele>
        <time>2024-01-12T08:10:31Z</time>
      </trkpt>
      <trkpt lat="42.93724" lon="0.2876">
        <ele>1122.48941</ele>
        <time>2024-01-12T08:10:32Z</time>
      </trkpt>
      <trkpt lat="42.93722" lon="0.2876">
        <ele>1122.62221</ele>
        <time>2024-01-12T08:10:34Z</time>
      </trkpt>
      <trkpt lat="42.93722" lon="0.28762">
        <ele>1123.10865</ele>
        <time>2024-01-12T08:10:35Z</time>
      </trkpt>
      <trkpt lat="42.9372" lon="0.28764">
        <ele>1121.7711</ele>
        <time>2024-01-12T08:10:37Z</time>
      </trkpt>
      <trkpt lat="42.93719" lon="0.28765">
        <ele>1121.23084</ele>
        <time>2024-01-12T08:10:38Z</time>
      </trkpt>
      <trkpt lat="42.93718" lon="0.28767">
        <ele>1121.39204</ele>
        <time>2024-01-12T08:10:39Z</time>
      </trkpt>
      <trkpt lat="42.93716" lon="0.28769">
        <ele>1121.91894</ele>
        <time>2024-01-12T08:10:41Z</time>
      </trkpt>
      <trkpt lat="42.93716" lon="0.28771">
        <ele>1121.14888</ele>
        <time>2024-01-12T08:10:42Z</time>
      </trkpt>
      <trkpt lat="42.93715" lon="0.28772">
        <ele>1121.35655</ele>
        <time>2024-01-12T08:10:44Z</time>
      </trkpt>
      <trkpt lat="42.93714" lon="0.28773">
        <ele>1121.42158</ele>
        <time>2024-01-12T08:10:45Z</time>
      </trkpt>
      <trkpt lat="42.93713" lon="0.28775">
        <ele>1120.70242</ele>
        <time>2024-01-12T08:10:46Z</time>
      </trkpt>
      <trkpt lat="42.93712" lon="0.28777">
        <ele>1121.21245</ele>
        <time>2024-01-12T08:10:48Z</time>
      </trkpt>
      <trkpt lat="42.93711" lon="0.28779">
        <ele>1120.03728</ele>
        <time>2024-01-12T08:10:49Z</time>
      </trkpt>
      <trkpt lat="42.93711" lon="0.2878">
        <ele>1120.2039</ele>
        <time>2024-01-12T08:10:50Z</time>
      </trkpt>
      <trkpt lat="42.93709" lon="0.28782">
        <ele>1119.39223</ele>
        <time>2024-01-12T08:10:52Z</time>
      </trkpt>
      <trkpt lat="42.93708" lon="0.28783">
        <ele>1119.93606</ele>
        <time>2024-01-12T08:10:53Z</time>
      </trkpt>
      <trkpt lat="42.93708" lon="0.28785">
        <ele>1119.71126</ele>
        <time>2024-01-12T08:10:54Z</time>
      </trkpt>
      <trkpt lat="42.93708" lon="0.28786">
        <ele>1120.13146</ele>
        <time>2024-01-12T08:10:55Z</time>
      </trkpt>
      <trkpt lat="42.93707" lon="0.28788">
        <ele>1120.83424</ele>
        <time>2024-01-12T08:10:57Z</time>
      </trkpt>
      <trkpt lat="42.93706" lon="0.28789">
        <ele>1120.84598</ele>
        <time>2024-01-12T08:10:58Z</time>
      </trkpt>
      <trkpt lat="42.93705" lon="0.28792">
        <ele>1118.34396</ele>
        <time>2024-01-12T08:11:00Z</time>
      </trkpt>
      <trkpt lat="42.93704" lon="0.28793">
        <ele>1119.60652</ele>
        <time>2024-01-12T08:11:02Z</time>
      </trkpt>
      <trkpt lat="42.93703" lon="0.28795">
        <ele>1119.75919</ele>
        <time>2024-01-12T08:11:03Z</time>
      </trkpt>
      <trkpt lat="42.93702" lon="0.28796">
        <ele>1120.1397</ele>
        <time>2024-01-12T08:11:04Z</time>
      </trkpt>
      <trkpt lat="42.93701" lon="0.28798">
        <ele>1120.69438</ele>
        <time>2024-01-12T08:11:06Z</time>
      </trkpt>
      <trkpt lat="42.937" lon="0.288">
        <ele>1121.61417</ele>
        <time>2024-01-12T08:11:08Z</time>
      </trkpt>
      <trkpt lat="42.93699" lon="0.28801">
        <ele>1122.37133</ele>
        <time>2024-01-12T08:11:09Z</time>
      </trkpt>
      <trkpt lat="42.93699" lon="0.28802">
        <ele>1121.0549</ele>
        <time>2024-01-12T08:11:10Z</time>
      </trkpt>
      <trkpt lat="42.93698" lon="0.28804">
        <ele>1119.61738</ele>
        <time>2024-01-12T08:11:11Z</time>
      </trkpt>
      <trkpt lat="42.93698" lon="0.28805">
        <ele>1119.29874</ele>
        <time>2024-01-12T08:11:12Z</time>
      </trkpt>
      <trkpt lat="42.93696" lon="0.28806">
        <ele>1120.32797</ele>
        <time>2024-01-12T08:11:14Z</time>
      </trkpt>
      <trkpt lat="42.93695" lon="0.28808">
        <ele>1121.31596</ele>
        <time>2024-01-12T08:11:15Z</time>
      </trkpt>
      <trkpt lat="42.93694" lon="0.28809">
        <ele>1120.93839</ele>
        <time>2024-01-12T08:11:16Z</time>
      </trkpt>
      <trkpt lat="42.93693" lon="0.2881">
        <ele>1120.62598</ele>
        <time>2024-01-12T08:11:17Z</time>
      </trkpt>
      <trkpt lat="42.93692" lon="0.28813">
        <ele>1121.66219</ele>
        <time>2024-01-12T08:11:19Z</time>
      </trkpt>
      <trkpt lat="42.93691" lon="0.28814">
        <ele>1121.4791</ele>
        <time>2024-01-12T08:11:20Z</time>
      </trkpt>
      <trkpt lat="42.9369" lon="0.28815">
        <ele>1121.78461</ele>
        <time>2024-01-12T08:11:21Z</time>
      </trkpt>
      <trkpt lat="42.93689" lon="0.28816">
        <ele>1120.6479</ele>
        <time>2024-01-12T08:11:22Z</time>
      </trkpt>
      <trkpt lat="42.93688" lon="0.28817">
        <ele>1121.10135</ele>
        <time>2024-01-12T08:11:23Z</time>
      </trkpt>
      <trkpt lat="42.93687" lon="0.28818">
        <ele>1121.98903</ele>
        <time>2024-01-12T08:11:24Z</time>
      </trkpt>
      <trkpt lat="42.93687" lon="0.28819">
        <ele>1121.48064</ele>
        <time>2024-01-12T08:11:25Z</time>
      </trkpt>
      <trkpt lat="42.93686" lon="0.2882">
        <ele>1120.93635</ele>
        <time>2024-01-12T08:11:26Z</time>
      </trkpt>
      <trkpt lat="42.93686" lon="0.28822">
        <ele>1121.96648</ele>
        <time>2024-01-12T08:11:28Z</time>
      </trkpt>
      <trkpt lat="42.93685" lon="0.28824">
        <ele>1121.59188</ele>
        <time>2024-01-12T08:11:30Z</time>
      </trkpt>
      <trkpt lat="42.93684" lon="0.28826">
        <ele>1121.54526</ele>
        <time>2024-01-12T08:11:31Z</time>
      </trkpt>
      <trkpt lat="42.93684" lon="0.28827">
        <ele>1121.66768</ele>
        <time>2024-01-12T08:11:32Z</time>
      </trkpt>
      <trkpt lat="42.93684" lon="0.28828">
        <ele>1122.50462</ele>
        <time>2024-01-12T08:11:33Z</time>
      </trkpt>
      <trkpt lat="42.93683" lon="0.28829">
        <ele>1121.91624</ele>
        <time>2024-01-12T08:11:35Z</time>
      </trkpt>
      <trkpt lat="42.93682" lon="0.2883">
        <ele>1122.4005</ele>
        <time>2024-01-12T08:11:36Z</time>
      </trkpt>
      <trkpt lat="42.93681" lon="0.28831">
        <ele>1123.74906</ele>
        <time>2024-01-12T08:11:37Z</time>
      </trkpt>
      <trkpt lat="42.9368" lon="0.28833">
        <ele>1124.60765</ele>
        <time>2024-01-12T08:11:38Z</time>
      </trkpt>
      <trkpt lat="42.9368" lon="0.28835">
        <ele>1123.66338</ele>
        <time>2024-01-12T08:11:40Z</time>
      </trkpt>
      <trkpt lat="42.93679" lon="0.28837">
        <ele>1123.2292</ele>
        <time>2024-01-12T08:11:41Z</time>
      </trkpt>
      <trkpt lat="42.93678" lon="0.28839">
        <ele>1124.25013</ele>
        <time>2024-01-12T08:11:43Z</time>
      </trkpt>
      <trkpt lat="42.93677" lon="0.2884">
        <ele>1124.0751</ele>
        <time>2024-01-12T08:11:44Z</time>
      </trkpt>
      <trkpt lat="42.93676" lon="0.2884">
        <ele>1123.70914</ele>
        <time>2024-01-12T08:11:45Z</time>
      </trkpt>
      <trkpt lat="42.93675" lon="0.28841">
        <ele>1123.13721</ele>
        <time>2024-01-12T08:11:46Z</time>
      </trkpt>
      <trkpt lat="42.93674" lon="0.28843">
        <ele>1121.2433</ele>
        <time>2024-01-12T08:11:48Z</time>
      </trkpt>
      <trkpt lat="42.93673" lon="0.28844">
        <ele>1122.70971</ele>
        <time>2024-01-12T08:11:49Z</time>
      </trkpt>
      <trkpt lat="42.93672" lon="0.28846">
        <ele>1122.20459</ele>
        <time>2024-01-12T08:11:50Z</time>
      </trkpt>
      <trkpt lat="42.93672" lon="0.28848">
        <ele>1122.94794</ele>
        <time>2024-01-12T08:11:52Z</time>
      </trkpt>
      <trkpt lat="42.93671" lon="0.2885">
        <ele>1124.04474</ele>
        <time>2024-01-12T08:11:54Z</time>
      </trkpt>
      <trkpt lat="42.9367" lon="0.28852">
        <ele>1122.83099</ele>
        <time>2024-01-12T08:11:55Z</time>
      </trkpt>
      <trkpt lat="42.93668" lon="0.28854">
        <ele>1123.3638</ele>
        <time>2024-01-12T08:11:57Z</time>
      </trkpt>
      <trkpt lat="42.93667" lon="0.28855">
        <ele>1124.05278</ele>
        <time>2024-01-12T08:11:58Z</time>
      </trkpt>
      <trkpt lat="42.93667" lon="0.28856">
        <ele>1124.10189</ele>
        <time>2024-01-12T08:11:59Z</time>
      </trkpt>
      <trkpt lat="42.93665" lon="0.28858">
        <ele>1123.23338</ele>
        <time>2024-01-12T08:12:01Z</time>
      </trkpt>
      <trkpt lat="42.93665" lon="0.2886">
        <ele>1121.35619</ele>
        <time>2024-01-12T08:12:02Z</time>
      </trkpt>
      <trkpt lat="42.93664" lon="0.28862">
        <ele>1121.54183</ele>
        <time>2024-01-12T08:12:04Z</time>
      </trkpt>
      <trkpt lat="42.93663" lon="0.28864">
        <ele>1120.8628</ele>
        <time>2024-01-12T08:12:05Z</time>
      </trkpt>
      <trkpt lat="42.93662" lon="0.28866">
        <ele>1121.11327</ele>
        <time>2024-01-12T08:12:06Z</time>
      </trkpt>
      <trkpt lat="42.93662" lon="0.28867">
        <ele>1120.60608</ele>
        <time>2024-01-12T08:12:07Z</time>
      </trkpt>
      <trkpt lat="42.9366" lon="0.28869">
        <ele>1122.2689</ele>
        <time>2024-01-12T08:12:09Z</time>
      </trkpt>
      <trkpt lat="42.9366" lon="0.2887">
        <ele>1122.01303</ele>
        <time>2024-01-12T08:12:10Z</time>
      </trkpt>
      <trkpt lat="42.93659" lon="0.28871">
        <ele>1121.71491</ele>
        <time>2024-01-12T08:12:11Z</time>
      </trkpt>
      <trkpt lat="42.93658" lon="0.28873">
        <ele>1120.88987</ele>
        <time>2024-01-12T08:12:13Z</time>
      </trkpt>
      <trkpt lat="42.93657" lon="0.28874">
        <ele>1121.51306</ele>
        <time>2024-01-12T08:12:14Z</time>
      </trkpt>
      <trkpt lat="42.93657" lon="0.28876">
        <ele>1121.33814</ele>
        <time>2024-01-12T08:12:15Z</time>
      </trkpt>
      <trkpt lat="42.93656" lon="0.28877">
        <ele>1122.39507</ele>
        <time>2024-01-12T08:12:17Z</time>
      </trkpt>
      <trkpt lat="42.93655" lon="0.28879">
        <ele>1122.72376</ele>
        <time>2024-01-12T08:12:18Z</time>
      </trkpt>
      <trkpt lat="42.93654" lon="0.2888">
        <ele>1124.22891</ele>
        <time>2024-01-12T08:12:19Z</time>
      </trkpt>
      <trkpt lat="42.93653" lon="0.28881">
        <ele>1123.51952</ele>
        <time>2024-01-12T08:12:20Z</time>
      </trkpt>
      <trkpt lat="42.93653" lon="0.28883">
        <ele>1124.07423</ele>
        <time>2024-01-12T08:12:22Z</time>
      </trkpt>
      <trkpt lat="42.93652" lon="0.28885">
        <ele>1125.37949</ele>
        <time>2024-01-12T08:12:23Z</time>
      </trkpt>
      <trkpt lat="42.93652" lon="0.28886">
        <ele>1125.71285</ele>
        <time>2024-01-12T08:12:24Z</time>
      </trkpt>
      <trkpt lat="42.93651" lon="0.28887">
        <ele>1125.45928</ele>
        <time>2024-01-12T08:12:25Z</time>
      </trkpt>
      <trkpt lat="42.9365" lon="0.28889">
        <ele>1123.24445</ele>
        <time>2024-01-12T08:12:27Z</time>
      </trkpt>
      <trkpt lat="42.93649" lon="0.28891">
        <ele>1123.75791</ele>
        <time>2024-01-12T08:12:28Z</time>
      </trkpt>
      <trkpt lat="42.93648" lon="0.28893">
        <ele>1123.93717</ele>
        <time>2024-01-12T08:12:30Z</time>
      </trkpt>
      <trkpt lat="42.93647" lon="0.28894">
        <ele>1124.35758</ele>
        <time>2024-01-12T08:12:31Z</time>
      </trkpt>
      <trkpt lat="42.93646" lon="0.28897">
        <ele>1124.3733</ele>
        <time>2024-01-12T08:12:33Z</time>
      </trkpt>
      <trkpt lat="42.93645" lon="0.28898">
        <ele>1124.74399</ele>
        <time>2024-01-12T08:12:34Z</time>
      </trkpt>
      <trkpt lat="42.93645" lon="0.28899">
        <ele>1125.38201</ele>
        <time>2024-01-12T08:12:35Z</time>
      </trkpt>
      <trkpt lat="42.93645" lon="0.28901">
        <ele>1125.66252</ele>
        <time>2024-01-12T08:12:36Z</time>
      </trkpt>
      <trkpt lat="42.93644" lon="0.28902">
        <ele>1126.28048</ele>
        <time>2024-01-12T08:12:37Z</time>
      </trkpt>
      <trkpt lat="42.93643" lon="0.28904">
        <ele>1126.64304</ele>
        <time>2024-01-12T08:12:38Z</time>
      </trkpt>
      <trkpt lat="42.93642" lon="0.28906">
        <ele>1125.38846</ele>
        <time>2024-01-12T08:12:40Z</time>
      </trkpt>
      <trkpt lat="42.93642" lon="0.28907">
        <ele>1125.20948</ele>
        <time>2024-01-12T08:12:41Z</time>
      </trkpt>
      <trkpt lat="42.93642" lon="0.28909">
        <ele>1125.018</ele>
        <time>2024-01-12T08:12:42Z</time>
      </trkpt>
      <trkpt lat="42.93641" lon="0.28909">
        <ele>1125.27509</ele>
        <time>2024-01-12T08:12:43Z</time>
      </trkpt>
      <trkpt lat="42.9364" lon="0.28911">
        <ele>1124.65819</ele>
        <time>2024-01-12T08:12:44Z</time>
      </trkpt>
      <trkpt lat="42.9364" lon="0.28913">
        <ele>1125.18101</ele>
        <time>2024-01-12T08:12:46Z</time>
      </trkpt>
      <trkpt lat="42.93639" lon="0.28913">
        <ele>1124.09253</ele>
        <time>2024-01-12T08:12:47Z</time>
      </trkpt>
      <trkpt lat="42.93638" lon="0.28915">
        <ele>1122.90357</ele>
        <time>2024-01-12T08:12:48Z</time>
      </trkpt>
      <trkpt lat="42.93638" lon="0.28917">
        <ele>1123.3788</ele>
        <time>2024-01-12T08:12:50Z</time>
      </trkpt>
      <trkpt lat="42.93637" lon="0.28918">
        <ele>1124.32016</ele>
        <time>2024-01-12T08:12:51Z</time>
      </trkpt>
      <trkpt lat="42.93635" lon="0.2892">
        <ele>1124.56275</ele>
        <time>2024-01-12T08:12:53Z</time>
      </trkpt>
      <trkpt lat="42.93634" lon="0.28922">
        <ele>1124.31868</ele>
        <time>2024-01-12T08:12:55Z</time>
      </trkpt>
      <trkpt lat="42.93633" lon="0.28924">
        <ele>1123.92765</ele>
        <time>2024-01-12T08:12:56Z</time>
      </trkpt>
      <trkpt lat="42.93633" lon="0.28925">
        <ele>1125.1645</ele>
        <time>2024-01-12T08:12:57Z</time>
      </trkpt>
      <trkpt lat="42.93632" lon="0.28926">
        <ele>1127.07892</ele>
        <time>2024-01-12T08:12:58Z</time>
      </trkpt>
      <trkpt lat="42.93631" lon="0.28928">
        <ele>1125.50772</ele>
        <time>2024-01-12T08:13:00Z</time>
      </trkpt>
      <trkpt lat="42.9363" lon="0.28929">
        <ele>1124.81365</ele>
        <time>2024-01-12T08:13:01Z</time>
      </trkpt>
      <trkpt lat="42.93629" lon="0.2893">
        <ele>1123.16267</ele>
        <time>2024-01-12T08:13:02Z</time>
      </trkpt>
      <trkpt lat="42.93628" lon="0.28932">
        <ele>1124.3728</ele>
        <time>2024-01-12T08:13:03Z</time>
      </trkpt>
      <trkpt lat="42.93628" lon="0.28933">
        <ele>1124.46423</ele>
        <time>2024-01-12T08:13:04Z</time>
      </trkpt>
      <trkpt lat="42.93626" lon="0.28935">
        <ele>1123.97258</ele>
        <time>2024-01-12T08:13:06Z</time>
      </trkpt>
      <trkpt lat="42.93626" lon="0.28937">
        <ele>1125.89059</ele>
        <time>2024-01-12T08:13:08Z</time>
      </trkpt>
      <trkpt lat="42.93625" lon="0.28938">
        <ele>1126.51303</ele>
        <time>2024-01-12T08:13:09Z</time>
      </trkpt>
      <trkpt lat="42.93624" lon="0.28939">
        <ele>1125.98322</ele>
        <time>2024-01-12T08:13:10Z</time>
      </trkpt>
      <trkpt lat="42.93624" lon="0.2894">
        <ele>1125.55621</ele>
        <time>2024-01-12T08:13:11Z</time>
      </trkpt>
      <trkpt lat="42.93623" lon="0.28941">
        <ele>1125.85937</ele>
        <time>2024-01-12T08:13:12Z</time>
      </trkpt>
      <trkpt lat="42.93623" lon="0.28942">
        <ele>1125.86636</ele>
        <time>2024-01-12T08:13:13Z</time>
      </trkpt>
      <trkpt lat="42.93622" lon="0.28943">
        <ele>1125.97116</ele>
        <time>2024-01-12T08:13:14Z</time>
      </trkpt>
      <trkpt lat="42.93621" lon="0.28944">
        <ele>1124.75328</ele>
        <time>2024-01-12T08:13:15Z</time>
      </trkpt>
      <trkpt lat="42.9362" lon="0.28947">
        <ele>1126.38837</ele>
        <time>2024-01-12T08:13:17Z</time>
      </trkpt>
      <trkpt lat="42.93619" lon="0.28949">
        <ele>1125.27235</ele>
        <time>2024-01-12T08:13:19Z</time>
      </trkpt>
      <trkpt lat="42.93618" lon="0.28951">
        <ele>1126.55928</ele>
        <time>2024-01-12T08:13:21Z</time>
      </trkpt>
      <trkpt lat="42.93617" lon="0.28952">
        <ele>1124.72398</ele>
        <time>2024-01-12T08:13:22Z</time>
      </trkpt>
      <trkpt lat="42.93616" lon="0.28953">
        <ele>1123.38396</ele>
        <time>2024-01-12T08:13:23Z</time>
      </trkpt>
      <trkpt lat="42.93615" lon="0.28954">
        <ele>1123.43188</ele>
        <time>2024-01-12T08:13:24Z</time>
      </trkpt>
      <trkpt lat="42.93615" lon="0.28955">
        <ele>1123.20352</ele>
        <time>2024-01-12T08:13:25Z</time>
      </trkpt>
      <trkpt lat="42.93613" lon="0.28957">
        <ele>1122.71748</ele>
        <time>2024-01-12T08:13:27Z</time>
      </trkpt>
      <trkpt lat="42.93612" lon="0.28958">
        <ele>1122.68892</ele>
        <time>2024-01-12T08:13:28Z</time>
      </trkpt>
      <trkpt lat="42.93611" lon="0.28959">
        <ele>1114.45327</ele>
        <time>2024-01-12T08:13:29Z</time>
      </trkpt>
      <trkpt lat="42.93612" lon="0.28961">
        <ele>1117.77691</ele>
        <time>2024-01-12T08:13:31Z</time>
      </trkpt>
      <trkpt lat="42.9361" lon="0.28963">
        <ele>1118.0493</ele>
        <time>2024-01-12T08:13:32Z</time>
      </trkpt>
      <trkpt lat="42.93609" lon="0.28965">
        <ele>1119.34182</ele>
        <time>2024-01-12T08:13:34Z</time>
      </trkpt>
      <trkpt lat="42.93608" lon="0.28966">
        <ele>1120.13716</ele>
        <time>2024-01-12T08:13:35Z</time>
      </trkpt>
      <trkpt lat="42.93608" lon="0.28968">
        <ele>1122.28469</ele>
        <time>2024-01-12T08:13:36Z</time>
      </trkpt>
      <trkpt lat="42.93607" lon="0.2897">
        <ele>1124.06979</ele>
        <time>2024-01-12T08:13:38Z</time>
      </trkpt>
      <trkpt lat="42.93606" lon="0.28971">
        <ele>1125.31478</ele>
        <time>2024-01-12T08:13:39Z</time>
      </trkpt>
      <trkpt lat="42.93605" lon="0.28973">
        <ele>1126.2539</ele>
        <time>2024-01-12T08:13:41Z</time>
      </trkpt>
      <trkpt lat="42.93604" lon="0.28974">
        <ele>1128.45363</ele>
        <time>2024-01-12T08:13:43Z</time>
      </trkpt>
      <trkpt lat="42.93603" lon="0.28976">
        <ele>1128.14157</ele>
        <time>2024-01-12T08:13:44Z</time>
      </trkpt>
      <trkpt lat="42.93602" lon="0.28977">
        <ele>1128.51056</ele>
        <time>2024-01-12T08:13:45Z</time>
      </trkpt>
      <trkpt lat="42.93601" lon="0.28978">
        <ele>1128.3852</ele>
        <time>2024-01-12T08:13:46Z</time>
      </trkpt>
      <trkpt lat="42.93601" lon="0.28979">
        <ele>1128.07421</ele>
        <time>2024-01-12T08:13:47Z</time>
      </trkpt>
      <trkpt lat="42.936" lon="0.28981">
        <ele>1128.12047</ele>
        <time>2024-01-12T08:13:48Z</time>
      </trkpt>
      <trkpt lat="42.93599" lon="0.28982">
        <ele>1127.71194</ele>
        <time>2024-01-12T08:13:49Z</time>
      </trkpt>
      <trkpt lat="42.93599" lon="0.28984">
        <ele>1127.41036</ele>
        <time>2024-01-12T08:13:50Z</time>
      </trkpt>
      <trkpt lat="42.93598" lon="0.28984">
        <ele>1127.82014</ele>
        <time>2024-01-12T08:13:51Z</time>
      </trkpt>
      <trkpt lat="42.93597" lon="0.28986">
        <ele>1127.57064</ele>
        <time>2024-01-12T08:13:52Z</time>
      </trkpt>
      <trkpt lat="42.93596" lon="0.28987">
        <ele>1127.73519</ele>
        <time>2024-01-12T08:13:53Z</time>
      </trkpt>
      <trkpt lat="42.93595" lon="0.28989">
        <ele>1127.8988</ele>
        <time>2024-01-12T08:13:55Z</time>
      </trkpt>
      <trkpt lat="42.93594" lon="0.2899">
        <ele>1128.64989</ele>
        <time>2024-01-12T08:13:56Z</time>
      </trkpt>
      <trkpt lat="42.93593" lon="0.28992">
        <ele>1127.68131</ele>
        <time>2024-01-12T08:13:58Z</time>
      </trkpt>
      <trkpt lat="42.93592" lon="0.28994">
        <ele>1128.43656</ele>
        <time>2024-01-12T08:13:59Z</time>
      </trkpt>
      <trkpt lat="42.93592" lon="0.28995">
        <ele>1127.27165</ele>
        <time>2024-01-12T08:14:00Z</time>
      </trkpt>
      <trkpt lat="42.93591" lon="0.28997">
        <ele>1127.56407</ele>
        <time>2024-01-12T08:14:01Z</time>
      </trkpt>
      <trkpt lat="42.9359" lon="0.28999">
        <ele>1127.73476</ele>
        <time>2024-01-12T08:14:03Z</time>
      </trkpt>
      <trkpt lat="42.93589" lon="0.29">
        <ele>1128.71825</ele>
        <time>2024-01-12T08:14:04Z</time>
      </trkpt>
      <trkpt lat="42.93589" lon="0.29001">
        <ele>1129.58732</ele>
        <time>2024-01-12T08:14:05Z</time>
      </trkpt>
      <trkpt lat="42.93588" lon="0.29003">
        <ele>1128.44474</ele>
        <time>2024-01-12T08:14:06Z</time>
      </trkpt>
      <trkpt lat="42.93588" lon="0.29004">
        <ele>1127.82482</ele>
        <time>2024-01-12T08:14:07Z</time>
      </trkpt>
      <trkpt lat="42.93587" lon="0.29005">
        <ele>1128.2191</ele>
        <time>2024-01-12T08:14:08Z</time>
      </trkpt>
      <trkpt lat="42.93586" lon="0.29007">
        <ele>1127.64983</ele>
        <time>2024-01-12T08:14:09Z</time>
      </trkpt>
      <trkpt lat="42.93586" lon="0.29008">
        <ele>1128.37664</ele>
        <time>2024-01-12T08:14:10Z</time>
      </trkpt>
      <trkpt lat="42.93585" lon="0.29009">
        <ele>1129.13142</ele>
        <time>2024-01-12T08:14:11Z</time>
      </trkpt>
      <trkpt lat="42.93584" lon="0.29012">
        <ele>1129.94308</ele>
        <time>2024-01-12T08:14:13Z</time>
      </trkpt>
      <trkpt lat="42.93583" lon="0.29014">
        <ele>1127.98925</ele>
        <time>2024-01-12T08:14:15Z</time>
      </trkpt>
      <trkpt lat="42.93582" lon="0.29015">
        <ele>1128.94451</ele>
        <time>2024-01-12T08:14:16Z</time>
      </trkpt>
      <trkpt lat="42.93582" lon="0.29016">
        <ele>1128.68314</ele>
        <time>2024-01-12T08:14:17Z</time>
      </trkpt>
      <trkpt lat="42.93581" lon="0.29018">
        <ele>1129.33493</ele>
        <time>2024-01-12T08:14:18Z</time>
      </trkpt>
      <trkpt lat="42.9358" lon="0.29019">
        <ele>1127.59266</ele>
        <time>2024-01-12T08:14:19Z</time>
      </trkpt>
      <trkpt lat="42.93579" lon="0.29021">
        <ele>1126.14157</ele>
        <time>2024-01-12T08:14:20Z</time>
      </trkpt>
      <trkpt lat="42.93578" lon="0.29022">
        <ele>1129.10437</ele>
        <time>2024-01-12T08:14:22Z</time>
      </trkpt>
      <trkpt lat="42.93578" lon="0.29024">
        <ele>1129.99988</ele>
        <time>2024-01-12T08:14:23Z</time>
      </trkpt>
      <trkpt lat="42.93577" lon="0.29025">
        <ele>1128.23067</ele>
        <time>2024-01-12T08:14:24Z</time>
      </trkpt>
      <trkpt lat="42.93576" lon="0.29027">
        <ele>1128.95718</ele>
        <time>2024-01-12T08:14:25Z</time>
      </trkpt>
      <trkpt lat="42.93575" lon="0.29029">
        <ele>1130.95172</ele>
        <time>2024-01-12T08:14:27Z</time>
      </trkpt>
      <trkpt lat="42.93575" lon="0.2903">
        <ele>1129.99431</ele>
        <time>2024-01-12T08:14:28Z</time>
      </trkpt>
      <trkpt lat="42.93574" lon="0.29032">
        <ele>1130.25326</ele>
        <time>2024-01-12T08:14:30Z</time>
      </trkpt>
      <trkpt lat="42.93573" lon="0.29034">
        <ele>1129.93105</ele>
        <time>2024-01-12T08:14:31Z</time>
      </trkpt>
      <trkpt lat="42.93573" lon="0.29036">
        <ele>1128.75381</ele>
        <time>2024-01-12T08:14:33Z</time>
      </trkpt>
      <trkpt lat="42.93572" lon="0.29037">
        <ele>1128.72252</ele>
        <time>2024-01-12T08:14:34Z</time>
      </trkpt>
      <trkpt lat="42.93571" lon="0.29038">
        <ele>1129.06328</ele>
        <time>2024-01-12T08:14:35Z</time>
      </trkpt>
      <trkpt lat="42.93571" lon="0.2904">
        <ele>1128.87532</ele>
        <time>2024-01-12T08:14:36Z</time>
      </trkpt>
      <trkpt lat="42.93571" lon="0.29041">
        <ele>1128.88048</ele>
        <time>2024-01-12T08:14:37Z</time>
      </trkpt>
      <trkpt lat="42.9357" lon="0.29042">
        <ele>1128.93012</ele>
        <time>2024-01-12T08:14:38Z</time>
      </trkpt>
      <trkpt lat="42.93569" lon="0.29044">
        <ele>1128.04587</ele>
        <time>2024-01-12T08:14:39Z</time>
      </trkpt>
      <trkpt lat="42.93568" lon="0.29045">
        <ele>1127.31821</ele>
        <time>2024-01-12T08:14:40Z</time>
      </trkpt>
      <trkpt lat="42.93567" lon="0.29046">
        <ele>1126.98474</ele>
        <time>2024-01-12T08:14:41Z</time>
      </trkpt>
      <trkpt lat="42.93567" lon="0.29048">
        <ele>1126.93067</ele>
        <time>2024-01-12T08:14:42Z</time>
      </trkpt>
      <trkpt lat="42.93566" lon="0.29051">
        <ele>1128.20572</ele>
        <time>2024-01-12T08:14:44Z</time>
      </trkpt>
      <trkpt lat="42.93565" lon="0.29053">
        <ele>1128.75141</ele>
        <time>2024-01-12T08:14:46Z</time>
      </trkpt>
      <trkpt lat="42.93564" lon="0.29056">
        <ele>1128.33481</ele>
        <time>2024-01-12T08:14:48Z</time>
      </trkpt>
      <trkpt lat="42.93563" lon="0.29057">
        <ele>1127.04135</ele>
        <time>2024-01-12T08:14:49Z</time>
      </trkpt>
      <trkpt lat="42.93563" lon="0.29059">
        <ele>1127.76732</ele>
        <time>2024-01-12T08:14:50Z</time>
      </trkpt>
      <trkpt lat="42.93562" lon="0.2906">
        <ele>1128.12302</ele>
        <time>2024-01-12T08:14:51Z</time>
      </trkpt>
      <trkpt lat="42.93561" lon="0.29061">
        <ele>1128.34884</ele>
        <time>2024-01-12T08:14:52Z</time>
      </trkpt>
      <trkpt lat="42.93562" lon="0.29062">
        <ele>1128.40152</ele>
        <time>2024-01-12T08:14:53Z</time>
      </trkpt>
      <trkpt lat="42.93561" lon="0.29064">
        <ele>1128.2107</ele>
        <time>2024-01-12T08:14:54Z</time>
      </trkpt>
      <trkpt lat="42.9356" lon="0.29066">
        <ele>1126.13283</ele>
        <time>2024-01-12T08:14:56Z</time>
      </trkpt>
      <trkpt lat="42.93559" lon="0.29067">
        <ele>1126.7052</ele>
        <time>2024-01-12T08:14:57Z</time>
      </trkpt>
      <trkpt lat="42.93558" lon="0.29069">
        <ele>1124.45314</ele>
        <time>2024-01-12T08:14:59Z</time>
      </trkpt>
      <trkpt lat="42.93558" lon="0.2907">
        <ele>1125.16132</ele>
        <time>2024-01-12T08:15:00Z</time>
      </trkpt>
      <trkpt lat="42.93557" lon="0.29072">
        <ele>1125.48666</ele>
        <time>2024-01-12T08:15:01Z</time>
      </trkpt>
      <trkpt lat="42.93556" lon="0.29073">
        <ele>1126.34383</ele>
        <time>2024-01-12T08:15:04Z</time>
      </trkpt>
      <trkpt lat="42.93555" lon="0.29075">
        <ele>1126.50063</ele>
        <time>2024-01-12T08:15:05Z</time>
      </trkpt>
      <trkpt lat="42.93554" lon="0.29076">
        <ele>1126.60363</ele>
        <time>2024-01-12T08:15:06Z</time>
      </trkpt>
      <trkpt lat="42.93553" lon="0.29077">
        <ele>1123.36445</ele>
        <time>2024-01-12T08:15:07Z</time>
      </trkpt>
      <trkpt lat="42.93553" lon="0.29079">
        <ele>1124.78582</ele>
        <time>2024-01-12T08:15:09Z</time>
      </trkpt>
      <trkpt lat="42.93552" lon="0.29082">
        <ele>1127.40734</ele>
        <time>2024-01-12T08:15:11Z</time>
      </trkpt>
      <trkpt lat="42.93552" lon="0.29083">
        <ele>1128.41801</ele>
        <time>2024-01-12T08:15:12Z</time>
      </trkpt>
      <trkpt lat="42.93552" lon="0.29084">
        <ele>1128.73161</ele>
        <time>2024-01-12T08:15:13Z</time>
      </trkpt>
      <trkpt lat="42.93551" lon="0.29087">
        <ele>1129.48453</ele>
        <time>2024-01-12T08:15:15Z</time>
      </trkpt>
      <trkpt lat="42.93551" lon="0.29088">
        <ele>1128.6825</ele>
        <time>2024-01-12T08:15:16Z</time>
      </trkpt>
      <trkpt lat="42.9355" lon="0.2909">
        <ele>1127.9199</ele>
        <time>2024-01-12T08:15:18Z</time>
      </trkpt>
      <trkpt lat="42.9355" lon="0.29091">
        <ele>1125.95372</ele>
        <time>2024-01-12T08:15:19Z</time>
      </trkpt>
      <trkpt lat="42.9355" lon="0.29093">
        <ele>1125.64216</ele>
        <time>2024-01-12T08:15:20Z</time>
      </trkpt>
      <trkpt lat="42.9355" lon="0.29095">
        <ele>1125.74834</ele>
        <time>2024-01-12T08:15:21Z</time>
      </trkpt>
      <trkpt lat="42.9355" lon="0.29097">
        <ele>1128.40838</ele>
        <time>2024-01-12T08:15:22Z</time>
      </trkpt>
      <trkpt lat="42.93549" lon="0.29098">
        <ele>1128.90131</ele>
        <time>2024-01-12T08:15:23Z</time>
      </trkpt>
      <trkpt lat="42.93548" lon="0.291">
        <ele>1128.11292</ele>
        <time>2024-01-12T08:15:25Z</time>
      </trkpt>
      <trkpt lat="42.93548" lon="0.29102">
        <ele>1129.46646</ele>
        <time>2024-01-12T08:15:26Z</time>
      </trkpt>
      <trkpt lat="42.93548" lon="0.29104">
        <ele>1130.82226</ele>
        <time>2024-01-12T08:15:28Z</time>
      </trkpt>
      <trkpt lat="42.93547" lon="0.29106">
        <ele>1129.1963</ele>
        <time>2024-01-12T08:15:30Z</time>
      </trkpt>
      <trkpt lat="42.93547" lon="0.29108">
        <ele>1130.58389</ele>
        <time>2024-01-12T08:15:32Z</time>
      </trkpt>
      <trkpt lat="42.93546" lon="0.2911">
        <ele>1133.81229</ele>
        <time>2024-01-12T08:15:35Z</time>
      </trkpt>
      <trkpt lat="42.93546" lon="0.29112">
        <ele>1133.62464</ele>
        <time>2024-01-12T08:15:37Z</time>
      </trkpt>
      <trkpt lat="42.93545" lon="0.29112">
        <ele>1132.31245</ele>
        <time>2024-01-12T08:15:39Z</time>
      </trkpt>
      <trkpt lat="42.93543" lon="0.29111">
        <ele>1130.15546</ele>
        <time>2024-01-12T08:15:42Z</time>
      </trkpt>
      <trkpt lat="42.93542" lon="0.29111">
        <ele>1128.36144</ele>
        <time>2024-01-12T08:15:45Z</time>
      </trkpt>
      <trkpt lat="42.93541" lon="0.29112">
        <ele>1124.03488</ele>
        <time>2024-01-12T08:15:47Z</time>
      </trkpt>
      <trkpt lat="42.93542" lon="0.29111">
        <ele>1128.77831</ele>
        <time>2024-01-12T08:15:51Z</time>
      </trkpt>
      <trkpt lat="42.93541" lon="0.29111">
        <ele>1122.61347</ele>
        <time>2024-01-12T08:15:56Z</time>
      </trkpt>
      <trkpt lat="42.93542" lon="0.29111">
        <ele>1126.01968</ele>
        <time>2024-01-12T08:16:21Z</time>
      </trkpt>
      <trkpt lat="42.93541" lon="0.29111">
        <ele>1123.2295</ele>
        <time>2024-01-12T08:16:24Z</time>
      </trkpt>
      <trkpt lat="42.93542" lon="0.2911">
        <ele>1126.01031</ele>
        <time>2024-01-12T08:16:31Z</time>
      </trkpt>
      <trkpt lat="42.93541" lon="0.29112">
        <ele>1116.38101</ele>
        <time>2024-01-12T08:16:41Z</time>
      </trkpt>
      <trkpt lat="42.93541" lon="0.29113">
        <ele>1115.31786</ele>
        <time>2024-01-12T08:16:44Z</time>
      </trkpt>
      <trkpt lat="42.93541" lon="0.29115">
        <ele>1119.7953</ele>
        <time>2024-01-12T08:16:46Z</time>
      </trkpt>
      <trkpt lat="42.93541" lon="0.29117">
        <ele>1122.45579</ele>
        <time>2024-01-12T08:16:48Z</time>
      </trkpt>
      <trkpt lat="42.93541" lon="0.29119">
        <ele>1125.14661</ele>
        <time>2024-01-12T08:16:51Z</time>
      </trkpt>
      <trkpt lat="42.93541" lon="0.2912">
        <ele>1125.80382</ele>
        <time>2024-01-12T08:16:52Z</time>
      </trkpt>
      <trkpt lat="42.93541" lon="0.29121">
        <ele>1125.80519</ele>
        <time>2024-01-12T08:16:53Z</time>
      </trkpt>
      <trkpt lat="42.9354" lon="0.29123">
        <ele>1126.38169</ele>
        <time>2024-01-12T08:16:54Z</time>
      </trkpt>
      <trkpt lat="42.9354" lon="0.29124">
        <ele>1126.49317</ele>
        <time>2024-01-12T08:16:55Z</time>
      </trkpt>
      <trkpt lat="42.93539" lon="0.29125">
        <ele>1126.95641</ele>
        <time>2024-01-12T08:16:56Z</time>
      </trkpt>
      <trkpt lat="42.93539" lon="0.29126">
        <ele>1127.28556</ele>
        <time>2024-01-12T08:16:57Z</time>
      </trkpt>
      <trkpt lat="42.93537" lon="0.29128">
        <ele>1128.52527</ele>
        <time>2024-01-12T08:16:59Z</time>
      </trkpt>
      <trkpt lat="42.93536" lon="0.2913">
        <ele>1126.75003</ele>
        <time>2024-01-12T08:17:01Z</time>
      </trkpt>
      <trkpt lat="42.93534" lon="0.29132">
        <ele>1127.69971</ele>
        <time>2024-01-12T08:17:03Z</time>
      </trkpt>
      <trkpt lat="42.93534" lon="0.29133">
        <ele>1127.8484</ele>
        <time>2024-01-12T08:17:04Z</time>
      </trkpt>
      <trkpt lat="42.93533" lon="0.29135">
        <ele>1128.64297</ele>
        <time>2024-01-12T08:17:06Z</time>
      </trkpt>
      <trkpt lat="42.93532" lon="0.29137">
        <ele>1128.78683</ele>
        <time>2024-01-12T08:17:07Z</time>
      </trkpt>
      <trkpt lat="42.93531" lon="0.29137">
        <ele>1128.11475</ele>
        <time>2024-01-12T08:17:08Z</time>
      </trkpt>
      <trkpt lat="42.9353" lon="0.29138">
        <ele>1128.23597</ele>
        <time>2024-01-12T08:17:09Z</time>
      </trkpt>
      <trkpt lat="42.93529" lon="0.29139">
        <ele>1129.0001</ele>
        <time>2024-01-12T08:17:10Z</time>
      </trkpt>
      <trkpt lat="42.93528" lon="0.2914">
        <ele>1128.41522</ele>
        <time>2024-01-12T08:17:11Z</time>
      </trkpt>
      <trkpt lat="42.93527" lon="0.29143">
        <ele>1129.99575</ele>
        <time>2024-01-12T08:17:13Z</time>
      </trkpt>
      <trkpt lat="42.93526" lon="0.29144">
        <ele>1129.66477</ele>
        <time>2024-01-12T08:17:15Z</time>
      </trkpt>
      <trkpt lat="42.93525" lon="0.29144">
        <ele>1128.92967</ele>
        <time>2024-01-12T08:17:16Z</time>
      </trkpt>
      <trkpt lat="42.93524" lon="0.29144">
        <ele>1127.9277</ele>
        <time>2024-01-12T08:17:18Z</time>
      </trkpt>
      <trkpt lat="42.93523" lon="0.29145">
        <ele>1127.84371</ele>
        <time>2024-01-12T08:17:19Z</time>
      </trkpt>
      <trkpt lat="42.93522" lon="0.29147">
        <ele>1128.52993</ele>
        <time>2024-01-12T08:17:21Z</time>
      </trkpt>
      <trkpt lat="42.93521" lon="0.29149">
        <ele>1127.89958</ele>
        <time>2024-01-12T08:17:23Z</time>
      </trkpt>
      <trkpt lat="42.9352" lon="0.2915">
        <ele>1128.00727</ele>
        <time>2024-01-12T08:17:24Z</time>
      </trkpt>
      <trkpt lat="42.93519" lon="0.2915">
        <ele>1127.67749</ele>
        <time>2024-01-12T08:17:26Z</time>
      </trkpt>
      <trkpt lat="42.93518" lon="0.2915">
        <ele>1127.8673</ele>
        <time>2024-01-12T08:17:27Z</time>
      </trkpt>
      <trkpt lat="42.93517" lon="0.29151">
        <ele>1127.40527</ele>
        <time>2024-01-12T08:17:28Z</time>
      </trkpt>
      <trkpt lat="42.93516" lon="0.29152">
        <ele>1127.48063</ele>
        <time>2024-01-12T08:17:29Z</time>
      </trkpt>
      <trkpt lat="42.93515" lon="0.29152">
        <ele>1127.6587</ele>
        <time>2024-01-12T08:17:30Z</time>
      </trkpt>
      <trkpt lat="42.93514" lon="0.29154">
        <ele>1126.56002</ele>
        <time>2024-01-12T08:17:32Z</time>
      </trkpt>
      <trkpt lat="42.93513" lon="0.29154">
        <ele>1127.79726</ele>
        <time>2024-01-12T08:17:35Z</time>
      </trkpt>
      <trkpt lat="42.93511" lon="0.29155">
        <ele>1123.77979</ele>
        <time>2024-01-12T08:17:36Z</time>
      </trkpt>
      <trkpt lat="42.93509" lon="0.29157">
        <ele>1130.05829</ele>
        <time>2024-01-12T08:17:38Z</time>
      </trkpt>
      <trkpt lat="42.93508" lon="0.29156">
        <ele>1131.27</ele>
        <time>2024-01-12T08:17:40Z</time>
      </trkpt>
      <trkpt lat="42.93507" lon="0.29157">
        <ele>1129.9752</ele>
        <time>2024-01-12T08:17:41Z</time>
      </trkpt>
      <trkpt lat="42.93506" lon="0.29157">
        <ele>1130.33932</ele>
        <time>2024-01-12T08:17:42Z</time>
      </trkpt>
      <trkpt lat="42.93505" lon="0.29157">
        <ele>1130.58459</ele>
        <time>2024-01-12T08:17:43Z</time>
      </trkpt>
      <trkpt lat="42.93504" lon="0.29158">
        <ele>1129.84544</ele>
        <time>2024-01-12T08:17:44Z</time>
      </trkpt>
      <trkpt lat="42.93503" lon="0.29158">
        <ele>1130.09408</ele>
        <time>2024-01-12T08:17:45Z</time>
      </trkpt>
      <trkpt lat="42.93501" lon="0.29159">
        <ele>1130.51906</ele>
        <time>2024-01-12T08:17:47Z</time>
      </trkpt>
      <trkpt lat="42.935" lon="0.29159">
        <ele>1129.97365</ele>
        <time>2024-01-12T08:17:48Z</time>
      </trkpt>
      <trkpt lat="42.93499" lon="0.2916">
        <ele>1132.87176</ele>
        <time>2024-01-12T08:17:50Z</time>
      </trkpt>
      <trkpt lat="42.93498" lon="0.29161">
        <ele>1133.86266</ele>
        <time>2024-01-12T08:17:52Z</time>
      </trkpt>
      <trkpt lat="42.93496" lon="0.29162">
        <ele>1134.81153</ele>
        <time>2024-01-12T08:17:54Z</time>
      </trkpt>
      <trkpt lat="42.93496" lon="0.29163">
        <ele>1135.45742</ele>
        <time>2024-01-12T08:17:55Z</time>
      </trkpt>
      <trkpt lat="42.93495" lon="0.29165">
        <ele>1137.26537</ele>
        <time>2024-01-12T08:17:57Z</time>
      </trkpt>
      <trkpt lat="42.93495" lon="0.29166">
        <ele>1134.27977</ele>
        <time>2024-01-12T08:18:04Z</time>
      </trkpt>
      <trkpt lat="42.93495" lon="0.29168">
        <ele>1131.464</ele>
        <time>2024-01-12T08:18:31Z</time>
      </trkpt>
      <trkpt lat="42.93495" lon="0.29166">
        <ele>1133.29273</ele>
        <time>2024-01-12T08:18:43Z</time>
      </trkpt>
      <trkpt lat="42.93495" lon="0.29167">
        <ele>1132.28838</ele>
        <time>2024-01-12T08:18:51Z</time>
      </trkpt>
      <trkpt lat="42.93496" lon="0.29167">
        <ele>1130.73159</ele>
        <time>2024-01-12T08:19:17Z</time>
      </trkpt>
      <trkpt lat="42.93495" lon="0.29168">
        <ele>1132.33163</ele>
        <time>2024-01-12T08:19:19Z</time>
      </trkpt>
      <trkpt lat="42.93494" lon="0.29169">
        <ele>1132.90307</ele>
        <time>2024-01-12T08:19:20Z</time>
      </trkpt>
      <trkpt lat="42.93493" lon="0.2917">
        <ele>1134.95677</ele>
        <time>2024-01-12T08:19:22Z</time>
      </trkpt>
      <trkpt lat="42.93493" lon="0.29171">
        <ele>1135.67513</ele>
        <time>2024-01-12T08:19:23Z</time>
      </trkpt>
      <trkpt lat="42.93492" lon="0.29172">
        <ele>1134.35398</ele>
        <time>2024-01-12T08:19:24Z</time>
      </trkpt>
      <trkpt lat="42.93492" lon="0.29174">
        <ele>1134.61059</ele>
        <time>2024-01-12T08:19:25Z</time>
      </trkpt>
      <trkpt lat="42.93491" lon="0.29175">
        <ele>1135.70689</ele>
        <time>2024-01-12T08:19:27Z</time>
      </trkpt>
      <trkpt lat="42.9349" lon="0.29176">
        <ele>1135.76132</ele>
        <time>2024-01-12T08:19:28Z</time>
      </trkpt>
      <trkpt lat="42.9349" lon="0.29177">
        <ele>1135.87148</ele>
        <time>2024-01-12T08:19:29Z</time>
      </trkpt>
      <trkpt lat="42.93489" lon="0.29178">
        <ele>1135.98615</ele>
        <time>2024-01-12T08:19:30Z</time>
      </trkpt>
      <trkpt lat="42.93488" lon="0.29179">
        <ele>1133.96218</ele>
        <time>2024-01-12T08:19:31Z</time>
      </trkpt>
      <trkpt lat="42.93488" lon="0.29181">
        <ele>1134.46935</ele>
        <time>2024-01-12T08:19:32Z</time>
      </trkpt>
      <trkpt lat="42.93487" lon="0.29182">
        <ele>1134.1283</ele>
        <time>2024-01-12T08:19:33Z</time>
      </trkpt>
      <trkpt lat="42.93487" lon="0.29184">
        <ele>1134.29138</ele>
        <time>2024-01-12T08:19:34Z</time>
      </trkpt>
      <trkpt lat="42.93486" lon="0.29185">
        <ele>1135.9177</ele>
        <time>2024-01-12T08:19:35Z</time>
      </trkpt>
      <trkpt lat="42.93485" lon="0.29186">
        <ele>1136.78074</ele>
        <time>2024-01-12T08:19:36Z</time>
      </trkpt>
      <trkpt lat="42.93485" lon="0.29188">
        <ele>1136.15689</ele>
        <time>2024-01-12T08:19:37Z</time>
      </trkpt>
      <trkpt lat="42.93484" lon="0.2919">
        <ele>1135.71784</ele>
        <time>2024-01-12T08:19:38Z</time>
      </trkpt>
      <trkpt lat="42.93483" lon="0.29191">
        <ele>1134.60566</ele>
        <time>2024-01-12T08:19:40Z</time>
      </trkpt>
      <trkpt lat="42.93482" lon="0.29192">
        <ele>1135.03649</ele>
        <time>2024-01-12T08:19:41Z</time>
      </trkpt>
      <trkpt lat="42.93482" lon="0.29193">
        <ele>1137.37364</ele>
        <time>2024-01-12T08:19:42Z</time>
      </trkpt>
      <trkpt lat="42.93482" lon="0.29195">
        <ele>1138.23994</ele>
        <time>2024-01-12T08:19:43Z</time>
      </trkpt>
      <trkpt lat="42.93481" lon="0.29196">
        <ele>1138.44089</ele>
        <time>2024-01-12T08:19:44Z</time>
      </trkpt>
      <trkpt lat="42.93481" lon="0.29198">
        <ele>1138.48393</ele>
        <time>2024-01-12T08:19:45Z</time>
      </trkpt>
      <trkpt lat="42.9348" lon="0.292">
        <ele>1138.06397</ele>
        <time>2024-01-12T08:19:47Z</time>
      </trkpt>
      <trkpt lat="42.93479" lon="0.29202">
        <ele>1136.44123</ele>
        <time>2024-01-12T08:19:48Z</time>
      </trkpt>
      <trkpt lat="42.93478" lon="0.29205">
        <ele>1136.4621</ele>
        <time>2024-01-12T08:19:50Z</time>
      </trkpt>
      <trkpt lat="42.93477" lon="0.29206">
        <ele>1135.7739</ele>
        <time>2024-01-12T08:19:51Z</time>
      </trkpt>
      <trkpt lat="42.93476" lon="0.29208">
        <ele>1136.20001</ele>
        <time>2024-01-12T08:19:53Z</time>
      </trkpt>
      <trkpt lat="42.93475" lon="0.2921">
        <ele>1135.52174</ele>
        <time>2024-01-12T08:19:55Z</time>
      </trkpt>
      <trkpt lat="42.93474" lon="0.29212">
        <ele>1135.17437</ele>
        <time>2024-01-12T08:19:56Z</time>
      </trkpt>
      <trkpt lat="42.93474" lon="0.29213">
        <ele>1135.59199</ele>
        <time>2024-01-12T08:19:57Z</time>
      </trkpt>
      <trkpt lat="42.93473" lon="0.29215">
        <ele>1133.85995</ele>
        <time>2024-01-12T08:19:58Z</time>
      </trkpt>
      <trkpt lat="42.93473" lon="0.29216">
        <ele>1134.31003</ele>
        <time>2024-01-12T08:19:59Z</time>
      </trkpt>
      <trkpt lat="42.93472" lon="0.29217">
        <ele>1134.58477</ele>
        <time>2024-01-12T08:20:00Z</time>
      </trkpt>
      <trkpt lat="42.93472" lon="0.29219">
        <ele>1134.58495</ele>
        <time>2024-01-12T08:20:01Z</time>
      </trkpt>
      <trkpt lat="42.93471" lon="0.2922">
        <ele>1134.90457</ele>
        <time>2024-01-12T08:20:02Z</time>
      </trkpt>
      <trkpt lat="42.93471" lon="0.29222">
        <ele>1135.80991</ele>
        <time>2024-01-12T08:20:03Z</time>
      </trkpt>
      <trkpt lat="42.9347" lon="0.29224">
        <ele>1135.98317</ele>
        <time>2024-01-12T08:20:04Z</time>
      </trkpt>
      <trkpt lat="42.93469" lon="0.29225">
        <ele>1133.59818</ele>
        <time>2024-01-12T08:20:05Z</time>
      </trkpt>
      <trkpt lat="42.93469" lon="0.29227">
        <ele>1135.81757</ele>
        <time>2024-01-12T08:20:07Z</time>
      </trkpt>
      <trkpt lat="42.93468" lon="0.29229">
        <ele>1135.30142</ele>
        <time>2024-01-12T08:20:08Z</time>
      </trkpt>
      <trkpt lat="42.93468" lon="0.29231">
        <ele>1137.05158</ele>
        <time>2024-01-12T08:20:10Z</time>
      </trkpt>
      <trkpt lat="42.93467" lon="0.29233">
        <ele>1136.88085</ele>
        <time>2024-01-12T08:20:12Z</time>
      </trkpt>
      <trkpt lat="42.93467" lon="0.29235">
        <ele>1138.11247</ele>
        <time>2024-01-12T08:20:13Z</time>
      </trkpt>
      <trkpt lat="42.93466" lon="0.29237">
        <ele>1137.84881</ele>
        <time>2024-01-12T08:20:14Z</time>
      </trkpt>
      <trkpt lat="42.93466" lon="0.29239">
        <ele>1136.663</ele>
        <time>2024-01-12T08:20:15Z</time>
      </trkpt>
      <trkpt lat="42.93466" lon="0.29241">
        <ele>1136.7808</ele>
        <time>2024-01-12T08:20:16Z</time>
      </trkpt>
      <trkpt lat="42.93466" lon="0.29243">
        <ele>1136.50768</ele>
        <time>2024-01-12T08:20:17Z</time>
      </trkpt>
      <trkpt lat="42.93467" lon="0.29245">
        <ele>1135.52788</ele>
        <time>2024-01-12T08:20:18Z</time>
      </trkpt>
      <trkpt lat="42.93467" lon="0.29247">
        <ele>1135.42783</ele>
        <time>2024-01-12T08:20:20Z</time>
      </trkpt>
      <trkpt lat="42.93467" lon="0.29249">
        <ele>1135.13757</ele>
        <time>2024-01-12T08:20:22Z</time>
      </trkpt>
      <trkpt lat="42.93467" lon="0.29251">
        <ele>1135.53561</ele>
        <time>2024-01-12T08:20:23Z</time>
      </trkpt>
      <trkpt lat="42.93467" lon="0.29252">
        <ele>1134.92246</ele>
        <time>2024-01-12T08:20:24Z</time>
      </trkpt>
      <trkpt lat="42.93466" lon="0.29255">
        <ele>1136.31375</ele>
        <time>2024-01-12T08:20:26Z</time>
      </trkpt>
      <trkpt lat="42.93466" lon="0.29256">
        <ele>1136.34973</ele>
        <time>2024-01-12T08:20:27Z</time>
      </trkpt>
      <trkpt lat="42.93466" lon="0.29258">
        <ele>1136.15294</ele>
        <time>2024-01-12T08:20:28Z</time>
      </trkpt>
      <trkpt lat="42.93466" lon="0.2926">
        <ele>1136.19341</ele>
        <time>2024-01-12T08:20:29Z</time>
      </trkpt>
      <trkpt lat="42.93466" lon="0.29261">
        <ele>1135.71834</ele>
        <time>2024-01-12T08:20:30Z</time>
      </trkpt>
      <trkpt lat="42.93466" lon="0.29263">
        <ele>1136.50457</ele>
        <time>2024-01-12T08:20:31Z</time>
      </trkpt>
      <trkpt lat="42.93466" lon="0.29264">
        <ele>1136.27324</ele>
        <time>2024-01-12T08:20:32Z</time>
      </trkpt>
      <trkpt lat="42.93465" lon="0.29266">
        <ele>1135.15977</ele>
        <time>2024-01-12T08:20:33Z</time>
      </trkpt>
      <trkpt lat="42.93465" lon="0.29267">
        <ele>1135.4347</ele>
        <time>2024-01-12T08:20:34Z</time>
      </trkpt>
      <trkpt lat="42.93465" lon="0.2927">
        <ele>1134.84912</ele>
        <time>2024-01-12T08:20:36Z</time>
      </trkpt>
      <trkpt lat="42.93465" lon="0.29272">
        <ele>1135.22286</ele>
        <time>2024-01-12T08:20:37Z</time>
      </trkpt>
      <trkpt lat="42.93464" lon="0.29275">
        <ele>1136.01421</ele>
        <time>2024-01-12T08:20:39Z</time>
      </trkpt>
      <trkpt lat="42.93464" lon="0.29276">
        <ele>1135.71805</ele>
        <time>2024-01-12T08:20:40Z</time>
      </trkpt>
      <trkpt lat="42.93463" lon="0.29278">
        <ele>1135.64841</ele>
        <time>2024-01-12T08:20:42Z</time>
      </trkpt>
      <trkpt lat="42.93462" lon="0.2928">
        <ele>1135.27082</ele>
        <time>2024-01-12T08:20:43Z</time>
      </trkpt>
      <trkpt lat="42.93462" lon="0.29281">
        <ele>1134.23808</ele>
        <time>2024-01-12T08:20:44Z</time>
      </trkpt>
      <trkpt lat="42.93462" lon="0.29283">
        <ele>1134.63784</ele>
        <time>2024-01-12T08:20:45Z</time>
      </trkpt>
      <trkpt lat="42.93461" lon="0.29284">
        <ele>1134.61143</ele>
        <time>2024-01-12T08:20:46Z</time>
      </trkpt>
      <trkpt lat="42.93461" lon="0.29285">
        <ele>1135.21557</ele>
        <time>2024-01-12T08:20:47Z</time>
      </trkpt>
      <trkpt lat="42.93461" lon="0.29287">
        <ele>1135.33689</ele>
        <time>2024-01-12T08:20:48Z</time>
      </trkpt>
      <trkpt lat="42.93461" lon="0.29289">
        <ele>1136.93539</ele>
        <time>2024-01-12T08:20:50Z</time>
      </trkpt>
      <trkpt lat="42.9346" lon="0.29291">
        <ele>1136.74443</ele>
        <time>2024-01-12T08:20:51Z</time>
      </trkpt>
      <trkpt lat="42.9346" lon="0.29293">
        <ele>1137.61988</ele>
        <time>2024-01-12T08:20:53Z</time>
      </trkpt>
      <trkpt lat="42.9346" lon="0.29295">
        <ele>1135.99733</ele>
        <time>2024-01-12T08:20:54Z</time>
      </trkpt>
      <trkpt lat="42.93459" lon="0.29296">
        <ele>1135.95185</ele>
        <time>2024-01-12T08:20:55Z</time>
      </trkpt>
      <trkpt lat="42.93458" lon="0.29297">
        <ele>1136.47347</ele>
        <time>2024-01-12T08:20:56Z</time>
      </trkpt>
      <trkpt lat="42.93457" lon="0.29299">
        <ele>1136.54069</ele>
        <time>2024-01-12T08:20:57Z</time>
      </trkpt>
      <trkpt lat="42.93457" lon="0.293">
        <ele>1135.99308</ele>
        <time>2024-01-12T08:20:58Z</time>
      </trkpt>
      <trkpt lat="42.93455" lon="0.29303">
        <ele>1135.99213</ele>
        <time>2024-01-12T08:21:00Z</time>
      </trkpt>
      <trkpt lat="42.93454" lon="0.29305">
        <ele>1136.37496</ele>
        <time>2024-01-12T08:21:02Z</time>
      </trkpt>
      <trkpt lat="42.93452" lon="0.29306">
        <ele>1136.0164</ele>
        <time>2024-01-12T08:21:04Z</time>
      </trkpt>
      <trkpt lat="42.93452" lon="0.29307">
        <ele>1136.44688</ele>
        <time>2024-01-12T08:21:05Z</time>
      </trkpt>
      <trkpt lat="42.93451" lon="0.29308">
        <ele>1133.7604</ele>
        <time>2024-01-12T08:21:08Z</time>
      </trkpt>
      <trkpt lat="42.9345" lon="0.29308">
        <ele>1132.17073</ele>
        <time>2024-01-12T08:21:19Z</time>
      </trkpt>
      <trkpt lat="42.93449" lon="0.29309">
        <ele>1133.23695</ele>
        <time>2024-01-12T08:21:20Z</time>
      </trkpt>
      <trkpt lat="42.93448" lon="0.2931">
        <ele>1131.34545</ele>
        <time>2024-01-12T08:21:21Z</time>
      </trkpt>
      <trkpt lat="42.93447" lon="0.29311">
        <ele>1132.17249</ele>
        <time>2024-01-12T08:21:23Z</time>
      </trkpt>
      <trkpt lat="42.93446" lon="0.29311">
        <ele>1132.62175</ele>
        <time>2024-01-12T08:21:24Z</time>
      </trkpt>
      <trkpt lat="42.93444" lon="0.29311">
        <ele>1133.36302</ele>
        <time>2024-01-12T08:21:26Z</time>
      </trkpt>
      <trkpt lat="42.93443" lon="0.29311">
        <ele>1133.49573</ele>
        <time>2024-01-12T08:21:27Z</time>
      </trkpt>
      <trkpt lat="42.93441" lon="0.29311">
        <ele>1134.08384</ele>
        <time>2024-01-12T08:21:29Z</time>
      </trkpt>
      <trkpt lat="42.9344" lon="0.2931">
        <ele>1136.07473</ele>
        <time>2024-01-12T08:21:30Z</time>
      </trkpt>
      <trkpt lat="42.93438" lon="0.2931">
        <ele>1137.48344</ele>
        <time>2024-01-12T08:21:32Z</time>
      </trkpt>
      <trkpt lat="42.93436" lon="0.2931">
        <ele>1136.80425</ele>
        <time>2024-01-12T08:21:35Z</time>
      </trkpt>
      <trkpt lat="42.93435" lon="0.2931">
        <ele>1136.69216</ele>
        <time>2024-01-12T08:21:36Z</time>
      </trkpt>
      <trkpt lat="42.93433" lon="0.2931">
        <ele>1136.41603</ele>
        <time>2024-01-12T08:21:38Z</time>
      </trkpt>
      <trkpt lat="42.93432" lon="0.2931">
        <ele>1136.36265</ele>
        <time>2024-01-12T08:21:40Z</time>
      </trkpt>
      <trkpt lat="42.93431" lon="0.2931">
        <ele>1136.29865</ele>
        <time>2024-01-12T08:21:41Z</time>
      </trkpt>
      <trkpt lat="42.93429" lon="0.29311">
        <ele>1132.64189</ele>
        <time>2024-01-12T08:21:43Z</time>
      </trkpt>
      <trkpt lat="42.93429" lon="0.29309">
        <ele>1134.77127</ele>
        <time>2024-01-12T08:21:50Z</time>
      </trkpt>
      <trkpt lat="42.9343" lon="0.2931">
        <ele>1135.469</ele>
        <time>2024-01-12T08:21:51Z</time>
      </trkpt>
      <trkpt lat="42.9343" lon="0.29312">
        <ele>1136.19611</ele>
        <time>2024-01-12T08:21:55Z</time>
      </trkpt>
      <trkpt lat="42.93431" lon="0.29312">
        <ele>1136.09363</ele>
        <time>2024-01-12T08:21:58Z</time>
      </trkpt>
      <trkpt lat="42.93433" lon="0.29313">
        <ele>1136.70118</ele>
        <time>2024-01-12T08:21:59Z</time>
      </trkpt>
      <trkpt lat="42.93435" lon="0.29312">
        <ele>1135.42722</ele>
        <time>2024-01-12T08:22:00Z</time>
      </trkpt>
      <trkpt lat="42.93437" lon="0.29313">
        <ele>1135.30417</ele>
        <time>2024-01-12T08:22:02Z</time>
      </trkpt>
      <trkpt lat="42.93438" lon="0.29313">
        <ele>1133.54016</ele>
        <time>2024-01-12T08:22:05Z</time>
      </trkpt>
      <trkpt lat="42.93439" lon="0.29313">
        <ele>1133.16001</ele>
        <time>2024-01-12T08:22:06Z</time>
      </trkpt>
      <trkpt lat="42.9344" lon="0.29312">
        <ele>1133.82505</ele>
        <time>2024-01-12T08:22:07Z</time>
      </trkpt>
      <trkpt lat="42.93443" lon="0.29313">
        <ele>1134.68459</ele>
        <time>2024-01-12T08:22:09Z</time>
      </trkpt>
      <trkpt lat="42.93444" lon="0.29313">
        <ele>1135.43241</ele>
        <time>2024-01-12T08:22:11Z</time>
      </trkpt>
      <trkpt lat="42.93446" lon="0.29314">
        <ele>1133.81295</ele>
        <time>2024-01-12T08:22:13Z</time>
      </trkpt>
      <trkpt lat="42.93447" lon="0.29315">
        <ele>1134.73633</ele>
        <time>2024-01-12T08:22:14Z</time>
      </trkpt>
      <trkpt lat="42.93448" lon="0.29316">
        <ele>1134.13176</ele>
        <time>2024-01-12T08:22:15Z</time>
      </trkpt>
      <trkpt lat="42.93449" lon="0.29317">
        <ele>1134.34693</ele>
        <time>2024-01-12T08:22:16Z</time>
      </trkpt>
      <trkpt lat="42.9345" lon="0.29318">
        <ele>1134.13542</ele>
        <time>2024-01-12T08:22:17Z</time>
      </trkpt>
      <trkpt lat="42.93451" lon="0.29319">
        <ele>1133.35701</ele>
        <time>2024-01-12T08:22:18Z</time>
      </trkpt>
      <trkpt lat="42.93451" lon="0.29321">
        <ele>1131.77852</ele>
        <time>2024-01-12T08:22:20Z</time>
      </trkpt>
      <trkpt lat="42.93451" lon="0.29322">
        <ele>1133.69522</ele>
        <time>2024-01-12T08:22:28Z</time>
      </trkpt>
      <trkpt lat="42.93453" lon="0.29323">
        <ele>1134.30413</ele>
        <time>2024-01-12T08:22:35Z</time>
      </trkpt>
      <trkpt lat="42.93453" lon="0.29324">
        <ele>1134.24319</ele>
        <time>2024-01-12T08:22:36Z</time>
      </trkpt>
      <trkpt lat="42.93454" lon="0.29324">
        <ele>1134.8823</ele>
        <time>2024-01-12T08:22:37Z</time>
      </trkpt>
      <trkpt lat="42.93455" lon="0.29326">
        <ele>1134.67165</ele>
        <time>2024-01-12T08:22:40Z</time>
      </trkpt>
      <trkpt lat="42.93457" lon="0.29327">
        <ele>1135.6808</ele>
        <time>2024-01-12T08:22:42Z</time>
      </trkpt>
      <trkpt lat="42.93457" lon="0.29328">
        <ele>1134.86487</ele>
        <time>2024-01-12T08:22:44Z</time>
      </trkpt>
      <trkpt lat="42.93459" lon="0.29328">
        <ele>1134.37205</ele>
        <time>2024-01-12T08:22:45Z</time>
      </trkpt>
      <trkpt lat="42.93459" lon="0.29328">
        <ele>1133.29726</ele>
        <time>2024-01-12T08:22:46Z</time>
      </trkpt>
      <trkpt lat="42.93461" lon="0.29328">
        <ele>1132.80509</ele>
        <time>2024-01-12T08:22:47Z</time>
      </trkpt>
      <trkpt lat="42.93462" lon="0.29328">
        <ele>1132.42935</ele>
        <time>2024-01-12T08:22:49Z</time>
      </trkpt>
      <trkpt lat="42.93463" lon="0.29328">
        <ele>1133.05641</ele>
        <time>2024-01-12T08:22:50Z</time>
      </trkpt>
      <trkpt lat="42.93465" lon="0.2933">
        <ele>1132.91147</ele>
        <time>2024-01-12T08:22:52Z</time>
      </trkpt>
      <trkpt lat="42.93466" lon="0.2933">
        <ele>1135.1555</ele>
        <time>2024-01-12T08:22:53Z</time>
      </trkpt>
      <trkpt lat="42.93466" lon="0.29329">
        <ele>1132.53953</ele>
        <time>2024-01-12T08:22:59Z</time>
      </trkpt>
      <trkpt lat="42.93466" lon="0.29328">
        <ele>1133.23981</ele>
        <time>2024-01-12T08:23:01Z</time>
      </trkpt>
      <trkpt lat="42.93465" lon="0.29327">
        <ele>1132.93951</ele>
        <time>2024-01-12T08:23:02Z</time>
      </trkpt>
      <trkpt lat="42.93463" lon="0.29327">
        <ele>1133.20108</ele>
        <time>2024-01-12T08:23:04Z</time>
      </trkpt>
      <trkpt lat="42.93462" lon="0.29328">
        <ele>1131.57018</ele>
        <time>2024-01-12T08:23:06Z</time>
      </trkpt>
      <trkpt lat="42.93461" lon="0.29327">
        <ele>1133.18236</ele>
        <time>2024-01-12T08:23:10Z</time>
      </trkpt>
      <trkpt lat="42.93459" lon="0.29326">
        <ele>1135.44096</ele>
        <time>2024-01-12T08:23:13Z</time>
      </trkpt>
      <trkpt lat="42.93458" lon="0.29327">
        <ele>1137.38261</ele>
        <time>2024-01-12T08:23:15Z</time>
      </trkpt>
      <trkpt lat="42.93457" lon="0.29326">
        <ele>1136.84949</ele>
        <time>2024-01-12T08:23:16Z</time>
      </trkpt>
      <trkpt lat="42.93456" lon="0.29324">
        <ele>1136.22044</ele>
        <time>2024-01-12T08:23:18Z</time>
      </trkpt>
      <trkpt lat="42.93455" lon="0.29324">
        <ele>1136.32783</ele>
        <time>2024-01-12T08:23:19Z</time>
      </trkpt>
      <trkpt lat="42.93454" lon="0.29323">
        <ele>1136.43868</ele>
        <time>2024-01-12T08:23:21Z</time>
      </trkpt>
      <trkpt lat="42.93453" lon="0.29322">
        <ele>1134.39121</ele>
        <time>2024-01-12T08:23:22Z</time>
      </trkpt>
      <trkpt lat="42.93452" lon="0.29321">
        <ele>1134.41849</ele>
        <time>2024-01-12T08:23:23Z</time>
      </trkpt>
      <trkpt lat="42.9345" lon="0.29321">
        <ele>1129.18763</ele>
        <time>2024-01-12T08:23:25Z</time>
      </trkpt>
      <trkpt lat="42.93449" lon="0.2932">
        <ele>1130.14806</ele>
        <time>2024-01-12T08:23:26Z</time>
      </trkpt>
      <trkpt lat="42.93448" lon="0.29319">
        <ele>1131.95992</ele>
        <time>2024-01-12T08:23:27Z</time>
      </trkpt>
      <trkpt lat="42.93447" lon="0.29318">
        <ele>1133.754</ele>
        <time>2024-01-12T08:23:29Z</time>
      </trkpt>
      <trkpt lat="42.93447" lon="0.29317">
        <ele>1135.09938</ele>
        <time>2024-01-12T08:23:31Z</time>
      </trkpt>
      <trkpt lat="42.93446" lon="0.29317">
        <ele>1134.509</ele>
        <time>2024-01-12T08:23:33Z</time>
      </trkpt>
      <trkpt lat="42.93447" lon="0.29318">
        <ele>1134.85371</ele>
        <time>2024-01-12T08:23:36Z</time>
      </trkpt>
      <trkpt lat="42.93447" lon="0.29316">
        <ele>1135.36481</ele>
        <time>2024-01-12T08:23:41Z</time>
      </trkpt>
      <trkpt lat="42.93446" lon="0.29315">
        <ele>1136.39932</ele>
        <time>2024-01-12T08:23:48Z</time>
      </trkpt>
      <trkpt lat="42.93446" lon="0.29313">
        <ele>1138.73702</ele>
        <time>2024-01-12T08:23:50Z</time>
      </trkpt>
      <trkpt lat="42.93445" lon="0.29312">
        <ele>1138.18568</ele>
        <time>2024-01-12T08:23:52Z</time>
      </trkpt>
      <trkpt lat="42.93443" lon="0.29312">
        <ele>1136.41701</ele>
        <time>2024-01-12T08:23:54Z</time>
      </trkpt>
      <trkpt lat="42.93442" lon="0.29311">
        <ele>1134.83001</ele>
        <time>2024-01-12T08:23:56Z</time>
      </trkpt>
      <trkpt lat="42.93441" lon="0.29311">
        <ele>1134.64074</ele>
        <time>2024-01-12T08:23:57Z</time>
      </trkpt>
      <trkpt lat="42.9344" lon="0.2931">
        <ele>1135.01974</ele>
        <time>2024-01-12T08:23:58Z</time>
      </trkpt>
      <trkpt lat="42.93439" lon="0.29311">
        <ele>1135.07353</ele>
        <time>2024-01-12T08:23:59Z</time>
      </trkpt>
      <trkpt lat="42.93437" lon="0.29311">
        <ele>1132.41446</ele>
        <time>2024-01-12T08:24:01Z</time>
      </trkpt>
      <trkpt lat="42.93435" lon="0.2931">
        <ele>1129.83156</ele>
        <time>2024-01-12T08:24:03Z</time>
      </trkpt>
      <trkpt lat="42.93434" lon="0.29311">
        <ele>1131.41786</ele>
        <time>2024-01-12T08:24:05Z</time>
      </trkpt>
      <trkpt lat="42.93433" lon="0.29312">
        <ele>1131.6206</ele>
        <time>2024-01-12T08:24:07Z</time>
      </trkpt>
      <trkpt lat="42.93431" lon="0.29312">
        <ele>1132.09454</ele>
        <time>2024-01-12T08:24:09Z</time>
      </trkpt>
      <trkpt lat="42.93429" lon="0.29312">
        <ele>1130.5005</ele>
        <time>2024-01-12T08:24:11Z</time>
      </trkpt>
      <trkpt lat="42.93427" lon="0.29312">
        <ele>1132.65018</ele>
        <time>2024-01-12T08:24:13Z</time>
      </trkpt>
      <trkpt lat="42.93427" lon="0.29312">
        <ele>1134.81528</ele>
        <time>2024-01-12T08:24:15Z</time>
      </trkpt>
      <trkpt lat="42.93425" lon="0.29312">
        <ele>1135.29535</ele>
        <time>2024-01-12T08:24:17Z</time>
      </trkpt>
      <trkpt lat="42.93424" lon="0.29312">
        <ele>1135.13759</ele>
        <time>2024-01-12T08:24:19Z</time>
      </trkpt>
      <trkpt lat="42.93422" lon="0.29311">
        <ele>1136.5058</ele>
        <time>2024-01-12T08:24:21Z</time>
      </trkpt>
      <trkpt lat="42.93421" lon="0.29311">
        <ele>1137.57482</ele>
        <time>2024-01-12T08:24:22Z</time>
      </trkpt>
      <trkpt lat="42.93419" lon="0.29311">
        <ele>1137.27299</ele>
        <time>2024-01-12T08:24:23Z</time>
      </trkpt>
      <trkpt lat="42.93418" lon="0.29311">
        <ele>1137.68162</ele>
        <time>2024-01-12T08:24:24Z</time>
      </trkpt>
      <trkpt lat="42.93416" lon="0.2931">
        <ele>1139.79238</ele>
        <time>2024-01-12T08:24:25Z</time>
      </trkpt>
      <trkpt lat="42.93415" lon="0.2931">
        <ele>1138.52544</ele>
        <time>2024-01-12T08:24:26Z</time>
      </trkpt>
      <trkpt lat="42.93414" lon="0.2931">
        <ele>1138.98996</ele>
        <time>2024-01-12T08:24:27Z</time>
      </trkpt>
      <trkpt lat="42.93412" lon="0.2931">
        <ele>1138.92799</ele>
        <time>2024-01-12T08:24:28Z</time>
      </trkpt>
      <trkpt lat="42.93411" lon="0.29311">
        <ele>1138.47514</ele>
        <time>2024-01-12T08:24:29Z</time>
      </trkpt>
      <trkpt lat="42.93409" lon="0.29311">
        <ele>1135.09337</ele>
        <time>2024-01-12T08:24:32Z</time>
      </trkpt>
      <trkpt lat="42.93407" lon="0.29312">
        <ele>1134.12601</ele>
        <time>2024-01-12T08:24:34Z</time>
      </trkpt>
      <trkpt lat="42.93406" lon="0.29313">
        <ele>1134.71376</ele>
        <time>2024-01-12T08:24:35Z</time>
      </trkpt>
      <trkpt lat="42.93405" lon="0.29313">
        <ele>1132.49413</ele>
        <time>2024-01-12T08:24:36Z</time>
      </trkpt>
      <trkpt lat="42.93403" lon="0.29314">
        <ele>1133.23028</ele>
        <time>2024-01-12T08:24:37Z</time>
      </trkpt>
      <trkpt lat="42.93401" lon="0.29314">
        <ele>1133.23111</ele>
        <time>2024-01-12T08:24:38Z</time>
      </trkpt>
      <trkpt lat="42.934" lon="0.29314">
        <ele>1134.61999</ele>
        <time>2024-01-12T08:24:39Z</time>
      </trkpt>
      <trkpt lat="42.93398" lon="0.29316">
        <ele>1135.20089</ele>
        <time>2024-01-12T08:24:41Z</time>
      </trkpt>
      <trkpt lat="42.93396" lon="0.29316">
        <ele>1135.61695</ele>
        <time>2024-01-12T08:24:42Z</time>
      </trkpt>
      <trkpt lat="42.93395" lon="0.29317">
        <ele>1136.80759</ele>
        <time>2024-01-12T08:24:43Z</time>
      </trkpt>
      <trkpt lat="42.93393" lon="0.29317">
        <ele>1138.75358</ele>
        <time>2024-01-12T08:24:45Z</time>
      </trkpt>
      <trkpt lat="42.93392" lon="0.29317">
        <ele>1140.10902</ele>
        <time>2024-01-12T08:24:46Z</time>
      </trkpt>
      <trkpt lat="42.93391" lon="0.29316">
        <ele>1139.18135</ele>
        <time>2024-01-12T08:24:47Z</time>
      </trkpt>
      <trkpt lat="42.9339" lon="0.29316">
        <ele>1139.62498</ele>
        <time>2024-01-12T08:24:48Z</time>
      </trkpt>
      <trkpt lat="42.93389" lon="0.29316">
        <ele>1139.73631</ele>
        <time>2024-01-12T08:24:49Z</time>
      </trkpt>
      <trkpt lat="42.93388" lon="0.29316">
        <ele>1139.37454</ele>
        <time>2024-01-12T08:24:50Z</time>
      </trkpt>
      <trkpt lat="42.93387" lon="0.29316">
        <ele>1139.64172</ele>
        <time>2024-01-12T08:24:51Z</time>
      </trkpt>
      <trkpt lat="42.93386" lon="0.29316">
        <ele>1139.92213</ele>
        <time>2024-01-12T08:24:52Z</time>
      </trkpt>
      <trkpt lat="42.93384" lon="0.29317">
        <ele>1139.97685</ele>
        <time>2024-01-12T08:24:53Z</time>
      </trkpt>
      <trkpt lat="42.93382" lon="0.29317">
        <ele>1138.11633</ele>
        <time>2024-01-12T08:24:55Z</time>
      </trkpt>
      <trkpt lat="42.9338" lon="0.29317">
        <ele>1139.00161</ele>
        <time>2024-01-12T08:24:57Z</time>
      </trkpt>
      <trkpt lat="42.93378" lon="0.29318">
        <ele>1137.91248</ele>
        <time>2024-01-12T08:24:59Z</time>
      </trkpt>
      <trkpt lat="42.93376" lon="0.29319">
        <ele>1139.5847</ele>
        <time>2024-01-12T08:25:01Z</time>
      </trkpt>
      <trkpt lat="42.93375" lon="0.29319">
        <ele>1140.50904</ele>
        <time>2024-01-12T08:25:02Z</time>
      </trkpt>
      <trkpt lat="42.93374" lon="0.29319">
        <ele>1140.78253</ele>
        <time>2024-01-12T08:25:03Z</time>
      </trkpt>
      <trkpt lat="42.93372" lon="0.2932">
        <ele>1134.8363</ele>
        <time>2024-01-12T08:25:04Z</time>
      </trkpt>
      <trkpt lat="42.93371" lon="0.29321">
        <ele>1139.0582</ele>
        <time>2024-01-12T08:25:06Z</time>
      </trkpt>
      <trkpt lat="42.9337" lon="0.29321">
        <ele>1139.98389</ele>
        <time>2024-01-12T08:25:08Z</time>
      </trkpt>
      <trkpt lat="42.93369" lon="0.29322">
        <ele>1137.07557</ele>
        <time>2024-01-12T08:25:10Z</time>
      </trkpt>
      <trkpt lat="42.93368" lon="0.29322">
        <ele>1139.65099</ele>
        <time>2024-01-12T08:25:12Z</time>
      </trkpt>
      <trkpt lat="42.93367" lon="0.29322">
        <ele>1138.26325</ele>
        <time>2024-01-12T08:25:13Z</time>
      </trkpt>
      <trkpt lat="42.93366" lon="0.29323">
        <ele>1139.87327</ele>
        <time>2024-01-12T08:25:14Z</time>
      </trkpt>
      <trkpt lat="42.93365" lon="0.29323">
        <ele>1142.69625</ele>
        <time>2024-01-12T08:25:16Z</time>
      </trkpt>
      <trkpt lat="42.93363" lon="0.29323">
        <ele>1143.99914</ele>
        <time>2024-01-12T08:25:18Z</time>
      </trkpt>
      <trkpt lat="42.93362" lon="0.29324">
        <ele>1142.42186</ele>
        <time>2024-01-12T08:25:19Z</time>
      </trkpt>
      <trkpt lat="42.93361" lon="0.29326">
        <ele>1143.92857</ele>
        <time>2024-01-12T08:25:20Z</time>
      </trkpt>
      <trkpt lat="42.93359" lon="0.29328">
        <ele>1143.92934</ele>
        <time>2024-01-12T08:25:22Z</time>
      </trkpt>
      <trkpt lat="42.93358" lon="0.29329">
        <ele>1144.35856</ele>
        <time>2024-01-12T08:25:23Z</time>
      </trkpt>
      <trkpt lat="42.93357" lon="0.2933">
        <ele>1144.94613</ele>
        <time>2024-01-12T08:25:24Z</time>
      </trkpt>
      <trkpt lat="42.93356" lon="0.29331">
        <ele>1144.10057</ele>
        <time>2024-01-12T08:25:25Z</time>
      </trkpt>
      <trkpt lat="42.93354" lon="0.29332">
        <ele>1144.62622</ele>
        <time>2024-01-12T08:25:27Z</time>
      </trkpt>
      <trkpt lat="42.93353" lon="0.29331">
        <ele>1140.0642</ele>
        <time>2024-01-12T08:25:28Z</time>
      </trkpt>
      <trkpt lat="42.93352" lon="0.29332">
        <ele>1143.35983</ele>
        <time>2024-01-12T08:25:30Z</time>
      </trkpt>
      <trkpt lat="42.9335" lon="0.29333">
        <ele>1141.6243</ele>
        <time>2024-01-12T08:25:31Z</time>
      </trkpt>
      <trkpt lat="42.93349" lon="0.29333">
        <ele>1142.96456</ele>
        <time>2024-01-12T08:25:32Z</time>
      </trkpt>
      <trkpt lat="42.93347" lon="0.29334">
        <ele>1142.71171</ele>
        <time>2024-01-12T08:25:33Z</time>
      </trkpt>
      <trkpt lat="42.93347" lon="0.29335">
        <ele>1142.60806</ele>
        <time>2024-01-12T08:25:34Z</time>
      </trkpt>
      <trkpt lat="42.93345" lon="0.29335">
        <ele>1145.59632</ele>
        <time>2024-01-12T08:25:36Z</time>
      </trkpt>
      <trkpt lat="42.93344" lon="0.29336">
        <ele>1143.94437</ele>
        <time>2024-01-12T08:25:37Z</time>
      </trkpt>
      <trkpt lat="42.93343" lon="0.29335">
        <ele>1144.29853</ele>
        <time>2024-01-12T08:25:38Z</time>
      </trkpt>
      <trkpt lat="42.93341" lon="0.29335">
        <ele>1144.34819</ele>
        <time>2024-01-12T08:25:40Z</time>
      </trkpt>
      <trkpt lat="42.93339" lon="0.29335">
        <ele>1143.94221</ele>
        <time>2024-01-12T08:25:41Z</time>
      </trkpt>
      <trkpt lat="42.93338" lon="0.29335">
        <ele>1143.50672</ele>
        <time>2024-01-12T08:25:42Z</time>
      </trkpt>
      <trkpt lat="42.93337" lon="0.29334">
        <ele>1143.35189</ele>
        <time>2024-01-12T08:25:43Z</time>
      </trkpt>
      <trkpt lat="42.93335" lon="0.29334">
        <ele>1142.36599</ele>
        <time>2024-01-12T08:25:44Z</time>
      </trkpt>
      <trkpt lat="42.93334" lon="0.29334">
        <ele>1141.92058</ele>
        <time>2024-01-12T08:25:45Z</time>
      </trkpt>
      <trkpt lat="42.93333" lon="0.29333">
        <ele>1141.6609</ele>
        <time>2024-01-12T08:25:47Z</time>
      </trkpt>
      <trkpt lat="42.93333" lon="0.29331">
        <ele>1142.38378</ele>
        <time>2024-01-12T08:25:48Z</time>
      </trkpt>
      <trkpt lat="42.93331" lon="0.2933">
        <ele>1143.41557</ele>
        <time>2024-01-12T08:25:49Z</time>
      </trkpt>
      <trkpt lat="42.9333" lon="0.29329">
        <ele>1144.08184</ele>
        <time>2024-01-12T08:25:50Z</time>
      </trkpt>
      <trkpt lat="42.93329" lon="0.29328">
        <ele>1142.06766</ele>
        <time>2024-01-12T08:25:51Z</time>
      </trkpt>
      <trkpt lat="42.93327" lon="0.29326">
        <ele>1143.95044</ele>
        <time>2024-01-12T08:25:52Z</time>
      </trkpt>
      <trkpt lat="42.93326" lon="0.29326">
        <ele>1139.57497</ele>
        <time>2024-01-12T08:25:53Z</time>
      </trkpt>
      <trkpt lat="42.93324" lon="0.29324">
        <ele>1148.7986</ele>
        <time>2024-01-12T08:25:54Z</time>
      </trkpt>
      <trkpt lat="42.93323" lon="0.29323">
        <ele>1144.98348</ele>
        <time>2024-01-12T08:25:57Z</time>
      </trkpt>
      <trkpt lat="42.93321" lon="0.29323">
        <ele>1144.30104</ele>
        <time>2024-01-12T08:25:59Z</time>
      </trkpt>
      <trkpt lat="42.9332" lon="0.29323">
        <ele>1142.87638</ele>
        <time>2024-01-12T08:26:00Z</time>
      </trkpt>
      <trkpt lat="42.93319" lon="0.29322">
        <ele>1139.91583</ele>
        <time>2024-01-12T08:26:05Z</time>
      </trkpt>
      <trkpt lat="42.93316" lon="0.29323">
        <ele>1140.69433</ele>
        <time>2024-01-12T08:26:07Z</time>
      </trkpt>
      <trkpt lat="42.93315" lon="0.29323">
        <ele>1140.8889</ele>
        <time>2024-01-12T08:26:08Z</time>
      </trkpt>
      <trkpt lat="42.93314" lon="0.29324">
        <ele>1140.72821</ele>
        <time>2024-01-12T08:26:09Z</time>
      </trkpt>
      <trkpt lat="42.93313" lon="0.29324">
        <ele>1140.9746</ele>
        <time>2024-01-12T08:26:11Z</time>
      </trkpt>
      <trkpt lat="42.93312" lon="0.29323">
        <ele>1140.97138</ele>
        <time>2024-01-12T08:26:12Z</time>
      </trkpt>
      <trkpt lat="42.93311" lon="0.29322">
        <ele>1141.4966</ele>
        <time>2024-01-12T08:26:14Z</time>
      </trkpt>
      <trkpt lat="42.93311" lon="0.2932">
        <ele>1142.46967</ele>
        <time>2024-01-12T08:26:16Z</time>
      </trkpt>
      <trkpt lat="42.93311" lon="0.29319">
        <ele>1140.35201</ele>
        <time>2024-01-12T08:26:18Z</time>
      </trkpt>
      <trkpt lat="42.93311" lon="0.29317">
        <ele>1141.61484</ele>
        <time>2024-01-12T08:26:19Z</time>
      </trkpt>
      <trkpt lat="42.93311" lon="0.29316">
        <ele>1141.98595</ele>
        <time>2024-01-12T08:26:20Z</time>
      </trkpt>
      <trkpt lat="42.93309" lon="0.29315">
        <ele>1141.71463</ele>
        <time>2024-01-12T08:26:21Z</time>
      </trkpt>
      <trkpt lat="42.93307" lon="0.29317">
        <ele>1142.93434</ele>
        <time>2024-01-12T08:26:23Z</time>
      </trkpt>
      <trkpt lat="42.93307" lon="0.29317">
        <ele>1143.41551</ele>
        <time>2024-01-12T08:26:24Z</time>
      </trkpt>
      <trkpt lat="42.93305" lon="0.29317">
        <ele>1143.71485</ele>
        <time>2024-01-12T08:26:25Z</time>
      </trkpt>
      <trkpt lat="42.93303" lon="0.29317">
        <ele>1143.15309</ele>
        <time>2024-01-12T08:26:26Z</time>
      </trkpt>
      <trkpt lat="42.93303" lon="0.29317">
        <ele>1143.31712</ele>
        <time>2024-01-12T08:26:27Z</time>
      </trkpt>
      <trkpt lat="42.93301" lon="0.29317">
        <ele>1144.16075</ele>
        <time>2024-01-12T08:26:28Z</time>
      </trkpt>
      <trkpt lat="42.933" lon="0.29316">
        <ele>1143.84037</ele>
        <time>2024-01-12T08:26:29Z</time>
      </trkpt>
      <trkpt lat="42.93298" lon="0.29316">
        <ele>1145.03461</ele>
        <time>2024-01-12T08:26:30Z</time>
      </trkpt>
      <trkpt lat="42.93297" lon="0.29316">
        <ele>1144.09789</ele>
        <time>2024-01-12T08:26:32Z</time>
      </trkpt>
      <trkpt lat="42.93296" lon="0.29316">
        <ele>1143.98258</ele>
        <time>2024-01-12T08:26:33Z</time>
      </trkpt>
      <trkpt lat="42.93294" lon="0.29315">
        <ele>1143.87944</ele>
        <time>2024-01-12T08:26:34Z</time>
      </trkpt>
      <trkpt lat="42.93292" lon="0.29315">
        <ele>1143.03932</ele>
        <time>2024-01-12T08:26:36Z</time>
      </trkpt>
      <trkpt lat="42.9329" lon="0.29315">
        <ele>1142.85697</ele>
        <time>2024-01-12T08:26:37Z</time>
      </trkpt>
      <trkpt lat="42.93288" lon="0.29315">
        <ele>1142.70064</ele>
        <time>2024-01-12T08:26:39Z</time>
      </trkpt>
      <trkpt lat="42.93286" lon="0.29315">
        <ele>1142.51341</ele>
        <time>2024-01-12T08:26:40Z</time>
      </trkpt>
      <trkpt lat="42.93285" lon="0.29314">
        <ele>1142.30595</ele>
        <time>2024-01-12T08:26:41Z</time>
      </trkpt>
      <trkpt lat="42.93283" lon="0.29314">
        <ele>1142.00211</ele>
        <time>2024-01-12T08:26:43Z</time>
      </trkpt>
      <trkpt lat="42.93281" lon="0.29314">
        <ele>1142.75742</ele>
        <time>2024-01-12T08:26:45Z</time>
      </trkpt>
      <trkpt lat="42.9328" lon="0.29314">
        <ele>1141.66817</ele>
        <time>2024-01-12T08:26:46Z</time>
      </trkpt>
      <trkpt lat="42.93278" lon="0.29313">
        <ele>1142.86917</ele>
        <time>2024-01-12T08:26:48Z</time>
      </trkpt>
      <trkpt lat="42.93277" lon="0.29312">
        <ele>1143.04878</ele>
        <time>2024-01-12T08:26:49Z</time>
      </trkpt>
      <trkpt lat="42.93274" lon="0.29312">
        <ele>1144.80592</ele>
        <time>2024-01-12T08:26:51Z</time>
      </trkpt>
      <trkpt lat="42.93274" lon="0.29312">
        <ele>1144.08692</ele>
        <time>2024-01-12T08:26:52Z</time>
      </trkpt>
      <trkpt lat="42.93271" lon="0.29312">
        <ele>1143.84615</ele>
        <time>2024-01-12T08:26:54Z</time>
      </trkpt>
      <trkpt lat="42.9327" lon="0.29312">
        <ele>1142.55127</ele>
        <time>2024-01-12T08:26:55Z</time>
      </trkpt>
      <trkpt lat="42.93269" lon="0.29313">
        <ele>1143.82419</ele>
        <time>2024-01-12T08:26:56Z</time>
      </trkpt>
      <trkpt lat="42.93268" lon="0.29314">
        <ele>1143.27422</ele>
        <time>2024-01-12T08:26:57Z</time>
      </trkpt>
      <trkpt lat="42.93267" lon="0.29315">
        <ele>1143.62371</ele>
        <time>2024-01-12T08:26:58Z</time>
      </trkpt>
      <trkpt lat="42.93266" lon="0.29315">
        <ele>1142.85781</ele>
        <time>2024-01-12T08:26:59Z</time>
      </trkpt>
      <trkpt lat="42.93265" lon="0.29317">
        <ele>1141.41268</ele>
        <time>2024-01-12T08:27:01Z</time>
      </trkpt>
      <trkpt lat="42.93265" lon="0.29318">
        <ele>1142.90032</ele>
        <time>2024-01-12T08:27:03Z</time>
      </trkpt>
      <trkpt lat="42.93266" lon="0.2932">
        <ele>1143.69072</ele>
        <time>2024-01-12T08:27:05Z</time>
      </trkpt>
      <trkpt lat="42.93266" lon="0.29321">
        <ele>1142.87022</ele>
        <time>2024-01-12T08:27:10Z</time>
      </trkpt>
      <trkpt lat="42.93266" lon="0.29323">
        <ele>1143.46346</ele>
        <time>2024-01-12T08:27:12Z</time>
      </trkpt>
      <trkpt lat="42.93265" lon="0.29323">
        <ele>1143.99556</ele>
        <time>2024-01-12T08:27:17Z</time>
      </trkpt>
      <trkpt lat="42.93264" lon="0.29324">
        <ele>1144.33842</ele>
        <time>2024-01-12T08:27:19Z</time>
      </trkpt>
      <trkpt lat="42.93263" lon="0.29324">
        <ele>1143.15306</ele>
        <time>2024-01-12T08:27:21Z</time>
      </trkpt>
      <trkpt lat="42.93262" lon="0.29325">
        <ele>1143.97115</ele>
        <time>2024-01-12T08:27:22Z</time>
      </trkpt>
      <trkpt lat="42.93261" lon="0.29325">
        <ele>1144.44023</ele>
        <time>2024-01-12T08:27:24Z</time>
      </trkpt>
      <trkpt lat="42.93259" lon="0.29326">
        <ele>1145.15932</ele>
        <time>2024-01-12T08:27:25Z</time>
      </trkpt>
      <trkpt lat="42.93258" lon="0.29326">
        <ele>1144.75967</ele>
        <time>2024-01-12T08:27:26Z</time>
      </trkpt>
      <trkpt lat="42.93256" lon="0.29327">
        <ele>1145.72032</ele>
        <time>2024-01-12T08:27:28Z</time>
      </trkpt>
      <trkpt lat="42.93255" lon="0.29329">
        <ele>1146.71582</ele>
        <time>2024-01-12T08:27:30Z</time>
      </trkpt>
      <trkpt lat="42.93255" lon="0.2933">
        <ele>1146.71914</ele>
        <time>2024-01-12T08:27:31Z</time>
      </trkpt>
      <trkpt lat="42.93255" lon="0.29332">
        <ele>1146.76755</ele>
        <time>2024-01-12T08:27:32Z</time>
      </trkpt>
      <trkpt lat="42.93256" lon="0.29334">
        <ele>1145.66155</ele>
        <time>2024-01-12T08:27:33Z</time>
      </trkpt>
      <trkpt lat="42.93256" lon="0.29336">
        <ele>1145.9336</ele>
        <time>2024-01-12T08:27:34Z</time>
      </trkpt>
      <trkpt lat="42.93257" lon="0.29338">
        <ele>1144.6848</ele>
        <time>2024-01-12T08:27:36Z</time>
      </trkpt>
      <trkpt lat="42.93257" lon="0.2934">
        <ele>1144.95098</ele>
        <time>2024-01-12T08:27:37Z</time>
      </trkpt>
      <trkpt lat="42.93257" lon="0.29341">
        <ele>1144.92355</ele>
        <time>2024-01-12T08:27:38Z</time>
      </trkpt>
      <trkpt lat="42.93258" lon="0.29343">
        <ele>1146.01258</ele>
        <time>2024-01-12T08:27:39Z</time>
      </trkpt>
      <trkpt lat="42.93258" lon="0.29344">
        <ele>1146.67117</ele>
        <time>2024-01-12T08:27:40Z</time>
      </trkpt>
      <trkpt lat="42.93259" lon="0.29346">
        <ele>1147.33173</ele>
        <time>2024-01-12T08:27:42Z</time>
      </trkpt>
      <trkpt lat="42.9326" lon="0.29348">
        <ele>1146.01445</ele>
        <time>2024-01-12T08:27:44Z</time>
      </trkpt>
      <trkpt lat="42.9326" lon="0.2935">
        <ele>1146.40769</ele>
        <time>2024-01-12T08:27:45Z</time>
      </trkpt>
      <trkpt lat="42.9326" lon="0.29351">
        <ele>1147.31467</ele>
        <time>2024-01-12T08:27:46Z</time>
      </trkpt>
      <trkpt lat="42.93261" lon="0.29353">
        <ele>1148.21034</ele>
        <time>2024-01-12T08:27:47Z</time>
      </trkpt>
      <trkpt lat="42.93261" lon="0.29354">
        <ele>1147.58081</ele>
        <time>2024-01-12T08:27:48Z</time>
      </trkpt>
      <trkpt lat="42.93263" lon="0.29356">
        <ele>1147.44524</ele>
        <time>2024-01-12T08:27:50Z</time>
      </trkpt>
      <trkpt lat="42.93263" lon="0.29357">
        <ele>1146.88325</ele>
        <time>2024-01-12T08:27:51Z</time>
      </trkpt>
      <trkpt lat="42.93264" lon="0.29358">
        <ele>1148.13615</ele>
        <time>2024-01-12T08:27:52Z</time>
      </trkpt>
      <trkpt lat="42.93265" lon="0.29359">
        <ele>1147.40963</ele>
        <time>2024-01-12T08:27:54Z</time>
      </trkpt>
      <trkpt lat="42.93266" lon="0.2936">
        <ele>1147.03565</ele>
        <time>2024-01-12T08:27:55Z</time>
      </trkpt>
      <trkpt lat="42.93268" lon="0.29361">
        <ele>1147.3302</ele>
        <time>2024-01-12T08:27:56Z</time>
      </trkpt>
      <trkpt lat="42.93269" lon="0.29362">
        <ele>1145.56918</ele>
        <time>2024-01-12T08:27:58Z</time>
      </trkpt>
      <trkpt lat="42.9327" lon="0.29363">
        <ele>1142.45089</ele>
        <time>2024-01-12T08:28:00Z</time>
      </trkpt>
      <trkpt lat="42.9327" lon="0.29365">
        <ele>1143.93846</ele>
        <time>2024-01-12T08:28:02Z</time>
      </trkpt>
      <trkpt lat="42.93271" lon="0.29367">
        <ele>1144.40936</ele>
        <time>2024-01-12T08:28:03Z</time>
      </trkpt>
      <trkpt lat="42.93271" lon="0.29368">
        <ele>1143.76937</ele>
        <time>2024-01-12T08:28:04Z</time>
      </trkpt>
      <trkpt lat="42.93272" lon="0.2937">
        <ele>1143.80995</ele>
        <time>2024-01-12T08:28:05Z</time>
      </trkpt>
      <trkpt lat="42.93272" lon="0.29371">
        <ele>1144.32744</ele>
        <time>2024-01-12T08:28:06Z</time>
      </trkpt>
      <trkpt lat="42.93273" lon="0.29373">
        <ele>1145.67473</ele>
        <time>2024-01-12T08:28:07Z</time>
      </trkpt>
      <trkpt lat="42.93274" lon="0.29374">
        <ele>1146.12674</ele>
        <time>2024-01-12T08:28:08Z</time>
      </trkpt>
      <trkpt lat="42.93275" lon="0.29376">
        <ele>1145.95354</ele>
        <time>2024-01-12T08:28:10Z</time>
      </trkpt>
      <trkpt lat="42.93276" lon="0.29377">
        <ele>1146.85333</ele>
        <time>2024-01-12T08:28:11Z</time>
      </trkpt>
      <trkpt lat="42.93276" lon="0.29378">
        <ele>1147.77342</ele>
        <time>2024-01-12T08:28:12Z</time>
      </trkpt>
      <trkpt lat="42.93277" lon="0.2938">
        <ele>1147.51542</ele>
        <time>2024-01-12T08:28:14Z</time>
      </trkpt>
      <trkpt lat="42.93278" lon="0.29381">
        <ele>1146.86581</ele>
        <time>2024-01-12T08:28:15Z</time>
      </trkpt>
      <trkpt lat="42.93278" lon="0.29383">
        <ele>1147.4665</ele>
        <time>2024-01-12T08:28:16Z</time>
      </trkpt>
      <trkpt lat="42.9328" lon="0.29384">
        <ele>1148.41917</ele>
        <time>2024-01-12T08:28:18Z</time>
      </trkpt>
      <trkpt lat="42.93281" lon="0.29385">
        <ele>1148.08607</ele>
        <time>2024-01-12T08:28:20Z</time>
      </trkpt>
      <trkpt lat="42.93283" lon="0.29385">
        <ele>1148.01511</ele>
        <time>2024-01-12T08:28:21Z</time>
      </trkpt>
      <trkpt lat="42.93284" lon="0.29386">
        <ele>1147.72525</ele>
        <time>2024-01-12T08:28:22Z</time>
      </trkpt>
      <trkpt lat="42.93285" lon="0.29387">
        <ele>1144.89826</ele>
        <time>2024-01-12T08:28:23Z</time>
      </trkpt>
      <trkpt lat="42.93286" lon="0.29387">
        <ele>1145.54824</ele>
        <time>2024-01-12T08:28:24Z</time>
      </trkpt>
      <trkpt lat="42.93287" lon="0.29389">
        <ele>1146.2891</ele>
        <time>2024-01-12T08:28:25Z</time>
      </trkpt>
      <trkpt lat="42.93288" lon="0.29387">
        <ele>1145.58814</ele>
        <time>2024-01-12T08:28:26Z</time>
      </trkpt>
      <trkpt lat="42.93289" lon="0.29387">
        <ele>1144.24863</ele>
        <time>2024-01-12T08:28:29Z</time>
      </trkpt>
      <trkpt lat="42.93292" lon="0.29388">
        <ele>1146.05531</ele>
        <time>2024-01-12T08:28:31Z</time>
      </trkpt>
      <trkpt lat="42.93293" lon="0.29389">
        <ele>1146.25534</ele>
        <time>2024-01-12T08:28:32Z</time>
      </trkpt>
      <trkpt lat="42.93294" lon="0.29389">
        <ele>1146.106</ele>
        <time>2024-01-12T08:28:33Z</time>
      </trkpt>
      <trkpt lat="42.93295" lon="0.2939">
        <ele>1146.01719</ele>
        <time>2024-01-12T08:28:34Z</time>
      </trkpt>
      <trkpt lat="42.93296" lon="0.29391">
        <ele>1146.18447</ele>
        <time>2024-01-12T08:28:35Z</time>
      </trkpt>
      <trkpt lat="42.93297" lon="0.29391">
        <ele>1147.08639</ele>
        <time>2024-01-12T08:28:36Z</time>
      </trkpt>
      <trkpt lat="42.93299" lon="0.29391">
        <ele>1146.47916</ele>
        <time>2024-01-12T08:28:38Z</time>
      </trkpt>
      <trkpt lat="42.933" lon="0.29392">
        <ele>1145.99317</ele>
        <time>2024-01-12T08:28:39Z</time>
      </trkpt>
      <trkpt lat="42.93301" lon="0.29392">
        <ele>1146.40616</ele>
        <time>2024-01-12T08:28:40Z</time>
      </trkpt>
      <trkpt lat="42.93303" lon="0.29394">
        <ele>1144.94688</ele>
        <time>2024-01-12T08:28:42Z</time>
      </trkpt>
      <trkpt lat="42.93304" lon="0.29394">
        <ele>1145.32689</ele>
        <time>2024-01-12T08:28:43Z</time>
      </trkpt>
      <trkpt lat="42.93305" lon="0.29395">
        <ele>1145.09641</ele>
        <time>2024-01-12T08:28:44Z</time>
      </trkpt>
      <trkpt lat="42.93306" lon="0.29396">
        <ele>1145.02473</ele>
        <time>2024-01-12T08:28:45Z</time>
      </trkpt>
      <trkpt lat="42.93307" lon="0.29397">
        <ele>1145.35353</ele>
        <time>2024-01-12T08:28:46Z</time>
      </trkpt>
      <trkpt lat="42.93308" lon="0.29398">
        <ele>1145.71877</ele>
        <time>2024-01-12T08:28:47Z</time>
      </trkpt>
      <trkpt lat="42.93309" lon="0.294">
        <ele>1144.09981</ele>
        <time>2024-01-12T08:28:49Z</time>
      </trkpt>
      <trkpt lat="42.93311" lon="0.29401">
        <ele>1143.70473</ele>
        <time>2024-01-12T08:28:50Z</time>
      </trkpt>
      <trkpt lat="42.93312" lon="0.29402">
        <ele>1144.11535</ele>
        <time>2024-01-12T08:28:51Z</time>
      </trkpt>
      <trkpt lat="42.93313" lon="0.29403">
        <ele>1145.13152</ele>
        <time>2024-01-12T08:28:52Z</time>
      </trkpt>
      <trkpt lat="42.93314" lon="0.29403">
        <ele>1144.74024</ele>
        <time>2024-01-12T08:28:53Z</time>
      </trkpt>
      <trkpt lat="42.93315" lon="0.29404">
        <ele>1145.28905</ele>
        <time>2024-01-12T08:28:54Z</time>
      </trkpt>
      <trkpt lat="42.93316" lon="0.29405">
        <ele>1145.84195</ele>
        <time>2024-01-12T08:28:55Z</time>
      </trkpt>
      <trkpt lat="42.93317" lon="0.29406">
        <ele>1145.51904</ele>
        <time>2024-01-12T08:28:56Z</time>
      </trkpt>
      <trkpt lat="42.93318" lon="0.29408">
        <ele>1145.883</ele>
        <time>2024-01-12T08:28:57Z</time>
      </trkpt>
      <trkpt lat="42.93319" lon="0.29409">
        <ele>1145.65286</ele>
        <time>2024-01-12T08:28:58Z</time>
      </trkpt>
      <trkpt lat="42.9332" lon="0.2941">
        <ele>1145.78332</ele>
        <time>2024-01-12T08:28:59Z</time>
      </trkpt>
      <trkpt lat="42.93322" lon="0.29411">
        <ele>1145.40682</ele>
        <time>2024-01-12T08:29:01Z</time>
      </trkpt>
      <trkpt lat="42.93322" lon="0.29413">
        <ele>1145.64658</ele>
        <time>2024-01-12T08:29:02Z</time>
      </trkpt>
      <trkpt lat="42.93323" lon="0.29414">
        <ele>1145.47626</ele>
        <time>2024-01-12T08:29:03Z</time>
      </trkpt>
      <trkpt lat="42.93324" lon="0.29415">
        <ele>1144.68667</ele>
        <time>2024-01-12T08:29:04Z</time>
      </trkpt>
      <trkpt lat="42.93326" lon="0.29416">
        <ele>1144.53712</ele>
        <time>2024-01-12T08:29:06Z</time>
      </trkpt>
      <trkpt lat="42.93327" lon="0.29417">
        <ele>1144.75428</ele>
        <time>2024-01-12T08:29:07Z</time>
      </trkpt>
      <trkpt lat="42.93328" lon="0.29419">
        <ele>1144.91976</ele>
        <time>2024-01-12T08:29:08Z</time>
      </trkpt>
      <trkpt lat="42.93329" lon="0.2942">
        <ele>1145.04421</ele>
        <time>2024-01-12T08:29:09Z</time>
      </trkpt>
      <trkpt lat="42.9333" lon="0.2942">
        <ele>1145.46367</ele>
        <time>2024-01-12T08:29:10Z</time>
      </trkpt>
      <trkpt lat="42.93331" lon="0.29422">
        <ele>1145.10946</ele>
        <time>2024-01-12T08:29:11Z</time>
      </trkpt>
      <trkpt lat="42.93332" lon="0.29424">
        <ele>1144.77702</ele>
        <time>2024-01-12T08:29:12Z</time>
      </trkpt>
      <trkpt lat="42.93333" lon="0.29425">
        <ele>1144.69758</ele>
        <time>2024-01-12T08:29:13Z</time>
      </trkpt>
      <trkpt lat="42.93334" lon="0.29426">
        <ele>1144.93953</ele>
        <time>2024-01-12T08:29:14Z</time>
      </trkpt>
      <trkpt lat="42.93335" lon="0.29428">
        <ele>1144.42827</ele>
        <time>2024-01-12T08:29:15Z</time>
      </trkpt>
      <trkpt lat="42.93336" lon="0.29429">
        <ele>1144.15955</ele>
        <time>2024-01-12T08:29:16Z</time>
      </trkpt>
      <trkpt lat="42.93338" lon="0.29431">
        <ele>1144.52977</ele>
        <time>2024-01-12T08:29:18Z</time>
      </trkpt>
      <trkpt lat="42.93339" lon="0.29432">
        <ele>1144.05336</ele>
        <time>2024-01-12T08:29:19Z</time>
      </trkpt>
      <trkpt lat="42.93339" lon="0.29434">
        <ele>1143.93571</ele>
        <time>2024-01-12T08:29:20Z</time>
      </trkpt>
      <trkpt lat="42.9334" lon="0.29435">
        <ele>1144.59412</ele>
        <time>2024-01-12T08:29:21Z</time>
      </trkpt>
      <trkpt lat="42.93343" lon="0.29437">
        <ele>1144.49948</ele>
        <time>2024-01-12T08:29:22Z</time>
      </trkpt>
      <trkpt lat="42.93344" lon="0.29437">
        <ele>1144.38288</ele>
        <time>2024-01-12T08:29:23Z</time>
      </trkpt>
      <trkpt lat="42.93345" lon="0.29438">
        <ele>1143.96378</ele>
        <time>2024-01-12T08:29:24Z</time>
      </trkpt>
      <trkpt lat="42.93345" lon="0.29439">
        <ele>1143.7307</ele>
        <time>2024-01-12T08:29:26Z</time>
      </trkpt>
      <trkpt lat="42.93346" lon="0.2944">
        <ele>1143.94716</ele>
        <time>2024-01-12T08:29:27Z</time>
      </trkpt>
      <trkpt lat="42.93348" lon="0.29442">
        <ele>1142.61541</ele>
        <time>2024-01-12T08:29:28Z</time>
      </trkpt>
      <trkpt lat="42.93349" lon="0.29444">
        <ele>1143.37582</ele>
        <time>2024-01-12T08:29:30Z</time>
      </trkpt>
      <trkpt lat="42.9335" lon="0.29444">
        <ele>1143.31006</ele>
        <time>2024-01-12T08:29:31Z</time>
      </trkpt>
      <trkpt lat="42.93351" lon="0.29446">
        <ele>1144.28397</ele>
        <time>2024-01-12T08:29:33Z</time>
      </trkpt>
      <trkpt lat="42.93352" lon="0.29447">
        <ele>1144.02524</ele>
        <time>2024-01-12T08:29:35Z</time>
      </trkpt>
      <trkpt lat="42.93353" lon="0.29448">
        <ele>1143.53774</ele>
        <time>2024-01-12T08:29:36Z</time>
      </trkpt>
      <trkpt lat="42.93354" lon="0.29449">
        <ele>1143.98474</ele>
        <time>2024-01-12T08:29:37Z</time>
      </trkpt>
      <trkpt lat="42.93355" lon="0.29451">
        <ele>1143.20575</ele>
        <time>2024-01-12T08:29:38Z</time>
      </trkpt>
      <trkpt lat="42.93357" lon="0.29452">
        <ele>1143.62188</ele>
        <time>2024-01-12T08:29:39Z</time>
      </trkpt>
      <trkpt lat="42.93358" lon="0.29453">
        <ele>1143.83358</ele>
        <time>2024-01-12T08:29:40Z</time>
      </trkpt>
      <trkpt lat="42.93359" lon="0.29454">
        <ele>1143.31902</ele>
        <time>2024-01-12T08:29:41Z</time>
      </trkpt>
      <trkpt lat="42.93359" lon="0.29455">
        <ele>1143.1661</ele>
        <time>2024-01-12T08:29:42Z</time>
      </trkpt>
      <trkpt lat="42.9336" lon="0.29455">
        <ele>1142.96499</ele>
        <time>2024-01-12T08:29:43Z</time>
      </trkpt>
      <trkpt lat="42.9336" lon="0.29457">
        <ele>1142.09693</ele>
        <time>2024-01-12T08:29:44Z</time>
      </trkpt>
      <trkpt lat="42.93362" lon="0.29458">
        <ele>1141.58686</ele>
        <time>2024-01-12T08:29:45Z</time>
      </trkpt>
      <trkpt lat="42.93362" lon="0.2946">
        <ele>1140.71692</ele>
        <time>2024-01-12T08:29:46Z</time>
      </trkpt>
      <trkpt lat="42.93363" lon="0.29462">
        <ele>1140.70952</ele>
        <time>2024-01-12T08:29:47Z</time>
      </trkpt>
      <trkpt lat="42.93365" lon="0.29463">
        <ele>1140.65879</ele>
        <time>2024-01-12T08:29:49Z</time>
      </trkpt>
      <trkpt lat="42.93366" lon="0.29464">
        <ele>1140.83168</ele>
        <time>2024-01-12T08:29:50Z</time>
      </trkpt>
      <trkpt lat="42.93367" lon="0.29465">
        <ele>1140.13377</ele>
        <time>2024-01-12T08:29:51Z</time>
      </trkpt>
      <trkpt lat="42.93368" lon="0.29466">
        <ele>1139.74728</ele>
        <time>2024-01-12T08:29:52Z</time>
      </trkpt>
      <trkpt lat="42.93368" lon="0.29467">
        <ele>1139.47811</ele>
        <time>2024-01-12T08:29:53Z</time>
      </trkpt>
      <trkpt lat="42.93369" lon="0.29468">
        <ele>1139.22341</ele>
        <time>2024-01-12T08:29:54Z</time>
      </trkpt>
      <trkpt lat="42.9337" lon="0.29469">
        <ele>1139.32263</ele>
        <time>2024-01-12T08:29:55Z</time>
      </trkpt>
      <trkpt lat="42.9337" lon="0.2947">
        <ele>1138.26496</ele>
        <time>2024-01-12T08:29:56Z</time>
      </trkpt>
      <trkpt lat="42.9337" lon="0.29473">
        <ele>1138.40128</ele>
        <time>2024-01-12T08:29:58Z</time>
      </trkpt>
      <trkpt lat="42.93372" lon="0.29474">
        <ele>1138.60916</ele>
        <time>2024-01-12T08:29:59Z</time>
      </trkpt>
      <trkpt lat="42.93372" lon="0.29475">
        <ele>1137.16266</ele>
        <time>2024-01-12T08:30:00Z</time>
      </trkpt>
      <trkpt lat="42.93373" lon="0.29477">
        <ele>1137.64446</ele>
        <time>2024-01-12T08:30:01Z</time>
      </trkpt>
      <trkpt lat="42.93374" lon="0.29478">
        <ele>1138.37012</ele>
        <time>2024-01-12T08:30:02Z</time>
      </trkpt>
      <trkpt lat="42.93374" lon="0.29481">
        <ele>1137.87528</ele>
        <time>2024-01-12T08:30:04Z</time>
      </trkpt>
      <trkpt lat="42.93374" lon="0.29483">
        <ele>1138.16897</ele>
        <time>2024-01-12T08:30:05Z</time>
      </trkpt>
      <trkpt lat="42.93375" lon="0.29484">
        <ele>1138.28649</ele>
        <time>2024-01-12T08:30:06Z</time>
      </trkpt>
      <trkpt lat="42.93375" lon="0.29485">
        <ele>1137.4852</ele>
        <time>2024-01-12T08:30:07Z</time>
      </trkpt>
      <trkpt lat="42.93375" lon="0.29486">
        <ele>1138.20716</ele>
        <time>2024-01-12T08:30:08Z</time>
      </trkpt>
      <trkpt lat="42.93376" lon="0.29489">
        <ele>1138.54527</ele>
        <time>2024-01-12T08:30:09Z</time>
      </trkpt>
      <trkpt lat="42.93376" lon="0.29491">
        <ele>1138.47835</ele>
        <time>2024-01-12T08:30:11Z</time>
      </trkpt>
      <trkpt lat="42.93376" lon="0.29492">
        <ele>1138.30289</ele>
        <time>2024-01-12T08:30:12Z</time>
      </trkpt>
      <trkpt lat="42.93376" lon="0.29494">
        <ele>1137.25637</ele>
        <time>2024-01-12T08:30:13Z</time>
      </trkpt>
      <trkpt lat="42.93377" lon="0.29496">
        <ele>1137.63149</ele>
        <time>2024-01-12T08:30:14Z</time>
      </trkpt>
      <trkpt lat="42.93377" lon="0.29498">
        <ele>1138.37496</ele>
        <time>2024-01-12T08:30:16Z</time>
      </trkpt>
      <trkpt lat="42.93377" lon="0.29499">
        <ele>1137.90772</ele>
        <time>2024-01-12T08:30:17Z</time>
      </trkpt>
      <trkpt lat="42.93377" lon="0.29501">
        <ele>1137.87964</ele>
        <time>2024-01-12T08:30:18Z</time>
      </trkpt>
      <trkpt lat="42.93377" lon="0.29505">
        <ele>1137.81117</ele>
        <time>2024-01-12T08:30:20Z</time>
      </trkpt>
      <trkpt lat="42.93377" lon="0.29506">
        <ele>1137.79171</ele>
        <time>2024-01-12T08:30:21Z</time>
      </trkpt>
      <trkpt lat="42.93376" lon="0.29508">
        <ele>1137.50197</ele>
        <time>2024-01-12T08:30:22Z</time>
      </trkpt>
      <trkpt lat="42.93376" lon="0.29509">
        <ele>1138.19572</ele>
        <time>2024-01-12T08:30:23Z</time>
      </trkpt>
      <trkpt lat="42.93376" lon="0.29511">
        <ele>1137.87369</ele>
        <time>2024-01-12T08:30:24Z</time>
      </trkpt>
      <trkpt lat="42.93375" lon="0.29512">
        <ele>1137.7879</ele>
        <time>2024-01-12T08:30:25Z</time>
      </trkpt>
      <trkpt lat="42.93375" lon="0.29513">
        <ele>1138.55932</ele>
        <time>2024-01-12T08:30:26Z</time>
      </trkpt>
      <trkpt lat="42.93375" lon="0.29515">
        <ele>1138.43567</ele>
        <time>2024-01-12T08:30:27Z</time>
      </trkpt>
      <trkpt lat="42.93375" lon="0.29516">
        <ele>1137.53047</ele>
        <time>2024-01-12T08:30:28Z</time>
      </trkpt>
      <trkpt lat="42.93375" lon="0.29518">
        <ele>1138.12036</ele>
        <time>2024-01-12T08:30:29Z</time>
      </trkpt>
      <trkpt lat="42.93374" lon="0.29519">
        <ele>1138.22796</ele>
        <time>2024-01-12T08:30:30Z</time>
      </trkpt>
      <trkpt lat="42.93374" lon="0.2952">
        <ele>1138.43951</ele>
        <time>2024-01-12T08:30:31Z</time>
      </trkpt>
      <trkpt lat="42.93373" lon="0.29521">
        <ele>1138.55606</ele>
        <time>2024-01-12T08:30:32Z</time>
      </trkpt>
      <trkpt lat="42.93373" lon="0.29523">
        <ele>1138.30165</ele>
        <time>2024-01-12T08:30:33Z</time>
      </trkpt>
      <trkpt lat="42.93372" lon="0.29524">
        <ele>1138.21018</ele>
        <time>2024-01-12T08:30:34Z</time>
      </trkpt>
      <trkpt lat="42.93371" lon="0.29525">
        <ele>1137.81027</ele>
        <time>2024-01-12T08:30:35Z</time>
      </trkpt>
      <trkpt lat="42.93371" lon="0.29526">
        <ele>1138.53057</ele>
        <time>2024-01-12T08:30:36Z</time>
      </trkpt>
      <trkpt lat="42.9337" lon="0.29528">
        <ele>1138.33181</ele>
        <time>2024-01-12T08:30:39Z</time>
      </trkpt>
      <trkpt lat="42.93369" lon="0.29529">
        <ele>1137.90417</ele>
        <time>2024-01-12T08:30:40Z</time>
      </trkpt>
      <trkpt lat="42.93367" lon="0.2953">
        <ele>1139.40344</ele>
        <time>2024-01-12T08:30:42Z</time>
      </trkpt>
      <trkpt lat="42.93366" lon="0.29532">
        <ele>1139.18856</ele>
        <time>2024-01-12T08:30:43Z</time>
      </trkpt>
      <trkpt lat="42.93366" lon="0.29533">
        <ele>1138.85874</ele>
        <time>2024-01-12T08:30:44Z</time>
      </trkpt>
      <trkpt lat="42.93365" lon="0.29534">
        <ele>1138.90998</ele>
        <time>2024-01-12T08:30:45Z</time>
      </trkpt>
      <trkpt lat="42.93364" lon="0.29537">
        <ele>1139.2826</ele>
        <time>2024-01-12T08:30:47Z</time>
      </trkpt>
      <trkpt lat="42.93363" lon="0.29539">
        <ele>1139.21995</ele>
        <time>2024-01-12T08:30:49Z</time>
      </trkpt>
      <trkpt lat="42.93362" lon="0.2954">
        <ele>1138.92419</ele>
        <time>2024-01-12T08:30:50Z</time>
      </trkpt>
      <trkpt lat="42.9336" lon="0.29541">
        <ele>1139.8048</ele>
        <time>2024-01-12T08:30:51Z</time>
      </trkpt>
      <trkpt lat="42.93359" lon="0.29543">
        <ele>1140.23742</ele>
        <time>2024-01-12T08:30:52Z</time>
      </trkpt>
      <trkpt lat="42.93358" lon="0.29544">
        <ele>1139.02459</ele>
        <time>2024-01-12T08:30:54Z</time>
      </trkpt>
      <trkpt lat="42.93358" lon="0.29546">
        <ele>1138.99114</ele>
        <time>2024-01-12T08:30:56Z</time>
      </trkpt>
      <trkpt lat="42.93357" lon="0.29548">
        <ele>1138.41226</ele>
        <time>2024-01-12T08:30:57Z</time>
      </trkpt>
      <trkpt lat="42.93356" lon="0.29549">
        <ele>1138.34973</ele>
        <time>2024-01-12T08:30:58Z</time>
      </trkpt>
      <trkpt lat="42.93356" lon="0.29549">
        <ele>1138.32243</ele>
        <time>2024-01-12T08:30:59Z</time>
      </trkpt>
      <trkpt lat="42.93355" lon="0.29551">
        <ele>1139.00203</ele>
        <time>2024-01-12T08:31:00Z</time>
      </trkpt>
      <trkpt lat="42.93354" lon="0.29553">
        <ele>1137.95864</ele>
        <time>2024-01-12T08:31:02Z</time>
      </trkpt>
      <trkpt lat="42.93353" lon="0.29554">
        <ele>1137.79082</ele>
        <time>2024-01-12T08:31:03Z</time>
      </trkpt>
      <trkpt lat="42.93352" lon="0.29555">
        <ele>1138.70084</ele>
        <time>2024-01-12T08:31:04Z</time>
      </trkpt>
      <trkpt lat="42.93351" lon="0.29556">
        <ele>1138.86037</ele>
        <time>2024-01-12T08:31:05Z</time>
      </trkpt>
      <trkpt lat="42.9335" lon="0.29558">
        <ele>1137.82744</ele>
        <time>2024-01-12T08:31:07Z</time>
      </trkpt>
      <trkpt lat="42.9335" lon="0.29559">
        <ele>1137.96261</ele>
        <time>2024-01-12T08:31:08Z</time>
      </trkpt>
      <trkpt lat="42.93349" lon="0.2956">
        <ele>1137.97934</ele>
        <time>2024-01-12T08:31:10Z</time>
      </trkpt>
      <trkpt lat="42.93348" lon="0.29563">
        <ele>1136.34122</ele>
        <time>2024-01-12T08:31:12Z</time>
      </trkpt>
      <trkpt lat="42.93347" lon="0.29564">
        <ele>1137.19325</ele>
        <time>2024-01-12T08:31:13Z</time>
      </trkpt>
      <trkpt lat="42.93346" lon="0.29566">
        <ele>1137.56266</ele>
        <time>2024-01-12T08:31:15Z</time>
      </trkpt>
      <trkpt lat="42.93345" lon="0.29567">
        <ele>1136.99875</ele>
        <time>2024-01-12T08:31:16Z</time>
      </trkpt>
      <trkpt lat="42.93344" lon="0.29568">
        <ele>1137.75661</ele>
        <time>2024-01-12T08:31:17Z</time>
      </trkpt>
      <trkpt lat="42.93343" lon="0.29569">
        <ele>1138.37514</ele>
        <time>2024-01-12T08:31:18Z</time>
      </trkpt>
      <trkpt lat="42.93343" lon="0.29569">
        <ele>1138.4418</ele>
        <time>2024-01-12T08:31:19Z</time>
      </trkpt>
      <trkpt lat="42.93341" lon="0.29571">
        <ele>1137.15364</ele>
        <time>2024-01-12T08:31:21Z</time>
      </trkpt>
      <trkpt lat="42.93339" lon="0.29573">
        <ele>1137.48404</ele>
        <time>2024-01-12T08:31:23Z</time>
      </trkpt>
      <trkpt lat="42.93339" lon="0.29574">
        <ele>1137.48324</ele>
        <time>2024-01-12T08:31:24Z</time>
      </trkpt>
      <trkpt lat="42.93338" lon="0.29575">
        <ele>1137.47666</ele>
        <time>2024-01-12T08:31:25Z</time>
      </trkpt>
      <trkpt lat="42.93336" lon="0.29576">
        <ele>1136.49459</ele>
        <time>2024-01-12T08:31:26Z</time>
      </trkpt>
      <trkpt lat="42.93335" lon="0.29577">
        <ele>1136.87435</ele>
        <time>2024-01-12T08:31:27Z</time>
      </trkpt>
      <trkpt lat="42.93334" lon="0.29579">
        <ele>1137.68799</ele>
        <time>2024-01-12T08:31:29Z</time>
      </trkpt>
      <trkpt lat="42.93333" lon="0.29579">
        <ele>1137.52887</ele>
        <time>2024-01-12T08:31:30Z</time>
      </trkpt>
      <trkpt lat="42.93332" lon="0.29581">
        <ele>1137.27872</ele>
        <time>2024-01-12T08:31:31Z</time>
      </trkpt>
      <trkpt lat="42.93331" lon="0.29582">
        <ele>1137.05297</ele>
        <time>2024-01-12T08:31:32Z</time>
      </trkpt>
      <trkpt lat="42.9333" lon="0.29582">
        <ele>1136.86772</ele>
        <time>2024-01-12T08:31:33Z</time>
      </trkpt>
      <trkpt lat="42.93329" lon="0.29584">
        <ele>1136.51883</ele>
        <time>2024-01-12T08:31:34Z</time>
      </trkpt>
      <trkpt lat="42.93329" lon="0.29585">
        <ele>1136.46627</ele>
        <time>2024-01-12T08:31:35Z</time>
      </trkpt>
      <trkpt lat="42.93328" lon="0.29586">
        <ele>1137.24381</ele>
        <time>2024-01-12T08:31:36Z</time>
      </trkpt>
      <trkpt lat="42.93327" lon="0.29587">
        <ele>1137.66459</ele>
        <time>2024-01-12T08:31:37Z</time>
      </trkpt>
      <trkpt lat="42.93327" lon="0.29589">
        <ele>1137.53344</ele>
        <time>2024-01-12T08:31:38Z</time>
      </trkpt>
      <trkpt lat="42.93326" lon="0.29591">
        <ele>1137.76487</ele>
        <time>2024-01-12T08:31:39Z</time>
      </trkpt>
      <trkpt lat="42.93325" lon="0.29591">
        <ele>1137.65758</ele>
        <time>2024-01-12T08:31:40Z</time>
      </trkpt>
      <trkpt lat="42.93325" lon="0.29593">
        <ele>1138.22395</ele>
        <time>2024-01-12T08:31:41Z</time>
      </trkpt>
      <trkpt lat="42.93324" lon="0.29594">
        <ele>1137.58705</ele>
        <time>2024-01-12T08:31:42Z</time>
      </trkpt>
      <trkpt lat="42.93323" lon="0.29596">
        <ele>1137.01931</ele>
        <time>2024-01-12T08:31:43Z</time>
      </trkpt>
      <trkpt lat="42.93322" lon="0.29597">
        <ele>1136.7327</ele>
        <time>2024-01-12T08:31:44Z</time>
      </trkpt>
      <trkpt lat="42.93321" lon="0.29597">
        <ele>1137.2364</ele>
        <time>2024-01-12T08:31:45Z</time>
      </trkpt>
      <trkpt lat="42.93321" lon="0.29599">
        <ele>1137.11002</ele>
        <time>2024-01-12T08:31:46Z</time>
      </trkpt>
      <trkpt lat="42.9332" lon="0.296">
        <ele>1137.29415</ele>
        <time>2024-01-12T08:31:47Z</time>
      </trkpt>
      <trkpt lat="42.9332" lon="0.29602">
        <ele>1137.09133</ele>
        <time>2024-01-12T08:31:48Z</time>
      </trkpt>
      <trkpt lat="42.93319" lon="0.29603">
        <ele>1137.72298</ele>
        <time>2024-01-12T08:31:50Z</time>
      </trkpt>
      <trkpt lat="42.93319" lon="0.29604">
        <ele>1138.37657</ele>
        <time>2024-01-12T08:31:52Z</time>
      </trkpt>
      <trkpt lat="42.93318" lon="0.29605">
        <ele>1138.03976</ele>
        <time>2024-01-12T08:31:54Z</time>
      </trkpt>
      <trkpt lat="42.93318" lon="0.29607">
        <ele>1139.27693</ele>
        <time>2024-01-12T08:31:56Z</time>
      </trkpt>
      <trkpt lat="42.93319" lon="0.2961">
        <ele>1140.02931</ele>
        <time>2024-01-12T08:31:59Z</time>
      </trkpt>
      <trkpt lat="42.93318" lon="0.29611">
        <ele>1140.02009</ele>
        <time>2024-01-12T08:32:00Z</time>
      </trkpt>
      <trkpt lat="42.93317" lon="0.29613">
        <ele>1140.01666</ele>
        <time>2024-01-12T08:32:01Z</time>
      </trkpt>
      <trkpt lat="42.93316" lon="0.29613">
        <ele>1138.8216</ele>
        <time>2024-01-12T08:32:02Z</time>
      </trkpt>
      <trkpt lat="42.93315" lon="0.29614">
        <ele>1139.09131</ele>
        <time>2024-01-12T08:32:03Z</time>
      </trkpt>
      <trkpt lat="42.93314" lon="0.29616">
        <ele>1139.38723</ele>
        <time>2024-01-12T08:32:05Z</time>
      </trkpt>
      <trkpt lat="42.93313" lon="0.29617">
        <ele>1138.91288</ele>
        <time>2024-01-12T08:32:06Z</time>
      </trkpt>
      <trkpt lat="42.93313" lon="0.29619">
        <ele>1139.59316</ele>
        <time>2024-01-12T08:32:07Z</time>
      </trkpt>
      <trkpt lat="42.93311" lon="0.29621">
        <ele>1140.01898</ele>
        <time>2024-01-12T08:32:09Z</time>
      </trkpt>
      <trkpt lat="42.9331" lon="0.29624">
        <ele>1139.84071</ele>
        <time>2024-01-12T08:32:11Z</time>
      </trkpt>
      <trkpt lat="42.93309" lon="0.29625">
        <ele>1139.32409</ele>
        <time>2024-01-12T08:32:12Z</time>
      </trkpt>
      <trkpt lat="42.93308" lon="0.29626">
        <ele>1138.18811</ele>
        <time>2024-01-12T08:32:13Z</time>
      </trkpt>
      <trkpt lat="42.93307" lon="0.29627">
        <ele>1138.35054</ele>
        <time>2024-01-12T08:32:14Z</time>
      </trkpt>
      <trkpt lat="42.93307" lon="0.29628">
        <ele>1138.72048</ele>
        <time>2024-01-12T08:32:15Z</time>
      </trkpt>
      <trkpt lat="42.93306" lon="0.29629">
        <ele>1138.55595</ele>
        <time>2024-01-12T08:32:16Z</time>
      </trkpt>
      <trkpt lat="42.93305" lon="0.2963">
        <ele>1138.7296</ele>
        <time>2024-01-12T08:32:17Z</time>
      </trkpt>
      <trkpt lat="42.93305" lon="0.29631">
        <ele>1138.09618</ele>
        <time>2024-01-12T08:32:18Z</time>
      </trkpt>
      <trkpt lat="42.93304" lon="0.29633">
        <ele>1138.53522</ele>
        <time>2024-01-12T08:32:19Z</time>
      </trkpt>
      <trkpt lat="42.93303" lon="0.29635">
        <ele>1139.21665</ele>
        <time>2024-01-12T08:32:21Z</time>
      </trkpt>
      <trkpt lat="42.93303" lon="0.29638">
        <ele>1139.43051</ele>
        <time>2024-01-12T08:32:23Z</time>
      </trkpt>
      <trkpt lat="42.93303" lon="0.29639">
        <ele>1139.20314</ele>
        <time>2024-01-12T08:32:24Z</time>
      </trkpt>
      <trkpt lat="42.93302" lon="0.2964">
        <ele>1138.21063</ele>
        <time>2024-01-12T08:32:25Z</time>
      </trkpt>
      <trkpt lat="42.93301" lon="0.29641">
        <ele>1138.48956</ele>
        <time>2024-01-12T08:32:26Z</time>
      </trkpt>
      <trkpt lat="42.933" lon="0.29642">
        <ele>1138.12486</ele>
        <time>2024-01-12T08:32:27Z</time>
      </trkpt>
      <trkpt lat="42.93299" lon="0.29643">
        <ele>1137.87405</ele>
        <time>2024-01-12T08:32:28Z</time>
      </trkpt>
      <trkpt lat="42.93299" lon="0.29645">
        <ele>1138.20129</ele>
        <time>2024-01-12T08:32:29Z</time>
      </trkpt>
      <trkpt lat="42.93297" lon="0.29646">
        <ele>1139.43406</ele>
        <time>2024-01-12T08:32:31Z</time>
      </trkpt>
      <trkpt lat="42.93295" lon="0.29648">
        <ele>1138.84387</ele>
        <time>2024-01-12T08:32:32Z</time>
      </trkpt>
      <trkpt lat="42.93295" lon="0.29649">
        <ele>1138.47733</ele>
        <time>2024-01-12T08:32:34Z</time>
      </trkpt>
      <trkpt lat="42.93294" lon="0.2965">
        <ele>1137.34642</ele>
        <time>2024-01-12T08:32:35Z</time>
      </trkpt>
      <trkpt lat="42.93293" lon="0.29651">
        <ele>1137.63556</ele>
        <time>2024-01-12T08:32:36Z</time>
      </trkpt>
      <trkpt lat="42.93292" lon="0.29652">
        <ele>1138.45771</ele>
        <time>2024-01-12T08:32:37Z</time>
      </trkpt>
      <trkpt lat="42.9329" lon="0.29654">
        <ele>1137.67012</ele>
        <time>2024-01-12T08:32:39Z</time>
      </trkpt>
      <trkpt lat="42.93289" lon="0.29655">
        <ele>1137.45508</ele>
        <time>2024-01-12T08:32:40Z</time>
      </trkpt>
      <trkpt lat="42.93289" lon="0.29657">
        <ele>1138.22325</ele>
        <time>2024-01-12T08:32:42Z</time>
      </trkpt>
      <trkpt lat="42.93288" lon="0.29658">
        <ele>1137.96321</ele>
        <time>2024-01-12T08:32:43Z</time>
      </trkpt>
      <trkpt lat="42.93287" lon="0.29659">
        <ele>1138.52703</ele>
        <time>2024-01-12T08:32:44Z</time>
      </trkpt>
      <trkpt lat="42.93285" lon="0.29661">
        <ele>1138.5562</ele>
        <time>2024-01-12T08:32:46Z</time>
      </trkpt>
      <trkpt lat="42.93285" lon="0.29662">
        <ele>1138.69165</ele>
        <time>2024-01-12T08:32:47Z</time>
      </trkpt>
      <trkpt lat="42.93284" lon="0.29664">
        <ele>1138.89252</ele>
        <time>2024-01-12T08:32:48Z</time>
      </trkpt>
      <trkpt lat="42.93283" lon="0.29664">
        <ele>1138.90366</ele>
        <time>2024-01-12T08:32:49Z</time>
      </trkpt>
      <trkpt lat="42.93282" lon="0.29666">
        <ele>1139.46596</ele>
        <time>2024-01-12T08:32:50Z</time>
      </trkpt>
      <trkpt lat="42.93281" lon="0.29668">
        <ele>1138.59036</ele>
        <time>2024-01-12T08:32:52Z</time>
      </trkpt>
      <trkpt lat="42.9328" lon="0.29669">
        <ele>1138.44423</ele>
        <time>2024-01-12T08:32:53Z</time>
      </trkpt>
      <trkpt lat="42.93279" lon="0.2967">
        <ele>1137.99519</ele>
        <time>2024-01-12T08:32:54Z</time>
      </trkpt>
      <trkpt lat="42.93278" lon="0.29671">
        <ele>1137.4163</ele>
        <time>2024-01-12T08:32:55Z</time>
      </trkpt>
      <trkpt lat="42.93277" lon="0.29673">
        <ele>1137.41498</ele>
        <time>2024-01-12T08:32:56Z</time>
      </trkpt>
      <trkpt lat="42.93276" lon="0.29674">
        <ele>1135.88582</ele>
        <time>2024-01-12T08:32:58Z</time>
      </trkpt>
      <trkpt lat="42.93276" lon="0.29675">
        <ele>1136.49687</ele>
        <time>2024-01-12T08:32:59Z</time>
      </trkpt>
      <trkpt lat="42.93275" lon="0.29677">
        <ele>1136.86894</ele>
        <time>2024-01-12T08:33:00Z</time>
      </trkpt>
      <trkpt lat="42.93274" lon="0.29679">
        <ele>1137.70699</ele>
        <time>2024-01-12T08:33:02Z</time>
      </trkpt>
      <trkpt lat="42.93273" lon="0.2968">
        <ele>1137.59438</ele>
        <time>2024-01-12T08:33:03Z</time>
      </trkpt>
      <trkpt lat="42.93272" lon="0.29681">
        <ele>1136.65876</ele>
        <time>2024-01-12T08:33:04Z</time>
      </trkpt>
      <trkpt lat="42.93271" lon="0.29683">
        <ele>1137.35684</ele>
        <time>2024-01-12T08:33:06Z</time>
      </trkpt>
      <trkpt lat="42.9327" lon="0.29684">
        <ele>1136.54077</ele>
        <time>2024-01-12T08:33:07Z</time>
      </trkpt>
      <trkpt lat="42.93269" lon="0.29685">
        <ele>1135.79136</ele>
        <time>2024-01-12T08:33:08Z</time>
      </trkpt>
      <trkpt lat="42.93268" lon="0.29687">
        <ele>1136.05444</ele>
        <time>2024-01-12T08:33:09Z</time>
      </trkpt>
      <trkpt lat="42.93268" lon="0.29688">
        <ele>1136.81727</ele>
        <time>2024-01-12T08:33:10Z</time>
      </trkpt>
      <trkpt lat="42.93266" lon="0.2969">
        <ele>1137.48473</ele>
        <time>2024-01-12T08:33:12Z</time>
      </trkpt>
      <trkpt lat="42.93265" lon="0.29691">
        <ele>1136.58814</ele>
        <time>2024-01-12T08:33:13Z</time>
      </trkpt>
      <trkpt lat="42.93264" lon="0.29693">
        <ele>1137.48641</ele>
        <time>2024-01-12T08:33:15Z</time>
      </trkpt>
      <trkpt lat="42.93263" lon="0.29694">
        <ele>1136.39397</ele>
        <time>2024-01-12T08:33:16Z</time>
      </trkpt>
      <trkpt lat="42.93262" lon="0.29696">
        <ele>1134.97289</ele>
        <time>2024-01-12T08:33:18Z</time>
      </trkpt>
      <trkpt lat="42.93261" lon="0.29697">
        <ele>1135.03179</ele>
        <time>2024-01-12T08:33:19Z</time>
      </trkpt>
      <trkpt lat="42.93261" lon="0.29699">
        <ele>1135.37396</ele>
        <time>2024-01-12T08:33:20Z</time>
      </trkpt>
      <trkpt lat="42.93261" lon="0.297">
        <ele>1135.91803</ele>
        <time>2024-01-12T08:33:21Z</time>
      </trkpt>
      <trkpt lat="42.9326" lon="0.29702">
        <ele>1134.40896</ele>
        <time>2024-01-12T08:33:22Z</time>
      </trkpt>
      <trkpt lat="42.93258" lon="0.29704">
        <ele>1135.65255</ele>
        <time>2024-01-12T08:33:24Z</time>
      </trkpt>
      <trkpt lat="42.93258" lon="0.29705">
        <ele>1135.39634</ele>
        <time>2024-01-12T08:33:25Z</time>
      </trkpt>
      <trkpt lat="42.93256" lon="0.29708">
        <ele>1135.57201</ele>
        <time>2024-01-12T08:33:27Z</time>
      </trkpt>
      <trkpt lat="42.93256" lon="0.2971">
        <ele>1135.4204</ele>
        <time>2024-01-12T08:33:29Z</time>
      </trkpt>
      <trkpt lat="42.93256" lon="0.29711">
        <ele>1134.73195</ele>
        <time>2024-01-12T08:33:30Z</time>
      </trkpt>
      <trkpt lat="42.93255" lon="0.29713">
        <ele>1134.77532</ele>
        <time>2024-01-12T08:33:31Z</time>
      </trkpt>
      <trkpt lat="42.93254" lon="0.29716">
        <ele>1135.00456</ele>
        <time>2024-01-12T08:33:33Z</time>
      </trkpt>
      <trkpt lat="42.93254" lon="0.29717">
        <ele>1132.00981</ele>
        <time>2024-01-12T08:33:35Z</time>
      </trkpt>
      <trkpt lat="42.93254" lon="0.29719">
        <ele>1131.61687</ele>
        <time>2024-01-12T08:33:36Z</time>
      </trkpt>
      <trkpt lat="42.93254" lon="0.29721">
        <ele>1131.87004</ele>
        <time>2024-01-12T08:33:37Z</time>
      </trkpt>
      <trkpt lat="42.93254" lon="0.29722">
        <ele>1132.6025</ele>
        <time>2024-01-12T08:33:38Z</time>
      </trkpt>
      <trkpt lat="42.93253" lon="0.29724">
        <ele>1132.37337</ele>
        <time>2024-01-12T08:33:39Z</time>
      </trkpt>
      <trkpt lat="42.93254" lon="0.29726">
        <ele>1133.15759</ele>
        <time>2024-01-12T08:33:41Z</time>
      </trkpt>
      <trkpt lat="42.93255" lon="0.29728">
        <ele>1134.21424</ele>
        <time>2024-01-12T08:33:42Z</time>
      </trkpt>
      <trkpt lat="42.93255" lon="0.29729">
        <ele>1134.09845</ele>
        <time>2024-01-12T08:33:43Z</time>
      </trkpt>
      <trkpt lat="42.93256" lon="0.2973">
        <ele>1134.72714</ele>
        <time>2024-01-12T08:33:44Z</time>
      </trkpt>
      <trkpt lat="42.93257" lon="0.29732">
        <ele>1135.27035</ele>
        <time>2024-01-12T08:33:45Z</time>
      </trkpt>
      <trkpt lat="42.93257" lon="0.29733">
        <ele>1136.02659</ele>
        <time>2024-01-12T08:33:46Z</time>
      </trkpt>
      <trkpt lat="42.93258" lon="0.29735">
        <ele>1136.2514</ele>
        <time>2024-01-12T08:33:47Z</time>
      </trkpt>
      <trkpt lat="42.93259" lon="0.29736">
        <ele>1136.26452</ele>
        <time>2024-01-12T08:33:48Z</time>
      </trkpt>
      <trkpt lat="42.9326" lon="0.29737">
        <ele>1135.35697</ele>
        <time>2024-01-12T08:33:49Z</time>
      </trkpt>
      <trkpt lat="42.93261" lon="0.29738">
        <ele>1135.41426</ele>
        <time>2024-01-12T08:33:50Z</time>
      </trkpt>
      <trkpt lat="42.93262" lon="0.2974">
        <ele>1136.96349</ele>
        <time>2024-01-12T08:33:51Z</time>
      </trkpt>
      <trkpt lat="42.93263" lon="0.29741">
        <ele>1137.368</ele>
        <time>2024-01-12T08:33:52Z</time>
      </trkpt>
      <trkpt lat="42.93264" lon="0.29742">
        <ele>1137.21042</ele>
        <time>2024-01-12T08:33:53Z</time>
      </trkpt>
      <trkpt lat="42.93265" lon="0.29743">
        <ele>1137.16202</ele>
        <time>2024-01-12T08:33:54Z</time>
      </trkpt>
      <trkpt lat="42.93266" lon="0.29744">
        <ele>1136.4806</ele>
        <time>2024-01-12T08:33:56Z</time>
      </trkpt>
      <trkpt lat="42.93267" lon="0.29746">
        <ele>1136.41442</ele>
        <time>2024-01-12T08:33:57Z</time>
      </trkpt>
      <trkpt lat="42.93268" lon="0.29747">
        <ele>1136.93485</ele>
        <time>2024-01-12T08:33:59Z</time>
      </trkpt>
      <trkpt lat="42.9327" lon="0.29749">
        <ele>1137.08223</ele>
        <time>2024-01-12T08:34:01Z</time>
      </trkpt>
      <trkpt lat="42.93271" lon="0.2975">
        <ele>1136.96435</ele>
        <time>2024-01-12T08:34:02Z</time>
      </trkpt>
      <trkpt lat="42.93272" lon="0.29751">
        <ele>1136.72617</ele>
        <time>2024-01-12T08:34:03Z</time>
      </trkpt>
      <trkpt lat="42.93273" lon="0.29753">
        <ele>1138.39598</ele>
        <time>2024-01-12T08:34:05Z</time>
      </trkpt>
      <trkpt lat="42.93275" lon="0.29754">
        <ele>1138.42942</ele>
        <time>2024-01-12T08:34:07Z</time>
      </trkpt>
      <trkpt lat="42.93276" lon="0.29755">
        <ele>1138.76401</ele>
        <time>2024-01-12T08:34:08Z</time>
      </trkpt>
      <trkpt lat="42.93278" lon="0.29756">
        <ele>1137.96755</ele>
        <time>2024-01-12T08:34:10Z</time>
      </trkpt>
      <trkpt lat="42.93279" lon="0.29756">
        <ele>1139.37064</ele>
        <time>2024-01-12T08:34:11Z</time>
      </trkpt>
      <trkpt lat="42.9328" lon="0.29757">
        <ele>1139.15163</ele>
        <time>2024-01-12T08:34:12Z</time>
      </trkpt>
      <trkpt lat="42.93281" lon="0.29758">
        <ele>1139.4154</ele>
        <time>2024-01-12T08:34:13Z</time>
      </trkpt>
      <trkpt lat="42.93282" lon="0.29759">
        <ele>1138.27598</ele>
        <time>2024-01-12T08:34:14Z</time>
      </trkpt>
      <trkpt lat="42.93283" lon="0.29759">
        <ele>1138.13289</ele>
        <time>2024-01-12T08:34:15Z</time>
      </trkpt>
      <trkpt lat="42.93284" lon="0.2976">
        <ele>1139.39681</ele>
        <time>2024-01-12T08:34:16Z</time>
      </trkpt>
      <trkpt lat="42.93286" lon="0.2976">
        <ele>1140.02764</ele>
        <time>2024-01-12T08:34:17Z</time>
      </trkpt>
      <trkpt lat="42.93287" lon="0.29761">
        <ele>1139.80692</ele>
        <time>2024-01-12T08:34:18Z</time>
      </trkpt>
      <trkpt lat="42.93288" lon="0.29762">
        <ele>1138.87026</ele>
        <time>2024-01-12T08:34:19Z</time>
      </trkpt>
      <trkpt lat="42.93289" lon="0.29762">
        <ele>1139.45992</ele>
        <time>2024-01-12T08:34:20Z</time>
      </trkpt>
      <trkpt lat="42.9329" lon="0.29762">
        <ele>1139.79753</ele>
        <time>2024-01-12T08:34:21Z</time>
      </trkpt>
      <trkpt lat="42.93291" lon="0.29763">
        <ele>1139.22824</ele>
        <time>2024-01-12T08:34:22Z</time>
      </trkpt>
      <trkpt lat="42.93292" lon="0.29762">
        <ele>1139.83597</ele>
        <time>2024-01-12T08:34:23Z</time>
      </trkpt>
      <trkpt lat="42.93293" lon="0.29763">
        <ele>1139.82517</ele>
        <time>2024-01-12T08:34:24Z</time>
      </trkpt>
      <trkpt lat="42.93294" lon="0.29763">
        <ele>1139.82706</ele>
        <time>2024-01-12T08:34:25Z</time>
      </trkpt>
      <trkpt lat="42.93295" lon="0.29764">
        <ele>1139.56932</ele>
        <time>2024-01-12T08:34:26Z</time>
      </trkpt>
      <trkpt lat="42.93297" lon="0.29764">
        <ele>1139.75692</ele>
        <time>2024-01-12T08:34:27Z</time>
      </trkpt>
      <trkpt lat="42.93298" lon="0.29765">
        <ele>1139.65854</ele>
        <time>2024-01-12T08:34:28Z</time>
      </trkpt>
      <trkpt lat="42.933" lon="0.29765">
        <ele>1139.64868</ele>
        <time>2024-01-12T08:34:30Z</time>
      </trkpt>
      <trkpt lat="42.93301" lon="0.29766">
        <ele>1140.01591</ele>
        <time>2024-01-12T08:34:31Z</time>
      </trkpt>
      <trkpt lat="42.93303" lon="0.29766">
        <ele>1139.842</ele>
        <time>2024-01-12T08:34:33Z</time>
      </trkpt>
      <trkpt lat="42.93304" lon="0.29767">
        <ele>1139.87787</ele>
        <time>2024-01-12T08:34:34Z</time>
      </trkpt>
      <trkpt lat="42.93306" lon="0.29768">
        <ele>1138.84037</ele>
        <time>2024-01-12T08:34:36Z</time>
      </trkpt>
      <trkpt lat="42.93306" lon="0.29766">
        <ele>1143.68849</ele>
        <time>2024-01-12T08:34:37Z</time>
      </trkpt>
      <trkpt lat="42.93307" lon="0.29766">
        <ele>1143.35801</ele>
        <time>2024-01-12T08:34:38Z</time>
      </trkpt>
      <trkpt lat="42.93308" lon="0.29766">
        <ele>1143.2737</ele>
        <time>2024-01-12T08:34:39Z</time>
      </trkpt>
      <trkpt lat="42.9331" lon="0.29766">
        <ele>1142.2072</ele>
        <time>2024-01-12T08:34:41Z</time>
      </trkpt>
      <trkpt lat="42.93311" lon="0.29766">
        <ele>1142.3264</ele>
        <time>2024-01-12T08:34:42Z</time>
      </trkpt>
      <trkpt lat="42.93312" lon="0.29766">
        <ele>1142.34972</ele>
        <time>2024-01-12T08:34:43Z</time>
      </trkpt>
      <trkpt lat="42.93313" lon="0.29767">
        <ele>1141.94656</ele>
        <time>2024-01-12T08:34:44Z</time>
      </trkpt>
      <trkpt lat="42.93315" lon="0.29767">
        <ele>1141.55477</ele>
        <time>2024-01-12T08:34:45Z</time>
      </trkpt>
      <trkpt lat="42.93316" lon="0.29767">
        <ele>1141.73929</ele>
        <time>2024-01-12T08:34:46Z</time>
      </trkpt>
      <trkpt lat="42.93318" lon="0.29767">
        <ele>1141.50962</ele>
        <time>2024-01-12T08:34:48Z</time>
      </trkpt>
      <trkpt lat="42.93319" lon="0.29766">
        <ele>1141.02374</ele>
        <time>2024-01-12T08:34:49Z</time>
      </trkpt>
      <trkpt lat="42.9332" lon="0.29766">
        <ele>1141.32774</ele>
        <time>2024-01-12T08:34:50Z</time>
      </trkpt>
      <trkpt lat="42.93322" lon="0.29767">
        <ele>1140.60377</ele>
        <time>2024-01-12T08:34:51Z</time>
      </trkpt>
      <trkpt lat="42.93323" lon="0.29767">
        <ele>1140.88578</ele>
        <time>2024-01-12T08:34:53Z</time>
      </trkpt>
      <trkpt lat="42.93324" lon="0.29767">
        <ele>1140.10164</ele>
        <time>2024-01-12T08:34:54Z</time>
      </trkpt>
      <trkpt lat="42.93326" lon="0.29766">
        <ele>1141.14603</ele>
        <time>2024-01-12T08:34:55Z</time>
      </trkpt>
      <trkpt lat="42.93327" lon="0.29766">
        <ele>1142.19447</ele>
        <time>2024-01-12T08:34:56Z</time>
      </trkpt>
      <trkpt lat="42.93328" lon="0.29767">
        <ele>1141.6029</ele>
        <time>2024-01-12T08:34:57Z</time>
      </trkpt>
      <trkpt lat="42.93329" lon="0.29767">
        <ele>1141.29123</ele>
        <time>2024-01-12T08:34:58Z</time>
      </trkpt>
      <trkpt lat="42.9333" lon="0.29768">
        <ele>1141.23277</ele>
        <time>2024-01-12T08:34:59Z</time>
      </trkpt>
      <trkpt lat="42.93332" lon="0.29769">
        <ele>1139.96286</ele>
        <time>2024-01-12T08:35:00Z</time>
      </trkpt>
      <trkpt lat="42.93334" lon="0.29769">
        <ele>1139.06774</ele>
        <time>2024-01-12T08:35:01Z</time>
      </trkpt>
      <trkpt lat="42.93335" lon="0.29768">
        <ele>1139.45784</ele>
        <time>2024-01-12T08:35:02Z</time>
      </trkpt>
      <trkpt lat="42.93336" lon="0.29768">
        <ele>1139.99639</ele>
        <time>2024-01-12T08:35:03Z</time>
      </trkpt>
      <trkpt lat="42.93338" lon="0.29768">
        <ele>1139.96271</ele>
        <time>2024-01-12T08:35:05Z</time>
      </trkpt>
      <trkpt lat="42.93339" lon="0.29769">
        <ele>1140.20528</ele>
        <time>2024-01-12T08:35:06Z</time>
      </trkpt>
      <trkpt lat="42.9334" lon="0.29769">
        <ele>1138.7627</ele>
        <time>2024-01-12T08:35:07Z</time>
      </trkpt>
      <trkpt lat="42.93341" lon="0.2977">
        <ele>1137.76415</ele>
        <time>2024-01-12T08:35:08Z</time>
      </trkpt>
      <trkpt lat="42.93343" lon="0.2977">
        <ele>1138.84479</ele>
        <time>2024-01-12T08:35:09Z</time>
      </trkpt>
      <trkpt lat="42.93344" lon="0.2977">
        <ele>1139.99331</ele>
        <time>2024-01-12T08:35:10Z</time>
      </trkpt>
      <trkpt lat="42.93345" lon="0.2977">
        <ele>1138.46734</ele>
        <time>2024-01-12T08:35:11Z</time>
      </trkpt>
      <trkpt lat="42.93347" lon="0.29771">
        <ele>1139.47893</ele>
        <time>2024-01-12T08:35:12Z</time>
      </trkpt>
      <trkpt lat="42.93348" lon="0.29772">
        <ele>1138.82971</ele>
        <time>2024-01-12T08:35:13Z</time>
      </trkpt>
      <trkpt lat="42.93349" lon="0.29772">
        <ele>1138.62264</ele>
        <time>2024-01-12T08:35:14Z</time>
      </trkpt>
      <trkpt lat="42.93351" lon="0.29772">
        <ele>1138.76477</ele>
        <time>2024-01-12T08:35:15Z</time>
      </trkpt>
      <trkpt lat="42.93352" lon="0.29773">
        <ele>1138.7672</ele>
        <time>2024-01-12T08:35:16Z</time>
      </trkpt>
      <trkpt lat="42.93353" lon="0.29774">
        <ele>1138.21404</ele>
        <time>2024-01-12T08:35:17Z</time>
      </trkpt>
      <trkpt lat="42.93354" lon="0.29774">
        <ele>1137.76364</ele>
        <time>2024-01-12T08:35:18Z</time>
      </trkpt>
      <trkpt lat="42.93355" lon="0.29775">
        <ele>1137.9746</ele>
        <time>2024-01-12T08:35:19Z</time>
      </trkpt>
      <trkpt lat="42.93357" lon="0.29775">
        <ele>1137.88615</ele>
        <time>2024-01-12T08:35:20Z</time>
      </trkpt>
      <trkpt lat="42.93358" lon="0.29776">
        <ele>1136.39784</ele>
        <time>2024-01-12T08:35:22Z</time>
      </trkpt>
      <trkpt lat="42.93359" lon="0.29777">
        <ele>1137.25455</ele>
        <time>2024-01-12T08:35:23Z</time>
      </trkpt>
      <trkpt lat="42.93361" lon="0.29777">
        <ele>1137.39225</ele>
        <time>2024-01-12T08:35:25Z</time>
      </trkpt>
      <trkpt lat="42.93363" lon="0.29778">
        <ele>1136.25634</ele>
        <time>2024-01-12T08:35:27Z</time>
      </trkpt>
      <trkpt lat="42.93364" lon="0.29778">
        <ele>1135.31703</ele>
        <time>2024-01-12T08:35:28Z</time>
      </trkpt>
      <trkpt lat="42.93366" lon="0.29778">
        <ele>1135.53873</ele>
        <time>2024-01-12T08:35:29Z</time>
      </trkpt>
      <trkpt lat="42.93367" lon="0.29779">
        <ele>1136.3408</ele>
        <time>2024-01-12T08:35:30Z</time>
      </trkpt>
      <trkpt lat="42.93368" lon="0.2978">
        <ele>1136.57247</ele>
        <time>2024-01-12T08:35:31Z</time>
      </trkpt>
      <trkpt lat="42.93369" lon="0.2978">
        <ele>1136.88764</ele>
        <time>2024-01-12T08:35:32Z</time>
      </trkpt>
      <trkpt lat="42.9337" lon="0.29781">
        <ele>1137.52671</ele>
        <time>2024-01-12T08:35:33Z</time>
      </trkpt>
      <trkpt lat="42.93371" lon="0.29782">
        <ele>1137.02332</ele>
        <time>2024-01-12T08:35:34Z</time>
      </trkpt>
      <trkpt lat="42.93372" lon="0.29783">
        <ele>1137.12111</ele>
        <time>2024-01-12T08:35:35Z</time>
      </trkpt>
      <trkpt lat="42.93373" lon="0.29784">
        <ele>1137.48205</ele>
        <time>2024-01-12T08:35:36Z</time>
      </trkpt>
      <trkpt lat="42.93374" lon="0.29785">
        <ele>1137.20338</ele>
        <time>2024-01-12T08:35:37Z</time>
      </trkpt>
      <trkpt lat="42.93374" lon="0.29786">
        <ele>1136.66655</ele>
        <time>2024-01-12T08:35:38Z</time>
      </trkpt>
      <trkpt lat="42.93376" lon="0.29787">
        <ele>1136.49348</ele>
        <time>2024-01-12T08:35:39Z</time>
      </trkpt>
      <trkpt lat="42.93378" lon="0.29787">
        <ele>1136.933</ele>
        <time>2024-01-12T08:35:40Z</time>
      </trkpt>
      <trkpt lat="42.93379" lon="0.29789">
        <ele>1137.27663</ele>
        <time>2024-01-12T08:35:42Z</time>
      </trkpt>
      <trkpt lat="42.9338" lon="0.29791">
        <ele>1137.27166</ele>
        <time>2024-01-12T08:35:43Z</time>
      </trkpt>
      <trkpt lat="42.93381" lon="0.29793">
        <ele>1137.43667</ele>
        <time>2024-01-12T08:35:45Z</time>
      </trkpt>
      <trkpt lat="42.93382" lon="0.29794">
        <ele>1137.07602</ele>
        <time>2024-01-12T08:35:46Z</time>
      </trkpt>
      <trkpt lat="42.93383" lon="0.29796">
        <ele>1138.10802</ele>
        <time>2024-01-12T08:35:48Z</time>
      </trkpt>
      <trkpt lat="42.93383" lon="0.29797">
        <ele>1138.52684</ele>
        <time>2024-01-12T08:35:49Z</time>
      </trkpt>
      <trkpt lat="42.93384" lon="0.29798">
        <ele>1137.98926</ele>
        <time>2024-01-12T08:35:50Z</time>
      </trkpt>
      <trkpt lat="42.93385" lon="0.29799">
        <ele>1138.32848</ele>
        <time>2024-01-12T08:35:51Z</time>
      </trkpt>
      <trkpt lat="42.93386" lon="0.29802">
        <ele>1137.91915</ele>
        <time>2024-01-12T08:35:53Z</time>
      </trkpt>
      <trkpt lat="42.93387" lon="0.29804">
        <ele>1139.06209</ele>
        <time>2024-01-12T08:35:55Z</time>
      </trkpt>
      <trkpt lat="42.93388" lon="0.29807">
        <ele>1138.40177</ele>
        <time>2024-01-12T08:35:57Z</time>
      </trkpt>
      <trkpt lat="42.93389" lon="0.29808">
        <ele>1139.12685</ele>
        <time>2024-01-12T08:35:58Z</time>
      </trkpt>
      <trkpt lat="42.93389" lon="0.2981">
        <ele>1139.82872</ele>
        <time>2024-01-12T08:35:59Z</time>
      </trkpt>
      <trkpt lat="42.9339" lon="0.29811">
        <ele>1139.24275</ele>
        <time>2024-01-12T08:36:01Z</time>
      </trkpt>
      <trkpt lat="42.9339" lon="0.29813">
        <ele>1139.58474</ele>
        <time>2024-01-12T08:36:02Z</time>
      </trkpt>
      <trkpt lat="42.93391" lon="0.29814">
        <ele>1139.78351</ele>
        <time>2024-01-12T08:36:03Z</time>
      </trkpt>
      <trkpt lat="42.93392" lon="0.29815">
        <ele>1139.9516</ele>
        <time>2024-01-12T08:36:04Z</time>
      </trkpt>
      <trkpt lat="42.93393" lon="0.29816">
        <ele>1140.46911</ele>
        <time>2024-01-12T08:36:05Z</time>
      </trkpt>
      <trkpt lat="42.93394" lon="0.29817">
        <ele>1140.27699</ele>
        <time>2024-01-12T08:36:06Z</time>
      </trkpt>
      <trkpt lat="42.93395" lon="0.29818">
        <ele>1139.81748</ele>
        <time>2024-01-12T08:36:07Z</time>
      </trkpt>
      <trkpt lat="42.93396" lon="0.2982">
        <ele>1140.17135</ele>
        <time>2024-01-12T08:36:08Z</time>
      </trkpt>
      <trkpt lat="42.93397" lon="0.29822">
        <ele>1141.21188</ele>
        <time>2024-01-12T08:36:10Z</time>
      </trkpt>
      <trkpt lat="42.93398" lon="0.29824">
        <ele>1141.18783</ele>
        <time>2024-01-12T08:36:11Z</time>
      </trkpt>
      <trkpt lat="42.93401" lon="0.29822">
        <ele>1150.33319</ele>
        <time>2024-01-12T08:36:15Z</time>
      </trkpt>
      <trkpt lat="42.93402" lon="0.29822">
        <ele>1150.92308</ele>
        <time>2024-01-12T08:36:16Z</time>
      </trkpt>
      <trkpt lat="42.93402" lon="0.29824">
        <ele>1147.95628</ele>
        <time>2024-01-12T08:36:18Z</time>
      </trkpt>
      <trkpt lat="42.93403" lon="0.29826">
        <ele>1147.31069</ele>
        <time>2024-01-12T08:36:19Z</time>
      </trkpt>
      <trkpt lat="42.93403" lon="0.29828">
        <ele>1147.25385</ele>
        <time>2024-01-12T08:36:20Z</time>
      </trkpt>
      <trkpt lat="42.93403" lon="0.2983">
        <ele>1146.62358</ele>
        <time>2024-01-12T08:36:22Z</time>
      </trkpt>
      <trkpt lat="42.93404" lon="0.29832">
        <ele>1144.15523</ele>
        <time>2024-01-12T08:36:24Z</time>
      </trkpt>
      <trkpt lat="42.93404" lon="0.29834">
        <ele>1141.9419</ele>
        <time>2024-01-12T08:36:26Z</time>
      </trkpt>
      <trkpt lat="42.93406" lon="0.29835">
        <ele>1142.11709</ele>
        <time>2024-01-12T08:36:27Z</time>
      </trkpt>
      <trkpt lat="42.93407" lon="0.29836">
        <ele>1142.81523</ele>
        <time>2024-01-12T08:36:28Z</time>
      </trkpt>
      <trkpt lat="42.93408" lon="0.29837">
        <ele>1141.70063</ele>
        <time>2024-01-12T08:36:29Z</time>
      </trkpt>
      <trkpt lat="42.93409" lon="0.29838">
        <ele>1141.47126</ele>
        <time>2024-01-12T08:36:30Z</time>
      </trkpt>
      <trkpt lat="42.93409" lon="0.2984">
        <ele>1141.19593</ele>
        <time>2024-01-12T08:36:31Z</time>
      </trkpt>
      <trkpt lat="42.93409" lon="0.29841">
        <ele>1140.50917</ele>
        <time>2024-01-12T08:36:32Z</time>
      </trkpt>
      <trkpt lat="42.9341" lon="0.29843">
        <ele>1140.16776</ele>
        <time>2024-01-12T08:36:33Z</time>
      </trkpt>
      <trkpt lat="42.93411" lon="0.29845">
        <ele>1141.13718</ele>
        <time>2024-01-12T08:36:34Z</time>
      </trkpt>
      <trkpt lat="42.93412" lon="0.29847">
        <ele>1141.88491</ele>
        <time>2024-01-12T08:36:36Z</time>
      </trkpt>
      <trkpt lat="42.93414" lon="0.29848">
        <ele>1141.52101</ele>
        <time>2024-01-12T08:36:38Z</time>
      </trkpt>
      <trkpt lat="42.93415" lon="0.29849">
        <ele>1142.09221</ele>
        <time>2024-01-12T08:36:40Z</time>
      </trkpt>
      <trkpt lat="42.93416" lon="0.29849">
        <ele>1141.93773</ele>
        <time>2024-01-12T08:36:41Z</time>
      </trkpt>
      <trkpt lat="42.93417" lon="0.2985">
        <ele>1141.06942</ele>
        <time>2024-01-12T08:36:42Z</time>
      </trkpt>
      <trkpt lat="42.93418" lon="0.29851">
        <ele>1141.02148</ele>
        <time>2024-01-12T08:36:43Z</time>
      </trkpt>
      <trkpt lat="42.93418" lon="0.29853">
        <ele>1142.04605</ele>
        <time>2024-01-12T08:36:44Z</time>
      </trkpt>
      <trkpt lat="42.93418" lon="0.29854">
        <ele>1141.70498</ele>
        <time>2024-01-12T08:36:45Z</time>
      </trkpt>
      <trkpt lat="42.93419" lon="0.29855">
        <ele>1141.98608</ele>
        <time>2024-01-12T08:36:46Z</time>
      </trkpt>
      <trkpt lat="42.93421" lon="0.29856">
        <ele>1142.08433</ele>
        <time>2024-01-12T08:36:47Z</time>
      </trkpt>
      <trkpt lat="42.93422" lon="0.29858">
        <ele>1143.40197</ele>
        <time>2024-01-12T08:36:48Z</time>
      </trkpt>
      <trkpt lat="42.93424" lon="0.2986">
        <ele>1143.66345</ele>
        <time>2024-01-12T08:36:50Z</time>
      </trkpt>
      <trkpt lat="42.93425" lon="0.29861">
        <ele>1144.49905</ele>
        <time>2024-01-12T08:36:51Z</time>
      </trkpt>
      <trkpt lat="42.93427" lon="0.29862">
        <ele>1143.14493</ele>
        <time>2024-01-12T08:36:52Z</time>
      </trkpt>
      <trkpt lat="42.93428" lon="0.29864">
        <ele>1143.64223</ele>
        <time>2024-01-12T08:36:54Z</time>
      </trkpt>
      <trkpt lat="42.93429" lon="0.29867">
        <ele>1143.34067</ele>
        <time>2024-01-12T08:36:56Z</time>
      </trkpt>
      <trkpt lat="42.9343" lon="0.29868">
        <ele>1145.12328</ele>
        <time>2024-01-12T08:36:57Z</time>
      </trkpt>
      <trkpt lat="42.93431" lon="0.29868">
        <ele>1144.83548</ele>
        <time>2024-01-12T08:36:58Z</time>
      </trkpt>
      <trkpt lat="42.93432" lon="0.2987">
        <ele>1144.57635</ele>
        <time>2024-01-12T08:36:59Z</time>
      </trkpt>
      <trkpt lat="42.93432" lon="0.29871">
        <ele>1144.542</ele>
        <time>2024-01-12T08:37:00Z</time>
      </trkpt>
      <trkpt lat="42.93433" lon="0.29872">
        <ele>1143.30548</ele>
        <time>2024-01-12T08:37:01Z</time>
      </trkpt>
      <trkpt lat="42.93434" lon="0.29873">
        <ele>1142.10479</ele>
        <time>2024-01-12T08:37:03Z</time>
      </trkpt>
      <trkpt lat="42.93435" lon="0.29875">
        <ele>1142.34377</ele>
        <time>2024-01-12T08:37:04Z</time>
      </trkpt>
      <trkpt lat="42.93436" lon="0.29876">
        <ele>1142.98532</ele>
        <time>2024-01-12T08:37:05Z</time>
      </trkpt>
      <trkpt lat="42.93437" lon="0.29877">
        <ele>1142.38155</ele>
        <time>2024-01-12T08:37:06Z</time>
      </trkpt>
      <trkpt lat="42.93438" lon="0.29878">
        <ele>1142.00792</ele>
        <time>2024-01-12T08:37:07Z</time>
      </trkpt>
      <trkpt lat="42.93439" lon="0.29879">
        <ele>1141.34603</ele>
        <time>2024-01-12T08:37:08Z</time>
      </trkpt>
      <trkpt lat="42.9344" lon="0.29881">
        <ele>1140.98354</ele>
        <time>2024-01-12T08:37:09Z</time>
      </trkpt>
      <trkpt lat="42.93442" lon="0.29882">
        <ele>1141.85487</ele>
        <time>2024-01-12T08:37:11Z</time>
      </trkpt>
      <trkpt lat="42.93442" lon="0.29884">
        <ele>1142.34294</ele>
        <time>2024-01-12T08:37:13Z</time>
      </trkpt>
      <trkpt lat="42.93443" lon="0.29886">
        <ele>1141.28841</ele>
        <time>2024-01-12T08:37:14Z</time>
      </trkpt>
      <trkpt lat="42.93444" lon="0.29887">
        <ele>1142.58451</ele>
        <time>2024-01-12T08:37:15Z</time>
      </trkpt>
      <trkpt lat="42.93445" lon="0.29889">
        <ele>1142.15004</ele>
        <time>2024-01-12T08:37:16Z</time>
      </trkpt>
      <trkpt lat="42.93445" lon="0.29891">
        <ele>1141.93435</ele>
        <time>2024-01-12T08:37:18Z</time>
      </trkpt>
      <trkpt lat="42.93446" lon="0.29892">
        <ele>1141.40168</ele>
        <time>2024-01-12T08:37:19Z</time>
      </trkpt>
      <trkpt lat="42.93447" lon="0.29894">
        <ele>1141.22582</ele>
        <time>2024-01-12T08:37:20Z</time>
      </trkpt>
      <trkpt lat="42.93447" lon="0.29895">
        <ele>1141.24335</ele>
        <time>2024-01-12T08:37:21Z</time>
      </trkpt>
      <trkpt lat="42.93448" lon="0.29897">
        <ele>1140.94154</ele>
        <time>2024-01-12T08:37:22Z</time>
      </trkpt>
      <trkpt lat="42.93448" lon="0.29899">
        <ele>1141.44683</ele>
        <time>2024-01-12T08:37:23Z</time>
      </trkpt>
      <trkpt lat="42.93449" lon="0.29899">
        <ele>1141.79614</ele>
        <time>2024-01-12T08:37:24Z</time>
      </trkpt>
      <trkpt lat="42.9345" lon="0.299">
        <ele>1142.33926</ele>
        <time>2024-01-12T08:37:25Z</time>
      </trkpt>
      <trkpt lat="42.93451" lon="0.29901">
        <ele>1141.62206</ele>
        <time>2024-01-12T08:37:26Z</time>
      </trkpt>
      <trkpt lat="42.93452" lon="0.29902">
        <ele>1141.33237</ele>
        <time>2024-01-12T08:37:27Z</time>
      </trkpt>
      <trkpt lat="42.93454" lon="0.29904">
        <ele>1142.86069</ele>
        <time>2024-01-12T08:37:29Z</time>
      </trkpt>
      <trkpt lat="42.93455" lon="0.29905">
        <ele>1142.71591</ele>
        <time>2024-01-12T08:37:30Z</time>
      </trkpt>
      <trkpt lat="42.93456" lon="0.29906">
        <ele>1142.61298</ele>
        <time>2024-01-12T08:37:31Z</time>
      </trkpt>
      <trkpt lat="42.93457" lon="0.29907">
        <ele>1141.64329</ele>
        <time>2024-01-12T08:37:33Z</time>
      </trkpt>
      <trkpt lat="42.93457" lon="0.29908">
        <ele>1142.00129</ele>
        <time>2024-01-12T08:37:34Z</time>
      </trkpt>
      <trkpt lat="42.93458" lon="0.29909">
        <ele>1141.84032</ele>
        <time>2024-01-12T08:37:35Z</time>
      </trkpt>
      <trkpt lat="42.93459" lon="0.29911">
        <ele>1140.55338</ele>
        <time>2024-01-12T08:37:37Z</time>
      </trkpt>
      <trkpt lat="42.93459" lon="0.29913">
        <ele>1140.10165</ele>
        <time>2024-01-12T08:37:38Z</time>
      </trkpt>
      <trkpt lat="42.9346" lon="0.29914">
        <ele>1140.55449</ele>
        <time>2024-01-12T08:37:39Z</time>
      </trkpt>
      <trkpt lat="42.93461" lon="0.29916">
        <ele>1140.18621</ele>
        <time>2024-01-12T08:37:41Z</time>
      </trkpt>
      <trkpt lat="42.93462" lon="0.29918">
        <ele>1140.32058</ele>
        <time>2024-01-12T08:37:42Z</time>
      </trkpt>
      <trkpt lat="42.93462" lon="0.29919">
        <ele>1139.26654</ele>
        <time>2024-01-12T08:37:43Z</time>
      </trkpt>
      <trkpt lat="42.93463" lon="0.29921">
        <ele>1140.62342</ele>
        <time>2024-01-12T08:37:44Z</time>
      </trkpt>
      <trkpt lat="42.93464" lon="0.29922">
        <ele>1141.18298</ele>
        <time>2024-01-12T08:37:45Z</time>
      </trkpt>
      <trkpt lat="42.93465" lon="0.29924">
        <ele>1141.17199</ele>
        <time>2024-01-12T08:37:46Z</time>
      </trkpt>
      <trkpt lat="42.93465" lon="0.29926">
        <ele>1140.69692</ele>
        <time>2024-01-12T08:37:48Z</time>
      </trkpt>
      <trkpt lat="42.93465" lon="0.29927">
        <ele>1140.10957</ele>
        <time>2024-01-12T08:37:49Z</time>
      </trkpt>
      <trkpt lat="42.93465" lon="0.29928">
        <ele>1140.24152</ele>
        <time>2024-01-12T08:37:50Z</time>
      </trkpt>
      <trkpt lat="42.93465" lon="0.2993">
        <ele>1140.30764</ele>
        <time>2024-01-12T08:37:51Z</time>
      </trkpt>
      <trkpt lat="42.93465" lon="0.29931">
        <ele>1139.95993</ele>
        <time>2024-01-12T08:37:52Z</time>
      </trkpt>
      <trkpt lat="42.93466" lon="0.29933">
        <ele>1140.46442</ele>
        <time>2024-01-12T08:37:53Z</time>
      </trkpt>
      <trkpt lat="42.93466" lon="0.29934">
        <ele>1139.74015</ele>
        <time>2024-01-12T08:37:54Z</time>
      </trkpt>
      <trkpt lat="42.93466" lon="0.29936">
        <ele>1140.1019</ele>
        <time>2024-01-12T08:37:55Z</time>
      </trkpt>
      <trkpt lat="42.93468" lon="0.29938">
        <ele>1140.98005</ele>
        <time>2024-01-12T08:37:56Z</time>
      </trkpt>
      <trkpt lat="42.93469" lon="0.29939">
        <ele>1137.92901</ele>
        <time>2024-01-12T08:37:58Z</time>
      </trkpt>
      <trkpt lat="42.93469" lon="0.2994">
        <ele>1137.57277</ele>
        <time>2024-01-12T08:37:59Z</time>
      </trkpt>
      <trkpt lat="42.9347" lon="0.2994">
        <ele>1137.59089</ele>
        <time>2024-01-12T08:38:00Z</time>
      </trkpt>
      <trkpt lat="42.93471" lon="0.29942">
        <ele>1136.8716</ele>
        <time>2024-01-12T08:38:01Z</time>
      </trkpt>
      <trkpt lat="42.93472" lon="0.29943">
        <ele>1136.09278</ele>
        <time>2024-01-12T08:38:02Z</time>
      </trkpt>
      <trkpt lat="42.93473" lon="0.29945">
        <ele>1138.07214</ele>
        <time>2024-01-12T08:38:03Z</time>
      </trkpt>
      <trkpt lat="42.93473" lon="0.29947">
        <ele>1135.09094</ele>
        <time>2024-01-12T08:38:05Z</time>
      </trkpt>
      <trkpt lat="42.93474" lon="0.29949">
        <ele>1134.77929</ele>
        <time>2024-01-12T08:38:06Z</time>
      </trkpt>
      <trkpt lat="42.93476" lon="0.29951">
        <ele>1136.23956</ele>
        <time>2024-01-12T08:38:08Z</time>
      </trkpt>
      <trkpt lat="42.93475" lon="0.29953">
        <ele>1135.557</ele>
        <time>2024-01-12T08:38:09Z</time>
      </trkpt>
      <trkpt lat="42.93475" lon="0.29956">
        <ele>1135.7347</ele>
        <time>2024-01-12T08:38:11Z</time>
      </trkpt>
      <trkpt lat="42.93476" lon="0.29958">
        <ele>1135.0909</ele>
        <time>2024-01-12T08:38:13Z</time>
      </trkpt>
      <trkpt lat="42.93477" lon="0.29959">
        <ele>1135.35729</ele>
        <time>2024-01-12T08:38:14Z</time>
      </trkpt>
      <trkpt lat="42.93477" lon="0.29961">
        <ele>1134.71373</ele>
        <time>2024-01-12T08:38:15Z</time>
      </trkpt>
      <trkpt lat="42.93478" lon="0.29963">
        <ele>1135.73097</ele>
        <time>2024-01-12T08:38:17Z</time>
      </trkpt>
      <trkpt lat="42.93478" lon="0.29964">
        <ele>1136.71025</ele>
        <time>2024-01-12T08:38:18Z</time>
      </trkpt>
      <trkpt lat="42.93479" lon="0.29966">
        <ele>1135.71755</ele>
        <time>2024-01-12T08:38:19Z</time>
      </trkpt>
      <trkpt lat="42.9348" lon="0.29967">
        <ele>1136.13089</ele>
        <time>2024-01-12T08:38:20Z</time>
      </trkpt>
      <trkpt lat="42.9348" lon="0.29968">
        <ele>1135.99394</ele>
        <time>2024-01-12T08:38:21Z</time>
      </trkpt>
      <trkpt lat="42.93481" lon="0.29969">
        <ele>1135.83691</ele>
        <time>2024-01-12T08:38:22Z</time>
      </trkpt>
      <trkpt lat="42.93482" lon="0.29971">
        <ele>1136.42759</ele>
        <time>2024-01-12T08:38:23Z</time>
      </trkpt>
      <trkpt lat="42.93482" lon="0.29972">
        <ele>1136.20184</ele>
        <time>2024-01-12T08:38:24Z</time>
      </trkpt>
      <trkpt lat="42.93483" lon="0.29973">
        <ele>1135.50286</ele>
        <time>2024-01-12T08:38:25Z</time>
      </trkpt>
      <trkpt lat="42.93483" lon="0.29974">
        <ele>1133.81264</ele>
        <time>2024-01-12T08:38:27Z</time>
      </trkpt>
      <trkpt lat="42.93484" lon="0.29973">
        <ele>1131.45278</ele>
        <time>2024-01-12T08:38:36Z</time>
      </trkpt>
      <trkpt lat="42.93484" lon="0.29974">
        <ele>1129.32401</ele>
        <time>2024-01-12T08:38:50Z</time>
      </trkpt>
      <trkpt lat="42.93484" lon="0.29976">
        <ele>1127.85409</ele>
        <time>2024-01-12T08:38:55Z</time>
      </trkpt>
      <trkpt lat="42.93485" lon="0.29977">
        <ele>1128.85021</ele>
        <time>2024-01-12T08:38:58Z</time>
      </trkpt>
      <trkpt lat="42.93486" lon="0.29978">
        <ele>1129.83183</ele>
        <time>2024-01-12T08:38:59Z</time>
      </trkpt>
      <trkpt lat="42.93487" lon="0.29979">
        <ele>1130.60651</ele>
        <time>2024-01-12T08:39:00Z</time>
      </trkpt>
      <trkpt lat="42.93488" lon="0.2998">
        <ele>1130.45789</ele>
        <time>2024-01-12T08:39:01Z</time>
      </trkpt>
      <trkpt lat="42.9349" lon="0.29981">
        <ele>1133.77773</ele>
        <time>2024-01-12T08:39:02Z</time>
      </trkpt>
      <trkpt lat="42.93491" lon="0.29981">
        <ele>1134.47012</ele>
        <time>2024-01-12T08:39:03Z</time>
      </trkpt>
      <trkpt lat="42.93492" lon="0.29982">
        <ele>1135.52118</ele>
        <time>2024-01-12T08:39:04Z</time>
      </trkpt>
      <trkpt lat="42.93492" lon="0.29983">
        <ele>1134.7443</ele>
        <time>2024-01-12T08:39:06Z</time>
      </trkpt>
      <trkpt lat="42.93494" lon="0.29985">
        <ele>1136.21166</ele>
        <time>2024-01-12T08:39:07Z</time>
      </trkpt>
      <trkpt lat="42.93495" lon="0.29987">
        <ele>1136.48323</ele>
        <time>2024-01-12T08:39:08Z</time>
      </trkpt>
      <trkpt lat="42.93496" lon="0.29988">
        <ele>1137.36343</ele>
        <time>2024-01-12T08:39:09Z</time>
      </trkpt>
      <trkpt lat="42.93497" lon="0.2999">
        <ele>1136.37957</ele>
        <time>2024-01-12T08:39:11Z</time>
      </trkpt>
      <trkpt lat="42.93498" lon="0.29992">
        <ele>1137.74012</ele>
        <time>2024-01-12T08:39:12Z</time>
      </trkpt>
      <trkpt lat="42.93498" lon="0.29993">
        <ele>1136.96564</ele>
        <time>2024-01-12T08:39:13Z</time>
      </trkpt>
      <trkpt lat="42.93497" lon="0.29995">
        <ele>1135.22691</ele>
        <time>2024-01-12T08:39:15Z</time>
      </trkpt>
      <trkpt lat="42.93499" lon="0.29996">
        <ele>1136.73325</ele>
        <time>2024-01-12T08:39:16Z</time>
      </trkpt>
      <trkpt lat="42.935" lon="0.29997">
        <ele>1138.10742</ele>
        <time>2024-01-12T08:39:17Z</time>
      </trkpt>
      <trkpt lat="42.93501" lon="0.29997">
        <ele>1136.80928</ele>
        <time>2024-01-12T08:39:18Z</time>
      </trkpt>
      <trkpt lat="42.93502" lon="0.29999">
        <ele>1136.82812</ele>
        <time>2024-01-12T08:39:19Z</time>
      </trkpt>
      <trkpt lat="42.93502" lon="0.30001">
        <ele>1137.62901</ele>
        <time>2024-01-12T08:39:21Z</time>
      </trkpt>
      <trkpt lat="42.93504" lon="0.30003">
        <ele>1136.14102</ele>
        <time>2024-01-12T08:39:23Z</time>
      </trkpt>
      <trkpt lat="42.93505" lon="0.30003">
        <ele>1136.49638</ele>
        <time>2024-01-12T08:39:24Z</time>
      </trkpt>
      <trkpt lat="42.93506" lon="0.30004">
        <ele>1135.69296</ele>
        <time>2024-01-12T08:39:26Z</time>
      </trkpt>
      <trkpt lat="42.93507" lon="0.30006">
        <ele>1135.28851</ele>
        <time>2024-01-12T08:39:28Z</time>
      </trkpt>
      <trkpt lat="42.93508" lon="0.30007">
        <ele>1135.87529</ele>
        <time>2024-01-12T08:39:29Z</time>
      </trkpt>
      <trkpt lat="42.93509" lon="0.30009">
        <ele>1135.54483</ele>
        <time>2024-01-12T08:39:30Z</time>
      </trkpt>
      <trkpt lat="42.93509" lon="0.30011">
        <ele>1136.92444</ele>
        <time>2024-01-12T08:39:32Z</time>
      </trkpt>
      <trkpt lat="42.93509" lon="0.30011">
        <ele>1134.14472</ele>
        <time>2024-01-12T08:39:33Z</time>
      </trkpt>
      <trkpt lat="42.93511" lon="0.30011">
        <ele>1138.60612</ele>
        <time>2024-01-12T08:39:34Z</time>
      </trkpt>
      <trkpt lat="42.93511" lon="0.30013">
        <ele>1137.30187</ele>
        <time>2024-01-12T08:39:35Z</time>
      </trkpt>
      <trkpt lat="42.93512" lon="0.30016">
        <ele>1136.6933</ele>
        <time>2024-01-12T08:39:37Z</time>
      </trkpt>
      <trkpt lat="42.93513" lon="0.30018">
        <ele>1137.22614</ele>
        <time>2024-01-12T08:39:38Z</time>
      </trkpt>
      <trkpt lat="42.93513" lon="0.3002">
        <ele>1136.47381</ele>
        <time>2024-01-12T08:39:40Z</time>
      </trkpt>
      <trkpt lat="42.93513" lon="0.30022">
        <ele>1137.38091</ele>
        <time>2024-01-12T08:39:42Z</time>
      </trkpt>
      <trkpt lat="42.93514" lon="0.30023">
        <ele>1137.3213</ele>
        <time>2024-01-12T08:39:43Z</time>
      </trkpt>
      <trkpt lat="42.93514" lon="0.30025">
        <ele>1137.59921</ele>
        <time>2024-01-12T08:39:44Z</time>
      </trkpt>
      <trkpt lat="42.93514" lon="0.30026">
        <ele>1138.11195</ele>
        <time>2024-01-12T08:39:45Z</time>
      </trkpt>
      <trkpt lat="42.93513" lon="0.30026">
        <ele>1137.44869</ele>
        <time>2024-01-12T08:39:46Z</time>
      </trkpt>
      <trkpt lat="42.93513" lon="0.30028">
        <ele>1137.51719</ele>
        <time>2024-01-12T08:39:47Z</time>
      </trkpt>
      <trkpt lat="42.93513" lon="0.30031">
        <ele>1137.09999</ele>
        <time>2024-01-12T08:39:48Z</time>
      </trkpt>
      <trkpt lat="42.93512" lon="0.30032">
        <ele>1137.61947</ele>
        <time>2024-01-12T08:39:49Z</time>
      </trkpt>
      <trkpt lat="42.93513" lon="0.30034">
        <ele>1138.90757</ele>
        <time>2024-01-12T08:39:50Z</time>
      </trkpt>
      <trkpt lat="42.93513" lon="0.30037">
        <ele>1137.58181</ele>
        <time>2024-01-12T08:39:52Z</time>
      </trkpt>
      <trkpt lat="42.93514" lon="0.30038">
        <ele>1138.31717</ele>
        <time>2024-01-12T08:39:53Z</time>
      </trkpt>
      <trkpt lat="42.93514" lon="0.30039">
        <ele>1137.99609</ele>
        <time>2024-01-12T08:39:54Z</time>
      </trkpt>
      <trkpt lat="42.93515" lon="0.30042">
        <ele>1138.18572</ele>
        <time>2024-01-12T08:39:55Z</time>
      </trkpt>
      <trkpt lat="42.93515" lon="0.30044">
        <ele>1138.50557</ele>
        <time>2024-01-12T08:39:57Z</time>
      </trkpt>
      <trkpt lat="42.93516" lon="0.30046">
        <ele>1139.02472</ele>
        <time>2024-01-12T08:39:58Z</time>
      </trkpt>
      <trkpt lat="42.93516" lon="0.30048">
        <ele>1139.30847</ele>
        <time>2024-01-12T08:39:59Z</time>
      </trkpt>
      <trkpt lat="42.93516" lon="0.3005">
        <ele>1138.96203</ele>
        <time>2024-01-12T08:40:00Z</time>
      </trkpt>
      <trkpt lat="42.93517" lon="0.30052">
        <ele>1139.47934</ele>
        <time>2024-01-12T08:40:02Z</time>
      </trkpt>
      <trkpt lat="42.93517" lon="0.30053">
        <ele>1140.27376</ele>
        <time>2024-01-12T08:40:03Z</time>
      </trkpt>
      <trkpt lat="42.93518" lon="0.30055">
        <ele>1140.5391</ele>
        <time>2024-01-12T08:40:04Z</time>
      </trkpt>
      <trkpt lat="42.93519" lon="0.30056">
        <ele>1140.29838</ele>
        <time>2024-01-12T08:40:05Z</time>
      </trkpt>
      <trkpt lat="42.93519" lon="0.30058">
        <ele>1140.62175</ele>
        <time>2024-01-12T08:40:06Z</time>
      </trkpt>
      <trkpt lat="42.93519" lon="0.3006">
        <ele>1139.93608</ele>
        <time>2024-01-12T08:40:08Z</time>
      </trkpt>
      <trkpt lat="42.93521" lon="0.30061">
        <ele>1140.55547</ele>
        <time>2024-01-12T08:40:09Z</time>
      </trkpt>
      <trkpt lat="42.93522" lon="0.30064">
        <ele>1139.48935</ele>
        <time>2024-01-12T08:40:11Z</time>
      </trkpt>
      <trkpt lat="42.93523" lon="0.30066">
        <ele>1139.09252</ele>
        <time>2024-01-12T08:40:13Z</time>
      </trkpt>
      <trkpt lat="42.93525" lon="0.30067">
        <ele>1140.78281</ele>
        <time>2024-01-12T08:40:14Z</time>
      </trkpt>
      <trkpt lat="42.93526" lon="0.30068">
        <ele>1139.25123</ele>
        <time>2024-01-12T08:40:15Z</time>
      </trkpt>
      <trkpt lat="42.93528" lon="0.30069">
        <ele>1139.70089</ele>
        <time>2024-01-12T08:40:17Z</time>
      </trkpt>
      <trkpt lat="42.93529" lon="0.30069">
        <ele>1138.04005</ele>
        <time>2024-01-12T08:40:19Z</time>
      </trkpt>
      <trkpt lat="42.93531" lon="0.30071">
        <ele>1139.73039</ele>
        <time>2024-01-12T08:40:21Z</time>
      </trkpt>
      <trkpt lat="42.93533" lon="0.30071">
        <ele>1141.15416</ele>
        <time>2024-01-12T08:40:22Z</time>
      </trkpt>
      <trkpt lat="42.93534" lon="0.30072">
        <ele>1138.56465</ele>
        <time>2024-01-12T08:40:24Z</time>
      </trkpt>
      <trkpt lat="42.93536" lon="0.30073">
        <ele>1137.2662</ele>
        <time>2024-01-12T08:40:26Z</time>
      </trkpt>
      <trkpt lat="42.93537" lon="0.30073">
        <ele>1137.50663</ele>
        <time>2024-01-12T08:40:27Z</time>
      </trkpt>
      <trkpt lat="42.93537" lon="0.30073">
        <ele>1137.50054</ele>
        <time>2024-01-12T08:40:29Z</time>
      </trkpt>
      <trkpt lat="42.93539" lon="0.30074">
        <ele>1137.97478</ele>
        <time>2024-01-12T08:40:30Z</time>
      </trkpt>
      <trkpt lat="42.9354" lon="0.30075">
        <ele>1138.21419</ele>
        <time>2024-01-12T08:40:32Z</time>
      </trkpt>
      <trkpt lat="42.93541" lon="0.30076">
        <ele>1137.66486</ele>
        <time>2024-01-12T08:40:33Z</time>
      </trkpt>
      <trkpt lat="42.93543" lon="0.30077">
        <ele>1138.32044</ele>
        <time>2024-01-12T08:40:34Z</time>
      </trkpt>
      <trkpt lat="42.93543" lon="0.30077">
        <ele>1137.89167</ele>
        <time>2024-01-12T08:40:35Z</time>
      </trkpt>
      <trkpt lat="42.93544" lon="0.3008">
        <ele>1136.78209</ele>
        <time>2024-01-12T08:40:37Z</time>
      </trkpt>
      <trkpt lat="42.93545" lon="0.3008">
        <ele>1137.14084</ele>
        <time>2024-01-12T08:40:38Z</time>
      </trkpt>
      <trkpt lat="42.93547" lon="0.3008">
        <ele>1137.89842</ele>
        <time>2024-01-12T08:40:39Z</time>
      </trkpt>
      <trkpt lat="42.93548" lon="0.30082">
        <ele>1138.29481</ele>
        <time>2024-01-12T08:40:41Z</time>
      </trkpt>
      <trkpt lat="42.93549" lon="0.30084">
        <ele>1137.92418</ele>
        <time>2024-01-12T08:40:43Z</time>
      </trkpt>
      <trkpt lat="42.9355" lon="0.30085">
        <ele>1138.47816</ele>
        <time>2024-01-12T08:40:44Z</time>
      </trkpt>
      <trkpt lat="42.93551" lon="0.30087">
        <ele>1138.24268</ele>
        <time>2024-01-12T08:40:45Z</time>
      </trkpt>
      <trkpt lat="42.93552" lon="0.30089">
        <ele>1136.74087</ele>
        <time>2024-01-12T08:40:48Z</time>
      </trkpt>
      <trkpt lat="42.93554" lon="0.30091">
        <ele>1136.92663</ele>
        <time>2024-01-12T08:40:49Z</time>
      </trkpt>
      <trkpt lat="42.93555" lon="0.30092">
        <ele>1137.09677</ele>
        <time>2024-01-12T08:40:51Z</time>
      </trkpt>
      <trkpt lat="42.93556" lon="0.30092">
        <ele>1137.34228</ele>
        <time>2024-01-12T08:40:52Z</time>
      </trkpt>
      <trkpt lat="42.93558" lon="0.30092">
        <ele>1137.35323</ele>
        <time>2024-01-12T08:40:53Z</time>
      </trkpt>
      <trkpt lat="42.93558" lon="0.30093">
        <ele>1137.38961</ele>
        <time>2024-01-12T08:40:54Z</time>
      </trkpt>
      <trkpt lat="42.93559" lon="0.30094">
        <ele>1137.66051</ele>
        <time>2024-01-12T08:40:55Z</time>
      </trkpt>
      <trkpt lat="42.93561" lon="0.30096">
        <ele>1138.18848</ele>
        <time>2024-01-12T08:40:57Z</time>
      </trkpt>
      <trkpt lat="42.93562" lon="0.30097">
        <ele>1138.31947</ele>
        <time>2024-01-12T08:40:58Z</time>
      </trkpt>
      <trkpt lat="42.93564" lon="0.30098">
        <ele>1137.84011</ele>
        <time>2024-01-12T08:41:00Z</time>
      </trkpt>
      <trkpt lat="42.93564" lon="0.30098">
        <ele>1137.72593</ele>
        <time>2024-01-12T08:41:01Z</time>
      </trkpt>
      <trkpt lat="42.93565" lon="0.30099">
        <ele>1138.52338</ele>
        <time>2024-01-12T08:41:02Z</time>
      </trkpt>
      <trkpt lat="42.93566" lon="0.301">
        <ele>1139.62683</ele>
        <time>2024-01-12T08:41:03Z</time>
      </trkpt>
      <trkpt lat="42.93567" lon="0.301">
        <ele>1137.40629</ele>
        <time>2024-01-12T08:41:04Z</time>
      </trkpt>
      <trkpt lat="42.93568" lon="0.301">
        <ele>1137.6452</ele>
        <time>2024-01-12T08:41:05Z</time>
      </trkpt>
      <trkpt lat="42.9357" lon="0.301">
        <ele>1137.25822</ele>
        <time>2024-01-12T08:41:06Z</time>
      </trkpt>
      <trkpt lat="42.93571" lon="0.301">
        <ele>1136.95965</ele>
        <time>2024-01-12T08:41:07Z</time>
      </trkpt>
      <trkpt lat="42.93572" lon="0.30101">
        <ele>1136.92073</ele>
        <time>2024-01-12T08:41:08Z</time>
      </trkpt>
      <trkpt lat="42.93573" lon="0.30102">
        <ele>1136.49589</ele>
        <time>2024-01-12T08:41:10Z</time>
      </trkpt>
      <trkpt lat="42.93575" lon="0.30103">
        <ele>1137.00802</ele>
        <time>2024-01-12T08:41:12Z</time>
      </trkpt>
      <trkpt lat="42.93576" lon="0.30104">
        <ele>1137.1956</ele>
        <time>2024-01-12T08:41:14Z</time>
      </trkpt>
      <trkpt lat="42.93577" lon="0.30105">
        <ele>1137.37743</ele>
        <time>2024-01-12T08:41:15Z</time>
      </trkpt>
      <trkpt lat="42.93578" lon="0.30106">
        <ele>1137.42054</ele>
        <time>2024-01-12T08:41:17Z</time>
      </trkpt>
      <trkpt lat="42.93579" lon="0.30107">
        <ele>1139.16869</ele>
        <time>2024-01-12T08:41:25Z</time>
      </trkpt>
      <trkpt lat="42.93579" lon="0.30108">
        <ele>1139.17682</ele>
        <time>2024-01-12T08:41:26Z</time>
      </trkpt>
      <trkpt lat="42.9358" lon="0.30108">
        <ele>1139.47751</ele>
        <time>2024-01-12T08:41:27Z</time>
      </trkpt>
      <trkpt lat="42.93581" lon="0.3011">
        <ele>1140.86568</ele>
        <time>2024-01-12T08:41:28Z</time>
      </trkpt>
      <trkpt lat="42.93582" lon="0.30113">
        <ele>1141.59476</ele>
        <time>2024-01-12T08:41:30Z</time>
      </trkpt>
      <trkpt lat="42.93582" lon="0.30116">
        <ele>1142.37094</ele>
        <time>2024-01-12T08:41:32Z</time>
      </trkpt>
      <trkpt lat="42.93582" lon="0.30118">
        <ele>1140.80076</ele>
        <time>2024-01-12T08:41:35Z</time>
      </trkpt>
      <trkpt lat="42.93582" lon="0.3012">
        <ele>1141.07365</ele>
        <time>2024-01-12T08:41:36Z</time>
      </trkpt>
      <trkpt lat="42.93583" lon="0.30123">
        <ele>1141.35967</ele>
        <time>2024-01-12T08:41:37Z</time>
      </trkpt>
      <trkpt lat="42.93583" lon="0.30125">
        <ele>1140.36307</ele>
        <time>2024-01-12T08:41:39Z</time>
      </trkpt>
      <trkpt lat="42.93585" lon="0.30126">
        <ele>1140.29932</ele>
        <time>2024-01-12T08:41:41Z</time>
      </trkpt>
      <trkpt lat="42.93586" lon="0.30128">
        <ele>1140.59407</ele>
        <time>2024-01-12T08:41:42Z</time>
      </trkpt>
      <trkpt lat="42.93586" lon="0.3013">
        <ele>1140.0386</ele>
        <time>2024-01-12T08:41:44Z</time>
      </trkpt>
      <trkpt lat="42.93587" lon="0.30131">
        <ele>1139.99009</ele>
        <time>2024-01-12T08:41:45Z</time>
      </trkpt>
      <trkpt lat="42.93588" lon="0.30133">
        <ele>1139.8634</ele>
        <time>2024-01-12T08:41:46Z</time>
      </trkpt>
      <trkpt lat="42.93588" lon="0.30134">
        <ele>1139.31956</ele>
        <time>2024-01-12T08:41:47Z</time>
      </trkpt>
      <trkpt lat="42.93587" lon="0.30135">
        <ele>1139.60112</ele>
        <time>2024-01-12T08:41:48Z</time>
      </trkpt>
      <trkpt lat="42.93588" lon="0.30136">
        <ele>1139.60483</ele>
        <time>2024-01-12T08:41:49Z</time>
      </trkpt>
      <trkpt lat="42.93588" lon="0.30138">
        <ele>1139.54489</ele>
        <time>2024-01-12T08:41:50Z</time>
      </trkpt>
      <trkpt lat="42.93588" lon="0.30139">
        <ele>1140.03777</ele>
        <time>2024-01-12T08:41:51Z</time>
      </trkpt>
      <trkpt lat="42.93589" lon="0.3014">
        <ele>1140.43475</ele>
        <time>2024-01-12T08:41:52Z</time>
      </trkpt>
      <trkpt lat="42.93589" lon="0.30143">
        <ele>1139.82589</ele>
        <time>2024-01-12T08:41:54Z</time>
      </trkpt>
      <trkpt lat="42.9359" lon="0.30145">
        <ele>1140.42537</ele>
        <time>2024-01-12T08:41:55Z</time>
      </trkpt>
      <trkpt lat="42.9359" lon="0.30147">
        <ele>1140.07749</ele>
        <time>2024-01-12T08:41:57Z</time>
      </trkpt>
      <trkpt lat="42.9359" lon="0.30149">
        <ele>1140.84046</ele>
        <time>2024-01-12T08:41:58Z</time>
      </trkpt>
      <trkpt lat="42.9359" lon="0.30153">
        <ele>1141.5983</ele>
        <time>2024-01-12T08:42:00Z</time>
      </trkpt>
      <trkpt lat="42.9359" lon="0.30154">
        <ele>1142.07346</ele>
        <time>2024-01-12T08:42:01Z</time>
      </trkpt>
      <trkpt lat="42.93591" lon="0.30155">
        <ele>1140.85089</ele>
        <time>2024-01-12T08:42:02Z</time>
      </trkpt>
      <trkpt lat="42.93591" lon="0.30157">
        <ele>1139.67767</ele>
        <time>2024-01-12T08:42:03Z</time>
      </trkpt>
      <trkpt lat="42.93592" lon="0.30159">
        <ele>1140.47873</ele>
        <time>2024-01-12T08:42:05Z</time>
      </trkpt>
      <trkpt lat="42.93593" lon="0.30159">
        <ele>1140.81362</ele>
        <time>2024-01-12T08:42:06Z</time>
      </trkpt>
      <trkpt lat="42.93594" lon="0.30161">
        <ele>1140.45302</ele>
        <time>2024-01-12T08:42:07Z</time>
      </trkpt>
      <trkpt lat="42.93594" lon="0.30163">
        <ele>1140.15449</ele>
        <time>2024-01-12T08:42:08Z</time>
      </trkpt>
      <trkpt lat="42.93595" lon="0.30164">
        <ele>1139.99145</ele>
        <time>2024-01-12T08:42:09Z</time>
      </trkpt>
      <trkpt lat="42.93595" lon="0.30165">
        <ele>1139.74301</ele>
        <time>2024-01-12T08:42:10Z</time>
      </trkpt>
      <trkpt lat="42.93595" lon="0.30167">
        <ele>1139.89359</ele>
        <time>2024-01-12T08:42:11Z</time>
      </trkpt>
      <trkpt lat="42.93595" lon="0.30168">
        <ele>1140.5442</ele>
        <time>2024-01-12T08:42:12Z</time>
      </trkpt>
      <trkpt lat="42.93596" lon="0.3017">
        <ele>1139.72972</ele>
        <time>2024-01-12T08:42:13Z</time>
      </trkpt>
      <trkpt lat="42.93596" lon="0.30171">
        <ele>1140.15008</ele>
        <time>2024-01-12T08:42:14Z</time>
      </trkpt>
      <trkpt lat="42.93597" lon="0.30173">
        <ele>1141.38586</ele>
        <time>2024-01-12T08:42:15Z</time>
      </trkpt>
      <trkpt lat="42.93597" lon="0.30176">
        <ele>1141.98569</ele>
        <time>2024-01-12T08:42:17Z</time>
      </trkpt>
      <trkpt lat="42.93597" lon="0.30178">
        <ele>1141.90176</ele>
        <time>2024-01-12T08:42:18Z</time>
      </trkpt>
      <trkpt lat="42.93597" lon="0.30179">
        <ele>1140.30187</ele>
        <time>2024-01-12T08:42:19Z</time>
      </trkpt>
      <trkpt lat="42.93598" lon="0.30181">
        <ele>1140.45035</ele>
        <time>2024-01-12T08:42:20Z</time>
      </trkpt>
      <trkpt lat="42.93599" lon="0.30183">
        <ele>1141.28545</ele>
        <time>2024-01-12T08:42:22Z</time>
      </trkpt>
      <trkpt lat="42.936" lon="0.30184">
        <ele>1141.78022</ele>
        <time>2024-01-12T08:42:23Z</time>
      </trkpt>
      <trkpt lat="42.936" lon="0.30186">
        <ele>1141.38448</ele>
        <time>2024-01-12T08:42:24Z</time>
      </trkpt>
      <trkpt lat="42.936" lon="0.30188">
        <ele>1141.65008</ele>
        <time>2024-01-12T08:42:25Z</time>
      </trkpt>
      <trkpt lat="42.93599" lon="0.30189">
        <ele>1142.34947</ele>
        <time>2024-01-12T08:42:26Z</time>
      </trkpt>
      <trkpt lat="42.93601" lon="0.30191">
        <ele>1141.7691</ele>
        <time>2024-01-12T08:42:27Z</time>
      </trkpt>
      <trkpt lat="42.93602" lon="0.30192">
        <ele>1141.64955</ele>
        <time>2024-01-12T08:42:29Z</time>
      </trkpt>
      <trkpt lat="42.93602" lon="0.30194">
        <ele>1142.20802</ele>
        <time>2024-01-12T08:42:31Z</time>
      </trkpt>
      <trkpt lat="42.93603" lon="0.30195">
        <ele>1142.44755</ele>
        <time>2024-01-12T08:42:32Z</time>
      </trkpt>
      <trkpt lat="42.93604" lon="0.30197">
        <ele>1143.88637</ele>
        <time>2024-01-12T08:42:33Z</time>
      </trkpt>
      <trkpt lat="42.93604" lon="0.30199">
        <ele>1143.19538</ele>
        <time>2024-01-12T08:42:34Z</time>
      </trkpt>
      <trkpt lat="42.93605" lon="0.302">
        <ele>1144.06851</ele>
        <time>2024-01-12T08:42:35Z</time>
      </trkpt>
      <trkpt lat="42.93606" lon="0.30202">
        <ele>1144.45687</ele>
        <time>2024-01-12T08:42:37Z</time>
      </trkpt>
      <trkpt lat="42.93607" lon="0.30204">
        <ele>1144.11304</ele>
        <time>2024-01-12T08:42:39Z</time>
      </trkpt>
      <trkpt lat="42.93607" lon="0.30205">
        <ele>1143.83339</ele>
        <time>2024-01-12T08:42:40Z</time>
      </trkpt>
      <trkpt lat="42.93608" lon="0.30207">
        <ele>1144.58182</ele>
        <time>2024-01-12T08:42:41Z</time>
      </trkpt>
      <trkpt lat="42.9361" lon="0.30209">
        <ele>1143.85216</ele>
        <time>2024-01-12T08:42:44Z</time>
      </trkpt>
      <trkpt lat="42.93611" lon="0.30212">
        <ele>1143.93655</ele>
        <time>2024-01-12T08:42:45Z</time>
      </trkpt>
      <trkpt lat="42.93612" lon="0.30212">
        <ele>1145.73234</ele>
        <time>2024-01-12T08:42:46Z</time>
      </trkpt>
      <trkpt lat="42.93613" lon="0.30214">
        <ele>1148.09022</ele>
        <time>2024-01-12T08:42:48Z</time>
      </trkpt>
      <trkpt lat="42.93613" lon="0.30215">
        <ele>1147.85869</ele>
        <time>2024-01-12T08:42:49Z</time>
      </trkpt>
      <trkpt lat="42.93614" lon="0.30217">
        <ele>1145.28237</ele>
        <time>2024-01-12T08:42:51Z</time>
      </trkpt>
      <trkpt lat="42.93614" lon="0.30218">
        <ele>1144.60673</ele>
        <time>2024-01-12T08:42:52Z</time>
      </trkpt>
      <trkpt lat="42.93616" lon="0.30221">
        <ele>1143.51303</ele>
        <time>2024-01-12T08:42:54Z</time>
      </trkpt>
      <trkpt lat="42.93618" lon="0.30222">
        <ele>1144.02547</ele>
        <time>2024-01-12T08:42:56Z</time>
      </trkpt>
      <trkpt lat="42.93619" lon="0.30225">
        <ele>1142.36019</ele>
        <time>2024-01-12T08:42:58Z</time>
      </trkpt>
      <trkpt lat="42.9362" lon="0.30226">
        <ele>1143.80435</ele>
        <time>2024-01-12T08:42:59Z</time>
      </trkpt>
      <trkpt lat="42.93622" lon="0.30228">
        <ele>1143.88887</ele>
        <time>2024-01-12T08:43:01Z</time>
      </trkpt>
      <trkpt lat="42.93622" lon="0.3023">
        <ele>1143.11445</ele>
        <time>2024-01-12T08:43:03Z</time>
      </trkpt>
      <trkpt lat="42.93623" lon="0.30232">
        <ele>1142.95122</ele>
        <time>2024-01-12T08:43:04Z</time>
      </trkpt>
      <trkpt lat="42.93624" lon="0.30233">
        <ele>1145.08601</ele>
        <time>2024-01-12T08:43:05Z</time>
      </trkpt>
      <trkpt lat="42.93624" lon="0.30235">
        <ele>1144.81821</ele>
        <time>2024-01-12T08:43:06Z</time>
      </trkpt>
      <trkpt lat="42.93625" lon="0.30237">
        <ele>1143.65054</ele>
        <time>2024-01-12T08:43:07Z</time>
      </trkpt>
      <trkpt lat="42.93625" lon="0.30238">
        <ele>1145.39523</ele>
        <time>2024-01-12T08:43:08Z</time>
      </trkpt>
      <trkpt lat="42.93626" lon="0.3024">
        <ele>1146.02643</ele>
        <time>2024-01-12T08:43:09Z</time>
      </trkpt>
      <trkpt lat="42.93628" lon="0.30242">
        <ele>1146.65187</ele>
        <time>2024-01-12T08:43:11Z</time>
      </trkpt>
      <trkpt lat="42.9363" lon="0.30242">
        <ele>1146.44465</ele>
        <time>2024-01-12T08:43:12Z</time>
      </trkpt>
      <trkpt lat="42.9363" lon="0.30244">
        <ele>1145.85854</ele>
        <time>2024-01-12T08:43:14Z</time>
      </trkpt>
      <trkpt lat="42.9363" lon="0.30246">
        <ele>1144.47213</ele>
        <time>2024-01-12T08:43:15Z</time>
      </trkpt>
      <trkpt lat="42.93632" lon="0.30247">
        <ele>1146.32515</ele>
        <time>2024-01-12T08:43:17Z</time>
      </trkpt>
      <trkpt lat="42.93633" lon="0.30248">
        <ele>1144.60073</ele>
        <time>2024-01-12T08:43:19Z</time>
      </trkpt>
      <trkpt lat="42.93633" lon="0.3025">
        <ele>1145.00435</ele>
        <time>2024-01-12T08:43:20Z</time>
      </trkpt>
      <trkpt lat="42.93634" lon="0.30251">
        <ele>1142.76389</ele>
        <time>2024-01-12T08:43:22Z</time>
      </trkpt>
      <trkpt lat="42.93635" lon="0.30252">
        <ele>1143.73825</ele>
        <time>2024-01-12T08:43:23Z</time>
      </trkpt>
      <trkpt lat="42.93636" lon="0.30254">
        <ele>1146.49181</ele>
        <time>2024-01-12T08:43:24Z</time>
      </trkpt>
      <trkpt lat="42.93637" lon="0.30255">
        <ele>1146.21875</ele>
        <time>2024-01-12T08:43:25Z</time>
      </trkpt>
      <trkpt lat="42.93638" lon="0.30256">
        <ele>1146.04818</ele>
        <time>2024-01-12T08:43:27Z</time>
      </trkpt>
      <trkpt lat="42.93639" lon="0.30257">
        <ele>1146.80079</ele>
        <time>2024-01-12T08:43:29Z</time>
      </trkpt>
      <trkpt lat="42.93639" lon="0.30259">
        <ele>1145.55938</ele>
        <time>2024-01-12T08:43:31Z</time>
      </trkpt>
      <trkpt lat="42.93641" lon="0.3026">
        <ele>1145.36091</ele>
        <time>2024-01-12T08:43:32Z</time>
      </trkpt>
      <trkpt lat="42.93642" lon="0.30262">
        <ele>1145.48405</ele>
        <time>2024-01-12T08:43:34Z</time>
      </trkpt>
      <trkpt lat="42.93643" lon="0.30263">
        <ele>1145.25031</ele>
        <time>2024-01-12T08:43:35Z</time>
      </trkpt>
      <trkpt lat="42.93645" lon="0.30264">
        <ele>1146.25433</ele>
        <time>2024-01-12T08:43:37Z</time>
      </trkpt>
      <trkpt lat="42.93646" lon="0.30265">
        <ele>1146.59033</ele>
        <time>2024-01-12T08:43:38Z</time>
      </trkpt>
      <trkpt lat="42.93647" lon="0.30267">
        <ele>1145.94665</ele>
        <time>2024-01-12T08:43:40Z</time>
      </trkpt>
      <trkpt lat="42.93648" lon="0.30268">
        <ele>1146.93631</ele>
        <time>2024-01-12T08:43:41Z</time>
      </trkpt>
      <trkpt lat="42.93649" lon="0.30269">
        <ele>1146.93921</ele>
        <time>2024-01-12T08:43:42Z</time>
      </trkpt>
      <trkpt lat="42.9365" lon="0.3027">
        <ele>1146.51762</ele>
        <time>2024-01-12T08:43:43Z</time>
      </trkpt>
      <trkpt lat="42.93651" lon="0.30271">
        <ele>1146.75458</ele>
        <time>2024-01-12T08:43:45Z</time>
      </trkpt>
      <trkpt lat="42.93652" lon="0.30272">
        <ele>1147.01466</ele>
        <time>2024-01-12T08:43:46Z</time>
      </trkpt>
      <trkpt lat="42.93654" lon="0.30273">
        <ele>1147.20956</ele>
        <time>2024-01-12T08:43:47Z</time>
      </trkpt>
      <trkpt lat="42.93654" lon="0.30274">
        <ele>1146.38357</ele>
        <time>2024-01-12T08:43:48Z</time>
      </trkpt>
      <trkpt lat="42.93655" lon="0.30275">
        <ele>1147.23299</ele>
        <time>2024-01-12T08:43:50Z</time>
      </trkpt>
      <trkpt lat="42.93656" lon="0.30276">
        <ele>1146.68254</ele>
        <time>2024-01-12T08:43:51Z</time>
      </trkpt>
      <trkpt lat="42.93657" lon="0.30277">
        <ele>1144.11847</ele>
        <time>2024-01-12T08:43:53Z</time>
      </trkpt>
      <trkpt lat="42.93659" lon="0.30278">
        <ele>1145.10082</ele>
        <time>2024-01-12T08:43:55Z</time>
      </trkpt>
      <trkpt lat="42.9366" lon="0.30278">
        <ele>1144.38666</ele>
        <time>2024-01-12T08:43:56Z</time>
      </trkpt>
      <trkpt lat="42.93661" lon="0.30279">
        <ele>1143.86669</ele>
        <time>2024-01-12T08:43:58Z</time>
      </trkpt>
      <trkpt lat="42.93662" lon="0.3028">
        <ele>1144.2326</ele>
        <time>2024-01-12T08:43:59Z</time>
      </trkpt>
      <trkpt lat="42.93664" lon="0.3028">
        <ele>1143.2102</ele>
        <time>2024-01-12T08:44:00Z</time>
      </trkpt>
      <trkpt lat="42.93665" lon="0.30282">
        <ele>1144.47311</ele>
        <time>2024-01-12T08:44:01Z</time>
      </trkpt>
      <trkpt lat="42.93668" lon="0.30283">
        <ele>1144.62613</ele>
        <time>2024-01-12T08:44:04Z</time>
      </trkpt>
      <trkpt lat="42.93669" lon="0.30284">
        <ele>1144.17582</ele>
        <time>2024-01-12T08:44:05Z</time>
      </trkpt>
      <trkpt lat="42.9367" lon="0.30285">
        <ele>1146.31622</ele>
        <time>2024-01-12T08:44:06Z</time>
      </trkpt>
      <trkpt lat="42.93671" lon="0.30286">
        <ele>1147.69749</ele>
        <time>2024-01-12T08:44:07Z</time>
      </trkpt>
      <trkpt lat="42.93671" lon="0.30285">
        <ele>1147.30027</ele>
        <time>2024-01-12T08:44:09Z</time>
      </trkpt>
      <trkpt lat="42.93673" lon="0.30287">
        <ele>1146.54332</ele>
        <time>2024-01-12T08:44:11Z</time>
      </trkpt>
      <trkpt lat="42.93674" lon="0.30288">
        <ele>1144.88652</ele>
        <time>2024-01-12T08:44:12Z</time>
      </trkpt>
      <trkpt lat="42.93674" lon="0.3029">
        <ele>1144.71403</ele>
        <time>2024-01-12T08:44:13Z</time>
      </trkpt>
      <trkpt lat="42.93675" lon="0.30291">
        <ele>1144.62426</ele>
        <time>2024-01-12T08:44:14Z</time>
      </trkpt>
      <trkpt lat="42.93675" lon="0.30293">
        <ele>1145.88106</ele>
        <time>2024-01-12T08:44:15Z</time>
      </trkpt>
      <trkpt lat="42.93676" lon="0.30294">
        <ele>1146.89131</ele>
        <time>2024-01-12T08:44:16Z</time>
      </trkpt>
      <trkpt lat="42.93677" lon="0.30295">
        <ele>1147.00979</ele>
        <time>2024-01-12T08:44:18Z</time>
      </trkpt>
      <trkpt lat="42.93678" lon="0.30297">
        <ele>1146.89234</ele>
        <time>2024-01-12T08:44:19Z</time>
      </trkpt>
      <trkpt lat="42.93679" lon="0.30298">
        <ele>1146.43896</ele>
        <time>2024-01-12T08:44:21Z</time>
      </trkpt>
      <trkpt lat="42.9368" lon="0.30299">
        <ele>1144.81569</ele>
        <time>2024-01-12T08:44:23Z</time>
      </trkpt>
      <trkpt lat="42.93679" lon="0.30298">
        <ele>1145.12389</ele>
        <time>2024-01-12T08:44:25Z</time>
      </trkpt>
      <trkpt lat="42.93682" lon="0.30298">
        <ele>1142.54281</ele>
        <time>2024-01-12T08:44:40Z</time>
      </trkpt>
      <trkpt lat="42.93681" lon="0.30296">
        <ele>1140.86792</ele>
        <time>2024-01-12T08:44:56Z</time>
      </trkpt>
      <trkpt lat="42.93681" lon="0.30297">
        <ele>1140.5379</ele>
        <time>2024-01-12T08:44:57Z</time>
      </trkpt>
      <trkpt lat="42.93682" lon="0.30299">
        <ele>1141.0062</ele>
        <time>2024-01-12T08:44:58Z</time>
      </trkpt>
      <trkpt lat="42.93683" lon="0.303">
        <ele>1141.94593</ele>
        <time>2024-01-12T08:44:59Z</time>
      </trkpt>
      <trkpt lat="42.93684" lon="0.30303">
        <ele>1143.06125</ele>
        <time>2024-01-12T08:45:02Z</time>
      </trkpt>
      <trkpt lat="42.93685" lon="0.30304">
        <ele>1145.18336</ele>
        <time>2024-01-12T08:45:03Z</time>
      </trkpt>
      <trkpt lat="42.93685" lon="0.30305">
        <ele>1146.1537</ele>
        <time>2024-01-12T08:45:04Z</time>
      </trkpt>
      <trkpt lat="42.93686" lon="0.30307">
        <ele>1146.85131</ele>
        <time>2024-01-12T08:45:05Z</time>
      </trkpt>
      <trkpt lat="42.93686" lon="0.30308">
        <ele>1145.30959</ele>
        <time>2024-01-12T08:45:06Z</time>
      </trkpt>
      <trkpt lat="42.93687" lon="0.30311">
        <ele>1144.56688</ele>
        <time>2024-01-12T08:45:09Z</time>
      </trkpt>
      <trkpt lat="42.93688" lon="0.30312">
        <ele>1144.22263</ele>
        <time>2024-01-12T08:45:10Z</time>
      </trkpt>
      <trkpt lat="42.93689" lon="0.30313">
        <ele>1144.69856</ele>
        <time>2024-01-12T08:45:11Z</time>
      </trkpt>
      <trkpt lat="42.9369" lon="0.30315">
        <ele>1143.49157</ele>
        <time>2024-01-12T08:45:13Z</time>
      </trkpt>
      <trkpt lat="42.9369" lon="0.30316">
        <ele>1143.80791</ele>
        <time>2024-01-12T08:45:14Z</time>
      </trkpt>
      <trkpt lat="42.93692" lon="0.30317">
        <ele>1144.15244</ele>
        <time>2024-01-12T08:45:15Z</time>
      </trkpt>
      <trkpt lat="42.93693" lon="0.30317">
        <ele>1145.02527</ele>
        <time>2024-01-12T08:45:16Z</time>
      </trkpt>
      <trkpt lat="42.93693" lon="0.3032">
        <ele>1143.16664</ele>
        <time>2024-01-12T08:45:18Z</time>
      </trkpt>
      <trkpt lat="42.93693" lon="0.30321">
        <ele>1143.77192</ele>
        <time>2024-01-12T08:45:19Z</time>
      </trkpt>
      <trkpt lat="42.93694" lon="0.30322">
        <ele>1144.95381</ele>
        <time>2024-01-12T08:45:20Z</time>
      </trkpt>
      <trkpt lat="42.93695" lon="0.30323">
        <ele>1145.17122</ele>
        <time>2024-01-12T08:45:21Z</time>
      </trkpt>
      <trkpt lat="42.93696" lon="0.30326">
        <ele>1144.49318</ele>
        <time>2024-01-12T08:45:23Z</time>
      </trkpt>
      <trkpt lat="42.93696" lon="0.30328">
        <ele>1143.60427</ele>
        <time>2024-01-12T08:45:25Z</time>
      </trkpt>
      <trkpt lat="42.93696" lon="0.3033">
        <ele>1144.61043</ele>
        <time>2024-01-12T08:45:26Z</time>
      </trkpt>
      <trkpt lat="42.93697" lon="0.30332">
        <ele>1144.23134</ele>
        <time>2024-01-12T08:45:27Z</time>
      </trkpt>
      <trkpt lat="42.93697" lon="0.30334">
        <ele>1143.77326</ele>
        <time>2024-01-12T08:45:30Z</time>
      </trkpt>
      <trkpt lat="42.93698" lon="0.30336">
        <ele>1142.9105</ele>
        <time>2024-01-12T08:45:32Z</time>
      </trkpt>
      <trkpt lat="42.93699" lon="0.30336">
        <ele>1144.2883</ele>
        <time>2024-01-12T08:45:33Z</time>
      </trkpt>
      <trkpt lat="42.937" lon="0.30337">
        <ele>1145.68501</ele>
        <time>2024-01-12T08:45:34Z</time>
      </trkpt>
      <trkpt lat="42.93701" lon="0.30339">
        <ele>1145.34059</ele>
        <time>2024-01-12T08:45:35Z</time>
      </trkpt>
      <trkpt lat="42.93702" lon="0.3034">
        <ele>1145.74862</ele>
        <time>2024-01-12T08:45:37Z</time>
      </trkpt>
      <trkpt lat="42.93703" lon="0.30341">
        <ele>1145.63493</ele>
        <time>2024-01-12T08:45:38Z</time>
      </trkpt>
      <trkpt lat="42.93703" lon="0.30344">
        <ele>1146.27871</ele>
        <time>2024-01-12T08:45:40Z</time>
      </trkpt>
      <trkpt lat="42.93704" lon="0.30345">
        <ele>1146.22486</ele>
        <time>2024-01-12T08:45:41Z</time>
      </trkpt>
      <trkpt lat="42.93705" lon="0.30346">
        <ele>1146.37403</ele>
        <time>2024-01-12T08:45:42Z</time>
      </trkpt>
      <trkpt lat="42.93706" lon="0.30348">
        <ele>1147.52619</ele>
        <time>2024-01-12T08:45:44Z</time>
      </trkpt>
      <trkpt lat="42.93707" lon="0.30349">
        <ele>1147.91452</ele>
        <time>2024-01-12T08:45:46Z</time>
      </trkpt>
      <trkpt lat="42.93708" lon="0.30351">
        <ele>1147.25734</ele>
        <time>2024-01-12T08:45:47Z</time>
      </trkpt>
      <trkpt lat="42.93708" lon="0.30353">
        <ele>1149.38955</ele>
        <time>2024-01-12T08:45:49Z</time>
      </trkpt>
      <trkpt lat="42.93709" lon="0.30354">
        <ele>1148.37525</ele>
        <time>2024-01-12T08:45:51Z</time>
      </trkpt>
      <trkpt lat="42.9371" lon="0.30356">
        <ele>1149.58247</ele>
        <time>2024-01-12T08:45:53Z</time>
      </trkpt>
      <trkpt lat="42.9371" lon="0.30358">
        <ele>1149.36478</ele>
        <time>2024-01-12T08:45:55Z</time>
      </trkpt>
      <trkpt lat="42.93711" lon="0.30359">
        <ele>1147.63279</ele>
        <time>2024-01-12T08:45:57Z</time>
      </trkpt>
      <trkpt lat="42.93711" lon="0.30361">
        <ele>1148.92193</ele>
        <time>2024-01-12T08:45:58Z</time>
      </trkpt>
      <trkpt lat="42.93712" lon="0.30363">
        <ele>1149.18996</ele>
        <time>2024-01-12T08:46:00Z</time>
      </trkpt>
      <trkpt lat="42.93713" lon="0.30364">
        <ele>1149.38819</ele>
        <time>2024-01-12T08:46:01Z</time>
      </trkpt>
      <trkpt lat="42.93713" lon="0.30365">
        <ele>1150.4405</ele>
        <time>2024-01-12T08:46:02Z</time>
      </trkpt>
      <trkpt lat="42.93714" lon="0.30368">
        <ele>1148.90782</ele>
        <time>2024-01-12T08:46:04Z</time>
      </trkpt>
      <trkpt lat="42.93715" lon="0.30369">
        <ele>1149.91369</ele>
        <time>2024-01-12T08:46:05Z</time>
      </trkpt>
      <trkpt lat="42.93715" lon="0.30371">
        <ele>1149.4818</ele>
        <time>2024-01-12T08:46:07Z</time>
      </trkpt>
      <trkpt lat="42.93716" lon="0.30373">
        <ele>1150.61897</ele>
        <time>2024-01-12T08:46:08Z</time>
      </trkpt>
      <trkpt lat="42.93717" lon="0.30374">
        <ele>1150.51505</ele>
        <time>2024-01-12T08:46:09Z</time>
      </trkpt>
      <trkpt lat="42.93717" lon="0.30377">
        <ele>1149.32086</ele>
        <time>2024-01-12T08:46:11Z</time>
      </trkpt>
      <trkpt lat="42.93718" lon="0.30379">
        <ele>1149.19604</ele>
        <time>2024-01-12T08:46:13Z</time>
      </trkpt>
      <trkpt lat="42.93718" lon="0.30381">
        <ele>1147.98257</ele>
        <time>2024-01-12T08:46:15Z</time>
      </trkpt>
      <trkpt lat="42.93718" lon="0.30383">
        <ele>1148.26003</ele>
        <time>2024-01-12T08:46:16Z</time>
      </trkpt>
      <trkpt lat="42.93719" lon="0.30385">
        <ele>1147.46112</ele>
        <time>2024-01-12T08:46:18Z</time>
      </trkpt>
      <trkpt lat="42.93719" lon="0.30386">
        <ele>1147.93005</ele>
        <time>2024-01-12T08:46:19Z</time>
      </trkpt>
      <trkpt lat="42.9372" lon="0.30388">
        <ele>1148.11576</ele>
        <time>2024-01-12T08:46:20Z</time>
      </trkpt>
      <trkpt lat="42.9372" lon="0.3039">
        <ele>1147.9309</ele>
        <time>2024-01-12T08:46:22Z</time>
      </trkpt>
      <trkpt lat="42.93721" lon="0.30393">
        <ele>1148.76277</ele>
        <time>2024-01-12T08:46:24Z</time>
      </trkpt>
      <trkpt lat="42.93722" lon="0.30393">
        <ele>1148.8441</ele>
        <time>2024-01-12T08:46:25Z</time>
      </trkpt>
      <trkpt lat="42.93723" lon="0.30394">
        <ele>1149.37509</ele>
        <time>2024-01-12T08:46:26Z</time>
      </trkpt>
      <trkpt lat="42.93724" lon="0.30396">
        <ele>1149.373</ele>
        <time>2024-01-12T08:46:27Z</time>
      </trkpt>
      <trkpt lat="42.93724" lon="0.30398">
        <ele>1148.20177</ele>
        <time>2024-01-12T08:46:28Z</time>
      </trkpt>
      <trkpt lat="42.93724" lon="0.30399">
        <ele>1148.80841</ele>
        <time>2024-01-12T08:46:29Z</time>
      </trkpt>
      <trkpt lat="42.93725" lon="0.30401">
        <ele>1149.55634</ele>
        <time>2024-01-12T08:46:31Z</time>
      </trkpt>
      <trkpt lat="42.93725" lon="0.30402">
        <ele>1148.01589</ele>
        <time>2024-01-12T08:46:32Z</time>
      </trkpt>
      <trkpt lat="42.93725" lon="0.30404">
        <ele>1148.91652</ele>
        <time>2024-01-12T08:46:34Z</time>
      </trkpt>
      <trkpt lat="42.93727" lon="0.30407">
        <ele>1148.64475</ele>
        <time>2024-01-12T08:46:35Z</time>
      </trkpt>
      <trkpt lat="42.93727" lon="0.30409">
        <ele>1149.83669</ele>
        <time>2024-01-12T08:46:38Z</time>
      </trkpt>
      <trkpt lat="42.93728" lon="0.30412">
        <ele>1149.99352</ele>
        <time>2024-01-12T08:46:40Z</time>
      </trkpt>
      <trkpt lat="42.93728" lon="0.30413">
        <ele>1150.21712</ele>
        <time>2024-01-12T08:46:41Z</time>
      </trkpt>
      <trkpt lat="42.93729" lon="0.30415">
        <ele>1148.40628</ele>
        <time>2024-01-12T08:46:43Z</time>
      </trkpt>
      <trkpt lat="42.93729" lon="0.30416">
        <ele>1149.63173</ele>
        <time>2024-01-12T08:46:44Z</time>
      </trkpt>
      <trkpt lat="42.9373" lon="0.30417">
        <ele>1149.63809</ele>
        <time>2024-01-12T08:46:45Z</time>
      </trkpt>
      <trkpt lat="42.9373" lon="0.30419">
        <ele>1149.24118</ele>
        <time>2024-01-12T08:46:46Z</time>
      </trkpt>
      <trkpt lat="42.9373" lon="0.30421">
        <ele>1150.26294</ele>
        <time>2024-01-12T08:46:48Z</time>
      </trkpt>
      <trkpt lat="42.93731" lon="0.30423">
        <ele>1149.71452</ele>
        <time>2024-01-12T08:46:50Z</time>
      </trkpt>
      <trkpt lat="42.93731" lon="0.30425">
        <ele>1150.83346</ele>
        <time>2024-01-12T08:46:51Z</time>
      </trkpt>
      <trkpt lat="42.93733" lon="0.30426">
        <ele>1152.18165</ele>
        <time>2024-01-12T08:46:52Z</time>
      </trkpt>
      <trkpt lat="42.93733" lon="0.30427">
        <ele>1151.91384</ele>
        <time>2024-01-12T08:46:53Z</time>
      </trkpt>
      <trkpt lat="42.93734" lon="0.30428">
        <ele>1152.03156</ele>
        <time>2024-01-12T08:46:54Z</time>
      </trkpt>
      <trkpt lat="42.93733" lon="0.3043">
        <ele>1149.96207</ele>
        <time>2024-01-12T08:46:56Z</time>
      </trkpt>
      <trkpt lat="42.93735" lon="0.30431">
        <ele>1150.91607</ele>
        <time>2024-01-12T08:46:58Z</time>
      </trkpt>
      <trkpt lat="42.93735" lon="0.30433">
        <ele>1150.80817</ele>
        <time>2024-01-12T08:46:59Z</time>
      </trkpt>
      <trkpt lat="42.93736" lon="0.30434">
        <ele>1150.71235</ele>
        <time>2024-01-12T08:47:00Z</time>
      </trkpt>
      <trkpt lat="42.93737" lon="0.30434">
        <ele>1150.60747</ele>
        <time>2024-01-12T08:47:01Z</time>
      </trkpt>
      <trkpt lat="42.93737" lon="0.30436">
        <ele>1151.73838</ele>
        <time>2024-01-12T08:47:03Z</time>
      </trkpt>
      <trkpt lat="42.93738" lon="0.30437">
        <ele>1151.17848</ele>
        <time>2024-01-12T08:47:04Z</time>
      </trkpt>
      <trkpt lat="42.93738" lon="0.30439">
        <ele>1150.6092</ele>
        <time>2024-01-12T08:47:05Z</time>
      </trkpt>
      <trkpt lat="42.93738" lon="0.3044">
        <ele>1152.22225</ele>
        <time>2024-01-12T08:47:06Z</time>
      </trkpt>
      <trkpt lat="42.93738" lon="0.30441">
        <ele>1152.50119</ele>
        <time>2024-01-12T08:47:07Z</time>
      </trkpt>
      <trkpt lat="42.93739" lon="0.30442">
        <ele>1152.04184</ele>
        <time>2024-01-12T08:47:08Z</time>
      </trkpt>
      <trkpt lat="42.93739" lon="0.30444">
        <ele>1152.5424</ele>
        <time>2024-01-12T08:47:10Z</time>
      </trkpt>
      <trkpt lat="42.9374" lon="0.30445">
        <ele>1153.54839</ele>
        <time>2024-01-12T08:47:11Z</time>
      </trkpt>
      <trkpt lat="42.9374" lon="0.30448">
        <ele>1152.17305</ele>
        <time>2024-01-12T08:47:12Z</time>
      </trkpt>
      <trkpt lat="42.9374" lon="0.30449">
        <ele>1153.27299</ele>
        <time>2024-01-12T08:47:14Z</time>
      </trkpt>
      <trkpt lat="42.9374" lon="0.3045">
        <ele>1153.16886</ele>
        <time>2024-01-12T08:47:15Z</time>
      </trkpt>
      <trkpt lat="42.93741" lon="0.30453">
        <ele>1152.66176</ele>
        <time>2024-01-12T08:47:17Z</time>
      </trkpt>
      <trkpt lat="42.93743" lon="0.30454">
        <ele>1152.77955</ele>
        <time>2024-01-12T08:47:19Z</time>
      </trkpt>
      <trkpt lat="42.93743" lon="0.30456">
        <ele>1152.91486</ele>
        <time>2024-01-12T08:47:20Z</time>
      </trkpt>
      <trkpt lat="42.93743" lon="0.30457">
        <ele>1152.81549</ele>
        <time>2024-01-12T08:47:22Z</time>
      </trkpt>
      <trkpt lat="42.93743" lon="0.3046">
        <ele>1152.44543</ele>
        <time>2024-01-12T08:47:24Z</time>
      </trkpt>
      <trkpt lat="42.93744" lon="0.30461">
        <ele>1152.56434</ele>
        <time>2024-01-12T08:47:25Z</time>
      </trkpt>
      <trkpt lat="42.93745" lon="0.30463">
        <ele>1152.55248</ele>
        <time>2024-01-12T08:47:28Z</time>
      </trkpt>
      <trkpt lat="42.93745" lon="0.30465">
        <ele>1152.86044</ele>
        <time>2024-01-12T08:47:29Z</time>
      </trkpt>
      <trkpt lat="42.93745" lon="0.30467">
        <ele>1152.64619</ele>
        <time>2024-01-12T08:47:30Z</time>
      </trkpt>
      <trkpt lat="42.93745" lon="0.30468">
        <ele>1152.10037</ele>
        <time>2024-01-12T08:47:31Z</time>
      </trkpt>
      <trkpt lat="42.93745" lon="0.30471">
        <ele>1151.09147</ele>
        <time>2024-01-12T08:47:32Z</time>
      </trkpt>
      <trkpt lat="42.93745" lon="0.30472">
        <ele>1151.51555</ele>
        <time>2024-01-12T08:47:33Z</time>
      </trkpt>
      <trkpt lat="42.93747" lon="0.30475">
        <ele>1152.18183</ele>
        <time>2024-01-12T08:47:35Z</time>
      </trkpt>
      <trkpt lat="42.93747" lon="0.30476">
        <ele>1151.98027</ele>
        <time>2024-01-12T08:47:36Z</time>
      </trkpt>
      <trkpt lat="42.93748" lon="0.30478">
        <ele>1151.46052</ele>
        <time>2024-01-12T08:47:37Z</time>
      </trkpt>
      <trkpt lat="42.93748" lon="0.30481">
        <ele>1150.59553</ele>
        <time>2024-01-12T08:47:40Z</time>
      </trkpt>
      <trkpt lat="42.9375" lon="0.30482">
        <ele>1152.2071</ele>
        <time>2024-01-12T08:47:42Z</time>
      </trkpt>
      <trkpt lat="42.93751" lon="0.30483">
        <ele>1152.81082</ele>
        <time>2024-01-12T08:47:43Z</time>
      </trkpt>
      <trkpt lat="42.93751" lon="0.30486">
        <ele>1153.65611</ele>
        <time>2024-01-12T08:47:45Z</time>
      </trkpt>
      <trkpt lat="42.93752" lon="0.30488">
        <ele>1154.32535</ele>
        <time>2024-01-12T08:47:46Z</time>
      </trkpt>
      <trkpt lat="42.93752" lon="0.30489">
        <ele>1153.40029</ele>
        <time>2024-01-12T08:47:48Z</time>
      </trkpt>
      <trkpt lat="42.93753" lon="0.30492">
        <ele>1155.77105</ele>
        <time>2024-01-12T08:47:50Z</time>
      </trkpt>
      <trkpt lat="42.93754" lon="0.30494">
        <ele>1155.16571</ele>
        <time>2024-01-12T08:47:52Z</time>
      </trkpt>
      <trkpt lat="42.93754" lon="0.30495">
        <ele>1155.87178</ele>
        <time>2024-01-12T08:47:53Z</time>
      </trkpt>
      <trkpt lat="42.93756" lon="0.30497">
        <ele>1156.04454</ele>
        <time>2024-01-12T08:47:54Z</time>
      </trkpt>
      <trkpt lat="42.93755" lon="0.30498">
        <ele>1156.09199</ele>
        <time>2024-01-12T08:47:56Z</time>
      </trkpt>
      <trkpt lat="42.93756" lon="0.30499">
        <ele>1157.15261</ele>
        <time>2024-01-12T08:47:57Z</time>
      </trkpt>
      <trkpt lat="42.93757" lon="0.30501">
        <ele>1156.63667</ele>
        <time>2024-01-12T08:47:59Z</time>
      </trkpt>
      <trkpt lat="42.93757" lon="0.30503">
        <ele>1157.81184</ele>
        <time>2024-01-12T08:48:01Z</time>
      </trkpt>
      <trkpt lat="42.93757" lon="0.30504">
        <ele>1157.11699</ele>
        <time>2024-01-12T08:48:02Z</time>
      </trkpt>
      <trkpt lat="42.93758" lon="0.30507">
        <ele>1156.30314</ele>
        <time>2024-01-12T08:48:04Z</time>
      </trkpt>
      <trkpt lat="42.93759" lon="0.30509">
        <ele>1155.22112</ele>
        <time>2024-01-12T08:48:07Z</time>
      </trkpt>
      <trkpt lat="42.93759" lon="0.30511">
        <ele>1154.45332</ele>
        <time>2024-01-12T08:48:08Z</time>
      </trkpt>
      <trkpt lat="42.9376" lon="0.30512">
        <ele>1154.96806</ele>
        <time>2024-01-12T08:48:09Z</time>
      </trkpt>
      <trkpt lat="42.9376" lon="0.30514">
        <ele>1156.19734</ele>
        <time>2024-01-12T08:48:10Z</time>
      </trkpt>
      <trkpt lat="42.93761" lon="0.30515">
        <ele>1155.71422</ele>
        <time>2024-01-12T08:48:12Z</time>
      </trkpt>
      <trkpt lat="42.93761" lon="0.30516">
        <ele>1155.64637</ele>
        <time>2024-01-12T08:48:13Z</time>
      </trkpt>
      <trkpt lat="42.93763" lon="0.30518">
        <ele>1155.50065</ele>
        <time>2024-01-12T08:48:14Z</time>
      </trkpt>
      <trkpt lat="42.93763" lon="0.30519">
        <ele>1157.73243</ele>
        <time>2024-01-12T08:48:15Z</time>
      </trkpt>
      <trkpt lat="42.93763" lon="0.30521">
        <ele>1157.61708</ele>
        <time>2024-01-12T08:48:17Z</time>
      </trkpt>
      <trkpt lat="42.93764" lon="0.30522">
        <ele>1157.78301</ele>
        <time>2024-01-12T08:48:18Z</time>
      </trkpt>
      <trkpt lat="42.93765" lon="0.30524">
        <ele>1156.86211</ele>
        <time>2024-01-12T08:48:20Z</time>
      </trkpt>
      <trkpt lat="42.93766" lon="0.30526">
        <ele>1157.26458</ele>
        <time>2024-01-12T08:48:22Z</time>
      </trkpt>
      <trkpt lat="42.93766" lon="0.30529">
        <ele>1158.03949</ele>
        <time>2024-01-12T08:48:24Z</time>
      </trkpt>
      <trkpt lat="42.93767" lon="0.3053">
        <ele>1157.34906</ele>
        <time>2024-01-12T08:48:25Z</time>
      </trkpt>
      <trkpt lat="42.93767" lon="0.30532">
        <ele>1158.54269</ele>
        <time>2024-01-12T08:48:26Z</time>
      </trkpt>
      <trkpt lat="42.93768" lon="0.30532">
        <ele>1157.6775</ele>
        <time>2024-01-12T08:48:27Z</time>
      </trkpt>
      <trkpt lat="42.93769" lon="0.30533">
        <ele>1158.08067</ele>
        <time>2024-01-12T08:48:28Z</time>
      </trkpt>
      <trkpt lat="42.93769" lon="0.30535">
        <ele>1158.88945</ele>
        <time>2024-01-12T08:48:29Z</time>
      </trkpt>
      <trkpt lat="42.9377" lon="0.30536">
        <ele>1158.81597</ele>
        <time>2024-01-12T08:48:30Z</time>
      </trkpt>
      <trkpt lat="42.9377" lon="0.30537">
        <ele>1156.95599</ele>
        <time>2024-01-12T08:48:31Z</time>
      </trkpt>
      <trkpt lat="42.9377" lon="0.30539">
        <ele>1157.64083</ele>
        <time>2024-01-12T08:48:32Z</time>
      </trkpt>
      <trkpt lat="42.93771" lon="0.3054">
        <ele>1158.83765</ele>
        <time>2024-01-12T08:48:34Z</time>
      </trkpt>
      <trkpt lat="42.93772" lon="0.30542">
        <ele>1159.55619</ele>
        <time>2024-01-12T08:48:35Z</time>
      </trkpt>
      <trkpt lat="42.93772" lon="0.30543">
        <ele>1158.70813</ele>
        <time>2024-01-12T08:48:37Z</time>
      </trkpt>
      <trkpt lat="42.93773" lon="0.30546">
        <ele>1157.41807</ele>
        <time>2024-01-12T08:48:39Z</time>
      </trkpt>
      <trkpt lat="42.93773" lon="0.30548">
        <ele>1160.06421</ele>
        <time>2024-01-12T08:48:41Z</time>
      </trkpt>
      <trkpt lat="42.93772" lon="0.3055">
        <ele>1160.24858</ele>
        <time>2024-01-12T08:48:42Z</time>
      </trkpt>
      <trkpt lat="42.93773" lon="0.30551">
        <ele>1159.44337</ele>
        <time>2024-01-12T08:48:44Z</time>
      </trkpt>
      <trkpt lat="42.93773" lon="0.30553">
        <ele>1160.7473</ele>
        <time>2024-01-12T08:48:45Z</time>
      </trkpt>
      <trkpt lat="42.93772" lon="0.30555">
        <ele>1159.28429</ele>
        <time>2024-01-12T08:48:46Z</time>
      </trkpt>
      <trkpt lat="42.93771" lon="0.30556">
        <ele>1160.44701</ele>
        <time>2024-01-12T08:48:47Z</time>
      </trkpt>
      <trkpt lat="42.93772" lon="0.30559">
        <ele>1161.15588</ele>
        <time>2024-01-12T08:48:49Z</time>
      </trkpt>
      <trkpt lat="42.93772" lon="0.30561">
        <ele>1160.78332</ele>
        <time>2024-01-12T08:48:50Z</time>
      </trkpt>
      <trkpt lat="42.93772" lon="0.30562">
        <ele>1160.73457</ele>
        <time>2024-01-12T08:48:51Z</time>
      </trkpt>
      <trkpt lat="42.93772" lon="0.30565">
        <ele>1159.63922</ele>
        <time>2024-01-12T08:48:53Z</time>
      </trkpt>
      <trkpt lat="42.93772" lon="0.30567">
        <ele>1158.44589</ele>
        <time>2024-01-12T08:48:54Z</time>
      </trkpt>
      <trkpt lat="42.93772" lon="0.30568">
        <ele>1157.97181</ele>
        <time>2024-01-12T08:48:55Z</time>
      </trkpt>
      <trkpt lat="42.93772" lon="0.30571">
        <ele>1159.43075</ele>
        <time>2024-01-12T08:48:58Z</time>
      </trkpt>
      <trkpt lat="42.93771" lon="0.30573">
        <ele>1158.36955</ele>
        <time>2024-01-12T08:48:59Z</time>
      </trkpt>
      <trkpt lat="42.93771" lon="0.30575">
        <ele>1158.96486</ele>
        <time>2024-01-12T08:49:00Z</time>
      </trkpt>
      <trkpt lat="42.9377" lon="0.30576">
        <ele>1157.28034</ele>
        <time>2024-01-12T08:49:01Z</time>
      </trkpt>
      <trkpt lat="42.93771" lon="0.30578">
        <ele>1156.79852</ele>
        <time>2024-01-12T08:49:02Z</time>
      </trkpt>
      <trkpt lat="42.93772" lon="0.30579">
        <ele>1156.6932</ele>
        <time>2024-01-12T08:49:03Z</time>
      </trkpt>
      <trkpt lat="42.93772" lon="0.30581">
        <ele>1155.16382</ele>
        <time>2024-01-12T08:49:05Z</time>
      </trkpt>
      <trkpt lat="42.93773" lon="0.30582">
        <ele>1157.02539</ele>
        <time>2024-01-12T08:49:07Z</time>
      </trkpt>
      <trkpt lat="42.93774" lon="0.30583">
        <ele>1156.68602</ele>
        <time>2024-01-12T08:49:08Z</time>
      </trkpt>
      <trkpt lat="42.93775" lon="0.30584">
        <ele>1156.617</ele>
        <time>2024-01-12T08:49:09Z</time>
      </trkpt>
      <trkpt lat="42.93776" lon="0.30585">
        <ele>1156.60708</ele>
        <time>2024-01-12T08:49:10Z</time>
      </trkpt>
      <trkpt lat="42.93778" lon="0.30588">
        <ele>1157.02151</ele>
        <time>2024-01-12T08:49:12Z</time>
      </trkpt>
      <trkpt lat="42.93778" lon="0.30589">
        <ele>1158.62655</ele>
        <time>2024-01-12T08:49:15Z</time>
      </trkpt>
      <trkpt lat="42.93779" lon="0.3059">
        <ele>1160.2143</ele>
        <time>2024-01-12T08:49:16Z</time>
      </trkpt>
      <trkpt lat="42.93779" lon="0.30592">
        <ele>1160.64301</ele>
        <time>2024-01-12T08:49:17Z</time>
      </trkpt>
      <trkpt lat="42.93779" lon="0.30594">
        <ele>1160.85277</ele>
        <time>2024-01-12T08:49:18Z</time>
      </trkpt>
      <trkpt lat="42.9378" lon="0.30595">
        <ele>1161.43032</ele>
        <time>2024-01-12T08:49:20Z</time>
      </trkpt>
      <trkpt lat="42.93781" lon="0.30599">
        <ele>1161.6848</ele>
        <time>2024-01-12T08:49:22Z</time>
      </trkpt>
      <trkpt lat="42.93781" lon="0.30601">
        <ele>1161.29564</ele>
        <time>2024-01-12T08:49:24Z</time>
      </trkpt>
      <trkpt lat="42.93781" lon="0.30602">
        <ele>1160.90996</ele>
        <time>2024-01-12T08:49:25Z</time>
      </trkpt>
      <trkpt lat="42.93781" lon="0.30603">
        <ele>1161.50462</ele>
        <time>2024-01-12T08:49:27Z</time>
      </trkpt>
      <trkpt lat="42.93782" lon="0.30605">
        <ele>1161.6069</ele>
        <time>2024-01-12T08:49:28Z</time>
      </trkpt>
      <trkpt lat="42.93782" lon="0.30606">
        <ele>1159.82181</ele>
        <time>2024-01-12T08:49:30Z</time>
      </trkpt>
      <trkpt lat="42.93782" lon="0.30608">
        <ele>1158.8565</ele>
        <time>2024-01-12T08:49:31Z</time>
      </trkpt>
      <trkpt lat="42.93782" lon="0.30609">
        <ele>1159.31531</ele>
        <time>2024-01-12T08:49:32Z</time>
      </trkpt>
      <trkpt lat="42.93782" lon="0.30611">
        <ele>1159.32325</ele>
        <time>2024-01-12T08:49:33Z</time>
      </trkpt>
      <trkpt lat="42.93783" lon="0.30613">
        <ele>1160.32638</ele>
        <time>2024-01-12T08:49:35Z</time>
      </trkpt>
      <trkpt lat="42.93783" lon="0.30615">
        <ele>1159.08226</ele>
        <time>2024-01-12T08:49:37Z</time>
      </trkpt>
      <trkpt lat="42.93784" lon="0.30617">
        <ele>1159.82334</ele>
        <time>2024-01-12T08:49:40Z</time>
      </trkpt>
      <trkpt lat="42.93785" lon="0.30618">
        <ele>1161.0675</ele>
        <time>2024-01-12T08:49:41Z</time>
      </trkpt>
      <trkpt lat="42.93784" lon="0.3062">
        <ele>1160.2175</ele>
        <time>2024-01-12T08:49:43Z</time>
      </trkpt>
      <trkpt lat="42.93784" lon="0.30622">
        <ele>1161.24558</ele>
        <time>2024-01-12T08:49:44Z</time>
      </trkpt>
      <trkpt lat="42.93784" lon="0.30623">
        <ele>1161.13837</ele>
        <time>2024-01-12T08:49:45Z</time>
      </trkpt>
      <trkpt lat="42.93785" lon="0.30624">
        <ele>1160.68085</ele>
        <time>2024-01-12T08:49:46Z</time>
      </trkpt>
      <trkpt lat="42.93785" lon="0.30626">
        <ele>1161.42561</ele>
        <time>2024-01-12T08:49:48Z</time>
      </trkpt>
      <trkpt lat="42.93785" lon="0.30628">
        <ele>1161.74045</ele>
        <time>2024-01-12T08:49:49Z</time>
      </trkpt>
      <trkpt lat="42.93785" lon="0.30629">
        <ele>1162.12367</ele>
        <time>2024-01-12T08:49:50Z</time>
      </trkpt>
      <trkpt lat="42.93785" lon="0.30632">
        <ele>1162.44834</ele>
        <time>2024-01-12T08:49:51Z</time>
      </trkpt>
      <trkpt lat="42.93784" lon="0.30633">
        <ele>1162.94699</ele>
        <time>2024-01-12T08:49:52Z</time>
      </trkpt>
      <trkpt lat="42.93784" lon="0.30635">
        <ele>1164.4807</ele>
        <time>2024-01-12T08:49:54Z</time>
      </trkpt>
      <trkpt lat="42.93784" lon="0.30636">
        <ele>1163.40116</ele>
        <time>2024-01-12T08:49:55Z</time>
      </trkpt>
      <trkpt lat="42.93784" lon="0.30638">
        <ele>1164.37182</ele>
        <time>2024-01-12T08:49:56Z</time>
      </trkpt>
      <trkpt lat="42.93784" lon="0.30639">
        <ele>1163.60834</ele>
        <time>2024-01-12T08:49:57Z</time>
      </trkpt>
      <trkpt lat="42.93785" lon="0.30641">
        <ele>1163.90513</ele>
        <time>2024-01-12T08:49:59Z</time>
      </trkpt>
      <trkpt lat="42.93785" lon="0.30643">
        <ele>1162.09432</ele>
        <time>2024-01-12T08:50:01Z</time>
      </trkpt>
      <trkpt lat="42.93785" lon="0.30644">
        <ele>1161.72342</ele>
        <time>2024-01-12T08:50:02Z</time>
      </trkpt>
      <trkpt lat="42.93785" lon="0.30646">
        <ele>1163.03093</ele>
        <time>2024-01-12T08:50:03Z</time>
      </trkpt>
      <trkpt lat="42.93785" lon="0.30648">
        <ele>1165.66281</ele>
        <time>2024-01-12T08:50:05Z</time>
      </trkpt>
      <trkpt lat="42.93784" lon="0.30651">
        <ele>1165.40136</ele>
        <time>2024-01-12T08:50:07Z</time>
      </trkpt>
      <trkpt lat="42.93784" lon="0.30653">
        <ele>1165.39256</ele>
        <time>2024-01-12T08:50:09Z</time>
      </trkpt>
      <trkpt lat="42.93784" lon="0.30656">
        <ele>1163.37556</ele>
        <time>2024-01-12T08:50:10Z</time>
      </trkpt>
      <trkpt lat="42.93784" lon="0.30657">
        <ele>1164.24114</ele>
        <time>2024-01-12T08:50:12Z</time>
      </trkpt>
      <trkpt lat="42.93785" lon="0.30659">
        <ele>1165.35458</ele>
        <time>2024-01-12T08:50:14Z</time>
      </trkpt>
      <trkpt lat="42.93785" lon="0.30661">
        <ele>1165.74342</ele>
        <time>2024-01-12T08:50:16Z</time>
      </trkpt>
      <trkpt lat="42.93785" lon="0.30662">
        <ele>1165.75035</ele>
        <time>2024-01-12T08:50:18Z</time>
      </trkpt>
      <trkpt lat="42.93785" lon="0.30665">
        <ele>1165.93575</ele>
        <time>2024-01-12T08:50:21Z</time>
      </trkpt>
      <trkpt lat="42.93785" lon="0.30667">
        <ele>1165.57932</ele>
        <time>2024-01-12T08:50:22Z</time>
      </trkpt>
      <trkpt lat="42.93785" lon="0.30669">
        <ele>1163.5512</ele>
        <time>2024-01-12T08:50:24Z</time>
      </trkpt>
      <trkpt lat="42.93785" lon="0.3067">
        <ele>1162.83529</ele>
        <time>2024-01-12T08:50:26Z</time>
      </trkpt>
      <trkpt lat="42.93786" lon="0.30669">
        <ele>1162.55884</ele>
        <time>2024-01-12T08:50:27Z</time>
      </trkpt>
      <trkpt lat="42.93786" lon="0.3067">
        <ele>1161.99345</ele>
        <time>2024-01-12T08:50:28Z</time>
      </trkpt>
      <trkpt lat="42.93785" lon="0.30671">
        <ele>1162.7325</ele>
        <time>2024-01-12T08:50:29Z</time>
      </trkpt>
      <trkpt lat="42.93785" lon="0.30673">
        <ele>1162.14454</ele>
        <time>2024-01-12T08:50:31Z</time>
      </trkpt>
      <trkpt lat="42.93785" lon="0.30675">
        <ele>1161.28694</ele>
        <time>2024-01-12T08:50:33Z</time>
      </trkpt>
      <trkpt lat="42.93785" lon="0.30677">
        <ele>1160.33362</ele>
        <time>2024-01-12T08:50:34Z</time>
      </trkpt>
      <trkpt lat="42.93785" lon="0.30678">
        <ele>1160.45349</ele>
        <time>2024-01-12T08:50:35Z</time>
      </trkpt>
      <trkpt lat="42.93785" lon="0.3068">
        <ele>1162.60676</ele>
        <time>2024-01-12T08:50:37Z</time>
      </trkpt>
      <trkpt lat="42.93784" lon="0.30682">
        <ele>1163.42218</ele>
        <time>2024-01-12T08:50:38Z</time>
      </trkpt>
      <trkpt lat="42.93785" lon="0.30684">
        <ele>1163.68231</ele>
        <time>2024-01-12T08:50:39Z</time>
      </trkpt>
      <trkpt lat="42.93785" lon="0.30687">
        <ele>1163.58006</ele>
        <time>2024-01-12T08:50:42Z</time>
      </trkpt>
      <trkpt lat="42.93785" lon="0.30688">
        <ele>1164.32936</ele>
        <time>2024-01-12T08:50:44Z</time>
      </trkpt>
      <trkpt lat="42.93785" lon="0.30689">
        <ele>1164.66581</ele>
        <time>2024-01-12T08:50:45Z</time>
      </trkpt>
      <trkpt lat="42.93785" lon="0.30691">
        <ele>1165.79298</ele>
        <time>2024-01-12T08:50:47Z</time>
      </trkpt>
      <trkpt lat="42.93786" lon="0.30694">
        <ele>1163.42934</ele>
        <time>2024-01-12T08:50:49Z</time>
      </trkpt>
      <trkpt lat="42.93786" lon="0.30695">
        <ele>1163.54108</ele>
        <time>2024-01-12T08:50:50Z</time>
      </trkpt>
      <trkpt lat="42.93787" lon="0.30696">
        <ele>1166.82238</ele>
        <time>2024-01-12T08:50:52Z</time>
      </trkpt>
      <trkpt lat="42.93788" lon="0.30697">
        <ele>1167.44599</ele>
        <time>2024-01-12T08:50:54Z</time>
      </trkpt>
      <trkpt lat="42.93788" lon="0.30699">
        <ele>1167.08285</ele>
        <time>2024-01-12T08:50:55Z</time>
      </trkpt>
      <trkpt lat="42.93787" lon="0.307">
        <ele>1167.51166</ele>
        <time>2024-01-12T08:50:56Z</time>
      </trkpt>
      <trkpt lat="42.93788" lon="0.30702">
        <ele>1169.13263</ele>
        <time>2024-01-12T08:50:57Z</time>
      </trkpt>
      <trkpt lat="42.93788" lon="0.30704">
        <ele>1168.23102</ele>
        <time>2024-01-12T08:50:58Z</time>
      </trkpt>
      <trkpt lat="42.93787" lon="0.30705">
        <ele>1166.98962</ele>
        <time>2024-01-12T08:50:59Z</time>
      </trkpt>
      <trkpt lat="42.93787" lon="0.30706">
        <ele>1167.17556</ele>
        <time>2024-01-12T08:51:01Z</time>
      </trkpt>
      <trkpt lat="42.93787" lon="0.30708">
        <ele>1166.73596</ele>
        <time>2024-01-12T08:51:03Z</time>
      </trkpt>
      <trkpt lat="42.93786" lon="0.30711">
        <ele>1166.02496</ele>
        <time>2024-01-12T08:51:05Z</time>
      </trkpt>
      <trkpt lat="42.93786" lon="0.30713">
        <ele>1166.79979</ele>
        <time>2024-01-12T08:51:06Z</time>
      </trkpt>
      <trkpt lat="42.93785" lon="0.30715">
        <ele>1167.57031</ele>
        <time>2024-01-12T08:51:08Z</time>
      </trkpt>
      <trkpt lat="42.93784" lon="0.30716">
        <ele>1168.95548</ele>
        <time>2024-01-12T08:51:10Z</time>
      </trkpt>
      <trkpt lat="42.93784" lon="0.30718">
        <ele>1169.42602</ele>
        <time>2024-01-12T08:51:12Z</time>
      </trkpt>
      <trkpt lat="42.93784" lon="0.30721">
        <ele>1168.89964</ele>
        <time>2024-01-12T08:51:14Z</time>
      </trkpt>
      <trkpt lat="42.93783" lon="0.30722">
        <ele>1169.42901</ele>
        <time>2024-01-12T08:51:15Z</time>
      </trkpt>
      <trkpt lat="42.93783" lon="0.30723">
        <ele>1171.16291</ele>
        <time>2024-01-12T08:51:17Z</time>
      </trkpt>
      <trkpt lat="42.93783" lon="0.30724">
        <ele>1172.032</ele>
        <time>2024-01-12T08:51:18Z</time>
      </trkpt>
      <trkpt lat="42.93782" lon="0.30726">
        <ele>1171.64733</ele>
        <time>2024-01-12T08:51:19Z</time>
      </trkpt>
      <trkpt lat="42.93783" lon="0.30727">
        <ele>1169.47041</ele>
        <time>2024-01-12T08:51:22Z</time>
      </trkpt>
      <trkpt lat="42.93782" lon="0.3073">
        <ele>1167.99607</ele>
        <time>2024-01-12T08:51:24Z</time>
      </trkpt>
      <trkpt lat="42.93782" lon="0.30732">
        <ele>1167.3985</ele>
        <time>2024-01-12T08:51:26Z</time>
      </trkpt>
      <trkpt lat="42.9378" lon="0.30734">
        <ele>1166.59088</ele>
        <time>2024-01-12T08:51:28Z</time>
      </trkpt>
      <trkpt lat="42.93779" lon="0.30735">
        <ele>1165.75544</ele>
        <time>2024-01-12T08:51:30Z</time>
      </trkpt>
      <trkpt lat="42.93779" lon="0.30737">
        <ele>1164.8639</ele>
        <time>2024-01-12T08:51:32Z</time>
      </trkpt>
      <trkpt lat="42.93778" lon="0.30739">
        <ele>1164.60294</ele>
        <time>2024-01-12T08:51:33Z</time>
      </trkpt>
      <trkpt lat="42.93777" lon="0.3074">
        <ele>1164.1179</ele>
        <time>2024-01-12T08:51:34Z</time>
      </trkpt>
      <trkpt lat="42.93778" lon="0.30742">
        <ele>1165.95061</ele>
        <time>2024-01-12T08:51:37Z</time>
      </trkpt>
      <trkpt lat="42.93778" lon="0.30743">
        <ele>1167.62656</ele>
        <time>2024-01-12T08:51:38Z</time>
      </trkpt>
      <trkpt lat="42.93777" lon="0.30744">
        <ele>1169.15284</ele>
        <time>2024-01-12T08:51:40Z</time>
      </trkpt>
      <trkpt lat="42.93778" lon="0.30746">
        <ele>1169.1367</ele>
        <time>2024-01-12T08:51:41Z</time>
      </trkpt>
      <trkpt lat="42.93777" lon="0.30747">
        <ele>1166.9097</ele>
        <time>2024-01-12T08:51:42Z</time>
      </trkpt>
      <trkpt lat="42.93776" lon="0.30748">
        <ele>1165.10137</ele>
        <time>2024-01-12T08:51:44Z</time>
      </trkpt>
      <trkpt lat="42.93777" lon="0.3075">
        <ele>1165.83794</ele>
        <time>2024-01-12T08:51:45Z</time>
      </trkpt>
      <trkpt lat="42.93776" lon="0.30752">
        <ele>1166.32903</ele>
        <time>2024-01-12T08:51:47Z</time>
      </trkpt>
      <trkpt lat="42.93776" lon="0.30754">
        <ele>1167.06064</ele>
        <time>2024-01-12T08:51:49Z</time>
      </trkpt>
      <trkpt lat="42.93775" lon="0.30757">
        <ele>1166.31362</ele>
        <time>2024-01-12T08:51:53Z</time>
      </trkpt>
      <trkpt lat="42.93774" lon="0.30759">
        <ele>1165.86845</ele>
        <time>2024-01-12T08:51:55Z</time>
      </trkpt>
      <trkpt lat="42.93775" lon="0.30761">
        <ele>1168.64662</ele>
        <time>2024-01-12T08:51:56Z</time>
      </trkpt>
      <trkpt lat="42.93775" lon="0.30762">
        <ele>1167.28916</ele>
        <time>2024-01-12T08:51:57Z</time>
      </trkpt>
      <trkpt lat="42.93774" lon="0.30763">
        <ele>1166.86453</ele>
        <time>2024-01-12T08:51:59Z</time>
      </trkpt>
      <trkpt lat="42.93773" lon="0.30764">
        <ele>1165.4709</ele>
        <time>2024-01-12T08:52:00Z</time>
      </trkpt>
      <trkpt lat="42.93773" lon="0.30766">
        <ele>1164.47379</ele>
        <time>2024-01-12T08:52:01Z</time>
      </trkpt>
      <trkpt lat="42.93772" lon="0.30768">
        <ele>1165.35687</ele>
        <time>2024-01-12T08:52:02Z</time>
      </trkpt>
      <trkpt lat="42.93773" lon="0.3077">
        <ele>1166.82832</ele>
        <time>2024-01-12T08:52:03Z</time>
      </trkpt>
      <trkpt lat="42.93773" lon="0.30771">
        <ele>1168.70316</ele>
        <time>2024-01-12T08:52:04Z</time>
      </trkpt>
      <trkpt lat="42.93773" lon="0.30773">
        <ele>1169.14051</ele>
        <time>2024-01-12T08:52:07Z</time>
      </trkpt>
      <trkpt lat="42.93773" lon="0.30778">
        <ele>1170.54251</ele>
        <time>2024-01-12T08:52:11Z</time>
      </trkpt>
      <trkpt lat="42.93773" lon="0.30779">
        <ele>1170.39256</ele>
        <time>2024-01-12T08:52:12Z</time>
      </trkpt>
      <trkpt lat="42.93772" lon="0.3078">
        <ele>1168.57945</ele>
        <time>2024-01-12T08:52:14Z</time>
      </trkpt>
      <trkpt lat="42.93773" lon="0.30781">
        <ele>1167.97637</ele>
        <time>2024-01-12T08:52:15Z</time>
      </trkpt>
      <trkpt lat="42.93774" lon="0.3078">
        <ele>1168.84467</ele>
        <time>2024-01-12T08:52:16Z</time>
      </trkpt>
      <trkpt lat="42.93773" lon="0.30781">
        <ele>1168.72733</ele>
        <time>2024-01-12T08:52:17Z</time>
      </trkpt>
      <trkpt lat="42.93771" lon="0.30781">
        <ele>1168.62735</ele>
        <time>2024-01-12T08:52:19Z</time>
      </trkpt>
      <trkpt lat="42.9377" lon="0.30782">
        <ele>1168.58894</ele>
        <time>2024-01-12T08:52:21Z</time>
      </trkpt>
      <trkpt lat="42.93769" lon="0.30784">
        <ele>1166.61748</ele>
        <time>2024-01-12T08:52:25Z</time>
      </trkpt>
      <trkpt lat="42.93768" lon="0.30785">
        <ele>1167.8406</ele>
        <time>2024-01-12T08:52:26Z</time>
      </trkpt>
      <trkpt lat="42.93768" lon="0.30787">
        <ele>1166.60282</ele>
        <time>2024-01-12T08:52:27Z</time>
      </trkpt>
      <trkpt lat="42.93769" lon="0.30787">
        <ele>1167.41546</ele>
        <time>2024-01-12T08:52:28Z</time>
      </trkpt>
      <trkpt lat="42.93769" lon="0.30789">
        <ele>1167.26246</ele>
        <time>2024-01-12T08:52:29Z</time>
      </trkpt>
      <trkpt lat="42.9377" lon="0.3079">
        <ele>1167.66364</ele>
        <time>2024-01-12T08:52:31Z</time>
      </trkpt>
      <trkpt lat="42.9377" lon="0.30792">
        <ele>1169.58172</ele>
        <time>2024-01-12T08:52:32Z</time>
      </trkpt>
      <trkpt lat="42.93769" lon="0.30794">
        <ele>1173.06644</ele>
        <time>2024-01-12T08:52:34Z</time>
      </trkpt>
      <trkpt lat="42.93769" lon="0.30795">
        <ele>1172.58726</ele>
        <time>2024-01-12T08:52:36Z</time>
      </trkpt>
      <trkpt lat="42.93768" lon="0.30796">
        <ele>1172.47636</ele>
        <time>2024-01-12T08:52:37Z</time>
      </trkpt>
      <trkpt lat="42.93767" lon="0.30798">
        <ele>1171.27591</ele>
        <time>2024-01-12T08:52:39Z</time>
      </trkpt>
      <trkpt lat="42.93767" lon="0.308">
        <ele>1171.88089</ele>
        <time>2024-01-12T08:52:40Z</time>
      </trkpt>
      <trkpt lat="42.93766" lon="0.30802">
        <ele>1169.48795</ele>
        <time>2024-01-12T08:52:43Z</time>
      </trkpt>
      <trkpt lat="42.93765" lon="0.30803">
        <ele>1168.78714</ele>
        <time>2024-01-12T08:52:45Z</time>
      </trkpt>
      <trkpt lat="42.93764" lon="0.30804">
        <ele>1169.14803</ele>
        <time>2024-01-12T08:52:47Z</time>
      </trkpt>
      <trkpt lat="42.93763" lon="0.30806">
        <ele>1169.58848</ele>
        <time>2024-01-12T08:52:49Z</time>
      </trkpt>
      <trkpt lat="42.93763" lon="0.30807">
        <ele>1169.06524</ele>
        <time>2024-01-12T08:52:50Z</time>
      </trkpt>
      <trkpt lat="42.93763" lon="0.30809">
        <ele>1168.9067</ele>
        <time>2024-01-12T08:52:51Z</time>
      </trkpt>
      <trkpt lat="42.93763" lon="0.30811">
        <ele>1171.22571</ele>
        <time>2024-01-12T08:52:52Z</time>
      </trkpt>
      <trkpt lat="42.93763" lon="0.30812">
        <ele>1171.44586</ele>
        <time>2024-01-12T08:52:55Z</time>
      </trkpt>
      <trkpt lat="42.93762" lon="0.30815">
        <ele>1173.55515</ele>
        <time>2024-01-12T08:52:57Z</time>
      </trkpt>
      <trkpt lat="42.93762" lon="0.30816">
        <ele>1172.24803</ele>
        <time>2024-01-12T08:52:59Z</time>
      </trkpt>
      <trkpt lat="42.93763" lon="0.30818">
        <ele>1172.80067</ele>
        <time>2024-01-12T08:53:01Z</time>
      </trkpt>
      <trkpt lat="42.93762" lon="0.30819">
        <ele>1172.32082</ele>
        <time>2024-01-12T08:53:02Z</time>
      </trkpt>
      <trkpt lat="42.93762" lon="0.30821">
        <ele>1172.79955</ele>
        <time>2024-01-12T08:53:04Z</time>
      </trkpt>
      <trkpt lat="42.93762" lon="0.30822">
        <ele>1172.88203</ele>
        <time>2024-01-12T08:53:06Z</time>
      </trkpt>
      <trkpt lat="42.9376" lon="0.30824">
        <ele>1175.38923</ele>
        <time>2024-01-12T08:53:07Z</time>
      </trkpt>
      <trkpt lat="42.93759" lon="0.30826">
        <ele>1175.12609</ele>
        <time>2024-01-12T08:53:09Z</time>
      </trkpt>
      <trkpt lat="42.93759" lon="0.30827">
        <ele>1174.30637</ele>
        <time>2024-01-12T08:53:11Z</time>
      </trkpt>
      <trkpt lat="42.93758" lon="0.3083">
        <ele>1173.93714</ele>
        <time>2024-01-12T08:53:13Z</time>
      </trkpt>
      <trkpt lat="42.93758" lon="0.30832">
        <ele>1173.55677</ele>
        <time>2024-01-12T08:53:15Z</time>
      </trkpt>
      <trkpt lat="42.93758" lon="0.30834">
        <ele>1174.60856</ele>
        <time>2024-01-12T08:53:17Z</time>
      </trkpt>
      <trkpt lat="42.93757" lon="0.30835">
        <ele>1172.25968</ele>
        <time>2024-01-12T08:53:19Z</time>
      </trkpt>
      <trkpt lat="42.93757" lon="0.30837">
        <ele>1172.57213</ele>
        <time>2024-01-12T08:53:20Z</time>
      </trkpt>
      <trkpt lat="42.93756" lon="0.30838">
        <ele>1170.9743</ele>
        <time>2024-01-12T08:53:22Z</time>
      </trkpt>
      <trkpt lat="42.93755" lon="0.30838">
        <ele>1170.17892</ele>
        <time>2024-01-12T08:53:23Z</time>
      </trkpt>
      <trkpt lat="42.93755" lon="0.30839">
        <ele>1170.09102</ele>
        <time>2024-01-12T08:53:25Z</time>
      </trkpt>
      <trkpt lat="42.93754" lon="0.30842">
        <ele>1171.06534</ele>
        <time>2024-01-12T08:53:27Z</time>
      </trkpt>
      <trkpt lat="42.93755" lon="0.30844">
        <ele>1171.59804</ele>
        <time>2024-01-12T08:53:28Z</time>
      </trkpt>
      <trkpt lat="42.93755" lon="0.30845">
        <ele>1174.05879</ele>
        <time>2024-01-12T08:53:30Z</time>
      </trkpt>
      <trkpt lat="42.93755" lon="0.30847">
        <ele>1175.79214</ele>
        <time>2024-01-12T08:53:32Z</time>
      </trkpt>
      <trkpt lat="42.93755" lon="0.30849">
        <ele>1174.91562</ele>
        <time>2024-01-12T08:53:33Z</time>
      </trkpt>
      <trkpt lat="42.93754" lon="0.3085">
        <ele>1174.21138</ele>
        <time>2024-01-12T08:53:35Z</time>
      </trkpt>
      <trkpt lat="42.93753" lon="0.30852">
        <ele>1174.5713</ele>
        <time>2024-01-12T08:53:36Z</time>
      </trkpt>
      <trkpt lat="42.93755" lon="0.30854">
        <ele>1177.72382</ele>
        <time>2024-01-12T08:53:37Z</time>
      </trkpt>
      <trkpt lat="42.93754" lon="0.30856">
        <ele>1176.64412</ele>
        <time>2024-01-12T08:53:39Z</time>
      </trkpt>
      <trkpt lat="42.93755" lon="0.30858">
        <ele>1176.4094</ele>
        <time>2024-01-12T08:53:40Z</time>
      </trkpt>
      <trkpt lat="42.93755" lon="0.3086">
        <ele>1175.75763</ele>
        <time>2024-01-12T08:53:41Z</time>
      </trkpt>
      <trkpt lat="42.93754" lon="0.30861">
        <ele>1174.70528</ele>
        <time>2024-01-12T08:53:44Z</time>
      </trkpt>
      <trkpt lat="42.93754" lon="0.30863">
        <ele>1175.09341</ele>
        <time>2024-01-12T08:53:45Z</time>
      </trkpt>
      <trkpt lat="42.93753" lon="0.30865">
        <ele>1174.16672</ele>
        <time>2024-01-12T08:53:47Z</time>
      </trkpt>
      <trkpt lat="42.93753" lon="0.30866">
        <ele>1174.41272</ele>
        <time>2024-01-12T08:53:48Z</time>
      </trkpt>
      <trkpt lat="42.93754" lon="0.30869">
        <ele>1173.23183</ele>
        <time>2024-01-12T08:53:49Z</time>
      </trkpt>
      <trkpt lat="42.93754" lon="0.3087">
        <ele>1176.39131</ele>
        <time>2024-01-12T08:53:52Z</time>
      </trkpt>
      <trkpt lat="42.93754" lon="0.30872">
        <ele>1175.14888</ele>
        <time>2024-01-12T08:53:53Z</time>
      </trkpt>
      <trkpt lat="42.93754" lon="0.30874">
        <ele>1174.72327</ele>
        <time>2024-01-12T08:53:54Z</time>
      </trkpt>
      <trkpt lat="42.93754" lon="0.30876">
        <ele>1175.64928</ele>
        <time>2024-01-12T08:53:55Z</time>
      </trkpt>
      <trkpt lat="42.93754" lon="0.30877">
        <ele>1176.00282</ele>
        <time>2024-01-12T08:53:57Z</time>
      </trkpt>
      <trkpt lat="42.93754" lon="0.3088">
        <ele>1174.0931</ele>
        <time>2024-01-12T08:53:58Z</time>
      </trkpt>
      <trkpt lat="42.93753" lon="0.30881">
        <ele>1173.09211</ele>
        <time>2024-01-12T08:53:59Z</time>
      </trkpt>
      <trkpt lat="42.93754" lon="0.30882">
        <ele>1175.56865</ele>
        <time>2024-01-12T08:54:02Z</time>
      </trkpt>
      <trkpt lat="42.93754" lon="0.30884">
        <ele>1175.36362</ele>
        <time>2024-01-12T08:54:03Z</time>
      </trkpt>
      <trkpt lat="42.93753" lon="0.30885">
        <ele>1175.96784</ele>
        <time>2024-01-12T08:54:05Z</time>
      </trkpt>
      <trkpt lat="42.93752" lon="0.30887">
        <ele>1175.95013</ele>
        <time>2024-01-12T08:54:07Z</time>
      </trkpt>
      <trkpt lat="42.93752" lon="0.30888">
        <ele>1174.15643</ele>
        <time>2024-01-12T08:54:09Z</time>
      </trkpt>
      <trkpt lat="42.93752" lon="0.3089">
        <ele>1173.71904</ele>
        <time>2024-01-12T08:54:11Z</time>
      </trkpt>
      <trkpt lat="42.93752" lon="0.30892">
        <ele>1175.4755</ele>
        <time>2024-01-12T08:54:12Z</time>
      </trkpt>
      <trkpt lat="42.93751" lon="0.30893">
        <ele>1176.59733</ele>
        <time>2024-01-12T08:54:14Z</time>
      </trkpt>
      <trkpt lat="42.9375" lon="0.30894">
        <ele>1176.11922</ele>
        <time>2024-01-12T08:54:15Z</time>
      </trkpt>
      <trkpt lat="42.9375" lon="0.30896">
        <ele>1174.38402</ele>
        <time>2024-01-12T08:54:16Z</time>
      </trkpt>
      <trkpt lat="42.93749" lon="0.30898">
        <ele>1173.01026</ele>
        <time>2024-01-12T08:54:19Z</time>
      </trkpt>
      <trkpt lat="42.93748" lon="0.30899">
        <ele>1172.67034</ele>
        <time>2024-01-12T08:54:21Z</time>
      </trkpt>
      <trkpt lat="42.93747" lon="0.309">
        <ele>1171.73514</ele>
        <time>2024-01-12T08:54:22Z</time>
      </trkpt>
      <trkpt lat="42.93749" lon="0.30903">
        <ele>1171.9732</ele>
        <time>2024-01-12T08:54:24Z</time>
      </trkpt>
      <trkpt lat="42.93749" lon="0.30906">
        <ele>1172.22678</ele>
        <time>2024-01-12T08:54:26Z</time>
      </trkpt>
      <trkpt lat="42.93748" lon="0.30908">
        <ele>1172.45615</ele>
        <time>2024-01-12T08:54:28Z</time>
      </trkpt>
      <trkpt lat="42.93748" lon="0.30909">
        <ele>1172.17169</ele>
        <time>2024-01-12T08:54:29Z</time>
      </trkpt>
      <trkpt lat="42.93748" lon="0.30911">
        <ele>1170.85855</ele>
        <time>2024-01-12T08:54:30Z</time>
      </trkpt>
      <trkpt lat="42.93748" lon="0.30912">
        <ele>1172.83115</ele>
        <time>2024-01-12T08:54:31Z</time>
      </trkpt>
      <trkpt lat="42.93748" lon="0.30914">
        <ele>1173.53266</ele>
        <time>2024-01-12T08:54:32Z</time>
      </trkpt>
      <trkpt lat="42.93747" lon="0.30916">
        <ele>1174.49862</ele>
        <time>2024-01-12T08:54:34Z</time>
      </trkpt>
      <trkpt lat="42.93747" lon="0.30918">
        <ele>1174.58225</ele>
        <time>2024-01-12T08:54:35Z</time>
      </trkpt>
      <trkpt lat="42.93747" lon="0.3092">
        <ele>1172.49822</ele>
        <time>2024-01-12T08:54:37Z</time>
      </trkpt>
      <trkpt lat="42.93747" lon="0.30922">
        <ele>1172.74042</ele>
        <time>2024-01-12T08:54:38Z</time>
      </trkpt>
      <trkpt lat="42.93748" lon="0.30923">
        <ele>1173.2942</ele>
        <time>2024-01-12T08:54:39Z</time>
      </trkpt>
      <trkpt lat="42.93748" lon="0.30926">
        <ele>1176.48226</ele>
        <time>2024-01-12T08:54:41Z</time>
      </trkpt>
      <trkpt lat="42.93748" lon="0.30927">
        <ele>1176.56634</ele>
        <time>2024-01-12T08:54:43Z</time>
      </trkpt>
      <trkpt lat="42.93749" lon="0.30929">
        <ele>1176.92857</ele>
        <time>2024-01-12T08:54:45Z</time>
      </trkpt>
      <trkpt lat="42.93748" lon="0.30931">
        <ele>1175.2921</ele>
        <time>2024-01-12T08:54:47Z</time>
      </trkpt>
      <trkpt lat="42.93748" lon="0.30933">
        <ele>1175.81794</ele>
        <time>2024-01-12T08:54:48Z</time>
      </trkpt>
      <trkpt lat="42.93749" lon="0.30934">
        <ele>1176.40949</ele>
        <time>2024-01-12T08:54:49Z</time>
      </trkpt>
      <trkpt lat="42.93749" lon="0.30936">
        <ele>1177.33463</ele>
        <time>2024-01-12T08:54:52Z</time>
      </trkpt>
      <trkpt lat="42.93749" lon="0.30938">
        <ele>1176.71987</ele>
        <time>2024-01-12T08:54:53Z</time>
      </trkpt>
      <trkpt lat="42.9375" lon="0.3094">
        <ele>1177.73966</ele>
        <time>2024-01-12T08:54:54Z</time>
      </trkpt>
      <trkpt lat="42.9375" lon="0.30941">
        <ele>1178.11066</ele>
        <time>2024-01-12T08:54:55Z</time>
      </trkpt>
      <trkpt lat="42.9375" lon="0.30943">
        <ele>1178.4414</ele>
        <time>2024-01-12T08:54:57Z</time>
      </trkpt>
      <trkpt lat="42.9375" lon="0.30945">
        <ele>1178.47611</ele>
        <time>2024-01-12T08:54:59Z</time>
      </trkpt>
      <trkpt lat="42.93751" lon="0.30946">
        <ele>1178.25335</ele>
        <time>2024-01-12T08:55:01Z</time>
      </trkpt>
      <trkpt lat="42.93751" lon="0.30947">
        <ele>1177.3364</ele>
        <time>2024-01-12T08:55:03Z</time>
      </trkpt>
      <trkpt lat="42.93751" lon="0.30949">
        <ele>1178.01198</ele>
        <time>2024-01-12T08:55:04Z</time>
      </trkpt>
      <trkpt lat="42.93753" lon="0.30951">
        <ele>1177.65323</ele>
        <time>2024-01-12T08:55:06Z</time>
      </trkpt>
      <trkpt lat="42.93753" lon="0.30952">
        <ele>1176.02794</ele>
        <time>2024-01-12T08:55:08Z</time>
      </trkpt>
      <trkpt lat="42.93754" lon="0.30953">
        <ele>1176.78397</ele>
        <time>2024-01-12T08:55:10Z</time>
      </trkpt>
      <trkpt lat="42.93755" lon="0.30955">
        <ele>1175.19816</ele>
        <time>2024-01-12T08:55:12Z</time>
      </trkpt>
      <trkpt lat="42.93756" lon="0.30957">
        <ele>1175.81638</ele>
        <time>2024-01-12T08:55:14Z</time>
      </trkpt>
      <trkpt lat="42.93757" lon="0.30958">
        <ele>1176.4357</ele>
        <time>2024-01-12T08:55:15Z</time>
      </trkpt>
      <trkpt lat="42.93757" lon="0.3096">
        <ele>1176.22165</ele>
        <time>2024-01-12T08:55:16Z</time>
      </trkpt>
      <trkpt lat="42.93757" lon="0.30962">
        <ele>1177.97726</ele>
        <time>2024-01-12T08:55:17Z</time>
      </trkpt>
      <trkpt lat="42.93758" lon="0.30963">
        <ele>1179.45467</ele>
        <time>2024-01-12T08:55:19Z</time>
      </trkpt>
      <trkpt lat="42.93759" lon="0.30964">
        <ele>1179.63733</ele>
        <time>2024-01-12T08:55:20Z</time>
      </trkpt>
      <trkpt lat="42.9376" lon="0.30965">
        <ele>1180.40448</ele>
        <time>2024-01-12T08:55:21Z</time>
      </trkpt>
      <trkpt lat="42.93759" lon="0.30967">
        <ele>1178.89515</ele>
        <time>2024-01-12T08:55:23Z</time>
      </trkpt>
      <trkpt lat="42.9376" lon="0.30969">
        <ele>1178.32944</ele>
        <time>2024-01-12T08:55:25Z</time>
      </trkpt>
      <trkpt lat="42.93759" lon="0.3097">
        <ele>1179.8132</ele>
        <time>2024-01-12T08:55:26Z</time>
      </trkpt>
      <trkpt lat="42.9376" lon="0.30972">
        <ele>1180.86133</ele>
        <time>2024-01-12T08:55:27Z</time>
      </trkpt>
      <trkpt lat="42.93761" lon="0.30974">
        <ele>1182.21635</ele>
        <time>2024-01-12T08:55:28Z</time>
      </trkpt>
      <trkpt lat="42.93761" lon="0.30975">
        <ele>1183.47016</ele>
        <time>2024-01-12T08:55:29Z</time>
      </trkpt>
      <trkpt lat="42.93761" lon="0.30976">
        <ele>1182.4911</ele>
        <time>2024-01-12T08:55:30Z</time>
      </trkpt>
      <trkpt lat="42.93762" lon="0.30977">
        <ele>1182.68213</ele>
        <time>2024-01-12T08:55:32Z</time>
      </trkpt>
      <trkpt lat="42.93764" lon="0.30978">
        <ele>1183.3468</ele>
        <time>2024-01-12T08:55:33Z</time>
      </trkpt>
      <trkpt lat="42.93764" lon="0.3098">
        <ele>1183.40698</ele>
        <time>2024-01-12T08:55:35Z</time>
      </trkpt>
      <trkpt lat="42.93765" lon="0.3098">
        <ele>1184.64582</ele>
        <time>2024-01-12T08:55:36Z</time>
      </trkpt>
      <trkpt lat="42.93767" lon="0.30982">
        <ele>1186.01961</ele>
        <time>2024-01-12T08:55:37Z</time>
      </trkpt>
      <trkpt lat="42.93769" lon="0.30984">
        <ele>1185.89151</ele>
        <time>2024-01-12T08:55:39Z</time>
      </trkpt>
      <trkpt lat="42.9377" lon="0.30987">
        <ele>1185.39969</ele>
        <time>2024-01-12T08:55:40Z</time>
      </trkpt>
      <trkpt lat="42.9377" lon="0.30988">
        <ele>1186.04924</ele>
        <time>2024-01-12T08:55:41Z</time>
      </trkpt>
      <trkpt lat="42.93769" lon="0.30989">
        <ele>1186.10535</ele>
        <time>2024-01-12T08:55:42Z</time>
      </trkpt>
      <trkpt lat="42.9377" lon="0.3099">
        <ele>1187.0335</ele>
        <time>2024-01-12T08:55:43Z</time>
      </trkpt>
      <trkpt lat="42.93771" lon="0.30991">
        <ele>1185.51059</ele>
        <time>2024-01-12T08:55:44Z</time>
      </trkpt>
      <trkpt lat="42.93772" lon="0.30992">
        <ele>1186.35089</ele>
        <time>2024-01-12T08:55:46Z</time>
      </trkpt>
      <trkpt lat="42.93773" lon="0.30994">
        <ele>1185.28818</ele>
        <time>2024-01-12T08:55:48Z</time>
      </trkpt>
      <trkpt lat="42.93773" lon="0.30995">
        <ele>1184.20697</ele>
        <time>2024-01-12T08:55:49Z</time>
      </trkpt>
      <trkpt lat="42.93775" lon="0.30996">
        <ele>1183.12108</ele>
        <time>2024-01-12T08:55:52Z</time>
      </trkpt>
      <trkpt lat="42.93775" lon="0.30998">
        <ele>1182.55065</ele>
        <time>2024-01-12T08:55:53Z</time>
      </trkpt>
      <trkpt lat="42.93776" lon="0.31">
        <ele>1183.56281</ele>
        <time>2024-01-12T08:55:55Z</time>
      </trkpt>
      <trkpt lat="42.93777" lon="0.31002">
        <ele>1183.96685</ele>
        <time>2024-01-12T08:55:58Z</time>
      </trkpt>
      <trkpt lat="42.93779" lon="0.31003">
        <ele>1184.47759</ele>
        <time>2024-01-12T08:56:00Z</time>
      </trkpt>
      <trkpt lat="42.9378" lon="0.31005">
        <ele>1184.77483</ele>
        <time>2024-01-12T08:56:02Z</time>
      </trkpt>
      <trkpt lat="42.9378" lon="0.31007">
        <ele>1185.08005</ele>
        <time>2024-01-12T08:56:03Z</time>
      </trkpt>
      <trkpt lat="42.93781" lon="0.31008">
        <ele>1185.33576</ele>
        <time>2024-01-12T08:56:04Z</time>
      </trkpt>
      <trkpt lat="42.93783" lon="0.3101">
        <ele>1186.12511</ele>
        <time>2024-01-12T08:56:05Z</time>
      </trkpt>
      <trkpt lat="42.93782" lon="0.31011">
        <ele>1185.60262</ele>
        <time>2024-01-12T08:56:06Z</time>
      </trkpt>
      <trkpt lat="42.93782" lon="0.31013">
        <ele>1185.47098</ele>
        <time>2024-01-12T08:56:07Z</time>
      </trkpt>
      <trkpt lat="42.93783" lon="0.31014">
        <ele>1185.90179</ele>
        <time>2024-01-12T08:56:08Z</time>
      </trkpt>
      <trkpt lat="42.93783" lon="0.31016">
        <ele>1185.6815</ele>
        <time>2024-01-12T08:56:09Z</time>
      </trkpt>
      <trkpt lat="42.93783" lon="0.31018">
        <ele>1187.46176</ele>
        <time>2024-01-12T08:56:10Z</time>
      </trkpt>
      <trkpt lat="42.93784" lon="0.31019">
        <ele>1187.27528</ele>
        <time>2024-01-12T08:56:11Z</time>
      </trkpt>
      <trkpt lat="42.93784" lon="0.3102">
        <ele>1187.40601</ele>
        <time>2024-01-12T08:56:12Z</time>
      </trkpt>
      <trkpt lat="42.93785" lon="0.31022">
        <ele>1188.23026</ele>
        <time>2024-01-12T08:56:13Z</time>
      </trkpt>
      <trkpt lat="42.93786" lon="0.31023">
        <ele>1188.3288</ele>
        <time>2024-01-12T08:56:14Z</time>
      </trkpt>
      <trkpt lat="42.93786" lon="0.31024">
        <ele>1189.07082</ele>
        <time>2024-01-12T08:56:15Z</time>
      </trkpt>
      <trkpt lat="42.93787" lon="0.31026">
        <ele>1188.07228</ele>
        <time>2024-01-12T08:56:17Z</time>
      </trkpt>
      <trkpt lat="42.93787" lon="0.31027">
        <ele>1186.38722</ele>
        <time>2024-01-12T08:56:19Z</time>
      </trkpt>
      <trkpt lat="42.93789" lon="0.31029">
        <ele>1187.16553</ele>
        <time>2024-01-12T08:56:20Z</time>
      </trkpt>
      <trkpt lat="42.9379" lon="0.31031">
        <ele>1186.29447</ele>
        <time>2024-01-12T08:56:23Z</time>
      </trkpt>
      <trkpt lat="42.93791" lon="0.31031">
        <ele>1186.48915</ele>
        <time>2024-01-12T08:56:25Z</time>
      </trkpt>
      <trkpt lat="42.93793" lon="0.31031">
        <ele>1187.4264</ele>
        <time>2024-01-12T08:56:26Z</time>
      </trkpt>
      <trkpt lat="42.93793" lon="0.31032">
        <ele>1185.67956</ele>
        <time>2024-01-12T08:56:28Z</time>
      </trkpt>
      <trkpt lat="42.93794" lon="0.31034">
        <ele>1186.79219</ele>
        <time>2024-01-12T08:56:29Z</time>
      </trkpt>
      <trkpt lat="42.93795" lon="0.31036">
        <ele>1187.37713</ele>
        <time>2024-01-12T08:56:31Z</time>
      </trkpt>
      <trkpt lat="42.93796" lon="0.31037">
        <ele>1187.82316</ele>
        <time>2024-01-12T08:56:33Z</time>
      </trkpt>
      <trkpt lat="42.93797" lon="0.31039">
        <ele>1188.5454</ele>
        <time>2024-01-12T08:56:35Z</time>
      </trkpt>
      <trkpt lat="42.93799" lon="0.3104">
        <ele>1190.73162</ele>
        <time>2024-01-12T08:56:37Z</time>
      </trkpt>
      <trkpt lat="42.93799" lon="0.31041">
        <ele>1190.9285</ele>
        <time>2024-01-12T08:56:39Z</time>
      </trkpt>
      <trkpt lat="42.938" lon="0.31044">
        <ele>1191.18325</ele>
        <time>2024-01-12T08:56:42Z</time>
      </trkpt>
      <trkpt lat="42.938" lon="0.31044">
        <ele>1189.95715</ele>
        <time>2024-01-12T08:56:43Z</time>
      </trkpt>
      <trkpt lat="42.93802" lon="0.31045">
        <ele>1189.79598</ele>
        <time>2024-01-12T08:56:44Z</time>
      </trkpt>
      <trkpt lat="42.93803" lon="0.31047">
        <ele>1188.95327</ele>
        <time>2024-01-12T08:56:46Z</time>
      </trkpt>
      <trkpt lat="42.93803" lon="0.31049">
        <ele>1187.41209</ele>
        <time>2024-01-12T08:56:48Z</time>
      </trkpt>
      <trkpt lat="42.93804" lon="0.31051">
        <ele>1187.88177</ele>
        <time>2024-01-12T08:56:49Z</time>
      </trkpt>
      <trkpt lat="42.93804" lon="0.31052">
        <ele>1186.8685</ele>
        <time>2024-01-12T08:56:50Z</time>
      </trkpt>
      <trkpt lat="42.93804" lon="0.31054">
        <ele>1188.88066</ele>
        <time>2024-01-12T08:56:51Z</time>
      </trkpt>
      <trkpt lat="42.93806" lon="0.31056">
        <ele>1188.97966</ele>
        <time>2024-01-12T08:56:53Z</time>
      </trkpt>
      <trkpt lat="42.93807" lon="0.31058">
        <ele>1190.13067</ele>
        <time>2024-01-12T08:56:55Z</time>
      </trkpt>
      <trkpt lat="42.93807" lon="0.31059">
        <ele>1190.36296</ele>
        <time>2024-01-12T08:56:56Z</time>
      </trkpt>
      <trkpt lat="42.93808" lon="0.31061">
        <ele>1191.11688</ele>
        <time>2024-01-12T08:56:57Z</time>
      </trkpt>
      <trkpt lat="42.93808" lon="0.31063">
        <ele>1191.9224</ele>
        <time>2024-01-12T08:56:59Z</time>
      </trkpt>
      <trkpt lat="42.9381" lon="0.31064">
        <ele>1192.66388</ele>
        <time>2024-01-12T08:57:00Z</time>
      </trkpt>
      <trkpt lat="42.93812" lon="0.31065">
        <ele>1191.51058</ele>
        <time>2024-01-12T08:57:02Z</time>
      </trkpt>
      <trkpt lat="42.93813" lon="0.31065">
        <ele>1191.21741</ele>
        <time>2024-01-12T08:57:03Z</time>
      </trkpt>
      <trkpt lat="42.93814" lon="0.31066">
        <ele>1190.62094</ele>
        <time>2024-01-12T08:57:05Z</time>
      </trkpt>
      <trkpt lat="42.93815" lon="0.31068">
        <ele>1191.09716</ele>
        <time>2024-01-12T08:57:06Z</time>
      </trkpt>
      <trkpt lat="42.93815" lon="0.31069">
        <ele>1191.48299</ele>
        <time>2024-01-12T08:57:07Z</time>
      </trkpt>
      <trkpt lat="42.93816" lon="0.31071">
        <ele>1190.9867</ele>
        <time>2024-01-12T08:57:09Z</time>
      </trkpt>
      <trkpt lat="42.93817" lon="0.31072">
        <ele>1191.47379</ele>
        <time>2024-01-12T08:57:12Z</time>
      </trkpt>
      <trkpt lat="42.93818" lon="0.31074">
        <ele>1192.79957</ele>
        <time>2024-01-12T08:57:13Z</time>
      </trkpt>
      <trkpt lat="42.93819" lon="0.31075">
        <ele>1194.26588</ele>
        <time>2024-01-12T08:57:15Z</time>
      </trkpt>
      <trkpt lat="42.9382" lon="0.31076">
        <ele>1191.27887</ele>
        <time>2024-01-12T08:57:16Z</time>
      </trkpt>
      <trkpt lat="42.93822" lon="0.31077">
        <ele>1191.76942</ele>
        <time>2024-01-12T08:57:17Z</time>
      </trkpt>
      <trkpt lat="42.93822" lon="0.31079">
        <ele>1192.80076</ele>
        <time>2024-01-12T08:57:19Z</time>
      </trkpt>
      <trkpt lat="42.93822" lon="0.3108">
        <ele>1193.34224</ele>
        <time>2024-01-12T08:57:20Z</time>
      </trkpt>
      <trkpt lat="42.93823" lon="0.31081">
        <ele>1194.08173</ele>
        <time>2024-01-12T08:57:21Z</time>
      </trkpt>
      <trkpt lat="42.93824" lon="0.31082">
        <ele>1194.87012</ele>
        <time>2024-01-12T08:57:22Z</time>
      </trkpt>
      <trkpt lat="42.93824" lon="0.31084">
        <ele>1194.50765</ele>
        <time>2024-01-12T08:57:24Z</time>
      </trkpt>
      <trkpt lat="42.93825" lon="0.31086">
        <ele>1196.23209</ele>
        <time>2024-01-12T08:57:25Z</time>
      </trkpt>
      <trkpt lat="42.93825" lon="0.31087">
        <ele>1197.66486</ele>
        <time>2024-01-12T08:57:26Z</time>
      </trkpt>
      <trkpt lat="42.93825" lon="0.31089">
        <ele>1198.34236</ele>
        <time>2024-01-12T08:57:27Z</time>
      </trkpt>
      <trkpt lat="42.93826" lon="0.31091">
        <ele>1198.86803</ele>
        <time>2024-01-12T08:57:29Z</time>
      </trkpt>
      <trkpt lat="42.93827" lon="0.31092">
        <ele>1199.78806</ele>
        <time>2024-01-12T08:57:31Z</time>
      </trkpt>
      <trkpt lat="42.93828" lon="0.31093">
        <ele>1200.83705</ele>
        <time>2024-01-12T08:57:32Z</time>
      </trkpt>
      <trkpt lat="42.93828" lon="0.31095">
        <ele>1201.92384</ele>
        <time>2024-01-12T08:57:34Z</time>
      </trkpt>
      <trkpt lat="42.93829" lon="0.31096">
        <ele>1199.90417</ele>
        <time>2024-01-12T08:57:35Z</time>
      </trkpt>
      <trkpt lat="42.93829" lon="0.31098">
        <ele>1201.37508</ele>
        <time>2024-01-12T08:57:36Z</time>
      </trkpt>
      <trkpt lat="42.93829" lon="0.31099">
        <ele>1199.95139</ele>
        <time>2024-01-12T08:57:37Z</time>
      </trkpt>
      <trkpt lat="42.93829" lon="0.311">
        <ele>1200.78387</ele>
        <time>2024-01-12T08:57:38Z</time>
      </trkpt>
      <trkpt lat="42.93829" lon="0.31102">
        <ele>1200.19354</ele>
        <time>2024-01-12T08:57:39Z</time>
      </trkpt>
      <trkpt lat="42.9383" lon="0.31103">
        <ele>1199.99314</ele>
        <time>2024-01-12T08:57:40Z</time>
      </trkpt>
      <trkpt lat="42.93831" lon="0.31104">
        <ele>1201.37705</ele>
        <time>2024-01-12T08:57:41Z</time>
      </trkpt>
      <trkpt lat="42.9383" lon="0.31106">
        <ele>1200.52793</ele>
        <time>2024-01-12T08:57:43Z</time>
      </trkpt>
      <trkpt lat="42.93831" lon="0.31108">
        <ele>1203.6466</ele>
        <time>2024-01-12T08:57:44Z</time>
      </trkpt>
      <trkpt lat="42.93831" lon="0.3111">
        <ele>1203.22233</ele>
        <time>2024-01-12T08:57:46Z</time>
      </trkpt>
      <trkpt lat="42.93832" lon="0.31112">
        <ele>1202.31246</ele>
        <time>2024-01-12T08:57:47Z</time>
      </trkpt>
      <trkpt lat="42.93833" lon="0.31111">
        <ele>1197.68683</ele>
        <time>2024-01-12T08:57:48Z</time>
      </trkpt>
      <trkpt lat="42.93833" lon="0.31113">
        <ele>1200.29618</ele>
        <time>2024-01-12T08:57:49Z</time>
      </trkpt>
      <trkpt lat="42.93835" lon="0.31115">
        <ele>1199.33214</ele>
        <time>2024-01-12T08:57:51Z</time>
      </trkpt>
      <trkpt lat="42.93835" lon="0.31116">
        <ele>1199.3881</ele>
        <time>2024-01-12T08:57:52Z</time>
      </trkpt>
      <trkpt lat="42.93836" lon="0.31118">
        <ele>1200.29921</ele>
        <time>2024-01-12T08:57:53Z</time>
      </trkpt>
      <trkpt lat="42.93837" lon="0.31119">
        <ele>1201.09847</ele>
        <time>2024-01-12T08:57:54Z</time>
      </trkpt>
      <trkpt lat="42.93838" lon="0.3112">
        <ele>1202.73093</ele>
        <time>2024-01-12T08:57:56Z</time>
      </trkpt>
      <trkpt lat="42.93838" lon="0.31122">
        <ele>1200.37473</ele>
        <time>2024-01-12T08:57:58Z</time>
      </trkpt>
      <trkpt lat="42.93839" lon="0.31123">
        <ele>1202.54477</ele>
        <time>2024-01-12T08:58:01Z</time>
      </trkpt>
      <trkpt lat="42.9384" lon="0.31126">
        <ele>1202.3752</ele>
        <time>2024-01-12T08:58:03Z</time>
      </trkpt>
      <trkpt lat="42.93839" lon="0.31127">
        <ele>1202.38989</ele>
        <time>2024-01-12T08:58:04Z</time>
      </trkpt>
      <trkpt lat="42.9384" lon="0.31128">
        <ele>1201.53601</ele>
        <time>2024-01-12T08:58:07Z</time>
      </trkpt>
      <trkpt lat="42.93842" lon="0.31129">
        <ele>1203.2447</ele>
        <time>2024-01-12T08:58:08Z</time>
      </trkpt>
      <trkpt lat="42.93843" lon="0.31132">
        <ele>1204.51005</ele>
        <time>2024-01-12T08:58:10Z</time>
      </trkpt>
      <trkpt lat="42.93844" lon="0.31133">
        <ele>1203.82629</ele>
        <time>2024-01-12T08:58:12Z</time>
      </trkpt>
      <trkpt lat="42.93844" lon="0.31134">
        <ele>1207.19527</ele>
        <time>2024-01-12T08:58:13Z</time>
      </trkpt>
      <trkpt lat="42.93843" lon="0.31136">
        <ele>1204.34879</ele>
        <time>2024-01-12T08:58:15Z</time>
      </trkpt>
      <trkpt lat="42.93843" lon="0.31137">
        <ele>1203.48582</ele>
        <time>2024-01-12T08:58:16Z</time>
      </trkpt>
      <trkpt lat="42.93843" lon="0.31139">
        <ele>1202.03616</ele>
        <time>2024-01-12T08:58:18Z</time>
      </trkpt>
      <trkpt lat="42.93842" lon="0.31141">
        <ele>1203.14942</ele>
        <time>2024-01-12T08:58:19Z</time>
      </trkpt>
      <trkpt lat="42.93842" lon="0.31142">
        <ele>1202.70002</ele>
        <time>2024-01-12T08:58:20Z</time>
      </trkpt>
      <trkpt lat="42.93842" lon="0.31144">
        <ele>1202.65331</ele>
        <time>2024-01-12T08:58:21Z</time>
      </trkpt>
      <trkpt lat="42.93843" lon="0.31146">
        <ele>1203.03194</ele>
        <time>2024-01-12T08:58:22Z</time>
      </trkpt>
      <trkpt lat="42.93843" lon="0.31148">
        <ele>1202.30279</ele>
        <time>2024-01-12T08:58:24Z</time>
      </trkpt>
      <trkpt lat="42.93844" lon="0.3115">
        <ele>1201.27005</ele>
        <time>2024-01-12T08:58:25Z</time>
      </trkpt>
      <trkpt lat="42.93844" lon="0.31151">
        <ele>1201.15367</ele>
        <time>2024-01-12T08:58:26Z</time>
      </trkpt>
      <trkpt lat="42.93844" lon="0.31153">
        <ele>1199.34692</ele>
        <time>2024-01-12T08:58:28Z</time>
      </trkpt>
      <trkpt lat="42.93844" lon="0.31154">
        <ele>1200.00662</ele>
        <time>2024-01-12T08:58:29Z</time>
      </trkpt>
      <trkpt lat="42.93844" lon="0.31156">
        <ele>1198.57231</ele>
        <time>2024-01-12T08:58:30Z</time>
      </trkpt>
      <trkpt lat="42.93844" lon="0.31158">
        <ele>1198.43505</ele>
        <time>2024-01-12T08:58:32Z</time>
      </trkpt>
      <trkpt lat="42.93845" lon="0.31158">
        <ele>1197.88998</ele>
        <time>2024-01-12T08:58:33Z</time>
      </trkpt>
      <trkpt lat="42.93846" lon="0.3116">
        <ele>1196.77406</ele>
        <time>2024-01-12T08:58:34Z</time>
      </trkpt>
      <trkpt lat="42.93845" lon="0.31161">
        <ele>1196.67551</ele>
        <time>2024-01-12T08:58:35Z</time>
      </trkpt>
      <trkpt lat="42.93846" lon="0.31163">
        <ele>1197.16725</ele>
        <time>2024-01-12T08:58:36Z</time>
      </trkpt>
      <trkpt lat="42.93846" lon="0.31165">
        <ele>1195.22228</ele>
        <time>2024-01-12T08:58:38Z</time>
      </trkpt>
      <trkpt lat="42.93846" lon="0.31167">
        <ele>1195.10055</ele>
        <time>2024-01-12T08:58:39Z</time>
      </trkpt>
      <trkpt lat="42.93846" lon="0.31169">
        <ele>1196.26691</ele>
        <time>2024-01-12T08:58:41Z</time>
      </trkpt>
      <trkpt lat="42.93847" lon="0.31171">
        <ele>1195.91465</ele>
        <time>2024-01-12T08:58:43Z</time>
      </trkpt>
      <trkpt lat="42.93848" lon="0.31172">
        <ele>1193.72487</ele>
        <time>2024-01-12T08:58:45Z</time>
      </trkpt>
      <trkpt lat="42.93848" lon="0.31174">
        <ele>1194.01721</ele>
        <time>2024-01-12T08:58:46Z</time>
      </trkpt>
      <trkpt lat="42.93849" lon="0.31176">
        <ele>1193.82953</ele>
        <time>2024-01-12T08:58:47Z</time>
      </trkpt>
      <trkpt lat="42.9385" lon="0.31175">
        <ele>1193.80392</ele>
        <time>2024-01-12T08:58:48Z</time>
      </trkpt>
      <trkpt lat="42.93851" lon="0.31176">
        <ele>1195.62232</ele>
        <time>2024-01-12T08:58:49Z</time>
      </trkpt>
      <trkpt lat="42.93852" lon="0.31178">
        <ele>1197.50447</ele>
        <time>2024-01-12T08:58:51Z</time>
      </trkpt>
      <trkpt lat="42.93852" lon="0.3118">
        <ele>1197.78261</ele>
        <time>2024-01-12T08:58:52Z</time>
      </trkpt>
      <trkpt lat="42.93854" lon="0.31179">
        <ele>1197.9941</ele>
        <time>2024-01-12T08:58:54Z</time>
      </trkpt>
      <trkpt lat="42.93854" lon="0.31181">
        <ele>1198.3193</ele>
        <time>2024-01-12T08:58:55Z</time>
      </trkpt>
      <trkpt lat="42.93855" lon="0.31182">
        <ele>1197.37854</ele>
        <time>2024-01-12T08:58:56Z</time>
      </trkpt>
      <trkpt lat="42.93855" lon="0.31185">
        <ele>1197.28817</ele>
        <time>2024-01-12T08:58:58Z</time>
      </trkpt>
      <trkpt lat="42.93855" lon="0.31186">
        <ele>1197.36731</ele>
        <time>2024-01-12T08:59:00Z</time>
      </trkpt>
      <trkpt lat="42.93855" lon="0.31188">
        <ele>1196.64059</ele>
        <time>2024-01-12T08:59:01Z</time>
      </trkpt>
      <trkpt lat="42.93854" lon="0.31191">
        <ele>1196.55154</ele>
        <time>2024-01-12T08:59:03Z</time>
      </trkpt>
      <trkpt lat="42.93854" lon="0.31193">
        <ele>1197.7379</ele>
        <time>2024-01-12T08:59:05Z</time>
      </trkpt>
      <trkpt lat="42.93855" lon="0.31194">
        <ele>1199.32919</ele>
        <time>2024-01-12T08:59:06Z</time>
      </trkpt>
      <trkpt lat="42.93856" lon="0.31196">
        <ele>1199.52421</ele>
        <time>2024-01-12T08:59:08Z</time>
      </trkpt>
      <trkpt lat="42.93856" lon="0.31198">
        <ele>1200.85184</ele>
        <time>2024-01-12T08:59:10Z</time>
      </trkpt>
      <trkpt lat="42.93857" lon="0.312">
        <ele>1200.3291</ele>
        <time>2024-01-12T08:59:11Z</time>
      </trkpt>
      <trkpt lat="42.93857" lon="0.31201">
        <ele>1200.66194</ele>
        <time>2024-01-12T08:59:12Z</time>
      </trkpt>
      <trkpt lat="42.93858" lon="0.31202">
        <ele>1199.75965</ele>
        <time>2024-01-12T08:59:13Z</time>
      </trkpt>
      <trkpt lat="42.93859" lon="0.31202">
        <ele>1199.92425</ele>
        <time>2024-01-12T08:59:14Z</time>
      </trkpt>
      <trkpt lat="42.9386" lon="0.31202">
        <ele>1199.60846</ele>
        <time>2024-01-12T08:59:15Z</time>
      </trkpt>
      <trkpt lat="42.93861" lon="0.31203">
        <ele>1198.71299</ele>
        <time>2024-01-12T08:59:17Z</time>
      </trkpt>
      <trkpt lat="42.93861" lon="0.31205">
        <ele>1195.94298</ele>
        <time>2024-01-12T08:59:19Z</time>
      </trkpt>
      <trkpt lat="42.93861" lon="0.31206">
        <ele>1196.64653</ele>
        <time>2024-01-12T08:59:20Z</time>
      </trkpt>
      <trkpt lat="42.93862" lon="0.31208">
        <ele>1196.46701</ele>
        <time>2024-01-12T08:59:21Z</time>
      </trkpt>
      <trkpt lat="42.93862" lon="0.31209">
        <ele>1196.11343</ele>
        <time>2024-01-12T08:59:22Z</time>
      </trkpt>
      <trkpt lat="42.93862" lon="0.31211">
        <ele>1194.64937</ele>
        <time>2024-01-12T08:59:24Z</time>
      </trkpt>
      <trkpt lat="42.93862" lon="0.31213">
        <ele>1193.77597</ele>
        <time>2024-01-12T08:59:26Z</time>
      </trkpt>
      <trkpt lat="42.93863" lon="0.31214">
        <ele>1194.26911</ele>
        <time>2024-01-12T08:59:27Z</time>
      </trkpt>
      <trkpt lat="42.93863" lon="0.31216">
        <ele>1193.74266</ele>
        <time>2024-01-12T08:59:28Z</time>
      </trkpt>
      <trkpt lat="42.93864" lon="0.31217">
        <ele>1194.78435</ele>
        <time>2024-01-12T08:59:29Z</time>
      </trkpt>
      <trkpt lat="42.93865" lon="0.31219">
        <ele>1195.16637</ele>
        <time>2024-01-12T08:59:30Z</time>
      </trkpt>
      <trkpt lat="42.93865" lon="0.31221">
        <ele>1196.45259</ele>
        <time>2024-01-12T08:59:31Z</time>
      </trkpt>
      <trkpt lat="42.93864" lon="0.31221">
        <ele>1195.92535</ele>
        <time>2024-01-12T08:59:32Z</time>
      </trkpt>
      <trkpt lat="42.93864" lon="0.31223">
        <ele>1198.5988</ele>
        <time>2024-01-12T08:59:33Z</time>
      </trkpt>
      <trkpt lat="42.93864" lon="0.31224">
        <ele>1199.49535</ele>
        <time>2024-01-12T08:59:34Z</time>
      </trkpt>
      <trkpt lat="42.93864" lon="0.31226">
        <ele>1199.19473</ele>
        <time>2024-01-12T08:59:35Z</time>
      </trkpt>
      <trkpt lat="42.93864" lon="0.31227">
        <ele>1198.01144</ele>
        <time>2024-01-12T08:59:37Z</time>
      </trkpt>
      <trkpt lat="42.93864" lon="0.31228">
        <ele>1198.35628</ele>
        <time>2024-01-12T08:59:46Z</time>
      </trkpt>
      <trkpt lat="42.93866" lon="0.31228">
        <ele>1196.31284</ele>
        <time>2024-01-12T08:59:52Z</time>
      </trkpt>
      <trkpt lat="42.93867" lon="0.31229">
        <ele>1197.55369</ele>
        <time>2024-01-12T08:59:54Z</time>
      </trkpt>
      <trkpt lat="42.93866" lon="0.31228">
        <ele>1194.83705</ele>
        <time>2024-01-12T09:00:01Z</time>
      </trkpt>
      <trkpt lat="42.93867" lon="0.31226">
        <ele>1193.99773</ele>
        <time>2024-01-12T09:00:04Z</time>
      </trkpt>
      <trkpt lat="42.93868" lon="0.31225">
        <ele>1194.07967</ele>
        <time>2024-01-12T09:00:06Z</time>
      </trkpt>
      <trkpt lat="42.9387" lon="0.31223">
        <ele>1194.03486</ele>
        <time>2024-01-12T09:00:07Z</time>
      </trkpt>
      <trkpt lat="42.9387" lon="0.31226">
        <ele>1192.93168</ele>
        <time>2024-01-12T09:00:09Z</time>
      </trkpt>
      <trkpt lat="42.93871" lon="0.31226">
        <ele>1193.17917</ele>
        <time>2024-01-12T09:00:11Z</time>
      </trkpt>
      <trkpt lat="42.93873" lon="0.31225">
        <ele>1192.78124</ele>
        <time>2024-01-12T09:00:13Z</time>
      </trkpt>
      <trkpt lat="42.93876" lon="0.31224">
        <ele>1190.82115</ele>
        <time>2024-01-12T09:00:18Z</time>
      </trkpt>
      <trkpt lat="42.93876" lon="0.31224">
        <ele>1190.3017</ele>
        <time>2024-01-12T09:00:23Z</time>
      </trkpt>
      <trkpt lat="42.93877" lon="0.31222">
        <ele>1195.55077</ele>
        <time>2024-01-12T09:00:37Z</time>
      </trkpt>
      <trkpt lat="42.93877" lon="0.3122">
        <ele>1193.51549</ele>
        <time>2024-01-12T09:00:42Z</time>
      </trkpt>
      <trkpt lat="42.93877" lon="0.31223">
        <ele>1197.16675</ele>
        <time>2024-01-12T09:00:53Z</time>
      </trkpt>
      <trkpt lat="42.93875" lon="0.31225">
        <ele>1199.07958</ele>
        <time>2024-01-12T09:00:57Z</time>
      </trkpt>
      <trkpt lat="42.93874" lon="0.31226">
        <ele>1198.81442</ele>
        <time>2024-01-12T09:01:00Z</time>
      </trkpt>
      <trkpt lat="42.93872" lon="0.31232">
        <ele>1203.95567</ele>
        <time>2024-01-12T09:01:07Z</time>
      </trkpt>
      <trkpt lat="42.93871" lon="0.31231">
        <ele>1206.55353</ele>
        <time>2024-01-12T09:01:09Z</time>
      </trkpt>
      <trkpt lat="42.93871" lon="0.31232">
        <ele>1208.67427</ele>
        <time>2024-01-12T09:01:11Z</time>
      </trkpt>
      <trkpt lat="42.9387" lon="0.31232">
        <ele>1206.68868</ele>
        <time>2024-01-12T09:01:16Z</time>
      </trkpt>
      <trkpt lat="42.93869" lon="0.31235">
        <ele>1205.07055</ele>
        <time>2024-01-12T09:01:21Z</time>
      </trkpt>
      <trkpt lat="42.93869" lon="0.31234">
        <ele>1199.43711</ele>
        <time>2024-01-12T09:01:25Z</time>
      </trkpt>
      <trkpt lat="42.93869" lon="0.31235">
        <ele>1202.13698</ele>
        <time>2024-01-12T09:01:29Z</time>
      </trkpt>
      <trkpt lat="42.9387" lon="0.31235">
        <ele>1202.93167</ele>
        <time>2024-01-12T09:01:31Z</time>
      </trkpt>
      <trkpt lat="42.93871" lon="0.31233">
        <ele>1198.78718</ele>
        <time>2024-01-12T09:01:35Z</time>
      </trkpt>
      <trkpt lat="42.93871" lon="0.31234">
        <ele>1200.81885</ele>
        <time>2024-01-12T09:01:39Z</time>
      </trkpt>
      <trkpt lat="42.93871" lon="0.31233">
        <ele>1196.5115</ele>
        <time>2024-01-12T09:01:40Z</time>
      </trkpt>
      <trkpt lat="42.93872" lon="0.31235">
        <ele>1199.78719</ele>
        <time>2024-01-12T09:01:47Z</time>
      </trkpt>
      <trkpt lat="42.93872" lon="0.31237">
        <ele>1201.77218</ele>
        <time>2024-01-12T09:01:52Z</time>
      </trkpt>
      <trkpt lat="42.93872" lon="0.31239">
        <ele>1202.52711</ele>
        <time>2024-01-12T09:01:54Z</time>
      </trkpt>
      <trkpt lat="42.93873" lon="0.31239">
        <ele>1203.47877</ele>
        <time>2024-01-12T09:01:59Z</time>
      </trkpt>
      <trkpt lat="42.93873" lon="0.31238">
        <ele>1202.9651</ele>
        <time>2024-01-12T09:02:01Z</time>
      </trkpt>
      <trkpt lat="42.93872" lon="0.31241">
        <ele>1209.5248</ele>
        <time>2024-01-12T09:02:07Z</time>
      </trkpt>
      <trkpt lat="42.93872" lon="0.31239">
        <ele>1208.73916</ele>
        <time>2024-01-12T09:02:10Z</time>
      </trkpt>
      <trkpt lat="42.93872" lon="0.31237">
        <ele>1208.88927</ele>
        <time>2024-01-12T09:02:14Z</time>
      </trkpt>
      <trkpt lat="42.93871" lon="0.31236">
        <ele>1206.42522</ele>
        <time>2024-01-12T09:02:15Z</time>
      </trkpt>
      <trkpt lat="42.93871" lon="0.31234">
        <ele>1204.19839</ele>
        <time>2024-01-12T09:02:17Z</time>
      </trkpt>
      <trkpt lat="42.93872" lon="0.31234">
        <ele>1206.7793</ele>
        <time>2024-01-12T09:02:20Z</time>
      </trkpt>
      <trkpt lat="42.93873" lon="0.31233">
        <ele>1207.23317</ele>
        <time>2024-01-12T09:02:23Z</time>
      </trkpt>
      <trkpt lat="42.93871" lon="0.31227">
        <ele>1194.09355</ele>
        <time>2024-01-12T09:02:43Z</time>
      </trkpt>
      <trkpt lat="42.93871" lon="0.31229">
        <ele>1195.93935</ele>
        <time>2024-01-12T09:02:51Z</time>
      </trkpt>
      <trkpt lat="42.93871" lon="0.31231">
        <ele>1197.55426</ele>
        <time>2024-01-12T09:03:08Z</time>
      </trkpt>
      <trkpt lat="42.93871" lon="0.31232">
        <ele>1198.18311</ele>
        <time>2024-01-12T09:03:10Z</time>
      </trkpt>
      <trkpt lat="42.93872" lon="0.31231">
        <ele>1199.00469</ele>
        <time>2024-01-12T09:03:11Z</time>
      </trkpt>
      <trkpt lat="42.93872" lon="0.3123">
        <ele>1199.36568</ele>
        <time>2024-01-12T09:03:14Z</time>
      </trkpt>
      <trkpt lat="42.93872" lon="0.31228">
        <ele>1198.38768</ele>
        <time>2024-01-12T09:03:17Z</time>
      </trkpt>
      <trkpt lat="42.93872" lon="0.31226">
        <ele>1199.60872</ele>
        <time>2024-01-12T09:03:24Z</time>
      </trkpt>
      <trkpt lat="42.93874" lon="0.31224">
        <ele>1199.63827</ele>
        <time>2024-01-12T09:03:28Z</time>
      </trkpt>
      <trkpt lat="42.93876" lon="0.31225">
        <ele>1200.78699</ele>
        <time>2024-01-12T09:03:33Z</time>
      </trkpt>
      <trkpt lat="42.93874" lon="0.31225">
        <ele>1200.6047</ele>
        <time>2024-01-12T09:03:35Z</time>
      </trkpt>
      <trkpt lat="42.93874" lon="0.31222">
        <ele>1196.13635</ele>
        <time>2024-01-12T09:03:42Z</time>
      </trkpt>
      <trkpt lat="42.93874" lon="0.31227">
        <ele>1203.37107</ele>
        <time>2024-01-12T09:04:01Z</time>
      </trkpt>
      <trkpt lat="42.93873" lon="0.31228">
        <ele>1205.29269</ele>
        <time>2024-01-12T09:04:02Z</time>
      </trkpt>
      <trkpt lat="42.93874" lon="0.31226">
        <ele>1204.9283</ele>
        <time>2024-01-12T09:04:05Z</time>
      </trkpt>
      <trkpt lat="42.93873" lon="0.31224">
        <ele>1196.49579</ele>
        <time>2024-01-12T09:04:08Z</time>
      </trkpt>
      <trkpt lat="42.93873" lon="0.31227">
        <ele>1201.3678</ele>
        <time>2024-01-12T09:04:17Z</time>
      </trkpt>
      <trkpt lat="42.93872" lon="0.31228">
        <ele>1201.46731</ele>
        <time>2024-01-12T09:04:19Z</time>
      </trkpt>
      <trkpt lat="42.93872" lon="0.31226">
        <ele>1198.69032</ele>
        <time>2024-01-12T09:04:22Z</time>
      </trkpt>
      <trkpt lat="42.93874" lon="0.31229">
        <ele>1199.7469</ele>
        <time>2024-01-12T09:04:37Z</time>
      </trkpt>
      <trkpt lat="42.93874" lon="0.3123">
        <ele>1198.05672</ele>
        <time>2024-01-12T09:04:40Z</time>
      </trkpt>
      <trkpt lat="42.93875" lon="0.31231">
        <ele>1199.88232</ele>
        <time>2024-01-12T09:04:42Z</time>
      </trkpt>
      <trkpt lat="42.93874" lon="0.31232">
        <ele>1199.47909</ele>
        <time>2024-01-12T09:04:44Z</time>
      </trkpt>
      <trkpt lat="42.93874" lon="0.31233">
        <ele>1200.64618</ele>
        <time>2024-01-12T09:04:45Z</time>
      </trkpt>
      <trkpt lat="42.93874" lon="0.31235">
        <ele>1200.8475</ele>
        <time>2024-01-12T09:04:48Z</time>
      </trkpt>
      <trkpt lat="42.93874" lon="0.31236">
        <ele>1202.58825</ele>
        <time>2024-01-12T09:04:50Z</time>
      </trkpt>
      <trkpt lat="42.93875" lon="0.31237">
        <ele>1200.46117</ele>
        <time>2024-01-12T09:04:51Z</time>
      </trkpt>
      <trkpt lat="42.93876" lon="0.31237">
        <ele>1201.59719</ele>
        <time>2024-01-12T09:04:53Z</time>
      </trkpt>
      <trkpt lat="42.93876" lon="0.31239">
        <ele>1202.83034</ele>
        <time>2024-01-12T09:04:55Z</time>
      </trkpt>
      <trkpt lat="42.93876" lon="0.31241">
        <ele>1202.66151</ele>
        <time>2024-01-12T09:04:56Z</time>
      </trkpt>
      <trkpt lat="42.93876" lon="0.31243">
        <ele>1202.52072</ele>
        <time>2024-01-12T09:04:58Z</time>
      </trkpt>
      <trkpt lat="42.93877" lon="0.31245">
        <ele>1200.86694</ele>
        <time>2024-01-12T09:05:00Z</time>
      </trkpt>
      <trkpt lat="42.93878" lon="0.31247">
        <ele>1202.20699</ele>
        <time>2024-01-12T09:05:03Z</time>
      </trkpt>
      <trkpt lat="42.93879" lon="0.31248">
        <ele>1200.73338</ele>
        <time>2024-01-12T09:05:06Z</time>
      </trkpt>
      <trkpt lat="42.93881" lon="0.3125">
        <ele>1203.40812</ele>
        <time>2024-01-12T09:05:08Z</time>
      </trkpt>
      <trkpt lat="42.93882" lon="0.31251">
        <ele>1202.51439</ele>
        <time>2024-01-12T09:05:10Z</time>
      </trkpt>
      <trkpt lat="42.9388" lon="0.31252">
        <ele>1203.05926</ele>
        <time>2024-01-12T09:05:11Z</time>
      </trkpt>
      <trkpt lat="42.93881" lon="0.31253">
        <ele>1202.3039</ele>
        <time>2024-01-12T09:05:13Z</time>
      </trkpt>
      <trkpt lat="42.93882" lon="0.31255">
        <ele>1203.61047</ele>
        <time>2024-01-12T09:05:14Z</time>
      </trkpt>
      <trkpt lat="42.93883" lon="0.31256">
        <ele>1204.24155</ele>
        <time>2024-01-12T09:05:17Z</time>
      </trkpt>
      <trkpt lat="42.93883" lon="0.31257">
        <ele>1204.30348</ele>
        <time>2024-01-12T09:05:18Z</time>
      </trkpt>
      <trkpt lat="42.93884" lon="0.31259">
        <ele>1206.64352</ele>
        <time>2024-01-12T09:05:19Z</time>
      </trkpt>
      <trkpt lat="42.93885" lon="0.3126">
        <ele>1205.84054</ele>
        <time>2024-01-12T09:05:21Z</time>
      </trkpt>
      <trkpt lat="42.93886" lon="0.31261">
        <ele>1205.5812</ele>
        <time>2024-01-12T09:05:22Z</time>
      </trkpt>
      <trkpt lat="42.93888" lon="0.31261">
        <ele>1204.84649</ele>
        <time>2024-01-12T09:05:24Z</time>
      </trkpt>
      <trkpt lat="42.93889" lon="0.31262">
        <ele>1205.09798</ele>
        <time>2024-01-12T09:05:26Z</time>
      </trkpt>
      <trkpt lat="42.93889" lon="0.31264">
        <ele>1204.85569</ele>
        <time>2024-01-12T09:05:28Z</time>
      </trkpt>
      <trkpt lat="42.9389" lon="0.31265">
        <ele>1204.44418</ele>
        <time>2024-01-12T09:05:29Z</time>
      </trkpt>
      <trkpt lat="42.9389" lon="0.31267">
        <ele>1205.13638</ele>
        <time>2024-01-12T09:05:31Z</time>
      </trkpt>
      <trkpt lat="42.93892" lon="0.31268">
        <ele>1205.58811</ele>
        <time>2024-01-12T09:05:33Z</time>
      </trkpt>
      <trkpt lat="42.93893" lon="0.3127">
        <ele>1205.4786</ele>
        <time>2024-01-12T09:05:34Z</time>
      </trkpt>
      <trkpt lat="42.93893" lon="0.3127">
        <ele>1203.78135</ele>
        <time>2024-01-12T09:05:36Z</time>
      </trkpt>
      <trkpt lat="42.93894" lon="0.31272">
        <ele>1204.05802</ele>
        <time>2024-01-12T09:05:37Z</time>
      </trkpt>
      <trkpt lat="42.93896" lon="0.31274">
        <ele>1205.94139</ele>
        <time>2024-01-12T09:05:39Z</time>
      </trkpt>
      <trkpt lat="42.93897" lon="0.31276">
        <ele>1204.70819</ele>
        <time>2024-01-12T09:05:42Z</time>
      </trkpt>
      <trkpt lat="42.93898" lon="0.31277">
        <ele>1205.51116</ele>
        <time>2024-01-12T09:05:44Z</time>
      </trkpt>
      <trkpt lat="42.93898" lon="0.31278">
        <ele>1205.70143</ele>
        <time>2024-01-12T09:05:46Z</time>
      </trkpt>
      <trkpt lat="42.93898" lon="0.3128">
        <ele>1204.86094</ele>
        <time>2024-01-12T09:05:47Z</time>
      </trkpt>
      <trkpt lat="42.93898" lon="0.31282">
        <ele>1204.73061</ele>
        <time>2024-01-12T09:05:49Z</time>
      </trkpt>
      <trkpt lat="42.93899" lon="0.31283">
        <ele>1206.10604</ele>
        <time>2024-01-12T09:05:51Z</time>
      </trkpt>
      <trkpt lat="42.939" lon="0.31284">
        <ele>1205.5707</ele>
        <time>2024-01-12T09:05:53Z</time>
      </trkpt>
      <trkpt lat="42.93899" lon="0.31286">
        <ele>1205.10932</ele>
        <time>2024-01-12T09:05:55Z</time>
      </trkpt>
      <trkpt lat="42.939" lon="0.31288">
        <ele>1204.79011</ele>
        <time>2024-01-12T09:05:56Z</time>
      </trkpt>
      <trkpt lat="42.93901" lon="0.31289">
        <ele>1205.73171</ele>
        <time>2024-01-12T09:05:58Z</time>
      </trkpt>
      <trkpt lat="42.93902" lon="0.31289">
        <ele>1207.66584</ele>
        <time>2024-01-12T09:06:00Z</time>
      </trkpt>
      <trkpt lat="42.93903" lon="0.3129">
        <ele>1208.19721</ele>
        <time>2024-01-12T09:06:03Z</time>
      </trkpt>
      <trkpt lat="42.93904" lon="0.31292">
        <ele>1207.41956</ele>
        <time>2024-01-12T09:06:05Z</time>
      </trkpt>
      <trkpt lat="42.93905" lon="0.31293">
        <ele>1207.86012</ele>
        <time>2024-01-12T09:06:07Z</time>
      </trkpt>
      <trkpt lat="42.93905" lon="0.31295">
        <ele>1207.91135</ele>
        <time>2024-01-12T09:06:08Z</time>
      </trkpt>
      <trkpt lat="42.93906" lon="0.31298">
        <ele>1209.33014</ele>
        <time>2024-01-12T09:06:10Z</time>
      </trkpt>
      <trkpt lat="42.93906" lon="0.31299">
        <ele>1210.02863</ele>
        <time>2024-01-12T09:06:11Z</time>
      </trkpt>
      <trkpt lat="42.93906" lon="0.31301">
        <ele>1210.42371</ele>
        <time>2024-01-12T09:06:13Z</time>
      </trkpt>
      <trkpt lat="42.93906" lon="0.31302">
        <ele>1211.79428</ele>
        <time>2024-01-12T09:06:15Z</time>
      </trkpt>
      <trkpt lat="42.93907" lon="0.31305">
        <ele>1212.06074</ele>
        <time>2024-01-12T09:06:17Z</time>
      </trkpt>
      <trkpt lat="42.93907" lon="0.31306">
        <ele>1212.16742</ele>
        <time>2024-01-12T09:06:19Z</time>
      </trkpt>
      <trkpt lat="42.93908" lon="0.31308">
        <ele>1212.18281</ele>
        <time>2024-01-12T09:06:20Z</time>
      </trkpt>
      <trkpt lat="42.93908" lon="0.31309">
        <ele>1212.9952</ele>
        <time>2024-01-12T09:06:21Z</time>
      </trkpt>
      <trkpt lat="42.93908" lon="0.31311">
        <ele>1214.87388</ele>
        <time>2024-01-12T09:06:23Z</time>
      </trkpt>
      <trkpt lat="42.93909" lon="0.31313">
        <ele>1214.5172</ele>
        <time>2024-01-12T09:06:25Z</time>
      </trkpt>
      <trkpt lat="42.93909" lon="0.31315">
        <ele>1214.07745</ele>
        <time>2024-01-12T09:06:29Z</time>
      </trkpt>
      <trkpt lat="42.93909" lon="0.31317">
        <ele>1216.17095</ele>
        <time>2024-01-12T09:06:31Z</time>
      </trkpt>
      <trkpt lat="42.93909" lon="0.31318">
        <ele>1216.38623</ele>
        <time>2024-01-12T09:06:32Z</time>
      </trkpt>
      <trkpt lat="42.93911" lon="0.3132">
        <ele>1217.78074</ele>
        <time>2024-01-12T09:06:34Z</time>
      </trkpt>
      <trkpt lat="42.93911" lon="0.31321">
        <ele>1215.90023</ele>
        <time>2024-01-12T09:06:36Z</time>
      </trkpt>
      <trkpt lat="42.93912" lon="0.31324">
        <ele>1217.84067</ele>
        <time>2024-01-12T09:06:40Z</time>
      </trkpt>
      <trkpt lat="42.93914" lon="0.31325">
        <ele>1217.75025</ele>
        <time>2024-01-12T09:06:41Z</time>
      </trkpt>
      <trkpt lat="42.93914" lon="0.31327">
        <ele>1215.77989</ele>
        <time>2024-01-12T09:06:43Z</time>
      </trkpt>
      <trkpt lat="42.93914" lon="0.31328">
        <ele>1215.62957</ele>
        <time>2024-01-12T09:06:45Z</time>
      </trkpt>
      <trkpt lat="42.93915" lon="0.3133">
        <ele>1216.47969</ele>
        <time>2024-01-12T09:06:47Z</time>
      </trkpt>
      <trkpt lat="42.93915" lon="0.31331">
        <ele>1215.41524</ele>
        <time>2024-01-12T09:06:49Z</time>
      </trkpt>
      <trkpt lat="42.93916" lon="0.31333">
        <ele>1214.49115</ele>
        <time>2024-01-12T09:06:51Z</time>
      </trkpt>
      <trkpt lat="42.93917" lon="0.31334">
        <ele>1215.11901</ele>
        <time>2024-01-12T09:06:53Z</time>
      </trkpt>
      <trkpt lat="42.93915" lon="0.31335">
        <ele>1214.85317</ele>
        <time>2024-01-12T09:06:54Z</time>
      </trkpt>
      <trkpt lat="42.93916" lon="0.31337">
        <ele>1215.47506</ele>
        <time>2024-01-12T09:06:55Z</time>
      </trkpt>
      <trkpt lat="42.93916" lon="0.31339">
        <ele>1214.4525</ele>
        <time>2024-01-12T09:06:56Z</time>
      </trkpt>
      <trkpt lat="42.93916" lon="0.3134">
        <ele>1214.55085</ele>
        <time>2024-01-12T09:06:57Z</time>
      </trkpt>
      <trkpt lat="42.93917" lon="0.31341">
        <ele>1214.00601</ele>
        <time>2024-01-12T09:06:58Z</time>
      </trkpt>
      <trkpt lat="42.93917" lon="0.31343">
        <ele>1213.20795</ele>
        <time>2024-01-12T09:07:00Z</time>
      </trkpt>
      <trkpt lat="42.93918" lon="0.31344">
        <ele>1213.50725</ele>
        <time>2024-01-12T09:07:01Z</time>
      </trkpt>
      <trkpt lat="42.93919" lon="0.31346">
        <ele>1214.38408</ele>
        <time>2024-01-12T09:07:03Z</time>
      </trkpt>
      <trkpt lat="42.93918" lon="0.31347">
        <ele>1212.6429</ele>
        <time>2024-01-12T09:07:04Z</time>
      </trkpt>
      <trkpt lat="42.93919" lon="0.31348">
        <ele>1213.66456</ele>
        <time>2024-01-12T09:07:06Z</time>
      </trkpt>
      <trkpt lat="42.93919" lon="0.3135">
        <ele>1216.63918</ele>
        <time>2024-01-12T09:07:08Z</time>
      </trkpt>
      <trkpt lat="42.93919" lon="0.31351">
        <ele>1218.74856</ele>
        <time>2024-01-12T09:07:10Z</time>
      </trkpt>
      <trkpt lat="42.93919" lon="0.31353">
        <ele>1220.12096</ele>
        <time>2024-01-12T09:07:12Z</time>
      </trkpt>
      <trkpt lat="42.9392" lon="0.31354">
        <ele>1219.87731</ele>
        <time>2024-01-12T09:07:14Z</time>
      </trkpt>
      <trkpt lat="42.93921" lon="0.31355">
        <ele>1220.20295</ele>
        <time>2024-01-12T09:07:15Z</time>
      </trkpt>
      <trkpt lat="42.93921" lon="0.31356">
        <ele>1220.61339</ele>
        <time>2024-01-12T09:07:16Z</time>
      </trkpt>
      <trkpt lat="42.9392" lon="0.31357">
        <ele>1222.74503</ele>
        <time>2024-01-12T09:07:18Z</time>
      </trkpt>
      <trkpt lat="42.93921" lon="0.31359">
        <ele>1225.53373</ele>
        <time>2024-01-12T09:07:19Z</time>
      </trkpt>
      <trkpt lat="42.93922" lon="0.3136">
        <ele>1224.68759</ele>
        <time>2024-01-12T09:07:20Z</time>
      </trkpt>
      <trkpt lat="42.93923" lon="0.31361">
        <ele>1224.79048</ele>
        <time>2024-01-12T09:07:21Z</time>
      </trkpt>
      <trkpt lat="42.93923" lon="0.31363">
        <ele>1225.61001</ele>
        <time>2024-01-12T09:07:23Z</time>
      </trkpt>
      <trkpt lat="42.93924" lon="0.31364">
        <ele>1225.5999</ele>
        <time>2024-01-12T09:07:25Z</time>
      </trkpt>
      <trkpt lat="42.93924" lon="0.31366">
        <ele>1224.52484</ele>
        <time>2024-01-12T09:07:27Z</time>
      </trkpt>
      <trkpt lat="42.93924" lon="0.31367">
        <ele>1223.05351</ele>
        <time>2024-01-12T09:07:29Z</time>
      </trkpt>
      <trkpt lat="42.93926" lon="0.3137">
        <ele>1225.20992</ele>
        <time>2024-01-12T09:07:32Z</time>
      </trkpt>
      <trkpt lat="42.93926" lon="0.31372">
        <ele>1225.2656</ele>
        <time>2024-01-12T09:07:34Z</time>
      </trkpt>
      <trkpt lat="42.93927" lon="0.31374">
        <ele>1226.01029</ele>
        <time>2024-01-12T09:07:35Z</time>
      </trkpt>
      <trkpt lat="42.93926" lon="0.31375">
        <ele>1223.8259</ele>
        <time>2024-01-12T09:07:36Z</time>
      </trkpt>
      <trkpt lat="42.93927" lon="0.31376">
        <ele>1225.18313</ele>
        <time>2024-01-12T09:07:37Z</time>
      </trkpt>
      <trkpt lat="42.93928" lon="0.31375">
        <ele>1226.42772</ele>
        <time>2024-01-12T09:07:39Z</time>
      </trkpt>
      <trkpt lat="42.9393" lon="0.31376">
        <ele>1225.52093</ele>
        <time>2024-01-12T09:07:41Z</time>
      </trkpt>
      <trkpt lat="42.9393" lon="0.31378">
        <ele>1228.40611</ele>
        <time>2024-01-12T09:07:43Z</time>
      </trkpt>
      <trkpt lat="42.93931" lon="0.31379">
        <ele>1227.86336</ele>
        <time>2024-01-12T09:07:44Z</time>
      </trkpt>
      <trkpt lat="42.93933" lon="0.31381">
        <ele>1225.06312</ele>
        <time>2024-01-12T09:07:46Z</time>
      </trkpt>
      <trkpt lat="42.93933" lon="0.31383">
        <ele>1224.17197</ele>
        <time>2024-01-12T09:07:48Z</time>
      </trkpt>
      <trkpt lat="42.93934" lon="0.31382">
        <ele>1224.33653</ele>
        <time>2024-01-12T09:07:49Z</time>
      </trkpt>
      <trkpt lat="42.93935" lon="0.31382">
        <ele>1225.4518</ele>
        <time>2024-01-12T09:07:50Z</time>
      </trkpt>
      <trkpt lat="42.93935" lon="0.31384">
        <ele>1226.08881</ele>
        <time>2024-01-12T09:07:51Z</time>
      </trkpt>
      <trkpt lat="42.93936" lon="0.31385">
        <ele>1225.49313</ele>
        <time>2024-01-12T09:07:53Z</time>
      </trkpt>
      <trkpt lat="42.93938" lon="0.31387">
        <ele>1225.91267</ele>
        <time>2024-01-12T09:07:54Z</time>
      </trkpt>
      <trkpt lat="42.93939" lon="0.31388">
        <ele>1225.99823</ele>
        <time>2024-01-12T09:07:56Z</time>
      </trkpt>
      <trkpt lat="42.9394" lon="0.31389">
        <ele>1226.43854</ele>
        <time>2024-01-12T09:07:57Z</time>
      </trkpt>
      <trkpt lat="42.93941" lon="0.31389">
        <ele>1224.28373</ele>
        <time>2024-01-12T09:07:58Z</time>
      </trkpt>
      <trkpt lat="42.93942" lon="0.31391">
        <ele>1224.89585</ele>
        <time>2024-01-12T09:08:00Z</time>
      </trkpt>
      <trkpt lat="42.93943" lon="0.31391">
        <ele>1224.82391</ele>
        <time>2024-01-12T09:08:02Z</time>
      </trkpt>
      <trkpt lat="42.93944" lon="0.31392">
        <ele>1224.28317</ele>
        <time>2024-01-12T09:08:03Z</time>
      </trkpt>
      <trkpt lat="42.93945" lon="0.31393">
        <ele>1224.19985</ele>
        <time>2024-01-12T09:08:04Z</time>
      </trkpt>
      <trkpt lat="42.93946" lon="0.31394">
        <ele>1225.43276</ele>
        <time>2024-01-12T09:08:06Z</time>
      </trkpt>
      <trkpt lat="42.93946" lon="0.31395">
        <ele>1225.67479</ele>
        <time>2024-01-12T09:08:08Z</time>
      </trkpt>
      <trkpt lat="42.93947" lon="0.31396">
        <ele>1228.90072</ele>
        <time>2024-01-12T09:08:09Z</time>
      </trkpt>
      <trkpt lat="42.93948" lon="0.31396">
        <ele>1226.32014</ele>
        <time>2024-01-12T09:08:10Z</time>
      </trkpt>
      <trkpt lat="42.93949" lon="0.31397">
        <ele>1228.13694</ele>
        <time>2024-01-12T09:08:11Z</time>
      </trkpt>
      <trkpt lat="42.93951" lon="0.31398">
        <ele>1228.23891</ele>
        <time>2024-01-12T09:08:13Z</time>
      </trkpt>
      <trkpt lat="42.93952" lon="0.31399">
        <ele>1230.23821</ele>
        <time>2024-01-12T09:08:14Z</time>
      </trkpt>
      <trkpt lat="42.93953" lon="0.31399">
        <ele>1229.15639</ele>
        <time>2024-01-12T09:08:16Z</time>
      </trkpt>
      <trkpt lat="42.93954" lon="0.314">
        <ele>1229.02102</ele>
        <time>2024-01-12T09:08:17Z</time>
      </trkpt>
      <trkpt lat="42.93955" lon="0.31401">
        <ele>1227.53324</ele>
        <time>2024-01-12T09:08:19Z</time>
      </trkpt>
      <trkpt lat="42.93957" lon="0.31402">
        <ele>1227.8813</ele>
        <time>2024-01-12T09:08:20Z</time>
      </trkpt>
      <trkpt lat="42.93957" lon="0.31404">
        <ele>1228.31196</ele>
        <time>2024-01-12T09:08:22Z</time>
      </trkpt>
      <trkpt lat="42.93958" lon="0.31405">
        <ele>1227.69136</ele>
        <time>2024-01-12T09:08:24Z</time>
      </trkpt>
      <trkpt lat="42.93959" lon="0.31407">
        <ele>1226.99156</ele>
        <time>2024-01-12T09:08:26Z</time>
      </trkpt>
      <trkpt lat="42.9396" lon="0.31408">
        <ele>1229.52808</ele>
        <time>2024-01-12T09:08:28Z</time>
      </trkpt>
      <trkpt lat="42.9396" lon="0.31409">
        <ele>1228.29249</ele>
        <time>2024-01-12T09:08:29Z</time>
      </trkpt>
      <trkpt lat="42.93962" lon="0.3141">
        <ele>1227.23635</ele>
        <time>2024-01-12T09:08:31Z</time>
      </trkpt>
      <trkpt lat="42.93963" lon="0.31408">
        <ele>1227.38052</ele>
        <time>2024-01-12T09:08:34Z</time>
      </trkpt>
      <trkpt lat="42.93964" lon="0.3141">
        <ele>1224.73316</ele>
        <time>2024-01-12T09:08:35Z</time>
      </trkpt>
      <trkpt lat="42.93966" lon="0.31411">
        <ele>1225.89479</ele>
        <time>2024-01-12T09:08:37Z</time>
      </trkpt>
      <trkpt lat="42.93967" lon="0.31412">
        <ele>1226.03745</ele>
        <time>2024-01-12T09:08:38Z</time>
      </trkpt>
      <trkpt lat="42.93967" lon="0.31413">
        <ele>1227.06282</ele>
        <time>2024-01-12T09:08:40Z</time>
      </trkpt>
      <trkpt lat="42.93969" lon="0.31413">
        <ele>1226.50399</ele>
        <time>2024-01-12T09:08:41Z</time>
      </trkpt>
      <trkpt lat="42.93969" lon="0.31415">
        <ele>1226.99511</ele>
        <time>2024-01-12T09:08:43Z</time>
      </trkpt>
      <trkpt lat="42.93972" lon="0.31414">
        <ele>1226.75564</ele>
        <time>2024-01-12T09:08:45Z</time>
      </trkpt>
      <trkpt lat="42.93973" lon="0.31413">
        <ele>1225.59331</ele>
        <time>2024-01-12T09:08:48Z</time>
      </trkpt>
      <trkpt lat="42.93974" lon="0.31414">
        <ele>1227.90989</ele>
        <time>2024-01-12T09:08:51Z</time>
      </trkpt>
      <trkpt lat="42.93976" lon="0.31414">
        <ele>1228.40668</ele>
        <time>2024-01-12T09:08:52Z</time>
      </trkpt>
      <trkpt lat="42.93977" lon="0.31415">
        <ele>1227.95251</ele>
        <time>2024-01-12T09:08:53Z</time>
      </trkpt>
      <trkpt lat="42.93979" lon="0.31415">
        <ele>1226.96167</ele>
        <time>2024-01-12T09:08:55Z</time>
      </trkpt>
      <trkpt lat="42.9398" lon="0.31415">
        <ele>1228.10117</ele>
        <time>2024-01-12T09:08:57Z</time>
      </trkpt>
      <trkpt lat="42.93981" lon="0.31416">
        <ele>1228.84127</ele>
        <time>2024-01-12T09:08:59Z</time>
      </trkpt>
      <trkpt lat="42.93983" lon="0.31415">
        <ele>1228.66404</ele>
        <time>2024-01-12T09:09:00Z</time>
      </trkpt>
      <trkpt lat="42.93984" lon="0.31415">
        <ele>1229.77388</ele>
        <time>2024-01-12T09:09:02Z</time>
      </trkpt>
      <trkpt lat="42.93986" lon="0.31414">
        <ele>1229.82319</ele>
        <time>2024-01-12T09:09:03Z</time>
      </trkpt>
      <trkpt lat="42.93988" lon="0.31414">
        <ele>1231.58117</ele>
        <time>2024-01-12T09:09:05Z</time>
      </trkpt>
      <trkpt lat="42.9399" lon="0.31414">
        <ele>1231.85398</ele>
        <time>2024-01-12T09:09:07Z</time>
      </trkpt>
      <trkpt lat="42.93991" lon="0.31415">
        <ele>1234.35627</ele>
        <time>2024-01-12T09:09:09Z</time>
      </trkpt>
      <trkpt lat="42.93992" lon="0.31414">
        <ele>1238.07682</ele>
        <time>2024-01-12T09:09:11Z</time>
      </trkpt>
      <trkpt lat="42.93993" lon="0.31414">
        <ele>1236.29278</ele>
        <time>2024-01-12T09:09:13Z</time>
      </trkpt>
      <trkpt lat="42.93995" lon="0.31414">
        <ele>1236.03305</ele>
        <time>2024-01-12T09:09:14Z</time>
      </trkpt>
      <trkpt lat="42.93996" lon="0.31412">
        <ele>1236.85644</ele>
        <time>2024-01-12T09:09:16Z</time>
      </trkpt>
      <trkpt lat="42.93997" lon="0.31412">
        <ele>1238.64153</ele>
        <time>2024-01-12T09:09:17Z</time>
      </trkpt>
      <trkpt lat="42.93999" lon="0.31411">
        <ele>1236.03884</ele>
        <time>2024-01-12T09:09:19Z</time>
      </trkpt>
      <trkpt lat="42.94001" lon="0.31411">
        <ele>1234.92248</ele>
        <time>2024-01-12T09:09:20Z</time>
      </trkpt>
      <trkpt lat="42.94002" lon="0.31411">
        <ele>1237.88127</ele>
        <time>2024-01-12T09:09:23Z</time>
      </trkpt>
      <trkpt lat="42.94004" lon="0.31411">
        <ele>1236.48343</ele>
        <time>2024-01-12T09:09:24Z</time>
      </trkpt>
      <trkpt lat="42.94005" lon="0.31411">
        <ele>1237.24297</ele>
        <time>2024-01-12T09:09:25Z</time>
      </trkpt>
      <trkpt lat="42.94006" lon="0.31411">
        <ele>1226.8023</ele>
        <time>2024-01-12T09:09:26Z</time>
      </trkpt>
      <trkpt lat="42.94007" lon="0.3141">
        <ele>1226.26124</ele>
        <time>2024-01-12T09:09:28Z</time>
      </trkpt>
      <trkpt lat="42.94008" lon="0.3141">
        <ele>1225.6533</ele>
        <time>2024-01-12T09:09:29Z</time>
      </trkpt>
      <trkpt lat="42.94009" lon="0.31409">
        <ele>1226.23455</ele>
        <time>2024-01-12T09:09:30Z</time>
      </trkpt>
      <trkpt lat="42.9401" lon="0.31409">
        <ele>1227.27624</ele>
        <time>2024-01-12T09:09:31Z</time>
      </trkpt>
      <trkpt lat="42.94012" lon="0.31408">
        <ele>1230.86543</ele>
        <time>2024-01-12T09:09:35Z</time>
      </trkpt>
      <trkpt lat="42.94013" lon="0.31408">
        <ele>1234.09756</ele>
        <time>2024-01-12T09:09:37Z</time>
      </trkpt>
      <trkpt lat="42.94014" lon="0.31408">
        <ele>1237.41871</ele>
        <time>2024-01-12T09:09:41Z</time>
      </trkpt>
      <trkpt lat="42.94015" lon="0.31408">
        <ele>1237.1339</ele>
        <time>2024-01-12T09:09:42Z</time>
      </trkpt>
      <trkpt lat="42.94016" lon="0.31408">
        <ele>1236.76204</ele>
        <time>2024-01-12T09:09:43Z</time>
      </trkpt>
      <trkpt lat="42.94017" lon="0.31406">
        <ele>1234.89836</ele>
        <time>2024-01-12T09:09:45Z</time>
      </trkpt>
      <trkpt lat="42.94018" lon="0.31405">
        <ele>1235.19834</ele>
        <time>2024-01-12T09:09:47Z</time>
      </trkpt>
      <trkpt lat="42.94019" lon="0.31403">
        <ele>1238.42431</ele>
        <time>2024-01-12T09:09:49Z</time>
      </trkpt>
      <trkpt lat="42.9402" lon="0.31403">
        <ele>1243.54933</ele>
        <time>2024-01-12T09:09:51Z</time>
      </trkpt>
      <trkpt lat="42.94022" lon="0.31403">
        <ele>1239.607</ele>
        <time>2024-01-12T09:09:53Z</time>
      </trkpt>
      <trkpt lat="42.94023" lon="0.31403">
        <ele>1238.64499</ele>
        <time>2024-01-12T09:09:55Z</time>
      </trkpt>
      <trkpt lat="42.94024" lon="0.31402">
        <ele>1237.85021</ele>
        <time>2024-01-12T09:09:57Z</time>
      </trkpt>
      <trkpt lat="42.94026" lon="0.31401">
        <ele>1239.34071</ele>
        <time>2024-01-12T09:09:58Z</time>
      </trkpt>
      <trkpt lat="42.94027" lon="0.31401">
        <ele>1238.69613</ele>
        <time>2024-01-12T09:10:00Z</time>
      </trkpt>
      <trkpt lat="42.94028" lon="0.31401">
        <ele>1240.11162</ele>
        <time>2024-01-12T09:10:03Z</time>
      </trkpt>
      <trkpt lat="42.94028" lon="0.31402">
        <ele>1237.84065</ele>
        <time>2024-01-12T09:10:05Z</time>
      </trkpt>
      <trkpt lat="42.9403" lon="0.31401">
        <ele>1238.62193</ele>
        <time>2024-01-12T09:10:07Z</time>
      </trkpt>
      <trkpt lat="42.94031" lon="0.31401">
        <ele>1239.94281</ele>
        <time>2024-01-12T09:10:11Z</time>
      </trkpt>
      <trkpt lat="42.94032" lon="0.31402">
        <ele>1239.92194</ele>
        <time>2024-01-12T09:10:12Z</time>
      </trkpt>
      <trkpt lat="42.94033" lon="0.314">
        <ele>1239.54743</ele>
        <time>2024-01-12T09:10:14Z</time>
      </trkpt>
      <trkpt lat="42.94035" lon="0.314">
        <ele>1238.60381</ele>
        <time>2024-01-12T09:10:16Z</time>
      </trkpt>
      <trkpt lat="42.94036" lon="0.31401">
        <ele>1237.08656</ele>
        <time>2024-01-12T09:10:18Z</time>
      </trkpt>
      <trkpt lat="42.94037" lon="0.314">
        <ele>1237.00632</ele>
        <time>2024-01-12T09:10:20Z</time>
      </trkpt>
      <trkpt lat="42.94039" lon="0.314">
        <ele>1239.21187</ele>
        <time>2024-01-12T09:10:23Z</time>
      </trkpt>
      <trkpt lat="42.9404" lon="0.31398">
        <ele>1242.57914</ele>
        <time>2024-01-12T09:10:24Z</time>
      </trkpt>
      <trkpt lat="42.9404" lon="0.31397">
        <ele>1242.05134</ele>
        <time>2024-01-12T09:10:25Z</time>
      </trkpt>
      <trkpt lat="42.9404" lon="0.31396">
        <ele>1245.57795</ele>
        <time>2024-01-12T09:10:27Z</time>
      </trkpt>
      <trkpt lat="42.9404" lon="0.31398">
        <ele>1244.34524</ele>
        <time>2024-01-12T09:10:28Z</time>
      </trkpt>
      <trkpt lat="42.94041" lon="0.31397">
        <ele>1244.58037</ele>
        <time>2024-01-12T09:10:30Z</time>
      </trkpt>
      <trkpt lat="42.94043" lon="0.31397">
        <ele>1244.26361</ele>
        <time>2024-01-12T09:10:31Z</time>
      </trkpt>
      <trkpt lat="42.94044" lon="0.31397">
        <ele>1243.85152</ele>
        <time>2024-01-12T09:10:32Z</time>
      </trkpt>
      <trkpt lat="42.94045" lon="0.31397">
        <ele>1243.53583</ele>
        <time>2024-01-12T09:10:33Z</time>
      </trkpt>
      <trkpt lat="42.94046" lon="0.31397">
        <ele>1243.07341</ele>
        <time>2024-01-12T09:10:34Z</time>
      </trkpt>
      <trkpt lat="42.94047" lon="0.31395">
        <ele>1243.22612</ele>
        <time>2024-01-12T09:10:35Z</time>
      </trkpt>
      <trkpt lat="42.94048" lon="0.31395">
        <ele>1241.52219</ele>
        <time>2024-01-12T09:10:37Z</time>
      </trkpt>
      <trkpt lat="42.94049" lon="0.31392">
        <ele>1243.19925</ele>
        <time>2024-01-12T09:10:41Z</time>
      </trkpt>
      <trkpt lat="42.94051" lon="0.31392">
        <ele>1242.50866</ele>
        <time>2024-01-12T09:10:43Z</time>
      </trkpt>
      <trkpt lat="42.94052" lon="0.31391">
        <ele>1240.23468</ele>
        <time>2024-01-12T09:10:46Z</time>
      </trkpt>
      <trkpt lat="42.94053" lon="0.31389">
        <ele>1238.93794</ele>
        <time>2024-01-12T09:10:47Z</time>
      </trkpt>
      <trkpt lat="42.94054" lon="0.31389">
        <ele>1238.79799</ele>
        <time>2024-01-12T09:10:48Z</time>
      </trkpt>
      <trkpt lat="42.94055" lon="0.31389">
        <ele>1241.21401</ele>
        <time>2024-01-12T09:10:50Z</time>
      </trkpt>
      <trkpt lat="42.94056" lon="0.3139">
        <ele>1237.79178</ele>
        <time>2024-01-12T09:10:51Z</time>
      </trkpt>
      <trkpt lat="42.94057" lon="0.3139">
        <ele>1242.15502</ele>
        <time>2024-01-12T09:10:53Z</time>
      </trkpt>
      <trkpt lat="42.94059" lon="0.3139">
        <ele>1242.24159</ele>
        <time>2024-01-12T09:10:54Z</time>
      </trkpt>
      <trkpt lat="42.9406" lon="0.31389">
        <ele>1244.35531</ele>
        <time>2024-01-12T09:10:55Z</time>
      </trkpt>
      <trkpt lat="42.94062" lon="0.31388">
        <ele>1244.36879</ele>
        <time>2024-01-12T09:10:56Z</time>
      </trkpt>
      <trkpt lat="42.94063" lon="0.31387">
        <ele>1244.91013</ele>
        <time>2024-01-12T09:10:59Z</time>
      </trkpt>
      <trkpt lat="42.94065" lon="0.31387">
        <ele>1248.119</ele>
        <time>2024-01-12T09:11:02Z</time>
      </trkpt>
      <trkpt lat="42.94066" lon="0.31387">
        <ele>1248.22742</ele>
        <time>2024-01-12T09:11:04Z</time>
      </trkpt>
      <trkpt lat="42.94067" lon="0.31388">
        <ele>1252.22385</ele>
        <time>2024-01-12T09:11:07Z</time>
      </trkpt>
      <trkpt lat="42.94068" lon="0.31388">
        <ele>1249.5517</ele>
        <time>2024-01-12T09:11:09Z</time>
      </trkpt>
      <trkpt lat="42.94069" lon="0.31388">
        <ele>1248.90894</ele>
        <time>2024-01-12T09:11:11Z</time>
      </trkpt>
      <trkpt lat="42.9407" lon="0.31389">
        <ele>1249.56448</ele>
        <time>2024-01-12T09:11:13Z</time>
      </trkpt>
      <trkpt lat="42.94071" lon="0.3139">
        <ele>1248.72684</ele>
        <time>2024-01-12T09:11:14Z</time>
      </trkpt>
      <trkpt lat="42.94072" lon="0.3139">
        <ele>1247.66764</ele>
        <time>2024-01-12T09:11:15Z</time>
      </trkpt>
      <trkpt lat="42.94073" lon="0.3139">
        <ele>1245.40008</ele>
        <time>2024-01-12T09:11:16Z</time>
      </trkpt>
      <trkpt lat="42.94074" lon="0.3139">
        <ele>1240.52691</ele>
        <time>2024-01-12T09:11:18Z</time>
      </trkpt>
      <trkpt lat="42.94075" lon="0.31388">
        <ele>1242.51142</ele>
        <time>2024-01-12T09:11:20Z</time>
      </trkpt>
      <trkpt lat="42.94077" lon="0.31387">
        <ele>1243.89763</ele>
        <time>2024-01-12T09:11:26Z</time>
      </trkpt>
      <trkpt lat="42.94078" lon="0.31386">
        <ele>1244.46193</ele>
        <time>2024-01-12T09:11:30Z</time>
      </trkpt>
      <trkpt lat="42.94079" lon="0.31386">
        <ele>1245.11228</ele>
        <time>2024-01-12T09:11:31Z</time>
      </trkpt>
      <trkpt lat="42.94081" lon="0.31386">
        <ele>1245.54002</ele>
        <time>2024-01-12T09:11:32Z</time>
      </trkpt>
      <trkpt lat="42.94081" lon="0.31385">
        <ele>1245.0866</ele>
        <time>2024-01-12T09:11:33Z</time>
      </trkpt>
      <trkpt lat="42.94083" lon="0.31385">
        <ele>1243.52877</ele>
        <time>2024-01-12T09:11:35Z</time>
      </trkpt>
      <trkpt lat="42.94084" lon="0.31385">
        <ele>1242.94876</ele>
        <time>2024-01-12T09:11:36Z</time>
      </trkpt>
      <trkpt lat="42.94085" lon="0.31385">
        <ele>1242.08716</ele>
        <time>2024-01-12T09:11:39Z</time>
      </trkpt>
      <trkpt lat="42.94087" lon="0.31385">
        <ele>1241.63992</ele>
        <time>2024-01-12T09:11:42Z</time>
      </trkpt>
      <trkpt lat="42.94087" lon="0.31385">
        <ele>1241.59157</ele>
        <time>2024-01-12T09:11:44Z</time>
      </trkpt>
      <trkpt lat="42.94088" lon="0.31387">
        <ele>1240.65019</ele>
        <time>2024-01-12T09:11:45Z</time>
      </trkpt>
      <trkpt lat="42.9409" lon="0.31387">
        <ele>1241.12174</ele>
        <time>2024-01-12T09:11:46Z</time>
      </trkpt>
      <trkpt lat="42.94091" lon="0.31387">
        <ele>1244.38317</ele>
        <time>2024-01-12T09:11:47Z</time>
      </trkpt>
      <trkpt lat="42.94092" lon="0.31385">
        <ele>1243.66344</ele>
        <time>2024-01-12T09:11:49Z</time>
      </trkpt>
      <trkpt lat="42.94093" lon="0.31384">
        <ele>1243.97988</ele>
        <time>2024-01-12T09:11:51Z</time>
      </trkpt>
      <trkpt lat="42.94094" lon="0.31383">
        <ele>1242.48759</ele>
        <time>2024-01-12T09:11:53Z</time>
      </trkpt>
      <trkpt lat="42.94096" lon="0.31383">
        <ele>1241.7716</ele>
        <time>2024-01-12T09:11:55Z</time>
      </trkpt>
      <trkpt lat="42.94097" lon="0.31384">
        <ele>1243.31579</ele>
        <time>2024-01-12T09:11:56Z</time>
      </trkpt>
      <trkpt lat="42.94098" lon="0.31385">
        <ele>1244.77478</ele>
        <time>2024-01-12T09:11:58Z</time>
      </trkpt>
      <trkpt lat="42.941" lon="0.31386">
        <ele>1246.3508</ele>
        <time>2024-01-12T09:12:00Z</time>
      </trkpt>
      <trkpt lat="42.94101" lon="0.31388">
        <ele>1246.63416</ele>
        <time>2024-01-12T09:12:01Z</time>
      </trkpt>
      <trkpt lat="42.94102" lon="0.31388">
        <ele>1245.00981</ele>
        <time>2024-01-12T09:12:02Z</time>
      </trkpt>
      <trkpt lat="42.94104" lon="0.31389">
        <ele>1247.1149</ele>
        <time>2024-01-12T09:12:05Z</time>
      </trkpt>
      <trkpt lat="42.94106" lon="0.31387">
        <ele>1244.09762</ele>
        <time>2024-01-12T09:12:06Z</time>
      </trkpt>
      <trkpt lat="42.94107" lon="0.31386">
        <ele>1244.69418</ele>
        <time>2024-01-12T09:12:09Z</time>
      </trkpt>
      <trkpt lat="42.94107" lon="0.31385">
        <ele>1244.49058</ele>
        <time>2024-01-12T09:12:10Z</time>
      </trkpt>
      <trkpt lat="42.94108" lon="0.31386">
        <ele>1244.1114</ele>
        <time>2024-01-12T09:12:13Z</time>
      </trkpt>
      <trkpt lat="42.94109" lon="0.31387">
        <ele>1243.70253</ele>
        <time>2024-01-12T09:12:17Z</time>
      </trkpt>
      <trkpt lat="42.9411" lon="0.31389">
        <ele>1244.71238</ele>
        <time>2024-01-12T09:12:19Z</time>
      </trkpt>
      <trkpt lat="42.94111" lon="0.3139">
        <ele>1248.93019</ele>
        <time>2024-01-12T09:12:23Z</time>
      </trkpt>
      <trkpt lat="42.94112" lon="0.31391">
        <ele>1249.01183</ele>
        <time>2024-01-12T09:12:24Z</time>
      </trkpt>
      <trkpt lat="42.94114" lon="0.3139">
        <ele>1247.7784</ele>
        <time>2024-01-12T09:12:27Z</time>
      </trkpt>
      <trkpt lat="42.94115" lon="0.3139">
        <ele>1246.94163</ele>
        <time>2024-01-12T09:12:29Z</time>
      </trkpt>
      <trkpt lat="42.94116" lon="0.3139">
        <ele>1247.30391</ele>
        <time>2024-01-12T09:12:31Z</time>
      </trkpt>
      <trkpt lat="42.94117" lon="0.3139">
        <ele>1247.45881</ele>
        <time>2024-01-12T09:12:33Z</time>
      </trkpt>
      <trkpt lat="42.94118" lon="0.3139">
        <ele>1248.22208</ele>
        <time>2024-01-12T09:12:34Z</time>
      </trkpt>
      <trkpt lat="42.94119" lon="0.31389">
        <ele>1246.94888</ele>
        <time>2024-01-12T09:12:35Z</time>
      </trkpt>
      <trkpt lat="42.9412" lon="0.31389">
        <ele>1244.63478</ele>
        <time>2024-01-12T09:12:36Z</time>
      </trkpt>
      <trkpt lat="42.94122" lon="0.31389">
        <ele>1242.05197</ele>
        <time>2024-01-12T09:12:39Z</time>
      </trkpt>
      <trkpt lat="42.94122" lon="0.31391">
        <ele>1249.02458</ele>
        <time>2024-01-12T09:12:44Z</time>
      </trkpt>
      <trkpt lat="42.94124" lon="0.31389">
        <ele>1249.79705</ele>
        <time>2024-01-12T09:12:45Z</time>
      </trkpt>
      <trkpt lat="42.94125" lon="0.3139">
        <ele>1249.93006</ele>
        <time>2024-01-12T09:12:46Z</time>
      </trkpt>
      <trkpt lat="42.94126" lon="0.3139">
        <ele>1249.5406</ele>
        <time>2024-01-12T09:12:48Z</time>
      </trkpt>
      <trkpt lat="42.94128" lon="0.3139">
        <ele>1249.6224</ele>
        <time>2024-01-12T09:12:50Z</time>
      </trkpt>
      <trkpt lat="42.94129" lon="0.31392">
        <ele>1248.91077</ele>
        <time>2024-01-12T09:12:52Z</time>
      </trkpt>
      <trkpt lat="42.94131" lon="0.31392">
        <ele>1250.19509</ele>
        <time>2024-01-12T09:12:55Z</time>
      </trkpt>
      <trkpt lat="42.9413" lon="0.31391">
        <ele>1249.61952</ele>
        <time>2024-01-12T09:12:57Z</time>
      </trkpt>
      <trkpt lat="42.94131" lon="0.31392">
        <ele>1248.81802</ele>
        <time>2024-01-12T09:13:01Z</time>
      </trkpt>
      <trkpt lat="42.94132" lon="0.31391">
        <ele>1249.56037</ele>
        <time>2024-01-12T09:13:02Z</time>
      </trkpt>
      <trkpt lat="42.94134" lon="0.3139">
        <ele>1252.91708</ele>
        <time>2024-01-12T09:13:03Z</time>
      </trkpt>
      <trkpt lat="42.94134" lon="0.31391">
        <ele>1253.1839</ele>
        <time>2024-01-12T09:13:04Z</time>
      </trkpt>
      <trkpt lat="42.94136" lon="0.31392">
        <ele>1250.11732</ele>
        <time>2024-01-12T09:13:07Z</time>
      </trkpt>
      <trkpt lat="42.94137" lon="0.31391">
        <ele>1245.2316</ele>
        <time>2024-01-12T09:13:11Z</time>
      </trkpt>
      <trkpt lat="42.94138" lon="0.31392">
        <ele>1243.5879</ele>
        <time>2024-01-12T09:13:13Z</time>
      </trkpt>
      <trkpt lat="42.94139" lon="0.31392">
        <ele>1245.41809</ele>
        <time>2024-01-12T09:13:14Z</time>
      </trkpt>
      <trkpt lat="42.94139" lon="0.31394">
        <ele>1247.3307</ele>
        <time>2024-01-12T09:13:16Z</time>
      </trkpt>
      <trkpt lat="42.94141" lon="0.31394">
        <ele>1247.06838</ele>
        <time>2024-01-12T09:13:19Z</time>
      </trkpt>
      <trkpt lat="42.94142" lon="0.31394">
        <ele>1248.12758</ele>
        <time>2024-01-12T09:13:21Z</time>
      </trkpt>
      <trkpt lat="42.94144" lon="0.31393">
        <ele>1249.04928</ele>
        <time>2024-01-12T09:13:23Z</time>
      </trkpt>
      <trkpt lat="42.94145" lon="0.31394">
        <ele>1249.94137</ele>
        <time>2024-01-12T09:13:26Z</time>
      </trkpt>
      <trkpt lat="42.94146" lon="0.31396">
        <ele>1250.14087</ele>
        <time>2024-01-12T09:13:29Z</time>
      </trkpt>
      <trkpt lat="42.94146" lon="0.31397">
        <ele>1250.67677</ele>
        <time>2024-01-12T09:13:30Z</time>
      </trkpt>
      <trkpt lat="42.94148" lon="0.31398">
        <ele>1246.96057</ele>
        <time>2024-01-12T09:13:36Z</time>
      </trkpt>
      <trkpt lat="42.94149" lon="0.31399">
        <ele>1248.01056</ele>
        <time>2024-01-12T09:13:38Z</time>
      </trkpt>
      <trkpt lat="42.94151" lon="0.314">
        <ele>1248.5222</ele>
        <time>2024-01-12T09:13:39Z</time>
      </trkpt>
      <trkpt lat="42.94152" lon="0.31401">
        <ele>1252.7002</ele>
        <time>2024-01-12T09:13:41Z</time>
      </trkpt>
      <trkpt lat="42.94153" lon="0.31402">
        <ele>1250.99163</ele>
        <time>2024-01-12T09:13:43Z</time>
      </trkpt>
      <trkpt lat="42.94154" lon="0.31404">
        <ele>1249.27918</ele>
        <time>2024-01-12T09:13:45Z</time>
      </trkpt>
      <trkpt lat="42.94155" lon="0.31404">
        <ele>1250.3671</ele>
        <time>2024-01-12T09:13:47Z</time>
      </trkpt>
      <trkpt lat="42.94157" lon="0.31405">
        <ele>1252.79785</ele>
        <time>2024-01-12T09:13:49Z</time>
      </trkpt>
      <trkpt lat="42.94157" lon="0.31407">
        <ele>1252.61807</ele>
        <time>2024-01-12T09:13:50Z</time>
      </trkpt>
      <trkpt lat="42.94158" lon="0.31408">
        <ele>1251.52373</ele>
        <time>2024-01-12T09:13:52Z</time>
      </trkpt>
      <trkpt lat="42.9416" lon="0.31409">
        <ele>1251.21955</ele>
        <time>2024-01-12T09:13:53Z</time>
      </trkpt>
      <trkpt lat="42.94161" lon="0.31411">
        <ele>1250.64094</ele>
        <time>2024-01-12T09:13:54Z</time>
      </trkpt>
      <trkpt lat="42.94162" lon="0.31412">
        <ele>1250.03274</ele>
        <time>2024-01-12T09:13:58Z</time>
      </trkpt>
      <trkpt lat="42.94163" lon="0.31412">
        <ele>1249.78365</ele>
        <time>2024-01-12T09:14:00Z</time>
      </trkpt>
      <trkpt lat="42.94163" lon="0.31413">
        <ele>1249.72021</ele>
        <time>2024-01-12T09:14:01Z</time>
      </trkpt>
      <trkpt lat="42.94164" lon="0.31415">
        <ele>1252.49862</ele>
        <time>2024-01-12T09:14:06Z</time>
      </trkpt>
      <trkpt lat="42.94165" lon="0.31417">
        <ele>1251.74948</ele>
        <time>2024-01-12T09:14:10Z</time>
      </trkpt>
      <trkpt lat="42.94165" lon="0.31418">
        <ele>1252.66072</ele>
        <time>2024-01-12T09:14:11Z</time>
      </trkpt>
      <trkpt lat="42.94165" lon="0.3142">
        <ele>1250.39111</ele>
        <time>2024-01-12T09:14:12Z</time>
      </trkpt>
      <trkpt lat="42.94168" lon="0.31418">
        <ele>1250.99117</ele>
        <time>2024-01-12T09:14:14Z</time>
      </trkpt>
      <trkpt lat="42.94168" lon="0.31419">
        <ele>1252.77566</ele>
        <time>2024-01-12T09:14:17Z</time>
      </trkpt>
      <trkpt lat="42.94168" lon="0.3142">
        <ele>1251.60892</ele>
        <time>2024-01-12T09:14:18Z</time>
      </trkpt>
      <trkpt lat="42.94169" lon="0.3142">
        <ele>1252.12458</ele>
        <time>2024-01-12T09:14:19Z</time>
      </trkpt>
      <trkpt lat="42.9417" lon="0.31421">
        <ele>1251.18755</ele>
        <time>2024-01-12T09:14:20Z</time>
      </trkpt>
      <trkpt lat="42.94172" lon="0.31422">
        <ele>1250.22237</ele>
        <time>2024-01-12T09:14:22Z</time>
      </trkpt>
      <trkpt lat="42.94172" lon="0.31423">
        <ele>1251.22019</ele>
        <time>2024-01-12T09:14:24Z</time>
      </trkpt>
      <trkpt lat="42.94172" lon="0.31426">
        <ele>1253.68439</ele>
        <time>2024-01-12T09:14:28Z</time>
      </trkpt>
      <trkpt lat="42.94173" lon="0.31427">
        <ele>1254.69884</ele>
        <time>2024-01-12T09:14:30Z</time>
      </trkpt>
      <trkpt lat="42.94173" lon="0.31428">
        <ele>1254.28293</ele>
        <time>2024-01-12T09:14:31Z</time>
      </trkpt>
      <trkpt lat="42.94173" lon="0.3143">
        <ele>1254.38693</ele>
        <time>2024-01-12T09:14:33Z</time>
      </trkpt>
      <trkpt lat="42.94172" lon="0.31431">
        <ele>1253.8398</ele>
        <time>2024-01-12T09:14:35Z</time>
      </trkpt>
      <trkpt lat="42.94172" lon="0.31433">
        <ele>1254.75417</ele>
        <time>2024-01-12T09:14:37Z</time>
      </trkpt>
      <trkpt lat="42.94172" lon="0.31432">
        <ele>1257.30669</ele>
        <time>2024-01-12T09:14:39Z</time>
      </trkpt>
      <trkpt lat="42.94172" lon="0.31434">
        <ele>1255.67269</ele>
        <time>2024-01-12T09:14:40Z</time>
      </trkpt>
      <trkpt lat="42.9417" lon="0.31434">
        <ele>1256.98485</ele>
        <time>2024-01-12T09:14:46Z</time>
      </trkpt>
      <trkpt lat="42.94169" lon="0.31436">
        <ele>1257.59269</ele>
        <time>2024-01-12T09:14:48Z</time>
      </trkpt>
      <trkpt lat="42.94168" lon="0.31436">
        <ele>1257.63921</ele>
        <time>2024-01-12T09:14:50Z</time>
      </trkpt>
      <trkpt lat="42.94167" lon="0.31435">
        <ele>1257.33115</ele>
        <time>2024-01-12T09:14:52Z</time>
      </trkpt>
      <trkpt lat="42.94166" lon="0.31434">
        <ele>1258.53861</ele>
        <time>2024-01-12T09:14:54Z</time>
      </trkpt>
      <trkpt lat="42.94166" lon="0.31435">
        <ele>1258.61173</ele>
        <time>2024-01-12T09:14:56Z</time>
      </trkpt>
      <trkpt lat="42.94164" lon="0.31437">
        <ele>1258.11073</ele>
        <time>2024-01-12T09:14:58Z</time>
      </trkpt>
      <trkpt lat="42.94164" lon="0.31438">
        <ele>1255.50479</ele>
        <time>2024-01-12T09:15:01Z</time>
      </trkpt>
      <trkpt lat="42.94163" lon="0.31437">
        <ele>1259.02726</ele>
        <time>2024-01-12T09:15:02Z</time>
      </trkpt>
      <trkpt lat="42.94162" lon="0.31436">
        <ele>1256.71085</ele>
        <time>2024-01-12T09:15:03Z</time>
      </trkpt>
      <trkpt lat="42.94161" lon="0.31438">
        <ele>1255.82277</ele>
        <time>2024-01-12T09:15:04Z</time>
      </trkpt>
      <trkpt lat="42.9416" lon="0.31438">
        <ele>1256.55341</ele>
        <time>2024-01-12T09:15:05Z</time>
      </trkpt>
      <trkpt lat="42.94158" lon="0.31438">
        <ele>1254.79633</ele>
        <time>2024-01-12T09:15:06Z</time>
      </trkpt>
      <trkpt lat="42.94157" lon="0.31437">
        <ele>1256.92683</ele>
        <time>2024-01-12T09:15:08Z</time>
      </trkpt>
      <trkpt lat="42.94155" lon="0.31437">
        <ele>1258.20552</ele>
        <time>2024-01-12T09:15:10Z</time>
      </trkpt>
      <trkpt lat="42.94154" lon="0.31438">
        <ele>1255.74055</ele>
        <time>2024-01-12T09:15:11Z</time>
      </trkpt>
      <trkpt lat="42.94153" lon="0.31438">
        <ele>1257.05372</ele>
        <time>2024-01-12T09:15:13Z</time>
      </trkpt>
      <trkpt lat="42.94152" lon="0.3144">
        <ele>1254.0635</ele>
        <time>2024-01-12T09:15:14Z</time>
      </trkpt>
      <trkpt lat="42.94149" lon="0.3144">
        <ele>1255.45697</ele>
        <time>2024-01-12T09:15:16Z</time>
      </trkpt>
      <trkpt lat="42.94148" lon="0.31439">
        <ele>1255.88553</ele>
        <time>2024-01-12T09:15:18Z</time>
      </trkpt>
      <trkpt lat="42.94147" lon="0.3144">
        <ele>1257.1018</ele>
        <time>2024-01-12T09:15:19Z</time>
      </trkpt>
      <trkpt lat="42.94146" lon="0.3144">
        <ele>1257.9588</ele>
        <time>2024-01-12T09:15:21Z</time>
      </trkpt>
      <trkpt lat="42.94144" lon="0.3144">
        <ele>1259.07127</ele>
        <time>2024-01-12T09:15:23Z</time>
      </trkpt>
      <trkpt lat="42.94142" lon="0.31439">
        <ele>1262.53659</ele>
        <time>2024-01-12T09:15:25Z</time>
      </trkpt>
      <trkpt lat="42.9414" lon="0.31439">
        <ele>1261.56366</ele>
        <time>2024-01-12T09:15:27Z</time>
      </trkpt>
      <trkpt lat="42.9414" lon="0.31441">
        <ele>1262.11293</ele>
        <time>2024-01-12T09:15:28Z</time>
      </trkpt>
      <trkpt lat="42.94139" lon="0.31442">
        <ele>1260.59055</ele>
        <time>2024-01-12T09:15:29Z</time>
      </trkpt>
      <trkpt lat="42.94138" lon="0.31444">
        <ele>1259.9245</ele>
        <time>2024-01-12T09:15:33Z</time>
      </trkpt>
      <trkpt lat="42.94137" lon="0.31445">
        <ele>1260.44142</ele>
        <time>2024-01-12T09:15:34Z</time>
      </trkpt>
      <trkpt lat="42.94136" lon="0.31444">
        <ele>1260.4838</ele>
        <time>2024-01-12T09:15:35Z</time>
      </trkpt>
      <trkpt lat="42.94134" lon="0.31445">
        <ele>1261.00457</ele>
        <time>2024-01-12T09:15:38Z</time>
      </trkpt>
      <trkpt lat="42.94133" lon="0.31446">
        <ele>1258.56768</ele>
        <time>2024-01-12T09:15:39Z</time>
      </trkpt>
      <trkpt lat="42.94132" lon="0.31448">
        <ele>1258.77254</ele>
        <time>2024-01-12T09:15:40Z</time>
      </trkpt>
      <trkpt lat="42.9413" lon="0.31448">
        <ele>1259.68384</ele>
        <time>2024-01-12T09:15:42Z</time>
      </trkpt>
      <trkpt lat="42.94127" lon="0.31448">
        <ele>1261.83015</ele>
        <time>2024-01-12T09:15:44Z</time>
      </trkpt>
      <trkpt lat="42.94126" lon="0.31448">
        <ele>1263.92367</ele>
        <time>2024-01-12T09:15:47Z</time>
      </trkpt>
      <trkpt lat="42.94125" lon="0.31449">
        <ele>1264.83944</ele>
        <time>2024-01-12T09:15:49Z</time>
      </trkpt>
      <trkpt lat="42.94123" lon="0.31451">
        <ele>1263.40847</ele>
        <time>2024-01-12T09:15:51Z</time>
      </trkpt>
      <trkpt lat="42.94121" lon="0.31452">
        <ele>1263.20075</ele>
        <time>2024-01-12T09:15:53Z</time>
      </trkpt>
      <trkpt lat="42.9412" lon="0.31453">
        <ele>1263.88637</ele>
        <time>2024-01-12T09:15:55Z</time>
      </trkpt>
      <trkpt lat="42.9412" lon="0.31454">
        <ele>1263.19434</ele>
        <time>2024-01-12T09:15:56Z</time>
      </trkpt>
      <trkpt lat="42.94119" lon="0.31455">
        <ele>1263.93108</ele>
        <time>2024-01-12T09:15:57Z</time>
      </trkpt>
      <trkpt lat="42.94117" lon="0.31455">
        <ele>1264.98651</ele>
        <time>2024-01-12T09:15:59Z</time>
      </trkpt>
      <trkpt lat="42.94117" lon="0.31457">
        <ele>1263.26072</ele>
        <time>2024-01-12T09:16:02Z</time>
      </trkpt>
      <trkpt lat="42.94115" lon="0.31458">
        <ele>1265.80654</ele>
        <time>2024-01-12T09:16:03Z</time>
      </trkpt>
      <trkpt lat="42.94114" lon="0.31459">
        <ele>1262.49322</ele>
        <time>2024-01-12T09:16:05Z</time>
      </trkpt>
      <trkpt lat="42.94113" lon="0.31459">
        <ele>1263.274</ele>
        <time>2024-01-12T09:16:06Z</time>
      </trkpt>
      <trkpt lat="42.94112" lon="0.31459">
        <ele>1264.4352</ele>
        <time>2024-01-12T09:16:08Z</time>
      </trkpt>
      <trkpt lat="42.9411" lon="0.3146">
        <ele>1264.41884</ele>
        <time>2024-01-12T09:16:10Z</time>
      </trkpt>
      <trkpt lat="42.94109" lon="0.31463">
        <ele>1264.37929</ele>
        <time>2024-01-12T09:16:12Z</time>
      </trkpt>
      <trkpt lat="42.94109" lon="0.31461">
        <ele>1266.78243</ele>
        <time>2024-01-12T09:16:14Z</time>
      </trkpt>
      <trkpt lat="42.94107" lon="0.31462">
        <ele>1266.69195</ele>
        <time>2024-01-12T09:16:16Z</time>
      </trkpt>
      <trkpt lat="42.94105" lon="0.31462">
        <ele>1267.46429</ele>
        <time>2024-01-12T09:16:18Z</time>
      </trkpt>
      <trkpt lat="42.94103" lon="0.31462">
        <ele>1268.83043</ele>
        <time>2024-01-12T09:16:19Z</time>
      </trkpt>
      <trkpt lat="42.94102" lon="0.31464">
        <ele>1270.23414</ele>
        <time>2024-01-12T09:16:22Z</time>
      </trkpt>
      <trkpt lat="42.94101" lon="0.31465">
        <ele>1270.9856</ele>
        <time>2024-01-12T09:16:24Z</time>
      </trkpt>
      <trkpt lat="42.941" lon="0.31466">
        <ele>1270.05712</ele>
        <time>2024-01-12T09:16:26Z</time>
      </trkpt>
      <trkpt lat="42.94099" lon="0.31467">
        <ele>1269.85678</ele>
        <time>2024-01-12T09:16:27Z</time>
      </trkpt>
      <trkpt lat="42.94099" lon="0.31468">
        <ele>1270.66421</ele>
        <time>2024-01-12T09:16:28Z</time>
      </trkpt>
      <trkpt lat="42.94097" lon="0.31467">
        <ele>1271.63653</ele>
        <time>2024-01-12T09:16:32Z</time>
      </trkpt>
      <trkpt lat="42.94096" lon="0.31469">
        <ele>1272.91066</ele>
        <time>2024-01-12T09:16:34Z</time>
      </trkpt>
      <trkpt lat="42.94095" lon="0.31469">
        <ele>1272.19732</ele>
        <time>2024-01-12T09:16:35Z</time>
      </trkpt>
      <trkpt lat="42.94094" lon="0.31471">
        <ele>1269.89011</ele>
        <time>2024-01-12T09:16:37Z</time>
      </trkpt>
      <trkpt lat="42.94093" lon="0.31473">
        <ele>1269.12417</ele>
        <time>2024-01-12T09:16:38Z</time>
      </trkpt>
      <trkpt lat="42.94092" lon="0.31474">
        <ele>1269.50759</ele>
        <time>2024-01-12T09:16:39Z</time>
      </trkpt>
      <trkpt lat="42.94092" lon="0.31476">
        <ele>1266.51642</ele>
        <time>2024-01-12T09:16:40Z</time>
      </trkpt>
      <trkpt lat="42.94091" lon="0.31476">
        <ele>1266.03456</ele>
        <time>2024-01-12T09:16:41Z</time>
      </trkpt>
      <trkpt lat="42.94089" lon="0.31478">
        <ele>1267.44651</ele>
        <time>2024-01-12T09:16:43Z</time>
      </trkpt>
      <trkpt lat="42.94088" lon="0.31477">
        <ele>1269.49399</ele>
        <time>2024-01-12T09:16:45Z</time>
      </trkpt>
      <trkpt lat="42.94087" lon="0.3148">
        <ele>1270.63455</ele>
        <time>2024-01-12T09:16:48Z</time>
      </trkpt>
      <trkpt lat="42.94086" lon="0.31479">
        <ele>1272.01914</ele>
        <time>2024-01-12T09:16:49Z</time>
      </trkpt>
      <trkpt lat="42.94087" lon="0.31481">
        <ele>1270.97598</ele>
        <time>2024-01-12T09:16:50Z</time>
      </trkpt>
      <trkpt lat="42.94085" lon="0.31481">
        <ele>1272.1577</ele>
        <time>2024-01-12T09:16:51Z</time>
      </trkpt>
      <trkpt lat="42.94084" lon="0.3148">
        <ele>1273.31145</ele>
        <time>2024-01-12T09:16:54Z</time>
      </trkpt>
      <trkpt lat="42.94083" lon="0.31482">
        <ele>1272.16221</ele>
        <time>2024-01-12T09:16:55Z</time>
      </trkpt>
      <trkpt lat="42.94082" lon="0.31483">
        <ele>1272.95857</ele>
        <time>2024-01-12T09:16:56Z</time>
      </trkpt>
      <trkpt lat="42.94081" lon="0.31484">
        <ele>1271.64196</ele>
        <time>2024-01-12T09:16:58Z</time>
      </trkpt>
      <trkpt lat="42.94079" lon="0.31486">
        <ele>1269.67336</ele>
        <time>2024-01-12T09:17:00Z</time>
      </trkpt>
      <trkpt lat="42.94079" lon="0.31487">
        <ele>1268.67499</ele>
        <time>2024-01-12T09:17:04Z</time>
      </trkpt>
      <trkpt lat="42.94077" lon="0.31488">
        <ele>1266.29761</ele>
        <time>2024-01-12T09:17:06Z</time>
      </trkpt>
      <trkpt lat="42.94076" lon="0.31489">
        <ele>1266.69376</ele>
        <time>2024-01-12T09:17:09Z</time>
      </trkpt>
      <trkpt lat="42.94075" lon="0.31491">
        <ele>1266.03908</ele>
        <time>2024-01-12T09:17:11Z</time>
      </trkpt>
      <trkpt lat="42.94074" lon="0.31492">
        <ele>1267.42501</ele>
        <time>2024-01-12T09:17:13Z</time>
      </trkpt>
      <trkpt lat="42.94073" lon="0.31493">
        <ele>1267.46041</ele>
        <time>2024-01-12T09:17:16Z</time>
      </trkpt>
      <trkpt lat="42.94072" lon="0.31494">
        <ele>1270.57671</ele>
        <time>2024-01-12T09:17:17Z</time>
      </trkpt>
      <trkpt lat="42.94072" lon="0.31496">
        <ele>1270.36518</ele>
        <time>2024-01-12T09:17:20Z</time>
      </trkpt>
      <trkpt lat="42.94071" lon="0.31497">
        <ele>1270.61379</ele>
        <time>2024-01-12T09:17:23Z</time>
      </trkpt>
      <trkpt lat="42.9407" lon="0.315">
        <ele>1269.08016</ele>
        <time>2024-01-12T09:17:26Z</time>
      </trkpt>
      <trkpt lat="42.9407" lon="0.31502">
        <ele>1272.11154</ele>
        <time>2024-01-12T09:17:27Z</time>
      </trkpt>
      <trkpt lat="42.9407" lon="0.31504">
        <ele>1272.39726</ele>
        <time>2024-01-12T09:17:29Z</time>
      </trkpt>
      <trkpt lat="42.94069" lon="0.31505">
        <ele>1272.92528</ele>
        <time>2024-01-12T09:17:30Z</time>
      </trkpt>
      <trkpt lat="42.94069" lon="0.31504">
        <ele>1273.95441</ele>
        <time>2024-01-12T09:17:31Z</time>
      </trkpt>
      <trkpt lat="42.94067" lon="0.31505">
        <ele>1273.27462</ele>
        <time>2024-01-12T09:17:33Z</time>
      </trkpt>
      <trkpt lat="42.94067" lon="0.31507">
        <ele>1272.39964</ele>
        <time>2024-01-12T09:17:35Z</time>
      </trkpt>
      <trkpt lat="42.94066" lon="0.31508">
        <ele>1272.08013</ele>
        <time>2024-01-12T09:17:36Z</time>
      </trkpt>
      <trkpt lat="42.94066" lon="0.31509">
        <ele>1271.23592</ele>
        <time>2024-01-12T09:17:37Z</time>
      </trkpt>
      <trkpt lat="42.94065" lon="0.3151">
        <ele>1271.79745</ele>
        <time>2024-01-12T09:17:39Z</time>
      </trkpt>
      <trkpt lat="42.94063" lon="0.31511">
        <ele>1275.58544</ele>
        <time>2024-01-12T09:17:42Z</time>
      </trkpt>
      <trkpt lat="42.94063" lon="0.31512">
        <ele>1277.38016</ele>
        <time>2024-01-12T09:17:44Z</time>
      </trkpt>
      <trkpt lat="42.94062" lon="0.31513">
        <ele>1277.42994</ele>
        <time>2024-01-12T09:17:45Z</time>
      </trkpt>
      <trkpt lat="42.9406" lon="0.31514">
        <ele>1278.9159</ele>
        <time>2024-01-12T09:17:48Z</time>
      </trkpt>
      <trkpt lat="42.9406" lon="0.31515">
        <ele>1275.82688</ele>
        <time>2024-01-12T09:17:51Z</time>
      </trkpt>
      <trkpt lat="42.9406" lon="0.31516">
        <ele>1275.80734</ele>
        <time>2024-01-12T09:17:52Z</time>
      </trkpt>
      <trkpt lat="42.94059" lon="0.31518">
        <ele>1274.18851</ele>
        <time>2024-01-12T09:17:54Z</time>
      </trkpt>
      <trkpt lat="42.94058" lon="0.3152">
        <ele>1272.64966</ele>
        <time>2024-01-12T09:17:55Z</time>
      </trkpt>
      <trkpt lat="42.94057" lon="0.31522">
        <ele>1271.39762</ele>
        <time>2024-01-12T09:17:58Z</time>
      </trkpt>
      <trkpt lat="42.94057" lon="0.31523">
        <ele>1270.45366</ele>
        <time>2024-01-12T09:18:02Z</time>
      </trkpt>
      <trkpt lat="42.94056" lon="0.31523">
        <ele>1271.19498</ele>
        <time>2024-01-12T09:18:03Z</time>
      </trkpt>
      <trkpt lat="42.94055" lon="0.31525">
        <ele>1271.54834</ele>
        <time>2024-01-12T09:18:04Z</time>
      </trkpt>
      <trkpt lat="42.94054" lon="0.31526">
        <ele>1273.85995</ele>
        <time>2024-01-12T09:18:05Z</time>
      </trkpt>
      <trkpt lat="42.94054" lon="0.31527">
        <ele>1274.20958</ele>
        <time>2024-01-12T09:18:07Z</time>
      </trkpt>
      <trkpt lat="42.94055" lon="0.31526">
        <ele>1274.30831</ele>
        <time>2024-01-12T09:18:09Z</time>
      </trkpt>
      <trkpt lat="42.94054" lon="0.31528">
        <ele>1273.25405</ele>
        <time>2024-01-12T09:18:10Z</time>
      </trkpt>
      <trkpt lat="42.94052" lon="0.31529">
        <ele>1274.27799</ele>
        <time>2024-01-12T09:18:12Z</time>
      </trkpt>
      <trkpt lat="42.94051" lon="0.31531">
        <ele>1273.39067</ele>
        <time>2024-01-12T09:18:13Z</time>
      </trkpt>
      <trkpt lat="42.94051" lon="0.31533">
        <ele>1275.20394</ele>
        <time>2024-01-12T09:18:17Z</time>
      </trkpt>
      <trkpt lat="42.9405" lon="0.31535">
        <ele>1273.44102</ele>
        <time>2024-01-12T09:18:19Z</time>
      </trkpt>
      <trkpt lat="42.9405" lon="0.31538">
        <ele>1274.53783</ele>
        <time>2024-01-12T09:18:23Z</time>
      </trkpt>
      <trkpt lat="42.9405" lon="0.31539">
        <ele>1275.28942</ele>
        <time>2024-01-12T09:18:24Z</time>
      </trkpt>
      <trkpt lat="42.94049" lon="0.31541">
        <ele>1274.76741</ele>
        <time>2024-01-12T09:18:26Z</time>
      </trkpt>
      <trkpt lat="42.9405" lon="0.31543">
        <ele>1275.70554</ele>
        <time>2024-01-12T09:18:28Z</time>
      </trkpt>
      <trkpt lat="42.9405" lon="0.31544">
        <ele>1275.11366</ele>
        <time>2024-01-12T09:18:30Z</time>
      </trkpt>
      <trkpt lat="42.9405" lon="0.31546">
        <ele>1274.54458</ele>
        <time>2024-01-12T09:18:32Z</time>
      </trkpt>
      <trkpt lat="42.9405" lon="0.31547">
        <ele>1274.97773</ele>
        <time>2024-01-12T09:18:34Z</time>
      </trkpt>
      <trkpt lat="42.9405" lon="0.3155">
        <ele>1276.56465</ele>
        <time>2024-01-12T09:18:38Z</time>
      </trkpt>
      <trkpt lat="42.9405" lon="0.31552">
        <ele>1278.11227</ele>
        <time>2024-01-12T09:18:43Z</time>
      </trkpt>
      <trkpt lat="42.9405" lon="0.31553">
        <ele>1278.65699</ele>
        <time>2024-01-12T09:18:44Z</time>
      </trkpt>
      <trkpt lat="42.9405" lon="0.31555">
        <ele>1279.53195</ele>
        <time>2024-01-12T09:18:46Z</time>
      </trkpt>
      <trkpt lat="42.94048" lon="0.31554">
        <ele>1281.39028</ele>
        <time>2024-01-12T09:18:47Z</time>
      </trkpt>
      <trkpt lat="42.94047" lon="0.31555">
        <ele>1282.82</ele>
        <time>2024-01-12T09:18:48Z</time>
      </trkpt>
      <trkpt lat="42.94047" lon="0.31558">
        <ele>1279.37845</ele>
        <time>2024-01-12T09:18:50Z</time>
      </trkpt>
      <trkpt lat="42.94047" lon="0.31559">
        <ele>1279.88991</ele>
        <time>2024-01-12T09:18:53Z</time>
      </trkpt>
      <trkpt lat="42.94046" lon="0.31561">
        <ele>1279.46699</ele>
        <time>2024-01-12T09:18:56Z</time>
      </trkpt>
      <trkpt lat="42.94047" lon="0.31562">
        <ele>1279.82413</ele>
        <time>2024-01-12T09:18:59Z</time>
      </trkpt>
      <trkpt lat="42.94048" lon="0.31562">
        <ele>1282.78285</ele>
        <time>2024-01-12T09:19:04Z</time>
      </trkpt>
      <trkpt lat="42.9405" lon="0.31562">
        <ele>1283.19221</ele>
        <time>2024-01-12T09:19:06Z</time>
      </trkpt>
      <trkpt lat="42.9405" lon="0.31562">
        <ele>1283.03402</ele>
        <time>2024-01-12T09:19:07Z</time>
      </trkpt>
      <trkpt lat="42.94051" lon="0.3156">
        <ele>1282.60422</ele>
        <time>2024-01-12T09:19:08Z</time>
      </trkpt>
      <trkpt lat="42.94051" lon="0.31561">
        <ele>1282.97814</ele>
        <time>2024-01-12T09:19:10Z</time>
      </trkpt>
      <trkpt lat="42.94053" lon="0.31562">
        <ele>1282.70277</ele>
        <time>2024-01-12T09:19:11Z</time>
      </trkpt>
      <trkpt lat="42.94054" lon="0.31562">
        <ele>1283.42461</ele>
        <time>2024-01-12T09:19:13Z</time>
      </trkpt>
      <trkpt lat="42.94055" lon="0.31561">
        <ele>1285.31399</ele>
        <time>2024-01-12T09:19:16Z</time>
      </trkpt>
      <trkpt lat="42.94057" lon="0.3156">
        <ele>1285.52992</ele>
        <time>2024-01-12T09:19:18Z</time>
      </trkpt>
      <trkpt lat="42.94058" lon="0.31559">
        <ele>1285.23096</ele>
        <time>2024-01-12T09:19:21Z</time>
      </trkpt>
      <trkpt lat="42.94059" lon="0.31559">
        <ele>1281.06825</ele>
        <time>2024-01-12T09:19:22Z</time>
      </trkpt>
      <trkpt lat="42.9406" lon="0.3156">
        <ele>1280.79857</ele>
        <time>2024-01-12T09:19:23Z</time>
      </trkpt>
      <trkpt lat="42.94061" lon="0.31559">
        <ele>1279.36707</ele>
        <time>2024-01-12T09:19:24Z</time>
      </trkpt>
      <trkpt lat="42.94062" lon="0.31559">
        <ele>1280.99345</ele>
        <time>2024-01-12T09:19:26Z</time>
      </trkpt>
      <trkpt lat="42.94064" lon="0.31559">
        <ele>1285.15243</ele>
        <time>2024-01-12T09:19:30Z</time>
      </trkpt>
      <trkpt lat="42.94065" lon="0.31558">
        <ele>1287.50392</ele>
        <time>2024-01-12T09:19:32Z</time>
      </trkpt>
      <trkpt lat="42.94067" lon="0.31558">
        <ele>1287.85412</ele>
        <time>2024-01-12T09:19:33Z</time>
      </trkpt>
      <trkpt lat="42.94068" lon="0.31558">
        <ele>1287.03956</ele>
        <time>2024-01-12T09:19:36Z</time>
      </trkpt>
      <trkpt lat="42.9407" lon="0.31557">
        <ele>1287.95603</ele>
        <time>2024-01-12T09:19:39Z</time>
      </trkpt>
      <trkpt lat="42.94071" lon="0.31555">
        <ele>1287.82152</ele>
        <time>2024-01-12T09:19:40Z</time>
      </trkpt>
      <trkpt lat="42.94073" lon="0.31554">
        <ele>1287.36308</ele>
        <time>2024-01-12T09:19:43Z</time>
      </trkpt>
      <trkpt lat="42.94074" lon="0.31553">
        <ele>1288.05143</ele>
        <time>2024-01-12T09:19:45Z</time>
      </trkpt>
      <trkpt lat="42.94075" lon="0.31552">
        <ele>1285.33297</ele>
        <time>2024-01-12T09:19:48Z</time>
      </trkpt>
      <trkpt lat="42.94076" lon="0.31552">
        <ele>1285.12838</ele>
        <time>2024-01-12T09:19:49Z</time>
      </trkpt>
      <trkpt lat="42.94077" lon="0.31553">
        <ele>1287.12866</ele>
        <time>2024-01-12T09:19:50Z</time>
      </trkpt>
      <trkpt lat="42.94079" lon="0.31553">
        <ele>1289.33199</ele>
        <time>2024-01-12T09:19:53Z</time>
      </trkpt>
      <trkpt lat="42.9408" lon="0.31553">
        <ele>1287.95737</ele>
        <time>2024-01-12T09:19:55Z</time>
      </trkpt>
      <trkpt lat="42.94081" lon="0.31553">
        <ele>1293.90613</ele>
        <time>2024-01-12T09:19:59Z</time>
      </trkpt>
      <trkpt lat="42.94084" lon="0.31554">
        <ele>1290.9164</ele>
        <time>2024-01-12T09:20:02Z</time>
      </trkpt>
      <trkpt lat="42.94085" lon="0.31555">
        <ele>1288.29782</ele>
        <time>2024-01-12T09:20:03Z</time>
      </trkpt>
      <trkpt lat="42.94085" lon="0.31557">
        <ele>1293.907</ele>
        <time>2024-01-12T09:20:06Z</time>
      </trkpt>
      <trkpt lat="42.94085" lon="0.31556">
        <ele>1295.56509</ele>
        <time>2024-01-12T09:20:07Z</time>
      </trkpt>
      <trkpt lat="42.94085" lon="0.31559">
        <ele>1294.80192</ele>
        <time>2024-01-12T09:20:10Z</time>
      </trkpt>
      <trkpt lat="42.94085" lon="0.31559">
        <ele>1301.1103</ele>
        <time>2024-01-12T09:20:12Z</time>
      </trkpt>
      <trkpt lat="42.94086" lon="0.31558">
        <ele>1300.72508</ele>
        <time>2024-01-12T09:20:13Z</time>
      </trkpt>
      <trkpt lat="42.94087" lon="0.31559">
        <ele>1299.82377</ele>
        <time>2024-01-12T09:20:16Z</time>
      </trkpt>
      <trkpt lat="42.94089" lon="0.31559">
        <ele>1298.64268</ele>
        <time>2024-01-12T09:20:19Z</time>
      </trkpt>
      <trkpt lat="42.9409" lon="0.31558">
        <ele>1299.35792</ele>
        <time>2024-01-12T09:20:22Z</time>
      </trkpt>
      <trkpt lat="42.94092" lon="0.31559">
        <ele>1297.93489</ele>
        <time>2024-01-12T09:20:24Z</time>
      </trkpt>
      <trkpt lat="42.94093" lon="0.31558">
        <ele>1299.41272</ele>
        <time>2024-01-12T09:20:25Z</time>
      </trkpt>
      <trkpt lat="42.94094" lon="0.31558">
        <ele>1299.75476</ele>
        <time>2024-01-12T09:20:27Z</time>
      </trkpt>
      <trkpt lat="42.94096" lon="0.31557">
        <ele>1298.94429</ele>
        <time>2024-01-12T09:20:30Z</time>
      </trkpt>
      <trkpt lat="42.94097" lon="0.31558">
        <ele>1297.15519</ele>
        <time>2024-01-12T09:20:32Z</time>
      </trkpt>
      <trkpt lat="42.94098" lon="0.31558">
        <ele>1296.86301</ele>
        <time>2024-01-12T09:20:33Z</time>
      </trkpt>
      <trkpt lat="42.94099" lon="0.31558">
        <ele>1296.61762</ele>
        <time>2024-01-12T09:20:36Z</time>
      </trkpt>
      <trkpt lat="42.94101" lon="0.31557">
        <ele>1297.8272</ele>
        <time>2024-01-12T09:20:38Z</time>
      </trkpt>
      <trkpt lat="42.94102" lon="0.31559">
        <ele>1297.38667</ele>
        <time>2024-01-12T09:20:41Z</time>
      </trkpt>
      <trkpt lat="42.94103" lon="0.31558">
        <ele>1296.65936</ele>
        <time>2024-01-12T09:20:44Z</time>
      </trkpt>
      <trkpt lat="42.94104" lon="0.31559">
        <ele>1297.21931</ele>
        <time>2024-01-12T09:20:45Z</time>
      </trkpt>
      <trkpt lat="42.94105" lon="0.3156">
        <ele>1297.88194</ele>
        <time>2024-01-12T09:20:46Z</time>
      </trkpt>
      <trkpt lat="42.94106" lon="0.31561">
        <ele>1296.94202</ele>
        <time>2024-01-12T09:20:47Z</time>
      </trkpt>
      <trkpt lat="42.94107" lon="0.31561">
        <ele>1297.4235</ele>
        <time>2024-01-12T09:20:48Z</time>
      </trkpt>
      <trkpt lat="42.94109" lon="0.31561">
        <ele>1297.15781</ele>
        <time>2024-01-12T09:20:51Z</time>
      </trkpt>
      <trkpt lat="42.9411" lon="0.31563">
        <ele>1298.97311</ele>
        <time>2024-01-12T09:20:57Z</time>
      </trkpt>
      <trkpt lat="42.94111" lon="0.31563">
        <ele>1299.71927</ele>
        <time>2024-01-12T09:20:59Z</time>
      </trkpt>
      <trkpt lat="42.94112" lon="0.31562">
        <ele>1298.63804</ele>
        <time>2024-01-12T09:21:01Z</time>
      </trkpt>
      <trkpt lat="42.94112" lon="0.31565">
        <ele>1297.93552</ele>
        <time>2024-01-12T09:21:04Z</time>
      </trkpt>
      <trkpt lat="42.94113" lon="0.31566">
        <ele>1300.30639</ele>
        <time>2024-01-12T09:21:08Z</time>
      </trkpt>
      <trkpt lat="42.94112" lon="0.31569">
        <ele>1300.84956</ele>
        <time>2024-01-12T09:21:11Z</time>
      </trkpt>
      <trkpt lat="42.94113" lon="0.31569">
        <ele>1300.93563</ele>
        <time>2024-01-12T09:21:14Z</time>
      </trkpt>
      <trkpt lat="42.94114" lon="0.31571">
        <ele>1301.08543</ele>
        <time>2024-01-12T09:21:16Z</time>
      </trkpt>
      <trkpt lat="42.94113" lon="0.31572">
        <ele>1300.91471</ele>
        <time>2024-01-12T09:21:17Z</time>
      </trkpt>
      <trkpt lat="42.94115" lon="0.31572">
        <ele>1300.8318</ele>
        <time>2024-01-12T09:21:20Z</time>
      </trkpt>
      <trkpt lat="42.94116" lon="0.31572">
        <ele>1302.18921</ele>
        <time>2024-01-12T09:21:22Z</time>
      </trkpt>
      <trkpt lat="42.94117" lon="0.31574">
        <ele>1303.28265</ele>
        <time>2024-01-12T09:21:25Z</time>
      </trkpt>
      <trkpt lat="42.94117" lon="0.31574">
        <ele>1304.36691</ele>
        <time>2024-01-12T09:21:27Z</time>
      </trkpt>
      <trkpt lat="42.94117" lon="0.31576">
        <ele>1306.73493</ele>
        <time>2024-01-12T09:21:30Z</time>
      </trkpt>
      <trkpt lat="42.94117" lon="0.31577">
        <ele>1308.25895</ele>
        <time>2024-01-12T09:21:32Z</time>
      </trkpt>
      <trkpt lat="42.94118" lon="0.31577">
        <ele>1307.72761</ele>
        <time>2024-01-12T09:21:34Z</time>
      </trkpt>
      <trkpt lat="42.9412" lon="0.31577">
        <ele>1308.66183</ele>
        <time>2024-01-12T09:21:37Z</time>
      </trkpt>
      <trkpt lat="42.94119" lon="0.31579">
        <ele>1308.42616</ele>
        <time>2024-01-12T09:21:38Z</time>
      </trkpt>
      <trkpt lat="42.94121" lon="0.31579">
        <ele>1307.07465</ele>
        <time>2024-01-12T09:21:40Z</time>
      </trkpt>
      <trkpt lat="42.94122" lon="0.31579">
        <ele>1305.85977</ele>
        <time>2024-01-12T09:21:41Z</time>
      </trkpt>
      <trkpt lat="42.94123" lon="0.31579">
        <ele>1304.76333</ele>
        <time>2024-01-12T09:21:42Z</time>
      </trkpt>
      <trkpt lat="42.94124" lon="0.3158">
        <ele>1302.7781</ele>
        <time>2024-01-12T09:21:44Z</time>
      </trkpt>
      <trkpt lat="42.94125" lon="0.3158">
        <ele>1303.25402</ele>
        <time>2024-01-12T09:21:45Z</time>
      </trkpt>
      <trkpt lat="42.94126" lon="0.3158">
        <ele>1305.8568</ele>
        <time>2024-01-12T09:21:47Z</time>
      </trkpt>
      <trkpt lat="42.94127" lon="0.31581">
        <ele>1306.79639</ele>
        <time>2024-01-12T09:21:50Z</time>
      </trkpt>
      <trkpt lat="42.94128" lon="0.31582">
        <ele>1306.00804</ele>
        <time>2024-01-12T09:21:54Z</time>
      </trkpt>
      <trkpt lat="42.9413" lon="0.31584">
        <ele>1306.35198</ele>
        <time>2024-01-12T09:21:55Z</time>
      </trkpt>
      <trkpt lat="42.94131" lon="0.31583">
        <ele>1307.12051</ele>
        <time>2024-01-12T09:21:57Z</time>
      </trkpt>
      <trkpt lat="42.94131" lon="0.31585">
        <ele>1305.87626</ele>
        <time>2024-01-12T09:21:58Z</time>
      </trkpt>
      <trkpt lat="42.94133" lon="0.31585">
        <ele>1305.49785</ele>
        <time>2024-01-12T09:22:00Z</time>
      </trkpt>
      <trkpt lat="42.94134" lon="0.31587">
        <ele>1305.0194</ele>
        <time>2024-01-12T09:22:03Z</time>
      </trkpt>
      <trkpt lat="42.94134" lon="0.31589">
        <ele>1306.14061</ele>
        <time>2024-01-12T09:22:04Z</time>
      </trkpt>
      <trkpt lat="42.94134" lon="0.3159">
        <ele>1305.80163</ele>
        <time>2024-01-12T09:22:05Z</time>
      </trkpt>
      <trkpt lat="42.94136" lon="0.3159">
        <ele>1307.60184</ele>
        <time>2024-01-12T09:22:07Z</time>
      </trkpt>
      <trkpt lat="42.94137" lon="0.31589">
        <ele>1311.1173</ele>
        <time>2024-01-12T09:22:09Z</time>
      </trkpt>
      <trkpt lat="42.94136" lon="0.31591">
        <ele>1313.45102</ele>
        <time>2024-01-12T09:22:13Z</time>
      </trkpt>
      <trkpt lat="42.94138" lon="0.31592">
        <ele>1314.12702</ele>
        <time>2024-01-12T09:22:15Z</time>
      </trkpt>
      <trkpt lat="42.94139" lon="0.31592">
        <ele>1314.46369</ele>
        <time>2024-01-12T09:22:17Z</time>
      </trkpt>
      <trkpt lat="42.9414" lon="0.31593">
        <ele>1313.72627</ele>
        <time>2024-01-12T09:22:18Z</time>
      </trkpt>
      <trkpt lat="42.94141" lon="0.31594">
        <ele>1313.64856</ele>
        <time>2024-01-12T09:22:20Z</time>
      </trkpt>
      <trkpt lat="42.94142" lon="0.31594">
        <ele>1313.65678</ele>
        <time>2024-01-12T09:22:21Z</time>
      </trkpt>
      <trkpt lat="42.94143" lon="0.31596">
        <ele>1313.51153</ele>
        <time>2024-01-12T09:22:24Z</time>
      </trkpt>
      <trkpt lat="42.94143" lon="0.31597">
        <ele>1312.24371</ele>
        <time>2024-01-12T09:22:28Z</time>
      </trkpt>
      <trkpt lat="42.94143" lon="0.31599">
        <ele>1313.19216</ele>
        <time>2024-01-12T09:22:30Z</time>
      </trkpt>
      <trkpt lat="42.94143" lon="0.31601">
        <ele>1313.1247</ele>
        <time>2024-01-12T09:22:32Z</time>
      </trkpt>
      <trkpt lat="42.94143" lon="0.31602">
        <ele>1313.89422</ele>
        <time>2024-01-12T09:22:33Z</time>
      </trkpt>
      <trkpt lat="42.94143" lon="0.31604">
        <ele>1314.85644</ele>
        <time>2024-01-12T09:22:35Z</time>
      </trkpt>
      <trkpt lat="42.94143" lon="0.31607">
        <ele>1315.21083</ele>
        <time>2024-01-12T09:22:37Z</time>
      </trkpt>
      <trkpt lat="42.94145" lon="0.31607">
        <ele>1315.42071</ele>
        <time>2024-01-12T09:22:40Z</time>
      </trkpt>
      <trkpt lat="42.94145" lon="0.3161">
        <ele>1316.33506</ele>
        <time>2024-01-12T09:22:42Z</time>
      </trkpt>
      <trkpt lat="42.94145" lon="0.31612">
        <ele>1314.40406</ele>
        <time>2024-01-12T09:22:43Z</time>
      </trkpt>
      <trkpt lat="42.94147" lon="0.31613">
        <ele>1313.382</ele>
        <time>2024-01-12T09:22:45Z</time>
      </trkpt>
      <trkpt lat="42.94147" lon="0.31614">
        <ele>1313.12891</ele>
        <time>2024-01-12T09:22:46Z</time>
      </trkpt>
      <trkpt lat="42.94148" lon="0.31615">
        <ele>1314.68622</ele>
        <time>2024-01-12T09:22:47Z</time>
      </trkpt>
      <trkpt lat="42.94149" lon="0.31616">
        <ele>1313.47321</ele>
        <time>2024-01-12T09:22:49Z</time>
      </trkpt>
      <trkpt lat="42.9415" lon="0.31616">
        <ele>1314.13784</ele>
        <time>2024-01-12T09:22:50Z</time>
      </trkpt>
      <trkpt lat="42.94151" lon="0.31617">
        <ele>1313.6271</ele>
        <time>2024-01-12T09:22:52Z</time>
      </trkpt>
      <trkpt lat="42.94152" lon="0.31618">
        <ele>1312.5532</ele>
        <time>2024-01-12T09:22:53Z</time>
      </trkpt>
      <trkpt lat="42.94153" lon="0.3162">
        <ele>1316.18285</ele>
        <time>2024-01-12T09:23:00Z</time>
      </trkpt>
      <trkpt lat="42.94154" lon="0.31621">
        <ele>1317.93473</ele>
        <time>2024-01-12T09:23:04Z</time>
      </trkpt>
      <trkpt lat="42.94154" lon="0.31623">
        <ele>1318.62397</ele>
        <time>2024-01-12T09:23:07Z</time>
      </trkpt>
      <trkpt lat="42.94155" lon="0.31623">
        <ele>1320.89157</ele>
        <time>2024-01-12T09:23:12Z</time>
      </trkpt>
      <trkpt lat="42.94155" lon="0.31625">
        <ele>1320.26691</ele>
        <time>2024-01-12T09:23:13Z</time>
      </trkpt>
      <trkpt lat="42.94156" lon="0.31624">
        <ele>1319.09877</ele>
        <time>2024-01-12T09:23:14Z</time>
      </trkpt>
      <trkpt lat="42.94157" lon="0.31626">
        <ele>1318.59005</ele>
        <time>2024-01-12T09:23:17Z</time>
      </trkpt>
      <trkpt lat="42.94158" lon="0.31627">
        <ele>1319.19818</ele>
        <time>2024-01-12T09:23:19Z</time>
      </trkpt>
      <trkpt lat="42.94158" lon="0.31629">
        <ele>1320.42468</ele>
        <time>2024-01-12T09:23:23Z</time>
      </trkpt>
      <trkpt lat="42.94159" lon="0.31629">
        <ele>1320.67663</ele>
        <time>2024-01-12T09:23:24Z</time>
      </trkpt>
      <trkpt lat="42.9416" lon="0.31629">
        <ele>1320.83082</ele>
        <time>2024-01-12T09:23:25Z</time>
      </trkpt>
      <trkpt lat="42.9416" lon="0.3163">
        <ele>1320.47655</ele>
        <time>2024-01-12T09:23:26Z</time>
      </trkpt>
      <trkpt lat="42.94161" lon="0.31632">
        <ele>1319.84542</ele>
        <time>2024-01-12T09:23:27Z</time>
      </trkpt>
      <trkpt lat="42.94162" lon="0.31633">
        <ele>1320.01692</ele>
        <time>2024-01-12T09:23:28Z</time>
      </trkpt>
      <trkpt lat="42.94163" lon="0.31634">
        <ele>1320.53454</ele>
        <time>2024-01-12T09:23:31Z</time>
      </trkpt>
      <trkpt lat="42.94164" lon="0.31636">
        <ele>1321.41256</ele>
        <time>2024-01-12T09:23:32Z</time>
      </trkpt>
      <trkpt lat="42.94165" lon="0.31635">
        <ele>1321.70006</ele>
        <time>2024-01-12T09:23:34Z</time>
      </trkpt>
      <trkpt lat="42.94167" lon="0.31635">
        <ele>1319.5993</ele>
        <time>2024-01-12T09:23:36Z</time>
      </trkpt>
      <trkpt lat="42.94168" lon="0.31636">
        <ele>1319.8301</ele>
        <time>2024-01-12T09:23:38Z</time>
      </trkpt>
      <trkpt lat="42.94169" lon="0.31637">
        <ele>1318.29387</ele>
        <time>2024-01-12T09:23:41Z</time>
      </trkpt>
      <trkpt lat="42.9417" lon="0.31639">
        <ele>1317.87738</ele>
        <time>2024-01-12T09:23:45Z</time>
      </trkpt>
      <trkpt lat="42.94171" lon="0.31641">
        <ele>1319.09511</ele>
        <time>2024-01-12T09:23:47Z</time>
      </trkpt>
      <trkpt lat="42.94172" lon="0.31642">
        <ele>1321.36787</ele>
        <time>2024-01-12T09:23:50Z</time>
      </trkpt>
      <trkpt lat="42.94172" lon="0.31643">
        <ele>1319.3613</ele>
        <time>2024-01-12T09:23:52Z</time>
      </trkpt>
      <trkpt lat="42.94174" lon="0.31645">
        <ele>1320.01508</ele>
        <time>2024-01-12T09:23:54Z</time>
      </trkpt>
      <trkpt lat="42.94174" lon="0.31646">
        <ele>1315.97998</ele>
        <time>2024-01-12T09:23:55Z</time>
      </trkpt>
      <trkpt lat="42.94175" lon="0.31647">
        <ele>1317.77226</ele>
        <time>2024-01-12T09:23:59Z</time>
      </trkpt>
      <trkpt lat="42.94176" lon="0.31648">
        <ele>1317.77618</ele>
        <time>2024-01-12T09:24:02Z</time>
      </trkpt>
      <trkpt lat="42.94177" lon="0.31649">
        <ele>1320.05721</ele>
        <time>2024-01-12T09:24:03Z</time>
      </trkpt>
      <trkpt lat="42.94177" lon="0.3165">
        <ele>1319.81236</ele>
        <time>2024-01-12T09:24:05Z</time>
      </trkpt>
      <trkpt lat="42.94177" lon="0.31651">
        <ele>1320.33475</ele>
        <time>2024-01-12T09:24:07Z</time>
      </trkpt>
      <trkpt lat="42.94177" lon="0.31652">
        <ele>1319.86552</ele>
        <time>2024-01-12T09:24:08Z</time>
      </trkpt>
      <trkpt lat="42.94177" lon="0.31654">
        <ele>1320.85232</ele>
        <time>2024-01-12T09:24:09Z</time>
      </trkpt>
      <trkpt lat="42.94178" lon="0.31653">
        <ele>1324.19015</ele>
        <time>2024-01-12T09:24:12Z</time>
      </trkpt>
      <trkpt lat="42.94178" lon="0.31655">
        <ele>1324.14573</ele>
        <time>2024-01-12T09:24:13Z</time>
      </trkpt>
      <trkpt lat="42.94178" lon="0.31656">
        <ele>1325.48557</ele>
        <time>2024-01-12T09:24:14Z</time>
      </trkpt>
      <trkpt lat="42.94179" lon="0.31656">
        <ele>1326.14459</ele>
        <time>2024-01-12T09:24:17Z</time>
      </trkpt>
      <trkpt lat="42.94179" lon="0.31657">
        <ele>1326.65519</ele>
        <time>2024-01-12T09:24:18Z</time>
      </trkpt>
      <trkpt lat="42.94179" lon="0.3166">
        <ele>1323.14763</ele>
        <time>2024-01-12T09:24:20Z</time>
      </trkpt>
      <trkpt lat="42.9418" lon="0.31661">
        <ele>1321.84533</ele>
        <time>2024-01-12T09:24:22Z</time>
      </trkpt>
      <trkpt lat="42.9418" lon="0.31663">
        <ele>1322.51857</ele>
        <time>2024-01-12T09:24:24Z</time>
      </trkpt>
      <trkpt lat="42.9418" lon="0.31664">
        <ele>1324.10182</ele>
        <time>2024-01-12T09:24:26Z</time>
      </trkpt>
      <trkpt lat="42.94181" lon="0.31665">
        <ele>1324.22811</ele>
        <time>2024-01-12T09:24:27Z</time>
      </trkpt>
      <trkpt lat="42.94181" lon="0.31667">
        <ele>1324.26909</ele>
        <time>2024-01-12T09:24:29Z</time>
      </trkpt>
      <trkpt lat="42.94181" lon="0.31668">
        <ele>1323.26311</ele>
        <time>2024-01-12T09:24:31Z</time>
      </trkpt>
      <trkpt lat="42.94182" lon="0.31667">
        <ele>1324.76888</ele>
        <time>2024-01-12T09:24:33Z</time>
      </trkpt>
      <trkpt lat="42.94183" lon="0.3167">
        <ele>1325.02244</ele>
        <time>2024-01-12T09:24:34Z</time>
      </trkpt>
      <trkpt lat="42.94183" lon="0.31671">
        <ele>1324.85463</ele>
        <time>2024-01-12T09:24:37Z</time>
      </trkpt>
      <trkpt lat="42.94182" lon="0.31673">
        <ele>1325.56772</ele>
        <time>2024-01-12T09:24:38Z</time>
      </trkpt>
      <trkpt lat="42.94182" lon="0.31674">
        <ele>1327.84083</ele>
        <time>2024-01-12T09:24:44Z</time>
      </trkpt>
      <trkpt lat="42.94181" lon="0.31673">
        <ele>1329.41168</ele>
        <time>2024-01-12T09:24:47Z</time>
      </trkpt>
      <trkpt lat="42.9418" lon="0.31673">
        <ele>1328.78458</ele>
        <time>2024-01-12T09:24:50Z</time>
      </trkpt>
      <trkpt lat="42.9418" lon="0.31672">
        <ele>1328.19833</ele>
        <time>2024-01-12T09:24:53Z</time>
      </trkpt>
      <trkpt lat="42.94181" lon="0.31671">
        <ele>1328.41255</ele>
        <time>2024-01-12T09:24:54Z</time>
      </trkpt>
      <trkpt lat="42.9418" lon="0.31669">
        <ele>1329.56181</ele>
        <time>2024-01-12T09:24:56Z</time>
      </trkpt>
      <trkpt lat="42.94179" lon="0.31668">
        <ele>1326.9282</ele>
        <time>2024-01-12T09:25:00Z</time>
      </trkpt>
      <trkpt lat="42.94178" lon="0.31668">
        <ele>1326.33619</ele>
        <time>2024-01-12T09:25:04Z</time>
      </trkpt>
      <trkpt lat="42.94177" lon="0.3167">
        <ele>1326.53737</ele>
        <time>2024-01-12T09:25:06Z</time>
      </trkpt>
      <trkpt lat="42.94176" lon="0.31669">
        <ele>1328.31712</ele>
        <time>2024-01-12T09:25:08Z</time>
      </trkpt>
      <trkpt lat="42.94176" lon="0.31667">
        <ele>1328.53506</ele>
        <time>2024-01-12T09:25:09Z</time>
      </trkpt>
      <trkpt lat="42.94175" lon="0.31666">
        <ele>1329.75174</ele>
        <time>2024-01-12T09:25:11Z</time>
      </trkpt>
      <trkpt lat="42.94173" lon="0.31665">
        <ele>1330.17494</ele>
        <time>2024-01-12T09:25:12Z</time>
      </trkpt>
      <trkpt lat="42.94172" lon="0.31664">
        <ele>1329.36762</ele>
        <time>2024-01-12T09:25:16Z</time>
      </trkpt>
      <trkpt lat="42.94171" lon="0.31665">
        <ele>1327.19339</ele>
        <time>2024-01-12T09:25:20Z</time>
      </trkpt>
      <trkpt lat="42.9417" lon="0.31664">
        <ele>1327.22565</ele>
        <time>2024-01-12T09:25:21Z</time>
      </trkpt>
      <trkpt lat="42.94168" lon="0.31666">
        <ele>1328.33058</ele>
        <time>2024-01-12T09:25:24Z</time>
      </trkpt>
      <trkpt lat="42.94166" lon="0.31667">
        <ele>1329.52097</ele>
        <time>2024-01-12T09:25:26Z</time>
      </trkpt>
      <trkpt lat="42.94165" lon="0.31666">
        <ele>1330.7762</ele>
        <time>2024-01-12T09:25:28Z</time>
      </trkpt>
      <trkpt lat="42.94164" lon="0.31667">
        <ele>1329.08427</ele>
        <time>2024-01-12T09:25:30Z</time>
      </trkpt>
      <trkpt lat="42.94163" lon="0.31666">
        <ele>1331.11915</ele>
        <time>2024-01-12T09:25:32Z</time>
      </trkpt>
      <trkpt lat="42.94162" lon="0.31666">
        <ele>1332.56057</ele>
        <time>2024-01-12T09:25:35Z</time>
      </trkpt>
      <trkpt lat="42.94161" lon="0.31666">
        <ele>1334.5167</ele>
        <time>2024-01-12T09:25:38Z</time>
      </trkpt>
      <trkpt lat="42.94163" lon="0.31665">
        <ele>1333.69542</ele>
        <time>2024-01-12T09:25:39Z</time>
      </trkpt>
      <trkpt lat="42.94162" lon="0.31665">
        <ele>1333.22694</ele>
        <time>2024-01-12T09:25:40Z</time>
      </trkpt>
      <trkpt lat="42.94161" lon="0.31665">
        <ele>1334.03439</ele>
        <time>2024-01-12T09:25:42Z</time>
      </trkpt>
      <trkpt lat="42.9416" lon="0.31666">
        <ele>1332.32041</ele>
        <time>2024-01-12T09:25:44Z</time>
      </trkpt>
      <trkpt lat="42.94159" lon="0.31665">
        <ele>1332.41238</ele>
        <time>2024-01-12T09:25:47Z</time>
      </trkpt>
      <trkpt lat="42.94158" lon="0.31664">
        <ele>1333.68303</ele>
        <time>2024-01-12T09:25:48Z</time>
      </trkpt>
      <trkpt lat="42.94156" lon="0.31665">
        <ele>1334.56308</ele>
        <time>2024-01-12T09:25:49Z</time>
      </trkpt>
      <trkpt lat="42.94155" lon="0.31665">
        <ele>1336.02644</ele>
        <time>2024-01-12T09:25:50Z</time>
      </trkpt>
      <trkpt lat="42.94154" lon="0.31666">
        <ele>1335.69822</ele>
        <time>2024-01-12T09:25:51Z</time>
      </trkpt>
      <trkpt lat="42.94155" lon="0.31668">
        <ele>1332.9525</ele>
        <time>2024-01-12T09:25:54Z</time>
      </trkpt>
      <trkpt lat="42.94154" lon="0.31668">
        <ele>1332.75327</ele>
        <time>2024-01-12T09:25:57Z</time>
      </trkpt>
      <trkpt lat="42.94153" lon="0.31669">
        <ele>1333.03049</ele>
        <time>2024-01-12T09:25:58Z</time>
      </trkpt>
      <trkpt lat="42.94152" lon="0.31669">
        <ele>1335.01274</ele>
        <time>2024-01-12T09:26:03Z</time>
      </trkpt>
      <trkpt lat="42.94151" lon="0.3167">
        <ele>1335.71258</ele>
        <time>2024-01-12T09:26:05Z</time>
      </trkpt>
      <trkpt lat="42.94149" lon="0.31671">
        <ele>1336.6798</ele>
        <time>2024-01-12T09:26:07Z</time>
      </trkpt>
      <trkpt lat="42.9415" lon="0.3167">
        <ele>1335.17823</ele>
        <time>2024-01-12T09:26:08Z</time>
      </trkpt>
      <trkpt lat="42.94149" lon="0.31671">
        <ele>1334.57604</ele>
        <time>2024-01-12T09:26:09Z</time>
      </trkpt>
      <trkpt lat="42.9415" lon="0.31672">
        <ele>1335.3631</ele>
        <time>2024-01-12T09:26:11Z</time>
      </trkpt>
      <trkpt lat="42.94149" lon="0.31673">
        <ele>1336.29365</ele>
        <time>2024-01-12T09:26:13Z</time>
      </trkpt>
      <trkpt lat="42.94148" lon="0.31674">
        <ele>1336.17397</ele>
        <time>2024-01-12T09:26:15Z</time>
      </trkpt>
      <trkpt lat="42.94148" lon="0.31675">
        <ele>1336.581</ele>
        <time>2024-01-12T09:26:16Z</time>
      </trkpt>
      <trkpt lat="42.94147" lon="0.31675">
        <ele>1338.04676</ele>
        <time>2024-01-12T09:26:19Z</time>
      </trkpt>
      <trkpt lat="42.94145" lon="0.31676">
        <ele>1337.35444</ele>
        <time>2024-01-12T09:26:23Z</time>
      </trkpt>
      <trkpt lat="42.94146" lon="0.31678">
        <ele>1335.68933</ele>
        <time>2024-01-12T09:26:24Z</time>
      </trkpt>
      <trkpt lat="42.94145" lon="0.31678">
        <ele>1335.40655</ele>
        <time>2024-01-12T09:26:26Z</time>
      </trkpt>
      <trkpt lat="42.94144" lon="0.31677">
        <ele>1334.87284</ele>
        <time>2024-01-12T09:26:29Z</time>
      </trkpt>
      <trkpt lat="42.94142" lon="0.31677">
        <ele>1334.62205</ele>
        <time>2024-01-12T09:26:30Z</time>
      </trkpt>
      <trkpt lat="42.94141" lon="0.31678">
        <ele>1332.68793</ele>
        <time>2024-01-12T09:26:34Z</time>
      </trkpt>
      <trkpt lat="42.9414" lon="0.31678">
        <ele>1332.73326</ele>
        <time>2024-01-12T09:26:35Z</time>
      </trkpt>
      <trkpt lat="42.94139" lon="0.31679">
        <ele>1332.83753</ele>
        <time>2024-01-12T09:26:36Z</time>
      </trkpt>
      <trkpt lat="42.94138" lon="0.31678">
        <ele>1335.28289</ele>
        <time>2024-01-12T09:26:38Z</time>
      </trkpt>
      <trkpt lat="42.94135" lon="0.31678">
        <ele>1337.58379</ele>
        <time>2024-01-12T09:26:40Z</time>
      </trkpt>
      <trkpt lat="42.94135" lon="0.31676">
        <ele>1339.5314</ele>
        <time>2024-01-12T09:26:42Z</time>
      </trkpt>
      <trkpt lat="42.94135" lon="0.31675">
        <ele>1339.73161</ele>
        <time>2024-01-12T09:26:43Z</time>
      </trkpt>
      <trkpt lat="42.94133" lon="0.31676">
        <ele>1340.42657</ele>
        <time>2024-01-12T09:26:44Z</time>
      </trkpt>
      <trkpt lat="42.94132" lon="0.31677">
        <ele>1339.47091</ele>
        <time>2024-01-12T09:26:46Z</time>
      </trkpt>
      <trkpt lat="42.94131" lon="0.31678">
        <ele>1338.82206</ele>
        <time>2024-01-12T09:26:47Z</time>
      </trkpt>
      <trkpt lat="42.9413" lon="0.31677">
        <ele>1340.07499</ele>
        <time>2024-01-12T09:26:48Z</time>
      </trkpt>
      <trkpt lat="42.9413" lon="0.3168">
        <ele>1339.73575</ele>
        <time>2024-01-12T09:26:49Z</time>
      </trkpt>
      <trkpt lat="42.94129" lon="0.3168">
        <ele>1340.49645</ele>
        <time>2024-01-12T09:26:51Z</time>
      </trkpt>
      <trkpt lat="42.94128" lon="0.31677">
        <ele>1343.57222</ele>
        <time>2024-01-12T09:26:55Z</time>
      </trkpt>
      <trkpt lat="42.94128" lon="0.31679">
        <ele>1343.39827</ele>
        <time>2024-01-12T09:26:56Z</time>
      </trkpt>
      <trkpt lat="42.94128" lon="0.31681">
        <ele>1340.95212</ele>
        <time>2024-01-12T09:26:59Z</time>
      </trkpt>
      <trkpt lat="42.94127" lon="0.31683">
        <ele>1340.53136</ele>
        <time>2024-01-12T09:27:01Z</time>
      </trkpt>
      <trkpt lat="42.94127" lon="0.31684">
        <ele>1341.30899</ele>
        <time>2024-01-12T09:27:03Z</time>
      </trkpt>
      <trkpt lat="42.94125" lon="0.31684">
        <ele>1341.20343</ele>
        <time>2024-01-12T09:27:05Z</time>
      </trkpt>
      <trkpt lat="42.94125" lon="0.31685">
        <ele>1341.79616</ele>
        <time>2024-01-12T09:27:07Z</time>
      </trkpt>
      <trkpt lat="42.94124" lon="0.31685">
        <ele>1340.454</ele>
        <time>2024-01-12T09:27:08Z</time>
      </trkpt>
      <trkpt lat="42.94123" lon="0.31687">
        <ele>1340.1536</ele>
        <time>2024-01-12T09:27:10Z</time>
      </trkpt>
      <trkpt lat="42.94122" lon="0.31689">
        <ele>1339.11124</ele>
        <time>2024-01-12T09:27:12Z</time>
      </trkpt>
      <trkpt lat="42.94122" lon="0.3169">
        <ele>1339.95568</ele>
        <time>2024-01-12T09:27:14Z</time>
      </trkpt>
      <trkpt lat="42.94121" lon="0.31691">
        <ele>1341.1687</ele>
        <time>2024-01-12T09:27:17Z</time>
      </trkpt>
      <trkpt lat="42.9412" lon="0.31691">
        <ele>1339.61008</ele>
        <time>2024-01-12T09:27:19Z</time>
      </trkpt>
      <trkpt lat="42.94119" lon="0.31691">
        <ele>1341.14057</ele>
        <time>2024-01-12T09:27:21Z</time>
      </trkpt>
      <trkpt lat="42.94119" lon="0.31693">
        <ele>1340.47666</ele>
        <time>2024-01-12T09:27:23Z</time>
      </trkpt>
      <trkpt lat="42.94119" lon="0.31694">
        <ele>1339.59806</ele>
        <time>2024-01-12T09:27:25Z</time>
      </trkpt>
      <trkpt lat="42.94119" lon="0.31696">
        <ele>1342.47257</ele>
        <time>2024-01-12T09:27:28Z</time>
      </trkpt>
      <trkpt lat="42.94118" lon="0.31697">
        <ele>1341.43148</ele>
        <time>2024-01-12T09:27:29Z</time>
      </trkpt>
      <trkpt lat="42.94118" lon="0.31698">
        <ele>1342.58409</ele>
        <time>2024-01-12T09:27:31Z</time>
      </trkpt>
      <trkpt lat="42.94119" lon="0.317">
        <ele>1343.1187</ele>
        <time>2024-01-12T09:27:33Z</time>
      </trkpt>
      <trkpt lat="42.94119" lon="0.31702">
        <ele>1343.30157</ele>
        <time>2024-01-12T09:27:35Z</time>
      </trkpt>
      <trkpt lat="42.94119" lon="0.31703">
        <ele>1344.75428</ele>
        <time>2024-01-12T09:27:37Z</time>
      </trkpt>
      <trkpt lat="42.9412" lon="0.31705">
        <ele>1345.00183</ele>
        <time>2024-01-12T09:27:40Z</time>
      </trkpt>
      <trkpt lat="42.94121" lon="0.31706">
        <ele>1345.83306</ele>
        <time>2024-01-12T09:27:45Z</time>
      </trkpt>
      <trkpt lat="42.94122" lon="0.31706">
        <ele>1346.99752</ele>
        <time>2024-01-12T09:27:47Z</time>
      </trkpt>
      <trkpt lat="42.94124" lon="0.31706">
        <ele>1348.52838</ele>
        <time>2024-01-12T09:27:49Z</time>
      </trkpt>
      <trkpt lat="42.94127" lon="0.31705">
        <ele>1349.30374</ele>
        <time>2024-01-12T09:27:50Z</time>
      </trkpt>
      <trkpt lat="42.94127" lon="0.31707">
        <ele>1348.4378</ele>
        <time>2024-01-12T09:27:52Z</time>
      </trkpt>
      <trkpt lat="42.94128" lon="0.31708">
        <ele>1351.81052</ele>
        <time>2024-01-12T09:27:54Z</time>
      </trkpt>
      <trkpt lat="42.94128" lon="0.3171">
        <ele>1350.75794</ele>
        <time>2024-01-12T09:27:56Z</time>
      </trkpt>
      <trkpt lat="42.94128" lon="0.31712">
        <ele>1350.35319</ele>
        <time>2024-01-12T09:27:58Z</time>
      </trkpt>
      <trkpt lat="42.94128" lon="0.31711">
        <ele>1350.64801</ele>
        <time>2024-01-12T09:27:59Z</time>
      </trkpt>
      <trkpt lat="42.94128" lon="0.31712">
        <ele>1349.75692</ele>
        <time>2024-01-12T09:28:03Z</time>
      </trkpt>
      <trkpt lat="42.94129" lon="0.31713">
        <ele>1347.56255</ele>
        <time>2024-01-12T09:28:04Z</time>
      </trkpt>
      <trkpt lat="42.9413" lon="0.31714">
        <ele>1347.80418</ele>
        <time>2024-01-12T09:28:05Z</time>
      </trkpt>
      <trkpt lat="42.94131" lon="0.31713">
        <ele>1351.85709</ele>
        <time>2024-01-12T09:28:07Z</time>
      </trkpt>
      <trkpt lat="42.94132" lon="0.31714">
        <ele>1352.34101</ele>
        <time>2024-01-12T09:28:09Z</time>
      </trkpt>
      <trkpt lat="42.94131" lon="0.31715">
        <ele>1351.55966</ele>
        <time>2024-01-12T09:28:11Z</time>
      </trkpt>
      <trkpt lat="42.94132" lon="0.31716">
        <ele>1351.80749</ele>
        <time>2024-01-12T09:28:13Z</time>
      </trkpt>
      <trkpt lat="42.94133" lon="0.31718">
        <ele>1351.11451</ele>
        <time>2024-01-12T09:28:15Z</time>
      </trkpt>
      <trkpt lat="42.94132" lon="0.31719">
        <ele>1351.59828</ele>
        <time>2024-01-12T09:28:18Z</time>
      </trkpt>
      <trkpt lat="42.94133" lon="0.31719">
        <ele>1351.61698</ele>
        <time>2024-01-12T09:28:19Z</time>
      </trkpt>
      <trkpt lat="42.94134" lon="0.3172">
        <ele>1351.72365</ele>
        <time>2024-01-12T09:28:21Z</time>
      </trkpt>
      <trkpt lat="42.94134" lon="0.31721">
        <ele>1351.7478</ele>
        <time>2024-01-12T09:28:22Z</time>
      </trkpt>
      <trkpt lat="42.94134" lon="0.31722">
        <ele>1352.0539</ele>
        <time>2024-01-12T09:28:23Z</time>
      </trkpt>
      <trkpt lat="42.94135" lon="0.31724">
        <ele>1351.52405</ele>
        <time>2024-01-12T09:28:27Z</time>
      </trkpt>
      <trkpt lat="42.94135" lon="0.31726">
        <ele>1349.07751</ele>
        <time>2024-01-12T09:28:28Z</time>
      </trkpt>
      <trkpt lat="42.94137" lon="0.31725">
        <ele>1350.79593</ele>
        <time>2024-01-12T09:28:29Z</time>
      </trkpt>
      <trkpt lat="42.94137" lon="0.31727">
        <ele>1351.01791</ele>
        <time>2024-01-12T09:28:31Z</time>
      </trkpt>
      <trkpt lat="42.94138" lon="0.31728">
        <ele>1350.04201</ele>
        <time>2024-01-12T09:28:33Z</time>
      </trkpt>
      <trkpt lat="42.9414" lon="0.31729">
        <ele>1353.54015</ele>
        <time>2024-01-12T09:28:36Z</time>
      </trkpt>
      <trkpt lat="42.94141" lon="0.31728">
        <ele>1356.52102</ele>
        <time>2024-01-12T09:28:39Z</time>
      </trkpt>
      <trkpt lat="42.94142" lon="0.3173">
        <ele>1356.35695</ele>
        <time>2024-01-12T09:28:40Z</time>
      </trkpt>
      <trkpt lat="42.94142" lon="0.31732">
        <ele>1357.02691</ele>
        <time>2024-01-12T09:28:42Z</time>
      </trkpt>
      <trkpt lat="42.94142" lon="0.31734">
        <ele>1359.94422</ele>
        <time>2024-01-12T09:28:46Z</time>
      </trkpt>
      <trkpt lat="42.94142" lon="0.31736">
        <ele>1359.21487</ele>
        <time>2024-01-12T09:28:47Z</time>
      </trkpt>
      <trkpt lat="42.94143" lon="0.31737">
        <ele>1362.01188</ele>
        <time>2024-01-12T09:28:49Z</time>
      </trkpt>
      <trkpt lat="42.94144" lon="0.31736">
        <ele>1361.10304</ele>
        <time>2024-01-12T09:28:51Z</time>
      </trkpt>
      <trkpt lat="42.94145" lon="0.31738">
        <ele>1356.94498</ele>
        <time>2024-01-12T09:28:53Z</time>
      </trkpt>
      <trkpt lat="42.94146" lon="0.31737">
        <ele>1358.22966</ele>
        <time>2024-01-12T09:28:55Z</time>
      </trkpt>
      <trkpt lat="42.94146" lon="0.31739">
        <ele>1358.07289</ele>
        <time>2024-01-12T09:29:02Z</time>
      </trkpt>
      <trkpt lat="42.94146" lon="0.3174">
        <ele>1357.18452</ele>
        <time>2024-01-12T09:29:03Z</time>
      </trkpt>
      <trkpt lat="42.94147" lon="0.31741">
        <ele>1356.5146</ele>
        <time>2024-01-12T09:29:05Z</time>
      </trkpt>
      <trkpt lat="42.94147" lon="0.31743">
        <ele>1356.09852</ele>
        <time>2024-01-12T09:29:07Z</time>
      </trkpt>
      <trkpt lat="42.94148" lon="0.31744">
        <ele>1355.46136</ele>
        <time>2024-01-12T09:29:09Z</time>
      </trkpt>
      <trkpt lat="42.94149" lon="0.31746">
        <ele>1357.73897</ele>
        <time>2024-01-12T09:29:13Z</time>
      </trkpt>
      <trkpt lat="42.94148" lon="0.31748">
        <ele>1359.15543</ele>
        <time>2024-01-12T09:29:15Z</time>
      </trkpt>
      <trkpt lat="42.94149" lon="0.31749">
        <ele>1359.97373</ele>
        <time>2024-01-12T09:29:17Z</time>
      </trkpt>
      <trkpt lat="42.9415" lon="0.31749">
        <ele>1361.74642</ele>
        <time>2024-01-12T09:29:20Z</time>
      </trkpt>
      <trkpt lat="42.94151" lon="0.3175">
        <ele>1362.32328</ele>
        <time>2024-01-12T09:29:22Z</time>
      </trkpt>
      <trkpt lat="42.94152" lon="0.31751">
        <ele>1361.67204</ele>
        <time>2024-01-12T09:29:24Z</time>
      </trkpt>
      <trkpt lat="42.94152" lon="0.31752">
        <ele>1360.40577</ele>
        <time>2024-01-12T09:29:25Z</time>
      </trkpt>
      <trkpt lat="42.94153" lon="0.31753">
        <ele>1361.77368</ele>
        <time>2024-01-12T09:29:28Z</time>
      </trkpt>
      <trkpt lat="42.94154" lon="0.31753">
        <ele>1361.54956</ele>
        <time>2024-01-12T09:29:29Z</time>
      </trkpt>
      <trkpt lat="42.94154" lon="0.31755">
        <ele>1360.96016</ele>
        <time>2024-01-12T09:29:32Z</time>
      </trkpt>
      <trkpt lat="42.94156" lon="0.31756">
        <ele>1362.47878</ele>
        <time>2024-01-12T09:29:36Z</time>
      </trkpt>
      <trkpt lat="42.94154" lon="0.31757">
        <ele>1364.25295</ele>
        <time>2024-01-12T09:29:40Z</time>
      </trkpt>
      <trkpt lat="42.94155" lon="0.31759">
        <ele>1364.12901</ele>
        <time>2024-01-12T09:29:42Z</time>
      </trkpt>
      <trkpt lat="42.94155" lon="0.31761">
        <ele>1363.37082</ele>
        <time>2024-01-12T09:29:44Z</time>
      </trkpt>
      <trkpt lat="42.94157" lon="0.31763">
        <ele>1363.30068</ele>
        <time>2024-01-12T09:29:46Z</time>
      </trkpt>
      <trkpt lat="42.94157" lon="0.31764">
        <ele>1366.67889</ele>
        <time>2024-01-12T09:29:50Z</time>
      </trkpt>
      <trkpt lat="42.94158" lon="0.31765">
        <ele>1367.099</ele>
        <time>2024-01-12T09:29:52Z</time>
      </trkpt>
      <trkpt lat="42.94158" lon="0.31766">
        <ele>1367.95432</ele>
        <time>2024-01-12T09:29:54Z</time>
      </trkpt>
      <trkpt lat="42.94159" lon="0.31767">
        <ele>1365.19533</ele>
        <time>2024-01-12T09:29:55Z</time>
      </trkpt>
      <trkpt lat="42.9416" lon="0.31767">
        <ele>1364.78132</ele>
        <time>2024-01-12T09:29:57Z</time>
      </trkpt>
      <trkpt lat="42.9416" lon="0.31769">
        <ele>1368.33402</ele>
        <time>2024-01-12T09:30:02Z</time>
      </trkpt>
      <trkpt lat="42.94159" lon="0.31772">
        <ele>1367.30078</ele>
        <time>2024-01-12T09:30:05Z</time>
      </trkpt>
      <trkpt lat="42.9416" lon="0.31773">
        <ele>1371.02073</ele>
        <time>2024-01-12T09:30:09Z</time>
      </trkpt>
      <trkpt lat="42.9416" lon="0.31774">
        <ele>1370.74599</ele>
        <time>2024-01-12T09:30:10Z</time>
      </trkpt>
      <trkpt lat="42.9416" lon="0.31776">
        <ele>1371.91886</ele>
        <time>2024-01-12T09:30:14Z</time>
      </trkpt>
      <trkpt lat="42.94161" lon="0.31778">
        <ele>1370.69011</ele>
        <time>2024-01-12T09:30:16Z</time>
      </trkpt>
      <trkpt lat="42.94161" lon="0.31779">
        <ele>1370.7</ele>
        <time>2024-01-12T09:30:17Z</time>
      </trkpt>
      <trkpt lat="42.94162" lon="0.3178">
        <ele>1370.22116</ele>
        <time>2024-01-12T09:30:19Z</time>
      </trkpt>
      <trkpt lat="42.94162" lon="0.31782">
        <ele>1370.725</ele>
        <time>2024-01-12T09:30:21Z</time>
      </trkpt>
      <trkpt lat="42.94163" lon="0.31784">
        <ele>1370.8673</ele>
        <time>2024-01-12T09:30:24Z</time>
      </trkpt>
      <trkpt lat="42.94164" lon="0.31785">
        <ele>1371.51203</ele>
        <time>2024-01-12T09:30:25Z</time>
      </trkpt>
      <trkpt lat="42.94165" lon="0.31786">
        <ele>1371.05542</ele>
        <time>2024-01-12T09:30:26Z</time>
      </trkpt>
      <trkpt lat="42.94166" lon="0.31787">
        <ele>1371.47351</ele>
        <time>2024-01-12T09:30:30Z</time>
      </trkpt>
      <trkpt lat="42.94166" lon="0.31788">
        <ele>1373.4989</ele>
        <time>2024-01-12T09:30:33Z</time>
      </trkpt>
      <trkpt lat="42.94166" lon="0.3179">
        <ele>1371.27032</ele>
        <time>2024-01-12T09:30:34Z</time>
      </trkpt>
      <trkpt lat="42.94166" lon="0.31792">
        <ele>1369.08401</ele>
        <time>2024-01-12T09:30:37Z</time>
      </trkpt>
      <trkpt lat="42.94166" lon="0.31793">
        <ele>1368.92753</ele>
        <time>2024-01-12T09:30:39Z</time>
      </trkpt>
      <trkpt lat="42.94167" lon="0.31792">
        <ele>1369.13547</ele>
        <time>2024-01-12T09:30:41Z</time>
      </trkpt>
      <trkpt lat="42.94166" lon="0.31795">
        <ele>1367.99559</ele>
        <time>2024-01-12T09:30:43Z</time>
      </trkpt>
      <trkpt lat="42.94166" lon="0.31797">
        <ele>1369.78694</ele>
        <time>2024-01-12T09:30:44Z</time>
      </trkpt>
      <trkpt lat="42.94167" lon="0.31798">
        <ele>1370.73703</ele>
        <time>2024-01-12T09:30:45Z</time>
      </trkpt>
      <trkpt lat="42.94167" lon="0.31799">
        <ele>1371.77385</ele>
        <time>2024-01-12T09:30:46Z</time>
      </trkpt>
      <trkpt lat="42.94168" lon="0.318">
        <ele>1372.73621</ele>
        <time>2024-01-12T09:30:47Z</time>
      </trkpt>
      <trkpt lat="42.94169" lon="0.31801">
        <ele>1373.4963</ele>
        <time>2024-01-12T09:30:48Z</time>
      </trkpt>
      <trkpt lat="42.9417" lon="0.31802">
        <ele>1375.41914</ele>
        <time>2024-01-12T09:30:52Z</time>
      </trkpt>
      <trkpt lat="42.94171" lon="0.31802">
        <ele>1377.15245</ele>
        <time>2024-01-12T09:30:54Z</time>
      </trkpt>
      <trkpt lat="42.94172" lon="0.31804">
        <ele>1376.6153</ele>
        <time>2024-01-12T09:30:58Z</time>
      </trkpt>
      <trkpt lat="42.94173" lon="0.31805">
        <ele>1377.0126</ele>
        <time>2024-01-12T09:31:00Z</time>
      </trkpt>
      <trkpt lat="42.94174" lon="0.31807">
        <ele>1376.53184</ele>
        <time>2024-01-12T09:31:01Z</time>
      </trkpt>
      <trkpt lat="42.94175" lon="0.31808">
        <ele>1378.05055</ele>
        <time>2024-01-12T09:31:03Z</time>
      </trkpt>
      <trkpt lat="42.94174" lon="0.31811">
        <ele>1376.79546</ele>
        <time>2024-01-12T09:31:05Z</time>
      </trkpt>
      <trkpt lat="42.94174" lon="0.31813">
        <ele>1377.6266</ele>
        <time>2024-01-12T09:31:06Z</time>
      </trkpt>
      <trkpt lat="42.94174" lon="0.31812">
        <ele>1379.58943</ele>
        <time>2024-01-12T09:31:09Z</time>
      </trkpt>
      <trkpt lat="42.94174" lon="0.31813">
        <ele>1378.48477</ele>
        <time>2024-01-12T09:31:11Z</time>
      </trkpt>
      <trkpt lat="42.94175" lon="0.31814">
        <ele>1377.93219</ele>
        <time>2024-01-12T09:31:12Z</time>
      </trkpt>
      <trkpt lat="42.94176" lon="0.31815">
        <ele>1379.11284</ele>
        <time>2024-01-12T09:31:14Z</time>
      </trkpt>
      <trkpt lat="42.94177" lon="0.31815">
        <ele>1380.06768</ele>
        <time>2024-01-12T09:31:16Z</time>
      </trkpt>
      <trkpt lat="42.94178" lon="0.31815">
        <ele>1379.93395</ele>
        <time>2024-01-12T09:31:17Z</time>
      </trkpt>
      <trkpt lat="42.94179" lon="0.31817">
        <ele>1379.29684</ele>
        <time>2024-01-12T09:31:19Z</time>
      </trkpt>
      <trkpt lat="42.9418" lon="0.31817">
        <ele>1382.13709</ele>
        <time>2024-01-12T09:31:21Z</time>
      </trkpt>
      <trkpt lat="42.9418" lon="0.3182">
        <ele>1380.46687</ele>
        <time>2024-01-12T09:31:25Z</time>
      </trkpt>
      <trkpt lat="42.94181" lon="0.31822">
        <ele>1378.31355</ele>
        <time>2024-01-12T09:31:28Z</time>
      </trkpt>
      <trkpt lat="42.9418" lon="0.31823">
        <ele>1377.98602</ele>
        <time>2024-01-12T09:31:29Z</time>
      </trkpt>
      <trkpt lat="42.94181" lon="0.31825">
        <ele>1376.25791</ele>
        <time>2024-01-12T09:31:31Z</time>
      </trkpt>
      <trkpt lat="42.94181" lon="0.31826">
        <ele>1375.6981</ele>
        <time>2024-01-12T09:31:33Z</time>
      </trkpt>
      <trkpt lat="42.94181" lon="0.31829">
        <ele>1378.53125</ele>
        <time>2024-01-12T09:31:35Z</time>
      </trkpt>
      <trkpt lat="42.94181" lon="0.31831">
        <ele>1379.31095</ele>
        <time>2024-01-12T09:31:37Z</time>
      </trkpt>
      <trkpt lat="42.94182" lon="0.31832">
        <ele>1379.73397</ele>
        <time>2024-01-12T09:31:38Z</time>
      </trkpt>
      <trkpt lat="42.94183" lon="0.31833">
        <ele>1379.9856</ele>
        <time>2024-01-12T09:31:40Z</time>
      </trkpt>
      <trkpt lat="42.94184" lon="0.31834">
        <ele>1379.92893</ele>
        <time>2024-01-12T09:31:41Z</time>
      </trkpt>
      <trkpt lat="42.94185" lon="0.31834">
        <ele>1379.95871</ele>
        <time>2024-01-12T09:31:43Z</time>
      </trkpt>
      <trkpt lat="42.94184" lon="0.31834">
        <ele>1378.56616</ele>
        <time>2024-01-12T09:31:46Z</time>
      </trkpt>
      <trkpt lat="42.94186" lon="0.31836">
        <ele>1378.65958</ele>
        <time>2024-01-12T09:31:47Z</time>
      </trkpt>
      <trkpt lat="42.94187" lon="0.31836">
        <ele>1379.45209</ele>
        <time>2024-01-12T09:31:48Z</time>
      </trkpt>
      <trkpt lat="42.94187" lon="0.31838">
        <ele>1380.17432</ele>
        <time>2024-01-12T09:31:50Z</time>
      </trkpt>
      <trkpt lat="42.94187" lon="0.3184">
        <ele>1380.49378</ele>
        <time>2024-01-12T09:31:51Z</time>
      </trkpt>
      <trkpt lat="42.94188" lon="0.31841">
        <ele>1380.69776</ele>
        <time>2024-01-12T09:31:52Z</time>
      </trkpt>
      <trkpt lat="42.94188" lon="0.31842">
        <ele>1381.84948</ele>
        <time>2024-01-12T09:31:54Z</time>
      </trkpt>
      <trkpt lat="42.94189" lon="0.31843">
        <ele>1381.48155</ele>
        <time>2024-01-12T09:31:56Z</time>
      </trkpt>
      <trkpt lat="42.94189" lon="0.31844">
        <ele>1381.61405</ele>
        <time>2024-01-12T09:31:58Z</time>
      </trkpt>
      <trkpt lat="42.94189" lon="0.31846">
        <ele>1380.0088</ele>
        <time>2024-01-12T09:32:01Z</time>
      </trkpt>
      <trkpt lat="42.94191" lon="0.31847">
        <ele>1380.33057</ele>
        <time>2024-01-12T09:32:03Z</time>
      </trkpt>
      <trkpt lat="42.94192" lon="0.31847">
        <ele>1379.47517</ele>
        <time>2024-01-12T09:32:05Z</time>
      </trkpt>
      <trkpt lat="42.94193" lon="0.31849">
        <ele>1379.32148</ele>
        <time>2024-01-12T09:32:07Z</time>
      </trkpt>
      <trkpt lat="42.94193" lon="0.31851">
        <ele>1380.15973</ele>
        <time>2024-01-12T09:32:08Z</time>
      </trkpt>
      <trkpt lat="42.94194" lon="0.31853">
        <ele>1377.7148</ele>
        <time>2024-01-12T09:32:12Z</time>
      </trkpt>
      <trkpt lat="42.94195" lon="0.31855">
        <ele>1378.05807</ele>
        <time>2024-01-12T09:32:15Z</time>
      </trkpt>
      <trkpt lat="42.94195" lon="0.31855">
        <ele>1379.00832</ele>
        <time>2024-01-12T09:32:17Z</time>
      </trkpt>
      <trkpt lat="42.94195" lon="0.31857">
        <ele>1379.53707</ele>
        <time>2024-01-12T09:32:18Z</time>
      </trkpt>
      <trkpt lat="42.94196" lon="0.31858">
        <ele>1381.88279</ele>
        <time>2024-01-12T09:32:21Z</time>
      </trkpt>
      <trkpt lat="42.94196" lon="0.3186">
        <ele>1382.18223</ele>
        <time>2024-01-12T09:32:22Z</time>
      </trkpt>
      <trkpt lat="42.94196" lon="0.31861">
        <ele>1383.72381</ele>
        <time>2024-01-12T09:32:26Z</time>
      </trkpt>
      <trkpt lat="42.94197" lon="0.31862">
        <ele>1383.22206</ele>
        <time>2024-01-12T09:32:27Z</time>
      </trkpt>
      <trkpt lat="42.94196" lon="0.31863">
        <ele>1383.74746</ele>
        <time>2024-01-12T09:32:28Z</time>
      </trkpt>
      <trkpt lat="42.94197" lon="0.31862">
        <ele>1384.44468</ele>
        <time>2024-01-12T09:32:29Z</time>
      </trkpt>
      <trkpt lat="42.94198" lon="0.31863">
        <ele>1383.74218</ele>
        <time>2024-01-12T09:32:30Z</time>
      </trkpt>
      <trkpt lat="42.94199" lon="0.31864">
        <ele>1385.47162</ele>
        <time>2024-01-12T09:32:32Z</time>
      </trkpt>
      <trkpt lat="42.942" lon="0.31866">
        <ele>1385.06865</ele>
        <time>2024-01-12T09:32:34Z</time>
      </trkpt>
      <trkpt lat="42.94201" lon="0.31867">
        <ele>1383.48964</ele>
        <time>2024-01-12T09:32:37Z</time>
      </trkpt>
      <trkpt lat="42.942" lon="0.31868">
        <ele>1379.4072</ele>
        <time>2024-01-12T09:32:38Z</time>
      </trkpt>
      <trkpt lat="42.94201" lon="0.3187">
        <ele>1379.27702</ele>
        <time>2024-01-12T09:32:39Z</time>
      </trkpt>
      <trkpt lat="42.94202" lon="0.31872">
        <ele>1380.23165</ele>
        <time>2024-01-12T09:32:41Z</time>
      </trkpt>
      <trkpt lat="42.94202" lon="0.31873">
        <ele>1381.04244</ele>
        <time>2024-01-12T09:32:43Z</time>
      </trkpt>
      <trkpt lat="42.94203" lon="0.31874">
        <ele>1380.6787</ele>
        <time>2024-01-12T09:32:45Z</time>
      </trkpt>
      <trkpt lat="42.94203" lon="0.31875">
        <ele>1381.69804</ele>
        <time>2024-01-12T09:32:46Z</time>
      </trkpt>
      <trkpt lat="42.94204" lon="0.31876">
        <ele>1381.17003</ele>
        <time>2024-01-12T09:32:48Z</time>
      </trkpt>
      <trkpt lat="42.94205" lon="0.31876">
        <ele>1381.81675</ele>
        <time>2024-01-12T09:32:50Z</time>
      </trkpt>
      <trkpt lat="42.94206" lon="0.31879">
        <ele>1381.64315</ele>
        <time>2024-01-12T09:32:52Z</time>
      </trkpt>
      <trkpt lat="42.94205" lon="0.3188">
        <ele>1384.23869</ele>
        <time>2024-01-12T09:32:55Z</time>
      </trkpt>
      <trkpt lat="42.94204" lon="0.31883">
        <ele>1386.02981</ele>
        <time>2024-01-12T09:32:57Z</time>
      </trkpt>
      <trkpt lat="42.94204" lon="0.31884">
        <ele>1383.93137</ele>
        <time>2024-01-12T09:33:00Z</time>
      </trkpt>
      <trkpt lat="42.94205" lon="0.31885">
        <ele>1383.72379</ele>
        <time>2024-01-12T09:33:06Z</time>
      </trkpt>
      <trkpt lat="42.94206" lon="0.31884">
        <ele>1384.7627</ele>
        <time>2024-01-12T09:33:09Z</time>
      </trkpt>
      <trkpt lat="42.94207" lon="0.31884">
        <ele>1385.51936</ele>
        <time>2024-01-12T09:33:16Z</time>
      </trkpt>
      <trkpt lat="42.94208" lon="0.31882">
        <ele>1383.87249</ele>
        <time>2024-01-12T09:33:19Z</time>
      </trkpt>
      <trkpt lat="42.94208" lon="0.3188">
        <ele>1382.64487</ele>
        <time>2024-01-12T09:33:24Z</time>
      </trkpt>
      <trkpt lat="42.94207" lon="0.31879">
        <ele>1383.40255</ele>
        <time>2024-01-12T09:33:26Z</time>
      </trkpt>
      <trkpt lat="42.94208" lon="0.31877">
        <ele>1385.00391</ele>
        <time>2024-01-12T09:33:30Z</time>
      </trkpt>
      <trkpt lat="42.94208" lon="0.31875">
        <ele>1385.81422</ele>
        <time>2024-01-12T09:33:32Z</time>
      </trkpt>
      <trkpt lat="42.94207" lon="0.31875">
        <ele>1386.21782</ele>
        <time>2024-01-12T09:33:33Z</time>
      </trkpt>
      <trkpt lat="42.94208" lon="0.31873">
        <ele>1386.36148</ele>
        <time>2024-01-12T09:33:34Z</time>
      </trkpt>
      <trkpt lat="42.94208" lon="0.31872">
        <ele>1384.04404</ele>
        <time>2024-01-12T09:33:37Z</time>
      </trkpt>
      <trkpt lat="42.94208" lon="0.3187">
        <ele>1383.2677</ele>
        <time>2024-01-12T09:33:39Z</time>
      </trkpt>
      <trkpt lat="42.94207" lon="0.3187">
        <ele>1383.3353</ele>
        <time>2024-01-12T09:33:40Z</time>
      </trkpt>
      <trkpt lat="42.94206" lon="0.31868">
        <ele>1383.64888</ele>
        <time>2024-01-12T09:33:42Z</time>
      </trkpt>
      <trkpt lat="42.94206" lon="0.31866">
        <ele>1382.53321</ele>
        <time>2024-01-12T09:33:44Z</time>
      </trkpt>
      <trkpt lat="42.94206" lon="0.31865">
        <ele>1382.14045</ele>
        <time>2024-01-12T09:33:46Z</time>
      </trkpt>
      <trkpt lat="42.94206" lon="0.31863">
        <ele>1381.76019</ele>
        <time>2024-01-12T09:33:48Z</time>
      </trkpt>
      <trkpt lat="42.94207" lon="0.31861">
        <ele>1380.21389</ele>
        <time>2024-01-12T09:33:50Z</time>
      </trkpt>
      <trkpt lat="42.94206" lon="0.3186">
        <ele>1381.20354</ele>
        <time>2024-01-12T09:33:53Z</time>
      </trkpt>
      <trkpt lat="42.94204" lon="0.31859">
        <ele>1381.89389</ele>
        <time>2024-01-12T09:33:56Z</time>
      </trkpt>
      <trkpt lat="42.94203" lon="0.31857">
        <ele>1379.62571</ele>
        <time>2024-01-12T09:33:59Z</time>
      </trkpt>
      <trkpt lat="42.94203" lon="0.31856">
        <ele>1380.65539</ele>
        <time>2024-01-12T09:34:00Z</time>
      </trkpt>
      <trkpt lat="42.94202" lon="0.31855">
        <ele>1380.42816</ele>
        <time>2024-01-12T09:34:01Z</time>
      </trkpt>
      <trkpt lat="42.94201" lon="0.31854">
        <ele>1379.93841</ele>
        <time>2024-01-12T09:34:02Z</time>
      </trkpt>
      <trkpt lat="42.94201" lon="0.31853">
        <ele>1379.49964</ele>
        <time>2024-01-12T09:34:06Z</time>
      </trkpt>
      <trkpt lat="42.94202" lon="0.31851">
        <ele>1382.07144</ele>
        <time>2024-01-12T09:34:13Z</time>
      </trkpt>
      <trkpt lat="42.94201" lon="0.3185">
        <ele>1381.04162</ele>
        <time>2024-01-12T09:34:17Z</time>
      </trkpt>
      <trkpt lat="42.942" lon="0.31848">
        <ele>1380.65916</ele>
        <time>2024-01-12T09:34:19Z</time>
      </trkpt>
      <trkpt lat="42.942" lon="0.31846">
        <ele>1380.45172</ele>
        <time>2024-01-12T09:34:21Z</time>
      </trkpt>
      <trkpt lat="42.94199" lon="0.31845">
        <ele>1380.18226</ele>
        <time>2024-01-12T09:34:23Z</time>
      </trkpt>
      <trkpt lat="42.94198" lon="0.31843">
        <ele>1380.29925</ele>
        <time>2024-01-12T09:34:25Z</time>
      </trkpt>
      <trkpt lat="42.94198" lon="0.31842">
        <ele>1379.9492</ele>
        <time>2024-01-12T09:34:26Z</time>
      </trkpt>
      <trkpt lat="42.94197" lon="0.3184">
        <ele>1379.05116</ele>
        <time>2024-01-12T09:34:27Z</time>
      </trkpt>
      <trkpt lat="42.94197" lon="0.31839">
        <ele>1380.59338</ele>
        <time>2024-01-12T09:34:29Z</time>
      </trkpt>
      <trkpt lat="42.94197" lon="0.31837">
        <ele>1379.94137</ele>
        <time>2024-01-12T09:34:30Z</time>
      </trkpt>
      <trkpt lat="42.94197" lon="0.31836">
        <ele>1378.64874</ele>
        <time>2024-01-12T09:34:32Z</time>
      </trkpt>
      <trkpt lat="42.94196" lon="0.31834">
        <ele>1377.15805</ele>
        <time>2024-01-12T09:34:34Z</time>
      </trkpt>
      <trkpt lat="42.94196" lon="0.31832">
        <ele>1377.4549</ele>
        <time>2024-01-12T09:34:35Z</time>
      </trkpt>
      <trkpt lat="42.94196" lon="0.3183">
        <ele>1378.70004</ele>
        <time>2024-01-12T09:34:36Z</time>
      </trkpt>
      <trkpt lat="42.94195" lon="0.31827">
        <ele>1378.32338</ele>
        <time>2024-01-12T09:34:39Z</time>
      </trkpt>
      <trkpt lat="42.94195" lon="0.31826">
        <ele>1375.91238</ele>
        <time>2024-01-12T09:34:42Z</time>
      </trkpt>
      <trkpt lat="42.94194" lon="0.31823">
        <ele>1375.74279</ele>
        <time>2024-01-12T09:34:44Z</time>
      </trkpt>
      <trkpt lat="42.94193" lon="0.31821">
        <ele>1375.46189</ele>
        <time>2024-01-12T09:34:46Z</time>
      </trkpt>
      <trkpt lat="42.94192" lon="0.31819">
        <ele>1376.58159</ele>
        <time>2024-01-12T09:34:48Z</time>
      </trkpt>
      <trkpt lat="42.94191" lon="0.31817">
        <ele>1377.09731</ele>
        <time>2024-01-12T09:34:49Z</time>
      </trkpt>
      <trkpt lat="42.9419" lon="0.31817">
        <ele>1375.32394</ele>
        <time>2024-01-12T09:34:51Z</time>
      </trkpt>
      <trkpt lat="42.94189" lon="0.31817">
        <ele>1374.01116</ele>
        <time>2024-01-12T09:34:53Z</time>
      </trkpt>
      <trkpt lat="42.94187" lon="0.31816">
        <ele>1374.44212</ele>
        <time>2024-01-12T09:34:54Z</time>
      </trkpt>
      <trkpt lat="42.94186" lon="0.31814">
        <ele>1375.24857</ele>
        <time>2024-01-12T09:34:56Z</time>
      </trkpt>
      <trkpt lat="42.94184" lon="0.31813">
        <ele>1375.9051</ele>
        <time>2024-01-12T09:34:58Z</time>
      </trkpt>
      <trkpt lat="42.94185" lon="0.31814">
        <ele>1374.30036</ele>
        <time>2024-01-12T09:35:00Z</time>
      </trkpt>
      <trkpt lat="42.94184" lon="0.31814">
        <ele>1375.6566</ele>
        <time>2024-01-12T09:35:02Z</time>
      </trkpt>
      <trkpt lat="42.94183" lon="0.31813">
        <ele>1376.38561</ele>
        <time>2024-01-12T09:35:05Z</time>
      </trkpt>
      <trkpt lat="42.94183" lon="0.31811">
        <ele>1374.98401</ele>
        <time>2024-01-12T09:35:07Z</time>
      </trkpt>
      <trkpt lat="42.94181" lon="0.3181">
        <ele>1374.33688</ele>
        <time>2024-01-12T09:35:09Z</time>
      </trkpt>
      <trkpt lat="42.9418" lon="0.31809">
        <ele>1374.37202</ele>
        <time>2024-01-12T09:35:11Z</time>
      </trkpt>
      <trkpt lat="42.9418" lon="0.31808">
        <ele>1374.80237</ele>
        <time>2024-01-12T09:35:12Z</time>
      </trkpt>
      <trkpt lat="42.94178" lon="0.31807">
        <ele>1376.99504</ele>
        <time>2024-01-12T09:35:14Z</time>
      </trkpt>
      <trkpt lat="42.94178" lon="0.31805">
        <ele>1377.29321</ele>
        <time>2024-01-12T09:35:16Z</time>
      </trkpt>
      <trkpt lat="42.94177" lon="0.31805">
        <ele>1376.51456</ele>
        <time>2024-01-12T09:35:17Z</time>
      </trkpt>
      <trkpt lat="42.94176" lon="0.31804">
        <ele>1377.67317</ele>
        <time>2024-01-12T09:35:18Z</time>
      </trkpt>
      <trkpt lat="42.94174" lon="0.31802">
        <ele>1378.98357</ele>
        <time>2024-01-12T09:35:20Z</time>
      </trkpt>
      <trkpt lat="42.94173" lon="0.31803">
        <ele>1378.0473</ele>
        <time>2024-01-12T09:35:21Z</time>
      </trkpt>
      <trkpt lat="42.94172" lon="0.31803">
        <ele>1377.45245</ele>
        <time>2024-01-12T09:35:22Z</time>
      </trkpt>
      <trkpt lat="42.94171" lon="0.31802">
        <ele>1376.67965</ele>
        <time>2024-01-12T09:35:23Z</time>
      </trkpt>
      <trkpt lat="42.94169" lon="0.31801">
        <ele>1376.57993</ele>
        <time>2024-01-12T09:35:24Z</time>
      </trkpt>
      <trkpt lat="42.94169" lon="0.31801">
        <ele>1376.1699</ele>
        <time>2024-01-12T09:35:25Z</time>
      </trkpt>
      <trkpt lat="42.94167" lon="0.318">
        <ele>1377.47871</ele>
        <time>2024-01-12T09:35:26Z</time>
      </trkpt>
      <trkpt lat="42.94166" lon="0.31799">
        <ele>1376.72116</ele>
        <time>2024-01-12T09:35:28Z</time>
      </trkpt>
      <trkpt lat="42.94164" lon="0.31799">
        <ele>1377.74849</ele>
        <time>2024-01-12T09:35:30Z</time>
      </trkpt>
      <trkpt lat="42.94163" lon="0.31799">
        <ele>1377.47813</ele>
        <time>2024-01-12T09:35:31Z</time>
      </trkpt>
      <trkpt lat="42.94162" lon="0.31801">
        <ele>1377.90391</ele>
        <time>2024-01-12T09:35:33Z</time>
      </trkpt>
      <trkpt lat="42.94161" lon="0.318">
        <ele>1382.59845</ele>
        <time>2024-01-12T09:35:37Z</time>
      </trkpt>
      <trkpt lat="42.9416" lon="0.31802">
        <ele>1382.40688</ele>
        <time>2024-01-12T09:35:38Z</time>
      </trkpt>
      <trkpt lat="42.94159" lon="0.31802">
        <ele>1381.75368</ele>
        <time>2024-01-12T09:35:39Z</time>
      </trkpt>
      <trkpt lat="42.94157" lon="0.31804">
        <ele>1380.26327</ele>
        <time>2024-01-12T09:35:43Z</time>
      </trkpt>
      <trkpt lat="42.94156" lon="0.31804">
        <ele>1380.79935</ele>
        <time>2024-01-12T09:35:44Z</time>
      </trkpt>
      <trkpt lat="42.94154" lon="0.31804">
        <ele>1381.12192</ele>
        <time>2024-01-12T09:35:48Z</time>
      </trkpt>
      <trkpt lat="42.94152" lon="0.31803">
        <ele>1379.42175</ele>
        <time>2024-01-12T09:35:51Z</time>
      </trkpt>
      <trkpt lat="42.9415" lon="0.31804">
        <ele>1379.50577</ele>
        <time>2024-01-12T09:35:54Z</time>
      </trkpt>
      <trkpt lat="42.94149" lon="0.31803">
        <ele>1379.87192</ele>
        <time>2024-01-12T09:35:56Z</time>
      </trkpt>
      <trkpt lat="42.94148" lon="0.31804">
        <ele>1376.75888</ele>
        <time>2024-01-12T09:35:57Z</time>
      </trkpt>
      <trkpt lat="42.94147" lon="0.31805">
        <ele>1377.73557</ele>
        <time>2024-01-12T09:35:58Z</time>
      </trkpt>
      <trkpt lat="42.94145" lon="0.31805">
        <ele>1377.89806</ele>
        <time>2024-01-12T09:35:59Z</time>
      </trkpt>
      <trkpt lat="42.94145" lon="0.31804">
        <ele>1380.71971</ele>
        <time>2024-01-12T09:36:03Z</time>
      </trkpt>
      <trkpt lat="42.94144" lon="0.31807">
        <ele>1377.7736</ele>
        <time>2024-01-12T09:36:05Z</time>
      </trkpt>
      <trkpt lat="42.94144" lon="0.31808">
        <ele>1376.05011</ele>
        <time>2024-01-12T09:36:07Z</time>
      </trkpt>
      <trkpt lat="42.94143" lon="0.31809">
        <ele>1377.16153</ele>
        <time>2024-01-12T09:36:09Z</time>
      </trkpt>
      <trkpt lat="42.94143" lon="0.31807">
        <ele>1379.95933</ele>
        <time>2024-01-12T09:36:10Z</time>
      </trkpt>
      <trkpt lat="42.94142" lon="0.31808">
        <ele>1380.79332</ele>
        <time>2024-01-12T09:36:12Z</time>
      </trkpt>
      <trkpt lat="42.94142" lon="0.3181">
        <ele>1380.42176</ele>
        <time>2024-01-12T09:36:14Z</time>
      </trkpt>
      <trkpt lat="42.94141" lon="0.31811">
        <ele>1381.16758</ele>
        <time>2024-01-12T09:36:19Z</time>
      </trkpt>
      <trkpt lat="42.94139" lon="0.31811">
        <ele>1380.11884</ele>
        <time>2024-01-12T09:36:21Z</time>
      </trkpt>
      <trkpt lat="42.94138" lon="0.31812">
        <ele>1379.61834</ele>
        <time>2024-01-12T09:36:23Z</time>
      </trkpt>
      <trkpt lat="42.94136" lon="0.31813">
        <ele>1381.62224</ele>
        <time>2024-01-12T09:36:26Z</time>
      </trkpt>
      <trkpt lat="42.94136" lon="0.31811">
        <ele>1383.94198</ele>
        <time>2024-01-12T09:36:27Z</time>
      </trkpt>
      <trkpt lat="42.94135" lon="0.31812">
        <ele>1384.17783</ele>
        <time>2024-01-12T09:36:30Z</time>
      </trkpt>
      <trkpt lat="42.94134" lon="0.31811">
        <ele>1383.65985</ele>
        <time>2024-01-12T09:36:31Z</time>
      </trkpt>
      <trkpt lat="42.94133" lon="0.31811">
        <ele>1385.37055</ele>
        <time>2024-01-12T09:36:33Z</time>
      </trkpt>
      <trkpt lat="42.94133" lon="0.31812">
        <ele>1385.59358</ele>
        <time>2024-01-12T09:36:34Z</time>
      </trkpt>
      <trkpt lat="42.94132" lon="0.31812">
        <ele>1386.04391</ele>
        <time>2024-01-12T09:36:36Z</time>
      </trkpt>
      <trkpt lat="42.9413" lon="0.31812">
        <ele>1384.02649</ele>
        <time>2024-01-12T09:36:38Z</time>
      </trkpt>
      <trkpt lat="42.94129" lon="0.31813">
        <ele>1384.76094</ele>
        <time>2024-01-12T09:36:39Z</time>
      </trkpt>
      <trkpt lat="42.94127" lon="0.31813">
        <ele>1383.77831</ele>
        <time>2024-01-12T09:36:41Z</time>
      </trkpt>
      <trkpt lat="42.94126" lon="0.31813">
        <ele>1385.1293</ele>
        <time>2024-01-12T09:36:43Z</time>
      </trkpt>
      <trkpt lat="42.94125" lon="0.31813">
        <ele>1384.39671</ele>
        <time>2024-01-12T09:36:46Z</time>
      </trkpt>
      <trkpt lat="42.94124" lon="0.31813">
        <ele>1385.03378</ele>
        <time>2024-01-12T09:36:48Z</time>
      </trkpt>
      <trkpt lat="42.94122" lon="0.31814">
        <ele>1383.56129</ele>
        <time>2024-01-12T09:36:50Z</time>
      </trkpt>
      <trkpt lat="42.94121" lon="0.31814">
        <ele>1384.55662</ele>
        <time>2024-01-12T09:36:51Z</time>
      </trkpt>
      <trkpt lat="42.9412" lon="0.31815">
        <ele>1385.9113</ele>
        <time>2024-01-12T09:36:55Z</time>
      </trkpt>
      <trkpt lat="42.94117" lon="0.31815">
        <ele>1385.4213</ele>
        <time>2024-01-12T09:36:57Z</time>
      </trkpt>
      <trkpt lat="42.94116" lon="0.31816">
        <ele>1384.76882</ele>
        <time>2024-01-12T09:36:58Z</time>
      </trkpt>
      <trkpt lat="42.94115" lon="0.31816">
        <ele>1384.92468</ele>
        <time>2024-01-12T09:36:59Z</time>
      </trkpt>
      <trkpt lat="42.94116" lon="0.31816">
        <ele>1384.84741</ele>
        <time>2024-01-12T09:37:00Z</time>
      </trkpt>
      <trkpt lat="42.94116" lon="0.31817">
        <ele>1385.91539</ele>
        <time>2024-01-12T09:37:02Z</time>
      </trkpt>
      <trkpt lat="42.94115" lon="0.31818">
        <ele>1387.73545</ele>
        <time>2024-01-12T09:37:04Z</time>
      </trkpt>
      <trkpt lat="42.94113" lon="0.31817">
        <ele>1389.80353</ele>
        <time>2024-01-12T09:37:05Z</time>
      </trkpt>
      <trkpt lat="42.94113" lon="0.31819">
        <ele>1389.8037</ele>
        <time>2024-01-12T09:37:09Z</time>
      </trkpt>
      <trkpt lat="42.94113" lon="0.31818">
        <ele>1393.0353</ele>
        <time>2024-01-12T09:37:10Z</time>
      </trkpt>
      <trkpt lat="42.94113" lon="0.3182">
        <ele>1390.64152</ele>
        <time>2024-01-12T09:37:11Z</time>
      </trkpt>
      <trkpt lat="42.94112" lon="0.31821">
        <ele>1387.91711</ele>
        <time>2024-01-12T09:37:13Z</time>
      </trkpt>
      <trkpt lat="42.94112" lon="0.31823">
        <ele>1385.10296</ele>
        <time>2024-01-12T09:37:15Z</time>
      </trkpt>
      <trkpt lat="42.94111" lon="0.31825">
        <ele>1384.57599</ele>
        <time>2024-01-12T09:37:17Z</time>
      </trkpt>
      <trkpt lat="42.94111" lon="0.31827">
        <ele>1384.00506</ele>
        <time>2024-01-12T09:37:19Z</time>
      </trkpt>
      <trkpt lat="42.94111" lon="0.31826">
        <ele>1385.48007</ele>
        <time>2024-01-12T09:37:23Z</time>
      </trkpt>
      <trkpt lat="42.9411" lon="0.31827">
        <ele>1386.17539</ele>
        <time>2024-01-12T09:37:25Z</time>
      </trkpt>
      <trkpt lat="42.94109" lon="0.31828">
        <ele>1387.66607</ele>
        <time>2024-01-12T09:37:26Z</time>
      </trkpt>
      <trkpt lat="42.94108" lon="0.31827">
        <ele>1387.46267</ele>
        <time>2024-01-12T09:37:27Z</time>
      </trkpt>
      <trkpt lat="42.94107" lon="0.3183">
        <ele>1385.98493</ele>
        <time>2024-01-12T09:37:33Z</time>
      </trkpt>
      <trkpt lat="42.94107" lon="0.31832">
        <ele>1388.48714</ele>
        <time>2024-01-12T09:37:36Z</time>
      </trkpt>
      <trkpt lat="42.94106" lon="0.31833">
        <ele>1390.2707</ele>
        <time>2024-01-12T09:37:38Z</time>
      </trkpt>
      <trkpt lat="42.94105" lon="0.31834">
        <ele>1392.0836</ele>
        <time>2024-01-12T09:37:41Z</time>
      </trkpt>
      <trkpt lat="42.94104" lon="0.31834">
        <ele>1391.71469</ele>
        <time>2024-01-12T09:37:42Z</time>
      </trkpt>
      <trkpt lat="42.94103" lon="0.31834">
        <ele>1395.64759</ele>
        <time>2024-01-12T09:37:44Z</time>
      </trkpt>
      <trkpt lat="42.94101" lon="0.31834">
        <ele>1395.09463</ele>
        <time>2024-01-12T09:37:47Z</time>
      </trkpt>
      <trkpt lat="42.941" lon="0.31835">
        <ele>1394.5292</ele>
        <time>2024-01-12T09:37:48Z</time>
      </trkpt>
      <trkpt lat="42.94101" lon="0.31837">
        <ele>1393.75209</ele>
        <time>2024-01-12T09:37:49Z</time>
      </trkpt>
      <trkpt lat="42.94102" lon="0.31839">
        <ele>1393.16576</ele>
        <time>2024-01-12T09:37:50Z</time>
      </trkpt>
      <trkpt lat="42.94102" lon="0.31841">
        <ele>1393.67748</ele>
        <time>2024-01-12T09:37:53Z</time>
      </trkpt>
      <trkpt lat="42.94102" lon="0.31843">
        <ele>1393.51709</ele>
        <time>2024-01-12T09:37:55Z</time>
      </trkpt>
      <trkpt lat="42.94101" lon="0.31844">
        <ele>1394.00788</ele>
        <time>2024-01-12T09:37:57Z</time>
      </trkpt>
      <trkpt lat="42.94101" lon="0.31846">
        <ele>1394.3488</ele>
        <time>2024-01-12T09:38:00Z</time>
      </trkpt>
      <trkpt lat="42.94101" lon="0.31847">
        <ele>1390.2364</ele>
        <time>2024-01-12T09:38:01Z</time>
      </trkpt>
      <trkpt lat="42.94099" lon="0.31847">
        <ele>1393.2587</ele>
        <time>2024-01-12T09:38:03Z</time>
      </trkpt>
      <trkpt lat="42.941" lon="0.31848">
        <ele>1392.6154</ele>
        <time>2024-01-12T09:38:04Z</time>
      </trkpt>
      <trkpt lat="42.941" lon="0.3185">
        <ele>1392.74663</ele>
        <time>2024-01-12T09:38:05Z</time>
      </trkpt>
      <trkpt lat="42.94099" lon="0.3185">
        <ele>1396.1441</ele>
        <time>2024-01-12T09:38:08Z</time>
      </trkpt>
      <trkpt lat="42.94098" lon="0.31852">
        <ele>1397.87491</ele>
        <time>2024-01-12T09:38:10Z</time>
      </trkpt>
      <trkpt lat="42.94096" lon="0.31853">
        <ele>1399.5524</ele>
        <time>2024-01-12T09:38:12Z</time>
      </trkpt>
      <trkpt lat="42.94096" lon="0.31853">
        <ele>1400.3024</ele>
        <time>2024-01-12T09:38:15Z</time>
      </trkpt>
      <trkpt lat="42.94096" lon="0.31855">
        <ele>1399.96707</ele>
        <time>2024-01-12T09:38:16Z</time>
      </trkpt>
      <trkpt lat="42.94095" lon="0.31856">
        <ele>1399.14334</ele>
        <time>2024-01-12T09:38:19Z</time>
      </trkpt>
      <trkpt lat="42.94095" lon="0.31857">
        <ele>1398.07138</ele>
        <time>2024-01-12T09:38:21Z</time>
      </trkpt>
      <trkpt lat="42.94096" lon="0.31858">
        <ele>1397.30315</ele>
        <time>2024-01-12T09:38:22Z</time>
      </trkpt>
      <trkpt lat="42.94096" lon="0.3186">
        <ele>1398.87266</ele>
        <time>2024-01-12T09:38:26Z</time>
      </trkpt>
      <trkpt lat="42.94094" lon="0.3186">
        <ele>1402.96459</ele>
        <time>2024-01-12T09:38:29Z</time>
      </trkpt>
      <trkpt lat="42.94093" lon="0.31861">
        <ele>1400.76957</ele>
        <time>2024-01-12T09:38:31Z</time>
      </trkpt>
      <trkpt lat="42.94092" lon="0.31863">
        <ele>1400.69472</ele>
        <time>2024-01-12T09:38:33Z</time>
      </trkpt>
      <trkpt lat="42.94092" lon="0.31864">
        <ele>1400.61133</ele>
        <time>2024-01-12T09:38:35Z</time>
      </trkpt>
      <trkpt lat="42.94091" lon="0.31865">
        <ele>1399.55273</ele>
        <time>2024-01-12T09:38:37Z</time>
      </trkpt>
      <trkpt lat="42.9409" lon="0.31867">
        <ele>1400.12453</ele>
        <time>2024-01-12T09:38:40Z</time>
      </trkpt>
      <trkpt lat="42.94091" lon="0.31868">
        <ele>1399.93396</ele>
        <time>2024-01-12T09:38:44Z</time>
      </trkpt>
      <trkpt lat="42.94091" lon="0.31869">
        <ele>1401.1107</ele>
        <time>2024-01-12T09:38:46Z</time>
      </trkpt>
      <trkpt lat="42.94092" lon="0.3187">
        <ele>1402.19645</ele>
        <time>2024-01-12T09:38:51Z</time>
      </trkpt>
      <trkpt lat="42.94093" lon="0.31869">
        <ele>1400.9343</ele>
        <time>2024-01-12T09:38:58Z</time>
      </trkpt>
      <trkpt lat="42.94093" lon="0.31871">
        <ele>1403.14903</ele>
        <time>2024-01-12T09:39:07Z</time>
      </trkpt>
      <trkpt lat="42.94093" lon="0.31872">
        <ele>1403.57154</ele>
        <time>2024-01-12T09:39:09Z</time>
      </trkpt>
      <trkpt lat="42.94095" lon="0.31872">
        <ele>1400.69695</ele>
        <time>2024-01-12T09:39:16Z</time>
      </trkpt>
      <trkpt lat="42.94097" lon="0.31871">
        <ele>1403.58407</ele>
        <time>2024-01-12T09:39:21Z</time>
      </trkpt>
      <trkpt lat="42.94098" lon="0.3187">
        <ele>1403.83891</ele>
        <time>2024-01-12T09:39:23Z</time>
      </trkpt>
      <trkpt lat="42.94097" lon="0.31867">
        <ele>1403.77049</ele>
        <time>2024-01-12T09:39:41Z</time>
      </trkpt>
      <trkpt lat="42.94095" lon="0.31868">
        <ele>1403.0149</ele>
        <time>2024-01-12T09:39:47Z</time>
      </trkpt>
      <trkpt lat="42.94097" lon="0.31868">
        <ele>1404.50377</ele>
        <time>2024-01-12T09:39:57Z</time>
      </trkpt>
      <trkpt lat="42.94095" lon="0.31869">
        <ele>1403.18824</ele>
        <time>2024-01-12T09:40:00Z</time>
      </trkpt>
      <trkpt lat="42.94093" lon="0.31873">
        <ele>1404.24301</ele>
        <time>2024-01-12T09:40:01Z</time>
      </trkpt>
      <trkpt lat="42.9409" lon="0.31876">
        <ele>1403.49135</ele>
        <time>2024-01-12T09:40:02Z</time>
      </trkpt>
      <trkpt lat="42.94092" lon="0.31874">
        <ele>1404.81421</ele>
        <time>2024-01-12T09:40:04Z</time>
      </trkpt>
      <trkpt lat="42.94093" lon="0.31875">
        <ele>1404.02823</ele>
        <time>2024-01-12T09:40:05Z</time>
      </trkpt>
      <trkpt lat="42.94093" lon="0.31876">
        <ele>1405.481</ele>
        <time>2024-01-12T09:40:10Z</time>
      </trkpt>
      <trkpt lat="42.94093" lon="0.31877">
        <ele>1406.45738</ele>
        <time>2024-01-12T09:40:11Z</time>
      </trkpt>
      <trkpt lat="42.94095" lon="0.31877">
        <ele>1406.52532</ele>
        <time>2024-01-12T09:40:13Z</time>
      </trkpt>
      <trkpt lat="42.94096" lon="0.31878">
        <ele>1406.6166</ele>
        <time>2024-01-12T09:40:14Z</time>
      </trkpt>
      <trkpt lat="42.94097" lon="0.31879">
        <ele>1407.19144</ele>
        <time>2024-01-12T09:40:16Z</time>
      </trkpt>
      <trkpt lat="42.94097" lon="0.3188">
        <ele>1406.67096</ele>
        <time>2024-01-12T09:40:21Z</time>
      </trkpt>
      <trkpt lat="42.94098" lon="0.31882">
        <ele>1404.31383</ele>
        <time>2024-01-12T09:40:22Z</time>
      </trkpt>
      <trkpt lat="42.94098" lon="0.31883">
        <ele>1401.91029</ele>
        <time>2024-01-12T09:40:24Z</time>
      </trkpt>
      <trkpt lat="42.94098" lon="0.31885">
        <ele>1401.06808</ele>
        <time>2024-01-12T09:40:26Z</time>
      </trkpt>
      <trkpt lat="42.94099" lon="0.31883">
        <ele>1402.75223</ele>
        <time>2024-01-12T09:40:28Z</time>
      </trkpt>
      <trkpt lat="42.94099" lon="0.31886">
        <ele>1403.08409</ele>
        <time>2024-01-12T09:40:30Z</time>
      </trkpt>
      <trkpt lat="42.941" lon="0.31885">
        <ele>1404.12593</ele>
        <time>2024-01-12T09:40:34Z</time>
      </trkpt>
      <trkpt lat="42.94103" lon="0.31886">
        <ele>1404.91677</ele>
        <time>2024-01-12T09:40:36Z</time>
      </trkpt>
      <trkpt lat="42.94105" lon="0.31885">
        <ele>1409.07624</ele>
        <time>2024-01-12T09:40:39Z</time>
      </trkpt>
      <trkpt lat="42.94106" lon="0.31887">
        <ele>1409.17071</ele>
        <time>2024-01-12T09:40:40Z</time>
      </trkpt>
      <trkpt lat="42.94106" lon="0.31886">
        <ele>1407.15762</ele>
        <time>2024-01-12T09:40:42Z</time>
      </trkpt>
      <trkpt lat="42.94107" lon="0.31887">
        <ele>1406.57768</ele>
        <time>2024-01-12T09:40:44Z</time>
      </trkpt>
      <trkpt lat="42.94108" lon="0.31889">
        <ele>1407.76809</ele>
        <time>2024-01-12T09:40:46Z</time>
      </trkpt>
      <trkpt lat="42.94109" lon="0.31891">
        <ele>1412.02939</ele>
        <time>2024-01-12T09:40:48Z</time>
      </trkpt>
      <trkpt lat="42.9411" lon="0.31891">
        <ele>1416.04222</ele>
        <time>2024-01-12T09:40:50Z</time>
      </trkpt>
      <trkpt lat="42.94111" lon="0.31891">
        <ele>1415.99655</ele>
        <time>2024-01-12T09:40:52Z</time>
      </trkpt>
      <trkpt lat="42.94112" lon="0.31893">
        <ele>1411.6078</ele>
        <time>2024-01-12T09:40:54Z</time>
      </trkpt>
      <trkpt lat="42.94112" lon="0.31895">
        <ele>1414.2735</ele>
        <time>2024-01-12T09:40:58Z</time>
      </trkpt>
      <trkpt lat="42.94113" lon="0.31897">
        <ele>1415.15969</ele>
        <time>2024-01-12T09:41:00Z</time>
      </trkpt>
      <trkpt lat="42.94114" lon="0.31898">
        <ele>1415.64413</ele>
        <time>2024-01-12T09:41:03Z</time>
      </trkpt>
      <trkpt lat="42.94114" lon="0.319">
        <ele>1416.85653</ele>
        <time>2024-01-12T09:41:05Z</time>
      </trkpt>
      <trkpt lat="42.94114" lon="0.31902">
        <ele>1417.56079</ele>
        <time>2024-01-12T09:41:07Z</time>
      </trkpt>
      <trkpt lat="42.94115" lon="0.31901">
        <ele>1417.04161</ele>
        <time>2024-01-12T09:41:09Z</time>
      </trkpt>
      <trkpt lat="42.94116" lon="0.31904">
        <ele>1418.78349</ele>
        <time>2024-01-12T09:41:11Z</time>
      </trkpt>
      <trkpt lat="42.94117" lon="0.31905">
        <ele>1421.18781</ele>
        <time>2024-01-12T09:41:13Z</time>
      </trkpt>
      <trkpt lat="42.94116" lon="0.31906">
        <ele>1418.98854</ele>
        <time>2024-01-12T09:41:15Z</time>
      </trkpt>
      <trkpt lat="42.94117" lon="0.31907">
        <ele>1419.28919</ele>
        <time>2024-01-12T09:41:17Z</time>
      </trkpt>
      <trkpt lat="42.94117" lon="0.31908">
        <ele>1416.15737</ele>
        <time>2024-01-12T09:41:19Z</time>
      </trkpt>
      <trkpt lat="42.94118" lon="0.31908">
        <ele>1416.65407</ele>
        <time>2024-01-12T09:41:21Z</time>
      </trkpt>
      <trkpt lat="42.94119" lon="0.3191">
        <ele>1418.51242</ele>
        <time>2024-01-12T09:41:23Z</time>
      </trkpt>
      <trkpt lat="42.9412" lon="0.31911">
        <ele>1418.74921</ele>
        <time>2024-01-12T09:41:27Z</time>
      </trkpt>
      <trkpt lat="42.94121" lon="0.31913">
        <ele>1416.46849</ele>
        <time>2024-01-12T09:41:28Z</time>
      </trkpt>
      <trkpt lat="42.94122" lon="0.31914">
        <ele>1418.07439</ele>
        <time>2024-01-12T09:41:31Z</time>
      </trkpt>
      <trkpt lat="42.94124" lon="0.31914">
        <ele>1417.01166</ele>
        <time>2024-01-12T09:41:33Z</time>
      </trkpt>
      <trkpt lat="42.94124" lon="0.31916">
        <ele>1416.65156</ele>
        <time>2024-01-12T09:41:34Z</time>
      </trkpt>
      <trkpt lat="42.94126" lon="0.31914">
        <ele>1417.78293</ele>
        <time>2024-01-12T09:41:40Z</time>
      </trkpt>
      <trkpt lat="42.94127" lon="0.31914">
        <ele>1417.41286</ele>
        <time>2024-01-12T09:41:43Z</time>
      </trkpt>
      <trkpt lat="42.94128" lon="0.31914">
        <ele>1418.49649</ele>
        <time>2024-01-12T09:41:45Z</time>
      </trkpt>
      <trkpt lat="42.94128" lon="0.31916">
        <ele>1417.78946</ele>
        <time>2024-01-12T09:41:46Z</time>
      </trkpt>
      <trkpt lat="42.94129" lon="0.31917">
        <ele>1420.35518</ele>
        <time>2024-01-12T09:41:48Z</time>
      </trkpt>
      <trkpt lat="42.9413" lon="0.31918">
        <ele>1419.87082</ele>
        <time>2024-01-12T09:41:52Z</time>
      </trkpt>
      <trkpt lat="42.9413" lon="0.3192">
        <ele>1420.13497</ele>
        <time>2024-01-12T09:41:54Z</time>
      </trkpt>
      <trkpt lat="42.9413" lon="0.31922">
        <ele>1420.44914</ele>
        <time>2024-01-12T09:41:56Z</time>
      </trkpt>
      <trkpt lat="42.94131" lon="0.31922">
        <ele>1421.5385</ele>
        <time>2024-01-12T09:41:57Z</time>
      </trkpt>
      <trkpt lat="42.94131" lon="0.31925">
        <ele>1421.52098</ele>
        <time>2024-01-12T09:42:00Z</time>
      </trkpt>
      <trkpt lat="42.94132" lon="0.31924">
        <ele>1421.09943</ele>
        <time>2024-01-12T09:42:01Z</time>
      </trkpt>
      <trkpt lat="42.94132" lon="0.31922">
        <ele>1419.42663</ele>
        <time>2024-01-12T09:42:03Z</time>
      </trkpt>
      <trkpt lat="42.94131" lon="0.31923">
        <ele>1415.00643</ele>
        <time>2024-01-12T09:42:05Z</time>
      </trkpt>
      <trkpt lat="42.94132" lon="0.31924">
        <ele>1418.40181</ele>
        <time>2024-01-12T09:42:07Z</time>
      </trkpt>
      <trkpt lat="42.94139" lon="0.31919">
        <ele>1419.21957</ele>
        <time>2024-01-12T09:42:20Z</time>
      </trkpt>
      <trkpt lat="42.9414" lon="0.31918">
        <ele>1418.922</ele>
        <time>2024-01-12T09:42:23Z</time>
      </trkpt>
      <trkpt lat="42.94139" lon="0.31918">
        <ele>1418.17971</ele>
        <time>2024-01-12T09:42:27Z</time>
      </trkpt>
      <trkpt lat="42.94142" lon="0.31917">
        <ele>1417.5151</ele>
        <time>2024-01-12T09:42:41Z</time>
      </trkpt>
      <trkpt lat="42.94141" lon="0.31916">
        <ele>1417.31909</ele>
        <time>2024-01-12T09:42:45Z</time>
      </trkpt>
      <trkpt lat="42.94141" lon="0.31918">
        <ele>1416.60137</ele>
        <time>2024-01-12T09:42:56Z</time>
      </trkpt>
      <trkpt lat="42.94142" lon="0.3192">
        <ele>1417.42672</ele>
        <time>2024-01-12T09:42:58Z</time>
      </trkpt>
      <trkpt lat="42.94142" lon="0.31921">
        <ele>1417.52274</ele>
        <time>2024-01-12T09:42:59Z</time>
      </trkpt>
      <trkpt lat="42.94142" lon="0.31923">
        <ele>1416.18679</ele>
        <time>2024-01-12T09:43:01Z</time>
      </trkpt>
      <trkpt lat="42.94143" lon="0.31925">
        <ele>1417.62641</ele>
        <time>2024-01-12T09:43:03Z</time>
      </trkpt>
      <trkpt lat="42.94143" lon="0.31926">
        <ele>1418.91387</ele>
        <time>2024-01-12T09:43:05Z</time>
      </trkpt>
      <trkpt lat="42.94143" lon="0.31928">
        <ele>1419.29498</ele>
        <time>2024-01-12T09:43:07Z</time>
      </trkpt>
      <trkpt lat="42.94144" lon="0.3193">
        <ele>1419.96847</ele>
        <time>2024-01-12T09:43:09Z</time>
      </trkpt>
      <trkpt lat="42.94144" lon="0.31931">
        <ele>1420.06959</ele>
        <time>2024-01-12T09:43:11Z</time>
      </trkpt>
      <trkpt lat="42.94145" lon="0.31933">
        <ele>1421.47103</ele>
        <time>2024-01-12T09:43:13Z</time>
      </trkpt>
      <trkpt lat="42.94145" lon="0.31937">
        <ele>1422.1594</ele>
        <time>2024-01-12T09:43:16Z</time>
      </trkpt>
      <trkpt lat="42.94146" lon="0.31938">
        <ele>1422.08609</ele>
        <time>2024-01-12T09:43:17Z</time>
      </trkpt>
      <trkpt lat="42.94146" lon="0.3194">
        <ele>1421.4401</ele>
        <time>2024-01-12T09:43:18Z</time>
      </trkpt>
      <trkpt lat="42.94145" lon="0.31942">
        <ele>1422.80167</ele>
        <time>2024-01-12T09:43:19Z</time>
      </trkpt>
      <trkpt lat="42.94145" lon="0.31944">
        <ele>1423.04173</ele>
        <time>2024-01-12T09:43:21Z</time>
      </trkpt>
      <trkpt lat="42.94147" lon="0.31945">
        <ele>1425.86958</ele>
        <time>2024-01-12T09:43:23Z</time>
      </trkpt>
      <trkpt lat="42.94148" lon="0.31945">
        <ele>1426.13732</ele>
        <time>2024-01-12T09:43:24Z</time>
      </trkpt>
      <trkpt lat="42.94149" lon="0.31946">
        <ele>1426.86033</ele>
        <time>2024-01-12T09:43:25Z</time>
      </trkpt>
      <trkpt lat="42.9415" lon="0.31946">
        <ele>1425.75918</ele>
        <time>2024-01-12T09:43:26Z</time>
      </trkpt>
      <trkpt lat="42.94151" lon="0.31948">
        <ele>1424.87693</ele>
        <time>2024-01-12T09:43:28Z</time>
      </trkpt>
      <trkpt lat="42.94151" lon="0.3195">
        <ele>1423.82839</ele>
        <time>2024-01-12T09:43:30Z</time>
      </trkpt>
      <trkpt lat="42.9415" lon="0.31952">
        <ele>1424.364</ele>
        <time>2024-01-12T09:43:32Z</time>
      </trkpt>
      <trkpt lat="42.9415" lon="0.31953">
        <ele>1424.78973</ele>
        <time>2024-01-12T09:43:33Z</time>
      </trkpt>
      <trkpt lat="42.94151" lon="0.31954">
        <ele>1425.3465</ele>
        <time>2024-01-12T09:43:34Z</time>
      </trkpt>
      <trkpt lat="42.94152" lon="0.31955">
        <ele>1424.46981</ele>
        <time>2024-01-12T09:43:35Z</time>
      </trkpt>
      <trkpt lat="42.94152" lon="0.31957">
        <ele>1424.04935</ele>
        <time>2024-01-12T09:43:37Z</time>
      </trkpt>
      <trkpt lat="42.94153" lon="0.31958">
        <ele>1426.38084</ele>
        <time>2024-01-12T09:43:40Z</time>
      </trkpt>
      <trkpt lat="42.94153" lon="0.3196">
        <ele>1426.69996</ele>
        <time>2024-01-12T09:43:41Z</time>
      </trkpt>
      <trkpt lat="42.94153" lon="0.31962">
        <ele>1425.67823</ele>
        <time>2024-01-12T09:43:42Z</time>
      </trkpt>
      <trkpt lat="42.94153" lon="0.31964">
        <ele>1423.5567</ele>
        <time>2024-01-12T09:43:44Z</time>
      </trkpt>
      <trkpt lat="42.94153" lon="0.31966">
        <ele>1425.45932</ele>
        <time>2024-01-12T09:43:47Z</time>
      </trkpt>
      <trkpt lat="42.94153" lon="0.31967">
        <ele>1427.29648</ele>
        <time>2024-01-12T09:43:48Z</time>
      </trkpt>
      <trkpt lat="42.94153" lon="0.31968">
        <ele>1428.51604</ele>
        <time>2024-01-12T09:43:50Z</time>
      </trkpt>
      <trkpt lat="42.94154" lon="0.3197">
        <ele>1428.75005</ele>
        <time>2024-01-12T09:43:51Z</time>
      </trkpt>
      <trkpt lat="42.94154" lon="0.31972">
        <ele>1430.54097</ele>
        <time>2024-01-12T09:43:54Z</time>
      </trkpt>
      <trkpt lat="42.94153" lon="0.31974">
        <ele>1431.5934</ele>
        <time>2024-01-12T09:43:58Z</time>
      </trkpt>
      <trkpt lat="42.94154" lon="0.31975">
        <ele>1431.97173</ele>
        <time>2024-01-12T09:44:00Z</time>
      </trkpt>
      <trkpt lat="42.94153" lon="0.31977">
        <ele>1431.78809</ele>
        <time>2024-01-12T09:44:02Z</time>
      </trkpt>
      <trkpt lat="42.94153" lon="0.3198">
        <ele>1429.84483</ele>
        <time>2024-01-12T09:44:04Z</time>
      </trkpt>
      <trkpt lat="42.94154" lon="0.3198">
        <ele>1431.28668</ele>
        <time>2024-01-12T09:44:06Z</time>
      </trkpt>
      <trkpt lat="42.94155" lon="0.31981">
        <ele>1431.12654</ele>
        <time>2024-01-12T09:44:09Z</time>
      </trkpt>
      <trkpt lat="42.94155" lon="0.31983">
        <ele>1431.00678</ele>
        <time>2024-01-12T09:44:11Z</time>
      </trkpt>
      <trkpt lat="42.94155" lon="0.31984">
        <ele>1430.53047</ele>
        <time>2024-01-12T09:44:13Z</time>
      </trkpt>
      <trkpt lat="42.94156" lon="0.31985">
        <ele>1429.81215</ele>
        <time>2024-01-12T09:44:14Z</time>
      </trkpt>
      <trkpt lat="42.94156" lon="0.31987">
        <ele>1428.42063</ele>
        <time>2024-01-12T09:44:17Z</time>
      </trkpt>
      <trkpt lat="42.94156" lon="0.31989">
        <ele>1428.53928</ele>
        <time>2024-01-12T09:44:18Z</time>
      </trkpt>
      <trkpt lat="42.94157" lon="0.31989">
        <ele>1428.91615</ele>
        <time>2024-01-12T09:44:21Z</time>
      </trkpt>
      <trkpt lat="42.94159" lon="0.31992">
        <ele>1428.4572</ele>
        <time>2024-01-12T09:44:23Z</time>
      </trkpt>
      <trkpt lat="42.94159" lon="0.31992">
        <ele>1428.94394</ele>
        <time>2024-01-12T09:44:24Z</time>
      </trkpt>
      <trkpt lat="42.9416" lon="0.31993">
        <ele>1428.79113</ele>
        <time>2024-01-12T09:44:25Z</time>
      </trkpt>
      <trkpt lat="42.9416" lon="0.31995">
        <ele>1429.16687</ele>
        <time>2024-01-12T09:44:26Z</time>
      </trkpt>
      <trkpt lat="42.9416" lon="0.31996">
        <ele>1429.34141</ele>
        <time>2024-01-12T09:44:27Z</time>
      </trkpt>
      <trkpt lat="42.9416" lon="0.31999">
        <ele>1429.75935</ele>
        <time>2024-01-12T09:44:28Z</time>
      </trkpt>
      <trkpt lat="42.9416" lon="0.32">
        <ele>1432.7868</ele>
        <time>2024-01-12T09:44:30Z</time>
      </trkpt>
      <trkpt lat="42.9416" lon="0.32002">
        <ele>1432.99626</ele>
        <time>2024-01-12T09:44:31Z</time>
      </trkpt>
      <trkpt lat="42.9416" lon="0.32004">
        <ele>1431.61085</ele>
        <time>2024-01-12T09:44:34Z</time>
      </trkpt>
      <trkpt lat="42.9416" lon="0.32006">
        <ele>1432.22944</ele>
        <time>2024-01-12T09:44:35Z</time>
      </trkpt>
      <trkpt lat="42.9416" lon="0.32007">
        <ele>1431.61077</ele>
        <time>2024-01-12T09:44:38Z</time>
      </trkpt>
      <trkpt lat="42.9416" lon="0.3201">
        <ele>1431.88816</ele>
        <time>2024-01-12T09:44:40Z</time>
      </trkpt>
      <trkpt lat="42.94159" lon="0.32009">
        <ele>1430.62234</ele>
        <time>2024-01-12T09:44:41Z</time>
      </trkpt>
      <trkpt lat="42.9416" lon="0.3201">
        <ele>1433.4941</ele>
        <time>2024-01-12T09:44:43Z</time>
      </trkpt>
      <trkpt lat="42.94161" lon="0.32013">
        <ele>1432.76519</ele>
        <time>2024-01-12T09:44:45Z</time>
      </trkpt>
      <trkpt lat="42.94161" lon="0.32014">
        <ele>1431.80835</ele>
        <time>2024-01-12T09:44:47Z</time>
      </trkpt>
      <trkpt lat="42.94162" lon="0.32015">
        <ele>1431.88529</ele>
        <time>2024-01-12T09:44:49Z</time>
      </trkpt>
      <trkpt lat="42.94162" lon="0.32017">
        <ele>1432.3522</ele>
        <time>2024-01-12T09:44:50Z</time>
      </trkpt>
      <trkpt lat="42.94163" lon="0.32018">
        <ele>1432.48424</ele>
        <time>2024-01-12T09:44:51Z</time>
      </trkpt>
      <trkpt lat="42.94162" lon="0.32019">
        <ele>1433.00099</ele>
        <time>2024-01-12T09:44:52Z</time>
      </trkpt>
      <trkpt lat="42.94163" lon="0.3202">
        <ele>1434.15486</ele>
        <time>2024-01-12T09:44:54Z</time>
      </trkpt>
      <trkpt lat="42.94163" lon="0.32024">
        <ele>1434.76462</ele>
        <time>2024-01-12T09:44:57Z</time>
      </trkpt>
      <trkpt lat="42.94163" lon="0.32025">
        <ele>1436.16567</ele>
        <time>2024-01-12T09:44:58Z</time>
      </trkpt>
      <trkpt lat="42.94163" lon="0.32028">
        <ele>1436.3316</ele>
        <time>2024-01-12T09:45:00Z</time>
      </trkpt>
      <trkpt lat="42.94162" lon="0.32029">
        <ele>1436.5334</ele>
        <time>2024-01-12T09:45:02Z</time>
      </trkpt>
      <trkpt lat="42.94163" lon="0.32031">
        <ele>1439.53572</ele>
        <time>2024-01-12T09:45:03Z</time>
      </trkpt>
      <trkpt lat="42.94163" lon="0.32032">
        <ele>1439.1697</ele>
        <time>2024-01-12T09:45:05Z</time>
      </trkpt>
      <trkpt lat="42.94164" lon="0.32032">
        <ele>1437.73368</ele>
        <time>2024-01-12T09:45:07Z</time>
      </trkpt>
      <trkpt lat="42.94165" lon="0.32034">
        <ele>1437.04415</ele>
        <time>2024-01-12T09:45:09Z</time>
      </trkpt>
      <trkpt lat="42.94164" lon="0.32035">
        <ele>1437.57791</ele>
        <time>2024-01-12T09:45:13Z</time>
      </trkpt>
      <trkpt lat="42.94163" lon="0.32035">
        <ele>1437.84321</ele>
        <time>2024-01-12T09:45:16Z</time>
      </trkpt>
      <trkpt lat="42.94163" lon="0.32033">
        <ele>1437.59419</ele>
        <time>2024-01-12T09:45:18Z</time>
      </trkpt>
      <trkpt lat="42.94164" lon="0.32033">
        <ele>1437.45371</ele>
        <time>2024-01-12T09:45:19Z</time>
      </trkpt>
      <trkpt lat="42.94165" lon="0.32035">
        <ele>1438.57048</ele>
        <time>2024-01-12T09:45:21Z</time>
      </trkpt>
      <trkpt lat="42.94165" lon="0.32037">
        <ele>1438.13576</ele>
        <time>2024-01-12T09:45:22Z</time>
      </trkpt>
      <trkpt lat="42.94166" lon="0.32038">
        <ele>1438.44678</ele>
        <time>2024-01-12T09:45:24Z</time>
      </trkpt>
      <trkpt lat="42.94166" lon="0.32039">
        <ele>1438.15185</ele>
        <time>2024-01-12T09:45:25Z</time>
      </trkpt>
      <trkpt lat="42.94166" lon="0.32041">
        <ele>1439.04857</ele>
        <time>2024-01-12T09:45:26Z</time>
      </trkpt>
      <trkpt lat="42.94166" lon="0.32042">
        <ele>1436.65839</ele>
        <time>2024-01-12T09:45:27Z</time>
      </trkpt>
      <trkpt lat="42.94167" lon="0.32044">
        <ele>1438.15328</ele>
        <time>2024-01-12T09:45:29Z</time>
      </trkpt>
      <trkpt lat="42.94167" lon="0.32046">
        <ele>1439.26425</ele>
        <time>2024-01-12T09:45:31Z</time>
      </trkpt>
      <trkpt lat="42.94169" lon="0.32047">
        <ele>1439.75004</ele>
        <time>2024-01-12T09:45:32Z</time>
      </trkpt>
      <trkpt lat="42.94169" lon="0.32048">
        <ele>1439.60357</ele>
        <time>2024-01-12T09:45:33Z</time>
      </trkpt>
      <trkpt lat="42.9417" lon="0.32049">
        <ele>1440.41169</ele>
        <time>2024-01-12T09:45:34Z</time>
      </trkpt>
      <trkpt lat="42.9417" lon="0.32051">
        <ele>1439.21193</ele>
        <time>2024-01-12T09:45:36Z</time>
      </trkpt>
      <trkpt lat="42.94171" lon="0.32053">
        <ele>1439.62775</ele>
        <time>2024-01-12T09:45:37Z</time>
      </trkpt>
      <trkpt lat="42.94171" lon="0.32054">
        <ele>1439.12672</ele>
        <time>2024-01-12T09:45:38Z</time>
      </trkpt>
      <trkpt lat="42.94171" lon="0.32056">
        <ele>1437.30254</ele>
        <time>2024-01-12T09:45:40Z</time>
      </trkpt>
      <trkpt lat="42.94171" lon="0.32058">
        <ele>1437.47793</ele>
        <time>2024-01-12T09:45:41Z</time>
      </trkpt>
      <trkpt lat="42.94172" lon="0.32059">
        <ele>1434.71205</ele>
        <time>2024-01-12T09:45:44Z</time>
      </trkpt>
      <trkpt lat="42.94172" lon="0.32061">
        <ele>1433.56721</ele>
        <time>2024-01-12T09:45:45Z</time>
      </trkpt>
      <trkpt lat="42.94173" lon="0.32063">
        <ele>1434.28823</ele>
        <time>2024-01-12T09:45:47Z</time>
      </trkpt>
      <trkpt lat="42.94174" lon="0.32065">
        <ele>1434.62145</ele>
        <time>2024-01-12T09:45:48Z</time>
      </trkpt>
      <trkpt lat="42.94175" lon="0.32066">
        <ele>1435.11386</ele>
        <time>2024-01-12T09:45:49Z</time>
      </trkpt>
      <trkpt lat="42.94174" lon="0.32068">
        <ele>1432.5483</ele>
        <time>2024-01-12T09:45:51Z</time>
      </trkpt>
      <trkpt lat="42.94174" lon="0.32069">
        <ele>1430.59641</ele>
        <time>2024-01-12T09:45:52Z</time>
      </trkpt>
      <trkpt lat="42.94174" lon="0.32071">
        <ele>1431.59791</ele>
        <time>2024-01-12T09:45:53Z</time>
      </trkpt>
      <trkpt lat="42.94174" lon="0.32073">
        <ele>1433.74798</ele>
        <time>2024-01-12T09:45:55Z</time>
      </trkpt>
      <trkpt lat="42.94174" lon="0.32075">
        <ele>1434.16754</ele>
        <time>2024-01-12T09:45:56Z</time>
      </trkpt>
      <trkpt lat="42.94175" lon="0.32076">
        <ele>1435.58544</ele>
        <time>2024-01-12T09:45:58Z</time>
      </trkpt>
      <trkpt lat="42.94175" lon="0.32077">
        <ele>1435.94174</ele>
        <time>2024-01-12T09:45:59Z</time>
      </trkpt>
      <trkpt lat="42.94177" lon="0.32077">
        <ele>1436.74119</ele>
        <time>2024-01-12T09:46:00Z</time>
      </trkpt>
      <trkpt lat="42.94178" lon="0.32079">
        <ele>1435.74201</ele>
        <time>2024-01-12T09:46:01Z</time>
      </trkpt>
      <trkpt lat="42.94179" lon="0.3208">
        <ele>1437.08842</ele>
        <time>2024-01-12T09:46:02Z</time>
      </trkpt>
      <trkpt lat="42.94179" lon="0.32082">
        <ele>1437.37253</ele>
        <time>2024-01-12T09:46:03Z</time>
      </trkpt>
      <trkpt lat="42.94179" lon="0.32083">
        <ele>1437.70866</ele>
        <time>2024-01-12T09:46:04Z</time>
      </trkpt>
      <trkpt lat="42.94179" lon="0.32086">
        <ele>1437.8882</ele>
        <time>2024-01-12T09:46:06Z</time>
      </trkpt>
      <trkpt lat="42.94179" lon="0.32087">
        <ele>1437.6478</ele>
        <time>2024-01-12T09:46:07Z</time>
      </trkpt>
      <trkpt lat="42.94178" lon="0.32088">
        <ele>1437.66554</ele>
        <time>2024-01-12T09:46:08Z</time>
      </trkpt>
      <trkpt lat="42.94178" lon="0.3209">
        <ele>1437.01252</ele>
        <time>2024-01-12T09:46:09Z</time>
      </trkpt>
      <trkpt lat="42.94179" lon="0.32091">
        <ele>1438.11229</ele>
        <time>2024-01-12T09:46:10Z</time>
      </trkpt>
      <trkpt lat="42.94179" lon="0.32092">
        <ele>1438.24054</ele>
        <time>2024-01-12T09:46:11Z</time>
      </trkpt>
      <trkpt lat="42.94179" lon="0.32094">
        <ele>1436.71266</ele>
        <time>2024-01-12T09:46:13Z</time>
      </trkpt>
      <trkpt lat="42.9418" lon="0.32096">
        <ele>1436.49178</ele>
        <time>2024-01-12T09:46:14Z</time>
      </trkpt>
      <trkpt lat="42.94179" lon="0.32097">
        <ele>1435.54513</ele>
        <time>2024-01-12T09:46:15Z</time>
      </trkpt>
      <trkpt lat="42.94179" lon="0.32099">
        <ele>1437.46221</ele>
        <time>2024-01-12T09:46:16Z</time>
      </trkpt>
      <trkpt lat="42.9418" lon="0.32101">
        <ele>1438.24275</ele>
        <time>2024-01-12T09:46:18Z</time>
      </trkpt>
      <trkpt lat="42.94181" lon="0.32102">
        <ele>1440.43388</ele>
        <time>2024-01-12T09:46:19Z</time>
      </trkpt>
      <trkpt lat="42.94181" lon="0.32104">
        <ele>1439.99703</ele>
        <time>2024-01-12T09:46:20Z</time>
      </trkpt>
      <trkpt lat="42.94182" lon="0.32105">
        <ele>1439.74846</ele>
        <time>2024-01-12T09:46:21Z</time>
      </trkpt>
      <trkpt lat="42.94182" lon="0.32107">
        <ele>1438.96056</ele>
        <time>2024-01-12T09:46:22Z</time>
      </trkpt>
      <trkpt lat="42.94183" lon="0.32108">
        <ele>1438.6698</ele>
        <time>2024-01-12T09:46:23Z</time>
      </trkpt>
      <trkpt lat="42.94184" lon="0.3211">
        <ele>1439.38648</ele>
        <time>2024-01-12T09:46:24Z</time>
      </trkpt>
      <trkpt lat="42.94185" lon="0.3211">
        <ele>1438.06986</ele>
        <time>2024-01-12T09:46:25Z</time>
      </trkpt>
      <trkpt lat="42.94186" lon="0.32112">
        <ele>1439.13628</ele>
        <time>2024-01-12T09:46:27Z</time>
      </trkpt>
      <trkpt lat="42.94184" lon="0.32112">
        <ele>1439.19745</ele>
        <time>2024-01-12T09:46:28Z</time>
      </trkpt>
      <trkpt lat="42.94184" lon="0.32114">
        <ele>1438.819</ele>
        <time>2024-01-12T09:46:29Z</time>
      </trkpt>
      <trkpt lat="42.94183" lon="0.32115">
        <ele>1435.29569</ele>
        <time>2024-01-12T09:46:30Z</time>
      </trkpt>
      <trkpt lat="42.94182" lon="0.32118">
        <ele>1434.48608</ele>
        <time>2024-01-12T09:46:32Z</time>
      </trkpt>
      <trkpt lat="42.94181" lon="0.32119">
        <ele>1434.22698</ele>
        <time>2024-01-12T09:46:33Z</time>
      </trkpt>
      <trkpt lat="42.94181" lon="0.32121">
        <ele>1433.56564</ele>
        <time>2024-01-12T09:46:34Z</time>
      </trkpt>
      <trkpt lat="42.94179" lon="0.32124">
        <ele>1434.33129</ele>
        <time>2024-01-12T09:46:36Z</time>
      </trkpt>
      <trkpt lat="42.94179" lon="0.32125">
        <ele>1433.4914</ele>
        <time>2024-01-12T09:46:37Z</time>
      </trkpt>
      <trkpt lat="42.9418" lon="0.32123">
        <ele>1438.10252</ele>
        <time>2024-01-12T09:46:44Z</time>
      </trkpt>
      <trkpt lat="42.94182" lon="0.32124">
        <ele>1439.66927</ele>
        <time>2024-01-12T09:46:57Z</time>
      </trkpt>
      <trkpt lat="42.94184" lon="0.32125">
        <ele>1440.16165</ele>
        <time>2024-01-12T09:46:59Z</time>
      </trkpt>
      <trkpt lat="42.94185" lon="0.32125">
        <ele>1440.51818</ele>
        <time>2024-01-12T09:47:00Z</time>
      </trkpt>
      <trkpt lat="42.94186" lon="0.32124">
        <ele>1441.75201</ele>
        <time>2024-01-12T09:47:02Z</time>
      </trkpt>
      <trkpt lat="42.94188" lon="0.32123">
        <ele>1444.01549</ele>
        <time>2024-01-12T09:47:04Z</time>
      </trkpt>
      <trkpt lat="42.94188" lon="0.32121">
        <ele>1448.4029</ele>
        <time>2024-01-12T09:47:10Z</time>
      </trkpt>
      <trkpt lat="42.9419" lon="0.32121">
        <ele>1449.41071</ele>
        <time>2024-01-12T09:47:14Z</time>
      </trkpt>
      <trkpt lat="42.94188" lon="0.32121">
        <ele>1446.32453</ele>
        <time>2024-01-12T09:47:17Z</time>
      </trkpt>
      <trkpt lat="42.94187" lon="0.32122">
        <ele>1444.16852</ele>
        <time>2024-01-12T09:47:20Z</time>
      </trkpt>
      <trkpt lat="42.94186" lon="0.32123">
        <ele>1444.10773</ele>
        <time>2024-01-12T09:47:21Z</time>
      </trkpt>
      <trkpt lat="42.94186" lon="0.32125">
        <ele>1443.28817</ele>
        <time>2024-01-12T09:47:23Z</time>
      </trkpt>
      <trkpt lat="42.94185" lon="0.32126">
        <ele>1440.80814</ele>
        <time>2024-01-12T09:47:25Z</time>
      </trkpt>
      <trkpt lat="42.94186" lon="0.32127">
        <ele>1440.65417</ele>
        <time>2024-01-12T09:47:26Z</time>
      </trkpt>
      <trkpt lat="42.94184" lon="0.32128">
        <ele>1438.05315</ele>
        <time>2024-01-12T09:47:27Z</time>
      </trkpt>
      <trkpt lat="42.94184" lon="0.3213">
        <ele>1437.17738</ele>
        <time>2024-01-12T09:47:28Z</time>
      </trkpt>
      <trkpt lat="42.94184" lon="0.32131">
        <ele>1437.21054</ele>
        <time>2024-01-12T09:47:30Z</time>
      </trkpt>
      <trkpt lat="42.94182" lon="0.32132">
        <ele>1433.03602</ele>
        <time>2024-01-12T09:47:31Z</time>
      </trkpt>
      <trkpt lat="42.94185" lon="0.32134">
        <ele>1438.49891</ele>
        <time>2024-01-12T09:47:32Z</time>
      </trkpt>
      <trkpt lat="42.94185" lon="0.32136">
        <ele>1438.34907</ele>
        <time>2024-01-12T09:47:33Z</time>
      </trkpt>
      <trkpt lat="42.94186" lon="0.32137">
        <ele>1438.07925</ele>
        <time>2024-01-12T09:47:34Z</time>
      </trkpt>
      <trkpt lat="42.94185" lon="0.32138">
        <ele>1436.60288</ele>
        <time>2024-01-12T09:47:35Z</time>
      </trkpt>
      <trkpt lat="42.94186" lon="0.3214">
        <ele>1439.84133</ele>
        <time>2024-01-12T09:47:36Z</time>
      </trkpt>
      <trkpt lat="42.94186" lon="0.32141">
        <ele>1441.57534</ele>
        <time>2024-01-12T09:47:37Z</time>
      </trkpt>
      <trkpt lat="42.94187" lon="0.32142">
        <ele>1441.23589</ele>
        <time>2024-01-12T09:47:38Z</time>
      </trkpt>
      <trkpt lat="42.94187" lon="0.32144">
        <ele>1442.18469</ele>
        <time>2024-01-12T09:47:39Z</time>
      </trkpt>
      <trkpt lat="42.94188" lon="0.32146">
        <ele>1442.73963</ele>
        <time>2024-01-12T09:47:41Z</time>
      </trkpt>
      <trkpt lat="42.94189" lon="0.32148">
        <ele>1444.28415</ele>
        <time>2024-01-12T09:47:43Z</time>
      </trkpt>
      <trkpt lat="42.94189" lon="0.32149">
        <ele>1442.57915</ele>
        <time>2024-01-12T09:47:44Z</time>
      </trkpt>
      <trkpt lat="42.94189" lon="0.32151">
        <ele>1442.18697</ele>
        <time>2024-01-12T09:47:45Z</time>
      </trkpt>
      <trkpt lat="42.9419" lon="0.32152">
        <ele>1442.1812</ele>
        <time>2024-01-12T09:47:46Z</time>
      </trkpt>
      <trkpt lat="42.9419" lon="0.32154">
        <ele>1443.40414</ele>
        <time>2024-01-12T09:47:47Z</time>
      </trkpt>
      <trkpt lat="42.94191" lon="0.32155">
        <ele>1445.09707</ele>
        <time>2024-01-12T09:47:48Z</time>
      </trkpt>
      <trkpt lat="42.94191" lon="0.32157">
        <ele>1443.12738</ele>
        <time>2024-01-12T09:47:50Z</time>
      </trkpt>
      <trkpt lat="42.9419" lon="0.32157">
        <ele>1440.43301</ele>
        <time>2024-01-12T09:47:52Z</time>
      </trkpt>
      <trkpt lat="42.94189" lon="0.32159">
        <ele>1438.32066</ele>
        <time>2024-01-12T09:47:54Z</time>
      </trkpt>
      <trkpt lat="42.94188" lon="0.32162">
        <ele>1440.75163</ele>
        <time>2024-01-12T09:47:56Z</time>
      </trkpt>
      <trkpt lat="42.94189" lon="0.32163">
        <ele>1442.87167</ele>
        <time>2024-01-12T09:47:57Z</time>
      </trkpt>
      <trkpt lat="42.94188" lon="0.32165">
        <ele>1443.08752</ele>
        <time>2024-01-12T09:47:58Z</time>
      </trkpt>
      <trkpt lat="42.94189" lon="0.32167">
        <ele>1443.74068</ele>
        <time>2024-01-12T09:48:00Z</time>
      </trkpt>
      <trkpt lat="42.94189" lon="0.32168">
        <ele>1442.60953</ele>
        <time>2024-01-12T09:48:01Z</time>
      </trkpt>
      <trkpt lat="42.94189" lon="0.3217">
        <ele>1444.1665</ele>
        <time>2024-01-12T09:48:02Z</time>
      </trkpt>
      <trkpt lat="42.94189" lon="0.32171">
        <ele>1443.42664</ele>
        <time>2024-01-12T09:48:03Z</time>
      </trkpt>
      <trkpt lat="42.94189" lon="0.32173">
        <ele>1442.76566</ele>
        <time>2024-01-12T09:48:04Z</time>
      </trkpt>
      <trkpt lat="42.94189" lon="0.32174">
        <ele>1443.95289</ele>
        <time>2024-01-12T09:48:06Z</time>
      </trkpt>
      <trkpt lat="42.94189" lon="0.32177">
        <ele>1443.69308</ele>
        <time>2024-01-12T09:48:07Z</time>
      </trkpt>
      <trkpt lat="42.94188" lon="0.32179">
        <ele>1442.67134</ele>
        <time>2024-01-12T09:48:09Z</time>
      </trkpt>
      <trkpt lat="42.94188" lon="0.32181">
        <ele>1443.02723</ele>
        <time>2024-01-12T09:48:11Z</time>
      </trkpt>
      <trkpt lat="42.94188" lon="0.32183">
        <ele>1444.64954</ele>
        <time>2024-01-12T09:48:13Z</time>
      </trkpt>
      <trkpt lat="42.94188" lon="0.32185">
        <ele>1447.62123</ele>
        <time>2024-01-12T09:48:14Z</time>
      </trkpt>
      <trkpt lat="42.94189" lon="0.32186">
        <ele>1447.47158</ele>
        <time>2024-01-12T09:48:16Z</time>
      </trkpt>
      <trkpt lat="42.94189" lon="0.32188">
        <ele>1446.45226</ele>
        <time>2024-01-12T09:48:17Z</time>
      </trkpt>
      <trkpt lat="42.94188" lon="0.32188">
        <ele>1446.74713</ele>
        <time>2024-01-12T09:48:18Z</time>
      </trkpt>
      <trkpt lat="42.94189" lon="0.32189">
        <ele>1446.86094</ele>
        <time>2024-01-12T09:48:19Z</time>
      </trkpt>
      <trkpt lat="42.94189" lon="0.32191">
        <ele>1448.13965</ele>
        <time>2024-01-12T09:48:20Z</time>
      </trkpt>
      <trkpt lat="42.9419" lon="0.32192">
        <ele>1448.06089</ele>
        <time>2024-01-12T09:48:21Z</time>
      </trkpt>
      <trkpt lat="42.9419" lon="0.32194">
        <ele>1447.48595</ele>
        <time>2024-01-12T09:48:22Z</time>
      </trkpt>
      <trkpt lat="42.94191" lon="0.32195">
        <ele>1448.81969</ele>
        <time>2024-01-12T09:48:23Z</time>
      </trkpt>
      <trkpt lat="42.9419" lon="0.32197">
        <ele>1447.06424</ele>
        <time>2024-01-12T09:48:25Z</time>
      </trkpt>
      <trkpt lat="42.94189" lon="0.32197">
        <ele>1446.61594</ele>
        <time>2024-01-12T09:48:26Z</time>
      </trkpt>
      <trkpt lat="42.94189" lon="0.322">
        <ele>1448.25724</ele>
        <time>2024-01-12T09:48:28Z</time>
      </trkpt>
      <trkpt lat="42.9419" lon="0.32202">
        <ele>1448.72941</ele>
        <time>2024-01-12T09:48:29Z</time>
      </trkpt>
      <trkpt lat="42.9419" lon="0.32204">
        <ele>1446.58912</ele>
        <time>2024-01-12T09:48:32Z</time>
      </trkpt>
      <trkpt lat="42.9419" lon="0.32205">
        <ele>1447.13285</ele>
        <time>2024-01-12T09:48:34Z</time>
      </trkpt>
      <trkpt lat="42.94191" lon="0.32207">
        <ele>1446.26074</ele>
        <time>2024-01-12T09:48:35Z</time>
      </trkpt>
      <trkpt lat="42.9419" lon="0.32208">
        <ele>1445.00849</ele>
        <time>2024-01-12T09:48:36Z</time>
      </trkpt>
      <trkpt lat="42.94191" lon="0.32209">
        <ele>1448.09502</ele>
        <time>2024-01-12T09:48:38Z</time>
      </trkpt>
      <trkpt lat="42.94191" lon="0.32211">
        <ele>1447.95834</ele>
        <time>2024-01-12T09:48:40Z</time>
      </trkpt>
      <trkpt lat="42.9419" lon="0.32211">
        <ele>1443.39285</ele>
        <time>2024-01-12T09:48:44Z</time>
      </trkpt>
      <trkpt lat="42.94189" lon="0.32215">
        <ele>1441.71594</ele>
        <time>2024-01-12T09:48:48Z</time>
      </trkpt>
      <trkpt lat="42.94191" lon="0.32215">
        <ele>1442.05373</ele>
        <time>2024-01-12T09:48:49Z</time>
      </trkpt>
      <trkpt lat="42.94191" lon="0.32217">
        <ele>1444.98954</ele>
        <time>2024-01-12T09:48:53Z</time>
      </trkpt>
      <trkpt lat="42.94192" lon="0.32218">
        <ele>1448.15131</ele>
        <time>2024-01-12T09:48:54Z</time>
      </trkpt>
      <trkpt lat="42.94192" lon="0.3222">
        <ele>1448.51055</ele>
        <time>2024-01-12T09:48:56Z</time>
      </trkpt>
      <trkpt lat="42.94192" lon="0.32222">
        <ele>1446.18762</ele>
        <time>2024-01-12T09:48:58Z</time>
      </trkpt>
      <trkpt lat="42.94191" lon="0.32223">
        <ele>1445.62989</ele>
        <time>2024-01-12T09:48:59Z</time>
      </trkpt>
      <trkpt lat="42.94189" lon="0.32224">
        <ele>1445.64367</ele>
        <time>2024-01-12T09:49:00Z</time>
      </trkpt>
      <trkpt lat="42.94188" lon="0.32225">
        <ele>1446.5908</ele>
        <time>2024-01-12T09:49:01Z</time>
      </trkpt>
      <trkpt lat="42.94189" lon="0.32227">
        <ele>1447.13035</ele>
        <time>2024-01-12T09:49:02Z</time>
      </trkpt>
      <trkpt lat="42.94189" lon="0.32228">
        <ele>1447.58624</ele>
        <time>2024-01-12T09:49:03Z</time>
      </trkpt>
      <trkpt lat="42.94189" lon="0.32231">
        <ele>1447.41218</ele>
        <time>2024-01-12T09:49:04Z</time>
      </trkpt>
      <trkpt lat="42.94191" lon="0.32233">
        <ele>1451.47636</ele>
        <time>2024-01-12T09:49:06Z</time>
      </trkpt>
      <trkpt lat="42.94191" lon="0.32235">
        <ele>1453.8619</ele>
        <time>2024-01-12T09:49:07Z</time>
      </trkpt>
      <trkpt lat="42.94192" lon="0.32238">
        <ele>1453.47692</ele>
        <time>2024-01-12T09:49:09Z</time>
      </trkpt>
      <trkpt lat="42.94193" lon="0.3224">
        <ele>1453.52208</ele>
        <time>2024-01-12T09:49:10Z</time>
      </trkpt>
      <trkpt lat="42.94194" lon="0.32242">
        <ele>1456.56607</ele>
        <time>2024-01-12T09:49:11Z</time>
      </trkpt>
      <trkpt lat="42.94195" lon="0.32243">
        <ele>1455.73795</ele>
        <time>2024-01-12T09:49:12Z</time>
      </trkpt>
      <trkpt lat="42.94194" lon="0.32243">
        <ele>1453.7215</ele>
        <time>2024-01-12T09:49:13Z</time>
      </trkpt>
      <trkpt lat="42.94195" lon="0.32245">
        <ele>1453.69441</ele>
        <time>2024-01-12T09:49:14Z</time>
      </trkpt>
      <trkpt lat="42.94196" lon="0.32247">
        <ele>1452.21715</ele>
        <time>2024-01-12T09:49:16Z</time>
      </trkpt>
      <trkpt lat="42.94196" lon="0.32249">
        <ele>1449.61522</ele>
        <time>2024-01-12T09:49:17Z</time>
      </trkpt>
      <trkpt lat="42.94196" lon="0.32251">
        <ele>1448.0146</ele>
        <time>2024-01-12T09:49:20Z</time>
      </trkpt>
      <trkpt lat="42.94196" lon="0.32253">
        <ele>1447.90046</ele>
        <time>2024-01-12T09:49:22Z</time>
      </trkpt>
      <trkpt lat="42.94196" lon="0.32254">
        <ele>1448.05399</ele>
        <time>2024-01-12T09:49:23Z</time>
      </trkpt>
      <trkpt lat="42.94196" lon="0.32256">
        <ele>1448.7287</ele>
        <time>2024-01-12T09:49:24Z</time>
      </trkpt>
      <trkpt lat="42.94197" lon="0.32257">
        <ele>1449.13586</ele>
        <time>2024-01-12T09:49:25Z</time>
      </trkpt>
      <trkpt lat="42.94196" lon="0.32258">
        <ele>1449.41133</ele>
        <time>2024-01-12T09:49:26Z</time>
      </trkpt>
      <trkpt lat="42.94197" lon="0.32261">
        <ele>1450.99343</ele>
        <time>2024-01-12T09:49:27Z</time>
      </trkpt>
      <trkpt lat="42.94197" lon="0.32263">
        <ele>1449.6544</ele>
        <time>2024-01-12T09:49:28Z</time>
      </trkpt>
      <trkpt lat="42.94196" lon="0.32264">
        <ele>1448.34277</ele>
        <time>2024-01-12T09:49:29Z</time>
      </trkpt>
      <trkpt lat="42.94195" lon="0.32266">
        <ele>1447.78619</ele>
        <time>2024-01-12T09:49:31Z</time>
      </trkpt>
      <trkpt lat="42.94194" lon="0.32268">
        <ele>1446.98288</ele>
        <time>2024-01-12T09:49:32Z</time>
      </trkpt>
      <trkpt lat="42.94195" lon="0.32269">
        <ele>1447.97527</ele>
        <time>2024-01-12T09:49:33Z</time>
      </trkpt>
      <trkpt lat="42.94196" lon="0.3227">
        <ele>1448.11295</ele>
        <time>2024-01-12T09:49:34Z</time>
      </trkpt>
      <trkpt lat="42.94195" lon="0.3227">
        <ele>1445.51494</ele>
        <time>2024-01-12T09:49:35Z</time>
      </trkpt>
      <trkpt lat="42.94196" lon="0.32271">
        <ele>1448.18159</ele>
        <time>2024-01-12T09:49:36Z</time>
      </trkpt>
      <trkpt lat="42.94196" lon="0.32273">
        <ele>1446.44125</ele>
        <time>2024-01-12T09:49:38Z</time>
      </trkpt>
      <trkpt lat="42.94196" lon="0.32274">
        <ele>1445.1834</ele>
        <time>2024-01-12T09:49:39Z</time>
      </trkpt>
      <trkpt lat="42.94195" lon="0.32276">
        <ele>1444.05854</ele>
        <time>2024-01-12T09:49:41Z</time>
      </trkpt>
      <trkpt lat="42.94196" lon="0.32277">
        <ele>1441.12755</ele>
        <time>2024-01-12T09:49:42Z</time>
      </trkpt>
      <trkpt lat="42.94197" lon="0.32277">
        <ele>1442.723</ele>
        <time>2024-01-12T09:49:43Z</time>
      </trkpt>
      <trkpt lat="42.94198" lon="0.3228">
        <ele>1441.26159</ele>
        <time>2024-01-12T09:49:46Z</time>
      </trkpt>
      <trkpt lat="42.94198" lon="0.32281">
        <ele>1441.15601</ele>
        <time>2024-01-12T09:49:47Z</time>
      </trkpt>
      <trkpt lat="42.94199" lon="0.32283">
        <ele>1444.04314</ele>
        <time>2024-01-12T09:49:48Z</time>
      </trkpt>
      <trkpt lat="42.94199" lon="0.32285">
        <ele>1444.41214</ele>
        <time>2024-01-12T09:49:49Z</time>
      </trkpt>
      <trkpt lat="42.942" lon="0.32287">
        <ele>1444.93981</ele>
        <time>2024-01-12T09:49:50Z</time>
      </trkpt>
      <trkpt lat="42.94199" lon="0.32288">
        <ele>1443.51989</ele>
        <time>2024-01-12T09:49:51Z</time>
      </trkpt>
      <trkpt lat="42.942" lon="0.32289">
        <ele>1447.06428</ele>
        <time>2024-01-12T09:49:52Z</time>
      </trkpt>
      <trkpt lat="42.942" lon="0.32291">
        <ele>1448.1583</ele>
        <time>2024-01-12T09:49:53Z</time>
      </trkpt>
      <trkpt lat="42.942" lon="0.32293">
        <ele>1448.11691</ele>
        <time>2024-01-12T09:49:54Z</time>
      </trkpt>
      <trkpt lat="42.94199" lon="0.32293">
        <ele>1445.78094</ele>
        <time>2024-01-12T09:49:55Z</time>
      </trkpt>
      <trkpt lat="42.94199" lon="0.32295">
        <ele>1445.41349</ele>
        <time>2024-01-12T09:49:56Z</time>
      </trkpt>
      <trkpt lat="42.94198" lon="0.32297">
        <ele>1444.49548</ele>
        <time>2024-01-12T09:49:57Z</time>
      </trkpt>
      <trkpt lat="42.94197" lon="0.32298">
        <ele>1443.67913</ele>
        <time>2024-01-12T09:49:58Z</time>
      </trkpt>
      <trkpt lat="42.94197" lon="0.32299">
        <ele>1443.85065</ele>
        <time>2024-01-12T09:49:59Z</time>
      </trkpt>
      <trkpt lat="42.94198" lon="0.323">
        <ele>1446.35906</ele>
        <time>2024-01-12T09:50:01Z</time>
      </trkpt>
      <trkpt lat="42.94198" lon="0.32302">
        <ele>1447.69192</ele>
        <time>2024-01-12T09:50:02Z</time>
      </trkpt>
      <trkpt lat="42.94199" lon="0.32303">
        <ele>1447.59341</ele>
        <time>2024-01-12T09:50:04Z</time>
      </trkpt>
      <trkpt lat="42.94199" lon="0.32304">
        <ele>1447.89956</ele>
        <time>2024-01-12T09:50:05Z</time>
      </trkpt>
      <trkpt lat="42.942" lon="0.32306">
        <ele>1449.02731</ele>
        <time>2024-01-12T09:50:08Z</time>
      </trkpt>
      <trkpt lat="42.942" lon="0.32307">
        <ele>1449.90313</ele>
        <time>2024-01-12T09:50:09Z</time>
      </trkpt>
      <trkpt lat="42.94201" lon="0.3231">
        <ele>1452.29318</ele>
        <time>2024-01-12T09:50:12Z</time>
      </trkpt>
      <trkpt lat="42.94201" lon="0.32311">
        <ele>1453.36774</ele>
        <time>2024-01-12T09:50:13Z</time>
      </trkpt>
      <trkpt lat="42.94202" lon="0.32312">
        <ele>1453.4284</ele>
        <time>2024-01-12T09:50:17Z</time>
      </trkpt>
      <trkpt lat="42.94203" lon="0.32313">
        <ele>1453.71486</ele>
        <time>2024-01-12T09:50:18Z</time>
      </trkpt>
      <trkpt lat="42.94202" lon="0.32314">
        <ele>1455.26354</ele>
        <time>2024-01-12T09:50:20Z</time>
      </trkpt>
      <trkpt lat="42.94204" lon="0.32316">
        <ele>1456.78428</ele>
        <time>2024-01-12T09:50:21Z</time>
      </trkpt>
      <trkpt lat="42.94202" lon="0.32317">
        <ele>1455.32052</ele>
        <time>2024-01-12T09:50:23Z</time>
      </trkpt>
      <trkpt lat="42.94202" lon="0.32319">
        <ele>1454.96233</ele>
        <time>2024-01-12T09:50:25Z</time>
      </trkpt>
      <trkpt lat="42.94204" lon="0.3232">
        <ele>1456.59673</ele>
        <time>2024-01-12T09:50:26Z</time>
      </trkpt>
      <trkpt lat="42.94204" lon="0.32322">
        <ele>1455.86468</ele>
        <time>2024-01-12T09:50:29Z</time>
      </trkpt>
      <trkpt lat="42.94205" lon="0.32322">
        <ele>1456.45612</ele>
        <time>2024-01-12T09:50:30Z</time>
      </trkpt>
      <trkpt lat="42.94206" lon="0.32324">
        <ele>1458.65053</ele>
        <time>2024-01-12T09:50:32Z</time>
      </trkpt>
      <trkpt lat="42.94205" lon="0.32325">
        <ele>1457.62137</ele>
        <time>2024-01-12T09:50:33Z</time>
      </trkpt>
      <trkpt lat="42.94204" lon="0.32326">
        <ele>1456.29658</ele>
        <time>2024-01-12T09:50:34Z</time>
      </trkpt>
      <trkpt lat="42.94204" lon="0.32328">
        <ele>1458.58172</ele>
        <time>2024-01-12T09:50:36Z</time>
      </trkpt>
      <trkpt lat="42.94203" lon="0.32329">
        <ele>1458.15655</ele>
        <time>2024-01-12T09:50:37Z</time>
      </trkpt>
      <trkpt lat="42.94201" lon="0.3233">
        <ele>1455.339</ele>
        <time>2024-01-12T09:50:38Z</time>
      </trkpt>
      <trkpt lat="42.94201" lon="0.32332">
        <ele>1453.57843</ele>
        <time>2024-01-12T09:50:40Z</time>
      </trkpt>
      <trkpt lat="42.94201" lon="0.32334">
        <ele>1452.49677</ele>
        <time>2024-01-12T09:50:41Z</time>
      </trkpt>
      <trkpt lat="42.94201" lon="0.32336">
        <ele>1453.00064</ele>
        <time>2024-01-12T09:50:43Z</time>
      </trkpt>
      <trkpt lat="42.94201" lon="0.32337">
        <ele>1453.39063</ele>
        <time>2024-01-12T09:50:44Z</time>
      </trkpt>
      <trkpt lat="42.94201" lon="0.32338">
        <ele>1452.54019</ele>
        <time>2024-01-12T09:50:45Z</time>
      </trkpt>
      <trkpt lat="42.94201" lon="0.3234">
        <ele>1451.52865</ele>
        <time>2024-01-12T09:50:47Z</time>
      </trkpt>
      <trkpt lat="42.94201" lon="0.32341">
        <ele>1452.87593</ele>
        <time>2024-01-12T09:50:49Z</time>
      </trkpt>
      <trkpt lat="42.94201" lon="0.32343">
        <ele>1453.92375</ele>
        <time>2024-01-12T09:50:50Z</time>
      </trkpt>
      <trkpt lat="42.94203" lon="0.32344">
        <ele>1454.06593</ele>
        <time>2024-01-12T09:50:51Z</time>
      </trkpt>
      <trkpt lat="42.94204" lon="0.32348">
        <ele>1454.01029</ele>
        <time>2024-01-12T09:50:53Z</time>
      </trkpt>
      <trkpt lat="42.94205" lon="0.32349">
        <ele>1453.92628</ele>
        <time>2024-01-12T09:50:54Z</time>
      </trkpt>
      <trkpt lat="42.94205" lon="0.3235">
        <ele>1452.49299</ele>
        <time>2024-01-12T09:50:57Z</time>
      </trkpt>
      <trkpt lat="42.94205" lon="0.32351">
        <ele>1453.56879</ele>
        <time>2024-01-12T09:50:58Z</time>
      </trkpt>
      <trkpt lat="42.94205" lon="0.32353">
        <ele>1453.25004</ele>
        <time>2024-01-12T09:51:00Z</time>
      </trkpt>
      <trkpt lat="42.94205" lon="0.32355">
        <ele>1453.54665</ele>
        <time>2024-01-12T09:51:02Z</time>
      </trkpt>
      <trkpt lat="42.94204" lon="0.32357">
        <ele>1452.67951</ele>
        <time>2024-01-12T09:51:04Z</time>
      </trkpt>
      <trkpt lat="42.94205" lon="0.32359">
        <ele>1453.52804</ele>
        <time>2024-01-12T09:51:06Z</time>
      </trkpt>
      <trkpt lat="42.94205" lon="0.32361">
        <ele>1454.02806</ele>
        <time>2024-01-12T09:51:09Z</time>
      </trkpt>
      <trkpt lat="42.94206" lon="0.32363">
        <ele>1453.5986</ele>
        <time>2024-01-12T09:51:11Z</time>
      </trkpt>
      <trkpt lat="42.94206" lon="0.32365">
        <ele>1452.65989</ele>
        <time>2024-01-12T09:51:12Z</time>
      </trkpt>
      <trkpt lat="42.94206" lon="0.32366">
        <ele>1453.00202</ele>
        <time>2024-01-12T09:51:13Z</time>
      </trkpt>
      <trkpt lat="42.94207" lon="0.32367">
        <ele>1454.24503</ele>
        <time>2024-01-12T09:51:16Z</time>
      </trkpt>
      <trkpt lat="42.94208" lon="0.32368">
        <ele>1451.9198</ele>
        <time>2024-01-12T09:51:18Z</time>
      </trkpt>
      <trkpt lat="42.94208" lon="0.32369">
        <ele>1451.47308</ele>
        <time>2024-01-12T09:51:19Z</time>
      </trkpt>
      <trkpt lat="42.94208" lon="0.3237">
        <ele>1451.7281</ele>
        <time>2024-01-12T09:51:20Z</time>
      </trkpt>
      <trkpt lat="42.94209" lon="0.32371">
        <ele>1452.0371</ele>
        <time>2024-01-12T09:51:21Z</time>
      </trkpt>
      <trkpt lat="42.94209" lon="0.32374">
        <ele>1452.08931</ele>
        <time>2024-01-12T09:51:23Z</time>
      </trkpt>
      <trkpt lat="42.94209" lon="0.32375">
        <ele>1450.08552</ele>
        <time>2024-01-12T09:51:25Z</time>
      </trkpt>
      <trkpt lat="42.94211" lon="0.32376">
        <ele>1452.11532</ele>
        <time>2024-01-12T09:51:26Z</time>
      </trkpt>
      <trkpt lat="42.94211" lon="0.32378">
        <ele>1452.56914</ele>
        <time>2024-01-12T09:51:27Z</time>
      </trkpt>
      <trkpt lat="42.9421" lon="0.32379">
        <ele>1451.4351</ele>
        <time>2024-01-12T09:51:29Z</time>
      </trkpt>
      <trkpt lat="42.9421" lon="0.32381">
        <ele>1451.51555</ele>
        <time>2024-01-12T09:51:31Z</time>
      </trkpt>
      <trkpt lat="42.9421" lon="0.32383">
        <ele>1451.06758</ele>
        <time>2024-01-12T09:51:33Z</time>
      </trkpt>
      <trkpt lat="42.94211" lon="0.32385">
        <ele>1452.06842</ele>
        <time>2024-01-12T09:51:34Z</time>
      </trkpt>
      <trkpt lat="42.94212" lon="0.32386">
        <ele>1452.65131</ele>
        <time>2024-01-12T09:51:36Z</time>
      </trkpt>
      <trkpt lat="42.94211" lon="0.32387">
        <ele>1450.83</ele>
        <time>2024-01-12T09:51:38Z</time>
      </trkpt>
      <trkpt lat="42.94212" lon="0.32389">
        <ele>1450.80508</ele>
        <time>2024-01-12T09:51:39Z</time>
      </trkpt>
      <trkpt lat="42.94212" lon="0.32391">
        <ele>1452.15845</ele>
        <time>2024-01-12T09:51:41Z</time>
      </trkpt>
      <trkpt lat="42.94212" lon="0.32392">
        <ele>1452.82636</ele>
        <time>2024-01-12T09:51:43Z</time>
      </trkpt>
      <trkpt lat="42.94211" lon="0.32394">
        <ele>1450.80474</ele>
        <time>2024-01-12T09:51:45Z</time>
      </trkpt>
      <trkpt lat="42.94212" lon="0.32395">
        <ele>1451.4476</ele>
        <time>2024-01-12T09:51:46Z</time>
      </trkpt>
      <trkpt lat="42.94213" lon="0.32397">
        <ele>1452.30027</ele>
        <time>2024-01-12T09:51:48Z</time>
      </trkpt>
      <trkpt lat="42.94213" lon="0.32398">
        <ele>1451.13803</ele>
        <time>2024-01-12T09:51:51Z</time>
      </trkpt>
      <trkpt lat="42.94213" lon="0.324">
        <ele>1452.52774</ele>
        <time>2024-01-12T09:51:52Z</time>
      </trkpt>
      <trkpt lat="42.94213" lon="0.32401">
        <ele>1452.57731</ele>
        <time>2024-01-12T09:51:53Z</time>
      </trkpt>
      <trkpt lat="42.94213" lon="0.32403">
        <ele>1452.57648</ele>
        <time>2024-01-12T09:51:55Z</time>
      </trkpt>
      <trkpt lat="42.94213" lon="0.32405">
        <ele>1452.25834</ele>
        <time>2024-01-12T09:51:58Z</time>
      </trkpt>
      <trkpt lat="42.94213" lon="0.32408">
        <ele>1452.84994</ele>
        <time>2024-01-12T09:52:00Z</time>
      </trkpt>
      <trkpt lat="42.94212" lon="0.32409">
        <ele>1451.88439</ele>
        <time>2024-01-12T09:52:03Z</time>
      </trkpt>
      <trkpt lat="42.94212" lon="0.32411">
        <ele>1452.58858</ele>
        <time>2024-01-12T09:52:04Z</time>
      </trkpt>
      <trkpt lat="42.94212" lon="0.32413">
        <ele>1454.91116</ele>
        <time>2024-01-12T09:52:06Z</time>
      </trkpt>
      <trkpt lat="42.94212" lon="0.32415">
        <ele>1454.54722</ele>
        <time>2024-01-12T09:52:08Z</time>
      </trkpt>
      <trkpt lat="42.94211" lon="0.32416">
        <ele>1455.17366</ele>
        <time>2024-01-12T09:52:09Z</time>
      </trkpt>
      <trkpt lat="42.94211" lon="0.32418">
        <ele>1452.72045</ele>
        <time>2024-01-12T09:52:12Z</time>
      </trkpt>
      <trkpt lat="42.94211" lon="0.32421">
        <ele>1453.63645</ele>
        <time>2024-01-12T09:52:14Z</time>
      </trkpt>
      <trkpt lat="42.94211" lon="0.32422">
        <ele>1454.67342</ele>
        <time>2024-01-12T09:52:15Z</time>
      </trkpt>
      <trkpt lat="42.94211" lon="0.32424">
        <ele>1455.43422</ele>
        <time>2024-01-12T09:52:16Z</time>
      </trkpt>
      <trkpt lat="42.94212" lon="0.32425">
        <ele>1454.43312</ele>
        <time>2024-01-12T09:52:21Z</time>
      </trkpt>
      <trkpt lat="42.94211" lon="0.32427">
        <ele>1455.79613</ele>
        <time>2024-01-12T09:52:22Z</time>
      </trkpt>
      <trkpt lat="42.94212" lon="0.32428">
        <ele>1456.05121</ele>
        <time>2024-01-12T09:52:23Z</time>
      </trkpt>
      <trkpt lat="42.94213" lon="0.32431">
        <ele>1457.9861</ele>
        <time>2024-01-12T09:52:26Z</time>
      </trkpt>
      <trkpt lat="42.94214" lon="0.32432">
        <ele>1456.55626</ele>
        <time>2024-01-12T09:52:30Z</time>
      </trkpt>
      <trkpt lat="42.94214" lon="0.32433">
        <ele>1456.37332</ele>
        <time>2024-01-12T09:52:32Z</time>
      </trkpt>
      <trkpt lat="42.94215" lon="0.32436">
        <ele>1456.17182</ele>
        <time>2024-01-12T09:52:34Z</time>
      </trkpt>
      <trkpt lat="42.94215" lon="0.32438">
        <ele>1457.07158</ele>
        <time>2024-01-12T09:52:36Z</time>
      </trkpt>
      <trkpt lat="42.94215" lon="0.32439">
        <ele>1457.78409</ele>
        <time>2024-01-12T09:52:38Z</time>
      </trkpt>
      <trkpt lat="42.94215" lon="0.32442">
        <ele>1458.74973</ele>
        <time>2024-01-12T09:52:40Z</time>
      </trkpt>
      <trkpt lat="42.94216" lon="0.32443">
        <ele>1460.03833</ele>
        <time>2024-01-12T09:52:43Z</time>
      </trkpt>
      <trkpt lat="42.94216" lon="0.32445">
        <ele>1459.55608</ele>
        <time>2024-01-12T09:52:46Z</time>
      </trkpt>
      <trkpt lat="42.94216" lon="0.32448">
        <ele>1459.69587</ele>
        <time>2024-01-12T09:52:48Z</time>
      </trkpt>
      <trkpt lat="42.94216" lon="0.3245">
        <ele>1459.73789</ele>
        <time>2024-01-12T09:52:50Z</time>
      </trkpt>
      <trkpt lat="42.94216" lon="0.32451">
        <ele>1459.99532</ele>
        <time>2024-01-12T09:52:52Z</time>
      </trkpt>
      <trkpt lat="42.94215" lon="0.32452">
        <ele>1459.4613</ele>
        <time>2024-01-12T09:52:53Z</time>
      </trkpt>
      <trkpt lat="42.94215" lon="0.32454">
        <ele>1459.79677</ele>
        <time>2024-01-12T09:52:54Z</time>
      </trkpt>
      <trkpt lat="42.94216" lon="0.32456">
        <ele>1457.9791</ele>
        <time>2024-01-12T09:52:57Z</time>
      </trkpt>
      <trkpt lat="42.94217" lon="0.32458">
        <ele>1458.69184</ele>
        <time>2024-01-12T09:53:00Z</time>
      </trkpt>
      <trkpt lat="42.94217" lon="0.32459">
        <ele>1457.9842</ele>
        <time>2024-01-12T09:53:03Z</time>
      </trkpt>
      <trkpt lat="42.94217" lon="0.3246">
        <ele>1458.00285</ele>
        <time>2024-01-12T09:53:04Z</time>
      </trkpt>
      <trkpt lat="42.94218" lon="0.32461">
        <ele>1458.75102</ele>
        <time>2024-01-12T09:53:06Z</time>
      </trkpt>
      <trkpt lat="42.94218" lon="0.32463">
        <ele>1458.5993</ele>
        <time>2024-01-12T09:53:09Z</time>
      </trkpt>
      <trkpt lat="42.94218" lon="0.32464">
        <ele>1458.10378</ele>
        <time>2024-01-12T09:53:11Z</time>
      </trkpt>
      <trkpt lat="42.94218" lon="0.32466">
        <ele>1457.83491</ele>
        <time>2024-01-12T09:53:12Z</time>
      </trkpt>
      <trkpt lat="42.94218" lon="0.32467">
        <ele>1458.15031</ele>
        <time>2024-01-12T09:53:14Z</time>
      </trkpt>
      <trkpt lat="42.94218" lon="0.32469">
        <ele>1458.856</ele>
        <time>2024-01-12T09:53:16Z</time>
      </trkpt>
      <trkpt lat="42.94219" lon="0.32471">
        <ele>1459.3158</ele>
        <time>2024-01-12T09:53:18Z</time>
      </trkpt>
      <trkpt lat="42.94219" lon="0.32472">
        <ele>1459.41957</ele>
        <time>2024-01-12T09:53:20Z</time>
      </trkpt>
      <trkpt lat="42.94219" lon="0.32474">
        <ele>1458.65365</ele>
        <time>2024-01-12T09:53:22Z</time>
      </trkpt>
      <trkpt lat="42.94219" lon="0.32475">
        <ele>1459.26167</ele>
        <time>2024-01-12T09:53:23Z</time>
      </trkpt>
      <trkpt lat="42.94219" lon="0.32477">
        <ele>1459.98062</ele>
        <time>2024-01-12T09:53:24Z</time>
      </trkpt>
      <trkpt lat="42.94218" lon="0.32478">
        <ele>1460.36685</ele>
        <time>2024-01-12T09:53:25Z</time>
      </trkpt>
      <trkpt lat="42.94219" lon="0.32479">
        <ele>1460.65641</ele>
        <time>2024-01-12T09:53:27Z</time>
      </trkpt>
      <trkpt lat="42.9422" lon="0.32481">
        <ele>1461.68406</ele>
        <time>2024-01-12T09:53:29Z</time>
      </trkpt>
      <trkpt lat="42.9422" lon="0.32482">
        <ele>1461.68841</ele>
        <time>2024-01-12T09:53:31Z</time>
      </trkpt>
      <trkpt lat="42.9422" lon="0.32484">
        <ele>1460.40561</ele>
        <time>2024-01-12T09:53:34Z</time>
      </trkpt>
      <trkpt lat="42.9422" lon="0.32486">
        <ele>1460.99004</ele>
        <time>2024-01-12T09:53:36Z</time>
      </trkpt>
      <trkpt lat="42.94221" lon="0.32487">
        <ele>1461.57768</ele>
        <time>2024-01-12T09:53:37Z</time>
      </trkpt>
      <trkpt lat="42.9422" lon="0.32489">
        <ele>1460.81411</ele>
        <time>2024-01-12T09:53:38Z</time>
      </trkpt>
      <trkpt lat="42.94221" lon="0.32491">
        <ele>1462.61684</ele>
        <time>2024-01-12T09:53:40Z</time>
      </trkpt>
      <trkpt lat="42.94221" lon="0.32493">
        <ele>1462.51131</ele>
        <time>2024-01-12T09:53:42Z</time>
      </trkpt>
      <trkpt lat="42.94222" lon="0.32494">
        <ele>1463.505</ele>
        <time>2024-01-12T09:53:44Z</time>
      </trkpt>
      <trkpt lat="42.94222" lon="0.32495">
        <ele>1463.09626</ele>
        <time>2024-01-12T09:53:46Z</time>
      </trkpt>
      <trkpt lat="42.94222" lon="0.32497">
        <ele>1463.69474</ele>
        <time>2024-01-12T09:53:48Z</time>
      </trkpt>
      <trkpt lat="42.94222" lon="0.32499">
        <ele>1462.80923</ele>
        <time>2024-01-12T09:53:49Z</time>
      </trkpt>
      <trkpt lat="42.94222" lon="0.325">
        <ele>1463.17948</ele>
        <time>2024-01-12T09:53:51Z</time>
      </trkpt>
      <trkpt lat="42.94223" lon="0.32501">
        <ele>1463.41086</ele>
        <time>2024-01-12T09:53:52Z</time>
      </trkpt>
      <trkpt lat="42.94222" lon="0.32502">
        <ele>1463.11918</ele>
        <time>2024-01-12T09:53:58Z</time>
      </trkpt>
      <trkpt lat="42.94221" lon="0.32503">
        <ele>1464.1682</ele>
        <time>2024-01-12T09:54:02Z</time>
      </trkpt>
      <trkpt lat="42.94221" lon="0.32506">
        <ele>1465.09453</ele>
        <time>2024-01-12T09:54:16Z</time>
      </trkpt>
      <trkpt lat="42.94222" lon="0.32507">
        <ele>1464.2134</ele>
        <time>2024-01-12T09:54:18Z</time>
      </trkpt>
      <trkpt lat="42.94223" lon="0.32509">
        <ele>1464.21238</ele>
        <time>2024-01-12T09:54:20Z</time>
      </trkpt>
      <trkpt lat="42.94223" lon="0.32511">
        <ele>1463.97531</ele>
        <time>2024-01-12T09:54:22Z</time>
      </trkpt>
      <trkpt lat="42.94223" lon="0.32513">
        <ele>1464.89952</ele>
        <time>2024-01-12T09:54:24Z</time>
      </trkpt>
      <trkpt lat="42.94223" lon="0.32514">
        <ele>1465.15788</ele>
        <time>2024-01-12T09:54:25Z</time>
      </trkpt>
      <trkpt lat="42.94223" lon="0.32516">
        <ele>1464.87852</ele>
        <time>2024-01-12T09:54:28Z</time>
      </trkpt>
      <trkpt lat="42.94224" lon="0.32518">
        <ele>1465.4595</ele>
        <time>2024-01-12T09:54:30Z</time>
      </trkpt>
      <trkpt lat="42.94224" lon="0.32519">
        <ele>1464.58797</ele>
        <time>2024-01-12T09:54:31Z</time>
      </trkpt>
      <trkpt lat="42.94225" lon="0.32519">
        <ele>1464.30726</ele>
        <time>2024-01-12T09:54:32Z</time>
      </trkpt>
      <trkpt lat="42.94227" lon="0.32519">
        <ele>1464.91606</ele>
        <time>2024-01-12T09:54:34Z</time>
      </trkpt>
      <trkpt lat="42.94227" lon="0.32522">
        <ele>1463.51507</ele>
        <time>2024-01-12T09:54:36Z</time>
      </trkpt>
      <trkpt lat="42.94227" lon="0.32524">
        <ele>1464.31026</ele>
        <time>2024-01-12T09:54:38Z</time>
      </trkpt>
      <trkpt lat="42.94227" lon="0.32526">
        <ele>1464.50745</ele>
        <time>2024-01-12T09:54:40Z</time>
      </trkpt>
      <trkpt lat="42.94227" lon="0.32528">
        <ele>1464.42838</ele>
        <time>2024-01-12T09:54:42Z</time>
      </trkpt>
      <trkpt lat="42.94228" lon="0.32528">
        <ele>1464.17841</ele>
        <time>2024-01-12T09:54:45Z</time>
      </trkpt>
      <trkpt lat="42.94228" lon="0.32531">
        <ele>1464.07521</ele>
        <time>2024-01-12T09:54:47Z</time>
      </trkpt>
      <trkpt lat="42.94228" lon="0.32534">
        <ele>1465.91966</ele>
        <time>2024-01-12T09:54:49Z</time>
      </trkpt>
      <trkpt lat="42.94229" lon="0.32536">
        <ele>1465.58125</ele>
        <time>2024-01-12T09:54:51Z</time>
      </trkpt>
      <trkpt lat="42.94229" lon="0.32537">
        <ele>1464.06409</ele>
        <time>2024-01-12T09:54:52Z</time>
      </trkpt>
      <trkpt lat="42.94229" lon="0.32539">
        <ele>1464.62962</ele>
        <time>2024-01-12T09:54:53Z</time>
      </trkpt>
      <trkpt lat="42.9423" lon="0.32541">
        <ele>1464.95308</ele>
        <time>2024-01-12T09:54:56Z</time>
      </trkpt>
      <trkpt lat="42.9423" lon="0.32543">
        <ele>1466.95352</ele>
        <time>2024-01-12T09:54:58Z</time>
      </trkpt>
      <trkpt lat="42.94231" lon="0.32545">
        <ele>1466.60496</ele>
        <time>2024-01-12T09:55:00Z</time>
      </trkpt>
      <trkpt lat="42.94231" lon="0.32546">
        <ele>1467.76401</ele>
        <time>2024-01-12T09:55:02Z</time>
      </trkpt>
      <trkpt lat="42.94231" lon="0.32547">
        <ele>1467.38755</ele>
        <time>2024-01-12T09:55:03Z</time>
      </trkpt>
      <trkpt lat="42.94232" lon="0.32549">
        <ele>1466.92992</ele>
        <time>2024-01-12T09:55:05Z</time>
      </trkpt>
      <trkpt lat="42.94232" lon="0.3255">
        <ele>1466.63298</ele>
        <time>2024-01-12T09:55:07Z</time>
      </trkpt>
      <trkpt lat="42.94232" lon="0.32552">
        <ele>1466.96431</ele>
        <time>2024-01-12T09:55:08Z</time>
      </trkpt>
      <trkpt lat="42.94233" lon="0.32553">
        <ele>1466.79952</ele>
        <time>2024-01-12T09:55:10Z</time>
      </trkpt>
      <trkpt lat="42.94233" lon="0.32555">
        <ele>1466.54259</ele>
        <time>2024-01-12T09:55:11Z</time>
      </trkpt>
      <trkpt lat="42.94233" lon="0.32556">
        <ele>1467.87714</ele>
        <time>2024-01-12T09:55:12Z</time>
      </trkpt>
      <trkpt lat="42.94232" lon="0.32559">
        <ele>1468.32667</ele>
        <time>2024-01-12T09:55:14Z</time>
      </trkpt>
      <trkpt lat="42.94232" lon="0.3256">
        <ele>1467.00188</ele>
        <time>2024-01-12T09:55:16Z</time>
      </trkpt>
      <trkpt lat="42.94232" lon="0.32561">
        <ele>1467.44741</ele>
        <time>2024-01-12T09:55:17Z</time>
      </trkpt>
      <trkpt lat="42.94233" lon="0.32563">
        <ele>1467.4971</ele>
        <time>2024-01-12T09:55:19Z</time>
      </trkpt>
      <trkpt lat="42.94233" lon="0.32565">
        <ele>1467.66101</ele>
        <time>2024-01-12T09:55:21Z</time>
      </trkpt>
      <trkpt lat="42.94233" lon="0.32567">
        <ele>1468.42995</ele>
        <time>2024-01-12T09:55:23Z</time>
      </trkpt>
      <trkpt lat="42.94234" lon="0.32568">
        <ele>1468.6371</ele>
        <time>2024-01-12T09:55:25Z</time>
      </trkpt>
      <trkpt lat="42.94235" lon="0.3257">
        <ele>1470.8348</ele>
        <time>2024-01-12T09:55:27Z</time>
      </trkpt>
      <trkpt lat="42.94235" lon="0.32572">
        <ele>1469.75858</ele>
        <time>2024-01-12T09:55:30Z</time>
      </trkpt>
      <trkpt lat="42.94235" lon="0.32575">
        <ele>1469.53838</ele>
        <time>2024-01-12T09:55:32Z</time>
      </trkpt>
      <trkpt lat="42.94236" lon="0.32576">
        <ele>1469.18962</ele>
        <time>2024-01-12T09:55:35Z</time>
      </trkpt>
      <trkpt lat="42.94236" lon="0.32577">
        <ele>1469.1929</ele>
        <time>2024-01-12T09:55:36Z</time>
      </trkpt>
      <trkpt lat="42.94237" lon="0.32579">
        <ele>1468.75169</ele>
        <time>2024-01-12T09:55:38Z</time>
      </trkpt>
      <trkpt lat="42.94237" lon="0.3258">
        <ele>1468.82635</ele>
        <time>2024-01-12T09:55:40Z</time>
      </trkpt>
      <trkpt lat="42.94237" lon="0.32582">
        <ele>1468.91269</ele>
        <time>2024-01-12T09:55:41Z</time>
      </trkpt>
      <trkpt lat="42.94237" lon="0.32583">
        <ele>1468.46338</ele>
        <time>2024-01-12T09:55:42Z</time>
      </trkpt>
      <trkpt lat="42.94238" lon="0.32585">
        <ele>1468.663</ele>
        <time>2024-01-12T09:55:44Z</time>
      </trkpt>
      <trkpt lat="42.94238" lon="0.32586">
        <ele>1468.79699</ele>
        <time>2024-01-12T09:55:47Z</time>
      </trkpt>
      <trkpt lat="42.94238" lon="0.32588">
        <ele>1469.35766</ele>
        <time>2024-01-12T09:55:49Z</time>
      </trkpt>
      <trkpt lat="42.94239" lon="0.32589">
        <ele>1469.32946</ele>
        <time>2024-01-12T09:55:50Z</time>
      </trkpt>
      <trkpt lat="42.94239" lon="0.32591">
        <ele>1470.0365</ele>
        <time>2024-01-12T09:55:52Z</time>
      </trkpt>
      <trkpt lat="42.94239" lon="0.32593">
        <ele>1471.0677</ele>
        <time>2024-01-12T09:55:54Z</time>
      </trkpt>
      <trkpt lat="42.9424" lon="0.32595">
        <ele>1471.06765</ele>
        <time>2024-01-12T09:55:56Z</time>
      </trkpt>
      <trkpt lat="42.9424" lon="0.32596">
        <ele>1470.76342</ele>
        <time>2024-01-12T09:55:57Z</time>
      </trkpt>
      <trkpt lat="42.9424" lon="0.32597">
        <ele>1469.73349</ele>
        <time>2024-01-12T09:55:59Z</time>
      </trkpt>
      <trkpt lat="42.9424" lon="0.32599">
        <ele>1471.02415</ele>
        <time>2024-01-12T09:56:01Z</time>
      </trkpt>
      <trkpt lat="42.94241" lon="0.32601">
        <ele>1471.05083</ele>
        <time>2024-01-12T09:56:03Z</time>
      </trkpt>
      <trkpt lat="42.94241" lon="0.32603">
        <ele>1471.1643</ele>
        <time>2024-01-12T09:56:06Z</time>
      </trkpt>
      <trkpt lat="42.9424" lon="0.32606">
        <ele>1470.07589</ele>
        <time>2024-01-12T09:56:08Z</time>
      </trkpt>
      <trkpt lat="42.94241" lon="0.32607">
        <ele>1471.1813</ele>
        <time>2024-01-12T09:56:10Z</time>
      </trkpt>
      <trkpt lat="42.94241" lon="0.3261">
        <ele>1472.63714</ele>
        <time>2024-01-12T09:56:12Z</time>
      </trkpt>
      <trkpt lat="42.94242" lon="0.32611">
        <ele>1473.60551</ele>
        <time>2024-01-12T09:56:14Z</time>
      </trkpt>
      <trkpt lat="42.94242" lon="0.32612">
        <ele>1472.82739</ele>
        <time>2024-01-12T09:56:15Z</time>
      </trkpt>
      <trkpt lat="42.94242" lon="0.32613">
        <ele>1473.22027</ele>
        <time>2024-01-12T09:56:16Z</time>
      </trkpt>
      <trkpt lat="42.94241" lon="0.32615">
        <ele>1473.83154</ele>
        <time>2024-01-12T09:56:19Z</time>
      </trkpt>
      <trkpt lat="42.94241" lon="0.32616">
        <ele>1474.14814</ele>
        <time>2024-01-12T09:56:20Z</time>
      </trkpt>
      <trkpt lat="42.94241" lon="0.32618">
        <ele>1473.93478</ele>
        <time>2024-01-12T09:56:22Z</time>
      </trkpt>
      <trkpt lat="42.94242" lon="0.32619">
        <ele>1474.2022</ele>
        <time>2024-01-12T09:56:24Z</time>
      </trkpt>
      <trkpt lat="42.94242" lon="0.32621">
        <ele>1475.1973</ele>
        <time>2024-01-12T09:56:25Z</time>
      </trkpt>
      <trkpt lat="42.94243" lon="0.32623">
        <ele>1474.54181</ele>
        <time>2024-01-12T09:56:28Z</time>
      </trkpt>
      <trkpt lat="42.94243" lon="0.32625">
        <ele>1474.56783</ele>
        <time>2024-01-12T09:56:30Z</time>
      </trkpt>
      <trkpt lat="42.94242" lon="0.32626">
        <ele>1475.0882</ele>
        <time>2024-01-12T09:56:32Z</time>
      </trkpt>
      <trkpt lat="42.94243" lon="0.32628">
        <ele>1473.85389</ele>
        <time>2024-01-12T09:56:35Z</time>
      </trkpt>
      <trkpt lat="42.94243" lon="0.3263">
        <ele>1474.24572</ele>
        <time>2024-01-12T09:56:36Z</time>
      </trkpt>
      <trkpt lat="42.94243" lon="0.32631">
        <ele>1473.8926</ele>
        <time>2024-01-12T09:56:39Z</time>
      </trkpt>
      <trkpt lat="42.94243" lon="0.32633">
        <ele>1474.80334</ele>
        <time>2024-01-12T09:56:40Z</time>
      </trkpt>
      <trkpt lat="42.94243" lon="0.32635">
        <ele>1474.288</ele>
        <time>2024-01-12T09:56:43Z</time>
      </trkpt>
      <trkpt lat="42.94243" lon="0.32637">
        <ele>1475.42115</ele>
        <time>2024-01-12T09:56:45Z</time>
      </trkpt>
      <trkpt lat="42.94243" lon="0.32638">
        <ele>1475.28301</ele>
        <time>2024-01-12T09:56:47Z</time>
      </trkpt>
      <trkpt lat="42.94243" lon="0.3264">
        <ele>1475.06658</ele>
        <time>2024-01-12T09:56:50Z</time>
      </trkpt>
      <trkpt lat="42.94243" lon="0.32643">
        <ele>1475.90785</ele>
        <time>2024-01-12T09:56:52Z</time>
      </trkpt>
      <trkpt lat="42.94244" lon="0.32644">
        <ele>1475.68504</ele>
        <time>2024-01-12T09:56:54Z</time>
      </trkpt>
      <trkpt lat="42.94244" lon="0.32645">
        <ele>1476.23221</ele>
        <time>2024-01-12T09:56:56Z</time>
      </trkpt>
      <trkpt lat="42.94244" lon="0.32647">
        <ele>1476.0599</ele>
        <time>2024-01-12T09:56:58Z</time>
      </trkpt>
      <trkpt lat="42.94244" lon="0.32649">
        <ele>1476.37705</ele>
        <time>2024-01-12T09:57:00Z</time>
      </trkpt>
      <trkpt lat="42.94244" lon="0.3265">
        <ele>1476.1871</ele>
        <time>2024-01-12T09:57:01Z</time>
      </trkpt>
      <trkpt lat="42.94245" lon="0.32651">
        <ele>1475.73491</ele>
        <time>2024-01-12T09:57:03Z</time>
      </trkpt>
      <trkpt lat="42.94245" lon="0.32653">
        <ele>1476.61253</ele>
        <time>2024-01-12T09:57:05Z</time>
      </trkpt>
      <trkpt lat="42.94245" lon="0.32655">
        <ele>1476.69894</ele>
        <time>2024-01-12T09:57:07Z</time>
      </trkpt>
      <trkpt lat="42.94245" lon="0.32657">
        <ele>1477.15058</ele>
        <time>2024-01-12T09:57:09Z</time>
      </trkpt>
      <trkpt lat="42.94245" lon="0.32658">
        <ele>1477.78838</ele>
        <time>2024-01-12T09:57:10Z</time>
      </trkpt>
      <trkpt lat="42.94245" lon="0.3266">
        <ele>1478.81391</ele>
        <time>2024-01-12T09:57:13Z</time>
      </trkpt>
      <trkpt lat="42.94245" lon="0.32662">
        <ele>1478.59188</ele>
        <time>2024-01-12T09:57:15Z</time>
      </trkpt>
      <trkpt lat="42.94246" lon="0.32664">
        <ele>1478.33878</ele>
        <time>2024-01-12T09:57:17Z</time>
      </trkpt>
      <trkpt lat="42.94246" lon="0.32665">
        <ele>1478.86808</ele>
        <time>2024-01-12T09:57:19Z</time>
      </trkpt>
      <trkpt lat="42.94246" lon="0.32666">
        <ele>1479.34649</ele>
        <time>2024-01-12T09:57:20Z</time>
      </trkpt>
      <trkpt lat="42.94245" lon="0.32668">
        <ele>1479.95359</ele>
        <time>2024-01-12T09:57:28Z</time>
      </trkpt>
      <trkpt lat="42.94245" lon="0.3267">
        <ele>1480.4185</ele>
        <time>2024-01-12T09:57:30Z</time>
      </trkpt>
      <trkpt lat="42.94245" lon="0.32671">
        <ele>1480.19883</ele>
        <time>2024-01-12T09:57:32Z</time>
      </trkpt>
      <trkpt lat="42.94245" lon="0.32673">
        <ele>1480.93004</ele>
        <time>2024-01-12T09:57:33Z</time>
      </trkpt>
      <trkpt lat="42.94246" lon="0.32675">
        <ele>1479.57694</ele>
        <time>2024-01-12T09:57:35Z</time>
      </trkpt>
      <trkpt lat="42.94246" lon="0.32677">
        <ele>1480.57029</ele>
        <time>2024-01-12T09:57:37Z</time>
      </trkpt>
      <trkpt lat="42.94246" lon="0.32678">
        <ele>1480.93094</ele>
        <time>2024-01-12T09:57:38Z</time>
      </trkpt>
      <trkpt lat="42.94246" lon="0.3268">
        <ele>1480.02364</ele>
        <time>2024-01-12T09:57:40Z</time>
      </trkpt>
      <trkpt lat="42.94246" lon="0.32682">
        <ele>1480.95125</ele>
        <time>2024-01-12T09:57:42Z</time>
      </trkpt>
      <trkpt lat="42.94246" lon="0.32684">
        <ele>1481.01592</ele>
        <time>2024-01-12T09:57:44Z</time>
      </trkpt>
      <trkpt lat="42.94247" lon="0.32684">
        <ele>1479.7465</ele>
        <time>2024-01-12T09:57:47Z</time>
      </trkpt>
      <trkpt lat="42.94248" lon="0.32683">
        <ele>1479.6718</ele>
        <time>2024-01-12T09:58:10Z</time>
      </trkpt>
      <trkpt lat="42.94249" lon="0.32682">
        <ele>1479.96085</ele>
        <time>2024-01-12T09:58:12Z</time>
      </trkpt>
      <trkpt lat="42.9425" lon="0.32682">
        <ele>1482.26295</ele>
        <time>2024-01-12T09:58:37Z</time>
      </trkpt>
      <trkpt lat="42.94249" lon="0.32683">
        <ele>1479.40117</ele>
        <time>2024-01-12T09:58:50Z</time>
      </trkpt>
      <trkpt lat="42.94249" lon="0.32684">
        <ele>1480.28902</ele>
        <time>2024-01-12T09:58:54Z</time>
      </trkpt>
      <trkpt lat="42.94248" lon="0.32683">
        <ele>1480.06729</ele>
        <time>2024-01-12T09:58:57Z</time>
      </trkpt>
      <trkpt lat="42.94247" lon="0.32685">
        <ele>1479.92517</ele>
        <time>2024-01-12T09:58:58Z</time>
      </trkpt>
      <trkpt lat="42.94246" lon="0.32686">
        <ele>1481.35104</ele>
        <time>2024-01-12T09:59:01Z</time>
      </trkpt>
      <trkpt lat="42.94246" lon="0.32688">
        <ele>1482.99011</ele>
        <time>2024-01-12T09:59:08Z</time>
      </trkpt>
      <trkpt lat="42.94245" lon="0.32689">
        <ele>1482.19998</ele>
        <time>2024-01-12T09:59:09Z</time>
      </trkpt>
      <trkpt lat="42.94244" lon="0.32691">
        <ele>1481.26257</ele>
        <time>2024-01-12T09:59:12Z</time>
      </trkpt>
      <trkpt lat="42.94243" lon="0.32692">
        <ele>1481.91614</ele>
        <time>2024-01-12T09:59:14Z</time>
      </trkpt>
      <trkpt lat="42.94242" lon="0.32693">
        <ele>1482.61122</ele>
        <time>2024-01-12T09:59:16Z</time>
      </trkpt>
      <trkpt lat="42.94241" lon="0.32694">
        <ele>1480.94286</ele>
        <time>2024-01-12T09:59:26Z</time>
      </trkpt>
      <trkpt lat="42.9424" lon="0.32695">
        <ele>1480.36758</ele>
        <time>2024-01-12T09:59:30Z</time>
      </trkpt>
      <trkpt lat="42.9424" lon="0.32693">
        <ele>1482.03119</ele>
        <time>2024-01-12T10:00:27Z</time>
      </trkpt>
      <trkpt lat="42.94239" lon="0.32695">
        <ele>1482.71077</ele>
        <time>2024-01-12T10:00:53Z</time>
      </trkpt>
      <trkpt lat="42.9424" lon="0.32694">
        <ele>1480.30075</ele>
        <time>2024-01-12T10:02:24Z</time>
      </trkpt>
      <trkpt lat="42.94239" lon="0.32693">
        <ele>1480.04099</ele>
        <time>2024-01-12T10:02:26Z</time>
      </trkpt>
      <trkpt lat="42.94237" lon="0.32694">
        <ele>1481.54999</ele>
        <time>2024-01-12T10:02:28Z</time>
      </trkpt>
      <trkpt lat="42.94236" lon="0.32695">
        <ele>1482.49906</ele>
        <time>2024-01-12T10:02:30Z</time>
      </trkpt>
      <trkpt lat="42.94235" lon="0.32696">
        <ele>1482.83049</ele>
        <time>2024-01-12T10:02:32Z</time>
      </trkpt>
      <trkpt lat="42.94235" lon="0.32697">
        <ele>1481.68688</ele>
        <time>2024-01-12T10:03:17Z</time>
      </trkpt>
      <trkpt lat="42.94234" lon="0.32696">
        <ele>1480.63434</ele>
        <time>2024-01-12T10:03:21Z</time>
      </trkpt>
      <trkpt lat="42.94236" lon="0.32697">
        <ele>1481.09848</ele>
        <time>2024-01-12T10:03:26Z</time>
      </trkpt>
      <trkpt lat="42.94235" lon="0.32696">
        <ele>1481.16361</ele>
        <time>2024-01-12T10:03:27Z</time>
      </trkpt>
      <trkpt lat="42.94235" lon="0.32697">
        <ele>1484.79802</ele>
        <time>2024-01-12T10:03:41Z</time>
      </trkpt>
      <trkpt lat="42.94235" lon="0.32696">
        <ele>1483.40365</ele>
        <time>2024-01-12T10:03:55Z</time>
      </trkpt>
      <trkpt lat="42.94235" lon="0.32698">
        <ele>1483.16057</ele>
        <time>2024-01-12T10:03:56Z</time>
      </trkpt>
      <trkpt lat="42.94235" lon="0.32695">
        <ele>1481.44525</ele>
        <time>2024-01-12T10:04:10Z</time>
      </trkpt>
      <trkpt lat="42.94236" lon="0.32696">
        <ele>1483.19458</ele>
        <time>2024-01-12T10:04:29Z</time>
      </trkpt>
      <trkpt lat="42.94236" lon="0.32697">
        <ele>1484.63492</ele>
        <time>2024-01-12T10:04:36Z</time>
      </trkpt>
      <trkpt lat="42.94235" lon="0.32697">
        <ele>1483.45495</ele>
        <time>2024-01-12T10:04:41Z</time>
      </trkpt>
      <trkpt lat="42.94235" lon="0.32699">
        <ele>1484.50617</ele>
        <time>2024-01-12T10:04:53Z</time>
      </trkpt>
      <trkpt lat="42.94237" lon="0.32698">
        <ele>1485.94117</ele>
        <time>2024-01-12T10:06:10Z</time>
      </trkpt>
      <trkpt lat="42.94236" lon="0.32697">
        <ele>1481.54962</ele>
        <time>2024-01-12T10:06:29Z</time>
      </trkpt>
      <trkpt lat="42.94236" lon="0.327">
        <ele>1481.44746</ele>
        <time>2024-01-12T10:06:49Z</time>
      </trkpt>
      <trkpt lat="42.94237" lon="0.32699">
        <ele>1483.63055</ele>
        <time>2024-01-12T10:06:58Z</time>
      </trkpt>
      <trkpt lat="42.94236" lon="0.32698">
        <ele>1482.14733</ele>
        <time>2024-01-12T10:07:11Z</time>
      </trkpt>
      <trkpt lat="42.94235" lon="0.32697">
        <ele>1482.5715</ele>
        <time>2024-01-12T10:08:17Z</time>
      </trkpt>
      <trkpt lat="42.94234" lon="0.32697">
        <ele>1484.04045</ele>
        <time>2024-01-12T10:08:24Z</time>
      </trkpt>
      <trkpt lat="42.94233" lon="0.32699">
        <ele>1484.46687</ele>
        <time>2024-01-12T10:08:26Z</time>
      </trkpt>
      <trkpt lat="42.94232" lon="0.32699">
        <ele>1483.12025</ele>
        <time>2024-01-12T10:08:28Z</time>
      </trkpt>
      <trkpt lat="42.94231" lon="0.327">
        <ele>1483.25126</ele>
        <time>2024-01-12T10:08:30Z</time>
      </trkpt>
      <trkpt lat="42.9423" lon="0.32701">
        <ele>1481.51658</ele>
        <time>2024-01-12T10:08:32Z</time>
      </trkpt>
      <trkpt lat="42.94228" lon="0.32702">
        <ele>1482.28167</ele>
        <time>2024-01-12T10:08:34Z</time>
      </trkpt>
      <trkpt lat="42.94226" lon="0.32702">
        <ele>1482.3285</ele>
        <time>2024-01-12T10:08:37Z</time>
      </trkpt>
      <trkpt lat="42.94224" lon="0.32703">
        <ele>1482.71813</ele>
        <time>2024-01-12T10:08:39Z</time>
      </trkpt>
      <trkpt lat="42.94223" lon="0.32704">
        <ele>1481.5987</ele>
        <time>2024-01-12T10:08:41Z</time>
      </trkpt>
      <trkpt lat="42.94222" lon="0.32704">
        <ele>1481.71545</ele>
        <time>2024-01-12T10:08:42Z</time>
      </trkpt>
      <trkpt lat="42.94221" lon="0.32704">
        <ele>1481.97558</ele>
        <time>2024-01-12T10:08:43Z</time>
      </trkpt>
      <trkpt lat="42.9422" lon="0.32705">
        <ele>1482.35778</ele>
        <time>2024-01-12T10:08:45Z</time>
      </trkpt>
      <trkpt lat="42.94219" lon="0.32706">
        <ele>1482.36192</ele>
        <time>2024-01-12T10:08:47Z</time>
      </trkpt>
      <trkpt lat="42.94219" lon="0.32708">
        <ele>1485.01526</ele>
        <time>2024-01-12T10:08:49Z</time>
      </trkpt>
      <trkpt lat="42.94218" lon="0.32709">
        <ele>1485.74464</ele>
        <time>2024-01-12T10:08:51Z</time>
      </trkpt>
      <trkpt lat="42.94217" lon="0.32709">
        <ele>1485.32354</ele>
        <time>2024-01-12T10:08:52Z</time>
      </trkpt>
      <trkpt lat="42.94215" lon="0.3271">
        <ele>1484.93812</ele>
        <time>2024-01-12T10:08:54Z</time>
      </trkpt>
      <trkpt lat="42.94214" lon="0.3271">
        <ele>1484.15821</ele>
        <time>2024-01-12T10:08:56Z</time>
      </trkpt>
      <trkpt lat="42.94213" lon="0.32711">
        <ele>1484.29414</ele>
        <time>2024-01-12T10:08:58Z</time>
      </trkpt>
      <trkpt lat="42.94212" lon="0.32712">
        <ele>1484.40367</ele>
        <time>2024-01-12T10:08:59Z</time>
      </trkpt>
      <trkpt lat="42.9421" lon="0.32712">
        <ele>1484.15561</ele>
        <time>2024-01-12T10:09:01Z</time>
      </trkpt>
      <trkpt lat="42.94209" lon="0.32713">
        <ele>1484.11931</ele>
        <time>2024-01-12T10:09:02Z</time>
      </trkpt>
      <trkpt lat="42.94207" lon="0.32713">
        <ele>1484.94692</ele>
        <time>2024-01-12T10:09:08Z</time>
      </trkpt>
      <trkpt lat="42.94206" lon="0.32714">
        <ele>1485.2453</ele>
        <time>2024-01-12T10:09:09Z</time>
      </trkpt>
      <trkpt lat="42.94205" lon="0.32714">
        <ele>1486.39933</ele>
        <time>2024-01-12T10:09:10Z</time>
      </trkpt>
      <trkpt lat="42.94204" lon="0.32714">
        <ele>1485.55715</ele>
        <time>2024-01-12T10:09:12Z</time>
      </trkpt>
      <trkpt lat="42.94202" lon="0.32714">
        <ele>1486.16588</ele>
        <time>2024-01-12T10:09:14Z</time>
      </trkpt>
      <trkpt lat="42.94201" lon="0.32714">
        <ele>1486.67421</ele>
        <time>2024-01-12T10:09:15Z</time>
      </trkpt>
      <trkpt lat="42.942" lon="0.32713">
        <ele>1485.49463</ele>
        <time>2024-01-12T10:09:18Z</time>
      </trkpt>
      <trkpt lat="42.94199" lon="0.32713">
        <ele>1485.76156</ele>
        <time>2024-01-12T10:09:20Z</time>
      </trkpt>
      <trkpt lat="42.94198" lon="0.32712">
        <ele>1485.81614</ele>
        <time>2024-01-12T10:09:22Z</time>
      </trkpt>
      <trkpt lat="42.94196" lon="0.32711">
        <ele>1486.57391</ele>
        <time>2024-01-12T10:09:24Z</time>
      </trkpt>
      <trkpt lat="42.94195" lon="0.3271">
        <ele>1486.60561</ele>
        <time>2024-01-12T10:09:26Z</time>
      </trkpt>
      <trkpt lat="42.94194" lon="0.32709">
        <ele>1486.96848</ele>
        <time>2024-01-12T10:09:27Z</time>
      </trkpt>
      <trkpt lat="42.94193" lon="0.32708">
        <ele>1486.16491</ele>
        <time>2024-01-12T10:09:30Z</time>
      </trkpt>
      <trkpt lat="42.94192" lon="0.32707">
        <ele>1486.83392</ele>
        <time>2024-01-12T10:09:31Z</time>
      </trkpt>
      <trkpt lat="42.94191" lon="0.32706">
        <ele>1488.16542</ele>
        <time>2024-01-12T10:09:33Z</time>
      </trkpt>
      <trkpt lat="42.94189" lon="0.32705">
        <ele>1487.87612</ele>
        <time>2024-01-12T10:09:35Z</time>
      </trkpt>
      <trkpt lat="42.94187" lon="0.32705">
        <ele>1488.23666</ele>
        <time>2024-01-12T10:09:37Z</time>
      </trkpt>
      <trkpt lat="42.94186" lon="0.32704">
        <ele>1488.91816</ele>
        <time>2024-01-12T10:09:39Z</time>
      </trkpt>
      <trkpt lat="42.94185" lon="0.32703">
        <ele>1488.67695</ele>
        <time>2024-01-12T10:09:41Z</time>
      </trkpt>
      <trkpt lat="42.94184" lon="0.32702">
        <ele>1487.99516</ele>
        <time>2024-01-12T10:09:42Z</time>
      </trkpt>
      <trkpt lat="42.94182" lon="0.32702">
        <ele>1489.32667</ele>
        <time>2024-01-12T10:09:44Z</time>
      </trkpt>
      <trkpt lat="42.94181" lon="0.32701">
        <ele>1489.39687</ele>
        <time>2024-01-12T10:09:47Z</time>
      </trkpt>
      <trkpt lat="42.9418" lon="0.327">
        <ele>1490.36832</ele>
        <time>2024-01-12T10:09:48Z</time>
      </trkpt>
      <trkpt lat="42.94179" lon="0.32699">
        <ele>1490.39977</ele>
        <time>2024-01-12T10:09:50Z</time>
      </trkpt>
      <trkpt lat="42.94178" lon="0.32698">
        <ele>1490.36614</ele>
        <time>2024-01-12T10:09:52Z</time>
      </trkpt>
      <trkpt lat="42.94177" lon="0.32697">
        <ele>1491.7574</ele>
        <time>2024-01-12T10:09:54Z</time>
      </trkpt>
      <trkpt lat="42.94176" lon="0.32696">
        <ele>1491.18321</ele>
        <time>2024-01-12T10:09:55Z</time>
      </trkpt>
      <trkpt lat="42.94175" lon="0.32696">
        <ele>1491.33023</ele>
        <time>2024-01-12T10:09:57Z</time>
      </trkpt>
      <trkpt lat="42.94173" lon="0.32696">
        <ele>1492.6835</ele>
        <time>2024-01-12T10:09:59Z</time>
      </trkpt>
      <trkpt lat="42.94171" lon="0.32694">
        <ele>1492.44962</ele>
        <time>2024-01-12T10:10:01Z</time>
      </trkpt>
      <trkpt lat="42.94171" lon="0.32694">
        <ele>1492.8999</ele>
        <time>2024-01-12T10:10:03Z</time>
      </trkpt>
      <trkpt lat="42.9417" lon="0.32692">
        <ele>1493.18821</ele>
        <time>2024-01-12T10:10:05Z</time>
      </trkpt>
      <trkpt lat="42.94169" lon="0.3269">
        <ele>1491.96959</ele>
        <time>2024-01-12T10:10:07Z</time>
      </trkpt>
      <trkpt lat="42.94168" lon="0.3269">
        <ele>1491.65305</ele>
        <time>2024-01-12T10:10:09Z</time>
      </trkpt>
      <trkpt lat="42.94167" lon="0.32689">
        <ele>1491.54847</ele>
        <time>2024-01-12T10:10:10Z</time>
      </trkpt>
      <trkpt lat="42.94166" lon="0.32689">
        <ele>1492.34839</ele>
        <time>2024-01-12T10:10:11Z</time>
      </trkpt>
      <trkpt lat="42.94165" lon="0.32688">
        <ele>1492.68427</ele>
        <time>2024-01-12T10:10:12Z</time>
      </trkpt>
      <trkpt lat="42.94165" lon="0.32686">
        <ele>1492.69874</ele>
        <time>2024-01-12T10:10:14Z</time>
      </trkpt>
      <trkpt lat="42.94165" lon="0.32685">
        <ele>1492.10337</ele>
        <time>2024-01-12T10:10:15Z</time>
      </trkpt>
      <trkpt lat="42.94164" lon="0.32684">
        <ele>1492.70351</ele>
        <time>2024-01-12T10:10:16Z</time>
      </trkpt>
      <trkpt lat="42.94163" lon="0.32683">
        <ele>1492.96634</ele>
        <time>2024-01-12T10:10:18Z</time>
      </trkpt>
      <trkpt lat="42.94162" lon="0.32682">
        <ele>1493.23948</ele>
        <time>2024-01-12T10:10:20Z</time>
      </trkpt>
      <trkpt lat="42.94161" lon="0.32681">
        <ele>1493.95939</ele>
        <time>2024-01-12T10:10:21Z</time>
      </trkpt>
      <trkpt lat="42.94161" lon="0.3268">
        <ele>1494.2054</ele>
        <time>2024-01-12T10:10:23Z</time>
      </trkpt>
      <trkpt lat="42.94159" lon="0.3268">
        <ele>1495.57373</ele>
        <time>2024-01-12T10:10:25Z</time>
      </trkpt>
      <trkpt lat="42.94158" lon="0.3268">
        <ele>1494.80923</ele>
        <time>2024-01-12T10:10:27Z</time>
      </trkpt>
      <trkpt lat="42.94157" lon="0.32678">
        <ele>1494.76816</ele>
        <time>2024-01-12T10:10:29Z</time>
      </trkpt>
      <trkpt lat="42.94156" lon="0.32677">
        <ele>1495.323</ele>
        <time>2024-01-12T10:10:31Z</time>
      </trkpt>
      <trkpt lat="42.94155" lon="0.32675">
        <ele>1496.12556</ele>
        <time>2024-01-12T10:10:33Z</time>
      </trkpt>
      <trkpt lat="42.94154" lon="0.32674">
        <ele>1495.51492</ele>
        <time>2024-01-12T10:10:35Z</time>
      </trkpt>
      <trkpt lat="42.94154" lon="0.32673">
        <ele>1495.63801</ele>
        <time>2024-01-12T10:10:36Z</time>
      </trkpt>
      <trkpt lat="42.94152" lon="0.32673">
        <ele>1496.22244</ele>
        <time>2024-01-12T10:10:38Z</time>
      </trkpt>
      <trkpt lat="42.94151" lon="0.32672">
        <ele>1496.54868</ele>
        <time>2024-01-12T10:10:40Z</time>
      </trkpt>
      <trkpt lat="42.9415" lon="0.32671">
        <ele>1496.65206</ele>
        <time>2024-01-12T10:10:42Z</time>
      </trkpt>
      <trkpt lat="42.94149" lon="0.32671">
        <ele>1497.61065</ele>
        <time>2024-01-12T10:10:44Z</time>
      </trkpt>
      <trkpt lat="42.94148" lon="0.32671">
        <ele>1498.02099</ele>
        <time>2024-01-12T10:10:45Z</time>
      </trkpt>
      <trkpt lat="42.94146" lon="0.32671">
        <ele>1498.02154</ele>
        <time>2024-01-12T10:10:46Z</time>
      </trkpt>
      <trkpt lat="42.94146" lon="0.32669">
        <ele>1497.7514</ele>
        <time>2024-01-12T10:10:48Z</time>
      </trkpt>
      <trkpt lat="42.94145" lon="0.32669">
        <ele>1497.36074</ele>
        <time>2024-01-12T10:10:50Z</time>
      </trkpt>
      <trkpt lat="42.94144" lon="0.32667">
        <ele>1499.04949</ele>
        <time>2024-01-12T10:10:53Z</time>
      </trkpt>
      <trkpt lat="42.94143" lon="0.32666">
        <ele>1497.46456</ele>
        <time>2024-01-12T10:10:55Z</time>
      </trkpt>
      <trkpt lat="42.94142" lon="0.32665">
        <ele>1498.06312</ele>
        <time>2024-01-12T10:10:57Z</time>
      </trkpt>
      <trkpt lat="42.94141" lon="0.32665">
        <ele>1498.64975</ele>
        <time>2024-01-12T10:10:59Z</time>
      </trkpt>
      <trkpt lat="42.94139" lon="0.32664">
        <ele>1498.13111</ele>
        <time>2024-01-12T10:11:01Z</time>
      </trkpt>
      <trkpt lat="42.94138" lon="0.32663">
        <ele>1498.4666</ele>
        <time>2024-01-12T10:11:03Z</time>
      </trkpt>
      <trkpt lat="42.94137" lon="0.32662">
        <ele>1498.54897</ele>
        <time>2024-01-12T10:11:05Z</time>
      </trkpt>
      <trkpt lat="42.94136" lon="0.3266">
        <ele>1497.65481</ele>
        <time>2024-01-12T10:11:07Z</time>
      </trkpt>
      <trkpt lat="42.94134" lon="0.32659">
        <ele>1498.27264</ele>
        <time>2024-01-12T10:11:09Z</time>
      </trkpt>
      <trkpt lat="42.94133" lon="0.32657">
        <ele>1496.62443</ele>
        <time>2024-01-12T10:11:11Z</time>
      </trkpt>
      <trkpt lat="42.94133" lon="0.32655">
        <ele>1496.96129</ele>
        <time>2024-01-12T10:11:14Z</time>
      </trkpt>
      <trkpt lat="42.94132" lon="0.32653">
        <ele>1497.60388</ele>
        <time>2024-01-12T10:11:16Z</time>
      </trkpt>
      <trkpt lat="42.94132" lon="0.32652">
        <ele>1497.96019</ele>
        <time>2024-01-12T10:11:17Z</time>
      </trkpt>
      <trkpt lat="42.9413" lon="0.32651">
        <ele>1498.37731</ele>
        <time>2024-01-12T10:11:20Z</time>
      </trkpt>
      <trkpt lat="42.9413" lon="0.3265">
        <ele>1497.98785</ele>
        <time>2024-01-12T10:11:21Z</time>
      </trkpt>
      <trkpt lat="42.94129" lon="0.32649">
        <ele>1498.42275</ele>
        <time>2024-01-12T10:11:24Z</time>
      </trkpt>
      <trkpt lat="42.94129" lon="0.32647">
        <ele>1498.9182</ele>
        <time>2024-01-12T10:11:26Z</time>
      </trkpt>
      <trkpt lat="42.94128" lon="0.32646">
        <ele>1499.43394</ele>
        <time>2024-01-12T10:11:27Z</time>
      </trkpt>
      <trkpt lat="42.94128" lon="0.32644">
        <ele>1499.84184</ele>
        <time>2024-01-12T10:11:29Z</time>
      </trkpt>
      <trkpt lat="42.94128" lon="0.32643">
        <ele>1500.02348</ele>
        <time>2024-01-12T10:11:31Z</time>
      </trkpt>
      <trkpt lat="42.94127" lon="0.32641">
        <ele>1499.66044</ele>
        <time>2024-01-12T10:11:33Z</time>
      </trkpt>
      <trkpt lat="42.94127" lon="0.3264">
        <ele>1499.13814</ele>
        <time>2024-01-12T10:11:35Z</time>
      </trkpt>
      <trkpt lat="42.94127" lon="0.32639">
        <ele>1497.64864</ele>
        <time>2024-01-12T10:11:40Z</time>
      </trkpt>
      <trkpt lat="42.94128" lon="0.32638">
        <ele>1497.79909</ele>
        <time>2024-01-12T10:11:49Z</time>
      </trkpt>
      <trkpt lat="42.94128" lon="0.32637">
        <ele>1498.33998</ele>
        <time>2024-01-12T10:11:50Z</time>
      </trkpt>
      <trkpt lat="42.94129" lon="0.32637">
        <ele>1501.38651</ele>
        <time>2024-01-12T10:12:20Z</time>
      </trkpt>
      <trkpt lat="42.94128" lon="0.32634">
        <ele>1501.25773</ele>
        <time>2024-01-12T10:12:23Z</time>
      </trkpt>
      <trkpt lat="42.94128" lon="0.32633">
        <ele>1501.61069</ele>
        <time>2024-01-12T10:12:25Z</time>
      </trkpt>
      <trkpt lat="42.94127" lon="0.32631">
        <ele>1502.16848</ele>
        <time>2024-01-12T10:12:27Z</time>
      </trkpt>
      <trkpt lat="42.94129" lon="0.3263">
        <ele>1501.99877</ele>
        <time>2024-01-12T10:12:28Z</time>
      </trkpt>
      <trkpt lat="42.94128" lon="0.32629">
        <ele>1501.94127</ele>
        <time>2024-01-12T10:12:29Z</time>
      </trkpt>
      <trkpt lat="42.94127" lon="0.32627">
        <ele>1501.91679</ele>
        <time>2024-01-12T10:12:30Z</time>
      </trkpt>
      <trkpt lat="42.94127" lon="0.32626">
        <ele>1503.74554</ele>
        <time>2024-01-12T10:12:33Z</time>
      </trkpt>
      <trkpt lat="42.94127" lon="0.32624">
        <ele>1503.99412</ele>
        <time>2024-01-12T10:12:35Z</time>
      </trkpt>
      <trkpt lat="42.94126" lon="0.32622">
        <ele>1504.00009</ele>
        <time>2024-01-12T10:12:37Z</time>
      </trkpt>
      <trkpt lat="42.94126" lon="0.3262">
        <ele>1504.07522</ele>
        <time>2024-01-12T10:12:40Z</time>
      </trkpt>
      <trkpt lat="42.94125" lon="0.32619">
        <ele>1503.40259</ele>
        <time>2024-01-12T10:12:41Z</time>
      </trkpt>
      <trkpt lat="42.94125" lon="0.32617">
        <ele>1503.13683</ele>
        <time>2024-01-12T10:12:43Z</time>
      </trkpt>
      <trkpt lat="42.94125" lon="0.32615">
        <ele>1502.86966</ele>
        <time>2024-01-12T10:12:45Z</time>
      </trkpt>
      <trkpt lat="42.94124" lon="0.32614">
        <ele>1503.53809</ele>
        <time>2024-01-12T10:12:47Z</time>
      </trkpt>
      <trkpt lat="42.94124" lon="0.32611">
        <ele>1503.58225</ele>
        <time>2024-01-12T10:12:49Z</time>
      </trkpt>
      <trkpt lat="42.94123" lon="0.32611">
        <ele>1504.43939</ele>
        <time>2024-01-12T10:12:51Z</time>
      </trkpt>
      <trkpt lat="42.94123" lon="0.32609">
        <ele>1506.16537</ele>
        <time>2024-01-12T10:12:53Z</time>
      </trkpt>
      <trkpt lat="42.94121" lon="0.32608">
        <ele>1507.26918</ele>
        <time>2024-01-12T10:12:55Z</time>
      </trkpt>
      <trkpt lat="42.9412" lon="0.32607">
        <ele>1506.99158</ele>
        <time>2024-01-12T10:12:57Z</time>
      </trkpt>
      <trkpt lat="42.9412" lon="0.32606">
        <ele>1505.48933</ele>
        <time>2024-01-12T10:12:58Z</time>
      </trkpt>
      <trkpt lat="42.94119" lon="0.32605">
        <ele>1506.62578</ele>
        <time>2024-01-12T10:13:00Z</time>
      </trkpt>
      <trkpt lat="42.94118" lon="0.32603">
        <ele>1506.73629</ele>
        <time>2024-01-12T10:13:02Z</time>
      </trkpt>
      <trkpt lat="42.94118" lon="0.32602">
        <ele>1507.48401</ele>
        <time>2024-01-12T10:13:04Z</time>
      </trkpt>
      <trkpt lat="42.94117" lon="0.326">
        <ele>1507.07864</ele>
        <time>2024-01-12T10:13:06Z</time>
      </trkpt>
      <trkpt lat="42.94116" lon="0.326">
        <ele>1508.02923</ele>
        <time>2024-01-12T10:13:07Z</time>
      </trkpt>
      <trkpt lat="42.94116" lon="0.32599">
        <ele>1508.74407</ele>
        <time>2024-01-12T10:13:09Z</time>
      </trkpt>
      <trkpt lat="42.94115" lon="0.32598">
        <ele>1509.18807</ele>
        <time>2024-01-12T10:13:11Z</time>
      </trkpt>
      <trkpt lat="42.94115" lon="0.32596">
        <ele>1509.74868</ele>
        <time>2024-01-12T10:13:13Z</time>
      </trkpt>
      <trkpt lat="42.94114" lon="0.32595">
        <ele>1508.52152</ele>
        <time>2024-01-12T10:13:15Z</time>
      </trkpt>
      <trkpt lat="42.94113" lon="0.32594">
        <ele>1508.55979</ele>
        <time>2024-01-12T10:13:16Z</time>
      </trkpt>
      <trkpt lat="42.94113" lon="0.32593">
        <ele>1508.32893</ele>
        <time>2024-01-12T10:13:17Z</time>
      </trkpt>
      <trkpt lat="42.94112" lon="0.32591">
        <ele>1507.32164</ele>
        <time>2024-01-12T10:13:19Z</time>
      </trkpt>
      <trkpt lat="42.94111" lon="0.3259">
        <ele>1506.71987</ele>
        <time>2024-01-12T10:13:22Z</time>
      </trkpt>
      <trkpt lat="42.94112" lon="0.32589">
        <ele>1506.37855</ele>
        <time>2024-01-12T10:13:23Z</time>
      </trkpt>
      <trkpt lat="42.94112" lon="0.32587">
        <ele>1506.17729</ele>
        <time>2024-01-12T10:13:26Z</time>
      </trkpt>
      <trkpt lat="42.94111" lon="0.32585">
        <ele>1507.96474</ele>
        <time>2024-01-12T10:13:28Z</time>
      </trkpt>
      <trkpt lat="42.94111" lon="0.32584">
        <ele>1509.54791</ele>
        <time>2024-01-12T10:13:30Z</time>
      </trkpt>
      <trkpt lat="42.94111" lon="0.32582">
        <ele>1509.81346</ele>
        <time>2024-01-12T10:13:31Z</time>
      </trkpt>
      <trkpt lat="42.9411" lon="0.32581">
        <ele>1509.22811</ele>
        <time>2024-01-12T10:13:34Z</time>
      </trkpt>
      <trkpt lat="42.9411" lon="0.32579">
        <ele>1509.89147</ele>
        <time>2024-01-12T10:13:36Z</time>
      </trkpt>
      <trkpt lat="42.9411" lon="0.32578">
        <ele>1509.5279</ele>
        <time>2024-01-12T10:13:38Z</time>
      </trkpt>
      <trkpt lat="42.94109" lon="0.32576">
        <ele>1508.61398</ele>
        <time>2024-01-12T10:13:40Z</time>
      </trkpt>
      <trkpt lat="42.94108" lon="0.32575">
        <ele>1509.12856</ele>
        <time>2024-01-12T10:13:41Z</time>
      </trkpt>
      <trkpt lat="42.94107" lon="0.32574">
        <ele>1508.39733</ele>
        <time>2024-01-12T10:13:42Z</time>
      </trkpt>
      <trkpt lat="42.94107" lon="0.32572">
        <ele>1509.18135</ele>
        <time>2024-01-12T10:13:45Z</time>
      </trkpt>
      <trkpt lat="42.94106" lon="0.32571">
        <ele>1508.56618</ele>
        <time>2024-01-12T10:13:47Z</time>
      </trkpt>
      <trkpt lat="42.94105" lon="0.3257">
        <ele>1509.48637</ele>
        <time>2024-01-12T10:13:49Z</time>
      </trkpt>
      <trkpt lat="42.94104" lon="0.32569">
        <ele>1510.13388</ele>
        <time>2024-01-12T10:13:51Z</time>
      </trkpt>
      <trkpt lat="42.94103" lon="0.32568">
        <ele>1510.04875</ele>
        <time>2024-01-12T10:13:53Z</time>
      </trkpt>
      <trkpt lat="42.94102" lon="0.32568">
        <ele>1511.67925</ele>
        <time>2024-01-12T10:13:56Z</time>
      </trkpt>
      <trkpt lat="42.94101" lon="0.32567">
        <ele>1511.96471</ele>
        <time>2024-01-12T10:13:58Z</time>
      </trkpt>
      <trkpt lat="42.941" lon="0.32566">
        <ele>1512.60798</ele>
        <time>2024-01-12T10:14:00Z</time>
      </trkpt>
      <trkpt lat="42.94099" lon="0.32564">
        <ele>1512.66173</ele>
        <time>2024-01-12T10:14:02Z</time>
      </trkpt>
      <trkpt lat="42.94098" lon="0.32564">
        <ele>1512.38204</ele>
        <time>2024-01-12T10:14:04Z</time>
      </trkpt>
      <trkpt lat="42.94097" lon="0.32563">
        <ele>1511.86343</ele>
        <time>2024-01-12T10:14:05Z</time>
      </trkpt>
      <trkpt lat="42.94097" lon="0.32561">
        <ele>1511.62807</ele>
        <time>2024-01-12T10:14:07Z</time>
      </trkpt>
      <trkpt lat="42.94096" lon="0.3256">
        <ele>1510.87786</ele>
        <time>2024-01-12T10:14:09Z</time>
      </trkpt>
      <trkpt lat="42.94095" lon="0.32559">
        <ele>1512.59739</ele>
        <time>2024-01-12T10:14:11Z</time>
      </trkpt>
      <trkpt lat="42.94094" lon="0.32558">
        <ele>1511.20663</ele>
        <time>2024-01-12T10:14:14Z</time>
      </trkpt>
      <trkpt lat="42.94093" lon="0.32557">
        <ele>1512.1567</ele>
        <time>2024-01-12T10:14:17Z</time>
      </trkpt>
      <trkpt lat="42.94093" lon="0.32555">
        <ele>1513.08937</ele>
        <time>2024-01-12T10:14:19Z</time>
      </trkpt>
      <trkpt lat="42.94093" lon="0.32553">
        <ele>1514.27118</ele>
        <time>2024-01-12T10:14:21Z</time>
      </trkpt>
      <trkpt lat="42.94092" lon="0.32552">
        <ele>1514.79778</ele>
        <time>2024-01-12T10:14:23Z</time>
      </trkpt>
      <trkpt lat="42.94091" lon="0.32551">
        <ele>1515.08339</ele>
        <time>2024-01-12T10:14:25Z</time>
      </trkpt>
      <trkpt lat="42.94091" lon="0.32549">
        <ele>1515.1395</ele>
        <time>2024-01-12T10:14:27Z</time>
      </trkpt>
      <trkpt lat="42.94091" lon="0.32548">
        <ele>1515.07518</ele>
        <time>2024-01-12T10:14:28Z</time>
      </trkpt>
      <trkpt lat="42.94091" lon="0.32547">
        <ele>1515.30366</ele>
        <time>2024-01-12T10:14:30Z</time>
      </trkpt>
      <trkpt lat="42.94091" lon="0.32543">
        <ele>1514.8615</ele>
        <time>2024-01-12T10:14:32Z</time>
      </trkpt>
      <trkpt lat="42.94089" lon="0.32542">
        <ele>1515.95676</ele>
        <time>2024-01-12T10:14:34Z</time>
      </trkpt>
      <trkpt lat="42.9409" lon="0.32541">
        <ele>1517.00142</ele>
        <time>2024-01-12T10:14:37Z</time>
      </trkpt>
      <trkpt lat="42.9409" lon="0.3254">
        <ele>1517.10222</ele>
        <time>2024-01-12T10:14:38Z</time>
      </trkpt>
      <trkpt lat="42.94089" lon="0.32541">
        <ele>1516.74019</ele>
        <time>2024-01-12T10:14:39Z</time>
      </trkpt>
      <trkpt lat="42.94089" lon="0.32539">
        <ele>1517.32209</ele>
        <time>2024-01-12T10:14:42Z</time>
      </trkpt>
      <trkpt lat="42.94089" lon="0.32537">
        <ele>1519.02351</ele>
        <time>2024-01-12T10:14:44Z</time>
      </trkpt>
      <trkpt lat="42.94088" lon="0.32536">
        <ele>1517.84287</ele>
        <time>2024-01-12T10:14:46Z</time>
      </trkpt>
      <trkpt lat="42.94088" lon="0.32535">
        <ele>1517.95386</ele>
        <time>2024-01-12T10:14:49Z</time>
      </trkpt>
      <trkpt lat="42.94089" lon="0.32533">
        <ele>1517.89409</ele>
        <time>2024-01-12T10:14:50Z</time>
      </trkpt>
      <trkpt lat="42.94088" lon="0.32532">
        <ele>1517.77514</ele>
        <time>2024-01-12T10:14:51Z</time>
      </trkpt>
      <trkpt lat="42.94088" lon="0.32529">
        <ele>1518.83839</ele>
        <time>2024-01-12T10:14:54Z</time>
      </trkpt>
      <trkpt lat="42.94088" lon="0.32528">
        <ele>1518.61803</ele>
        <time>2024-01-12T10:14:55Z</time>
      </trkpt>
      <trkpt lat="42.94087" lon="0.32527">
        <ele>1518.26791</ele>
        <time>2024-01-12T10:14:58Z</time>
      </trkpt>
      <trkpt lat="42.94088" lon="0.32526">
        <ele>1519.17843</ele>
        <time>2024-01-12T10:15:00Z</time>
      </trkpt>
      <trkpt lat="42.94088" lon="0.32524">
        <ele>1518.50911</ele>
        <time>2024-01-12T10:15:01Z</time>
      </trkpt>
      <trkpt lat="42.94087" lon="0.32523">
        <ele>1518.54844</ele>
        <time>2024-01-12T10:15:02Z</time>
      </trkpt>
      <trkpt lat="42.94087" lon="0.32521">
        <ele>1519.86595</ele>
        <time>2024-01-12T10:15:05Z</time>
      </trkpt>
      <trkpt lat="42.94087" lon="0.32519">
        <ele>1518.09808</ele>
        <time>2024-01-12T10:15:07Z</time>
      </trkpt>
      <trkpt lat="42.94086" lon="0.32518">
        <ele>1519.39545</ele>
        <time>2024-01-12T10:15:09Z</time>
      </trkpt>
      <trkpt lat="42.94086" lon="0.32516">
        <ele>1519.41601</ele>
        <time>2024-01-12T10:15:11Z</time>
      </trkpt>
      <trkpt lat="42.94085" lon="0.32514">
        <ele>1520.7327</ele>
        <time>2024-01-12T10:15:14Z</time>
      </trkpt>
      <trkpt lat="42.94084" lon="0.32513">
        <ele>1521.44681</ele>
        <time>2024-01-12T10:15:16Z</time>
      </trkpt>
      <trkpt lat="42.94084" lon="0.32511">
        <ele>1522.09697</ele>
        <time>2024-01-12T10:15:18Z</time>
      </trkpt>
      <trkpt lat="42.94083" lon="0.3251">
        <ele>1521.49049</ele>
        <time>2024-01-12T10:15:20Z</time>
      </trkpt>
      <trkpt lat="42.94082" lon="0.32509">
        <ele>1522.46549</ele>
        <time>2024-01-12T10:15:22Z</time>
      </trkpt>
      <trkpt lat="42.94081" lon="0.32507">
        <ele>1521.73706</ele>
        <time>2024-01-12T10:15:23Z</time>
      </trkpt>
      <trkpt lat="42.94081" lon="0.32506">
        <ele>1523.02177</ele>
        <time>2024-01-12T10:15:25Z</time>
      </trkpt>
      <trkpt lat="42.9408" lon="0.32505">
        <ele>1523.37089</ele>
        <time>2024-01-12T10:15:27Z</time>
      </trkpt>
      <trkpt lat="42.9408" lon="0.32503">
        <ele>1523.48226</ele>
        <time>2024-01-12T10:15:29Z</time>
      </trkpt>
      <trkpt lat="42.9408" lon="0.32501">
        <ele>1523.88366</ele>
        <time>2024-01-12T10:15:31Z</time>
      </trkpt>
      <trkpt lat="42.94079" lon="0.325">
        <ele>1523.53135</ele>
        <time>2024-01-12T10:15:34Z</time>
      </trkpt>
      <trkpt lat="42.94079" lon="0.32499">
        <ele>1523.43696</ele>
        <time>2024-01-12T10:15:35Z</time>
      </trkpt>
      <trkpt lat="42.94079" lon="0.32498">
        <ele>1523.50202</ele>
        <time>2024-01-12T10:15:37Z</time>
      </trkpt>
      <trkpt lat="42.94078" lon="0.32496">
        <ele>1522.87101</ele>
        <time>2024-01-12T10:15:40Z</time>
      </trkpt>
      <trkpt lat="42.94077" lon="0.32495">
        <ele>1522.96918</ele>
        <time>2024-01-12T10:15:41Z</time>
      </trkpt>
      <trkpt lat="42.94077" lon="0.32493">
        <ele>1522.73831</ele>
        <time>2024-01-12T10:15:44Z</time>
      </trkpt>
      <trkpt lat="42.94077" lon="0.32492">
        <ele>1521.99869</ele>
        <time>2024-01-12T10:15:46Z</time>
      </trkpt>
      <trkpt lat="42.94077" lon="0.3249">
        <ele>1522.49388</ele>
        <time>2024-01-12T10:15:49Z</time>
      </trkpt>
      <trkpt lat="42.94077" lon="0.32488">
        <ele>1524.91466</ele>
        <time>2024-01-12T10:15:52Z</time>
      </trkpt>
      <trkpt lat="42.94076" lon="0.32487">
        <ele>1525.09048</ele>
        <time>2024-01-12T10:15:53Z</time>
      </trkpt>
      <trkpt lat="42.94077" lon="0.32486">
        <ele>1523.97378</ele>
        <time>2024-01-12T10:15:56Z</time>
      </trkpt>
      <trkpt lat="42.94077" lon="0.32484">
        <ele>1524.9662</ele>
        <time>2024-01-12T10:15:57Z</time>
      </trkpt>
      <trkpt lat="42.94076" lon="0.32482">
        <ele>1524.78955</ele>
        <time>2024-01-12T10:16:00Z</time>
      </trkpt>
      <trkpt lat="42.94076" lon="0.32481">
        <ele>1525.96734</ele>
        <time>2024-01-12T10:16:02Z</time>
      </trkpt>
      <trkpt lat="42.94076" lon="0.3248">
        <ele>1524.9586</ele>
        <time>2024-01-12T10:16:04Z</time>
      </trkpt>
      <trkpt lat="42.94076" lon="0.32478">
        <ele>1525.75673</ele>
        <time>2024-01-12T10:16:06Z</time>
      </trkpt>
      <trkpt lat="42.94075" lon="0.32477">
        <ele>1524.92256</ele>
        <time>2024-01-12T10:16:08Z</time>
      </trkpt>
      <trkpt lat="42.94074" lon="0.32476">
        <ele>1526.38031</ele>
        <time>2024-01-12T10:16:11Z</time>
      </trkpt>
      <trkpt lat="42.94074" lon="0.32474">
        <ele>1526.49218</ele>
        <time>2024-01-12T10:16:13Z</time>
      </trkpt>
      <trkpt lat="42.94075" lon="0.32472">
        <ele>1526.50595</ele>
        <time>2024-01-12T10:16:15Z</time>
      </trkpt>
      <trkpt lat="42.94073" lon="0.32472">
        <ele>1526.21723</ele>
        <time>2024-01-12T10:16:16Z</time>
      </trkpt>
      <trkpt lat="42.94074" lon="0.3247">
        <ele>1528.33825</ele>
        <time>2024-01-12T10:16:19Z</time>
      </trkpt>
      <trkpt lat="42.94073" lon="0.32469">
        <ele>1528.4323</ele>
        <time>2024-01-12T10:16:20Z</time>
      </trkpt>
      <trkpt lat="42.94073" lon="0.32468">
        <ele>1529.14374</ele>
        <time>2024-01-12T10:16:22Z</time>
      </trkpt>
      <trkpt lat="42.94073" lon="0.32466">
        <ele>1529.53224</ele>
        <time>2024-01-12T10:16:24Z</time>
      </trkpt>
      <trkpt lat="42.94072" lon="0.32465">
        <ele>1529.93168</ele>
        <time>2024-01-12T10:16:26Z</time>
      </trkpt>
      <trkpt lat="42.94071" lon="0.32464">
        <ele>1529.37775</ele>
        <time>2024-01-12T10:16:27Z</time>
      </trkpt>
      <trkpt lat="42.9407" lon="0.32463">
        <ele>1529.56608</ele>
        <time>2024-01-12T10:16:28Z</time>
      </trkpt>
      <trkpt lat="42.94072" lon="0.32462">
        <ele>1530.51487</ele>
        <time>2024-01-12T10:16:29Z</time>
      </trkpt>
      <trkpt lat="42.94072" lon="0.32461">
        <ele>1532.40224</ele>
        <time>2024-01-12T10:16:30Z</time>
      </trkpt>
      <trkpt lat="42.94072" lon="0.32459">
        <ele>1531.7928</ele>
        <time>2024-01-12T10:16:32Z</time>
      </trkpt>
      <trkpt lat="42.94071" lon="0.32458">
        <ele>1533.22988</ele>
        <time>2024-01-12T10:16:35Z</time>
      </trkpt>
      <trkpt lat="42.9407" lon="0.32457">
        <ele>1532.15859</ele>
        <time>2024-01-12T10:16:37Z</time>
      </trkpt>
      <trkpt lat="42.9407" lon="0.32455">
        <ele>1533.23022</ele>
        <time>2024-01-12T10:16:39Z</time>
      </trkpt>
      <trkpt lat="42.94069" lon="0.32454">
        <ele>1532.74031</ele>
        <time>2024-01-12T10:16:41Z</time>
      </trkpt>
      <trkpt lat="42.94069" lon="0.32452">
        <ele>1531.92936</ele>
        <time>2024-01-12T10:16:43Z</time>
      </trkpt>
      <trkpt lat="42.94069" lon="0.32451">
        <ele>1531.50933</ele>
        <time>2024-01-12T10:16:46Z</time>
      </trkpt>
      <trkpt lat="42.94068" lon="0.32449">
        <ele>1531.33372</ele>
        <time>2024-01-12T10:16:48Z</time>
      </trkpt>
      <trkpt lat="42.94068" lon="0.32447">
        <ele>1531.75499</ele>
        <time>2024-01-12T10:16:50Z</time>
      </trkpt>
      <trkpt lat="42.94069" lon="0.32445">
        <ele>1532.70427</ele>
        <time>2024-01-12T10:16:54Z</time>
      </trkpt>
      <trkpt lat="42.94069" lon="0.32444">
        <ele>1532.14505</ele>
        <time>2024-01-12T10:16:56Z</time>
      </trkpt>
      <trkpt lat="42.94068" lon="0.32444">
        <ele>1531.62717</ele>
        <time>2024-01-12T10:16:57Z</time>
      </trkpt>
      <trkpt lat="42.94068" lon="0.32442">
        <ele>1533.9291</ele>
        <time>2024-01-12T10:16:59Z</time>
      </trkpt>
      <trkpt lat="42.94068" lon="0.32441">
        <ele>1533.98871</ele>
        <time>2024-01-12T10:17:03Z</time>
      </trkpt>
      <trkpt lat="42.94067" lon="0.3244">
        <ele>1533.45069</ele>
        <time>2024-01-12T10:17:05Z</time>
      </trkpt>
      <trkpt lat="42.94068" lon="0.3244">
        <ele>1535.35671</ele>
        <time>2024-01-12T10:17:07Z</time>
      </trkpt>
      <trkpt lat="42.94067" lon="0.32438">
        <ele>1537.50314</ele>
        <time>2024-01-12T10:17:09Z</time>
      </trkpt>
      <trkpt lat="42.94068" lon="0.32437">
        <ele>1538.35533</ele>
        <time>2024-01-12T10:17:10Z</time>
      </trkpt>
      <trkpt lat="42.94068" lon="0.32436">
        <ele>1538.99993</ele>
        <time>2024-01-12T10:17:12Z</time>
      </trkpt>
      <trkpt lat="42.94067" lon="0.32436">
        <ele>1538.60255</ele>
        <time>2024-01-12T10:17:13Z</time>
      </trkpt>
      <trkpt lat="42.94066" lon="0.32436">
        <ele>1538.6055</ele>
        <time>2024-01-12T10:17:14Z</time>
      </trkpt>
      <trkpt lat="42.94065" lon="0.32434">
        <ele>1537.52749</ele>
        <time>2024-01-12T10:17:16Z</time>
      </trkpt>
      <trkpt lat="42.94066" lon="0.32432">
        <ele>1538.20339</ele>
        <time>2024-01-12T10:17:18Z</time>
      </trkpt>
      <trkpt lat="42.94067" lon="0.32431">
        <ele>1541.83804</ele>
        <time>2024-01-12T10:17:20Z</time>
      </trkpt>
      <trkpt lat="42.94066" lon="0.3243">
        <ele>1539.25257</ele>
        <time>2024-01-12T10:17:21Z</time>
      </trkpt>
      <trkpt lat="42.94065" lon="0.3243">
        <ele>1539.40444</ele>
        <time>2024-01-12T10:17:22Z</time>
      </trkpt>
      <trkpt lat="42.94064" lon="0.32429">
        <ele>1540.94965</ele>
        <time>2024-01-12T10:17:26Z</time>
      </trkpt>
      <trkpt lat="42.94063" lon="0.32429">
        <ele>1540.98944</ele>
        <time>2024-01-12T10:17:27Z</time>
      </trkpt>
      <trkpt lat="42.94064" lon="0.32427">
        <ele>1538.58812</ele>
        <time>2024-01-12T10:17:30Z</time>
      </trkpt>
      <trkpt lat="42.94063" lon="0.32426">
        <ele>1540.56804</ele>
        <time>2024-01-12T10:17:33Z</time>
      </trkpt>
      <trkpt lat="42.94062" lon="0.32426">
        <ele>1542.47266</ele>
        <time>2024-01-12T10:17:35Z</time>
      </trkpt>
      <trkpt lat="42.94061" lon="0.32425">
        <ele>1541.82748</ele>
        <time>2024-01-12T10:17:37Z</time>
      </trkpt>
      <trkpt lat="42.9406" lon="0.32424">
        <ele>1542.23718</ele>
        <time>2024-01-12T10:17:38Z</time>
      </trkpt>
      <trkpt lat="42.94059" lon="0.32424">
        <ele>1542.05979</ele>
        <time>2024-01-12T10:17:41Z</time>
      </trkpt>
      <trkpt lat="42.94059" lon="0.32423">
        <ele>1540.9191</ele>
        <time>2024-01-12T10:17:43Z</time>
      </trkpt>
      <trkpt lat="42.94057" lon="0.32421">
        <ele>1541.29971</ele>
        <time>2024-01-12T10:17:45Z</time>
      </trkpt>
      <trkpt lat="42.94056" lon="0.32419">
        <ele>1539.72755</ele>
        <time>2024-01-12T10:17:50Z</time>
      </trkpt>
      <trkpt lat="42.94056" lon="0.32418">
        <ele>1542.09907</ele>
        <time>2024-01-12T10:17:54Z</time>
      </trkpt>
      <trkpt lat="42.94055" lon="0.32417">
        <ele>1541.0651</ele>
        <time>2024-01-12T10:17:56Z</time>
      </trkpt>
      <trkpt lat="42.94054" lon="0.32415">
        <ele>1540.12037</ele>
        <time>2024-01-12T10:17:58Z</time>
      </trkpt>
      <trkpt lat="42.94053" lon="0.32415">
        <ele>1541.08288</ele>
        <time>2024-01-12T10:18:02Z</time>
      </trkpt>
      <trkpt lat="42.94052" lon="0.32414">
        <ele>1542.59817</ele>
        <time>2024-01-12T10:18:03Z</time>
      </trkpt>
      <trkpt lat="42.94053" lon="0.32413">
        <ele>1544.02238</ele>
        <time>2024-01-12T10:18:05Z</time>
      </trkpt>
      <trkpt lat="42.94053" lon="0.32412">
        <ele>1544.79491</ele>
        <time>2024-01-12T10:18:06Z</time>
      </trkpt>
      <trkpt lat="42.94054" lon="0.32411">
        <ele>1545.35118</ele>
        <time>2024-01-12T10:18:07Z</time>
      </trkpt>
      <trkpt lat="42.94053" lon="0.32409">
        <ele>1545.48848</ele>
        <time>2024-01-12T10:18:08Z</time>
      </trkpt>
      <trkpt lat="42.94053" lon="0.32408">
        <ele>1544.55095</ele>
        <time>2024-01-12T10:18:11Z</time>
      </trkpt>
      <trkpt lat="42.94052" lon="0.32407">
        <ele>1542.46373</ele>
        <time>2024-01-12T10:18:12Z</time>
      </trkpt>
      <trkpt lat="42.94051" lon="0.32405">
        <ele>1542.37038</ele>
        <time>2024-01-12T10:18:14Z</time>
      </trkpt>
      <trkpt lat="42.9405" lon="0.32403">
        <ele>1541.07786</ele>
        <time>2024-01-12T10:18:16Z</time>
      </trkpt>
      <trkpt lat="42.9405" lon="0.324">
        <ele>1541.49798</ele>
        <time>2024-01-12T10:18:19Z</time>
      </trkpt>
      <trkpt lat="42.94049" lon="0.32399">
        <ele>1542.45841</ele>
        <time>2024-01-12T10:18:22Z</time>
      </trkpt>
      <trkpt lat="42.94049" lon="0.32397">
        <ele>1541.46441</ele>
        <time>2024-01-12T10:18:24Z</time>
      </trkpt>
      <trkpt lat="42.94047" lon="0.32396">
        <ele>1541.93133</ele>
        <time>2024-01-12T10:18:25Z</time>
      </trkpt>
      <trkpt lat="42.94047" lon="0.32395">
        <ele>1542.25238</ele>
        <time>2024-01-12T10:18:27Z</time>
      </trkpt>
      <trkpt lat="42.94047" lon="0.32393">
        <ele>1542.31439</ele>
        <time>2024-01-12T10:18:28Z</time>
      </trkpt>
      <trkpt lat="42.94046" lon="0.32392">
        <ele>1541.84875</ele>
        <time>2024-01-12T10:18:31Z</time>
      </trkpt>
      <trkpt lat="42.94046" lon="0.32391">
        <ele>1542.77953</ele>
        <time>2024-01-12T10:18:32Z</time>
      </trkpt>
      <trkpt lat="42.94046" lon="0.32389">
        <ele>1543.40047</ele>
        <time>2024-01-12T10:18:35Z</time>
      </trkpt>
      <trkpt lat="42.94045" lon="0.32387">
        <ele>1544.20918</ele>
        <time>2024-01-12T10:18:37Z</time>
      </trkpt>
      <trkpt lat="42.94044" lon="0.32386">
        <ele>1545.13895</ele>
        <time>2024-01-12T10:18:39Z</time>
      </trkpt>
      <trkpt lat="42.94043" lon="0.32386">
        <ele>1546.78566</ele>
        <time>2024-01-12T10:18:40Z</time>
      </trkpt>
      <trkpt lat="42.94043" lon="0.32385">
        <ele>1548.51898</ele>
        <time>2024-01-12T10:18:43Z</time>
      </trkpt>
      <trkpt lat="42.94042" lon="0.32384">
        <ele>1549.81498</ele>
        <time>2024-01-12T10:18:45Z</time>
      </trkpt>
      <trkpt lat="42.9404" lon="0.32382">
        <ele>1550.48045</ele>
        <time>2024-01-12T10:18:51Z</time>
      </trkpt>
      <trkpt lat="42.94039" lon="0.32382">
        <ele>1551.22139</ele>
        <time>2024-01-12T10:18:53Z</time>
      </trkpt>
      <trkpt lat="42.94038" lon="0.3238">
        <ele>1553.22282</ele>
        <time>2024-01-12T10:18:55Z</time>
      </trkpt>
      <trkpt lat="42.94039" lon="0.32379">
        <ele>1553.02462</ele>
        <time>2024-01-12T10:18:57Z</time>
      </trkpt>
      <trkpt lat="42.94038" lon="0.32377">
        <ele>1554.53075</ele>
        <time>2024-01-12T10:18:59Z</time>
      </trkpt>
      <trkpt lat="42.94037" lon="0.32376">
        <ele>1553.43843</ele>
        <time>2024-01-12T10:19:02Z</time>
      </trkpt>
      <trkpt lat="42.94036" lon="0.32375">
        <ele>1554.48079</ele>
        <time>2024-01-12T10:19:06Z</time>
      </trkpt>
      <trkpt lat="42.94036" lon="0.32374">
        <ele>1553.93431</ele>
        <time>2024-01-12T10:19:10Z</time>
      </trkpt>
      <trkpt lat="42.94035" lon="0.32374">
        <ele>1553.13614</ele>
        <time>2024-01-12T10:19:12Z</time>
      </trkpt>
      <trkpt lat="42.94033" lon="0.32373">
        <ele>1551.53255</ele>
        <time>2024-01-12T10:19:13Z</time>
      </trkpt>
      <trkpt lat="42.94032" lon="0.32372">
        <ele>1555.08786</ele>
        <time>2024-01-12T10:19:17Z</time>
      </trkpt>
      <trkpt lat="42.9403" lon="0.32372">
        <ele>1555.08418</ele>
        <time>2024-01-12T10:19:18Z</time>
      </trkpt>
      <trkpt lat="42.94029" lon="0.32371">
        <ele>1559.09735</ele>
        <time>2024-01-12T10:19:23Z</time>
      </trkpt>
      <trkpt lat="42.94028" lon="0.3237">
        <ele>1556.16745</ele>
        <time>2024-01-12T10:19:24Z</time>
      </trkpt>
      <trkpt lat="42.94027" lon="0.32368">
        <ele>1556.16205</ele>
        <time>2024-01-12T10:19:28Z</time>
      </trkpt>
      <trkpt lat="42.94026" lon="0.32367">
        <ele>1558.81015</ele>
        <time>2024-01-12T10:19:32Z</time>
      </trkpt>
      <trkpt lat="42.94026" lon="0.32366">
        <ele>1559.84271</ele>
        <time>2024-01-12T10:19:34Z</time>
      </trkpt>
      <trkpt lat="42.94025" lon="0.32366">
        <ele>1557.25407</ele>
        <time>2024-01-12T10:19:37Z</time>
      </trkpt>
      <trkpt lat="42.94022" lon="0.32365">
        <ele>1555.35324</ele>
        <time>2024-01-12T10:19:39Z</time>
      </trkpt>
      <trkpt lat="42.94021" lon="0.32365">
        <ele>1556.76194</ele>
        <time>2024-01-12T10:19:43Z</time>
      </trkpt>
      <trkpt lat="42.94019" lon="0.32365">
        <ele>1557.31319</ele>
        <time>2024-01-12T10:19:45Z</time>
      </trkpt>
      <trkpt lat="42.94018" lon="0.32366">
        <ele>1558.59111</ele>
        <time>2024-01-12T10:19:46Z</time>
      </trkpt>
      <trkpt lat="42.94017" lon="0.32365">
        <ele>1557.91821</ele>
        <time>2024-01-12T10:19:47Z</time>
      </trkpt>
      <trkpt lat="42.94016" lon="0.32364">
        <ele>1557.61164</ele>
        <time>2024-01-12T10:19:49Z</time>
      </trkpt>
      <trkpt lat="42.94014" lon="0.32364">
        <ele>1557.26699</ele>
        <time>2024-01-12T10:19:51Z</time>
      </trkpt>
      <trkpt lat="42.94013" lon="0.32364">
        <ele>1556.88468</ele>
        <time>2024-01-12T10:19:53Z</time>
      </trkpt>
      <trkpt lat="42.94012" lon="0.32363">
        <ele>1558.09711</ele>
        <time>2024-01-12T10:19:54Z</time>
      </trkpt>
      <trkpt lat="42.94011" lon="0.32362">
        <ele>1557.89634</ele>
        <time>2024-01-12T10:19:55Z</time>
      </trkpt>
      <trkpt lat="42.94011" lon="0.32361">
        <ele>1558.32216</ele>
        <time>2024-01-12T10:19:56Z</time>
      </trkpt>
      <trkpt lat="42.9401" lon="0.32361">
        <ele>1558.8659</ele>
        <time>2024-01-12T10:19:57Z</time>
      </trkpt>
      <trkpt lat="42.94008" lon="0.32361">
        <ele>1559.95037</ele>
        <time>2024-01-12T10:19:59Z</time>
      </trkpt>
      <trkpt lat="42.94008" lon="0.32361">
        <ele>1560.32655</ele>
        <time>2024-01-12T10:20:00Z</time>
      </trkpt>
      <trkpt lat="42.94006" lon="0.32361">
        <ele>1560.00568</ele>
        <time>2024-01-12T10:20:03Z</time>
      </trkpt>
      <trkpt lat="42.94005" lon="0.32363">
        <ele>1559.61511</ele>
        <time>2024-01-12T10:20:05Z</time>
      </trkpt>
      <trkpt lat="42.94004" lon="0.32363">
        <ele>1559.49969</ele>
        <time>2024-01-12T10:20:07Z</time>
      </trkpt>
      <trkpt lat="42.94002" lon="0.32363">
        <ele>1559.68514</ele>
        <time>2024-01-12T10:20:09Z</time>
      </trkpt>
      <trkpt lat="42.94" lon="0.32364">
        <ele>1561.31395</ele>
        <time>2024-01-12T10:20:12Z</time>
      </trkpt>
      <trkpt lat="42.93999" lon="0.32363">
        <ele>1562.42843</ele>
        <time>2024-01-12T10:20:14Z</time>
      </trkpt>
      <trkpt lat="42.93998" lon="0.32363">
        <ele>1564.19005</ele>
        <time>2024-01-12T10:20:17Z</time>
      </trkpt>
      <trkpt lat="42.93997" lon="0.32364">
        <ele>1564.70932</ele>
        <time>2024-01-12T10:20:19Z</time>
      </trkpt>
      <trkpt lat="42.93996" lon="0.32364">
        <ele>1563.71406</ele>
        <time>2024-01-12T10:20:22Z</time>
      </trkpt>
      <trkpt lat="42.93994" lon="0.32364">
        <ele>1563.70065</ele>
        <time>2024-01-12T10:20:25Z</time>
      </trkpt>
      <trkpt lat="42.93992" lon="0.32365">
        <ele>1563.83379</ele>
        <time>2024-01-12T10:20:27Z</time>
      </trkpt>
      <trkpt lat="42.9399" lon="0.32366">
        <ele>1564.87789</ele>
        <time>2024-01-12T10:20:29Z</time>
      </trkpt>
      <trkpt lat="42.93988" lon="0.32365">
        <ele>1566.92252</ele>
        <time>2024-01-12T10:20:32Z</time>
      </trkpt>
      <trkpt lat="42.93987" lon="0.32365">
        <ele>1567.69513</ele>
        <time>2024-01-12T10:20:34Z</time>
      </trkpt>
      <trkpt lat="42.93986" lon="0.32364">
        <ele>1569.56801</ele>
        <time>2024-01-12T10:20:36Z</time>
      </trkpt>
      <trkpt lat="42.93985" lon="0.32364">
        <ele>1570.31692</ele>
        <time>2024-01-12T10:20:39Z</time>
      </trkpt>
      <trkpt lat="42.93984" lon="0.32363">
        <ele>1570.73367</ele>
        <time>2024-01-12T10:20:41Z</time>
      </trkpt>
      <trkpt lat="42.93986" lon="0.32364">
        <ele>1569.26865</ele>
        <time>2024-01-12T10:20:49Z</time>
      </trkpt>
      <trkpt lat="42.93985" lon="0.32363">
        <ele>1568.85308</ele>
        <time>2024-01-12T10:20:52Z</time>
      </trkpt>
      <trkpt lat="42.93986" lon="0.32364">
        <ele>1570.58749</ele>
        <time>2024-01-12T10:20:53Z</time>
      </trkpt>
      <trkpt lat="42.93985" lon="0.32364">
        <ele>1570.34456</ele>
        <time>2024-01-12T10:20:57Z</time>
      </trkpt>
      <trkpt lat="42.93984" lon="0.32363">
        <ele>1571.581</ele>
        <time>2024-01-12T10:21:00Z</time>
      </trkpt>
      <trkpt lat="42.93983" lon="0.32363">
        <ele>1577.0158</ele>
        <time>2024-01-12T10:21:06Z</time>
      </trkpt>
      <trkpt lat="42.93984" lon="0.32365">
        <ele>1573.99777</ele>
        <time>2024-01-12T10:21:15Z</time>
      </trkpt>
      <trkpt lat="42.93984" lon="0.32363">
        <ele>1571.30206</ele>
        <time>2024-01-12T10:21:19Z</time>
      </trkpt>
      <trkpt lat="42.93985" lon="0.32362">
        <ele>1572.31573</ele>
        <time>2024-01-12T10:21:22Z</time>
      </trkpt>
      <trkpt lat="42.93986" lon="0.32363">
        <ele>1571.25206</ele>
        <time>2024-01-12T10:21:39Z</time>
      </trkpt>
      <trkpt lat="42.93988" lon="0.32363">
        <ele>1565.97944</ele>
        <time>2024-01-12T10:21:48Z</time>
      </trkpt>
      <trkpt lat="42.93989" lon="0.32365">
        <ele>1561.55397</ele>
        <time>2024-01-12T10:21:56Z</time>
      </trkpt>
      <trkpt lat="42.93988" lon="0.32363">
        <ele>1564.69204</ele>
        <time>2024-01-12T10:21:59Z</time>
      </trkpt>
      <trkpt lat="42.93987" lon="0.32363">
        <ele>1565.50059</ele>
        <time>2024-01-12T10:22:04Z</time>
      </trkpt>
      <trkpt lat="42.93989" lon="0.32362">
        <ele>1567.12987</ele>
        <time>2024-01-12T10:22:17Z</time>
      </trkpt>
      <trkpt lat="42.9399" lon="0.32363">
        <ele>1563.11374</ele>
        <time>2024-01-12T10:22:19Z</time>
      </trkpt>
      <trkpt lat="42.9399" lon="0.32361">
        <ele>1568.42903</ele>
        <time>2024-01-12T10:22:39Z</time>
      </trkpt>
      <trkpt lat="42.93989" lon="0.3236">
        <ele>1568.75879</ele>
        <time>2024-01-12T10:22:45Z</time>
      </trkpt>
      <trkpt lat="42.93988" lon="0.3236">
        <ele>1569.46869</ele>
        <time>2024-01-12T10:22:48Z</time>
      </trkpt>
      <trkpt lat="42.93987" lon="0.3236">
        <ele>1569.99186</ele>
        <time>2024-01-12T10:22:50Z</time>
      </trkpt>
      <trkpt lat="42.93985" lon="0.3236">
        <ele>1570.09204</ele>
        <time>2024-01-12T10:22:52Z</time>
      </trkpt>
      <trkpt lat="42.93984" lon="0.3236">
        <ele>1569.54725</ele>
        <time>2024-01-12T10:22:54Z</time>
      </trkpt>
      <trkpt lat="42.93983" lon="0.32359">
        <ele>1570.15199</ele>
        <time>2024-01-12T10:22:56Z</time>
      </trkpt>
      <trkpt lat="42.93982" lon="0.32359">
        <ele>1569.92698</ele>
        <time>2024-01-12T10:22:57Z</time>
      </trkpt>
      <trkpt lat="42.9398" lon="0.3236">
        <ele>1569.29023</ele>
        <time>2024-01-12T10:22:59Z</time>
      </trkpt>
      <trkpt lat="42.93979" lon="0.32361">
        <ele>1569.27243</ele>
        <time>2024-01-12T10:23:01Z</time>
      </trkpt>
      <trkpt lat="42.93978" lon="0.32361">
        <ele>1568.97025</ele>
        <time>2024-01-12T10:23:03Z</time>
      </trkpt>
      <trkpt lat="42.93977" lon="0.32362">
        <ele>1567.77556</ele>
        <time>2024-01-12T10:23:06Z</time>
      </trkpt>
      <trkpt lat="42.93975" lon="0.32361">
        <ele>1565.87279</ele>
        <time>2024-01-12T10:23:09Z</time>
      </trkpt>
      <trkpt lat="42.93973" lon="0.32363">
        <ele>1567.47908</ele>
        <time>2024-01-12T10:23:11Z</time>
      </trkpt>
      <trkpt lat="42.93972" lon="0.32361">
        <ele>1567.62252</ele>
        <time>2024-01-12T10:23:14Z</time>
      </trkpt>
      <trkpt lat="42.9397" lon="0.3236">
        <ele>1568.52426</ele>
        <time>2024-01-12T10:23:17Z</time>
      </trkpt>
      <trkpt lat="42.93969" lon="0.3236">
        <ele>1568.16461</ele>
        <time>2024-01-12T10:23:18Z</time>
      </trkpt>
      <trkpt lat="42.93969" lon="0.32361">
        <ele>1568.31576</ele>
        <time>2024-01-12T10:23:19Z</time>
      </trkpt>
      <trkpt lat="42.93968" lon="0.32362">
        <ele>1568.5557</ele>
        <time>2024-01-12T10:23:21Z</time>
      </trkpt>
      <trkpt lat="42.93967" lon="0.3236">
        <ele>1569.92732</ele>
        <time>2024-01-12T10:23:22Z</time>
      </trkpt>
      <trkpt lat="42.93966" lon="0.3236">
        <ele>1570.62923</ele>
        <time>2024-01-12T10:23:26Z</time>
      </trkpt>
      <trkpt lat="42.93965" lon="0.32359">
        <ele>1570.805</ele>
        <time>2024-01-12T10:23:27Z</time>
      </trkpt>
      <trkpt lat="42.93965" lon="0.3236">
        <ele>1570.4412</ele>
        <time>2024-01-12T10:23:28Z</time>
      </trkpt>
      <trkpt lat="42.93964" lon="0.3236">
        <ele>1571.63008</ele>
        <time>2024-01-12T10:23:31Z</time>
      </trkpt>
      <trkpt lat="42.93963" lon="0.32359">
        <ele>1572.28874</ele>
        <time>2024-01-12T10:23:34Z</time>
      </trkpt>
      <trkpt lat="42.93962" lon="0.32359">
        <ele>1571.56754</ele>
        <time>2024-01-12T10:23:35Z</time>
      </trkpt>
      <trkpt lat="42.93961" lon="0.3236">
        <ele>1570.97971</ele>
        <time>2024-01-12T10:23:37Z</time>
      </trkpt>
      <trkpt lat="42.9396" lon="0.32361">
        <ele>1570.53508</ele>
        <time>2024-01-12T10:23:39Z</time>
      </trkpt>
      <trkpt lat="42.93959" lon="0.3236">
        <ele>1571.55724</ele>
        <time>2024-01-12T10:23:43Z</time>
      </trkpt>
      <trkpt lat="42.93957" lon="0.3236">
        <ele>1571.20818</ele>
        <time>2024-01-12T10:23:46Z</time>
      </trkpt>
      <trkpt lat="42.93956" lon="0.3236">
        <ele>1569.64035</ele>
        <time>2024-01-12T10:23:47Z</time>
      </trkpt>
      <trkpt lat="42.93955" lon="0.3236">
        <ele>1569.90465</ele>
        <time>2024-01-12T10:23:48Z</time>
      </trkpt>
      <trkpt lat="42.93954" lon="0.32359">
        <ele>1569.97241</ele>
        <time>2024-01-12T10:23:50Z</time>
      </trkpt>
      <trkpt lat="42.93953" lon="0.32359">
        <ele>1569.47985</ele>
        <time>2024-01-12T10:23:51Z</time>
      </trkpt>
      <trkpt lat="42.93952" lon="0.32358">
        <ele>1569.35753</ele>
        <time>2024-01-12T10:23:52Z</time>
      </trkpt>
      <trkpt lat="42.93952" lon="0.32358">
        <ele>1569.64894</ele>
        <time>2024-01-12T10:23:53Z</time>
      </trkpt>
      <trkpt lat="42.9395" lon="0.32358">
        <ele>1570.04504</ele>
        <time>2024-01-12T10:23:57Z</time>
      </trkpt>
      <trkpt lat="42.93949" lon="0.32357">
        <ele>1571.10685</ele>
        <time>2024-01-12T10:24:00Z</time>
      </trkpt>
      <trkpt lat="42.93949" lon="0.32356">
        <ele>1571.53053</ele>
        <time>2024-01-12T10:24:01Z</time>
      </trkpt>
      <trkpt lat="42.93948" lon="0.32357">
        <ele>1571.28496</ele>
        <time>2024-01-12T10:24:03Z</time>
      </trkpt>
      <trkpt lat="42.93947" lon="0.32358">
        <ele>1573.33855</ele>
        <time>2024-01-12T10:24:06Z</time>
      </trkpt>
      <trkpt lat="42.93946" lon="0.32357">
        <ele>1573.08984</ele>
        <time>2024-01-12T10:24:07Z</time>
      </trkpt>
      <trkpt lat="42.93945" lon="0.32358">
        <ele>1572.12706</ele>
        <time>2024-01-12T10:24:08Z</time>
      </trkpt>
      <trkpt lat="42.93943" lon="0.32358">
        <ele>1572.07757</ele>
        <time>2024-01-12T10:24:10Z</time>
      </trkpt>
      <trkpt lat="42.93942" lon="0.32358">
        <ele>1573.2436</ele>
        <time>2024-01-12T10:24:11Z</time>
      </trkpt>
      <trkpt lat="42.9394" lon="0.32357">
        <ele>1574.12411</ele>
        <time>2024-01-12T10:24:13Z</time>
      </trkpt>
      <trkpt lat="42.93939" lon="0.32355">
        <ele>1573.99896</ele>
        <time>2024-01-12T10:24:14Z</time>
      </trkpt>
      <trkpt lat="42.93938" lon="0.32355">
        <ele>1574.45109</ele>
        <time>2024-01-12T10:24:16Z</time>
      </trkpt>
      <trkpt lat="42.93937" lon="0.32356">
        <ele>1574.73222</ele>
        <time>2024-01-12T10:24:18Z</time>
      </trkpt>
      <trkpt lat="42.93936" lon="0.32356">
        <ele>1574.6674</ele>
        <time>2024-01-12T10:24:19Z</time>
      </trkpt>
      <trkpt lat="42.93935" lon="0.32356">
        <ele>1576.06164</ele>
        <time>2024-01-12T10:24:21Z</time>
      </trkpt>
      <trkpt lat="42.93934" lon="0.32357">
        <ele>1575.72474</ele>
        <time>2024-01-12T10:24:23Z</time>
      </trkpt>
      <trkpt lat="42.93933" lon="0.32357">
        <ele>1575.79014</ele>
        <time>2024-01-12T10:24:24Z</time>
      </trkpt>
      <trkpt lat="42.93932" lon="0.32356">
        <ele>1577.15759</ele>
        <time>2024-01-12T10:24:26Z</time>
      </trkpt>
      <trkpt lat="42.93931" lon="0.32357">
        <ele>1577.12154</ele>
        <time>2024-01-12T10:24:28Z</time>
      </trkpt>
      <trkpt lat="42.93929" lon="0.32357">
        <ele>1577.5952</ele>
        <time>2024-01-12T10:24:30Z</time>
      </trkpt>
      <trkpt lat="42.93929" lon="0.32357">
        <ele>1577.37041</ele>
        <time>2024-01-12T10:24:32Z</time>
      </trkpt>
      <trkpt lat="42.93927" lon="0.32357">
        <ele>1576.85027</ele>
        <time>2024-01-12T10:24:34Z</time>
      </trkpt>
      <trkpt lat="42.93925" lon="0.32357">
        <ele>1577.49476</ele>
        <time>2024-01-12T10:24:35Z</time>
      </trkpt>
      <trkpt lat="42.93924" lon="0.32357">
        <ele>1579.07622</ele>
        <time>2024-01-12T10:24:37Z</time>
      </trkpt>
      <trkpt lat="42.93923" lon="0.32357">
        <ele>1578.10496</ele>
        <time>2024-01-12T10:24:39Z</time>
      </trkpt>
      <trkpt lat="42.93922" lon="0.32357">
        <ele>1576.68518</ele>
        <time>2024-01-12T10:24:41Z</time>
      </trkpt>
      <trkpt lat="42.93921" lon="0.32357">
        <ele>1576.14718</ele>
        <time>2024-01-12T10:24:43Z</time>
      </trkpt>
      <trkpt lat="42.93919" lon="0.32357">
        <ele>1576.62804</ele>
        <time>2024-01-12T10:24:46Z</time>
      </trkpt>
      <trkpt lat="42.93919" lon="0.32357">
        <ele>1573.43841</ele>
        <time>2024-01-12T10:24:47Z</time>
      </trkpt>
      <trkpt lat="42.93918" lon="0.32358">
        <ele>1574.24946</ele>
        <time>2024-01-12T10:24:50Z</time>
      </trkpt>
      <trkpt lat="42.93917" lon="0.32357">
        <ele>1575.92922</ele>
        <time>2024-01-12T10:24:52Z</time>
      </trkpt>
      <trkpt lat="42.93915" lon="0.32357">
        <ele>1576.04128</ele>
        <time>2024-01-12T10:24:54Z</time>
      </trkpt>
      <trkpt lat="42.93914" lon="0.32357">
        <ele>1576.04082</ele>
        <time>2024-01-12T10:24:56Z</time>
      </trkpt>
      <trkpt lat="42.93912" lon="0.32358">
        <ele>1576.67348</ele>
        <time>2024-01-12T10:24:58Z</time>
      </trkpt>
      <trkpt lat="42.93911" lon="0.32359">
        <ele>1578.02946</ele>
        <time>2024-01-12T10:25:00Z</time>
      </trkpt>
      <trkpt lat="42.9391" lon="0.32359">
        <ele>1578.43567</ele>
        <time>2024-01-12T10:25:01Z</time>
      </trkpt>
      <trkpt lat="42.93909" lon="0.32359">
        <ele>1579.43482</ele>
        <time>2024-01-12T10:25:03Z</time>
      </trkpt>
      <trkpt lat="42.93908" lon="0.32359">
        <ele>1580.24871</ele>
        <time>2024-01-12T10:25:04Z</time>
      </trkpt>
      <trkpt lat="42.93906" lon="0.3236">
        <ele>1578.23894</ele>
        <time>2024-01-12T10:25:06Z</time>
      </trkpt>
      <trkpt lat="42.93905" lon="0.3236">
        <ele>1580.39446</ele>
        <time>2024-01-12T10:25:08Z</time>
      </trkpt>
      <trkpt lat="42.93904" lon="0.3236">
        <ele>1581.86983</ele>
        <time>2024-01-12T10:25:09Z</time>
      </trkpt>
      <trkpt lat="42.93902" lon="0.32358">
        <ele>1582.87072</ele>
        <time>2024-01-12T10:25:11Z</time>
      </trkpt>
      <trkpt lat="42.93901" lon="0.32358">
        <ele>1580.13254</ele>
        <time>2024-01-12T10:25:13Z</time>
      </trkpt>
      <trkpt lat="42.939" lon="0.32358">
        <ele>1581.68641</ele>
        <time>2024-01-12T10:25:15Z</time>
      </trkpt>
      <trkpt lat="42.93899" lon="0.32358">
        <ele>1582.11748</ele>
        <time>2024-01-12T10:25:16Z</time>
      </trkpt>
      <trkpt lat="42.93898" lon="0.32358">
        <ele>1582.19146</ele>
        <time>2024-01-12T10:25:17Z</time>
      </trkpt>
      <trkpt lat="42.93896" lon="0.32358">
        <ele>1582.4905</ele>
        <time>2024-01-12T10:25:19Z</time>
      </trkpt>
      <trkpt lat="42.93895" lon="0.32357">
        <ele>1584.34834</ele>
        <time>2024-01-12T10:25:22Z</time>
      </trkpt>
      <trkpt lat="42.93894" lon="0.32356">
        <ele>1585.9126</ele>
        <time>2024-01-12T10:25:24Z</time>
      </trkpt>
      <trkpt lat="42.93893" lon="0.32356">
        <ele>1584.1513</ele>
        <time>2024-01-12T10:25:25Z</time>
      </trkpt>
      <trkpt lat="42.93892" lon="0.32356">
        <ele>1582.24162</ele>
        <time>2024-01-12T10:25:28Z</time>
      </trkpt>
      <trkpt lat="42.9389" lon="0.32355">
        <ele>1583.24119</ele>
        <time>2024-01-12T10:25:30Z</time>
      </trkpt>
      <trkpt lat="42.93889" lon="0.32355">
        <ele>1583.69173</ele>
        <time>2024-01-12T10:25:32Z</time>
      </trkpt>
      <trkpt lat="42.93887" lon="0.32354">
        <ele>1584.66234</ele>
        <time>2024-01-12T10:25:34Z</time>
      </trkpt>
      <trkpt lat="42.93886" lon="0.32353">
        <ele>1584.85216</ele>
        <time>2024-01-12T10:25:36Z</time>
      </trkpt>
      <trkpt lat="42.93885" lon="0.32353">
        <ele>1584.28415</ele>
        <time>2024-01-12T10:25:37Z</time>
      </trkpt>
      <trkpt lat="42.93884" lon="0.32352">
        <ele>1584.11476</ele>
        <time>2024-01-12T10:25:38Z</time>
      </trkpt>
      <trkpt lat="42.93883" lon="0.32352">
        <ele>1583.64554</ele>
        <time>2024-01-12T10:25:40Z</time>
      </trkpt>
      <trkpt lat="42.93882" lon="0.32351">
        <ele>1584.09328</ele>
        <time>2024-01-12T10:25:42Z</time>
      </trkpt>
      <trkpt lat="42.93879" lon="0.3235">
        <ele>1584.80996</ele>
        <time>2024-01-12T10:25:46Z</time>
      </trkpt>
      <trkpt lat="42.93878" lon="0.32349">
        <ele>1584.058</ele>
        <time>2024-01-12T10:25:48Z</time>
      </trkpt>
      <trkpt lat="42.93877" lon="0.32348">
        <ele>1583.85711</ele>
        <time>2024-01-12T10:25:50Z</time>
      </trkpt>
      <trkpt lat="42.93876" lon="0.32347">
        <ele>1582.85599</ele>
        <time>2024-01-12T10:25:52Z</time>
      </trkpt>
      <trkpt lat="42.93875" lon="0.32346">
        <ele>1582.97386</ele>
        <time>2024-01-12T10:25:54Z</time>
      </trkpt>
      <trkpt lat="42.93874" lon="0.32346">
        <ele>1581.71848</ele>
        <time>2024-01-12T10:25:56Z</time>
      </trkpt>
      <trkpt lat="42.93872" lon="0.32346">
        <ele>1582.0379</ele>
        <time>2024-01-12T10:25:59Z</time>
      </trkpt>
      <trkpt lat="42.93871" lon="0.32345">
        <ele>1583.8128</ele>
        <time>2024-01-12T10:26:01Z</time>
      </trkpt>
      <trkpt lat="42.93871" lon="0.32344">
        <ele>1585.26728</ele>
        <time>2024-01-12T10:26:02Z</time>
      </trkpt>
      <trkpt lat="42.9387" lon="0.32342">
        <ele>1585.15521</ele>
        <time>2024-01-12T10:26:04Z</time>
      </trkpt>
      <trkpt lat="42.93869" lon="0.32342">
        <ele>1583.51202</ele>
        <time>2024-01-12T10:26:06Z</time>
      </trkpt>
      <trkpt lat="42.93867" lon="0.32342">
        <ele>1582.58008</ele>
        <time>2024-01-12T10:26:08Z</time>
      </trkpt>
      <trkpt lat="42.93866" lon="0.32342">
        <ele>1583.28052</ele>
        <time>2024-01-12T10:26:10Z</time>
      </trkpt>
      <trkpt lat="42.93865" lon="0.32342">
        <ele>1584.20719</ele>
        <time>2024-01-12T10:26:12Z</time>
      </trkpt>
      <trkpt lat="42.93863" lon="0.3234">
        <ele>1584.32793</ele>
        <time>2024-01-12T10:26:14Z</time>
      </trkpt>
      <trkpt lat="42.93863" lon="0.32339">
        <ele>1585.63282</ele>
        <time>2024-01-12T10:26:18Z</time>
      </trkpt>
      <trkpt lat="42.93861" lon="0.32338">
        <ele>1584.30629</ele>
        <time>2024-01-12T10:26:19Z</time>
      </trkpt>
      <trkpt lat="42.9386" lon="0.32336">
        <ele>1583.25968</ele>
        <time>2024-01-12T10:26:20Z</time>
      </trkpt>
      <trkpt lat="42.93859" lon="0.32336">
        <ele>1582.84878</ele>
        <time>2024-01-12T10:26:22Z</time>
      </trkpt>
      <trkpt lat="42.93857" lon="0.32336">
        <ele>1581.03128</ele>
        <time>2024-01-12T10:26:23Z</time>
      </trkpt>
      <trkpt lat="42.93856" lon="0.32335">
        <ele>1581.92836</ele>
        <time>2024-01-12T10:26:25Z</time>
      </trkpt>
      <trkpt lat="42.93854" lon="0.32334">
        <ele>1579.36037</ele>
        <time>2024-01-12T10:26:27Z</time>
      </trkpt>
      <trkpt lat="42.93853" lon="0.32334">
        <ele>1582.11405</ele>
        <time>2024-01-12T10:26:29Z</time>
      </trkpt>
      <trkpt lat="42.93853" lon="0.32332">
        <ele>1583.66304</ele>
        <time>2024-01-12T10:26:31Z</time>
      </trkpt>
      <trkpt lat="42.93852" lon="0.32332">
        <ele>1584.02674</ele>
        <time>2024-01-12T10:26:32Z</time>
      </trkpt>
      <trkpt lat="42.93851" lon="0.32331">
        <ele>1584.60899</ele>
        <time>2024-01-12T10:26:34Z</time>
      </trkpt>
      <trkpt lat="42.9385" lon="0.3233">
        <ele>1584.61487</ele>
        <time>2024-01-12T10:26:36Z</time>
      </trkpt>
      <trkpt lat="42.93849" lon="0.32329">
        <ele>1584.66729</ele>
        <time>2024-01-12T10:26:37Z</time>
      </trkpt>
      <trkpt lat="42.93848" lon="0.32328">
        <ele>1584.01238</ele>
        <time>2024-01-12T10:26:38Z</time>
      </trkpt>
      <trkpt lat="42.93847" lon="0.32327">
        <ele>1582.79074</ele>
        <time>2024-01-12T10:26:40Z</time>
      </trkpt>
      <trkpt lat="42.93846" lon="0.32327">
        <ele>1582.71324</ele>
        <time>2024-01-12T10:26:42Z</time>
      </trkpt>
      <trkpt lat="42.93845" lon="0.32325">
        <ele>1583.39987</ele>
        <time>2024-01-12T10:26:44Z</time>
      </trkpt>
      <trkpt lat="42.93843" lon="0.32325">
        <ele>1583.82449</ele>
        <time>2024-01-12T10:26:46Z</time>
      </trkpt>
      <trkpt lat="42.93842" lon="0.32325">
        <ele>1584.03898</ele>
        <time>2024-01-12T10:26:47Z</time>
      </trkpt>
      <trkpt lat="42.93841" lon="0.32325">
        <ele>1584.28663</ele>
        <time>2024-01-12T10:26:50Z</time>
      </trkpt>
      <trkpt lat="42.93839" lon="0.32323">
        <ele>1585.55222</ele>
        <time>2024-01-12T10:26:53Z</time>
      </trkpt>
      <trkpt lat="42.93838" lon="0.32322">
        <ele>1585.21121</ele>
        <time>2024-01-12T10:26:54Z</time>
      </trkpt>
      <trkpt lat="42.93837" lon="0.32322">
        <ele>1586.09002</ele>
        <time>2024-01-12T10:26:57Z</time>
      </trkpt>
      <trkpt lat="42.93836" lon="0.32321">
        <ele>1586.40243</ele>
        <time>2024-01-12T10:26:58Z</time>
      </trkpt>
      <trkpt lat="42.93835" lon="0.32321">
        <ele>1585.23415</ele>
        <time>2024-01-12T10:27:00Z</time>
      </trkpt>
      <trkpt lat="42.93834" lon="0.3232">
        <ele>1586.1279</ele>
        <time>2024-01-12T10:27:02Z</time>
      </trkpt>
      <trkpt lat="42.93833" lon="0.32319">
        <ele>1586.28474</ele>
        <time>2024-01-12T10:27:03Z</time>
      </trkpt>
      <trkpt lat="42.93833" lon="0.32318">
        <ele>1586.64512</ele>
        <time>2024-01-12T10:27:05Z</time>
      </trkpt>
      <trkpt lat="42.93832" lon="0.32317">
        <ele>1587.21746</ele>
        <time>2024-01-12T10:27:07Z</time>
      </trkpt>
      <trkpt lat="42.9383" lon="0.32316">
        <ele>1586.14125</ele>
        <time>2024-01-12T10:27:09Z</time>
      </trkpt>
      <trkpt lat="42.93829" lon="0.32316">
        <ele>1586.38522</ele>
        <time>2024-01-12T10:27:10Z</time>
      </trkpt>
      <trkpt lat="42.93828" lon="0.32315">
        <ele>1587.33619</ele>
        <time>2024-01-12T10:27:12Z</time>
      </trkpt>
      <trkpt lat="42.93828" lon="0.32314">
        <ele>1586.44501</ele>
        <time>2024-01-12T10:27:14Z</time>
      </trkpt>
      <trkpt lat="42.93827" lon="0.32314">
        <ele>1585.05032</ele>
        <time>2024-01-12T10:27:16Z</time>
      </trkpt>
      <trkpt lat="42.93825" lon="0.32313">
        <ele>1585.16611</ele>
        <time>2024-01-12T10:27:18Z</time>
      </trkpt>
      <trkpt lat="42.93824" lon="0.32313">
        <ele>1585.04556</ele>
        <time>2024-01-12T10:27:19Z</time>
      </trkpt>
      <trkpt lat="42.93824" lon="0.32312">
        <ele>1585.43037</ele>
        <time>2024-01-12T10:27:21Z</time>
      </trkpt>
      <trkpt lat="42.93821" lon="0.32311">
        <ele>1585.85738</ele>
        <time>2024-01-12T10:27:24Z</time>
      </trkpt>
      <trkpt lat="42.9382" lon="0.3231">
        <ele>1586.99821</ele>
        <time>2024-01-12T10:27:26Z</time>
      </trkpt>
      <trkpt lat="42.93819" lon="0.32308">
        <ele>1587.21014</ele>
        <time>2024-01-12T10:27:27Z</time>
      </trkpt>
      <trkpt lat="42.93818" lon="0.32307">
        <ele>1586.76487</ele>
        <time>2024-01-12T10:27:29Z</time>
      </trkpt>
      <trkpt lat="42.93817" lon="0.32306">
        <ele>1586.47023</ele>
        <time>2024-01-12T10:27:30Z</time>
      </trkpt>
      <trkpt lat="42.93816" lon="0.32305">
        <ele>1585.6219</ele>
        <time>2024-01-12T10:27:31Z</time>
      </trkpt>
      <trkpt lat="42.93815" lon="0.32305">
        <ele>1585.20223</ele>
        <time>2024-01-12T10:27:32Z</time>
      </trkpt>
      <trkpt lat="42.93814" lon="0.32305">
        <ele>1585.73058</ele>
        <time>2024-01-12T10:27:34Z</time>
      </trkpt>
      <trkpt lat="42.93813" lon="0.32304">
        <ele>1586.62543</ele>
        <time>2024-01-12T10:27:36Z</time>
      </trkpt>
      <trkpt lat="42.93812" lon="0.32303">
        <ele>1586.15653</ele>
        <time>2024-01-12T10:27:38Z</time>
      </trkpt>
      <trkpt lat="42.93811" lon="0.32301">
        <ele>1586.03541</ele>
        <time>2024-01-12T10:27:40Z</time>
      </trkpt>
      <trkpt lat="42.9381" lon="0.32299">
        <ele>1585.32281</ele>
        <time>2024-01-12T10:27:42Z</time>
      </trkpt>
      <trkpt lat="42.93809" lon="0.32299">
        <ele>1586.23052</ele>
        <time>2024-01-12T10:27:44Z</time>
      </trkpt>
      <trkpt lat="42.93808" lon="0.32298">
        <ele>1587.56697</ele>
        <time>2024-01-12T10:27:45Z</time>
      </trkpt>
      <trkpt lat="42.93807" lon="0.32297">
        <ele>1586.80251</ele>
        <time>2024-01-12T10:27:47Z</time>
      </trkpt>
      <trkpt lat="42.93806" lon="0.32296">
        <ele>1588.42482</ele>
        <time>2024-01-12T10:27:51Z</time>
      </trkpt>
      <trkpt lat="42.93805" lon="0.32296">
        <ele>1587.50903</ele>
        <time>2024-01-12T10:27:53Z</time>
      </trkpt>
      <trkpt lat="42.93803" lon="0.32295">
        <ele>1587.78192</ele>
        <time>2024-01-12T10:27:54Z</time>
      </trkpt>
      <trkpt lat="42.93802" lon="0.32293">
        <ele>1588.16022</ele>
        <time>2024-01-12T10:27:56Z</time>
      </trkpt>
      <trkpt lat="42.93801" lon="0.32293">
        <ele>1589.30317</ele>
        <time>2024-01-12T10:27:58Z</time>
      </trkpt>
      <trkpt lat="42.938" lon="0.32292">
        <ele>1591.05487</ele>
        <time>2024-01-12T10:28:00Z</time>
      </trkpt>
      <trkpt lat="42.93799" lon="0.32291">
        <ele>1591.05258</ele>
        <time>2024-01-12T10:28:01Z</time>
      </trkpt>
      <trkpt lat="42.93798" lon="0.3229">
        <ele>1590.72153</ele>
        <time>2024-01-12T10:28:03Z</time>
      </trkpt>
      <trkpt lat="42.93797" lon="0.3229">
        <ele>1589.6301</ele>
        <time>2024-01-12T10:28:05Z</time>
      </trkpt>
      <trkpt lat="42.93796" lon="0.3229">
        <ele>1589.54144</ele>
        <time>2024-01-12T10:28:06Z</time>
      </trkpt>
      <trkpt lat="42.93795" lon="0.3229">
        <ele>1589.07759</ele>
        <time>2024-01-12T10:28:07Z</time>
      </trkpt>
      <trkpt lat="42.93794" lon="0.32289">
        <ele>1590.812</ele>
        <time>2024-01-12T10:28:10Z</time>
      </trkpt>
      <trkpt lat="42.93793" lon="0.32289">
        <ele>1590.59117</ele>
        <time>2024-01-12T10:28:11Z</time>
      </trkpt>
      <trkpt lat="42.93792" lon="0.32289">
        <ele>1590.91633</ele>
        <time>2024-01-12T10:28:13Z</time>
      </trkpt>
      <trkpt lat="42.93791" lon="0.32287">
        <ele>1590.95637</ele>
        <time>2024-01-12T10:28:15Z</time>
      </trkpt>
      <trkpt lat="42.9379" lon="0.32286">
        <ele>1591.09405</ele>
        <time>2024-01-12T10:28:16Z</time>
      </trkpt>
      <trkpt lat="42.93789" lon="0.32286">
        <ele>1591.93947</ele>
        <time>2024-01-12T10:28:18Z</time>
      </trkpt>
      <trkpt lat="42.93788" lon="0.32285">
        <ele>1592.19049</ele>
        <time>2024-01-12T10:28:19Z</time>
      </trkpt>
      <trkpt lat="42.93787" lon="0.32285">
        <ele>1592.57974</ele>
        <time>2024-01-12T10:28:21Z</time>
      </trkpt>
      <trkpt lat="42.93786" lon="0.32284">
        <ele>1592.10875</ele>
        <time>2024-01-12T10:28:23Z</time>
      </trkpt>
      <trkpt lat="42.93785" lon="0.32284">
        <ele>1592.33834</ele>
        <time>2024-01-12T10:28:24Z</time>
      </trkpt>
      <trkpt lat="42.93784" lon="0.32282">
        <ele>1591.65393</ele>
        <time>2024-01-12T10:28:25Z</time>
      </trkpt>
      <trkpt lat="42.93783" lon="0.32282">
        <ele>1591.56304</ele>
        <time>2024-01-12T10:28:27Z</time>
      </trkpt>
      <trkpt lat="42.93781" lon="0.32281">
        <ele>1592.45266</ele>
        <time>2024-01-12T10:28:28Z</time>
      </trkpt>
      <trkpt lat="42.93779" lon="0.32281">
        <ele>1593.11031</ele>
        <time>2024-01-12T10:28:30Z</time>
      </trkpt>
      <trkpt lat="42.93778" lon="0.3228">
        <ele>1593.55105</ele>
        <time>2024-01-12T10:28:32Z</time>
      </trkpt>
      <trkpt lat="42.93777" lon="0.32279">
        <ele>1593.92073</ele>
        <time>2024-01-12T10:28:34Z</time>
      </trkpt>
      <trkpt lat="42.93776" lon="0.32279">
        <ele>1593.77235</ele>
        <time>2024-01-12T10:28:36Z</time>
      </trkpt>
      <trkpt lat="42.93775" lon="0.3228">
        <ele>1593.04379</ele>
        <time>2024-01-12T10:28:38Z</time>
      </trkpt>
      <trkpt lat="42.93774" lon="0.32279">
        <ele>1594.29631</ele>
        <time>2024-01-12T10:28:41Z</time>
      </trkpt>
      <trkpt lat="42.93772" lon="0.32278">
        <ele>1593.95685</ele>
        <time>2024-01-12T10:28:42Z</time>
      </trkpt>
      <trkpt lat="42.93771" lon="0.32278">
        <ele>1593.74848</ele>
        <time>2024-01-12T10:28:44Z</time>
      </trkpt>
      <trkpt lat="42.93769" lon="0.32275">
        <ele>1594.51202</ele>
        <time>2024-01-12T10:28:46Z</time>
      </trkpt>
      <trkpt lat="42.93768" lon="0.32276">
        <ele>1594.71491</ele>
        <time>2024-01-12T10:28:49Z</time>
      </trkpt>
      <trkpt lat="42.93767" lon="0.32275">
        <ele>1594.82554</ele>
        <time>2024-01-12T10:28:51Z</time>
      </trkpt>
      <trkpt lat="42.93766" lon="0.32275">
        <ele>1593.83452</ele>
        <time>2024-01-12T10:28:54Z</time>
      </trkpt>
      <trkpt lat="42.93764" lon="0.32274">
        <ele>1593.19902</ele>
        <time>2024-01-12T10:28:56Z</time>
      </trkpt>
      <trkpt lat="42.93763" lon="0.32274">
        <ele>1591.9348</ele>
        <time>2024-01-12T10:28:58Z</time>
      </trkpt>
      <trkpt lat="42.93761" lon="0.32273">
        <ele>1591.93677</ele>
        <time>2024-01-12T10:29:00Z</time>
      </trkpt>
      <trkpt lat="42.9376" lon="0.32273">
        <ele>1592.94644</ele>
        <time>2024-01-12T10:29:02Z</time>
      </trkpt>
      <trkpt lat="42.93758" lon="0.32272">
        <ele>1593.0934</ele>
        <time>2024-01-12T10:29:03Z</time>
      </trkpt>
      <trkpt lat="42.93757" lon="0.32271">
        <ele>1592.65296</ele>
        <time>2024-01-12T10:29:05Z</time>
      </trkpt>
      <trkpt lat="42.93756" lon="0.3227">
        <ele>1592.62824</ele>
        <time>2024-01-12T10:29:06Z</time>
      </trkpt>
      <trkpt lat="42.93755" lon="0.3227">
        <ele>1590.79472</ele>
        <time>2024-01-12T10:29:07Z</time>
      </trkpt>
      <trkpt lat="42.93754" lon="0.32269">
        <ele>1591.32008</ele>
        <time>2024-01-12T10:29:08Z</time>
      </trkpt>
      <trkpt lat="42.93754" lon="0.3227">
        <ele>1590.52315</ele>
        <time>2024-01-12T10:29:09Z</time>
      </trkpt>
      <trkpt lat="42.93752" lon="0.3227">
        <ele>1590.47289</ele>
        <time>2024-01-12T10:29:10Z</time>
      </trkpt>
      <trkpt lat="42.93751" lon="0.3227">
        <ele>1590.25428</ele>
        <time>2024-01-12T10:29:12Z</time>
      </trkpt>
      <trkpt lat="42.9375" lon="0.3227">
        <ele>1590.79519</ele>
        <time>2024-01-12T10:29:14Z</time>
      </trkpt>
      <trkpt lat="42.93749" lon="0.3227">
        <ele>1590.87658</ele>
        <time>2024-01-12T10:29:15Z</time>
      </trkpt>
      <trkpt lat="42.93747" lon="0.3227">
        <ele>1590.5622</ele>
        <time>2024-01-12T10:29:17Z</time>
      </trkpt>
      <trkpt lat="42.93746" lon="0.32269">
        <ele>1592.08309</ele>
        <time>2024-01-12T10:29:18Z</time>
      </trkpt>
      <trkpt lat="42.93745" lon="0.32269">
        <ele>1592.64038</ele>
        <time>2024-01-12T10:29:19Z</time>
      </trkpt>
      <trkpt lat="42.93745" lon="0.32268">
        <ele>1592.84854</ele>
        <time>2024-01-12T10:29:20Z</time>
      </trkpt>
      <trkpt lat="42.93743" lon="0.32268">
        <ele>1591.97138</ele>
        <time>2024-01-12T10:29:21Z</time>
      </trkpt>
      <trkpt lat="42.93742" lon="0.32268">
        <ele>1592.0698</ele>
        <time>2024-01-12T10:29:23Z</time>
      </trkpt>
      <trkpt lat="42.93741" lon="0.32267">
        <ele>1593.17001</ele>
        <time>2024-01-12T10:29:25Z</time>
      </trkpt>
      <trkpt lat="42.93738" lon="0.32267">
        <ele>1592.98444</ele>
        <time>2024-01-12T10:29:27Z</time>
      </trkpt>
      <trkpt lat="42.93737" lon="0.32267">
        <ele>1593.20485</ele>
        <time>2024-01-12T10:29:30Z</time>
      </trkpt>
      <trkpt lat="42.93736" lon="0.32268">
        <ele>1593.00176</ele>
        <time>2024-01-12T10:29:31Z</time>
      </trkpt>
      <trkpt lat="42.93735" lon="0.32268">
        <ele>1593.49883</ele>
        <time>2024-01-12T10:29:32Z</time>
      </trkpt>
      <trkpt lat="42.93734" lon="0.32268">
        <ele>1593.30621</ele>
        <time>2024-01-12T10:29:34Z</time>
      </trkpt>
      <trkpt lat="42.93733" lon="0.32267">
        <ele>1593.87656</ele>
        <time>2024-01-12T10:29:35Z</time>
      </trkpt>
      <trkpt lat="42.93731" lon="0.32267">
        <ele>1595.55829</ele>
        <time>2024-01-12T10:29:37Z</time>
      </trkpt>
      <trkpt lat="42.93729" lon="0.32266">
        <ele>1595.28956</ele>
        <time>2024-01-12T10:29:39Z</time>
      </trkpt>
      <trkpt lat="42.93728" lon="0.32267">
        <ele>1594.99913</ele>
        <time>2024-01-12T10:29:41Z</time>
      </trkpt>
      <trkpt lat="42.93727" lon="0.32266">
        <ele>1595.09941</ele>
        <time>2024-01-12T10:29:43Z</time>
      </trkpt>
      <trkpt lat="42.93725" lon="0.32266">
        <ele>1594.82859</ele>
        <time>2024-01-12T10:29:45Z</time>
      </trkpt>
      <trkpt lat="42.93724" lon="0.32266">
        <ele>1594.30965</ele>
        <time>2024-01-12T10:29:46Z</time>
      </trkpt>
      <trkpt lat="42.93723" lon="0.32266">
        <ele>1594.90292</ele>
        <time>2024-01-12T10:29:47Z</time>
      </trkpt>
      <trkpt lat="42.93724" lon="0.32267">
        <ele>1593.93019</ele>
        <time>2024-01-12T10:29:48Z</time>
      </trkpt>
      <trkpt lat="42.93722" lon="0.32267">
        <ele>1593.2695</ele>
        <time>2024-01-12T10:29:49Z</time>
      </trkpt>
      <trkpt lat="42.93721" lon="0.32268">
        <ele>1593.0941</ele>
        <time>2024-01-12T10:29:50Z</time>
      </trkpt>
      <trkpt lat="42.9372" lon="0.32267">
        <ele>1593.64859</ele>
        <time>2024-01-12T10:29:52Z</time>
      </trkpt>
      <trkpt lat="42.93719" lon="0.32266">
        <ele>1593.59672</ele>
        <time>2024-01-12T10:29:53Z</time>
      </trkpt>
      <trkpt lat="42.93718" lon="0.32267">
        <ele>1592.96441</ele>
        <time>2024-01-12T10:29:55Z</time>
      </trkpt>
      <trkpt lat="42.93717" lon="0.32268">
        <ele>1592.82675</ele>
        <time>2024-01-12T10:29:56Z</time>
      </trkpt>
      <trkpt lat="42.93715" lon="0.32269">
        <ele>1593.18883</ele>
        <time>2024-01-12T10:29:58Z</time>
      </trkpt>
      <trkpt lat="42.93714" lon="0.32269">
        <ele>1593.15706</ele>
        <time>2024-01-12T10:29:59Z</time>
      </trkpt>
      <trkpt lat="42.93713" lon="0.3227">
        <ele>1592.87797</ele>
        <time>2024-01-12T10:30:02Z</time>
      </trkpt>
      <trkpt lat="42.93712" lon="0.32269">
        <ele>1594.09378</ele>
        <time>2024-01-12T10:30:04Z</time>
      </trkpt>
      <trkpt lat="42.9371" lon="0.32269">
        <ele>1593.11971</ele>
        <time>2024-01-12T10:30:05Z</time>
      </trkpt>
      <trkpt lat="42.93709" lon="0.3227">
        <ele>1592.73217</ele>
        <time>2024-01-12T10:30:07Z</time>
      </trkpt>
      <trkpt lat="42.93707" lon="0.3227">
        <ele>1594.47073</ele>
        <time>2024-01-12T10:30:09Z</time>
      </trkpt>
      <trkpt lat="42.93706" lon="0.3227">
        <ele>1594.73811</ele>
        <time>2024-01-12T10:30:11Z</time>
      </trkpt>
      <trkpt lat="42.93704" lon="0.3227">
        <ele>1594.74586</ele>
        <time>2024-01-12T10:30:13Z</time>
      </trkpt>
      <trkpt lat="42.93702" lon="0.32271">
        <ele>1595.07911</ele>
        <time>2024-01-12T10:30:14Z</time>
      </trkpt>
      <trkpt lat="42.93701" lon="0.32271">
        <ele>1594.74505</ele>
        <time>2024-01-12T10:30:17Z</time>
      </trkpt>
      <trkpt lat="42.93699" lon="0.3227">
        <ele>1596.90054</ele>
        <time>2024-01-12T10:30:19Z</time>
      </trkpt>
      <trkpt lat="42.93699" lon="0.32272">
        <ele>1595.68686</ele>
        <time>2024-01-12T10:30:21Z</time>
      </trkpt>
      <trkpt lat="42.93698" lon="0.3227">
        <ele>1596.19294</ele>
        <time>2024-01-12T10:30:24Z</time>
      </trkpt>
      <trkpt lat="42.93698" lon="0.32269">
        <ele>1597.23871</ele>
        <time>2024-01-12T10:30:25Z</time>
      </trkpt>
      <trkpt lat="42.93697" lon="0.32269">
        <ele>1596.54655</ele>
        <time>2024-01-12T10:30:33Z</time>
      </trkpt>
      <trkpt lat="42.93696" lon="0.32269">
        <ele>1597.97816</ele>
        <time>2024-01-12T10:30:37Z</time>
      </trkpt>
      <trkpt lat="42.93696" lon="0.32271">
        <ele>1595.11555</ele>
        <time>2024-01-12T10:30:42Z</time>
      </trkpt>
      <trkpt lat="42.93697" lon="0.3227">
        <ele>1593.78138</ele>
        <time>2024-01-12T10:30:53Z</time>
      </trkpt>
      <trkpt lat="42.93697" lon="0.32269">
        <ele>1594.41518</ele>
        <time>2024-01-12T10:30:56Z</time>
      </trkpt>
      <trkpt lat="42.93695" lon="0.32272">
        <ele>1590.52199</ele>
        <time>2024-01-12T10:31:01Z</time>
      </trkpt>
      <trkpt lat="42.93694" lon="0.32271">
        <ele>1591.08722</ele>
        <time>2024-01-12T10:31:02Z</time>
      </trkpt>
      <trkpt lat="42.93693" lon="0.32271">
        <ele>1593.08582</ele>
        <time>2024-01-12T10:31:04Z</time>
      </trkpt>
      <trkpt lat="42.93692" lon="0.32272">
        <ele>1593.04499</ele>
        <time>2024-01-12T10:31:05Z</time>
      </trkpt>
      <trkpt lat="42.9369" lon="0.32271">
        <ele>1595.04577</ele>
        <time>2024-01-12T10:31:06Z</time>
      </trkpt>
      <trkpt lat="42.93689" lon="0.32271">
        <ele>1595.97077</ele>
        <time>2024-01-12T10:31:08Z</time>
      </trkpt>
      <trkpt lat="42.93687" lon="0.3227">
        <ele>1596.11101</ele>
        <time>2024-01-12T10:31:10Z</time>
      </trkpt>
      <trkpt lat="42.93686" lon="0.32271">
        <ele>1597.0023</ele>
        <time>2024-01-12T10:31:12Z</time>
      </trkpt>
      <trkpt lat="42.93685" lon="0.32271">
        <ele>1597.48525</ele>
        <time>2024-01-12T10:31:13Z</time>
      </trkpt>
      <trkpt lat="42.93684" lon="0.32273">
        <ele>1596.73577</ele>
        <time>2024-01-12T10:31:15Z</time>
      </trkpt>
      <trkpt lat="42.93682" lon="0.32273">
        <ele>1597.21124</ele>
        <time>2024-01-12T10:31:17Z</time>
      </trkpt>
      <trkpt lat="42.9368" lon="0.32274">
        <ele>1597.41031</ele>
        <time>2024-01-12T10:31:19Z</time>
      </trkpt>
      <trkpt lat="42.93679" lon="0.32275">
        <ele>1595.61599</ele>
        <time>2024-01-12T10:31:21Z</time>
      </trkpt>
      <trkpt lat="42.93678" lon="0.32275">
        <ele>1596.07616</ele>
        <time>2024-01-12T10:31:22Z</time>
      </trkpt>
      <trkpt lat="42.93677" lon="0.32276">
        <ele>1596.3134</ele>
        <time>2024-01-12T10:31:23Z</time>
      </trkpt>
      <trkpt lat="42.93676" lon="0.32276">
        <ele>1595.90257</ele>
        <time>2024-01-12T10:31:24Z</time>
      </trkpt>
      <trkpt lat="42.93675" lon="0.32276">
        <ele>1597.13105</ele>
        <time>2024-01-12T10:31:25Z</time>
      </trkpt>
      <trkpt lat="42.93674" lon="0.32276">
        <ele>1597.50354</ele>
        <time>2024-01-12T10:31:26Z</time>
      </trkpt>
      <trkpt lat="42.93673" lon="0.32277">
        <ele>1597.32546</ele>
        <time>2024-01-12T10:31:27Z</time>
      </trkpt>
      <trkpt lat="42.93672" lon="0.32277">
        <ele>1597.59914</ele>
        <time>2024-01-12T10:31:28Z</time>
      </trkpt>
      <trkpt lat="42.93671" lon="0.32277">
        <ele>1597.45903</ele>
        <time>2024-01-12T10:31:29Z</time>
      </trkpt>
      <trkpt lat="42.9367" lon="0.32277">
        <ele>1597.49806</ele>
        <time>2024-01-12T10:31:30Z</time>
      </trkpt>
      <trkpt lat="42.93669" lon="0.32277">
        <ele>1597.94346</ele>
        <time>2024-01-12T10:31:32Z</time>
      </trkpt>
      <trkpt lat="42.93667" lon="0.32277">
        <ele>1598.38724</ele>
        <time>2024-01-12T10:31:33Z</time>
      </trkpt>
      <trkpt lat="42.93667" lon="0.32277">
        <ele>1597.77322</ele>
        <time>2024-01-12T10:31:34Z</time>
      </trkpt>
      <trkpt lat="42.93665" lon="0.32277">
        <ele>1599.14919</ele>
        <time>2024-01-12T10:31:36Z</time>
      </trkpt>
      <trkpt lat="42.93664" lon="0.32277">
        <ele>1598.31803</ele>
        <time>2024-01-12T10:31:37Z</time>
      </trkpt>
      <trkpt lat="42.93663" lon="0.32278">
        <ele>1597.97527</ele>
        <time>2024-01-12T10:31:38Z</time>
      </trkpt>
      <trkpt lat="42.93662" lon="0.32277">
        <ele>1598.89692</ele>
        <time>2024-01-12T10:31:39Z</time>
      </trkpt>
      <trkpt lat="42.93661" lon="0.32277">
        <ele>1599.44608</ele>
        <time>2024-01-12T10:31:41Z</time>
      </trkpt>
      <trkpt lat="42.93659" lon="0.32277">
        <ele>1599.68114</ele>
        <time>2024-01-12T10:31:43Z</time>
      </trkpt>
      <trkpt lat="42.93657" lon="0.32277">
        <ele>1599.64986</ele>
        <time>2024-01-12T10:31:44Z</time>
      </trkpt>
      <trkpt lat="42.93656" lon="0.32278">
        <ele>1600.51333</ele>
        <time>2024-01-12T10:31:46Z</time>
      </trkpt>
      <trkpt lat="42.93654" lon="0.32278">
        <ele>1600.18394</ele>
        <time>2024-01-12T10:31:47Z</time>
      </trkpt>
      <trkpt lat="42.93653" lon="0.32277">
        <ele>1598.66012</ele>
        <time>2024-01-12T10:31:49Z</time>
      </trkpt>
      <trkpt lat="42.93651" lon="0.32278">
        <ele>1596.49787</ele>
        <time>2024-01-12T10:31:51Z</time>
      </trkpt>
      <trkpt lat="42.9365" lon="0.32278">
        <ele>1596.26703</ele>
        <time>2024-01-12T10:31:52Z</time>
      </trkpt>
      <trkpt lat="42.93648" lon="0.32278">
        <ele>1597.49767</ele>
        <time>2024-01-12T10:31:53Z</time>
      </trkpt>
      <trkpt lat="42.93647" lon="0.32278">
        <ele>1597.32248</ele>
        <time>2024-01-12T10:31:55Z</time>
      </trkpt>
      <trkpt lat="42.93647" lon="0.32279">
        <ele>1596.97417</ele>
        <time>2024-01-12T10:31:56Z</time>
      </trkpt>
      <trkpt lat="42.93646" lon="0.32278">
        <ele>1597.30649</ele>
        <time>2024-01-12T10:31:57Z</time>
      </trkpt>
      <trkpt lat="42.93644" lon="0.32279">
        <ele>1596.76223</ele>
        <time>2024-01-12T10:31:59Z</time>
      </trkpt>
      <trkpt lat="42.93643" lon="0.32279">
        <ele>1596.65365</ele>
        <time>2024-01-12T10:32:00Z</time>
      </trkpt>
      <trkpt lat="42.93642" lon="0.3228">
        <ele>1595.91265</ele>
        <time>2024-01-12T10:32:01Z</time>
      </trkpt>
      <trkpt lat="42.9364" lon="0.32281">
        <ele>1595.89164</ele>
        <time>2024-01-12T10:32:03Z</time>
      </trkpt>
      <trkpt lat="42.93639" lon="0.32281">
        <ele>1597.28873</ele>
        <time>2024-01-12T10:32:05Z</time>
      </trkpt>
      <trkpt lat="42.93638" lon="0.32282">
        <ele>1598.4272</ele>
        <time>2024-01-12T10:32:07Z</time>
      </trkpt>
      <trkpt lat="42.93637" lon="0.32283">
        <ele>1598.07786</ele>
        <time>2024-01-12T10:32:08Z</time>
      </trkpt>
      <trkpt lat="42.93636" lon="0.32283">
        <ele>1597.39255</ele>
        <time>2024-01-12T10:32:09Z</time>
      </trkpt>
      <trkpt lat="42.93634" lon="0.32283">
        <ele>1597.08905</ele>
        <time>2024-01-12T10:32:11Z</time>
      </trkpt>
      <trkpt lat="42.93633" lon="0.32282">
        <ele>1597.27818</ele>
        <time>2024-01-12T10:32:13Z</time>
      </trkpt>
      <trkpt lat="42.93632" lon="0.32282">
        <ele>1598.43369</ele>
        <time>2024-01-12T10:32:14Z</time>
      </trkpt>
      <trkpt lat="42.93631" lon="0.32282">
        <ele>1598.28983</ele>
        <time>2024-01-12T10:32:15Z</time>
      </trkpt>
      <trkpt lat="42.9363" lon="0.32282">
        <ele>1598.88122</ele>
        <time>2024-01-12T10:32:16Z</time>
      </trkpt>
      <trkpt lat="42.93629" lon="0.32281">
        <ele>1598.45185</ele>
        <time>2024-01-12T10:32:17Z</time>
      </trkpt>
      <trkpt lat="42.93627" lon="0.32281">
        <ele>1599.14708</ele>
        <time>2024-01-12T10:32:19Z</time>
      </trkpt>
      <trkpt lat="42.93626" lon="0.32281">
        <ele>1598.82502</ele>
        <time>2024-01-12T10:32:20Z</time>
      </trkpt>
      <trkpt lat="42.93625" lon="0.32281">
        <ele>1600.22317</ele>
        <time>2024-01-12T10:32:21Z</time>
      </trkpt>
      <trkpt lat="42.93623" lon="0.32281">
        <ele>1598.93138</ele>
        <time>2024-01-12T10:32:23Z</time>
      </trkpt>
      <trkpt lat="42.93622" lon="0.3228">
        <ele>1597.98043</ele>
        <time>2024-01-12T10:32:24Z</time>
      </trkpt>
      <trkpt lat="42.9362" lon="0.3228">
        <ele>1598.64376</ele>
        <time>2024-01-12T10:32:26Z</time>
      </trkpt>
      <trkpt lat="42.93619" lon="0.32279">
        <ele>1599.65018</ele>
        <time>2024-01-12T10:32:28Z</time>
      </trkpt>
      <trkpt lat="42.93618" lon="0.32278">
        <ele>1600.15339</ele>
        <time>2024-01-12T10:32:29Z</time>
      </trkpt>
      <trkpt lat="42.93616" lon="0.32278">
        <ele>1601.38602</ele>
        <time>2024-01-12T10:32:31Z</time>
      </trkpt>
      <trkpt lat="42.93615" lon="0.32278">
        <ele>1600.84703</ele>
        <time>2024-01-12T10:32:33Z</time>
      </trkpt>
      <trkpt lat="42.93614" lon="0.32279">
        <ele>1601.20326</ele>
        <time>2024-01-12T10:32:34Z</time>
      </trkpt>
      <trkpt lat="42.93612" lon="0.32278">
        <ele>1600.93051</ele>
        <time>2024-01-12T10:32:36Z</time>
      </trkpt>
      <trkpt lat="42.93611" lon="0.32279">
        <ele>1600.38856</ele>
        <time>2024-01-12T10:32:37Z</time>
      </trkpt>
      <trkpt lat="42.93609" lon="0.3228">
        <ele>1598.69901</ele>
        <time>2024-01-12T10:32:39Z</time>
      </trkpt>
      <trkpt lat="42.93608" lon="0.32281">
        <ele>1598.65033</ele>
        <time>2024-01-12T10:32:40Z</time>
      </trkpt>
      <trkpt lat="42.93607" lon="0.32282">
        <ele>1595.72692</ele>
        <time>2024-01-12T10:32:42Z</time>
      </trkpt>
      <trkpt lat="42.93605" lon="0.32282">
        <ele>1595.77436</ele>
        <time>2024-01-12T10:32:44Z</time>
      </trkpt>
      <trkpt lat="42.93604" lon="0.32281">
        <ele>1595.95095</ele>
        <time>2024-01-12T10:32:45Z</time>
      </trkpt>
      <trkpt lat="42.93602" lon="0.32281">
        <ele>1596.81925</ele>
        <time>2024-01-12T10:32:47Z</time>
      </trkpt>
      <trkpt lat="42.93601" lon="0.32281">
        <ele>1597.01874</ele>
        <time>2024-01-12T10:32:48Z</time>
      </trkpt>
      <trkpt lat="42.936" lon="0.32281">
        <ele>1596.71415</ele>
        <time>2024-01-12T10:32:49Z</time>
      </trkpt>
      <trkpt lat="42.93599" lon="0.3228">
        <ele>1596.10308</ele>
        <time>2024-01-12T10:32:50Z</time>
      </trkpt>
      <trkpt lat="42.93598" lon="0.32281">
        <ele>1595.9973</ele>
        <time>2024-01-12T10:32:51Z</time>
      </trkpt>
      <trkpt lat="42.93598" lon="0.3228">
        <ele>1597.99237</ele>
        <time>2024-01-12T10:32:52Z</time>
      </trkpt>
      <trkpt lat="42.93597" lon="0.32279">
        <ele>1598.9528</ele>
        <time>2024-01-12T10:32:53Z</time>
      </trkpt>
      <trkpt lat="42.93595" lon="0.32278">
        <ele>1599.32556</ele>
        <time>2024-01-12T10:32:54Z</time>
      </trkpt>
      <trkpt lat="42.93594" lon="0.32276">
        <ele>1600.64382</ele>
        <time>2024-01-12T10:32:55Z</time>
      </trkpt>
      <trkpt lat="42.93593" lon="0.32275">
        <ele>1601.22174</ele>
        <time>2024-01-12T10:32:56Z</time>
      </trkpt>
      <trkpt lat="42.93592" lon="0.32275">
        <ele>1600.60883</ele>
        <time>2024-01-12T10:32:59Z</time>
      </trkpt>
      <trkpt lat="42.93591" lon="0.32275">
        <ele>1600.01765</ele>
        <time>2024-01-12T10:33:00Z</time>
      </trkpt>
      <trkpt lat="42.9359" lon="0.32275">
        <ele>1600.24531</ele>
        <time>2024-01-12T10:33:01Z</time>
      </trkpt>
      <trkpt lat="42.93589" lon="0.32274">
        <ele>1599.44894</ele>
        <time>2024-01-12T10:33:02Z</time>
      </trkpt>
      <trkpt lat="42.93588" lon="0.32274">
        <ele>1601.46608</ele>
        <time>2024-01-12T10:33:04Z</time>
      </trkpt>
      <trkpt lat="42.93586" lon="0.32274">
        <ele>1600.88754</ele>
        <time>2024-01-12T10:33:06Z</time>
      </trkpt>
      <trkpt lat="42.93586" lon="0.32273">
        <ele>1601.51701</ele>
        <time>2024-01-12T10:33:07Z</time>
      </trkpt>
      <trkpt lat="42.93585" lon="0.32272">
        <ele>1602.13696</ele>
        <time>2024-01-12T10:33:08Z</time>
      </trkpt>
      <trkpt lat="42.93584" lon="0.32273">
        <ele>1599.74541</ele>
        <time>2024-01-12T10:33:09Z</time>
      </trkpt>
      <trkpt lat="42.93583" lon="0.32273">
        <ele>1599.83467</ele>
        <time>2024-01-12T10:33:11Z</time>
      </trkpt>
      <trkpt lat="42.93581" lon="0.32273">
        <ele>1599.90963</ele>
        <time>2024-01-12T10:33:12Z</time>
      </trkpt>
      <trkpt lat="42.9358" lon="0.32272">
        <ele>1600.64105</ele>
        <time>2024-01-12T10:33:13Z</time>
      </trkpt>
      <trkpt lat="42.9358" lon="0.32271">
        <ele>1600.63319</ele>
        <time>2024-01-12T10:33:14Z</time>
      </trkpt>
      <trkpt lat="42.93579" lon="0.32271">
        <ele>1601.32742</ele>
        <time>2024-01-12T10:33:17Z</time>
      </trkpt>
      <trkpt lat="42.93578" lon="0.3227">
        <ele>1601.09772</ele>
        <time>2024-01-12T10:33:18Z</time>
      </trkpt>
      <trkpt lat="42.93577" lon="0.3227">
        <ele>1602.70418</ele>
        <time>2024-01-12T10:33:20Z</time>
      </trkpt>
      <trkpt lat="42.93576" lon="0.32269">
        <ele>1602.76497</ele>
        <time>2024-01-12T10:33:21Z</time>
      </trkpt>
      <trkpt lat="42.93575" lon="0.32268">
        <ele>1601.53474</ele>
        <time>2024-01-12T10:33:22Z</time>
      </trkpt>
      <trkpt lat="42.93574" lon="0.32268">
        <ele>1602.11973</ele>
        <time>2024-01-12T10:33:23Z</time>
      </trkpt>
      <trkpt lat="42.93573" lon="0.32267">
        <ele>1602.72892</ele>
        <time>2024-01-12T10:33:26Z</time>
      </trkpt>
      <trkpt lat="42.93572" lon="0.32266">
        <ele>1602.88607</ele>
        <time>2024-01-12T10:33:27Z</time>
      </trkpt>
      <trkpt lat="42.93571" lon="0.32266">
        <ele>1603.01129</ele>
        <time>2024-01-12T10:33:28Z</time>
      </trkpt>
      <trkpt lat="42.9357" lon="0.32266">
        <ele>1603.04608</ele>
        <time>2024-01-12T10:33:30Z</time>
      </trkpt>
      <trkpt lat="42.93568" lon="0.32266">
        <ele>1602.11614</ele>
        <time>2024-01-12T10:33:31Z</time>
      </trkpt>
      <trkpt lat="42.93567" lon="0.32265">
        <ele>1602.37272</ele>
        <time>2024-01-12T10:33:32Z</time>
      </trkpt>
      <trkpt lat="42.93566" lon="0.32266">
        <ele>1603.14066</ele>
        <time>2024-01-12T10:33:33Z</time>
      </trkpt>
      <trkpt lat="42.93566" lon="0.32265">
        <ele>1605.43101</ele>
        <time>2024-01-12T10:33:35Z</time>
      </trkpt>
      <trkpt lat="42.93564" lon="0.32266">
        <ele>1604.45682</ele>
        <time>2024-01-12T10:33:38Z</time>
      </trkpt>
      <trkpt lat="42.93563" lon="0.32266">
        <ele>1603.73438</ele>
        <time>2024-01-12T10:33:40Z</time>
      </trkpt>
      <trkpt lat="42.93562" lon="0.32265">
        <ele>1604.36439</ele>
        <time>2024-01-12T10:33:41Z</time>
      </trkpt>
      <trkpt lat="42.93561" lon="0.32265">
        <ele>1604.07275</ele>
        <time>2024-01-12T10:33:43Z</time>
      </trkpt>
      <trkpt lat="42.9356" lon="0.32264">
        <ele>1601.93298</ele>
        <time>2024-01-12T10:33:45Z</time>
      </trkpt>
      <trkpt lat="42.93558" lon="0.32263">
        <ele>1602.61939</ele>
        <time>2024-01-12T10:33:46Z</time>
      </trkpt>
      <trkpt lat="42.93556" lon="0.32262">
        <ele>1602.11865</ele>
        <time>2024-01-12T10:33:47Z</time>
      </trkpt>
      <trkpt lat="42.93555" lon="0.32261">
        <ele>1602.62339</ele>
        <time>2024-01-12T10:33:48Z</time>
      </trkpt>
      <trkpt lat="42.93555" lon="0.32263">
        <ele>1601.3717</ele>
        <time>2024-01-12T10:33:50Z</time>
      </trkpt>
      <trkpt lat="42.93554" lon="0.32264">
        <ele>1601.23826</ele>
        <time>2024-01-12T10:33:51Z</time>
      </trkpt>
      <trkpt lat="42.93553" lon="0.32263">
        <ele>1600.84527</ele>
        <time>2024-01-12T10:33:52Z</time>
      </trkpt>
      <trkpt lat="42.93552" lon="0.32262">
        <ele>1600.22432</ele>
        <time>2024-01-12T10:33:53Z</time>
      </trkpt>
      <trkpt lat="42.9355" lon="0.32259">
        <ele>1601.93209</ele>
        <time>2024-01-12T10:33:54Z</time>
      </trkpt>
      <trkpt lat="42.9355" lon="0.32261">
        <ele>1599.87412</ele>
        <time>2024-01-12T10:33:55Z</time>
      </trkpt>
      <trkpt lat="42.93548" lon="0.3226">
        <ele>1601.87917</ele>
        <time>2024-01-12T10:33:56Z</time>
      </trkpt>
      <trkpt lat="42.93547" lon="0.32258">
        <ele>1602.2234</ele>
        <time>2024-01-12T10:33:58Z</time>
      </trkpt>
      <trkpt lat="42.93546" lon="0.32257">
        <ele>1601.13503</ele>
        <time>2024-01-12T10:34:00Z</time>
      </trkpt>
      <trkpt lat="42.93544" lon="0.32256">
        <ele>1601.52797</ele>
        <time>2024-01-12T10:34:01Z</time>
      </trkpt>
      <trkpt lat="42.93542" lon="0.32255">
        <ele>1601.67027</ele>
        <time>2024-01-12T10:34:03Z</time>
      </trkpt>
      <trkpt lat="42.93541" lon="0.32254">
        <ele>1602.3893</ele>
        <time>2024-01-12T10:34:05Z</time>
      </trkpt>
      <trkpt lat="42.9354" lon="0.32253">
        <ele>1602.53817</ele>
        <time>2024-01-12T10:34:07Z</time>
      </trkpt>
      <trkpt lat="42.93538" lon="0.32255">
        <ele>1599.15179</ele>
        <time>2024-01-12T10:34:19Z</time>
      </trkpt>
      <trkpt lat="42.93537" lon="0.32255">
        <ele>1599.99794</ele>
        <time>2024-01-12T10:34:21Z</time>
      </trkpt>
      <trkpt lat="42.93536" lon="0.32255">
        <ele>1599.87334</ele>
        <time>2024-01-12T10:34:22Z</time>
      </trkpt>
      <trkpt lat="42.93535" lon="0.32254">
        <ele>1600.03912</ele>
        <time>2024-01-12T10:34:23Z</time>
      </trkpt>
      <trkpt lat="42.93535" lon="0.32253">
        <ele>1602.19567</ele>
        <time>2024-01-12T10:34:25Z</time>
      </trkpt>
      <trkpt lat="42.93533" lon="0.32251">
        <ele>1603.27442</ele>
        <time>2024-01-12T10:34:27Z</time>
      </trkpt>
      <trkpt lat="42.93532" lon="0.32251">
        <ele>1603.49647</ele>
        <time>2024-01-12T10:34:29Z</time>
      </trkpt>
      <trkpt lat="42.9353" lon="0.3225">
        <ele>1603.52902</ele>
        <time>2024-01-12T10:34:32Z</time>
      </trkpt>
      <trkpt lat="42.93529" lon="0.32249">
        <ele>1604.66888</ele>
        <time>2024-01-12T10:34:33Z</time>
      </trkpt>
      <trkpt lat="42.93528" lon="0.32247">
        <ele>1603.16484</ele>
        <time>2024-01-12T10:34:34Z</time>
      </trkpt>
      <trkpt lat="42.93526" lon="0.32245">
        <ele>1602.27608</ele>
        <time>2024-01-12T10:34:36Z</time>
      </trkpt>
      <trkpt lat="42.93526" lon="0.32245">
        <ele>1601.97094</ele>
        <time>2024-01-12T10:34:37Z</time>
      </trkpt>
      <trkpt lat="42.93523" lon="0.32243">
        <ele>1603.8334</ele>
        <time>2024-01-12T10:34:39Z</time>
      </trkpt>
      <trkpt lat="42.93523" lon="0.32242">
        <ele>1603.67439</ele>
        <time>2024-01-12T10:34:40Z</time>
      </trkpt>
      <trkpt lat="42.93522" lon="0.3224">
        <ele>1603.77582</ele>
        <time>2024-01-12T10:34:41Z</time>
      </trkpt>
      <trkpt lat="42.93522" lon="0.32239">
        <ele>1604.02314</ele>
        <time>2024-01-12T10:34:42Z</time>
      </trkpt>
      <trkpt lat="42.9352" lon="0.32238">
        <ele>1604.4959</ele>
        <time>2024-01-12T10:34:44Z</time>
      </trkpt>
      <trkpt lat="42.93519" lon="0.32237">
        <ele>1605.40438</ele>
        <time>2024-01-12T10:34:46Z</time>
      </trkpt>
      <trkpt lat="42.93518" lon="0.32237">
        <ele>1605.17902</ele>
        <time>2024-01-12T10:34:47Z</time>
      </trkpt>
      <trkpt lat="42.93517" lon="0.32236">
        <ele>1604.53725</ele>
        <time>2024-01-12T10:34:48Z</time>
      </trkpt>
      <trkpt lat="42.93518" lon="0.32237">
        <ele>1602.94224</ele>
        <time>2024-01-12T10:34:50Z</time>
      </trkpt>
      <trkpt lat="42.93517" lon="0.32238">
        <ele>1600.46561</ele>
        <time>2024-01-12T10:34:55Z</time>
      </trkpt>
      <trkpt lat="42.93515" lon="0.32236">
        <ele>1600.61803</ele>
        <time>2024-01-12T10:34:56Z</time>
      </trkpt>
      <trkpt lat="42.93515" lon="0.32235">
        <ele>1601.00595</ele>
        <time>2024-01-12T10:34:57Z</time>
      </trkpt>
      <trkpt lat="42.93514" lon="0.32234">
        <ele>1600.77036</ele>
        <time>2024-01-12T10:34:59Z</time>
      </trkpt>
      <trkpt lat="42.93512" lon="0.32233">
        <ele>1600.60469</ele>
        <time>2024-01-12T10:35:00Z</time>
      </trkpt>
      <trkpt lat="42.93511" lon="0.32233">
        <ele>1600.89895</ele>
        <time>2024-01-12T10:35:01Z</time>
      </trkpt>
      <trkpt lat="42.93511" lon="0.32231">
        <ele>1602.19115</ele>
        <time>2024-01-12T10:35:03Z</time>
      </trkpt>
      <trkpt lat="42.9351" lon="0.32231">
        <ele>1602.69653</ele>
        <time>2024-01-12T10:35:04Z</time>
      </trkpt>
      <trkpt lat="42.93508" lon="0.3223">
        <ele>1602.42306</ele>
        <time>2024-01-12T10:35:06Z</time>
      </trkpt>
      <trkpt lat="42.93507" lon="0.3223">
        <ele>1602.59036</ele>
        <time>2024-01-12T10:35:07Z</time>
      </trkpt>
      <trkpt lat="42.93507" lon="0.32228">
        <ele>1603.71839</ele>
        <time>2024-01-12T10:35:08Z</time>
      </trkpt>
      <trkpt lat="42.93506" lon="0.32228">
        <ele>1603.17928</ele>
        <time>2024-01-12T10:35:09Z</time>
      </trkpt>
      <trkpt lat="42.93504" lon="0.32226">
        <ele>1603.44446</ele>
        <time>2024-01-12T10:35:11Z</time>
      </trkpt>
      <trkpt lat="42.93503" lon="0.32225">
        <ele>1604.38579</ele>
        <time>2024-01-12T10:35:12Z</time>
      </trkpt>
      <trkpt lat="42.93503" lon="0.32223">
        <ele>1605.09732</ele>
        <time>2024-01-12T10:35:13Z</time>
      </trkpt>
      <trkpt lat="42.93502" lon="0.32223">
        <ele>1605.47871</ele>
        <time>2024-01-12T10:35:14Z</time>
      </trkpt>
      <trkpt lat="42.935" lon="0.32222">
        <ele>1606.15228</ele>
        <time>2024-01-12T10:35:15Z</time>
      </trkpt>
      <trkpt lat="42.93499" lon="0.32222">
        <ele>1604.04883</ele>
        <time>2024-01-12T10:35:17Z</time>
      </trkpt>
      <trkpt lat="42.93499" lon="0.3222">
        <ele>1606.09741</ele>
        <time>2024-01-12T10:35:18Z</time>
      </trkpt>
      <trkpt lat="42.93498" lon="0.32219">
        <ele>1606.63419</ele>
        <time>2024-01-12T10:35:19Z</time>
      </trkpt>
      <trkpt lat="42.93496" lon="0.32217">
        <ele>1606.02719</ele>
        <time>2024-01-12T10:35:20Z</time>
      </trkpt>
      <trkpt lat="42.93493" lon="0.32217">
        <ele>1603.56445</ele>
        <time>2024-01-12T10:35:22Z</time>
      </trkpt>
      <trkpt lat="42.93492" lon="0.32216">
        <ele>1604.59444</ele>
        <time>2024-01-12T10:35:25Z</time>
      </trkpt>
      <trkpt lat="42.93491" lon="0.32216">
        <ele>1605.93387</ele>
        <time>2024-01-12T10:35:27Z</time>
      </trkpt>
      <trkpt lat="42.9349" lon="0.32215">
        <ele>1606.90841</ele>
        <time>2024-01-12T10:35:29Z</time>
      </trkpt>
      <trkpt lat="42.93488" lon="0.32214">
        <ele>1608.16878</ele>
        <time>2024-01-12T10:35:31Z</time>
      </trkpt>
      <trkpt lat="42.93487" lon="0.32215">
        <ele>1605.99204</ele>
        <time>2024-01-12T10:35:32Z</time>
      </trkpt>
      <trkpt lat="42.93486" lon="0.32215">
        <ele>1605.59893</ele>
        <time>2024-01-12T10:35:34Z</time>
      </trkpt>
      <trkpt lat="42.93485" lon="0.32214">
        <ele>1604.95244</ele>
        <time>2024-01-12T10:35:35Z</time>
      </trkpt>
      <trkpt lat="42.93484" lon="0.32215">
        <ele>1605.05258</ele>
        <time>2024-01-12T10:35:36Z</time>
      </trkpt>
      <trkpt lat="42.93482" lon="0.32213">
        <ele>1607.47672</ele>
        <time>2024-01-12T10:35:39Z</time>
      </trkpt>
      <trkpt lat="42.93481" lon="0.32213">
        <ele>1606.457</ele>
        <time>2024-01-12T10:35:40Z</time>
      </trkpt>
      <trkpt lat="42.9348" lon="0.32211">
        <ele>1606.5784</ele>
        <time>2024-01-12T10:35:42Z</time>
      </trkpt>
      <trkpt lat="42.93479" lon="0.32211">
        <ele>1606.29338</ele>
        <time>2024-01-12T10:35:43Z</time>
      </trkpt>
      <trkpt lat="42.93478" lon="0.3221">
        <ele>1607.09046</ele>
        <time>2024-01-12T10:35:44Z</time>
      </trkpt>
      <trkpt lat="42.93477" lon="0.32209">
        <ele>1606.84093</ele>
        <time>2024-01-12T10:35:46Z</time>
      </trkpt>
      <trkpt lat="42.93476" lon="0.32208">
        <ele>1606.58684</ele>
        <time>2024-01-12T10:35:47Z</time>
      </trkpt>
      <trkpt lat="42.93475" lon="0.32209">
        <ele>1605.43374</ele>
        <time>2024-01-12T10:35:48Z</time>
      </trkpt>
      <trkpt lat="42.93474" lon="0.32208">
        <ele>1605.33772</ele>
        <time>2024-01-12T10:35:49Z</time>
      </trkpt>
      <trkpt lat="42.93472" lon="0.32207">
        <ele>1606.34169</ele>
        <time>2024-01-12T10:35:50Z</time>
      </trkpt>
      <trkpt lat="42.93471" lon="0.32206">
        <ele>1607.08615</ele>
        <time>2024-01-12T10:35:54Z</time>
      </trkpt>
      <trkpt lat="42.9347" lon="0.32207">
        <ele>1607.01904</ele>
        <time>2024-01-12T10:35:55Z</time>
      </trkpt>
      <trkpt lat="42.93468" lon="0.32206">
        <ele>1607.11009</ele>
        <time>2024-01-12T10:35:56Z</time>
      </trkpt>
      <trkpt lat="42.93467" lon="0.32205">
        <ele>1604.7697</ele>
        <time>2024-01-12T10:35:58Z</time>
      </trkpt>
      <trkpt lat="42.93466" lon="0.32204">
        <ele>1606.64228</ele>
        <time>2024-01-12T10:36:00Z</time>
      </trkpt>
      <trkpt lat="42.93466" lon="0.32203">
        <ele>1605.62673</ele>
        <time>2024-01-12T10:36:01Z</time>
      </trkpt>
      <trkpt lat="42.93464" lon="0.32202">
        <ele>1605.2831</ele>
        <time>2024-01-12T10:36:02Z</time>
      </trkpt>
      <trkpt lat="42.93462" lon="0.32202">
        <ele>1604.91265</ele>
        <time>2024-01-12T10:36:04Z</time>
      </trkpt>
      <trkpt lat="42.93461" lon="0.322">
        <ele>1606.05283</ele>
        <time>2024-01-12T10:36:06Z</time>
      </trkpt>
      <trkpt lat="42.9346" lon="0.322">
        <ele>1606.49252</ele>
        <time>2024-01-12T10:36:09Z</time>
      </trkpt>
      <trkpt lat="42.93459" lon="0.32198">
        <ele>1607.48558</ele>
        <time>2024-01-12T10:36:12Z</time>
      </trkpt>
      <trkpt lat="42.93458" lon="0.32197">
        <ele>1607.63439</ele>
        <time>2024-01-12T10:36:13Z</time>
      </trkpt>
      <trkpt lat="42.93457" lon="0.32196">
        <ele>1608.24271</ele>
        <time>2024-01-12T10:36:15Z</time>
      </trkpt>
      <trkpt lat="42.93457" lon="0.32194">
        <ele>1609.99615</ele>
        <time>2024-01-12T10:36:17Z</time>
      </trkpt>
      <trkpt lat="42.93456" lon="0.32193">
        <ele>1609.13436</ele>
        <time>2024-01-12T10:36:18Z</time>
      </trkpt>
      <trkpt lat="42.93455" lon="0.32193">
        <ele>1610.1902</ele>
        <time>2024-01-12T10:36:19Z</time>
      </trkpt>
      <trkpt lat="42.93454" lon="0.32192">
        <ele>1608.25607</ele>
        <time>2024-01-12T10:36:20Z</time>
      </trkpt>
      <trkpt lat="42.93453" lon="0.32191">
        <ele>1607.82124</ele>
        <time>2024-01-12T10:36:21Z</time>
      </trkpt>
      <trkpt lat="42.93452" lon="0.32191">
        <ele>1607.01268</ele>
        <time>2024-01-12T10:36:23Z</time>
      </trkpt>
      <trkpt lat="42.9345" lon="0.3219">
        <ele>1608.55396</ele>
        <time>2024-01-12T10:36:25Z</time>
      </trkpt>
      <trkpt lat="42.93449" lon="0.3219">
        <ele>1608.62723</ele>
        <time>2024-01-12T10:36:26Z</time>
      </trkpt>
      <trkpt lat="42.93448" lon="0.32188">
        <ele>1607.82335</ele>
        <time>2024-01-12T10:36:28Z</time>
      </trkpt>
      <trkpt lat="42.93447" lon="0.32187">
        <ele>1607.81303</ele>
        <time>2024-01-12T10:36:30Z</time>
      </trkpt>
      <trkpt lat="42.93446" lon="0.32186">
        <ele>1607.60274</ele>
        <time>2024-01-12T10:36:31Z</time>
      </trkpt>
      <trkpt lat="42.93445" lon="0.32185">
        <ele>1609.21178</ele>
        <time>2024-01-12T10:36:32Z</time>
      </trkpt>
      <trkpt lat="42.93444" lon="0.32185">
        <ele>1610.81996</ele>
        <time>2024-01-12T10:36:34Z</time>
      </trkpt>
      <trkpt lat="42.93442" lon="0.32185">
        <ele>1609.97481</ele>
        <time>2024-01-12T10:36:36Z</time>
      </trkpt>
      <trkpt lat="42.93442" lon="0.32183">
        <ele>1609.89133</ele>
        <time>2024-01-12T10:36:37Z</time>
      </trkpt>
      <trkpt lat="42.93441" lon="0.32183">
        <ele>1610.28321</ele>
        <time>2024-01-12T10:36:38Z</time>
      </trkpt>
      <trkpt lat="42.9344" lon="0.32183">
        <ele>1609.46449</ele>
        <time>2024-01-12T10:36:39Z</time>
      </trkpt>
      <trkpt lat="42.93439" lon="0.32182">
        <ele>1608.63083</ele>
        <time>2024-01-12T10:36:40Z</time>
      </trkpt>
      <trkpt lat="42.93438" lon="0.32181">
        <ele>1609.49098</ele>
        <time>2024-01-12T10:36:42Z</time>
      </trkpt>
      <trkpt lat="42.93436" lon="0.3218">
        <ele>1608.92707</ele>
        <time>2024-01-12T10:36:44Z</time>
      </trkpt>
      <trkpt lat="42.93435" lon="0.32179">
        <ele>1607.63675</ele>
        <time>2024-01-12T10:36:46Z</time>
      </trkpt>
      <trkpt lat="42.93434" lon="0.32177">
        <ele>1607.80357</ele>
        <time>2024-01-12T10:36:48Z</time>
      </trkpt>
      <trkpt lat="42.93433" lon="0.32177">
        <ele>1606.23439</ele>
        <time>2024-01-12T10:36:50Z</time>
      </trkpt>
      <trkpt lat="42.93432" lon="0.32176">
        <ele>1606.31313</ele>
        <time>2024-01-12T10:36:51Z</time>
      </trkpt>
      <trkpt lat="42.93431" lon="0.32176">
        <ele>1605.74373</ele>
        <time>2024-01-12T10:36:52Z</time>
      </trkpt>
      <trkpt lat="42.9343" lon="0.32175">
        <ele>1607.85177</ele>
        <time>2024-01-12T10:36:55Z</time>
      </trkpt>
      <trkpt lat="42.93429" lon="0.32173">
        <ele>1608.34149</ele>
        <time>2024-01-12T10:36:58Z</time>
      </trkpt>
      <trkpt lat="42.93428" lon="0.32172">
        <ele>1606.81366</ele>
        <time>2024-01-12T10:36:59Z</time>
      </trkpt>
      <trkpt lat="42.93427" lon="0.32171">
        <ele>1606.95751</ele>
        <time>2024-01-12T10:37:00Z</time>
      </trkpt>
      <trkpt lat="42.93426" lon="0.3217">
        <ele>1606.43957</ele>
        <time>2024-01-12T10:37:01Z</time>
      </trkpt>
      <trkpt lat="42.93425" lon="0.32169">
        <ele>1607.836</ele>
        <time>2024-01-12T10:37:03Z</time>
      </trkpt>
      <trkpt lat="42.93424" lon="0.32167">
        <ele>1608.02391</ele>
        <time>2024-01-12T10:37:05Z</time>
      </trkpt>
      <trkpt lat="42.93423" lon="0.32166">
        <ele>1608.69016</ele>
        <time>2024-01-12T10:37:06Z</time>
      </trkpt>
      <trkpt lat="42.93421" lon="0.32165">
        <ele>1608.15518</ele>
        <time>2024-01-12T10:37:08Z</time>
      </trkpt>
      <trkpt lat="42.9342" lon="0.32163">
        <ele>1609.12817</ele>
        <time>2024-01-12T10:37:09Z</time>
      </trkpt>
      <trkpt lat="42.9342" lon="0.32162">
        <ele>1611.69738</ele>
        <time>2024-01-12T10:37:11Z</time>
      </trkpt>
      <trkpt lat="42.93418" lon="0.32161">
        <ele>1609.76404</ele>
        <time>2024-01-12T10:37:13Z</time>
      </trkpt>
      <trkpt lat="42.93417" lon="0.3216">
        <ele>1611.1671</ele>
        <time>2024-01-12T10:37:16Z</time>
      </trkpt>
      <trkpt lat="42.93415" lon="0.32159">
        <ele>1610.83766</ele>
        <time>2024-01-12T10:37:18Z</time>
      </trkpt>
      <trkpt lat="42.93414" lon="0.32159">
        <ele>1610.51721</ele>
        <time>2024-01-12T10:37:19Z</time>
      </trkpt>
      <trkpt lat="42.93413" lon="0.32158">
        <ele>1610.97591</ele>
        <time>2024-01-12T10:37:22Z</time>
      </trkpt>
      <trkpt lat="42.93412" lon="0.32158">
        <ele>1609.81433</ele>
        <time>2024-01-12T10:37:23Z</time>
      </trkpt>
      <trkpt lat="42.9341" lon="0.32157">
        <ele>1608.93854</ele>
        <time>2024-01-12T10:37:25Z</time>
      </trkpt>
      <trkpt lat="42.93409" lon="0.32156">
        <ele>1609.21969</ele>
        <time>2024-01-12T10:37:27Z</time>
      </trkpt>
      <trkpt lat="42.93407" lon="0.32156">
        <ele>1609.73318</ele>
        <time>2024-01-12T10:37:29Z</time>
      </trkpt>
      <trkpt lat="42.93406" lon="0.32155">
        <ele>1609.47089</ele>
        <time>2024-01-12T10:37:30Z</time>
      </trkpt>
      <trkpt lat="42.93405" lon="0.32153">
        <ele>1610.51996</ele>
        <time>2024-01-12T10:37:32Z</time>
      </trkpt>
      <trkpt lat="42.93403" lon="0.32151">
        <ele>1609.88241</ele>
        <time>2024-01-12T10:37:34Z</time>
      </trkpt>
      <trkpt lat="42.93403" lon="0.3215">
        <ele>1610.26115</ele>
        <time>2024-01-12T10:37:35Z</time>
      </trkpt>
      <trkpt lat="42.93402" lon="0.32149">
        <ele>1611.3898</ele>
        <time>2024-01-12T10:37:36Z</time>
      </trkpt>
      <trkpt lat="42.93401" lon="0.32147">
        <ele>1614.24505</ele>
        <time>2024-01-12T10:37:38Z</time>
      </trkpt>
      <trkpt lat="42.93401" lon="0.32145">
        <ele>1612.93884</ele>
        <time>2024-01-12T10:37:40Z</time>
      </trkpt>
      <trkpt lat="42.934" lon="0.32143">
        <ele>1614.84848</ele>
        <time>2024-01-12T10:37:42Z</time>
      </trkpt>
      <trkpt lat="42.93399" lon="0.32143">
        <ele>1615.03534</ele>
        <time>2024-01-12T10:37:43Z</time>
      </trkpt>
      <trkpt lat="42.93398" lon="0.32141">
        <ele>1617.21579</ele>
        <time>2024-01-12T10:37:45Z</time>
      </trkpt>
      <trkpt lat="42.93398" lon="0.32139">
        <ele>1616.03112</ele>
        <time>2024-01-12T10:37:47Z</time>
      </trkpt>
      <trkpt lat="42.93397" lon="0.32138">
        <ele>1615.07718</ele>
        <time>2024-01-12T10:37:49Z</time>
      </trkpt>
      <trkpt lat="42.93396" lon="0.32136">
        <ele>1615.45617</ele>
        <time>2024-01-12T10:37:50Z</time>
      </trkpt>
      <trkpt lat="42.93395" lon="0.32135">
        <ele>1613.28451</ele>
        <time>2024-01-12T10:37:52Z</time>
      </trkpt>
      <trkpt lat="42.93394" lon="0.32134">
        <ele>1613.30477</ele>
        <time>2024-01-12T10:37:54Z</time>
      </trkpt>
      <trkpt lat="42.93393" lon="0.32132">
        <ele>1613.73883</ele>
        <time>2024-01-12T10:37:55Z</time>
      </trkpt>
      <trkpt lat="42.93393" lon="0.3213">
        <ele>1613.62801</ele>
        <time>2024-01-12T10:37:57Z</time>
      </trkpt>
      <trkpt lat="42.93392" lon="0.32128">
        <ele>1613.76512</ele>
        <time>2024-01-12T10:37:58Z</time>
      </trkpt>
      <trkpt lat="42.93391" lon="0.32126">
        <ele>1610.35793</ele>
        <time>2024-01-12T10:38:01Z</time>
      </trkpt>
      <trkpt lat="42.9339" lon="0.32126">
        <ele>1609.50382</ele>
        <time>2024-01-12T10:38:02Z</time>
      </trkpt>
      <trkpt lat="42.93389" lon="0.32124">
        <ele>1608.63818</ele>
        <time>2024-01-12T10:38:04Z</time>
      </trkpt>
      <trkpt lat="42.93388" lon="0.32122">
        <ele>1608.33949</ele>
        <time>2024-01-12T10:38:05Z</time>
      </trkpt>
      <trkpt lat="42.93387" lon="0.32121">
        <ele>1608.53863</ele>
        <time>2024-01-12T10:38:06Z</time>
      </trkpt>
      <trkpt lat="42.93386" lon="0.3212">
        <ele>1608.05016</ele>
        <time>2024-01-12T10:38:07Z</time>
      </trkpt>
      <trkpt lat="42.93385" lon="0.32119">
        <ele>1608.2029</ele>
        <time>2024-01-12T10:38:08Z</time>
      </trkpt>
      <trkpt lat="42.93384" lon="0.32117">
        <ele>1606.11768</ele>
        <time>2024-01-12T10:38:10Z</time>
      </trkpt>
      <trkpt lat="42.93384" lon="0.32116">
        <ele>1606.46753</ele>
        <time>2024-01-12T10:38:11Z</time>
      </trkpt>
      <trkpt lat="42.93383" lon="0.32115">
        <ele>1605.95017</ele>
        <time>2024-01-12T10:38:12Z</time>
      </trkpt>
      <trkpt lat="42.93381" lon="0.32113">
        <ele>1605.72623</ele>
        <time>2024-01-12T10:38:13Z</time>
      </trkpt>
      <trkpt lat="42.9338" lon="0.32112">
        <ele>1605.78721</ele>
        <time>2024-01-12T10:38:14Z</time>
      </trkpt>
      <trkpt lat="42.93378" lon="0.32111">
        <ele>1605.52047</ele>
        <time>2024-01-12T10:38:16Z</time>
      </trkpt>
      <trkpt lat="42.93377" lon="0.3211">
        <ele>1605.52355</ele>
        <time>2024-01-12T10:38:17Z</time>
      </trkpt>
      <trkpt lat="42.93376" lon="0.32109">
        <ele>1604.71309</ele>
        <time>2024-01-12T10:38:18Z</time>
      </trkpt>
      <trkpt lat="42.93375" lon="0.32108">
        <ele>1604.93185</ele>
        <time>2024-01-12T10:38:19Z</time>
      </trkpt>
      <trkpt lat="42.93375" lon="0.32107">
        <ele>1605.04118</ele>
        <time>2024-01-12T10:38:21Z</time>
      </trkpt>
      <trkpt lat="42.93373" lon="0.32105">
        <ele>1605.55411</ele>
        <time>2024-01-12T10:38:23Z</time>
      </trkpt>
      <trkpt lat="42.93372" lon="0.32103">
        <ele>1605.11386</ele>
        <time>2024-01-12T10:38:24Z</time>
      </trkpt>
      <trkpt lat="42.93371" lon="0.32101">
        <ele>1607.02027</ele>
        <time>2024-01-12T10:38:26Z</time>
      </trkpt>
      <trkpt lat="42.9337" lon="0.321">
        <ele>1607.26452</ele>
        <time>2024-01-12T10:38:27Z</time>
      </trkpt>
      <trkpt lat="42.93369" lon="0.32099">
        <ele>1605.85774</ele>
        <time>2024-01-12T10:38:28Z</time>
      </trkpt>
      <trkpt lat="42.93368" lon="0.32099">
        <ele>1606.99883</ele>
        <time>2024-01-12T10:38:31Z</time>
      </trkpt>
      <trkpt lat="42.93367" lon="0.32098">
        <ele>1607.19838</ele>
        <time>2024-01-12T10:38:32Z</time>
      </trkpt>
      <trkpt lat="42.93366" lon="0.32097">
        <ele>1607.85538</ele>
        <time>2024-01-12T10:38:33Z</time>
      </trkpt>
      <trkpt lat="42.93365" lon="0.32096">
        <ele>1607.91333</ele>
        <time>2024-01-12T10:38:35Z</time>
      </trkpt>
      <trkpt lat="42.93364" lon="0.32096">
        <ele>1608.27222</ele>
        <time>2024-01-12T10:38:36Z</time>
      </trkpt>
      <trkpt lat="42.93363" lon="0.32094">
        <ele>1606.24887</ele>
        <time>2024-01-12T10:38:38Z</time>
      </trkpt>
      <trkpt lat="42.93361" lon="0.32093">
        <ele>1605.54957</ele>
        <time>2024-01-12T10:38:39Z</time>
      </trkpt>
      <trkpt lat="42.9336" lon="0.32091">
        <ele>1605.53885</ele>
        <time>2024-01-12T10:38:40Z</time>
      </trkpt>
      <trkpt lat="42.9336" lon="0.3209">
        <ele>1605.25462</ele>
        <time>2024-01-12T10:38:41Z</time>
      </trkpt>
      <trkpt lat="42.93359" lon="0.32089">
        <ele>1605.75973</ele>
        <time>2024-01-12T10:38:42Z</time>
      </trkpt>
      <trkpt lat="42.93358" lon="0.32088">
        <ele>1606.77191</ele>
        <time>2024-01-12T10:38:43Z</time>
      </trkpt>
      <trkpt lat="42.93356" lon="0.32088">
        <ele>1607.02626</ele>
        <time>2024-01-12T10:38:44Z</time>
      </trkpt>
      <trkpt lat="42.93355" lon="0.32087">
        <ele>1605.84685</ele>
        <time>2024-01-12T10:38:45Z</time>
      </trkpt>
      <trkpt lat="42.93354" lon="0.32085">
        <ele>1606.17767</ele>
        <time>2024-01-12T10:38:46Z</time>
      </trkpt>
      <trkpt lat="42.93353" lon="0.32084">
        <ele>1606.24252</ele>
        <time>2024-01-12T10:38:48Z</time>
      </trkpt>
      <trkpt lat="42.93352" lon="0.32083">
        <ele>1607.20225</ele>
        <time>2024-01-12T10:38:50Z</time>
      </trkpt>
      <trkpt lat="42.93352" lon="0.32081">
        <ele>1606.39057</ele>
        <time>2024-01-12T10:38:51Z</time>
      </trkpt>
      <trkpt lat="42.9335" lon="0.3208">
        <ele>1606.94464</ele>
        <time>2024-01-12T10:38:53Z</time>
      </trkpt>
      <trkpt lat="42.93349" lon="0.3208">
        <ele>1606.53968</ele>
        <time>2024-01-12T10:38:54Z</time>
      </trkpt>
      <trkpt lat="42.93348" lon="0.32078">
        <ele>1606.64806</ele>
        <time>2024-01-12T10:38:56Z</time>
      </trkpt>
      <trkpt lat="42.93346" lon="0.32077">
        <ele>1606.74263</ele>
        <time>2024-01-12T10:38:58Z</time>
      </trkpt>
      <trkpt lat="42.93346" lon="0.32075">
        <ele>1607.49922</ele>
        <time>2024-01-12T10:38:59Z</time>
      </trkpt>
      <trkpt lat="42.93345" lon="0.32074">
        <ele>1607.88725</ele>
        <time>2024-01-12T10:39:01Z</time>
      </trkpt>
      <trkpt lat="42.93344" lon="0.32073">
        <ele>1607.951</ele>
        <time>2024-01-12T10:39:03Z</time>
      </trkpt>
      <trkpt lat="42.93343" lon="0.32072">
        <ele>1607.83132</ele>
        <time>2024-01-12T10:39:04Z</time>
      </trkpt>
      <trkpt lat="42.93342" lon="0.32071">
        <ele>1605.95346</ele>
        <time>2024-01-12T10:39:06Z</time>
      </trkpt>
      <trkpt lat="42.93341" lon="0.32071">
        <ele>1606.06331</ele>
        <time>2024-01-12T10:39:07Z</time>
      </trkpt>
      <trkpt lat="42.9334" lon="0.3207">
        <ele>1606.12412</ele>
        <time>2024-01-12T10:39:08Z</time>
      </trkpt>
      <trkpt lat="42.93339" lon="0.32069">
        <ele>1605.26965</ele>
        <time>2024-01-12T10:39:10Z</time>
      </trkpt>
      <trkpt lat="42.93337" lon="0.32067">
        <ele>1604.73943</ele>
        <time>2024-01-12T10:39:12Z</time>
      </trkpt>
      <trkpt lat="42.93336" lon="0.32066">
        <ele>1605.01523</ele>
        <time>2024-01-12T10:39:14Z</time>
      </trkpt>
      <trkpt lat="42.93335" lon="0.32065">
        <ele>1605.16419</ele>
        <time>2024-01-12T10:39:15Z</time>
      </trkpt>
      <trkpt lat="42.93334" lon="0.32064">
        <ele>1605.17482</ele>
        <time>2024-01-12T10:39:16Z</time>
      </trkpt>
      <trkpt lat="42.93332" lon="0.32063">
        <ele>1605.96796</ele>
        <time>2024-01-12T10:39:18Z</time>
      </trkpt>
      <trkpt lat="42.93331" lon="0.32062">
        <ele>1606.26029</ele>
        <time>2024-01-12T10:39:20Z</time>
      </trkpt>
      <trkpt lat="42.93331" lon="0.32061">
        <ele>1606.08284</ele>
        <time>2024-01-12T10:39:21Z</time>
      </trkpt>
      <trkpt lat="42.93329" lon="0.3206">
        <ele>1606.84031</ele>
        <time>2024-01-12T10:39:22Z</time>
      </trkpt>
      <trkpt lat="42.93328" lon="0.3206">
        <ele>1606.58298</ele>
        <time>2024-01-12T10:39:23Z</time>
      </trkpt>
      <trkpt lat="42.93327" lon="0.32058">
        <ele>1606.14442</ele>
        <time>2024-01-12T10:39:25Z</time>
      </trkpt>
      <trkpt lat="42.93328" lon="0.32059">
        <ele>1605.70653</ele>
        <time>2024-01-12T10:39:26Z</time>
      </trkpt>
      <trkpt lat="42.93328" lon="0.3206">
        <ele>1605.44606</ele>
        <time>2024-01-12T10:39:30Z</time>
      </trkpt>
      <trkpt lat="42.93326" lon="0.32058">
        <ele>1606.01677</ele>
        <time>2024-01-12T10:39:34Z</time>
      </trkpt>
      <trkpt lat="42.93326" lon="0.32057">
        <ele>1606.23826</ele>
        <time>2024-01-12T10:39:36Z</time>
      </trkpt>
      <trkpt lat="42.93325" lon="0.32056">
        <ele>1606.53152</ele>
        <time>2024-01-12T10:39:37Z</time>
      </trkpt>
      <trkpt lat="42.93324" lon="0.32054">
        <ele>1606.16911</ele>
        <time>2024-01-12T10:39:39Z</time>
      </trkpt>
      <trkpt lat="42.93323" lon="0.32053">
        <ele>1606.91907</ele>
        <time>2024-01-12T10:39:40Z</time>
      </trkpt>
      <trkpt lat="42.93323" lon="0.32052">
        <ele>1605.59017</ele>
        <time>2024-01-12T10:39:42Z</time>
      </trkpt>
      <trkpt lat="42.93322" lon="0.3205">
        <ele>1605.93953</ele>
        <time>2024-01-12T10:39:43Z</time>
      </trkpt>
      <trkpt lat="42.93321" lon="0.32049">
        <ele>1606.11358</ele>
        <time>2024-01-12T10:39:44Z</time>
      </trkpt>
      <trkpt lat="42.93321" lon="0.32048">
        <ele>1606.41627</ele>
        <time>2024-01-12T10:39:45Z</time>
      </trkpt>
      <trkpt lat="42.9332" lon="0.32046">
        <ele>1605.60267</ele>
        <time>2024-01-12T10:39:46Z</time>
      </trkpt>
      <trkpt lat="42.93318" lon="0.32043">
        <ele>1605.99303</ele>
        <time>2024-01-12T10:39:48Z</time>
      </trkpt>
      <trkpt lat="42.93318" lon="0.32043">
        <ele>1606.52569</ele>
        <time>2024-01-12T10:39:49Z</time>
      </trkpt>
      <trkpt lat="42.93316" lon="0.32041">
        <ele>1606.75208</ele>
        <time>2024-01-12T10:39:51Z</time>
      </trkpt>
      <trkpt lat="42.93316" lon="0.3204">
        <ele>1606.23351</ele>
        <time>2024-01-12T10:39:52Z</time>
      </trkpt>
      <trkpt lat="42.93315" lon="0.32039">
        <ele>1605.71545</ele>
        <time>2024-01-12T10:39:56Z</time>
      </trkpt>
      <trkpt lat="42.93313" lon="0.32036">
        <ele>1606.11832</ele>
        <time>2024-01-12T10:39:59Z</time>
      </trkpt>
      <trkpt lat="42.93312" lon="0.32035">
        <ele>1606.19656</ele>
        <time>2024-01-12T10:40:00Z</time>
      </trkpt>
      <trkpt lat="42.93313" lon="0.32036">
        <ele>1605.12499</ele>
        <time>2024-01-12T10:40:02Z</time>
      </trkpt>
      <trkpt lat="42.93314" lon="0.32037">
        <ele>1605.99513</ele>
        <time>2024-01-12T10:40:08Z</time>
      </trkpt>
      <trkpt lat="42.93315" lon="0.32038">
        <ele>1604.47355</ele>
        <time>2024-01-12T10:40:15Z</time>
      </trkpt>
      <trkpt lat="42.93314" lon="0.32034">
        <ele>1605.54212</ele>
        <time>2024-01-12T10:40:45Z</time>
      </trkpt>
      <trkpt lat="42.93313" lon="0.32034">
        <ele>1604.71065</ele>
        <time>2024-01-12T10:40:46Z</time>
      </trkpt>
      <trkpt lat="42.93312" lon="0.32033">
        <ele>1604.60214</ele>
        <time>2024-01-12T10:40:47Z</time>
      </trkpt>
      <trkpt lat="42.93311" lon="0.32031">
        <ele>1602.86352</ele>
        <time>2024-01-12T10:40:49Z</time>
      </trkpt>
      <trkpt lat="42.9331" lon="0.32031">
        <ele>1602.02524</ele>
        <time>2024-01-12T10:40:50Z</time>
      </trkpt>
      <trkpt lat="42.93309" lon="0.3203">
        <ele>1602.79149</ele>
        <time>2024-01-12T10:40:51Z</time>
      </trkpt>
      <trkpt lat="42.93308" lon="0.32028">
        <ele>1602.99881</ele>
        <time>2024-01-12T10:40:52Z</time>
      </trkpt>
      <trkpt lat="42.93308" lon="0.32026">
        <ele>1605.43071</ele>
        <time>2024-01-12T10:40:54Z</time>
      </trkpt>
      <trkpt lat="42.93307" lon="0.32025">
        <ele>1606.00742</ele>
        <time>2024-01-12T10:40:55Z</time>
      </trkpt>
      <trkpt lat="42.93308" lon="0.32024">
        <ele>1606.62892</ele>
        <time>2024-01-12T10:40:56Z</time>
      </trkpt>
      <trkpt lat="42.93307" lon="0.32023">
        <ele>1605.59946</ele>
        <time>2024-01-12T10:40:57Z</time>
      </trkpt>
      <trkpt lat="42.93306" lon="0.32022">
        <ele>1605.37807</ele>
        <time>2024-01-12T10:40:58Z</time>
      </trkpt>
      <trkpt lat="42.93305" lon="0.3202">
        <ele>1605.64503</ele>
        <time>2024-01-12T10:40:59Z</time>
      </trkpt>
      <trkpt lat="42.93304" lon="0.32019">
        <ele>1605.30199</ele>
        <time>2024-01-12T10:41:00Z</time>
      </trkpt>
      <trkpt lat="42.93303" lon="0.32018">
        <ele>1604.78052</ele>
        <time>2024-01-12T10:41:02Z</time>
      </trkpt>
      <trkpt lat="42.93301" lon="0.32016">
        <ele>1605.23799</ele>
        <time>2024-01-12T10:41:03Z</time>
      </trkpt>
      <trkpt lat="42.93301" lon="0.32015">
        <ele>1607.49071</ele>
        <time>2024-01-12T10:41:05Z</time>
      </trkpt>
      <trkpt lat="42.93301" lon="0.32013">
        <ele>1607.51235</ele>
        <time>2024-01-12T10:41:06Z</time>
      </trkpt>
      <trkpt lat="42.93301" lon="0.32012">
        <ele>1608.04872</ele>
        <time>2024-01-12T10:41:07Z</time>
      </trkpt>
      <trkpt lat="42.93301" lon="0.3201">
        <ele>1606.42546</ele>
        <time>2024-01-12T10:41:08Z</time>
      </trkpt>
      <trkpt lat="42.933" lon="0.32009">
        <ele>1607.19757</ele>
        <time>2024-01-12T10:41:10Z</time>
      </trkpt>
      <trkpt lat="42.93299" lon="0.32008">
        <ele>1606.98984</ele>
        <time>2024-01-12T10:41:11Z</time>
      </trkpt>
      <trkpt lat="42.93299" lon="0.32005">
        <ele>1606.5171</ele>
        <time>2024-01-12T10:41:13Z</time>
      </trkpt>
      <trkpt lat="42.93299" lon="0.32003">
        <ele>1606.55899</ele>
        <time>2024-01-12T10:41:14Z</time>
      </trkpt>
      <trkpt lat="42.93299" lon="0.32002">
        <ele>1606.65691</ele>
        <time>2024-01-12T10:41:15Z</time>
      </trkpt>
      <trkpt lat="42.93298" lon="0.32001">
        <ele>1605.6646</ele>
        <time>2024-01-12T10:41:16Z</time>
      </trkpt>
      <trkpt lat="42.93298" lon="0.32">
        <ele>1604.7998</ele>
        <time>2024-01-12T10:41:17Z</time>
      </trkpt>
      <trkpt lat="42.93297" lon="0.31999">
        <ele>1604.19709</ele>
        <time>2024-01-12T10:41:18Z</time>
      </trkpt>
      <trkpt lat="42.93295" lon="0.31997">
        <ele>1604.11042</ele>
        <time>2024-01-12T10:41:19Z</time>
      </trkpt>
      <trkpt lat="42.93294" lon="0.31995">
        <ele>1602.88624</ele>
        <time>2024-01-12T10:41:21Z</time>
      </trkpt>
      <trkpt lat="42.93294" lon="0.31994">
        <ele>1604.27148</ele>
        <time>2024-01-12T10:41:22Z</time>
      </trkpt>
      <trkpt lat="42.93294" lon="0.31992">
        <ele>1604.24914</ele>
        <time>2024-01-12T10:41:23Z</time>
      </trkpt>
      <trkpt lat="42.93293" lon="0.31991">
        <ele>1604.83206</ele>
        <time>2024-01-12T10:41:24Z</time>
      </trkpt>
      <trkpt lat="42.93293" lon="0.3199">
        <ele>1605.10049</ele>
        <time>2024-01-12T10:41:25Z</time>
      </trkpt>
      <trkpt lat="42.93294" lon="0.31987">
        <ele>1606.53603</ele>
        <time>2024-01-12T10:41:27Z</time>
      </trkpt>
      <trkpt lat="42.93293" lon="0.31986">
        <ele>1605.16138</ele>
        <time>2024-01-12T10:41:29Z</time>
      </trkpt>
      <trkpt lat="42.93292" lon="0.31984">
        <ele>1604.65395</ele>
        <time>2024-01-12T10:41:30Z</time>
      </trkpt>
      <trkpt lat="42.93292" lon="0.31982">
        <ele>1605.12668</ele>
        <time>2024-01-12T10:41:31Z</time>
      </trkpt>
      <trkpt lat="42.93291" lon="0.31981">
        <ele>1604.69527</ele>
        <time>2024-01-12T10:41:33Z</time>
      </trkpt>
      <trkpt lat="42.93291" lon="0.31979">
        <ele>1604.52602</ele>
        <time>2024-01-12T10:41:34Z</time>
      </trkpt>
      <trkpt lat="42.9329" lon="0.31978">
        <ele>1604.10857</ele>
        <time>2024-01-12T10:41:35Z</time>
      </trkpt>
      <trkpt lat="42.93289" lon="0.31977">
        <ele>1603.24332</ele>
        <time>2024-01-12T10:41:36Z</time>
      </trkpt>
      <trkpt lat="42.93289" lon="0.31975">
        <ele>1603.28155</ele>
        <time>2024-01-12T10:41:37Z</time>
      </trkpt>
      <trkpt lat="42.93289" lon="0.31973">
        <ele>1604.01629</ele>
        <time>2024-01-12T10:41:39Z</time>
      </trkpt>
      <trkpt lat="42.93288" lon="0.31971">
        <ele>1604.42947</ele>
        <time>2024-01-12T10:41:40Z</time>
      </trkpt>
      <trkpt lat="42.93288" lon="0.31969">
        <ele>1605.24105</ele>
        <time>2024-01-12T10:41:43Z</time>
      </trkpt>
      <trkpt lat="42.93289" lon="0.31967">
        <ele>1605.13516</ele>
        <time>2024-01-12T10:41:44Z</time>
      </trkpt>
      <trkpt lat="42.93288" lon="0.31964">
        <ele>1604.98313</ele>
        <time>2024-01-12T10:41:45Z</time>
      </trkpt>
      <trkpt lat="42.93288" lon="0.31963">
        <ele>1604.889</ele>
        <time>2024-01-12T10:41:46Z</time>
      </trkpt>
      <trkpt lat="42.93288" lon="0.31961">
        <ele>1603.88086</ele>
        <time>2024-01-12T10:41:47Z</time>
      </trkpt>
      <trkpt lat="42.93288" lon="0.3196">
        <ele>1603.27754</ele>
        <time>2024-01-12T10:41:48Z</time>
      </trkpt>
      <trkpt lat="42.93287" lon="0.31958">
        <ele>1603.03813</ele>
        <time>2024-01-12T10:41:49Z</time>
      </trkpt>
      <trkpt lat="42.93287" lon="0.31956">
        <ele>1603.11307</ele>
        <time>2024-01-12T10:41:50Z</time>
      </trkpt>
      <trkpt lat="42.93287" lon="0.31955">
        <ele>1602.71758</ele>
        <time>2024-01-12T10:41:51Z</time>
      </trkpt>
      <trkpt lat="42.93286" lon="0.31953">
        <ele>1602.44974</ele>
        <time>2024-01-12T10:41:53Z</time>
      </trkpt>
      <trkpt lat="42.93286" lon="0.31952">
        <ele>1602.44295</ele>
        <time>2024-01-12T10:41:54Z</time>
      </trkpt>
      <trkpt lat="42.93285" lon="0.31949">
        <ele>1601.81819</ele>
        <time>2024-01-12T10:41:56Z</time>
      </trkpt>
      <trkpt lat="42.93286" lon="0.31948">
        <ele>1603.48221</ele>
        <time>2024-01-12T10:41:57Z</time>
      </trkpt>
      <trkpt lat="42.93285" lon="0.31946">
        <ele>1603.25654</ele>
        <time>2024-01-12T10:41:58Z</time>
      </trkpt>
      <trkpt lat="42.93284" lon="0.31944">
        <ele>1603.09971</ele>
        <time>2024-01-12T10:41:59Z</time>
      </trkpt>
      <trkpt lat="42.93282" lon="0.31941">
        <ele>1602.38846</ele>
        <time>2024-01-12T10:42:00Z</time>
      </trkpt>
      <trkpt lat="42.93281" lon="0.31939">
        <ele>1602.2225</ele>
        <time>2024-01-12T10:42:02Z</time>
      </trkpt>
      <trkpt lat="42.93281" lon="0.31937">
        <ele>1602.67923</ele>
        <time>2024-01-12T10:42:03Z</time>
      </trkpt>
      <trkpt lat="42.9328" lon="0.31936">
        <ele>1602.78115</ele>
        <time>2024-01-12T10:42:04Z</time>
      </trkpt>
      <trkpt lat="42.93281" lon="0.31934">
        <ele>1603.93501</ele>
        <time>2024-01-12T10:42:05Z</time>
      </trkpt>
      <trkpt lat="42.9328" lon="0.31932">
        <ele>1605.70196</ele>
        <time>2024-01-12T10:42:07Z</time>
      </trkpt>
      <trkpt lat="42.9328" lon="0.3193">
        <ele>1606.4771</ele>
        <time>2024-01-12T10:42:08Z</time>
      </trkpt>
      <trkpt lat="42.93279" lon="0.31927">
        <ele>1606.244</ele>
        <time>2024-01-12T10:42:10Z</time>
      </trkpt>
      <trkpt lat="42.93278" lon="0.31926">
        <ele>1604.70605</ele>
        <time>2024-01-12T10:42:11Z</time>
      </trkpt>
      <trkpt lat="42.93279" lon="0.31925">
        <ele>1603.11993</ele>
        <time>2024-01-12T10:42:12Z</time>
      </trkpt>
      <trkpt lat="42.93278" lon="0.31923">
        <ele>1602.80782</ele>
        <time>2024-01-12T10:42:13Z</time>
      </trkpt>
      <trkpt lat="42.93277" lon="0.31922">
        <ele>1604.49483</ele>
        <time>2024-01-12T10:42:14Z</time>
      </trkpt>
      <trkpt lat="42.93277" lon="0.3192">
        <ele>1604.81384</ele>
        <time>2024-01-12T10:42:15Z</time>
      </trkpt>
      <trkpt lat="42.93276" lon="0.31918">
        <ele>1603.78675</ele>
        <time>2024-01-12T10:42:17Z</time>
      </trkpt>
      <trkpt lat="42.93276" lon="0.31915">
        <ele>1602.7405</ele>
        <time>2024-01-12T10:42:20Z</time>
      </trkpt>
      <trkpt lat="42.93275" lon="0.31912">
        <ele>1602.89398</ele>
        <time>2024-01-12T10:42:22Z</time>
      </trkpt>
      <trkpt lat="42.93274" lon="0.3191">
        <ele>1602.48805</ele>
        <time>2024-01-12T10:42:23Z</time>
      </trkpt>
      <trkpt lat="42.93273" lon="0.31909">
        <ele>1601.80108</ele>
        <time>2024-01-12T10:42:25Z</time>
      </trkpt>
      <trkpt lat="42.93273" lon="0.31907">
        <ele>1602.15157</ele>
        <time>2024-01-12T10:42:27Z</time>
      </trkpt>
      <trkpt lat="42.93273" lon="0.31905">
        <ele>1600.98271</ele>
        <time>2024-01-12T10:42:28Z</time>
      </trkpt>
      <trkpt lat="42.93272" lon="0.31903">
        <ele>1602.45813</ele>
        <time>2024-01-12T10:42:30Z</time>
      </trkpt>
      <trkpt lat="42.93272" lon="0.31902">
        <ele>1602.53829</ele>
        <time>2024-01-12T10:42:31Z</time>
      </trkpt>
      <trkpt lat="42.93271" lon="0.319">
        <ele>1600.34703</ele>
        <time>2024-01-12T10:42:33Z</time>
      </trkpt>
      <trkpt lat="42.9327" lon="0.31897">
        <ele>1600.35752</ele>
        <time>2024-01-12T10:42:35Z</time>
      </trkpt>
      <trkpt lat="42.9327" lon="0.31896">
        <ele>1600.16259</ele>
        <time>2024-01-12T10:42:37Z</time>
      </trkpt>
      <trkpt lat="42.93269" lon="0.31894">
        <ele>1599.66256</ele>
        <time>2024-01-12T10:42:38Z</time>
      </trkpt>
      <trkpt lat="42.93268" lon="0.31891">
        <ele>1600.3087</ele>
        <time>2024-01-12T10:42:39Z</time>
      </trkpt>
      <trkpt lat="42.93267" lon="0.31889">
        <ele>1601.07299</ele>
        <time>2024-01-12T10:42:40Z</time>
      </trkpt>
      <trkpt lat="42.93267" lon="0.31888">
        <ele>1600.60721</ele>
        <time>2024-01-12T10:42:41Z</time>
      </trkpt>
      <trkpt lat="42.93267" lon="0.31886">
        <ele>1600.10469</ele>
        <time>2024-01-12T10:42:42Z</time>
      </trkpt>
      <trkpt lat="42.93266" lon="0.31885">
        <ele>1600.14591</ele>
        <time>2024-01-12T10:42:43Z</time>
      </trkpt>
      <trkpt lat="42.93266" lon="0.31883">
        <ele>1600.85885</ele>
        <time>2024-01-12T10:42:44Z</time>
      </trkpt>
      <trkpt lat="42.93265" lon="0.31881">
        <ele>1601.69322</ele>
        <time>2024-01-12T10:42:45Z</time>
      </trkpt>
      <trkpt lat="42.93265" lon="0.31879">
        <ele>1601.48771</ele>
        <time>2024-01-12T10:42:46Z</time>
      </trkpt>
      <trkpt lat="42.93264" lon="0.31879">
        <ele>1602.18706</ele>
        <time>2024-01-12T10:42:47Z</time>
      </trkpt>
      <trkpt lat="42.93263" lon="0.31877">
        <ele>1602.08953</ele>
        <time>2024-01-12T10:42:48Z</time>
      </trkpt>
      <trkpt lat="42.93262" lon="0.31875">
        <ele>1600.63685</ele>
        <time>2024-01-12T10:42:49Z</time>
      </trkpt>
      <trkpt lat="42.93261" lon="0.31873">
        <ele>1599.93375</ele>
        <time>2024-01-12T10:42:51Z</time>
      </trkpt>
      <trkpt lat="42.9326" lon="0.31872">
        <ele>1600.87899</ele>
        <time>2024-01-12T10:42:52Z</time>
      </trkpt>
      <trkpt lat="42.93259" lon="0.31871">
        <ele>1598.88579</ele>
        <time>2024-01-12T10:42:54Z</time>
      </trkpt>
      <trkpt lat="42.93257" lon="0.31868">
        <ele>1599.73082</ele>
        <time>2024-01-12T10:42:56Z</time>
      </trkpt>
      <trkpt lat="42.93257" lon="0.31865">
        <ele>1600.395</ele>
        <time>2024-01-12T10:42:58Z</time>
      </trkpt>
      <trkpt lat="42.93255" lon="0.31865">
        <ele>1600.79746</ele>
        <time>2024-01-12T10:42:59Z</time>
      </trkpt>
      <trkpt lat="42.93254" lon="0.31863">
        <ele>1601.25445</ele>
        <time>2024-01-12T10:43:01Z</time>
      </trkpt>
      <trkpt lat="42.93252" lon="0.31863">
        <ele>1602.04757</ele>
        <time>2024-01-12T10:43:02Z</time>
      </trkpt>
      <trkpt lat="42.93251" lon="0.31861">
        <ele>1601.2314</ele>
        <time>2024-01-12T10:43:04Z</time>
      </trkpt>
      <trkpt lat="42.93249" lon="0.31861">
        <ele>1601.35526</ele>
        <time>2024-01-12T10:43:05Z</time>
      </trkpt>
      <trkpt lat="42.93248" lon="0.3186">
        <ele>1601.68591</ele>
        <time>2024-01-12T10:43:06Z</time>
      </trkpt>
      <trkpt lat="42.93247" lon="0.3186">
        <ele>1602.00629</ele>
        <time>2024-01-12T10:43:07Z</time>
      </trkpt>
      <trkpt lat="42.93245" lon="0.31859">
        <ele>1602.21903</ele>
        <time>2024-01-12T10:43:09Z</time>
      </trkpt>
      <trkpt lat="42.93244" lon="0.31858">
        <ele>1602.57786</ele>
        <time>2024-01-12T10:43:11Z</time>
      </trkpt>
      <trkpt lat="42.93243" lon="0.31857">
        <ele>1603.43544</ele>
        <time>2024-01-12T10:43:12Z</time>
      </trkpt>
      <trkpt lat="42.93242" lon="0.31856">
        <ele>1604.19579</ele>
        <time>2024-01-12T10:43:13Z</time>
      </trkpt>
      <trkpt lat="42.93241" lon="0.31855">
        <ele>1603.3931</ele>
        <time>2024-01-12T10:43:14Z</time>
      </trkpt>
      <trkpt lat="42.93239" lon="0.31855">
        <ele>1602.38304</ele>
        <time>2024-01-12T10:43:17Z</time>
      </trkpt>
      <trkpt lat="42.93238" lon="0.31854">
        <ele>1602.6046</ele>
        <time>2024-01-12T10:43:18Z</time>
      </trkpt>
      <trkpt lat="42.93237" lon="0.31853">
        <ele>1602.36249</ele>
        <time>2024-01-12T10:43:19Z</time>
      </trkpt>
      <trkpt lat="42.93235" lon="0.31853">
        <ele>1602.95788</ele>
        <time>2024-01-12T10:43:21Z</time>
      </trkpt>
      <trkpt lat="42.93234" lon="0.31853">
        <ele>1602.48948</ele>
        <time>2024-01-12T10:43:22Z</time>
      </trkpt>
      <trkpt lat="42.93233" lon="0.31854">
        <ele>1603.57617</ele>
        <time>2024-01-12T10:43:23Z</time>
      </trkpt>
      <trkpt lat="42.93231" lon="0.31855">
        <ele>1603.01653</ele>
        <time>2024-01-12T10:43:25Z</time>
      </trkpt>
      <trkpt lat="42.9323" lon="0.31856">
        <ele>1602.90391</ele>
        <time>2024-01-12T10:43:27Z</time>
      </trkpt>
      <trkpt lat="42.93229" lon="0.31856">
        <ele>1603.20225</ele>
        <time>2024-01-12T10:43:28Z</time>
      </trkpt>
      <trkpt lat="42.93228" lon="0.31857">
        <ele>1601.96841</ele>
        <time>2024-01-12T10:43:30Z</time>
      </trkpt>
      <trkpt lat="42.93227" lon="0.31858">
        <ele>1602.82602</ele>
        <time>2024-01-12T10:43:31Z</time>
      </trkpt>
      <trkpt lat="42.93226" lon="0.31858">
        <ele>1602.60128</ele>
        <time>2024-01-12T10:43:32Z</time>
      </trkpt>
      <trkpt lat="42.93225" lon="0.31859">
        <ele>1602.84704</ele>
        <time>2024-01-12T10:43:33Z</time>
      </trkpt>
      <trkpt lat="42.93224" lon="0.3186">
        <ele>1603.67882</ele>
        <time>2024-01-12T10:43:34Z</time>
      </trkpt>
      <trkpt lat="42.93223" lon="0.3186">
        <ele>1602.93879</ele>
        <time>2024-01-12T10:43:36Z</time>
      </trkpt>
      <trkpt lat="42.93222" lon="0.31862">
        <ele>1602.15621</ele>
        <time>2024-01-12T10:43:37Z</time>
      </trkpt>
      <trkpt lat="42.93222" lon="0.31864">
        <ele>1602.12164</ele>
        <time>2024-01-12T10:43:39Z</time>
      </trkpt>
      <trkpt lat="42.93221" lon="0.31865">
        <ele>1602.46733</ele>
        <time>2024-01-12T10:43:41Z</time>
      </trkpt>
      <trkpt lat="42.9322" lon="0.31866">
        <ele>1603.25828</ele>
        <time>2024-01-12T10:43:43Z</time>
      </trkpt>
      <trkpt lat="42.93219" lon="0.31867">
        <ele>1604.20454</ele>
        <time>2024-01-12T10:43:44Z</time>
      </trkpt>
      <trkpt lat="42.93218" lon="0.31868">
        <ele>1603.93681</ele>
        <time>2024-01-12T10:43:46Z</time>
      </trkpt>
      <trkpt lat="42.93216" lon="0.31869">
        <ele>1603.23587</ele>
        <time>2024-01-12T10:43:48Z</time>
      </trkpt>
      <trkpt lat="42.93215" lon="0.3187">
        <ele>1603.812</ele>
        <time>2024-01-12T10:43:49Z</time>
      </trkpt>
      <trkpt lat="42.93214" lon="0.3187">
        <ele>1603.23514</ele>
        <time>2024-01-12T10:43:50Z</time>
      </trkpt>
      <trkpt lat="42.93212" lon="0.3187">
        <ele>1603.33225</ele>
        <time>2024-01-12T10:43:52Z</time>
      </trkpt>
      <trkpt lat="42.9321" lon="0.31871">
        <ele>1603.73121</ele>
        <time>2024-01-12T10:43:53Z</time>
      </trkpt>
      <trkpt lat="42.93208" lon="0.31872">
        <ele>1602.8948</ele>
        <time>2024-01-12T10:43:55Z</time>
      </trkpt>
      <trkpt lat="42.93207" lon="0.31871">
        <ele>1603.21262</ele>
        <time>2024-01-12T10:43:57Z</time>
      </trkpt>
      <trkpt lat="42.93206" lon="0.31873">
        <ele>1603.52525</ele>
        <time>2024-01-12T10:43:58Z</time>
      </trkpt>
      <trkpt lat="42.93205" lon="0.31873">
        <ele>1603.57123</ele>
        <time>2024-01-12T10:43:59Z</time>
      </trkpt>
      <trkpt lat="42.93204" lon="0.31874">
        <ele>1603.50309</ele>
        <time>2024-01-12T10:44:00Z</time>
      </trkpt>
      <trkpt lat="42.93203" lon="0.31874">
        <ele>1605.24235</ele>
        <time>2024-01-12T10:44:01Z</time>
      </trkpt>
      <trkpt lat="42.93202" lon="0.31875">
        <ele>1604.35488</ele>
        <time>2024-01-12T10:44:02Z</time>
      </trkpt>
      <trkpt lat="42.93201" lon="0.31875">
        <ele>1604.27816</ele>
        <time>2024-01-12T10:44:03Z</time>
      </trkpt>
      <trkpt lat="42.932" lon="0.31876">
        <ele>1604.5748</ele>
        <time>2024-01-12T10:44:04Z</time>
      </trkpt>
      <trkpt lat="42.93199" lon="0.31876">
        <ele>1604.24076</ele>
        <time>2024-01-12T10:44:05Z</time>
      </trkpt>
      <trkpt lat="42.93198" lon="0.31877">
        <ele>1603.43741</ele>
        <time>2024-01-12T10:44:06Z</time>
      </trkpt>
      <trkpt lat="42.93196" lon="0.31878">
        <ele>1604.09911</ele>
        <time>2024-01-12T10:44:08Z</time>
      </trkpt>
      <trkpt lat="42.93194" lon="0.31879">
        <ele>1604.51437</ele>
        <time>2024-01-12T10:44:09Z</time>
      </trkpt>
      <trkpt lat="42.93193" lon="0.31879">
        <ele>1600.61232</ele>
        <time>2024-01-12T10:44:11Z</time>
      </trkpt>
      <trkpt lat="42.93192" lon="0.3188">
        <ele>1600.57907</ele>
        <time>2024-01-12T10:44:12Z</time>
      </trkpt>
      <trkpt lat="42.9319" lon="0.31881">
        <ele>1601.03953</ele>
        <time>2024-01-12T10:44:13Z</time>
      </trkpt>
      <trkpt lat="42.93187" lon="0.31881">
        <ele>1600.41455</ele>
        <time>2024-01-12T10:44:16Z</time>
      </trkpt>
      <trkpt lat="42.93186" lon="0.31882">
        <ele>1599.34327</ele>
        <time>2024-01-12T10:44:17Z</time>
      </trkpt>
      <trkpt lat="42.93184" lon="0.31882">
        <ele>1598.56344</ele>
        <time>2024-01-12T10:44:19Z</time>
      </trkpt>
      <trkpt lat="42.93182" lon="0.31883">
        <ele>1599.20497</ele>
        <time>2024-01-12T10:44:20Z</time>
      </trkpt>
      <trkpt lat="42.93181" lon="0.31884">
        <ele>1599.55542</ele>
        <time>2024-01-12T10:44:22Z</time>
      </trkpt>
      <trkpt lat="42.9318" lon="0.31884">
        <ele>1600.48526</ele>
        <time>2024-01-12T10:44:23Z</time>
      </trkpt>
      <trkpt lat="42.93178" lon="0.31884">
        <ele>1600.01706</ele>
        <time>2024-01-12T10:44:24Z</time>
      </trkpt>
      <trkpt lat="42.93176" lon="0.31884">
        <ele>1599.77963</ele>
        <time>2024-01-12T10:44:26Z</time>
      </trkpt>
      <trkpt lat="42.93175" lon="0.31885">
        <ele>1599.33975</ele>
        <time>2024-01-12T10:44:27Z</time>
      </trkpt>
      <trkpt lat="42.93172" lon="0.31885">
        <ele>1599.04571</ele>
        <time>2024-01-12T10:44:29Z</time>
      </trkpt>
      <trkpt lat="42.93172" lon="0.31885">
        <ele>1599.12677</ele>
        <time>2024-01-12T10:44:30Z</time>
      </trkpt>
      <trkpt lat="42.9317" lon="0.31885">
        <ele>1598.74905</ele>
        <time>2024-01-12T10:44:32Z</time>
      </trkpt>
      <trkpt lat="42.93168" lon="0.31885">
        <ele>1598.45452</ele>
        <time>2024-01-12T10:44:34Z</time>
      </trkpt>
      <trkpt lat="42.93167" lon="0.31885">
        <ele>1598.47473</ele>
        <time>2024-01-12T10:44:35Z</time>
      </trkpt>
      <trkpt lat="42.93166" lon="0.31885">
        <ele>1599.26687</ele>
        <time>2024-01-12T10:44:36Z</time>
      </trkpt>
      <trkpt lat="42.93164" lon="0.31886">
        <ele>1599.18827</ele>
        <time>2024-01-12T10:44:37Z</time>
      </trkpt>
      <trkpt lat="42.93162" lon="0.31886">
        <ele>1599.11487</ele>
        <time>2024-01-12T10:44:38Z</time>
      </trkpt>
      <trkpt lat="42.93161" lon="0.31886">
        <ele>1600.06584</ele>
        <time>2024-01-12T10:44:39Z</time>
      </trkpt>
      <trkpt lat="42.9316" lon="0.31887">
        <ele>1599.90544</ele>
        <time>2024-01-12T10:44:40Z</time>
      </trkpt>
      <trkpt lat="42.93158" lon="0.31887">
        <ele>1599.91682</ele>
        <time>2024-01-12T10:44:41Z</time>
      </trkpt>
      <trkpt lat="42.93157" lon="0.31886">
        <ele>1599.13318</ele>
        <time>2024-01-12T10:44:42Z</time>
      </trkpt>
      <trkpt lat="42.93155" lon="0.31888">
        <ele>1597.79333</ele>
        <time>2024-01-12T10:44:44Z</time>
      </trkpt>
      <trkpt lat="42.93154" lon="0.31888">
        <ele>1597.95466</ele>
        <time>2024-01-12T10:44:45Z</time>
      </trkpt>
      <trkpt lat="42.93153" lon="0.31888">
        <ele>1597.26469</ele>
        <time>2024-01-12T10:44:46Z</time>
      </trkpt>
      <trkpt lat="42.93151" lon="0.31888">
        <ele>1597.34148</ele>
        <time>2024-01-12T10:44:48Z</time>
      </trkpt>
      <trkpt lat="42.9315" lon="0.31888">
        <ele>1596.97342</ele>
        <time>2024-01-12T10:44:49Z</time>
      </trkpt>
      <trkpt lat="42.93148" lon="0.31888">
        <ele>1595.43269</ele>
        <time>2024-01-12T10:44:51Z</time>
      </trkpt>
      <trkpt lat="42.93147" lon="0.31889">
        <ele>1596.29464</ele>
        <time>2024-01-12T10:44:52Z</time>
      </trkpt>
      <trkpt lat="42.93146" lon="0.3189">
        <ele>1595.39773</ele>
        <time>2024-01-12T10:44:53Z</time>
      </trkpt>
      <trkpt lat="42.93145" lon="0.3189">
        <ele>1596.1175</ele>
        <time>2024-01-12T10:44:54Z</time>
      </trkpt>
      <trkpt lat="42.93144" lon="0.3189">
        <ele>1596.05611</ele>
        <time>2024-01-12T10:44:55Z</time>
      </trkpt>
      <trkpt lat="42.93142" lon="0.31891">
        <ele>1594.31235</ele>
        <time>2024-01-12T10:44:57Z</time>
      </trkpt>
      <trkpt lat="42.93141" lon="0.31891">
        <ele>1594.231</ele>
        <time>2024-01-12T10:44:58Z</time>
      </trkpt>
      <trkpt lat="42.9314" lon="0.31891">
        <ele>1594.40028</ele>
        <time>2024-01-12T10:44:59Z</time>
      </trkpt>
      <trkpt lat="42.93138" lon="0.31892">
        <ele>1593.51521</ele>
        <time>2024-01-12T10:45:00Z</time>
      </trkpt>
      <trkpt lat="42.93139" lon="0.31893">
        <ele>1592.67274</ele>
        <time>2024-01-12T10:45:04Z</time>
      </trkpt>
      <trkpt lat="42.93138" lon="0.31891">
        <ele>1593.24442</ele>
        <time>2024-01-12T10:45:20Z</time>
      </trkpt>
      <trkpt lat="42.9314" lon="0.31891">
        <ele>1590.42654</ele>
        <time>2024-01-12T10:45:31Z</time>
      </trkpt>
      <trkpt lat="42.93139" lon="0.31893">
        <ele>1589.96669</ele>
        <time>2024-01-12T10:45:46Z</time>
      </trkpt>
      <trkpt lat="42.9314" lon="0.31891">
        <ele>1589.6127</ele>
        <time>2024-01-12T10:45:54Z</time>
      </trkpt>
      <trkpt lat="42.9314" lon="0.3189">
        <ele>1590.20074</ele>
        <time>2024-01-12T10:46:00Z</time>
      </trkpt>
      <trkpt lat="42.9314" lon="0.31889">
        <ele>1589.86009</ele>
        <time>2024-01-12T10:46:04Z</time>
      </trkpt>
      <trkpt lat="42.9314" lon="0.31887">
        <ele>1592.48422</ele>
        <time>2024-01-12T10:46:26Z</time>
      </trkpt>
      <trkpt lat="42.93139" lon="0.31888">
        <ele>1592.47759</ele>
        <time>2024-01-12T10:46:33Z</time>
      </trkpt>
      <trkpt lat="42.9314" lon="0.31889">
        <ele>1591.23829</ele>
        <time>2024-01-12T10:46:35Z</time>
      </trkpt>
      <trkpt lat="42.93139" lon="0.31889">
        <ele>1591.42108</ele>
        <time>2024-01-12T10:46:37Z</time>
      </trkpt>
      <trkpt lat="42.9314" lon="0.31889">
        <ele>1593.27293</ele>
        <time>2024-01-12T10:46:45Z</time>
      </trkpt>
      <trkpt lat="42.9314" lon="0.31891">
        <ele>1594.67753</ele>
        <time>2024-01-12T10:46:50Z</time>
      </trkpt>
      <trkpt lat="42.93139" lon="0.3189">
        <ele>1596.10098</ele>
        <time>2024-01-12T10:46:56Z</time>
      </trkpt>
      <trkpt lat="42.93137" lon="0.31889">
        <ele>1593.28824</ele>
        <time>2024-01-12T10:47:20Z</time>
      </trkpt>
      <trkpt lat="42.93137" lon="0.3189">
        <ele>1593.6562</ele>
        <time>2024-01-12T10:47:21Z</time>
      </trkpt>
      <trkpt lat="42.93138" lon="0.31891">
        <ele>1593.92931</ele>
        <time>2024-01-12T10:47:22Z</time>
      </trkpt>
      <trkpt lat="42.93139" lon="0.31892">
        <ele>1594.49272</ele>
        <time>2024-01-12T10:47:23Z</time>
      </trkpt>
      <trkpt lat="42.93139" lon="0.31891">
        <ele>1594.20961</ele>
        <time>2024-01-12T10:47:25Z</time>
      </trkpt>
      <trkpt lat="42.9314" lon="0.31892">
        <ele>1594.22655</ele>
        <time>2024-01-12T10:47:27Z</time>
      </trkpt>
      <trkpt lat="42.93139" lon="0.31893">
        <ele>1594.35073</ele>
        <time>2024-01-12T10:47:29Z</time>
      </trkpt>
      <trkpt lat="42.9314" lon="0.31894">
        <ele>1594.41649</ele>
        <time>2024-01-12T10:47:33Z</time>
      </trkpt>
      <trkpt lat="42.93139" lon="0.31894">
        <ele>1594.43421</ele>
        <time>2024-01-12T10:47:36Z</time>
      </trkpt>
      <trkpt lat="42.93139" lon="0.31894">
        <ele>1594.30484</ele>
        <time>2024-01-12T10:47:37Z</time>
      </trkpt>
      <trkpt lat="42.93139" lon="0.31893">
        <ele>1594.31201</ele>
        <time>2024-01-12T10:47:40Z</time>
      </trkpt>
      <trkpt lat="42.93138" lon="0.31893">
        <ele>1594.36597</ele>
        <time>2024-01-12T10:47:43Z</time>
      </trkpt>
      <trkpt lat="42.93137" lon="0.31892">
        <ele>1594.04406</ele>
        <time>2024-01-12T10:47:47Z</time>
      </trkpt>
      <trkpt lat="42.93136" lon="0.31892">
        <ele>1593.68967</ele>
        <time>2024-01-12T10:47:50Z</time>
      </trkpt>
      <trkpt lat="42.93135" lon="0.31892">
        <ele>1591.50247</ele>
        <time>2024-01-12T10:47:54Z</time>
      </trkpt>
      <trkpt lat="42.93137" lon="0.31891">
        <ele>1591.43893</ele>
        <time>2024-01-12T10:47:56Z</time>
      </trkpt>
      <trkpt lat="42.93137" lon="0.3189">
        <ele>1591.81969</ele>
        <time>2024-01-12T10:48:00Z</time>
      </trkpt>
      <trkpt lat="42.93139" lon="0.3189">
        <ele>1591.99953</ele>
        <time>2024-01-12T10:48:01Z</time>
      </trkpt>
      <trkpt lat="42.93138" lon="0.31888">
        <ele>1591.43846</ele>
        <time>2024-01-12T10:48:03Z</time>
      </trkpt>
      <trkpt lat="42.93137" lon="0.31888">
        <ele>1590.82919</ele>
        <time>2024-01-12T10:48:07Z</time>
      </trkpt>
      <trkpt lat="42.93137" lon="0.31889">
        <ele>1588.80399</ele>
        <time>2024-01-12T10:48:21Z</time>
      </trkpt>
      <trkpt lat="42.93138" lon="0.31888">
        <ele>1590.62593</ele>
        <time>2024-01-12T10:48:29Z</time>
      </trkpt>
      <trkpt lat="42.93139" lon="0.31887">
        <ele>1590.48932</ele>
        <time>2024-01-12T10:48:31Z</time>
      </trkpt>
      <trkpt lat="42.9314" lon="0.31886">
        <ele>1591.36979</ele>
        <time>2024-01-12T10:48:34Z</time>
      </trkpt>
      <trkpt lat="42.9314" lon="0.31887">
        <ele>1591.45792</ele>
        <time>2024-01-12T10:48:37Z</time>
      </trkpt>
      <trkpt lat="42.93141" lon="0.31889">
        <ele>1591.82356</ele>
        <time>2024-01-12T10:48:39Z</time>
      </trkpt>
      <trkpt lat="42.93142" lon="0.31891">
        <ele>1592.20386</ele>
        <time>2024-01-12T10:48:41Z</time>
      </trkpt>
      <trkpt lat="42.93141" lon="0.3189">
        <ele>1593.57922</ele>
        <time>2024-01-12T10:48:47Z</time>
      </trkpt>
      <trkpt lat="42.9314" lon="0.3189">
        <ele>1593.20152</ele>
        <time>2024-01-12T10:48:49Z</time>
      </trkpt>
      <trkpt lat="42.93141" lon="0.31889">
        <ele>1592.9463</ele>
        <time>2024-01-12T10:48:54Z</time>
      </trkpt>
      <trkpt lat="42.93142" lon="0.3189">
        <ele>1593.74366</ele>
        <time>2024-01-12T10:48:56Z</time>
      </trkpt>
      <trkpt lat="42.93141" lon="0.31891">
        <ele>1593.56513</ele>
        <time>2024-01-12T10:49:02Z</time>
      </trkpt>
      <trkpt lat="42.9314" lon="0.31892">
        <ele>1592.9876</ele>
        <time>2024-01-12T10:49:13Z</time>
      </trkpt>
      <trkpt lat="42.93138" lon="0.31892">
        <ele>1593.23316</ele>
        <time>2024-01-12T10:49:15Z</time>
      </trkpt>
      <trkpt lat="42.93136" lon="0.31893">
        <ele>1593.10505</ele>
        <time>2024-01-12T10:49:17Z</time>
      </trkpt>
      <trkpt lat="42.93135" lon="0.31893">
        <ele>1593.16187</ele>
        <time>2024-01-12T10:49:18Z</time>
      </trkpt>
      <trkpt lat="42.93134" lon="0.31894">
        <ele>1593.41125</ele>
        <time>2024-01-12T10:49:19Z</time>
      </trkpt>
      <trkpt lat="42.93133" lon="0.31894">
        <ele>1593.26376</ele>
        <time>2024-01-12T10:49:20Z</time>
      </trkpt>
      <trkpt lat="42.93131" lon="0.31895">
        <ele>1593.12707</ele>
        <time>2024-01-12T10:49:21Z</time>
      </trkpt>
      <trkpt lat="42.9313" lon="0.31896">
        <ele>1592.90567</ele>
        <time>2024-01-12T10:49:22Z</time>
      </trkpt>
      <trkpt lat="42.93129" lon="0.31896">
        <ele>1593.19072</ele>
        <time>2024-01-12T10:49:23Z</time>
      </trkpt>
      <trkpt lat="42.93128" lon="0.31896">
        <ele>1593.46162</ele>
        <time>2024-01-12T10:49:24Z</time>
      </trkpt>
      <trkpt lat="42.93126" lon="0.31896">
        <ele>1592.97176</ele>
        <time>2024-01-12T10:49:25Z</time>
      </trkpt>
      <trkpt lat="42.93125" lon="0.31896">
        <ele>1593.06939</ele>
        <time>2024-01-12T10:49:26Z</time>
      </trkpt>
      <trkpt lat="42.93124" lon="0.31896">
        <ele>1593.19506</ele>
        <time>2024-01-12T10:49:27Z</time>
      </trkpt>
      <trkpt lat="42.93123" lon="0.31897">
        <ele>1593.17933</ele>
        <time>2024-01-12T10:49:28Z</time>
      </trkpt>
      <trkpt lat="42.93121" lon="0.31896">
        <ele>1593.1321</ele>
        <time>2024-01-12T10:49:29Z</time>
      </trkpt>
      <trkpt lat="42.9312" lon="0.31896">
        <ele>1593.15179</ele>
        <time>2024-01-12T10:49:30Z</time>
      </trkpt>
      <trkpt lat="42.93119" lon="0.31896">
        <ele>1592.92343</ele>
        <time>2024-01-12T10:49:31Z</time>
      </trkpt>
      <trkpt lat="42.93117" lon="0.31897">
        <ele>1591.54208</ele>
        <time>2024-01-12T10:49:34Z</time>
      </trkpt>
      <trkpt lat="42.93116" lon="0.31897">
        <ele>1592.1577</ele>
        <time>2024-01-12T10:49:35Z</time>
      </trkpt>
      <trkpt lat="42.93115" lon="0.31897">
        <ele>1592.51802</ele>
        <time>2024-01-12T10:49:36Z</time>
      </trkpt>
      <trkpt lat="42.93113" lon="0.31897">
        <ele>1592.89</ele>
        <time>2024-01-12T10:49:37Z</time>
      </trkpt>
      <trkpt lat="42.93112" lon="0.31897">
        <ele>1593.39855</ele>
        <time>2024-01-12T10:49:38Z</time>
      </trkpt>
      <trkpt lat="42.93111" lon="0.31897">
        <ele>1593.65802</ele>
        <time>2024-01-12T10:49:39Z</time>
      </trkpt>
      <trkpt lat="42.9311" lon="0.31897">
        <ele>1592.24205</ele>
        <time>2024-01-12T10:49:41Z</time>
      </trkpt>
      <trkpt lat="42.93109" lon="0.31898">
        <ele>1591.3498</ele>
        <time>2024-01-12T10:49:42Z</time>
      </trkpt>
      <trkpt lat="42.93108" lon="0.31898">
        <ele>1591.43486</ele>
        <time>2024-01-12T10:49:43Z</time>
      </trkpt>
      <trkpt lat="42.93107" lon="0.31898">
        <ele>1591.65865</ele>
        <time>2024-01-12T10:49:44Z</time>
      </trkpt>
      <trkpt lat="42.93104" lon="0.31897">
        <ele>1593.12168</ele>
        <time>2024-01-12T10:49:46Z</time>
      </trkpt>
      <trkpt lat="42.93103" lon="0.31898">
        <ele>1592.51145</ele>
        <time>2024-01-12T10:49:47Z</time>
      </trkpt>
      <trkpt lat="42.93101" lon="0.31897">
        <ele>1592.80319</ele>
        <time>2024-01-12T10:49:49Z</time>
      </trkpt>
      <trkpt lat="42.931" lon="0.31897">
        <ele>1592.10956</ele>
        <time>2024-01-12T10:49:50Z</time>
      </trkpt>
      <trkpt lat="42.93099" lon="0.31898">
        <ele>1591.55026</ele>
        <time>2024-01-12T10:49:51Z</time>
      </trkpt>
      <trkpt lat="42.93098" lon="0.31898">
        <ele>1591.77809</ele>
        <time>2024-01-12T10:49:53Z</time>
      </trkpt>
      <trkpt lat="42.93096" lon="0.31898">
        <ele>1591.29496</ele>
        <time>2024-01-12T10:49:54Z</time>
      </trkpt>
      <trkpt lat="42.93094" lon="0.31898">
        <ele>1590.65705</ele>
        <time>2024-01-12T10:49:56Z</time>
      </trkpt>
      <trkpt lat="42.93093" lon="0.31898">
        <ele>1589.97752</ele>
        <time>2024-01-12T10:49:57Z</time>
      </trkpt>
      <trkpt lat="42.93092" lon="0.31898">
        <ele>1590.612</ele>
        <time>2024-01-12T10:49:58Z</time>
      </trkpt>
      <trkpt lat="42.9309" lon="0.31898">
        <ele>1591.31055</ele>
        <time>2024-01-12T10:49:59Z</time>
      </trkpt>
      <trkpt lat="42.93089" lon="0.31898">
        <ele>1591.39402</ele>
        <time>2024-01-12T10:50:00Z</time>
      </trkpt>
      <trkpt lat="42.93088" lon="0.31898">
        <ele>1590.86692</ele>
        <time>2024-01-12T10:50:01Z</time>
      </trkpt>
      <trkpt lat="42.93087" lon="0.31899">
        <ele>1590.94286</ele>
        <time>2024-01-12T10:50:02Z</time>
      </trkpt>
      <trkpt lat="42.93085" lon="0.319">
        <ele>1589.31603</ele>
        <time>2024-01-12T10:50:04Z</time>
      </trkpt>
      <trkpt lat="42.93084" lon="0.31899">
        <ele>1589.68917</ele>
        <time>2024-01-12T10:50:05Z</time>
      </trkpt>
      <trkpt lat="42.93082" lon="0.319">
        <ele>1590.50052</ele>
        <time>2024-01-12T10:50:06Z</time>
      </trkpt>
      <trkpt lat="42.93081" lon="0.31901">
        <ele>1589.99629</ele>
        <time>2024-01-12T10:50:07Z</time>
      </trkpt>
      <trkpt lat="42.93079" lon="0.31901">
        <ele>1590.29304</ele>
        <time>2024-01-12T10:50:09Z</time>
      </trkpt>
      <trkpt lat="42.93076" lon="0.31902">
        <ele>1589.27704</ele>
        <time>2024-01-12T10:50:11Z</time>
      </trkpt>
      <trkpt lat="42.93074" lon="0.31902">
        <ele>1589.55884</ele>
        <time>2024-01-12T10:50:14Z</time>
      </trkpt>
      <trkpt lat="42.93073" lon="0.31903">
        <ele>1589.07512</ele>
        <time>2024-01-12T10:50:15Z</time>
      </trkpt>
      <trkpt lat="42.93072" lon="0.31903">
        <ele>1589.33392</ele>
        <time>2024-01-12T10:50:16Z</time>
      </trkpt>
      <trkpt lat="42.93071" lon="0.31903">
        <ele>1589.96586</ele>
        <time>2024-01-12T10:50:17Z</time>
      </trkpt>
      <trkpt lat="42.93069" lon="0.31903">
        <ele>1590.67783</ele>
        <time>2024-01-12T10:50:19Z</time>
      </trkpt>
      <trkpt lat="42.93068" lon="0.31903">
        <ele>1590.6976</ele>
        <time>2024-01-12T10:50:20Z</time>
      </trkpt>
      <trkpt lat="42.93067" lon="0.31903">
        <ele>1591.08196</ele>
        <time>2024-01-12T10:50:21Z</time>
      </trkpt>
      <trkpt lat="42.93066" lon="0.31903">
        <ele>1591.25826</ele>
        <time>2024-01-12T10:50:22Z</time>
      </trkpt>
      <trkpt lat="42.93064" lon="0.31904">
        <ele>1589.98526</ele>
        <time>2024-01-12T10:50:24Z</time>
      </trkpt>
      <trkpt lat="42.93063" lon="0.31903">
        <ele>1591.10249</ele>
        <time>2024-01-12T10:50:25Z</time>
      </trkpt>
      <trkpt lat="42.93061" lon="0.31904">
        <ele>1590.72934</ele>
        <time>2024-01-12T10:50:26Z</time>
      </trkpt>
      <trkpt lat="42.93059" lon="0.31903">
        <ele>1590.90262</ele>
        <time>2024-01-12T10:50:28Z</time>
      </trkpt>
      <trkpt lat="42.93058" lon="0.31902">
        <ele>1590.68155</ele>
        <time>2024-01-12T10:50:29Z</time>
      </trkpt>
      <trkpt lat="42.93057" lon="0.31902">
        <ele>1591.22081</ele>
        <time>2024-01-12T10:50:30Z</time>
      </trkpt>
      <trkpt lat="42.93056" lon="0.31902">
        <ele>1591.49097</ele>
        <time>2024-01-12T10:50:31Z</time>
      </trkpt>
      <trkpt lat="42.93053" lon="0.31901">
        <ele>1592.28493</ele>
        <time>2024-01-12T10:50:33Z</time>
      </trkpt>
      <trkpt lat="42.93051" lon="0.31901">
        <ele>1591.81279</ele>
        <time>2024-01-12T10:50:35Z</time>
      </trkpt>
      <trkpt lat="42.9305" lon="0.31901">
        <ele>1591.49826</ele>
        <time>2024-01-12T10:50:36Z</time>
      </trkpt>
      <trkpt lat="42.93048" lon="0.319">
        <ele>1590.05111</ele>
        <time>2024-01-12T10:50:39Z</time>
      </trkpt>
      <trkpt lat="42.93046" lon="0.319">
        <ele>1589.9785</ele>
        <time>2024-01-12T10:50:40Z</time>
      </trkpt>
      <trkpt lat="42.93046" lon="0.31899">
        <ele>1589.87533</ele>
        <time>2024-01-12T10:50:41Z</time>
      </trkpt>
      <trkpt lat="42.93044" lon="0.31898">
        <ele>1589.55621</ele>
        <time>2024-01-12T10:50:44Z</time>
      </trkpt>
      <trkpt lat="42.93043" lon="0.31898">
        <ele>1588.56642</ele>
        <time>2024-01-12T10:50:45Z</time>
      </trkpt>
      <trkpt lat="42.93041" lon="0.31898">
        <ele>1589.20903</ele>
        <time>2024-01-12T10:50:47Z</time>
      </trkpt>
      <trkpt lat="42.93039" lon="0.31896">
        <ele>1588.47925</ele>
        <time>2024-01-12T10:50:49Z</time>
      </trkpt>
      <trkpt lat="42.93037" lon="0.31896">
        <ele>1588.71137</ele>
        <time>2024-01-12T10:50:51Z</time>
      </trkpt>
      <trkpt lat="42.93036" lon="0.31895">
        <ele>1588.48869</ele>
        <time>2024-01-12T10:50:53Z</time>
      </trkpt>
      <trkpt lat="42.93035" lon="0.31894">
        <ele>1588.76888</ele>
        <time>2024-01-12T10:50:54Z</time>
      </trkpt>
      <trkpt lat="42.93033" lon="0.31894">
        <ele>1589.60138</ele>
        <time>2024-01-12T10:50:55Z</time>
      </trkpt>
      <trkpt lat="42.93032" lon="0.31893">
        <ele>1590.29607</ele>
        <time>2024-01-12T10:50:57Z</time>
      </trkpt>
      <trkpt lat="42.9303" lon="0.31891">
        <ele>1590.593</ele>
        <time>2024-01-12T10:50:59Z</time>
      </trkpt>
      <trkpt lat="42.93029" lon="0.3189">
        <ele>1589.67508</ele>
        <time>2024-01-12T10:51:00Z</time>
      </trkpt>
      <trkpt lat="42.93027" lon="0.31889">
        <ele>1588.8037</ele>
        <time>2024-01-12T10:51:01Z</time>
      </trkpt>
      <trkpt lat="42.93025" lon="0.31887">
        <ele>1590.19456</ele>
        <time>2024-01-12T10:51:03Z</time>
      </trkpt>
      <trkpt lat="42.93024" lon="0.31887">
        <ele>1590.51487</ele>
        <time>2024-01-12T10:51:05Z</time>
      </trkpt>
      <trkpt lat="42.93023" lon="0.31886">
        <ele>1590.29271</ele>
        <time>2024-01-12T10:51:06Z</time>
      </trkpt>
      <trkpt lat="42.93022" lon="0.31885">
        <ele>1591.48912</ele>
        <time>2024-01-12T10:51:08Z</time>
      </trkpt>
      <trkpt lat="42.93021" lon="0.31884">
        <ele>1590.55416</ele>
        <time>2024-01-12T10:51:09Z</time>
      </trkpt>
      <trkpt lat="42.93019" lon="0.31884">
        <ele>1590.25235</ele>
        <time>2024-01-12T10:51:11Z</time>
      </trkpt>
      <trkpt lat="42.93018" lon="0.31884">
        <ele>1589.46501</ele>
        <time>2024-01-12T10:51:12Z</time>
      </trkpt>
      <trkpt lat="42.93017" lon="0.31883">
        <ele>1589.99591</ele>
        <time>2024-01-12T10:51:14Z</time>
      </trkpt>
      <trkpt lat="42.93016" lon="0.31882">
        <ele>1589.69729</ele>
        <time>2024-01-12T10:51:16Z</time>
      </trkpt>
      <trkpt lat="42.93013" lon="0.31881">
        <ele>1589.91833</ele>
        <time>2024-01-12T10:51:17Z</time>
      </trkpt>
      <trkpt lat="42.93012" lon="0.3188">
        <ele>1589.63165</ele>
        <time>2024-01-12T10:51:19Z</time>
      </trkpt>
      <trkpt lat="42.93011" lon="0.31879">
        <ele>1590.1539</ele>
        <time>2024-01-12T10:51:20Z</time>
      </trkpt>
      <trkpt lat="42.9301" lon="0.31879">
        <ele>1588.98078</ele>
        <time>2024-01-12T10:51:21Z</time>
      </trkpt>
      <trkpt lat="42.93009" lon="0.31878">
        <ele>1588.88474</ele>
        <time>2024-01-12T10:51:23Z</time>
      </trkpt>
      <trkpt lat="42.93008" lon="0.31877">
        <ele>1588.78655</ele>
        <time>2024-01-12T10:51:25Z</time>
      </trkpt>
      <trkpt lat="42.93007" lon="0.31877">
        <ele>1589.38715</ele>
        <time>2024-01-12T10:51:26Z</time>
      </trkpt>
      <trkpt lat="42.93006" lon="0.31876">
        <ele>1589.00989</ele>
        <time>2024-01-12T10:51:27Z</time>
      </trkpt>
      <trkpt lat="42.93005" lon="0.31877">
        <ele>1589.1045</ele>
        <time>2024-01-12T10:51:29Z</time>
      </trkpt>
      <trkpt lat="42.93003" lon="0.31877">
        <ele>1590.03524</ele>
        <time>2024-01-12T10:51:31Z</time>
      </trkpt>
      <trkpt lat="42.93002" lon="0.31877">
        <ele>1590.78923</ele>
        <time>2024-01-12T10:51:32Z</time>
      </trkpt>
      <trkpt lat="42.93001" lon="0.31876">
        <ele>1590.49704</ele>
        <time>2024-01-12T10:51:34Z</time>
      </trkpt>
      <trkpt lat="42.93001" lon="0.31874">
        <ele>1592.00986</ele>
        <time>2024-01-12T10:51:36Z</time>
      </trkpt>
      <trkpt lat="42.92999" lon="0.31874">
        <ele>1590.00666</ele>
        <time>2024-01-12T10:51:37Z</time>
      </trkpt>
      <trkpt lat="42.92998" lon="0.31873">
        <ele>1589.49422</ele>
        <time>2024-01-12T10:51:39Z</time>
      </trkpt>
      <trkpt lat="42.92997" lon="0.31873">
        <ele>1589.68461</ele>
        <time>2024-01-12T10:51:40Z</time>
      </trkpt>
      <trkpt lat="42.92996" lon="0.31873">
        <ele>1591.69616</ele>
        <time>2024-01-12T10:51:42Z</time>
      </trkpt>
      <trkpt lat="42.92995" lon="0.31872">
        <ele>1591.39714</ele>
        <time>2024-01-12T10:51:44Z</time>
      </trkpt>
      <trkpt lat="42.92995" lon="0.31871">
        <ele>1590.2647</ele>
        <time>2024-01-12T10:51:45Z</time>
      </trkpt>
      <trkpt lat="42.92993" lon="0.31871">
        <ele>1590.9201</ele>
        <time>2024-01-12T10:51:48Z</time>
      </trkpt>
      <trkpt lat="42.92992" lon="0.3187">
        <ele>1591.18334</ele>
        <time>2024-01-12T10:51:50Z</time>
      </trkpt>
      <trkpt lat="42.92991" lon="0.3187">
        <ele>1591.53929</ele>
        <time>2024-01-12T10:51:51Z</time>
      </trkpt>
      <trkpt lat="42.9299" lon="0.31869">
        <ele>1592.03843</ele>
        <time>2024-01-12T10:51:53Z</time>
      </trkpt>
      <trkpt lat="42.92988" lon="0.31869">
        <ele>1592.99907</ele>
        <time>2024-01-12T10:51:55Z</time>
      </trkpt>
      <trkpt lat="42.92987" lon="0.31868">
        <ele>1593.17496</ele>
        <time>2024-01-12T10:51:57Z</time>
      </trkpt>
      <trkpt lat="42.92986" lon="0.31868">
        <ele>1594.2072</ele>
        <time>2024-01-12T10:52:00Z</time>
      </trkpt>
      <trkpt lat="42.92985" lon="0.31866">
        <ele>1594.96096</ele>
        <time>2024-01-12T10:52:02Z</time>
      </trkpt>
      <trkpt lat="42.92983" lon="0.31865">
        <ele>1594.85458</ele>
        <time>2024-01-12T10:52:04Z</time>
      </trkpt>
      <trkpt lat="42.92983" lon="0.31863">
        <ele>1595.74017</ele>
        <time>2024-01-12T10:52:05Z</time>
      </trkpt>
      <trkpt lat="42.92982" lon="0.31862">
        <ele>1594.81174</ele>
        <time>2024-01-12T10:52:06Z</time>
      </trkpt>
      <trkpt lat="42.92981" lon="0.31862">
        <ele>1594.98438</ele>
        <time>2024-01-12T10:52:07Z</time>
      </trkpt>
      <trkpt lat="42.9298" lon="0.31861">
        <ele>1595.28735</ele>
        <time>2024-01-12T10:52:08Z</time>
      </trkpt>
      <trkpt lat="42.92979" lon="0.31861">
        <ele>1594.4329</ele>
        <time>2024-01-12T10:52:09Z</time>
      </trkpt>
      <trkpt lat="42.92978" lon="0.3186">
        <ele>1593.91594</ele>
        <time>2024-01-12T10:52:10Z</time>
      </trkpt>
      <trkpt lat="42.92977" lon="0.3186">
        <ele>1593.27483</ele>
        <time>2024-01-12T10:52:11Z</time>
      </trkpt>
      <trkpt lat="42.92976" lon="0.31858">
        <ele>1593.49481</ele>
        <time>2024-01-12T10:52:13Z</time>
      </trkpt>
      <trkpt lat="42.92975" lon="0.31856">
        <ele>1594.32395</ele>
        <time>2024-01-12T10:52:15Z</time>
      </trkpt>
      <trkpt lat="42.92974" lon="0.31856">
        <ele>1594.52867</ele>
        <time>2024-01-12T10:52:16Z</time>
      </trkpt>
      <trkpt lat="42.92973" lon="0.31855">
        <ele>1594.08472</ele>
        <time>2024-01-12T10:52:18Z</time>
      </trkpt>
      <trkpt lat="42.92972" lon="0.31854">
        <ele>1592.42241</ele>
        <time>2024-01-12T10:52:19Z</time>
      </trkpt>
      <trkpt lat="42.92971" lon="0.31853">
        <ele>1592.95208</ele>
        <time>2024-01-12T10:52:20Z</time>
      </trkpt>
      <trkpt lat="42.9297" lon="0.31853">
        <ele>1590.94021</ele>
        <time>2024-01-12T10:52:21Z</time>
      </trkpt>
      <trkpt lat="42.92968" lon="0.31851">
        <ele>1591.66613</ele>
        <time>2024-01-12T10:52:23Z</time>
      </trkpt>
      <trkpt lat="42.92967" lon="0.3185">
        <ele>1592.04083</ele>
        <time>2024-01-12T10:52:25Z</time>
      </trkpt>
      <trkpt lat="42.92965" lon="0.31849">
        <ele>1591.36139</ele>
        <time>2024-01-12T10:52:27Z</time>
      </trkpt>
      <trkpt lat="42.92963" lon="0.31848">
        <ele>1592.3195</ele>
        <time>2024-01-12T10:52:29Z</time>
      </trkpt>
      <trkpt lat="42.92961" lon="0.31847">
        <ele>1594.32718</ele>
        <time>2024-01-12T10:52:31Z</time>
      </trkpt>
      <trkpt lat="42.9296" lon="0.31846">
        <ele>1595.73855</ele>
        <time>2024-01-12T10:52:33Z</time>
      </trkpt>
      <trkpt lat="42.92958" lon="0.31844">
        <ele>1596.32386</ele>
        <time>2024-01-12T10:52:35Z</time>
      </trkpt>
      <trkpt lat="42.92957" lon="0.31842">
        <ele>1596.25294</ele>
        <time>2024-01-12T10:52:36Z</time>
      </trkpt>
      <trkpt lat="42.92956" lon="0.3184">
        <ele>1596.1666</ele>
        <time>2024-01-12T10:52:38Z</time>
      </trkpt>
      <trkpt lat="42.92955" lon="0.31839">
        <ele>1597.02352</ele>
        <time>2024-01-12T10:52:39Z</time>
      </trkpt>
      <trkpt lat="42.92954" lon="0.31838">
        <ele>1596.48584</ele>
        <time>2024-01-12T10:52:40Z</time>
      </trkpt>
      <trkpt lat="42.92952" lon="0.31838">
        <ele>1595.60956</ele>
        <time>2024-01-12T10:52:41Z</time>
      </trkpt>
      <trkpt lat="42.92951" lon="0.31837">
        <ele>1595.59539</ele>
        <time>2024-01-12T10:52:42Z</time>
      </trkpt>
      <trkpt lat="42.9295" lon="0.31837">
        <ele>1596.79339</ele>
        <time>2024-01-12T10:52:45Z</time>
      </trkpt>
      <trkpt lat="42.92948" lon="0.31835">
        <ele>1596.9227</ele>
        <time>2024-01-12T10:52:47Z</time>
      </trkpt>
      <trkpt lat="42.92948" lon="0.31835">
        <ele>1595.92837</ele>
        <time>2024-01-12T10:52:48Z</time>
      </trkpt>
      <trkpt lat="42.92947" lon="0.31834">
        <ele>1596.41172</ele>
        <time>2024-01-12T10:52:49Z</time>
      </trkpt>
      <trkpt lat="42.92946" lon="0.31832">
        <ele>1597.29126</ele>
        <time>2024-01-12T10:52:51Z</time>
      </trkpt>
      <trkpt lat="42.92945" lon="0.3183">
        <ele>1598.21664</ele>
        <time>2024-01-12T10:52:52Z</time>
      </trkpt>
      <trkpt lat="42.92943" lon="0.31828">
        <ele>1599.25729</ele>
        <time>2024-01-12T10:52:55Z</time>
      </trkpt>
      <trkpt lat="42.92941" lon="0.31828">
        <ele>1597.0669</ele>
        <time>2024-01-12T10:52:57Z</time>
      </trkpt>
      <trkpt lat="42.9294" lon="0.31827">
        <ele>1598.57943</ele>
        <time>2024-01-12T10:52:58Z</time>
      </trkpt>
      <trkpt lat="42.9294" lon="0.31826">
        <ele>1599.02425</ele>
        <time>2024-01-12T10:52:59Z</time>
      </trkpt>
      <trkpt lat="42.92939" lon="0.31824">
        <ele>1598.73161</ele>
        <time>2024-01-12T10:53:01Z</time>
      </trkpt>
      <trkpt lat="42.92938" lon="0.31823">
        <ele>1598.08538</ele>
        <time>2024-01-12T10:53:03Z</time>
      </trkpt>
      <trkpt lat="42.92937" lon="0.31822">
        <ele>1598.07305</ele>
        <time>2024-01-12T10:53:04Z</time>
      </trkpt>
      <trkpt lat="42.92935" lon="0.31822">
        <ele>1597.45897</ele>
        <time>2024-01-12T10:53:05Z</time>
      </trkpt>
      <trkpt lat="42.92934" lon="0.3182">
        <ele>1598.25111</ele>
        <time>2024-01-12T10:53:06Z</time>
      </trkpt>
      <trkpt lat="42.92933" lon="0.3182">
        <ele>1597.09051</ele>
        <time>2024-01-12T10:53:09Z</time>
      </trkpt>
      <trkpt lat="42.92931" lon="0.31819">
        <ele>1596.47769</ele>
        <time>2024-01-12T10:53:11Z</time>
      </trkpt>
      <trkpt lat="42.9293" lon="0.31818">
        <ele>1595.8849</ele>
        <time>2024-01-12T10:53:12Z</time>
      </trkpt>
      <trkpt lat="42.92929" lon="0.31817">
        <ele>1595.62639</ele>
        <time>2024-01-12T10:53:14Z</time>
      </trkpt>
      <trkpt lat="42.92928" lon="0.31816">
        <ele>1596.04734</ele>
        <time>2024-01-12T10:53:15Z</time>
      </trkpt>
      <trkpt lat="42.92928" lon="0.31816">
        <ele>1595.28046</ele>
        <time>2024-01-12T10:53:16Z</time>
      </trkpt>
      <trkpt lat="42.92927" lon="0.31815">
        <ele>1595.9906</ele>
        <time>2024-01-12T10:53:17Z</time>
      </trkpt>
      <trkpt lat="42.92926" lon="0.31815">
        <ele>1595.66785</ele>
        <time>2024-01-12T10:53:19Z</time>
      </trkpt>
      <trkpt lat="42.92924" lon="0.31815">
        <ele>1596.42181</ele>
        <time>2024-01-12T10:53:21Z</time>
      </trkpt>
      <trkpt lat="42.92924" lon="0.31813">
        <ele>1597.80531</ele>
        <time>2024-01-12T10:53:23Z</time>
      </trkpt>
      <trkpt lat="42.92923" lon="0.31812">
        <ele>1599.5127</ele>
        <time>2024-01-12T10:53:25Z</time>
      </trkpt>
      <trkpt lat="42.92922" lon="0.31813">
        <ele>1598.7779</ele>
        <time>2024-01-12T10:53:26Z</time>
      </trkpt>
      <trkpt lat="42.9292" lon="0.31812">
        <ele>1598.72333</ele>
        <time>2024-01-12T10:53:28Z</time>
      </trkpt>
      <trkpt lat="42.92918" lon="0.31812">
        <ele>1599.27652</ele>
        <time>2024-01-12T10:53:30Z</time>
      </trkpt>
      <trkpt lat="42.92917" lon="0.31811">
        <ele>1599.08723</ele>
        <time>2024-01-12T10:53:31Z</time>
      </trkpt>
      <trkpt lat="42.92916" lon="0.3181">
        <ele>1599.00348</ele>
        <time>2024-01-12T10:53:32Z</time>
      </trkpt>
      <trkpt lat="42.92916" lon="0.31809">
        <ele>1599.93371</ele>
        <time>2024-01-12T10:53:34Z</time>
      </trkpt>
      <trkpt lat="42.92915" lon="0.31808">
        <ele>1600.37188</ele>
        <time>2024-01-12T10:53:35Z</time>
      </trkpt>
      <trkpt lat="42.92914" lon="0.31805">
        <ele>1600.18386</ele>
        <time>2024-01-12T10:53:36Z</time>
      </trkpt>
      <trkpt lat="42.92913" lon="0.31805">
        <ele>1601.8034</ele>
        <time>2024-01-12T10:53:38Z</time>
      </trkpt>
      <trkpt lat="42.92911" lon="0.31804">
        <ele>1601.73041</ele>
        <time>2024-01-12T10:53:39Z</time>
      </trkpt>
      <trkpt lat="42.9291" lon="0.31804">
        <ele>1600.4787</ele>
        <time>2024-01-12T10:53:40Z</time>
      </trkpt>
      <trkpt lat="42.92908" lon="0.31804">
        <ele>1598.49642</ele>
        <time>2024-01-12T10:53:41Z</time>
      </trkpt>
      <trkpt lat="42.92907" lon="0.31803">
        <ele>1597.93563</ele>
        <time>2024-01-12T10:53:42Z</time>
      </trkpt>
      <trkpt lat="42.92906" lon="0.31803">
        <ele>1597.29736</ele>
        <time>2024-01-12T10:53:43Z</time>
      </trkpt>
      <trkpt lat="42.92905" lon="0.31802">
        <ele>1597.84715</ele>
        <time>2024-01-12T10:53:44Z</time>
      </trkpt>
      <trkpt lat="42.92904" lon="0.318">
        <ele>1599.18623</ele>
        <time>2024-01-12T10:53:45Z</time>
      </trkpt>
      <trkpt lat="42.92903" lon="0.318">
        <ele>1599.6603</ele>
        <time>2024-01-12T10:53:46Z</time>
      </trkpt>
      <trkpt lat="42.92902" lon="0.318">
        <ele>1598.72883</ele>
        <time>2024-01-12T10:53:47Z</time>
      </trkpt>
      <trkpt lat="42.929" lon="0.31798">
        <ele>1598.68067</ele>
        <time>2024-01-12T10:53:50Z</time>
      </trkpt>
      <trkpt lat="42.92899" lon="0.31796">
        <ele>1599.57325</ele>
        <time>2024-01-12T10:53:51Z</time>
      </trkpt>
      <trkpt lat="42.92898" lon="0.31796">
        <ele>1598.54182</ele>
        <time>2024-01-12T10:53:52Z</time>
      </trkpt>
      <trkpt lat="42.92897" lon="0.31794">
        <ele>1597.36105</ele>
        <time>2024-01-12T10:53:53Z</time>
      </trkpt>
      <trkpt lat="42.92896" lon="0.31793">
        <ele>1597.8583</ele>
        <time>2024-01-12T10:53:55Z</time>
      </trkpt>
      <trkpt lat="42.92895" lon="0.3179">
        <ele>1598.88947</ele>
        <time>2024-01-12T10:53:57Z</time>
      </trkpt>
      <trkpt lat="42.92895" lon="0.31789">
        <ele>1599.6718</ele>
        <time>2024-01-12T10:53:59Z</time>
      </trkpt>
      <trkpt lat="42.92895" lon="0.31787">
        <ele>1597.71167</ele>
        <time>2024-01-12T10:54:00Z</time>
      </trkpt>
      <trkpt lat="42.92895" lon="0.31786">
        <ele>1599.07219</ele>
        <time>2024-01-12T10:54:02Z</time>
      </trkpt>
      <trkpt lat="42.92894" lon="0.31785">
        <ele>1598.05599</ele>
        <time>2024-01-12T10:54:03Z</time>
      </trkpt>
      <trkpt lat="42.92893" lon="0.31784">
        <ele>1597.69969</ele>
        <time>2024-01-12T10:54:05Z</time>
      </trkpt>
      <trkpt lat="42.92892" lon="0.31781">
        <ele>1596.28074</ele>
        <time>2024-01-12T10:54:08Z</time>
      </trkpt>
      <trkpt lat="42.92892" lon="0.3178">
        <ele>1597.05491</ele>
        <time>2024-01-12T10:54:10Z</time>
      </trkpt>
      <trkpt lat="42.92892" lon="0.31778">
        <ele>1595.46264</ele>
        <time>2024-01-12T10:54:12Z</time>
      </trkpt>
      <trkpt lat="42.92892" lon="0.31776">
        <ele>1597.3996</ele>
        <time>2024-01-12T10:54:13Z</time>
      </trkpt>
      <trkpt lat="42.92891" lon="0.31773">
        <ele>1597.47706</ele>
        <time>2024-01-12T10:54:15Z</time>
      </trkpt>
      <trkpt lat="42.92891" lon="0.31771">
        <ele>1597.08689</ele>
        <time>2024-01-12T10:54:17Z</time>
      </trkpt>
      <trkpt lat="42.92892" lon="0.3177">
        <ele>1597.43086</ele>
        <time>2024-01-12T10:54:18Z</time>
      </trkpt>
      <trkpt lat="42.92891" lon="0.31767">
        <ele>1597.65345</ele>
        <time>2024-01-12T10:54:20Z</time>
      </trkpt>
      <trkpt lat="42.9289" lon="0.31766">
        <ele>1597.25436</ele>
        <time>2024-01-12T10:54:22Z</time>
      </trkpt>
      <trkpt lat="42.9289" lon="0.31764">
        <ele>1596.19936</ele>
        <time>2024-01-12T10:54:23Z</time>
      </trkpt>
      <trkpt lat="42.92889" lon="0.31762">
        <ele>1596.42587</ele>
        <time>2024-01-12T10:54:24Z</time>
      </trkpt>
      <trkpt lat="42.92888" lon="0.3176">
        <ele>1596.44285</ele>
        <time>2024-01-12T10:54:25Z</time>
      </trkpt>
      <trkpt lat="42.92888" lon="0.31759">
        <ele>1595.63316</ele>
        <time>2024-01-12T10:54:27Z</time>
      </trkpt>
      <trkpt lat="42.92888" lon="0.31757">
        <ele>1596.23679</ele>
        <time>2024-01-12T10:54:28Z</time>
      </trkpt>
      <trkpt lat="42.92888" lon="0.31756">
        <ele>1595.94811</ele>
        <time>2024-01-12T10:54:29Z</time>
      </trkpt>
      <trkpt lat="42.92888" lon="0.31754">
        <ele>1596.57852</ele>
        <time>2024-01-12T10:54:30Z</time>
      </trkpt>
      <trkpt lat="42.92887" lon="0.31753">
        <ele>1594.59345</ele>
        <time>2024-01-12T10:54:31Z</time>
      </trkpt>
      <trkpt lat="42.92885" lon="0.31751">
        <ele>1593.28293</ele>
        <time>2024-01-12T10:54:33Z</time>
      </trkpt>
      <trkpt lat="42.92885" lon="0.31749">
        <ele>1594.63431</ele>
        <time>2024-01-12T10:54:34Z</time>
      </trkpt>
      <trkpt lat="42.92884" lon="0.31748">
        <ele>1593.52699</ele>
        <time>2024-01-12T10:54:35Z</time>
      </trkpt>
      <trkpt lat="42.92883" lon="0.31747">
        <ele>1593.37362</ele>
        <time>2024-01-12T10:54:37Z</time>
      </trkpt>
      <trkpt lat="42.92882" lon="0.31745">
        <ele>1594.50521</ele>
        <time>2024-01-12T10:54:41Z</time>
      </trkpt>
      <trkpt lat="42.9288" lon="0.31744">
        <ele>1593.94748</ele>
        <time>2024-01-12T10:54:43Z</time>
      </trkpt>
      <trkpt lat="42.92879" lon="0.31744">
        <ele>1593.66059</ele>
        <time>2024-01-12T10:54:44Z</time>
      </trkpt>
      <trkpt lat="42.92878" lon="0.31743">
        <ele>1593.07284</ele>
        <time>2024-01-12T10:54:45Z</time>
      </trkpt>
      <trkpt lat="42.92877" lon="0.31742">
        <ele>1592.1899</ele>
        <time>2024-01-12T10:54:46Z</time>
      </trkpt>
      <trkpt lat="42.92877" lon="0.31741">
        <ele>1593.61369</ele>
        <time>2024-01-12T10:54:48Z</time>
      </trkpt>
      <trkpt lat="42.92875" lon="0.31739">
        <ele>1592.17228</ele>
        <time>2024-01-12T10:54:50Z</time>
      </trkpt>
      <trkpt lat="42.92874" lon="0.31738">
        <ele>1592.21202</ele>
        <time>2024-01-12T10:54:51Z</time>
      </trkpt>
      <trkpt lat="42.92874" lon="0.31736">
        <ele>1593.68538</ele>
        <time>2024-01-12T10:54:53Z</time>
      </trkpt>
      <trkpt lat="42.92873" lon="0.31734">
        <ele>1593.6244</ele>
        <time>2024-01-12T10:54:54Z</time>
      </trkpt>
      <trkpt lat="42.92872" lon="0.31733">
        <ele>1592.87294</ele>
        <time>2024-01-12T10:54:56Z</time>
      </trkpt>
      <trkpt lat="42.92871" lon="0.31731">
        <ele>1592.25553</ele>
        <time>2024-01-12T10:54:58Z</time>
      </trkpt>
      <trkpt lat="42.9287" lon="0.31729">
        <ele>1592.64468</ele>
        <time>2024-01-12T10:55:00Z</time>
      </trkpt>
      <trkpt lat="42.92869" lon="0.31728">
        <ele>1595.9183</ele>
        <time>2024-01-12T10:55:01Z</time>
      </trkpt>
      <trkpt lat="42.92868" lon="0.31727">
        <ele>1596.13391</ele>
        <time>2024-01-12T10:55:02Z</time>
      </trkpt>
      <trkpt lat="42.92867" lon="0.31727">
        <ele>1595.71123</ele>
        <time>2024-01-12T10:55:03Z</time>
      </trkpt>
      <trkpt lat="42.92866" lon="0.31725">
        <ele>1594.81925</ele>
        <time>2024-01-12T10:55:05Z</time>
      </trkpt>
      <trkpt lat="42.92865" lon="0.31724">
        <ele>1595.16543</ele>
        <time>2024-01-12T10:55:06Z</time>
      </trkpt>
      <trkpt lat="42.92863" lon="0.31723">
        <ele>1594.32481</ele>
        <time>2024-01-12T10:55:08Z</time>
      </trkpt>
      <trkpt lat="42.92862" lon="0.31723">
        <ele>1593.94571</ele>
        <time>2024-01-12T10:55:09Z</time>
      </trkpt>
      <trkpt lat="42.92861" lon="0.31724">
        <ele>1593.37363</ele>
        <time>2024-01-12T10:55:10Z</time>
      </trkpt>
      <trkpt lat="42.92859" lon="0.31724">
        <ele>1592.96352</ele>
        <time>2024-01-12T10:55:12Z</time>
      </trkpt>
      <trkpt lat="42.92858" lon="0.31723">
        <ele>1592.49063</ele>
        <time>2024-01-12T10:55:13Z</time>
      </trkpt>
      <trkpt lat="42.92856" lon="0.31722">
        <ele>1594.29816</ele>
        <time>2024-01-12T10:55:15Z</time>
      </trkpt>
      <trkpt lat="42.92855" lon="0.31722">
        <ele>1595.07023</ele>
        <time>2024-01-12T10:55:17Z</time>
      </trkpt>
      <trkpt lat="42.92854" lon="0.31722">
        <ele>1594.02905</ele>
        <time>2024-01-12T10:55:18Z</time>
      </trkpt>
      <trkpt lat="42.92853" lon="0.31721">
        <ele>1594.10786</ele>
        <time>2024-01-12T10:55:19Z</time>
      </trkpt>
      <trkpt lat="42.92852" lon="0.31721">
        <ele>1594.01245</ele>
        <time>2024-01-12T10:55:20Z</time>
      </trkpt>
      <trkpt lat="42.92851" lon="0.31721">
        <ele>1593.99237</ele>
        <time>2024-01-12T10:55:21Z</time>
      </trkpt>
      <trkpt lat="42.92849" lon="0.31721">
        <ele>1592.94045</ele>
        <time>2024-01-12T10:55:23Z</time>
      </trkpt>
      <trkpt lat="42.92848" lon="0.31721">
        <ele>1594.19724</ele>
        <time>2024-01-12T10:55:25Z</time>
      </trkpt>
      <trkpt lat="42.92846" lon="0.31721">
        <ele>1593.02613</ele>
        <time>2024-01-12T10:55:26Z</time>
      </trkpt>
      <trkpt lat="42.92845" lon="0.31722">
        <ele>1593.98562</ele>
        <time>2024-01-12T10:55:28Z</time>
      </trkpt>
      <trkpt lat="42.92844" lon="0.31721">
        <ele>1596.76991</ele>
        <time>2024-01-12T10:55:30Z</time>
      </trkpt>
      <trkpt lat="42.92843" lon="0.31721">
        <ele>1594.92882</ele>
        <time>2024-01-12T10:55:31Z</time>
      </trkpt>
      <trkpt lat="42.9284" lon="0.31721">
        <ele>1595.83313</ele>
        <time>2024-01-12T10:55:33Z</time>
      </trkpt>
      <trkpt lat="42.92839" lon="0.31722">
        <ele>1596.46687</ele>
        <time>2024-01-12T10:55:36Z</time>
      </trkpt>
      <trkpt lat="42.92838" lon="0.31722">
        <ele>1596.63297</ele>
        <time>2024-01-12T10:55:37Z</time>
      </trkpt>
      <trkpt lat="42.92837" lon="0.31721">
        <ele>1596.71057</ele>
        <time>2024-01-12T10:55:38Z</time>
      </trkpt>
      <trkpt lat="42.92836" lon="0.3172">
        <ele>1596.80958</ele>
        <time>2024-01-12T10:55:39Z</time>
      </trkpt>
      <trkpt lat="42.92835" lon="0.3172">
        <ele>1597.97979</ele>
        <time>2024-01-12T10:55:41Z</time>
      </trkpt>
      <trkpt lat="42.92834" lon="0.31719">
        <ele>1598.15617</ele>
        <time>2024-01-12T10:55:42Z</time>
      </trkpt>
      <trkpt lat="42.92833" lon="0.31719">
        <ele>1599.02326</ele>
        <time>2024-01-12T10:55:43Z</time>
      </trkpt>
      <trkpt lat="42.92831" lon="0.31719">
        <ele>1596.71808</ele>
        <time>2024-01-12T10:55:44Z</time>
      </trkpt>
      <trkpt lat="42.9283" lon="0.31719">
        <ele>1594.98776</ele>
        <time>2024-01-12T10:55:45Z</time>
      </trkpt>
      <trkpt lat="42.92829" lon="0.31718">
        <ele>1594.22405</ele>
        <time>2024-01-12T10:55:46Z</time>
      </trkpt>
      <trkpt lat="42.92827" lon="0.31719">
        <ele>1595.64512</ele>
        <time>2024-01-12T10:55:48Z</time>
      </trkpt>
      <trkpt lat="42.92826" lon="0.31718">
        <ele>1593.37319</ele>
        <time>2024-01-12T10:55:49Z</time>
      </trkpt>
      <trkpt lat="42.92825" lon="0.31717">
        <ele>1594.80889</ele>
        <time>2024-01-12T10:55:50Z</time>
      </trkpt>
      <trkpt lat="42.92823" lon="0.31716">
        <ele>1594.24009</ele>
        <time>2024-01-12T10:55:52Z</time>
      </trkpt>
      <trkpt lat="42.92822" lon="0.31716">
        <ele>1594.65957</ele>
        <time>2024-01-12T10:55:53Z</time>
      </trkpt>
      <trkpt lat="42.9282" lon="0.31716">
        <ele>1593.73594</ele>
        <time>2024-01-12T10:55:54Z</time>
      </trkpt>
      <trkpt lat="42.9282" lon="0.31716">
        <ele>1593.60011</ele>
        <time>2024-01-12T10:55:55Z</time>
      </trkpt>
      <trkpt lat="42.92819" lon="0.31716">
        <ele>1595.64253</ele>
        <time>2024-01-12T10:55:57Z</time>
      </trkpt>
      <trkpt lat="42.92816" lon="0.31715">
        <ele>1595.75319</ele>
        <time>2024-01-12T10:55:59Z</time>
      </trkpt>
      <trkpt lat="42.92815" lon="0.31716">
        <ele>1595.91872</ele>
        <time>2024-01-12T10:56:01Z</time>
      </trkpt>
      <trkpt lat="42.92814" lon="0.31716">
        <ele>1596.17194</ele>
        <time>2024-01-12T10:56:02Z</time>
      </trkpt>
      <trkpt lat="42.92813" lon="0.31716">
        <ele>1596.76173</ele>
        <time>2024-01-12T10:56:04Z</time>
      </trkpt>
      <trkpt lat="42.92811" lon="0.31716">
        <ele>1596.50073</ele>
        <time>2024-01-12T10:56:05Z</time>
      </trkpt>
      <trkpt lat="42.92809" lon="0.31716">
        <ele>1595.57308</ele>
        <time>2024-01-12T10:56:08Z</time>
      </trkpt>
      <trkpt lat="42.92807" lon="0.31716">
        <ele>1594.49247</ele>
        <time>2024-01-12T10:56:09Z</time>
      </trkpt>
      <trkpt lat="42.92805" lon="0.31715">
        <ele>1594.112</ele>
        <time>2024-01-12T10:56:11Z</time>
      </trkpt>
      <trkpt lat="42.92804" lon="0.31714">
        <ele>1593.80202</ele>
        <time>2024-01-12T10:56:12Z</time>
      </trkpt>
      <trkpt lat="42.92802" lon="0.31715">
        <ele>1593.00151</ele>
        <time>2024-01-12T10:56:13Z</time>
      </trkpt>
      <trkpt lat="42.92801" lon="0.31715">
        <ele>1592.85024</ele>
        <time>2024-01-12T10:56:14Z</time>
      </trkpt>
      <trkpt lat="42.928" lon="0.31714">
        <ele>1593.56806</ele>
        <time>2024-01-12T10:56:15Z</time>
      </trkpt>
      <trkpt lat="42.92799" lon="0.31714">
        <ele>1594.314</ele>
        <time>2024-01-12T10:56:17Z</time>
      </trkpt>
      <trkpt lat="42.92797" lon="0.31714">
        <ele>1592.79864</ele>
        <time>2024-01-12T10:56:19Z</time>
      </trkpt>
      <trkpt lat="42.92796" lon="0.31714">
        <ele>1593.1365</ele>
        <time>2024-01-12T10:56:20Z</time>
      </trkpt>
      <trkpt lat="42.92795" lon="0.31715">
        <ele>1593.23336</ele>
        <time>2024-01-12T10:56:22Z</time>
      </trkpt>
      <trkpt lat="42.92794" lon="0.31715">
        <ele>1594.20841</ele>
        <time>2024-01-12T10:56:23Z</time>
      </trkpt>
      <trkpt lat="42.92793" lon="0.31715">
        <ele>1594.66629</ele>
        <time>2024-01-12T10:56:24Z</time>
      </trkpt>
      <trkpt lat="42.92792" lon="0.31715">
        <ele>1593.98844</ele>
        <time>2024-01-12T10:56:25Z</time>
      </trkpt>
      <trkpt lat="42.92791" lon="0.31715">
        <ele>1593.27148</ele>
        <time>2024-01-12T10:56:27Z</time>
      </trkpt>
      <trkpt lat="42.9279" lon="0.31715">
        <ele>1593.96436</ele>
        <time>2024-01-12T10:56:29Z</time>
      </trkpt>
      <trkpt lat="42.92789" lon="0.31714">
        <ele>1595.28993</ele>
        <time>2024-01-12T10:56:30Z</time>
      </trkpt>
      <trkpt lat="42.92786" lon="0.31714">
        <ele>1595.61143</ele>
        <time>2024-01-12T10:56:32Z</time>
      </trkpt>
      <trkpt lat="42.92785" lon="0.31713">
        <ele>1594.90441</ele>
        <time>2024-01-12T10:56:33Z</time>
      </trkpt>
      <trkpt lat="42.92783" lon="0.31713">
        <ele>1595.83519</ele>
        <time>2024-01-12T10:56:35Z</time>
      </trkpt>
      <trkpt lat="42.92782" lon="0.31712">
        <ele>1595.59232</ele>
        <time>2024-01-12T10:56:36Z</time>
      </trkpt>
      <trkpt lat="42.9278" lon="0.31711">
        <ele>1595.29614</ele>
        <time>2024-01-12T10:56:37Z</time>
      </trkpt>
      <trkpt lat="42.92779" lon="0.31713">
        <ele>1596.1848</ele>
        <time>2024-01-12T10:56:39Z</time>
      </trkpt>
      <trkpt lat="42.92778" lon="0.31712">
        <ele>1596.25134</ele>
        <time>2024-01-12T10:56:40Z</time>
      </trkpt>
      <trkpt lat="42.92777" lon="0.31712">
        <ele>1596.42303</ele>
        <time>2024-01-12T10:56:41Z</time>
      </trkpt>
      <trkpt lat="42.92775" lon="0.31711">
        <ele>1596.48513</ele>
        <time>2024-01-12T10:56:43Z</time>
      </trkpt>
      <trkpt lat="42.92774" lon="0.31711">
        <ele>1597.38262</ele>
        <time>2024-01-12T10:56:44Z</time>
      </trkpt>
      <trkpt lat="42.92772" lon="0.31711">
        <ele>1597.66536</ele>
        <time>2024-01-12T10:56:46Z</time>
      </trkpt>
      <trkpt lat="42.92771" lon="0.31711">
        <ele>1597.09877</ele>
        <time>2024-01-12T10:56:47Z</time>
      </trkpt>
      <trkpt lat="42.92769" lon="0.31711">
        <ele>1596.42142</ele>
        <time>2024-01-12T10:56:48Z</time>
      </trkpt>
      <trkpt lat="42.92768" lon="0.3171">
        <ele>1595.90003</ele>
        <time>2024-01-12T10:56:49Z</time>
      </trkpt>
      <trkpt lat="42.92767" lon="0.3171">
        <ele>1594.98471</ele>
        <time>2024-01-12T10:56:50Z</time>
      </trkpt>
      <trkpt lat="42.92766" lon="0.3171">
        <ele>1593.87443</ele>
        <time>2024-01-12T10:56:51Z</time>
      </trkpt>
      <trkpt lat="42.92765" lon="0.3171">
        <ele>1594.92409</ele>
        <time>2024-01-12T10:56:52Z</time>
      </trkpt>
      <trkpt lat="42.92763" lon="0.3171">
        <ele>1594.43193</ele>
        <time>2024-01-12T10:56:53Z</time>
      </trkpt>
      <trkpt lat="42.92762" lon="0.31709">
        <ele>1595.40441</ele>
        <time>2024-01-12T10:56:55Z</time>
      </trkpt>
      <trkpt lat="42.9276" lon="0.31708">
        <ele>1594.3039</ele>
        <time>2024-01-12T10:56:57Z</time>
      </trkpt>
      <trkpt lat="42.92758" lon="0.31708">
        <ele>1594.48881</ele>
        <time>2024-01-12T10:56:58Z</time>
      </trkpt>
      <trkpt lat="42.92756" lon="0.31709">
        <ele>1594.57563</ele>
        <time>2024-01-12T10:57:00Z</time>
      </trkpt>
      <trkpt lat="42.92755" lon="0.31709">
        <ele>1594.9686</ele>
        <time>2024-01-12T10:57:01Z</time>
      </trkpt>
      <trkpt lat="42.92754" lon="0.31708">
        <ele>1595.14855</ele>
        <time>2024-01-12T10:57:02Z</time>
      </trkpt>
      <trkpt lat="42.92753" lon="0.31709">
        <ele>1595.65898</ele>
        <time>2024-01-12T10:57:03Z</time>
      </trkpt>
      <trkpt lat="42.92752" lon="0.31709">
        <ele>1595.67543</ele>
        <time>2024-01-12T10:57:04Z</time>
      </trkpt>
      <trkpt lat="42.9275" lon="0.3171">
        <ele>1595.40863</ele>
        <time>2024-01-12T10:57:06Z</time>
      </trkpt>
      <trkpt lat="42.92748" lon="0.31709">
        <ele>1595.77372</ele>
        <time>2024-01-12T10:57:09Z</time>
      </trkpt>
      <trkpt lat="42.92746" lon="0.3171">
        <ele>1596.29117</ele>
        <time>2024-01-12T10:57:10Z</time>
      </trkpt>
      <trkpt lat="42.92745" lon="0.31709">
        <ele>1596.32015</ele>
        <time>2024-01-12T10:57:11Z</time>
      </trkpt>
      <trkpt lat="42.92745" lon="0.3171">
        <ele>1595.50047</ele>
        <time>2024-01-12T10:57:12Z</time>
      </trkpt>
      <trkpt lat="42.92744" lon="0.3171">
        <ele>1595.75786</ele>
        <time>2024-01-12T10:57:14Z</time>
      </trkpt>
      <trkpt lat="42.92742" lon="0.3171">
        <ele>1596.24104</ele>
        <time>2024-01-12T10:57:15Z</time>
      </trkpt>
      <trkpt lat="42.92741" lon="0.3171">
        <ele>1596.17009</ele>
        <time>2024-01-12T10:57:17Z</time>
      </trkpt>
      <trkpt lat="42.9274" lon="0.3171">
        <ele>1595.31067</ele>
        <time>2024-01-12T10:57:19Z</time>
      </trkpt>
      <trkpt lat="42.9274" lon="0.31711">
        <ele>1596.64411</ele>
        <time>2024-01-12T10:57:24Z</time>
      </trkpt>
      <trkpt lat="42.92739" lon="0.31713">
        <ele>1596.94916</ele>
        <time>2024-01-12T10:57:31Z</time>
      </trkpt>
      <trkpt lat="42.92738" lon="0.31713">
        <ele>1596.30924</ele>
        <time>2024-01-12T10:57:38Z</time>
      </trkpt>
      <trkpt lat="42.92738" lon="0.31712">
        <ele>1595.34753</ele>
        <time>2024-01-12T10:57:44Z</time>
      </trkpt>
      <trkpt lat="42.92737" lon="0.31711">
        <ele>1595.97359</ele>
        <time>2024-01-12T10:57:48Z</time>
      </trkpt>
      <trkpt lat="42.92736" lon="0.31712">
        <ele>1597.27946</ele>
        <time>2024-01-12T10:57:50Z</time>
      </trkpt>
      <trkpt lat="42.92735" lon="0.31712">
        <ele>1597.22214</ele>
        <time>2024-01-12T10:57:52Z</time>
      </trkpt>
      <trkpt lat="42.92733" lon="0.31712">
        <ele>1600.55052</ele>
        <time>2024-01-12T10:57:54Z</time>
      </trkpt>
      <trkpt lat="42.92731" lon="0.31711">
        <ele>1599.83931</ele>
        <time>2024-01-12T10:57:56Z</time>
      </trkpt>
      <trkpt lat="42.9273" lon="0.31711">
        <ele>1598.4906</ele>
        <time>2024-01-12T10:57:58Z</time>
      </trkpt>
      <trkpt lat="42.92729" lon="0.3171">
        <ele>1597.22782</ele>
        <time>2024-01-12T10:58:00Z</time>
      </trkpt>
      <trkpt lat="42.92727" lon="0.3171">
        <ele>1596.50919</ele>
        <time>2024-01-12T10:58:02Z</time>
      </trkpt>
      <trkpt lat="42.92726" lon="0.3171">
        <ele>1597.00083</ele>
        <time>2024-01-12T10:58:04Z</time>
      </trkpt>
      <trkpt lat="42.92724" lon="0.3171">
        <ele>1597.01594</ele>
        <time>2024-01-12T10:58:06Z</time>
      </trkpt>
      <trkpt lat="42.92723" lon="0.3171">
        <ele>1596.44609</ele>
        <time>2024-01-12T10:58:08Z</time>
      </trkpt>
      <trkpt lat="42.92722" lon="0.31711">
        <ele>1597.21726</ele>
        <time>2024-01-12T10:58:09Z</time>
      </trkpt>
      <trkpt lat="42.9272" lon="0.3171">
        <ele>1597.03202</ele>
        <time>2024-01-12T10:58:11Z</time>
      </trkpt>
      <trkpt lat="42.92718" lon="0.31711">
        <ele>1596.87401</ele>
        <time>2024-01-12T10:58:13Z</time>
      </trkpt>
      <trkpt lat="42.92717" lon="0.31711">
        <ele>1596.79424</ele>
        <time>2024-01-12T10:58:15Z</time>
      </trkpt>
      <trkpt lat="42.92715" lon="0.31712">
        <ele>1595.9603</ele>
        <time>2024-01-12T10:58:17Z</time>
      </trkpt>
      <trkpt lat="42.92716" lon="0.31713">
        <ele>1595.5632</ele>
        <time>2024-01-12T10:58:21Z</time>
      </trkpt>
      <trkpt lat="42.92715" lon="0.31713">
        <ele>1593.68764</ele>
        <time>2024-01-12T10:58:26Z</time>
      </trkpt>
      <trkpt lat="42.92713" lon="0.31713">
        <ele>1593.38036</ele>
        <time>2024-01-12T10:58:31Z</time>
      </trkpt>
      <trkpt lat="42.92713" lon="0.31714">
        <ele>1594.16746</ele>
        <time>2024-01-12T10:58:41Z</time>
      </trkpt>
      <trkpt lat="42.92712" lon="0.31714">
        <ele>1594.3863</ele>
        <time>2024-01-12T10:58:44Z</time>
      </trkpt>
      <trkpt lat="42.92712" lon="0.31713">
        <ele>1594.19553</ele>
        <time>2024-01-12T10:58:47Z</time>
      </trkpt>
      <trkpt lat="42.9271" lon="0.31712">
        <ele>1594.24182</ele>
        <time>2024-01-12T10:58:49Z</time>
      </trkpt>
      <trkpt lat="42.92709" lon="0.31711">
        <ele>1593.95521</ele>
        <time>2024-01-12T10:58:51Z</time>
      </trkpt>
      <trkpt lat="42.92708" lon="0.31711">
        <ele>1593.93696</ele>
        <time>2024-01-12T10:58:52Z</time>
      </trkpt>
      <trkpt lat="42.92707" lon="0.3171">
        <ele>1594.73067</ele>
        <time>2024-01-12T10:58:54Z</time>
      </trkpt>
      <trkpt lat="42.92706" lon="0.31709">
        <ele>1593.85683</ele>
        <time>2024-01-12T10:58:56Z</time>
      </trkpt>
      <trkpt lat="42.92704" lon="0.31709">
        <ele>1593.86876</ele>
        <time>2024-01-12T10:58:57Z</time>
      </trkpt>
      <trkpt lat="42.92703" lon="0.31708">
        <ele>1594.68749</ele>
        <time>2024-01-12T10:59:00Z</time>
      </trkpt>
      <trkpt lat="42.92702" lon="0.31707">
        <ele>1594.57331</ele>
        <time>2024-01-12T10:59:01Z</time>
      </trkpt>
      <trkpt lat="42.92702" lon="0.31706">
        <ele>1595.20407</ele>
        <time>2024-01-12T10:59:02Z</time>
      </trkpt>
      <trkpt lat="42.927" lon="0.31706">
        <ele>1595.27842</ele>
        <time>2024-01-12T10:59:03Z</time>
      </trkpt>
      <trkpt lat="42.927" lon="0.31704">
        <ele>1593.98875</ele>
        <time>2024-01-12T10:59:05Z</time>
      </trkpt>
      <trkpt lat="42.92698" lon="0.31703">
        <ele>1594.92907</ele>
        <time>2024-01-12T10:59:07Z</time>
      </trkpt>
      <trkpt lat="42.92697" lon="0.31703">
        <ele>1595.38963</ele>
        <time>2024-01-12T10:59:08Z</time>
      </trkpt>
      <trkpt lat="42.92695" lon="0.31702">
        <ele>1594.79336</ele>
        <time>2024-01-12T10:59:11Z</time>
      </trkpt>
      <trkpt lat="42.92694" lon="0.317">
        <ele>1594.29967</ele>
        <time>2024-01-12T10:59:13Z</time>
      </trkpt>
      <trkpt lat="42.92692" lon="0.31699">
        <ele>1594.9931</ele>
        <time>2024-01-12T10:59:14Z</time>
      </trkpt>
      <trkpt lat="42.92692" lon="0.31698">
        <ele>1595.23984</ele>
        <time>2024-01-12T10:59:15Z</time>
      </trkpt>
      <trkpt lat="42.92691" lon="0.31697">
        <ele>1595.50095</ele>
        <time>2024-01-12T10:59:17Z</time>
      </trkpt>
      <trkpt lat="42.9269" lon="0.31697">
        <ele>1595.55856</ele>
        <time>2024-01-12T10:59:18Z</time>
      </trkpt>
      <trkpt lat="42.92689" lon="0.31696">
        <ele>1595.72421</ele>
        <time>2024-01-12T10:59:19Z</time>
      </trkpt>
      <trkpt lat="42.92687" lon="0.31696">
        <ele>1595.70929</ele>
        <time>2024-01-12T10:59:20Z</time>
      </trkpt>
      <trkpt lat="42.92686" lon="0.31695">
        <ele>1595.25818</ele>
        <time>2024-01-12T10:59:22Z</time>
      </trkpt>
      <trkpt lat="42.92685" lon="0.31694">
        <ele>1596.77593</ele>
        <time>2024-01-12T10:59:25Z</time>
      </trkpt>
      <trkpt lat="42.92684" lon="0.31694">
        <ele>1598.44288</ele>
        <time>2024-01-12T10:59:27Z</time>
      </trkpt>
      <trkpt lat="42.92683" lon="0.31693">
        <ele>1597.65551</ele>
        <time>2024-01-12T10:59:28Z</time>
      </trkpt>
      <trkpt lat="42.92682" lon="0.31692">
        <ele>1597.64118</ele>
        <time>2024-01-12T10:59:31Z</time>
      </trkpt>
      <trkpt lat="42.92681" lon="0.31691">
        <ele>1598.03685</ele>
        <time>2024-01-12T10:59:32Z</time>
      </trkpt>
      <trkpt lat="42.9268" lon="0.3169">
        <ele>1596.64842</ele>
        <time>2024-01-12T10:59:35Z</time>
      </trkpt>
      <trkpt lat="42.92679" lon="0.31689">
        <ele>1597.58911</ele>
        <time>2024-01-12T10:59:38Z</time>
      </trkpt>
      <trkpt lat="42.92678" lon="0.31688">
        <ele>1596.45666</ele>
        <time>2024-01-12T10:59:40Z</time>
      </trkpt>
      <trkpt lat="42.92676" lon="0.31688">
        <ele>1597.3877</ele>
        <time>2024-01-12T10:59:43Z</time>
      </trkpt>
      <trkpt lat="42.92675" lon="0.31688">
        <ele>1597.0174</ele>
        <time>2024-01-12T10:59:45Z</time>
      </trkpt>
      <trkpt lat="42.92674" lon="0.31688">
        <ele>1596.89895</ele>
        <time>2024-01-12T10:59:46Z</time>
      </trkpt>
      <trkpt lat="42.92673" lon="0.31689">
        <ele>1597.65936</ele>
        <time>2024-01-12T10:59:49Z</time>
      </trkpt>
      <trkpt lat="42.92671" lon="0.31689">
        <ele>1596.57741</ele>
        <time>2024-01-12T10:59:50Z</time>
      </trkpt>
      <trkpt lat="42.9267" lon="0.31689">
        <ele>1596.87627</ele>
        <time>2024-01-12T10:59:54Z</time>
      </trkpt>
      <trkpt lat="42.92669" lon="0.31688">
        <ele>1596.4072</ele>
        <time>2024-01-12T10:59:57Z</time>
      </trkpt>
      <trkpt lat="42.92668" lon="0.31687">
        <ele>1596.89864</ele>
        <time>2024-01-12T11:00:00Z</time>
      </trkpt>
      <trkpt lat="42.92666" lon="0.31687">
        <ele>1598.53303</ele>
        <time>2024-01-12T11:00:02Z</time>
      </trkpt>
      <trkpt lat="42.92665" lon="0.31686">
        <ele>1601.01951</ele>
        <time>2024-01-12T11:00:06Z</time>
      </trkpt>
      <trkpt lat="42.92664" lon="0.31685">
        <ele>1599.15467</ele>
        <time>2024-01-12T11:00:08Z</time>
      </trkpt>
      <trkpt lat="42.92663" lon="0.31685">
        <ele>1601.13379</ele>
        <time>2024-01-12T11:00:12Z</time>
      </trkpt>
      <trkpt lat="42.92662" lon="0.31684">
        <ele>1601.15247</ele>
        <time>2024-01-12T11:00:14Z</time>
      </trkpt>
      <trkpt lat="42.92661" lon="0.31683">
        <ele>1601.06042</ele>
        <time>2024-01-12T11:00:17Z</time>
      </trkpt>
      <trkpt lat="42.9266" lon="0.31683">
        <ele>1600.57549</ele>
        <time>2024-01-12T11:00:19Z</time>
      </trkpt>
      <trkpt lat="42.92659" lon="0.31683">
        <ele>1600.1359</ele>
        <time>2024-01-12T11:00:20Z</time>
      </trkpt>
      <trkpt lat="42.92658" lon="0.31682">
        <ele>1599.54605</ele>
        <time>2024-01-12T11:00:22Z</time>
      </trkpt>
      <trkpt lat="42.92657" lon="0.31682">
        <ele>1599.40016</ele>
        <time>2024-01-12T11:00:23Z</time>
      </trkpt>
      <trkpt lat="42.92656" lon="0.31682">
        <ele>1600.61742</ele>
        <time>2024-01-12T11:00:25Z</time>
      </trkpt>
      <trkpt lat="42.92655" lon="0.31682">
        <ele>1600.64374</ele>
        <time>2024-01-12T11:00:27Z</time>
      </trkpt>
      <trkpt lat="42.92654" lon="0.31681">
        <ele>1600.86595</ele>
        <time>2024-01-12T11:00:28Z</time>
      </trkpt>
      <trkpt lat="42.92653" lon="0.31681">
        <ele>1602.04788</ele>
        <time>2024-01-12T11:00:30Z</time>
      </trkpt>
      <trkpt lat="42.92652" lon="0.3168">
        <ele>1601.27331</ele>
        <time>2024-01-12T11:00:33Z</time>
      </trkpt>
      <trkpt lat="42.92651" lon="0.3168">
        <ele>1601.71051</ele>
        <time>2024-01-12T11:00:35Z</time>
      </trkpt>
      <trkpt lat="42.9265" lon="0.3168">
        <ele>1601.92331</ele>
        <time>2024-01-12T11:00:37Z</time>
      </trkpt>
      <trkpt lat="42.92649" lon="0.31679">
        <ele>1601.83059</ele>
        <time>2024-01-12T11:00:41Z</time>
      </trkpt>
      <trkpt lat="42.92648" lon="0.3168">
        <ele>1602.33249</ele>
        <time>2024-01-12T11:00:44Z</time>
      </trkpt>
      <trkpt lat="42.92647" lon="0.3168">
        <ele>1603.86333</ele>
        <time>2024-01-12T11:00:47Z</time>
      </trkpt>
      <trkpt lat="42.92645" lon="0.31679">
        <ele>1601.61431</ele>
        <time>2024-01-12T11:00:48Z</time>
      </trkpt>
      <trkpt lat="42.92644" lon="0.31678">
        <ele>1603.16852</ele>
        <time>2024-01-12T11:00:52Z</time>
      </trkpt>
      <trkpt lat="42.92643" lon="0.31678">
        <ele>1603.51794</ele>
        <time>2024-01-12T11:00:53Z</time>
      </trkpt>
      <trkpt lat="42.92642" lon="0.31677">
        <ele>1604.75743</ele>
        <time>2024-01-12T11:00:55Z</time>
      </trkpt>
      <trkpt lat="42.92641" lon="0.31677">
        <ele>1603.97807</ele>
        <time>2024-01-12T11:00:56Z</time>
      </trkpt>
      <trkpt lat="42.9264" lon="0.31677">
        <ele>1604.36856</ele>
        <time>2024-01-12T11:00:58Z</time>
      </trkpt>
      <trkpt lat="42.92639" lon="0.31676">
        <ele>1604.88818</ele>
        <time>2024-01-12T11:01:00Z</time>
      </trkpt>
      <trkpt lat="42.92637" lon="0.31676">
        <ele>1605.37421</ele>
        <time>2024-01-12T11:01:02Z</time>
      </trkpt>
      <trkpt lat="42.92636" lon="0.31675">
        <ele>1605.12012</ele>
        <time>2024-01-12T11:01:04Z</time>
      </trkpt>
      <trkpt lat="42.92635" lon="0.31675">
        <ele>1604.73316</ele>
        <time>2024-01-12T11:01:06Z</time>
      </trkpt>
      <trkpt lat="42.92633" lon="0.31673">
        <ele>1604.7506</ele>
        <time>2024-01-12T11:01:08Z</time>
      </trkpt>
      <trkpt lat="42.92633" lon="0.31672">
        <ele>1604.59894</ele>
        <time>2024-01-12T11:01:09Z</time>
      </trkpt>
      <trkpt lat="42.92631" lon="0.31672">
        <ele>1602.40097</ele>
        <time>2024-01-12T11:01:11Z</time>
      </trkpt>
      <trkpt lat="42.9263" lon="0.31672">
        <ele>1603.03858</ele>
        <time>2024-01-12T11:01:13Z</time>
      </trkpt>
      <trkpt lat="42.92629" lon="0.31671">
        <ele>1601.32835</ele>
        <time>2024-01-12T11:01:14Z</time>
      </trkpt>
      <trkpt lat="42.92628" lon="0.31671">
        <ele>1602.56349</ele>
        <time>2024-01-12T11:01:17Z</time>
      </trkpt>
      <trkpt lat="42.92627" lon="0.3167">
        <ele>1602.87717</ele>
        <time>2024-01-12T11:01:19Z</time>
      </trkpt>
      <trkpt lat="42.92626" lon="0.3167">
        <ele>1603.04847</ele>
        <time>2024-01-12T11:01:22Z</time>
      </trkpt>
      <trkpt lat="42.92625" lon="0.31669">
        <ele>1605.27161</ele>
        <time>2024-01-12T11:01:24Z</time>
      </trkpt>
      <trkpt lat="42.92625" lon="0.31669">
        <ele>1605.42547</ele>
        <time>2024-01-12T11:01:26Z</time>
      </trkpt>
      <trkpt lat="42.92624" lon="0.31668">
        <ele>1606.10399</ele>
        <time>2024-01-12T11:01:28Z</time>
      </trkpt>
      <trkpt lat="42.92622" lon="0.31668">
        <ele>1606.37798</ele>
        <time>2024-01-12T11:01:31Z</time>
      </trkpt>
      <trkpt lat="42.92621" lon="0.31667">
        <ele>1608.19244</ele>
        <time>2024-01-12T11:01:34Z</time>
      </trkpt>
      <trkpt lat="42.92619" lon="0.31667">
        <ele>1606.52874</ele>
        <time>2024-01-12T11:01:37Z</time>
      </trkpt>
      <trkpt lat="42.92617" lon="0.31666">
        <ele>1605.89154</ele>
        <time>2024-01-12T11:01:39Z</time>
      </trkpt>
      <trkpt lat="42.92615" lon="0.31666">
        <ele>1605.93324</ele>
        <time>2024-01-12T11:01:41Z</time>
      </trkpt>
      <trkpt lat="42.92614" lon="0.31666">
        <ele>1605.50902</ele>
        <time>2024-01-12T11:01:43Z</time>
      </trkpt>
      <trkpt lat="42.92613" lon="0.31666">
        <ele>1605.73832</ele>
        <time>2024-01-12T11:01:45Z</time>
      </trkpt>
      <trkpt lat="42.92611" lon="0.31666">
        <ele>1605.81557</ele>
        <time>2024-01-12T11:01:46Z</time>
      </trkpt>
      <trkpt lat="42.9261" lon="0.31666">
        <ele>1608.68701</ele>
        <time>2024-01-12T11:01:50Z</time>
      </trkpt>
      <trkpt lat="42.9261" lon="0.31664">
        <ele>1610.83095</ele>
        <time>2024-01-12T11:01:52Z</time>
      </trkpt>
      <trkpt lat="42.92608" lon="0.31665">
        <ele>1610.71862</ele>
        <time>2024-01-12T11:01:53Z</time>
      </trkpt>
      <trkpt lat="42.92607" lon="0.31664">
        <ele>1611.68207</ele>
        <time>2024-01-12T11:01:55Z</time>
      </trkpt>
      <trkpt lat="42.92608" lon="0.31662">
        <ele>1610.56527</ele>
        <time>2024-01-12T11:01:58Z</time>
      </trkpt>
      <trkpt lat="42.92608" lon="0.31659">
        <ele>1609.03296</ele>
        <time>2024-01-12T11:02:00Z</time>
      </trkpt>
      <trkpt lat="42.92607" lon="0.31658">
        <ele>1608.25396</ele>
        <time>2024-01-12T11:02:01Z</time>
      </trkpt>
      <trkpt lat="42.92606" lon="0.31657">
        <ele>1608.52616</ele>
        <time>2024-01-12T11:02:02Z</time>
      </trkpt>
      <trkpt lat="42.92606" lon="0.31656">
        <ele>1609.52758</ele>
        <time>2024-01-12T11:02:03Z</time>
      </trkpt>
      <trkpt lat="42.92605" lon="0.31656">
        <ele>1607.86529</ele>
        <time>2024-01-12T11:02:06Z</time>
      </trkpt>
      <trkpt lat="42.92604" lon="0.31655">
        <ele>1607.55632</ele>
        <time>2024-01-12T11:02:07Z</time>
      </trkpt>
      <trkpt lat="42.92603" lon="0.31654">
        <ele>1607.77121</ele>
        <time>2024-01-12T11:02:09Z</time>
      </trkpt>
      <trkpt lat="42.92602" lon="0.31652">
        <ele>1609.16368</ele>
        <time>2024-01-12T11:02:11Z</time>
      </trkpt>
      <trkpt lat="42.92602" lon="0.31653">
        <ele>1609.59137</ele>
        <time>2024-01-12T11:02:17Z</time>
      </trkpt>
      <trkpt lat="42.92601" lon="0.31653">
        <ele>1610.03003</ele>
        <time>2024-01-12T11:02:20Z</time>
      </trkpt>
      <trkpt lat="42.926" lon="0.31652">
        <ele>1608.65548</ele>
        <time>2024-01-12T11:02:27Z</time>
      </trkpt>
      <trkpt lat="42.926" lon="0.3165">
        <ele>1608.57436</ele>
        <time>2024-01-12T11:02:32Z</time>
      </trkpt>
      <trkpt lat="42.92599" lon="0.31648">
        <ele>1610.83904</ele>
        <time>2024-01-12T11:02:53Z</time>
      </trkpt>
      <trkpt lat="42.92599" lon="0.31647">
        <ele>1614.31598</ele>
        <time>2024-01-12T11:02:59Z</time>
      </trkpt>
      <trkpt lat="42.92598" lon="0.31647">
        <ele>1610.45477</ele>
        <time>2024-01-12T11:03:11Z</time>
      </trkpt>
      <trkpt lat="42.926" lon="0.31647">
        <ele>1610.98344</ele>
        <time>2024-01-12T11:03:16Z</time>
      </trkpt>
      <trkpt lat="42.926" lon="0.31649">
        <ele>1610.73972</ele>
        <time>2024-01-12T11:03:20Z</time>
      </trkpt>
      <trkpt lat="42.92599" lon="0.31649">
        <ele>1610.59806</ele>
        <time>2024-01-12T11:03:32Z</time>
      </trkpt>
      <trkpt lat="42.92597" lon="0.31648">
        <ele>1611.04563</ele>
        <time>2024-01-12T11:03:35Z</time>
      </trkpt>
      <trkpt lat="42.92596" lon="0.31648">
        <ele>1611.49464</ele>
        <time>2024-01-12T11:03:38Z</time>
      </trkpt>
      <trkpt lat="42.92596" lon="0.3165">
        <ele>1611.98446</ele>
        <time>2024-01-12T11:03:39Z</time>
      </trkpt>
      <trkpt lat="42.92595" lon="0.31648">
        <ele>1612.47378</ele>
        <time>2024-01-12T11:03:41Z</time>
      </trkpt>
      <trkpt lat="42.92594" lon="0.31648">
        <ele>1615.15588</ele>
        <time>2024-01-12T11:03:43Z</time>
      </trkpt>
      <trkpt lat="42.92593" lon="0.31648">
        <ele>1614.40122</ele>
        <time>2024-01-12T11:03:46Z</time>
      </trkpt>
      <trkpt lat="42.92592" lon="0.31648">
        <ele>1615.20559</ele>
        <time>2024-01-12T11:03:47Z</time>
      </trkpt>
      <trkpt lat="42.92591" lon="0.31646">
        <ele>1614.67519</ele>
        <time>2024-01-12T11:03:49Z</time>
      </trkpt>
      <trkpt lat="42.9259" lon="0.31645">
        <ele>1614.3376</ele>
        <time>2024-01-12T11:03:51Z</time>
      </trkpt>
      <trkpt lat="42.92589" lon="0.31645">
        <ele>1614.71562</ele>
        <time>2024-01-12T11:03:53Z</time>
      </trkpt>
      <trkpt lat="42.92587" lon="0.31644">
        <ele>1614.79216</ele>
        <time>2024-01-12T11:03:55Z</time>
      </trkpt>
      <trkpt lat="42.92586" lon="0.31644">
        <ele>1616.35766</ele>
        <time>2024-01-12T11:03:59Z</time>
      </trkpt>
      <trkpt lat="42.92585" lon="0.31644">
        <ele>1616.74239</ele>
        <time>2024-01-12T11:04:01Z</time>
      </trkpt>
      <trkpt lat="42.92584" lon="0.31644">
        <ele>1616.47454</ele>
        <time>2024-01-12T11:04:04Z</time>
      </trkpt>
      <trkpt lat="42.92583" lon="0.31643">
        <ele>1617.47112</ele>
        <time>2024-01-12T11:04:05Z</time>
      </trkpt>
      <trkpt lat="42.92582" lon="0.31643">
        <ele>1617.92009</ele>
        <time>2024-01-12T11:04:07Z</time>
      </trkpt>
      <trkpt lat="42.92581" lon="0.31643">
        <ele>1617.59745</ele>
        <time>2024-01-12T11:04:09Z</time>
      </trkpt>
      <trkpt lat="42.92579" lon="0.31644">
        <ele>1618.16601</ele>
        <time>2024-01-12T11:04:13Z</time>
      </trkpt>
      <trkpt lat="42.92577" lon="0.31644">
        <ele>1618.50276</ele>
        <time>2024-01-12T11:04:16Z</time>
      </trkpt>
      <trkpt lat="42.92576" lon="0.31645">
        <ele>1615.55751</ele>
        <time>2024-01-12T11:04:19Z</time>
      </trkpt>
      <trkpt lat="42.92575" lon="0.31645">
        <ele>1616.35052</ele>
        <time>2024-01-12T11:04:21Z</time>
      </trkpt>
      <trkpt lat="42.92574" lon="0.31644">
        <ele>1616.79019</ele>
        <time>2024-01-12T11:04:22Z</time>
      </trkpt>
      <trkpt lat="42.92573" lon="0.31641">
        <ele>1617.50891</ele>
        <time>2024-01-12T11:04:26Z</time>
      </trkpt>
      <trkpt lat="42.92571" lon="0.31641">
        <ele>1617.6543</ele>
        <time>2024-01-12T11:04:28Z</time>
      </trkpt>
      <trkpt lat="42.9257" lon="0.31642">
        <ele>1617.76698</ele>
        <time>2024-01-12T11:04:31Z</time>
      </trkpt>
      <trkpt lat="42.92569" lon="0.31642">
        <ele>1617.44272</ele>
        <time>2024-01-12T11:04:33Z</time>
      </trkpt>
      <trkpt lat="42.92568" lon="0.31641">
        <ele>1618.18526</ele>
        <time>2024-01-12T11:04:36Z</time>
      </trkpt>
      <trkpt lat="42.92567" lon="0.31641">
        <ele>1618.55375</ele>
        <time>2024-01-12T11:04:40Z</time>
      </trkpt>
      <trkpt lat="42.92566" lon="0.3164">
        <ele>1619.16535</ele>
        <time>2024-01-12T11:04:42Z</time>
      </trkpt>
      <trkpt lat="42.92565" lon="0.3164">
        <ele>1619.83461</ele>
        <time>2024-01-12T11:04:44Z</time>
      </trkpt>
      <trkpt lat="42.92563" lon="0.3164">
        <ele>1617.85931</ele>
        <time>2024-01-12T11:04:46Z</time>
      </trkpt>
      <trkpt lat="42.92562" lon="0.31639">
        <ele>1619.72903</ele>
        <time>2024-01-12T11:04:50Z</time>
      </trkpt>
      <trkpt lat="42.92561" lon="0.31638">
        <ele>1619.7625</ele>
        <time>2024-01-12T11:04:53Z</time>
      </trkpt>
      <trkpt lat="42.9256" lon="0.31638">
        <ele>1619.17288</ele>
        <time>2024-01-12T11:04:55Z</time>
      </trkpt>
      <trkpt lat="42.92559" lon="0.31638">
        <ele>1620.33884</ele>
        <time>2024-01-12T11:04:58Z</time>
      </trkpt>
      <trkpt lat="42.92559" lon="0.31637">
        <ele>1621.03455</ele>
        <time>2024-01-12T11:05:01Z</time>
      </trkpt>
      <trkpt lat="42.92558" lon="0.31637">
        <ele>1621.117</ele>
        <time>2024-01-12T11:05:04Z</time>
      </trkpt>
      <trkpt lat="42.92557" lon="0.31636">
        <ele>1621.24389</ele>
        <time>2024-01-12T11:05:08Z</time>
      </trkpt>
      <trkpt lat="42.92556" lon="0.31635">
        <ele>1621.14186</ele>
        <time>2024-01-12T11:05:12Z</time>
      </trkpt>
      <trkpt lat="42.92555" lon="0.31635">
        <ele>1619.48306</ele>
        <time>2024-01-12T11:05:14Z</time>
      </trkpt>
      <trkpt lat="42.92554" lon="0.31635">
        <ele>1619.61585</ele>
        <time>2024-01-12T11:05:17Z</time>
      </trkpt>
      <trkpt lat="42.92552" lon="0.31634">
        <ele>1620.36251</ele>
        <time>2024-01-12T11:05:20Z</time>
      </trkpt>
      <trkpt lat="42.92551" lon="0.31634">
        <ele>1617.87347</ele>
        <time>2024-01-12T11:05:22Z</time>
      </trkpt>
      <trkpt lat="42.9255" lon="0.31632">
        <ele>1622.11474</ele>
        <time>2024-01-12T11:05:27Z</time>
      </trkpt>
      <trkpt lat="42.92549" lon="0.31631">
        <ele>1622.37899</ele>
        <time>2024-01-12T11:05:31Z</time>
      </trkpt>
      <trkpt lat="42.92548" lon="0.31629">
        <ele>1624.23694</ele>
        <time>2024-01-12T11:05:33Z</time>
      </trkpt>
      <trkpt lat="42.92548" lon="0.31628">
        <ele>1623.45839</ele>
        <time>2024-01-12T11:05:35Z</time>
      </trkpt>
      <trkpt lat="42.92546" lon="0.31628">
        <ele>1623.38449</ele>
        <time>2024-01-12T11:05:37Z</time>
      </trkpt>
      <trkpt lat="42.92546" lon="0.31626">
        <ele>1625.16618</ele>
        <time>2024-01-12T11:05:39Z</time>
      </trkpt>
      <trkpt lat="42.92545" lon="0.31626">
        <ele>1624.86286</ele>
        <time>2024-01-12T11:05:40Z</time>
      </trkpt>
      <trkpt lat="42.92544" lon="0.31624">
        <ele>1625.19444</ele>
        <time>2024-01-12T11:05:42Z</time>
      </trkpt>
      <trkpt lat="42.92543" lon="0.31624">
        <ele>1624.32081</ele>
        <time>2024-01-12T11:05:44Z</time>
      </trkpt>
      <trkpt lat="42.92542" lon="0.31623">
        <ele>1624.4333</ele>
        <time>2024-01-12T11:05:46Z</time>
      </trkpt>
      <trkpt lat="42.92541" lon="0.31622">
        <ele>1622.86427</ele>
        <time>2024-01-12T11:05:48Z</time>
      </trkpt>
      <trkpt lat="42.9254" lon="0.3162">
        <ele>1623.89452</ele>
        <time>2024-01-12T11:05:51Z</time>
      </trkpt>
      <trkpt lat="42.92539" lon="0.3162">
        <ele>1623.80053</ele>
        <time>2024-01-12T11:05:52Z</time>
      </trkpt>
      <trkpt lat="42.92539" lon="0.31619">
        <ele>1623.29258</ele>
        <time>2024-01-12T11:05:54Z</time>
      </trkpt>
      <trkpt lat="42.92538" lon="0.31618">
        <ele>1623.05184</ele>
        <time>2024-01-12T11:05:55Z</time>
      </trkpt>
      <trkpt lat="42.92537" lon="0.31617">
        <ele>1622.95087</ele>
        <time>2024-01-12T11:05:56Z</time>
      </trkpt>
      <trkpt lat="42.92536" lon="0.31616">
        <ele>1623.55192</ele>
        <time>2024-01-12T11:05:58Z</time>
      </trkpt>
      <trkpt lat="42.92535" lon="0.31614">
        <ele>1624.4816</ele>
        <time>2024-01-12T11:06:00Z</time>
      </trkpt>
      <trkpt lat="42.92535" lon="0.31614">
        <ele>1624.69399</ele>
        <time>2024-01-12T11:06:01Z</time>
      </trkpt>
      <trkpt lat="42.92534" lon="0.31613">
        <ele>1624.85024</ele>
        <time>2024-01-12T11:06:04Z</time>
      </trkpt>
      <trkpt lat="42.92533" lon="0.31612">
        <ele>1625.85017</ele>
        <time>2024-01-12T11:06:05Z</time>
      </trkpt>
      <trkpt lat="42.92533" lon="0.31611">
        <ele>1626.32977</ele>
        <time>2024-01-12T11:06:07Z</time>
      </trkpt>
      <trkpt lat="42.92532" lon="0.3161">
        <ele>1626.74343</ele>
        <time>2024-01-12T11:06:09Z</time>
      </trkpt>
      <trkpt lat="42.9253" lon="0.3161">
        <ele>1625.79336</ele>
        <time>2024-01-12T11:06:11Z</time>
      </trkpt>
      <trkpt lat="42.92529" lon="0.3161">
        <ele>1625.97885</ele>
        <time>2024-01-12T11:06:13Z</time>
      </trkpt>
      <trkpt lat="42.92528" lon="0.31608">
        <ele>1627.3144</ele>
        <time>2024-01-12T11:06:17Z</time>
      </trkpt>
      <trkpt lat="42.92527" lon="0.31607">
        <ele>1626.81869</ele>
        <time>2024-01-12T11:06:19Z</time>
      </trkpt>
      <trkpt lat="42.92526" lon="0.31606">
        <ele>1627.45909</ele>
        <time>2024-01-12T11:06:20Z</time>
      </trkpt>
      <trkpt lat="42.92525" lon="0.31605">
        <ele>1628.06198</ele>
        <time>2024-01-12T11:06:22Z</time>
      </trkpt>
      <trkpt lat="42.92524" lon="0.31605">
        <ele>1629.66299</ele>
        <time>2024-01-12T11:06:25Z</time>
      </trkpt>
      <trkpt lat="42.92523" lon="0.31604">
        <ele>1629.63143</ele>
        <time>2024-01-12T11:06:27Z</time>
      </trkpt>
      <trkpt lat="42.92522" lon="0.31603">
        <ele>1628.78344</ele>
        <time>2024-01-12T11:06:28Z</time>
      </trkpt>
      <trkpt lat="42.92522" lon="0.31602">
        <ele>1629.3746</ele>
        <time>2024-01-12T11:06:30Z</time>
      </trkpt>
      <trkpt lat="42.92521" lon="0.31601">
        <ele>1630.92833</ele>
        <time>2024-01-12T11:06:32Z</time>
      </trkpt>
      <trkpt lat="42.9252" lon="0.31601">
        <ele>1630.05257</ele>
        <time>2024-01-12T11:06:34Z</time>
      </trkpt>
      <trkpt lat="42.92519" lon="0.31602">
        <ele>1630.7655</ele>
        <time>2024-01-12T11:06:36Z</time>
      </trkpt>
      <trkpt lat="42.92518" lon="0.31601">
        <ele>1630.37105</ele>
        <time>2024-01-12T11:06:37Z</time>
      </trkpt>
      <trkpt lat="42.92517" lon="0.316">
        <ele>1630.199</ele>
        <time>2024-01-12T11:06:39Z</time>
      </trkpt>
      <trkpt lat="42.92516" lon="0.31598">
        <ele>1630.03398</ele>
        <time>2024-01-12T11:06:41Z</time>
      </trkpt>
      <trkpt lat="42.92515" lon="0.31597">
        <ele>1630.4147</ele>
        <time>2024-01-12T11:06:44Z</time>
      </trkpt>
      <trkpt lat="42.92514" lon="0.31596">
        <ele>1630.18804</ele>
        <time>2024-01-12T11:06:45Z</time>
      </trkpt>
      <trkpt lat="42.92513" lon="0.31596">
        <ele>1629.91666</ele>
        <time>2024-01-12T11:06:46Z</time>
      </trkpt>
      <trkpt lat="42.92512" lon="0.31595">
        <ele>1629.72451</ele>
        <time>2024-01-12T11:06:48Z</time>
      </trkpt>
      <trkpt lat="42.92511" lon="0.31594">
        <ele>1629.05834</ele>
        <time>2024-01-12T11:06:49Z</time>
      </trkpt>
      <trkpt lat="42.92509" lon="0.31594">
        <ele>1630.34191</ele>
        <time>2024-01-12T11:06:51Z</time>
      </trkpt>
      <trkpt lat="42.92508" lon="0.31594">
        <ele>1630.71358</ele>
        <time>2024-01-12T11:06:56Z</time>
      </trkpt>
      <trkpt lat="42.92507" lon="0.31593">
        <ele>1631.16888</ele>
        <time>2024-01-12T11:06:58Z</time>
      </trkpt>
      <trkpt lat="42.92507" lon="0.31591">
        <ele>1630.69355</ele>
        <time>2024-01-12T11:07:00Z</time>
      </trkpt>
      <trkpt lat="42.92506" lon="0.3159">
        <ele>1631.14931</ele>
        <time>2024-01-12T11:07:02Z</time>
      </trkpt>
      <trkpt lat="42.92505" lon="0.3159">
        <ele>1631.62751</ele>
        <time>2024-01-12T11:07:03Z</time>
      </trkpt>
      <trkpt lat="42.92504" lon="0.3159">
        <ele>1631.36688</ele>
        <time>2024-01-12T11:07:04Z</time>
      </trkpt>
      <trkpt lat="42.92503" lon="0.31589">
        <ele>1632.65229</ele>
        <time>2024-01-12T11:07:07Z</time>
      </trkpt>
      <trkpt lat="42.92501" lon="0.31588">
        <ele>1633.04404</ele>
        <time>2024-01-12T11:07:08Z</time>
      </trkpt>
      <trkpt lat="42.92501" lon="0.31587">
        <ele>1632.22544</ele>
        <time>2024-01-12T11:07:11Z</time>
      </trkpt>
      <trkpt lat="42.925" lon="0.31587">
        <ele>1632.47065</ele>
        <time>2024-01-12T11:07:13Z</time>
      </trkpt>
      <trkpt lat="42.92499" lon="0.31586">
        <ele>1631.42011</ele>
        <time>2024-01-12T11:07:19Z</time>
      </trkpt>
      <trkpt lat="42.92499" lon="0.31584">
        <ele>1630.71958</ele>
        <time>2024-01-12T11:07:50Z</time>
      </trkpt>
      <trkpt lat="42.92499" lon="0.31583">
        <ele>1631.09432</ele>
        <time>2024-01-12T11:07:52Z</time>
      </trkpt>
      <trkpt lat="42.92498" lon="0.31581">
        <ele>1630.0539</ele>
        <time>2024-01-12T11:07:54Z</time>
      </trkpt>
      <trkpt lat="42.92498" lon="0.3158">
        <ele>1630.12709</ele>
        <time>2024-01-12T11:07:56Z</time>
      </trkpt>
      <trkpt lat="42.92497" lon="0.31579">
        <ele>1629.58341</ele>
        <time>2024-01-12T11:07:57Z</time>
      </trkpt>
      <trkpt lat="42.92497" lon="0.31578">
        <ele>1629.69442</ele>
        <time>2024-01-12T11:08:00Z</time>
      </trkpt>
      <trkpt lat="42.92497" lon="0.31576">
        <ele>1630.29692</ele>
        <time>2024-01-12T11:08:02Z</time>
      </trkpt>
      <trkpt lat="42.92496" lon="0.31574">
        <ele>1630.47449</ele>
        <time>2024-01-12T11:08:05Z</time>
      </trkpt>
      <trkpt lat="42.92496" lon="0.31573">
        <ele>1631.30979</ele>
        <time>2024-01-12T11:08:07Z</time>
      </trkpt>
      <trkpt lat="42.92496" lon="0.31572">
        <ele>1631.21868</ele>
        <time>2024-01-12T11:08:09Z</time>
      </trkpt>
      <trkpt lat="42.92495" lon="0.31571">
        <ele>1631.56078</ele>
        <time>2024-01-12T11:08:11Z</time>
      </trkpt>
      <trkpt lat="42.92494" lon="0.31569">
        <ele>1631.36526</ele>
        <time>2024-01-12T11:08:13Z</time>
      </trkpt>
      <trkpt lat="42.92493" lon="0.31568">
        <ele>1631.89411</ele>
        <time>2024-01-12T11:08:15Z</time>
      </trkpt>
      <trkpt lat="42.92492" lon="0.31568">
        <ele>1633.19003</ele>
        <time>2024-01-12T11:08:17Z</time>
      </trkpt>
      <trkpt lat="42.92491" lon="0.31567">
        <ele>1633.70721</ele>
        <time>2024-01-12T11:08:18Z</time>
      </trkpt>
      <trkpt lat="42.9249" lon="0.31567">
        <ele>1632.5353</ele>
        <time>2024-01-12T11:08:21Z</time>
      </trkpt>
      <trkpt lat="42.92489" lon="0.31566">
        <ele>1633.56727</ele>
        <time>2024-01-12T11:08:24Z</time>
      </trkpt>
      <trkpt lat="42.92488" lon="0.31564">
        <ele>1634.16763</ele>
        <time>2024-01-12T11:08:27Z</time>
      </trkpt>
      <trkpt lat="42.92488" lon="0.31563">
        <ele>1633.94064</ele>
        <time>2024-01-12T11:08:29Z</time>
      </trkpt>
      <trkpt lat="42.92487" lon="0.31562">
        <ele>1633.63653</ele>
        <time>2024-01-12T11:08:31Z</time>
      </trkpt>
      <trkpt lat="42.92487" lon="0.31561">
        <ele>1633.02909</ele>
        <time>2024-01-12T11:08:32Z</time>
      </trkpt>
      <trkpt lat="42.92486" lon="0.31559">
        <ele>1632.63056</ele>
        <time>2024-01-12T11:08:34Z</time>
      </trkpt>
      <trkpt lat="42.92486" lon="0.31557">
        <ele>1633.33772</ele>
        <time>2024-01-12T11:08:36Z</time>
      </trkpt>
      <trkpt lat="42.92486" lon="0.31556">
        <ele>1634.09938</ele>
        <time>2024-01-12T11:08:39Z</time>
      </trkpt>
      <trkpt lat="42.92485" lon="0.31555">
        <ele>1633.58114</ele>
        <time>2024-01-12T11:08:42Z</time>
      </trkpt>
      <trkpt lat="42.92484" lon="0.31554">
        <ele>1634.3844</ele>
        <time>2024-01-12T11:08:44Z</time>
      </trkpt>
      <trkpt lat="42.92484" lon="0.31552">
        <ele>1635.91138</ele>
        <time>2024-01-12T11:08:46Z</time>
      </trkpt>
      <trkpt lat="42.92483" lon="0.3155">
        <ele>1635.88128</ele>
        <time>2024-01-12T11:08:49Z</time>
      </trkpt>
      <trkpt lat="42.92482" lon="0.3155">
        <ele>1635.70576</ele>
        <time>2024-01-12T11:08:51Z</time>
      </trkpt>
      <trkpt lat="42.92481" lon="0.31548">
        <ele>1636.17092</ele>
        <time>2024-01-12T11:08:53Z</time>
      </trkpt>
      <trkpt lat="42.92481" lon="0.31547">
        <ele>1636.37322</ele>
        <time>2024-01-12T11:08:56Z</time>
      </trkpt>
      <trkpt lat="42.9248" lon="0.31546">
        <ele>1636.4556</ele>
        <time>2024-01-12T11:08:58Z</time>
      </trkpt>
      <trkpt lat="42.92479" lon="0.31545">
        <ele>1635.80814</ele>
        <time>2024-01-12T11:09:01Z</time>
      </trkpt>
      <trkpt lat="42.92478" lon="0.31544">
        <ele>1636.08035</ele>
        <time>2024-01-12T11:09:03Z</time>
      </trkpt>
      <trkpt lat="42.92477" lon="0.31544">
        <ele>1635.37353</ele>
        <time>2024-01-12T11:09:05Z</time>
      </trkpt>
      <trkpt lat="42.92476" lon="0.31543">
        <ele>1638.06443</ele>
        <time>2024-01-12T11:09:07Z</time>
      </trkpt>
      <trkpt lat="42.92474" lon="0.31542">
        <ele>1638.24013</ele>
        <time>2024-01-12T11:09:10Z</time>
      </trkpt>
      <trkpt lat="42.92473" lon="0.31542">
        <ele>1637.74323</ele>
        <time>2024-01-12T11:09:11Z</time>
      </trkpt>
      <trkpt lat="42.92472" lon="0.31542">
        <ele>1638.22059</ele>
        <time>2024-01-12T11:09:13Z</time>
      </trkpt>
      <trkpt lat="42.92471" lon="0.31542">
        <ele>1637.88566</ele>
        <time>2024-01-12T11:09:15Z</time>
      </trkpt>
      <trkpt lat="42.9247" lon="0.31541">
        <ele>1638.18689</ele>
        <time>2024-01-12T11:09:16Z</time>
      </trkpt>
      <trkpt lat="42.92468" lon="0.31539">
        <ele>1639.46684</ele>
        <time>2024-01-12T11:09:18Z</time>
      </trkpt>
      <trkpt lat="42.92467" lon="0.31536">
        <ele>1639.45297</ele>
        <time>2024-01-12T11:09:20Z</time>
      </trkpt>
      <trkpt lat="42.92466" lon="0.31536">
        <ele>1638.79349</ele>
        <time>2024-01-12T11:09:23Z</time>
      </trkpt>
      <trkpt lat="42.92465" lon="0.31534">
        <ele>1639.16091</ele>
        <time>2024-01-12T11:09:24Z</time>
      </trkpt>
      <trkpt lat="42.92463" lon="0.31533">
        <ele>1638.76753</ele>
        <time>2024-01-12T11:09:25Z</time>
      </trkpt>
      <trkpt lat="42.92463" lon="0.31532">
        <ele>1638.36841</ele>
        <time>2024-01-12T11:09:27Z</time>
      </trkpt>
      <trkpt lat="42.92461" lon="0.31531">
        <ele>1639.22547</ele>
        <time>2024-01-12T11:09:29Z</time>
      </trkpt>
      <trkpt lat="42.9246" lon="0.31529">
        <ele>1639.74053</ele>
        <time>2024-01-12T11:09:31Z</time>
      </trkpt>
      <trkpt lat="42.92459" lon="0.31528">
        <ele>1639.09884</ele>
        <time>2024-01-12T11:09:32Z</time>
      </trkpt>
      <trkpt lat="42.92459" lon="0.31527">
        <ele>1639.22089</ele>
        <time>2024-01-12T11:09:33Z</time>
      </trkpt>
      <trkpt lat="42.92457" lon="0.31526">
        <ele>1639.32734</ele>
        <time>2024-01-12T11:09:35Z</time>
      </trkpt>
      <trkpt lat="42.92455" lon="0.31525">
        <ele>1639.67362</ele>
        <time>2024-01-12T11:09:37Z</time>
      </trkpt>
      <trkpt lat="42.92454" lon="0.31523">
        <ele>1640.10494</ele>
        <time>2024-01-12T11:09:40Z</time>
      </trkpt>
      <trkpt lat="42.92454" lon="0.31523">
        <ele>1640.25233</ele>
        <time>2024-01-12T11:09:41Z</time>
      </trkpt>
      <trkpt lat="42.92452" lon="0.31522">
        <ele>1638.77667</ele>
        <time>2024-01-12T11:09:43Z</time>
      </trkpt>
      <trkpt lat="42.92451" lon="0.31521">
        <ele>1639.66229</ele>
        <time>2024-01-12T11:09:45Z</time>
      </trkpt>
      <trkpt lat="42.9245" lon="0.3152">
        <ele>1639.38604</ele>
        <time>2024-01-12T11:09:46Z</time>
      </trkpt>
      <trkpt lat="42.92449" lon="0.3152">
        <ele>1638.70043</ele>
        <time>2024-01-12T11:09:47Z</time>
      </trkpt>
      <trkpt lat="42.92448" lon="0.31519">
        <ele>1639.82562</ele>
        <time>2024-01-12T11:09:50Z</time>
      </trkpt>
      <trkpt lat="42.92447" lon="0.31518">
        <ele>1640.32305</ele>
        <time>2024-01-12T11:09:52Z</time>
      </trkpt>
      <trkpt lat="42.92446" lon="0.31517">
        <ele>1640.67827</ele>
        <time>2024-01-12T11:09:54Z</time>
      </trkpt>
      <trkpt lat="42.92445" lon="0.31516">
        <ele>1641.22575</ele>
        <time>2024-01-12T11:09:56Z</time>
      </trkpt>
      <trkpt lat="42.92444" lon="0.31515">
        <ele>1641.87758</ele>
        <time>2024-01-12T11:10:00Z</time>
      </trkpt>
      <trkpt lat="42.92442" lon="0.31515">
        <ele>1641.96742</ele>
        <time>2024-01-12T11:10:02Z</time>
      </trkpt>
      <trkpt lat="42.92441" lon="0.31515">
        <ele>1640.91268</ele>
        <time>2024-01-12T11:10:05Z</time>
      </trkpt>
      <trkpt lat="42.9244" lon="0.31514">
        <ele>1641.43193</ele>
        <time>2024-01-12T11:10:08Z</time>
      </trkpt>
      <trkpt lat="42.92439" lon="0.31513">
        <ele>1640.49468</ele>
        <time>2024-01-12T11:10:10Z</time>
      </trkpt>
      <trkpt lat="42.92437" lon="0.31513">
        <ele>1640.83026</ele>
        <time>2024-01-12T11:10:12Z</time>
      </trkpt>
      <trkpt lat="42.92437" lon="0.31512">
        <ele>1640.58608</ele>
        <time>2024-01-12T11:10:14Z</time>
      </trkpt>
      <trkpt lat="42.92435" lon="0.31511">
        <ele>1640.93218</ele>
        <time>2024-01-12T11:10:17Z</time>
      </trkpt>
      <trkpt lat="42.92434" lon="0.3151">
        <ele>1640.54069</ele>
        <time>2024-01-12T11:10:18Z</time>
      </trkpt>
      <trkpt lat="42.92434" lon="0.31509">
        <ele>1640.93352</ele>
        <time>2024-01-12T11:10:21Z</time>
      </trkpt>
      <trkpt lat="42.92432" lon="0.31508">
        <ele>1640.37179</ele>
        <time>2024-01-12T11:10:24Z</time>
      </trkpt>
      <trkpt lat="42.92432" lon="0.31507">
        <ele>1640.595</ele>
        <time>2024-01-12T11:10:25Z</time>
      </trkpt>
      <trkpt lat="42.92431" lon="0.31506">
        <ele>1641.1015</ele>
        <time>2024-01-12T11:10:29Z</time>
      </trkpt>
      <trkpt lat="42.92429" lon="0.31505">
        <ele>1640.12566</ele>
        <time>2024-01-12T11:10:31Z</time>
      </trkpt>
      <trkpt lat="42.92429" lon="0.31504">
        <ele>1641.30407</ele>
        <time>2024-01-12T11:10:33Z</time>
      </trkpt>
      <trkpt lat="42.92428" lon="0.31503">
        <ele>1641.45728</ele>
        <time>2024-01-12T11:10:35Z</time>
      </trkpt>
      <trkpt lat="42.92427" lon="0.31504">
        <ele>1641.64417</ele>
        <time>2024-01-12T11:10:38Z</time>
      </trkpt>
      <trkpt lat="42.92426" lon="0.31504">
        <ele>1641.38007</ele>
        <time>2024-01-12T11:10:39Z</time>
      </trkpt>
      <trkpt lat="42.92425" lon="0.31502">
        <ele>1641.58424</ele>
        <time>2024-01-12T11:10:43Z</time>
      </trkpt>
      <trkpt lat="42.92424" lon="0.31502">
        <ele>1641.54177</ele>
        <time>2024-01-12T11:10:46Z</time>
      </trkpt>
      <trkpt lat="42.92423" lon="0.315">
        <ele>1642.25135</ele>
        <time>2024-01-12T11:10:48Z</time>
      </trkpt>
      <trkpt lat="42.92421" lon="0.315">
        <ele>1642.61057</ele>
        <time>2024-01-12T11:10:52Z</time>
      </trkpt>
      <trkpt lat="42.92421" lon="0.31499">
        <ele>1643.38688</ele>
        <time>2024-01-12T11:10:54Z</time>
      </trkpt>
      <trkpt lat="42.9242" lon="0.31499">
        <ele>1644.76335</ele>
        <time>2024-01-12T11:10:57Z</time>
      </trkpt>
      <trkpt lat="42.92419" lon="0.31499">
        <ele>1645.39381</ele>
        <time>2024-01-12T11:10:59Z</time>
      </trkpt>
      <trkpt lat="42.92418" lon="0.315">
        <ele>1645.45313</ele>
        <time>2024-01-12T11:11:01Z</time>
      </trkpt>
      <trkpt lat="42.92417" lon="0.315">
        <ele>1645.22402</ele>
        <time>2024-01-12T11:11:03Z</time>
      </trkpt>
      <trkpt lat="42.92416" lon="0.315">
        <ele>1646.03246</ele>
        <time>2024-01-12T11:11:06Z</time>
      </trkpt>
      <trkpt lat="42.92415" lon="0.315">
        <ele>1647.66846</ele>
        <time>2024-01-12T11:11:09Z</time>
      </trkpt>
      <trkpt lat="42.92414" lon="0.31499">
        <ele>1646.82112</ele>
        <time>2024-01-12T11:11:12Z</time>
      </trkpt>
      <trkpt lat="42.92414" lon="0.31498">
        <ele>1646.73264</ele>
        <time>2024-01-12T11:11:15Z</time>
      </trkpt>
      <trkpt lat="42.92413" lon="0.31498">
        <ele>1646.95486</ele>
        <time>2024-01-12T11:11:16Z</time>
      </trkpt>
      <trkpt lat="42.92412" lon="0.31496">
        <ele>1648.43136</ele>
        <time>2024-01-12T11:11:18Z</time>
      </trkpt>
      <trkpt lat="42.92411" lon="0.31496">
        <ele>1648.36321</ele>
        <time>2024-01-12T11:11:20Z</time>
      </trkpt>
      <trkpt lat="42.9241" lon="0.31497">
        <ele>1649.01151</ele>
        <time>2024-01-12T11:11:22Z</time>
      </trkpt>
      <trkpt lat="42.92409" lon="0.31498">
        <ele>1648.34741</ele>
        <time>2024-01-12T11:11:23Z</time>
      </trkpt>
      <trkpt lat="42.92408" lon="0.31498">
        <ele>1647.6645</ele>
        <time>2024-01-12T11:11:26Z</time>
      </trkpt>
      <trkpt lat="42.92407" lon="0.31499">
        <ele>1648.66784</ele>
        <time>2024-01-12T11:11:30Z</time>
      </trkpt>
      <trkpt lat="42.92406" lon="0.31498">
        <ele>1648.57456</ele>
        <time>2024-01-12T11:11:34Z</time>
      </trkpt>
      <trkpt lat="42.92406" lon="0.31497">
        <ele>1649.00176</ele>
        <time>2024-01-12T11:11:37Z</time>
      </trkpt>
      <trkpt lat="42.92405" lon="0.31496">
        <ele>1649.49085</ele>
        <time>2024-01-12T11:11:38Z</time>
      </trkpt>
      <trkpt lat="42.92405" lon="0.31495">
        <ele>1649.91115</ele>
        <time>2024-01-12T11:11:39Z</time>
      </trkpt>
      <trkpt lat="42.92405" lon="0.31493">
        <ele>1649.29033</ele>
        <time>2024-01-12T11:11:42Z</time>
      </trkpt>
      <trkpt lat="42.92403" lon="0.31493">
        <ele>1650.89714</ele>
        <time>2024-01-12T11:11:47Z</time>
      </trkpt>
      <trkpt lat="42.92402" lon="0.31492">
        <ele>1650.26836</ele>
        <time>2024-01-12T11:11:49Z</time>
      </trkpt>
      <trkpt lat="42.92402" lon="0.31491">
        <ele>1650.18635</ele>
        <time>2024-01-12T11:11:52Z</time>
      </trkpt>
      <trkpt lat="42.92402" lon="0.31489">
        <ele>1651.54712</ele>
        <time>2024-01-12T11:11:54Z</time>
      </trkpt>
      <trkpt lat="42.92401" lon="0.31488">
        <ele>1652.20717</ele>
        <time>2024-01-12T11:11:56Z</time>
      </trkpt>
      <trkpt lat="42.924" lon="0.31489">
        <ele>1652.24452</ele>
        <time>2024-01-12T11:11:58Z</time>
      </trkpt>
      <trkpt lat="42.92399" lon="0.3149">
        <ele>1653.25836</ele>
        <time>2024-01-12T11:12:01Z</time>
      </trkpt>
      <trkpt lat="42.92398" lon="0.31491">
        <ele>1652.29917</ele>
        <time>2024-01-12T11:12:04Z</time>
      </trkpt>
      <trkpt lat="42.92397" lon="0.31491">
        <ele>1651.40404</ele>
        <time>2024-01-12T11:12:06Z</time>
      </trkpt>
      <trkpt lat="42.92396" lon="0.31492">
        <ele>1651.3492</ele>
        <time>2024-01-12T11:12:08Z</time>
      </trkpt>
      <trkpt lat="42.92396" lon="0.31493">
        <ele>1652.77403</ele>
        <time>2024-01-12T11:12:12Z</time>
      </trkpt>
      <trkpt lat="42.92394" lon="0.31494">
        <ele>1651.90001</ele>
        <time>2024-01-12T11:12:15Z</time>
      </trkpt>
      <trkpt lat="42.92393" lon="0.31494">
        <ele>1653.34891</ele>
        <time>2024-01-12T11:12:20Z</time>
      </trkpt>
      <trkpt lat="42.92392" lon="0.31494">
        <ele>1656.60531</ele>
        <time>2024-01-12T11:12:26Z</time>
      </trkpt>
      <trkpt lat="42.92391" lon="0.31493">
        <ele>1656.91219</ele>
        <time>2024-01-12T11:12:28Z</time>
      </trkpt>
      <trkpt lat="42.9239" lon="0.31493">
        <ele>1657.16067</ele>
        <time>2024-01-12T11:12:31Z</time>
      </trkpt>
      <trkpt lat="42.92389" lon="0.31493">
        <ele>1656.48784</ele>
        <time>2024-01-12T11:12:34Z</time>
      </trkpt>
      <trkpt lat="42.92388" lon="0.31492">
        <ele>1658.19543</ele>
        <time>2024-01-12T11:12:39Z</time>
      </trkpt>
      <trkpt lat="42.92387" lon="0.31491">
        <ele>1659.55201</ele>
        <time>2024-01-12T11:12:42Z</time>
      </trkpt>
      <trkpt lat="42.92386" lon="0.3149">
        <ele>1660.78038</ele>
        <time>2024-01-12T11:12:46Z</time>
      </trkpt>
      <trkpt lat="42.92385" lon="0.3149">
        <ele>1660.90508</ele>
        <time>2024-01-12T11:12:47Z</time>
      </trkpt>
      <trkpt lat="42.92383" lon="0.3149">
        <ele>1658.52079</ele>
        <time>2024-01-12T11:12:49Z</time>
      </trkpt>
      <trkpt lat="42.92383" lon="0.31489">
        <ele>1658.55789</ele>
        <time>2024-01-12T11:12:52Z</time>
      </trkpt>
      <trkpt lat="42.92382" lon="0.31488">
        <ele>1658.4203</ele>
        <time>2024-01-12T11:12:54Z</time>
      </trkpt>
      <trkpt lat="42.92381" lon="0.31487">
        <ele>1658.33876</ele>
        <time>2024-01-12T11:12:58Z</time>
      </trkpt>
      <trkpt lat="42.9238" lon="0.31487">
        <ele>1659.44266</ele>
        <time>2024-01-12T11:13:01Z</time>
      </trkpt>
      <trkpt lat="42.92379" lon="0.31487">
        <ele>1660.24504</ele>
        <time>2024-01-12T11:13:04Z</time>
      </trkpt>
      <trkpt lat="42.92378" lon="0.31486">
        <ele>1660.27994</ele>
        <time>2024-01-12T11:13:06Z</time>
      </trkpt>
      <trkpt lat="42.92377" lon="0.31487">
        <ele>1660.07102</ele>
        <time>2024-01-12T11:13:09Z</time>
      </trkpt>
      <trkpt lat="42.92376" lon="0.31488">
        <ele>1656.73891</ele>
        <time>2024-01-12T11:13:19Z</time>
      </trkpt>
      <trkpt lat="42.92376" lon="0.31489">
        <ele>1657.80619</ele>
        <time>2024-01-12T11:13:23Z</time>
      </trkpt>
      <trkpt lat="42.92375" lon="0.31491">
        <ele>1657.54244</ele>
        <time>2024-01-12T11:13:27Z</time>
      </trkpt>
      <trkpt lat="42.92374" lon="0.31491">
        <ele>1658.88335</ele>
        <time>2024-01-12T11:13:33Z</time>
      </trkpt>
      <trkpt lat="42.92372" lon="0.31491">
        <ele>1659.68216</ele>
        <time>2024-01-12T11:13:36Z</time>
      </trkpt>
      <trkpt lat="42.92372" lon="0.31491">
        <ele>1659.70053</ele>
        <time>2024-01-12T11:13:38Z</time>
      </trkpt>
      <trkpt lat="42.92371" lon="0.31492">
        <ele>1660.99728</ele>
        <time>2024-01-12T11:13:41Z</time>
      </trkpt>
      <trkpt lat="42.92371" lon="0.31493">
        <ele>1661.12834</ele>
        <time>2024-01-12T11:13:45Z</time>
      </trkpt>
      <trkpt lat="42.92369" lon="0.31493">
        <ele>1662.26366</ele>
        <time>2024-01-12T11:13:50Z</time>
      </trkpt>
      <trkpt lat="42.92368" lon="0.31494">
        <ele>1663.32386</ele>
        <time>2024-01-12T11:13:54Z</time>
      </trkpt>
      <trkpt lat="42.92366" lon="0.31494">
        <ele>1663.83984</ele>
        <time>2024-01-12T11:13:57Z</time>
      </trkpt>
      <trkpt lat="42.92366" lon="0.31495">
        <ele>1665.27796</ele>
        <time>2024-01-12T11:14:02Z</time>
      </trkpt>
      <trkpt lat="42.92365" lon="0.31496">
        <ele>1665.13395</ele>
        <time>2024-01-12T11:14:04Z</time>
      </trkpt>
      <trkpt lat="42.92364" lon="0.31496">
        <ele>1665.38501</ele>
        <time>2024-01-12T11:14:06Z</time>
      </trkpt>
      <trkpt lat="42.92363" lon="0.31496">
        <ele>1665.4078</ele>
        <time>2024-01-12T11:14:10Z</time>
      </trkpt>
      <trkpt lat="42.92362" lon="0.31497">
        <ele>1664.96845</ele>
        <time>2024-01-12T11:14:14Z</time>
      </trkpt>
      <trkpt lat="42.92361" lon="0.31497">
        <ele>1664.84454</ele>
        <time>2024-01-12T11:14:17Z</time>
      </trkpt>
      <trkpt lat="42.9236" lon="0.31498">
        <ele>1666.11161</ele>
        <time>2024-01-12T11:14:20Z</time>
      </trkpt>
      <trkpt lat="42.92359" lon="0.31498">
        <ele>1666.3653</ele>
        <time>2024-01-12T11:14:24Z</time>
      </trkpt>
      <trkpt lat="42.92358" lon="0.31498">
        <ele>1666.63005</ele>
        <time>2024-01-12T11:14:27Z</time>
      </trkpt>
      <trkpt lat="42.92357" lon="0.31499">
        <ele>1666.02898</ele>
        <time>2024-01-12T11:14:31Z</time>
      </trkpt>
      <trkpt lat="42.92356" lon="0.31499">
        <ele>1667.51763</ele>
        <time>2024-01-12T11:14:34Z</time>
      </trkpt>
      <trkpt lat="42.92356" lon="0.315">
        <ele>1668.77114</ele>
        <time>2024-01-12T11:14:38Z</time>
      </trkpt>
      <trkpt lat="42.92355" lon="0.31501">
        <ele>1668.32206</ele>
        <time>2024-01-12T11:14:42Z</time>
      </trkpt>
      <trkpt lat="42.92354" lon="0.315">
        <ele>1668.78749</ele>
        <time>2024-01-12T11:14:46Z</time>
      </trkpt>
      <trkpt lat="42.92353" lon="0.31499">
        <ele>1669.06861</ele>
        <time>2024-01-12T11:14:51Z</time>
      </trkpt>
      <trkpt lat="42.92353" lon="0.31497">
        <ele>1669.27889</ele>
        <time>2024-01-12T11:14:53Z</time>
      </trkpt>
      <trkpt lat="42.92352" lon="0.31496">
        <ele>1669.46579</ele>
        <time>2024-01-12T11:14:55Z</time>
      </trkpt>
      <trkpt lat="42.92352" lon="0.31495">
        <ele>1670.17058</ele>
        <time>2024-01-12T11:14:58Z</time>
      </trkpt>
      <trkpt lat="42.92351" lon="0.31495">
        <ele>1669.16601</ele>
        <time>2024-01-12T11:15:00Z</time>
      </trkpt>
      <trkpt lat="42.9235" lon="0.31495">
        <ele>1671.47026</ele>
        <time>2024-01-12T11:15:03Z</time>
      </trkpt>
      <trkpt lat="42.92349" lon="0.31496">
        <ele>1671.86111</ele>
        <time>2024-01-12T11:15:08Z</time>
      </trkpt>
      <trkpt lat="42.92347" lon="0.31495">
        <ele>1671.91743</ele>
        <time>2024-01-12T11:15:11Z</time>
      </trkpt>
      <trkpt lat="42.92346" lon="0.31495">
        <ele>1671.63968</ele>
        <time>2024-01-12T11:15:17Z</time>
      </trkpt>
      <trkpt lat="42.92345" lon="0.31494">
        <ele>1670.15119</ele>
        <time>2024-01-12T11:15:19Z</time>
      </trkpt>
      <trkpt lat="42.92344" lon="0.31494">
        <ele>1670.9722</ele>
        <time>2024-01-12T11:15:22Z</time>
      </trkpt>
      <trkpt lat="42.92343" lon="0.31493">
        <ele>1671.8917</ele>
        <time>2024-01-12T11:15:24Z</time>
      </trkpt>
      <trkpt lat="42.92342" lon="0.31492">
        <ele>1672.34188</ele>
        <time>2024-01-12T11:15:28Z</time>
      </trkpt>
      <trkpt lat="42.92342" lon="0.31491">
        <ele>1672.92993</ele>
        <time>2024-01-12T11:15:30Z</time>
      </trkpt>
      <trkpt lat="42.92341" lon="0.3149">
        <ele>1673.27808</ele>
        <time>2024-01-12T11:15:32Z</time>
      </trkpt>
      <trkpt lat="42.92341" lon="0.31488">
        <ele>1674.35063</ele>
        <time>2024-01-12T11:15:34Z</time>
      </trkpt>
      <trkpt lat="42.9234" lon="0.31487">
        <ele>1675.96295</ele>
        <time>2024-01-12T11:15:36Z</time>
      </trkpt>
      <trkpt lat="42.92339" lon="0.31487">
        <ele>1675.84061</ele>
        <time>2024-01-12T11:15:39Z</time>
      </trkpt>
      <trkpt lat="42.92338" lon="0.31488">
        <ele>1677.37997</ele>
        <time>2024-01-12T11:15:43Z</time>
      </trkpt>
      <trkpt lat="42.92337" lon="0.31488">
        <ele>1676.60524</ele>
        <time>2024-01-12T11:15:47Z</time>
      </trkpt>
      <trkpt lat="42.92336" lon="0.31487">
        <ele>1677.49773</ele>
        <time>2024-01-12T11:15:49Z</time>
      </trkpt>
      <trkpt lat="42.92335" lon="0.31488">
        <ele>1676.98442</ele>
        <time>2024-01-12T11:15:53Z</time>
      </trkpt>
      <trkpt lat="42.92334" lon="0.31487">
        <ele>1676.87871</ele>
        <time>2024-01-12T11:15:56Z</time>
      </trkpt>
      <trkpt lat="42.92333" lon="0.31486">
        <ele>1677.97164</ele>
        <time>2024-01-12T11:15:59Z</time>
      </trkpt>
      <trkpt lat="42.92332" lon="0.31486">
        <ele>1678.21835</ele>
        <time>2024-01-12T11:16:04Z</time>
      </trkpt>
      <trkpt lat="42.9233" lon="0.31485">
        <ele>1677.6824</ele>
        <time>2024-01-12T11:16:08Z</time>
      </trkpt>
      <trkpt lat="42.92329" lon="0.31485">
        <ele>1681.31536</ele>
        <time>2024-01-12T11:16:11Z</time>
      </trkpt>
      <trkpt lat="42.92327" lon="0.31486">
        <ele>1681.41878</ele>
        <time>2024-01-12T11:16:14Z</time>
      </trkpt>
      <trkpt lat="42.92327" lon="0.31487">
        <ele>1681.09247</ele>
        <time>2024-01-12T11:16:18Z</time>
      </trkpt>
      <trkpt lat="42.92326" lon="0.31488">
        <ele>1681.28159</ele>
        <time>2024-01-12T11:16:19Z</time>
      </trkpt>
      <trkpt lat="42.92327" lon="0.31489">
        <ele>1680.11455</ele>
        <time>2024-01-12T11:16:22Z</time>
      </trkpt>
      <trkpt lat="42.92326" lon="0.3149">
        <ele>1680.26583</ele>
        <time>2024-01-12T11:16:24Z</time>
      </trkpt>
      <trkpt lat="42.92326" lon="0.31492">
        <ele>1679.82214</ele>
        <time>2024-01-12T11:16:28Z</time>
      </trkpt>
      <trkpt lat="42.92325" lon="0.31493">
        <ele>1680.41089</ele>
        <time>2024-01-12T11:16:29Z</time>
      </trkpt>
      <trkpt lat="42.92324" lon="0.31493">
        <ele>1680.31259</ele>
        <time>2024-01-12T11:16:33Z</time>
      </trkpt>
      <trkpt lat="42.92323" lon="0.31493">
        <ele>1683.14818</ele>
        <time>2024-01-12T11:16:39Z</time>
      </trkpt>
      <trkpt lat="42.92322" lon="0.31493">
        <ele>1682.5359</ele>
        <time>2024-01-12T11:16:41Z</time>
      </trkpt>
      <trkpt lat="42.92321" lon="0.31492">
        <ele>1682.63461</ele>
        <time>2024-01-12T11:16:43Z</time>
      </trkpt>
      <trkpt lat="42.9232" lon="0.31491">
        <ele>1682.35547</ele>
        <time>2024-01-12T11:16:46Z</time>
      </trkpt>
      <trkpt lat="42.92319" lon="0.3149">
        <ele>1683.28968</ele>
        <time>2024-01-12T11:16:48Z</time>
      </trkpt>
      <trkpt lat="42.92318" lon="0.3149">
        <ele>1684.2563</ele>
        <time>2024-01-12T11:16:51Z</time>
      </trkpt>
      <trkpt lat="42.92316" lon="0.3149">
        <ele>1684.061</ele>
        <time>2024-01-12T11:16:56Z</time>
      </trkpt>
      <trkpt lat="42.92315" lon="0.3149">
        <ele>1684.03976</ele>
        <time>2024-01-12T11:16:58Z</time>
      </trkpt>
      <trkpt lat="42.92314" lon="0.31489">
        <ele>1680.86709</ele>
        <time>2024-01-12T11:16:59Z</time>
      </trkpt>
      <trkpt lat="42.92313" lon="0.3149">
        <ele>1683.50289</ele>
        <time>2024-01-12T11:17:05Z</time>
      </trkpt>
      <trkpt lat="42.92312" lon="0.31489">
        <ele>1684.76302</ele>
        <time>2024-01-12T11:17:09Z</time>
      </trkpt>
      <trkpt lat="42.92311" lon="0.31489">
        <ele>1684.58093</ele>
        <time>2024-01-12T11:17:12Z</time>
      </trkpt>
      <trkpt lat="42.92309" lon="0.3149">
        <ele>1686.30964</ele>
        <time>2024-01-12T11:17:15Z</time>
      </trkpt>
      <trkpt lat="42.92308" lon="0.31491">
        <ele>1686.42607</ele>
        <time>2024-01-12T11:17:20Z</time>
      </trkpt>
      <trkpt lat="42.92307" lon="0.3149">
        <ele>1686.01724</ele>
        <time>2024-01-12T11:17:23Z</time>
      </trkpt>
      <trkpt lat="42.92305" lon="0.3149">
        <ele>1687.83567</ele>
        <time>2024-01-12T11:17:29Z</time>
      </trkpt>
      <trkpt lat="42.92304" lon="0.3149">
        <ele>1687.45042</ele>
        <time>2024-01-12T11:17:32Z</time>
      </trkpt>
      <trkpt lat="42.92303" lon="0.31489">
        <ele>1687.16568</ele>
        <time>2024-01-12T11:17:34Z</time>
      </trkpt>
      <trkpt lat="42.92302" lon="0.31488">
        <ele>1687.27926</ele>
        <time>2024-01-12T11:17:36Z</time>
      </trkpt>
      <trkpt lat="42.92301" lon="0.31487">
        <ele>1687.29197</ele>
        <time>2024-01-12T11:17:39Z</time>
      </trkpt>
      <trkpt lat="42.92299" lon="0.31488">
        <ele>1687.88165</ele>
        <time>2024-01-12T11:17:42Z</time>
      </trkpt>
      <trkpt lat="42.92299" lon="0.31486">
        <ele>1689.58482</ele>
        <time>2024-01-12T11:17:45Z</time>
      </trkpt>
      <trkpt lat="42.92298" lon="0.31485">
        <ele>1688.67375</ele>
        <time>2024-01-12T11:17:48Z</time>
      </trkpt>
      <trkpt lat="42.92297" lon="0.31485">
        <ele>1688.86119</ele>
        <time>2024-01-12T11:17:49Z</time>
      </trkpt>
      <trkpt lat="42.92296" lon="0.31484">
        <ele>1688.32426</ele>
        <time>2024-01-12T11:17:51Z</time>
      </trkpt>
      <trkpt lat="42.92295" lon="0.31484">
        <ele>1689.65467</ele>
        <time>2024-01-12T11:17:54Z</time>
      </trkpt>
      <trkpt lat="42.92294" lon="0.31484">
        <ele>1689.24126</ele>
        <time>2024-01-12T11:17:55Z</time>
      </trkpt>
      <trkpt lat="42.92293" lon="0.31484">
        <ele>1690.20712</ele>
        <time>2024-01-12T11:18:02Z</time>
      </trkpt>
      <trkpt lat="42.92292" lon="0.31483">
        <ele>1689.51109</ele>
        <time>2024-01-12T11:18:05Z</time>
      </trkpt>
      <trkpt lat="42.92291" lon="0.31482">
        <ele>1689.54715</ele>
        <time>2024-01-12T11:18:07Z</time>
      </trkpt>
      <trkpt lat="42.9229" lon="0.31481">
        <ele>1689.51917</ele>
        <time>2024-01-12T11:18:09Z</time>
      </trkpt>
      <trkpt lat="42.92289" lon="0.3148">
        <ele>1689.88877</ele>
        <time>2024-01-12T11:18:12Z</time>
      </trkpt>
      <trkpt lat="42.92288" lon="0.31478">
        <ele>1691.09085</ele>
        <time>2024-01-12T11:18:15Z</time>
      </trkpt>
      <trkpt lat="42.92287" lon="0.31477">
        <ele>1690.91806</ele>
        <time>2024-01-12T11:18:19Z</time>
      </trkpt>
      <trkpt lat="42.92286" lon="0.31476">
        <ele>1690.77927</ele>
        <time>2024-01-12T11:18:22Z</time>
      </trkpt>
      <trkpt lat="42.92285" lon="0.31477">
        <ele>1691.35943</ele>
        <time>2024-01-12T11:18:25Z</time>
      </trkpt>
      <trkpt lat="42.92285" lon="0.31478">
        <ele>1691.6631</ele>
        <time>2024-01-12T11:18:28Z</time>
      </trkpt>
      <trkpt lat="42.92284" lon="0.3148">
        <ele>1691.57923</ele>
        <time>2024-01-12T11:18:31Z</time>
      </trkpt>
      <trkpt lat="42.92283" lon="0.3148">
        <ele>1691.31888</ele>
        <time>2024-01-12T11:18:35Z</time>
      </trkpt>
      <trkpt lat="42.92283" lon="0.31481">
        <ele>1692.3467</ele>
        <time>2024-01-12T11:18:40Z</time>
      </trkpt>
      <trkpt lat="42.92283" lon="0.31483">
        <ele>1692.53032</ele>
        <time>2024-01-12T11:18:45Z</time>
      </trkpt>
      <trkpt lat="42.92283" lon="0.31484">
        <ele>1691.42633</ele>
        <time>2024-01-12T11:18:48Z</time>
      </trkpt>
      <trkpt lat="42.92283" lon="0.31485">
        <ele>1692.71091</ele>
        <time>2024-01-12T11:18:53Z</time>
      </trkpt>
      <trkpt lat="42.92282" lon="0.31485">
        <ele>1693.69498</ele>
        <time>2024-01-12T11:19:18Z</time>
      </trkpt>
      <trkpt lat="42.92282" lon="0.31483">
        <ele>1692.95742</ele>
        <time>2024-01-12T11:19:46Z</time>
      </trkpt>
      <trkpt lat="42.92282" lon="0.31484">
        <ele>1692.83354</ele>
        <time>2024-01-12T11:20:20Z</time>
      </trkpt>
      <trkpt lat="42.92281" lon="0.31484">
        <ele>1694.52188</ele>
        <time>2024-01-12T11:20:33Z</time>
      </trkpt>
      <trkpt lat="42.92282" lon="0.31484">
        <ele>1695.13958</ele>
        <time>2024-01-12T11:20:39Z</time>
      </trkpt>
      <trkpt lat="42.92282" lon="0.31485">
        <ele>1692.03318</ele>
        <time>2024-01-12T11:21:00Z</time>
      </trkpt>
      <trkpt lat="42.92282" lon="0.31484">
        <ele>1693.19861</ele>
        <time>2024-01-12T11:21:38Z</time>
      </trkpt>
      <trkpt lat="42.92281" lon="0.31483">
        <ele>1693.54479</ele>
        <time>2024-01-12T11:21:52Z</time>
      </trkpt>
      <trkpt lat="42.9228" lon="0.31482">
        <ele>1693.70158</ele>
        <time>2024-01-12T11:21:54Z</time>
      </trkpt>
      <trkpt lat="42.92278" lon="0.31481">
        <ele>1696.75132</ele>
        <time>2024-01-12T11:21:58Z</time>
      </trkpt>
      <trkpt lat="42.92277" lon="0.3148">
        <ele>1697.38649</ele>
        <time>2024-01-12T11:22:00Z</time>
      </trkpt>
      <trkpt lat="42.92275" lon="0.31479">
        <ele>1697.03156</ele>
        <time>2024-01-12T11:22:02Z</time>
      </trkpt>
      <trkpt lat="42.92274" lon="0.31479">
        <ele>1696.92711</ele>
        <time>2024-01-12T11:22:04Z</time>
      </trkpt>
      <trkpt lat="42.92273" lon="0.31478">
        <ele>1696.99955</ele>
        <time>2024-01-12T11:22:05Z</time>
      </trkpt>
      <trkpt lat="42.92273" lon="0.31477">
        <ele>1696.66094</ele>
        <time>2024-01-12T11:22:06Z</time>
      </trkpt>
      <trkpt lat="42.92272" lon="0.31476">
        <ele>1696.90157</ele>
        <time>2024-01-12T11:22:07Z</time>
      </trkpt>
      <trkpt lat="42.92271" lon="0.31475">
        <ele>1697.03892</ele>
        <time>2024-01-12T11:22:08Z</time>
      </trkpt>
      <trkpt lat="42.9227" lon="0.31475">
        <ele>1697.51304</ele>
        <time>2024-01-12T11:22:10Z</time>
      </trkpt>
      <trkpt lat="42.92269" lon="0.31474">
        <ele>1697.11957</ele>
        <time>2024-01-12T11:22:14Z</time>
      </trkpt>
      <trkpt lat="42.92268" lon="0.31473">
        <ele>1697.87643</ele>
        <time>2024-01-12T11:22:15Z</time>
      </trkpt>
      <trkpt lat="42.92267" lon="0.31472">
        <ele>1697.46569</ele>
        <time>2024-01-12T11:22:17Z</time>
      </trkpt>
      <trkpt lat="42.92267" lon="0.3147">
        <ele>1696.16966</ele>
        <time>2024-01-12T11:22:19Z</time>
      </trkpt>
      <trkpt lat="42.92266" lon="0.31469">
        <ele>1695.9046</ele>
        <time>2024-01-12T11:22:21Z</time>
      </trkpt>
      <trkpt lat="42.92264" lon="0.31467">
        <ele>1696.92498</ele>
        <time>2024-01-12T11:22:23Z</time>
      </trkpt>
      <trkpt lat="42.92263" lon="0.31467">
        <ele>1696.37913</ele>
        <time>2024-01-12T11:22:24Z</time>
      </trkpt>
      <trkpt lat="42.92262" lon="0.31466">
        <ele>1695.87131</ele>
        <time>2024-01-12T11:22:26Z</time>
      </trkpt>
      <trkpt lat="42.92261" lon="0.31464">
        <ele>1695.5853</ele>
        <time>2024-01-12T11:22:28Z</time>
      </trkpt>
      <trkpt lat="42.92261" lon="0.31463">
        <ele>1695.44067</ele>
        <time>2024-01-12T11:22:29Z</time>
      </trkpt>
      <trkpt lat="42.9226" lon="0.31462">
        <ele>1695.65192</ele>
        <time>2024-01-12T11:22:30Z</time>
      </trkpt>
      <trkpt lat="42.92259" lon="0.31461">
        <ele>1695.85565</ele>
        <time>2024-01-12T11:22:32Z</time>
      </trkpt>
      <trkpt lat="42.92258" lon="0.3146">
        <ele>1695.01424</ele>
        <time>2024-01-12T11:22:35Z</time>
      </trkpt>
      <trkpt lat="42.92257" lon="0.31459">
        <ele>1695.86932</ele>
        <time>2024-01-12T11:22:37Z</time>
      </trkpt>
      <trkpt lat="42.92256" lon="0.31459">
        <ele>1697.09073</ele>
        <time>2024-01-12T11:22:39Z</time>
      </trkpt>
      <trkpt lat="42.92255" lon="0.31458">
        <ele>1696.81208</ele>
        <time>2024-01-12T11:22:41Z</time>
      </trkpt>
      <trkpt lat="42.92254" lon="0.31457">
        <ele>1697.20581</ele>
        <time>2024-01-12T11:22:43Z</time>
      </trkpt>
      <trkpt lat="42.92253" lon="0.31456">
        <ele>1696.65771</ele>
        <time>2024-01-12T11:22:46Z</time>
      </trkpt>
      <trkpt lat="42.92252" lon="0.31456">
        <ele>1696.50831</ele>
        <time>2024-01-12T11:22:47Z</time>
      </trkpt>
      <trkpt lat="42.92251" lon="0.31456">
        <ele>1695.80922</ele>
        <time>2024-01-12T11:22:50Z</time>
      </trkpt>
      <trkpt lat="42.9225" lon="0.31458">
        <ele>1695.98502</ele>
        <time>2024-01-12T11:22:53Z</time>
      </trkpt>
      <trkpt lat="42.9225" lon="0.31459">
        <ele>1695.78859</ele>
        <time>2024-01-12T11:22:56Z</time>
      </trkpt>
      <trkpt lat="42.92249" lon="0.31458">
        <ele>1698.474</ele>
        <time>2024-01-12T11:23:02Z</time>
      </trkpt>
      <trkpt lat="42.92248" lon="0.31457">
        <ele>1698.38179</ele>
        <time>2024-01-12T11:23:05Z</time>
      </trkpt>
      <trkpt lat="42.92247" lon="0.31456">
        <ele>1698.30301</ele>
        <time>2024-01-12T11:23:07Z</time>
      </trkpt>
      <trkpt lat="42.92245" lon="0.31455">
        <ele>1698.91032</ele>
        <time>2024-01-12T11:23:09Z</time>
      </trkpt>
      <trkpt lat="42.92245" lon="0.31453">
        <ele>1698.98344</ele>
        <time>2024-01-12T11:23:12Z</time>
      </trkpt>
      <trkpt lat="42.92244" lon="0.31452">
        <ele>1699.98365</ele>
        <time>2024-01-12T11:23:17Z</time>
      </trkpt>
      <trkpt lat="42.92244" lon="0.31451">
        <ele>1701.53333</ele>
        <time>2024-01-12T11:23:19Z</time>
      </trkpt>
      <trkpt lat="42.92244" lon="0.31449">
        <ele>1701.01191</ele>
        <time>2024-01-12T11:23:21Z</time>
      </trkpt>
      <trkpt lat="42.92242" lon="0.31449">
        <ele>1699.74353</ele>
        <time>2024-01-12T11:23:24Z</time>
      </trkpt>
      <trkpt lat="42.92242" lon="0.31449">
        <ele>1699.82824</ele>
        <time>2024-01-12T11:23:25Z</time>
      </trkpt>
      <trkpt lat="42.92241" lon="0.31448">
        <ele>1700.58791</ele>
        <time>2024-01-12T11:23:27Z</time>
      </trkpt>
      <trkpt lat="42.9224" lon="0.31448">
        <ele>1701.35219</ele>
        <time>2024-01-12T11:23:29Z</time>
      </trkpt>
      <trkpt lat="42.92239" lon="0.31448">
        <ele>1700.82781</ele>
        <time>2024-01-12T11:23:31Z</time>
      </trkpt>
      <trkpt lat="42.92238" lon="0.31449">
        <ele>1699.54052</ele>
        <time>2024-01-12T11:23:33Z</time>
      </trkpt>
      <trkpt lat="42.92237" lon="0.3145">
        <ele>1700.34258</ele>
        <time>2024-01-12T11:23:34Z</time>
      </trkpt>
      <trkpt lat="42.92236" lon="0.31449">
        <ele>1700.21051</ele>
        <time>2024-01-12T11:23:38Z</time>
      </trkpt>
      <trkpt lat="42.92235" lon="0.31448">
        <ele>1700.2227</ele>
        <time>2024-01-12T11:23:40Z</time>
      </trkpt>
      <trkpt lat="42.92234" lon="0.31447">
        <ele>1698.86522</ele>
        <time>2024-01-12T11:23:42Z</time>
      </trkpt>
      <trkpt lat="42.92233" lon="0.31446">
        <ele>1700.57033</ele>
        <time>2024-01-12T11:23:45Z</time>
      </trkpt>
      <trkpt lat="42.92232" lon="0.31445">
        <ele>1700.8397</ele>
        <time>2024-01-12T11:23:48Z</time>
      </trkpt>
      <trkpt lat="42.92231" lon="0.31444">
        <ele>1701.26993</ele>
        <time>2024-01-12T11:23:50Z</time>
      </trkpt>
      <trkpt lat="42.9223" lon="0.31443">
        <ele>1702.5298</ele>
        <time>2024-01-12T11:23:53Z</time>
      </trkpt>
      <trkpt lat="42.92229" lon="0.31443">
        <ele>1702.53727</ele>
        <time>2024-01-12T11:23:57Z</time>
      </trkpt>
      <trkpt lat="42.92228" lon="0.31442">
        <ele>1701.80393</ele>
        <time>2024-01-12T11:24:00Z</time>
      </trkpt>
      <trkpt lat="42.92227" lon="0.31442">
        <ele>1702.70175</ele>
        <time>2024-01-12T11:24:01Z</time>
      </trkpt>
      <trkpt lat="42.92226" lon="0.31441">
        <ele>1702.95072</ele>
        <time>2024-01-12T11:24:04Z</time>
      </trkpt>
      <trkpt lat="42.92225" lon="0.3144">
        <ele>1703.74884</ele>
        <time>2024-01-12T11:24:06Z</time>
      </trkpt>
      <trkpt lat="42.92224" lon="0.31438">
        <ele>1703.26814</ele>
        <time>2024-01-12T11:24:11Z</time>
      </trkpt>
      <trkpt lat="42.92224" lon="0.31437">
        <ele>1704.02341</ele>
        <time>2024-01-12T11:24:13Z</time>
      </trkpt>
      <trkpt lat="42.92223" lon="0.31436">
        <ele>1704.18658</ele>
        <time>2024-01-12T11:24:15Z</time>
      </trkpt>
      <trkpt lat="42.92223" lon="0.31434">
        <ele>1704.94407</ele>
        <time>2024-01-12T11:24:18Z</time>
      </trkpt>
      <trkpt lat="42.92222" lon="0.31434">
        <ele>1705.80526</ele>
        <time>2024-01-12T11:24:20Z</time>
      </trkpt>
      <trkpt lat="42.92221" lon="0.31432">
        <ele>1706.24372</ele>
        <time>2024-01-12T11:24:23Z</time>
      </trkpt>
      <trkpt lat="42.9222" lon="0.31431">
        <ele>1706.20982</ele>
        <time>2024-01-12T11:24:26Z</time>
      </trkpt>
      <trkpt lat="42.92221" lon="0.3143">
        <ele>1706.92295</ele>
        <time>2024-01-12T11:24:28Z</time>
      </trkpt>
      <trkpt lat="42.9222" lon="0.31428">
        <ele>1706.99014</ele>
        <time>2024-01-12T11:24:31Z</time>
      </trkpt>
      <trkpt lat="42.9222" lon="0.31427">
        <ele>1706.31844</ele>
        <time>2024-01-12T11:24:33Z</time>
      </trkpt>
      <trkpt lat="42.92219" lon="0.31425">
        <ele>1706.40512</ele>
        <time>2024-01-12T11:24:37Z</time>
      </trkpt>
      <trkpt lat="42.92218" lon="0.31424">
        <ele>1706.69073</ele>
        <time>2024-01-12T11:24:39Z</time>
      </trkpt>
      <trkpt lat="42.92217" lon="0.31423">
        <ele>1706.06846</ele>
        <time>2024-01-12T11:24:45Z</time>
      </trkpt>
      <trkpt lat="42.92218" lon="0.31422">
        <ele>1706.71353</ele>
        <time>2024-01-12T11:24:51Z</time>
      </trkpt>
      <trkpt lat="42.92217" lon="0.31422">
        <ele>1708.04601</ele>
        <time>2024-01-12T11:24:54Z</time>
      </trkpt>
      <trkpt lat="42.92216" lon="0.31421">
        <ele>1709.32364</ele>
        <time>2024-01-12T11:24:57Z</time>
      </trkpt>
      <trkpt lat="42.92214" lon="0.31421">
        <ele>1709.12774</ele>
        <time>2024-01-12T11:25:01Z</time>
      </trkpt>
      <trkpt lat="42.92213" lon="0.31421">
        <ele>1709.40284</ele>
        <time>2024-01-12T11:25:05Z</time>
      </trkpt>
      <trkpt lat="42.92212" lon="0.3142">
        <ele>1709.29809</ele>
        <time>2024-01-12T11:25:09Z</time>
      </trkpt>
      <trkpt lat="42.92212" lon="0.31422">
        <ele>1710.28469</ele>
        <time>2024-01-12T11:25:12Z</time>
      </trkpt>
      <trkpt lat="42.92211" lon="0.31421">
        <ele>1710.62208</ele>
        <time>2024-01-12T11:25:14Z</time>
      </trkpt>
      <trkpt lat="42.92211" lon="0.3142">
        <ele>1708.734</ele>
        <time>2024-01-12T11:25:17Z</time>
      </trkpt>
      <trkpt lat="42.9221" lon="0.31419">
        <ele>1710.27018</ele>
        <time>2024-01-12T11:25:25Z</time>
      </trkpt>
      <trkpt lat="42.92209" lon="0.31419">
        <ele>1711.76268</ele>
        <time>2024-01-12T11:25:30Z</time>
      </trkpt>
      <trkpt lat="42.92208" lon="0.3142">
        <ele>1712.20281</ele>
        <time>2024-01-12T11:25:38Z</time>
      </trkpt>
      <trkpt lat="42.92207" lon="0.31419">
        <ele>1713.74867</ele>
        <time>2024-01-12T11:25:45Z</time>
      </trkpt>
      <trkpt lat="42.92206" lon="0.31418">
        <ele>1713.78193</ele>
        <time>2024-01-12T11:25:48Z</time>
      </trkpt>
      <trkpt lat="42.92206" lon="0.31417">
        <ele>1713.97858</ele>
        <time>2024-01-12T11:25:51Z</time>
      </trkpt>
      <trkpt lat="42.92205" lon="0.31415">
        <ele>1714.86081</ele>
        <time>2024-01-12T11:25:54Z</time>
      </trkpt>
      <trkpt lat="42.92205" lon="0.31414">
        <ele>1715.11778</ele>
        <time>2024-01-12T11:25:57Z</time>
      </trkpt>
      <trkpt lat="42.92204" lon="0.31414">
        <ele>1715.28997</ele>
        <time>2024-01-12T11:26:01Z</time>
      </trkpt>
      <trkpt lat="42.92203" lon="0.31413">
        <ele>1715.94291</ele>
        <time>2024-01-12T11:26:03Z</time>
      </trkpt>
      <trkpt lat="42.92203" lon="0.31412">
        <ele>1716.59519</ele>
        <time>2024-01-12T11:26:08Z</time>
      </trkpt>
      <trkpt lat="42.92202" lon="0.3141">
        <ele>1716.17887</ele>
        <time>2024-01-12T11:26:10Z</time>
      </trkpt>
      <trkpt lat="42.92201" lon="0.31409">
        <ele>1717.31802</ele>
        <time>2024-01-12T11:26:13Z</time>
      </trkpt>
      <trkpt lat="42.922" lon="0.31408">
        <ele>1718.62018</ele>
        <time>2024-01-12T11:26:16Z</time>
      </trkpt>
      <trkpt lat="42.922" lon="0.31409">
        <ele>1717.8813</ele>
        <time>2024-01-12T11:26:20Z</time>
      </trkpt>
      <trkpt lat="42.92199" lon="0.3141">
        <ele>1718.12445</ele>
        <time>2024-01-12T11:26:34Z</time>
      </trkpt>
      <trkpt lat="42.92198" lon="0.31409">
        <ele>1717.57389</ele>
        <time>2024-01-12T11:26:37Z</time>
      </trkpt>
      <trkpt lat="42.92199" lon="0.3141">
        <ele>1716.67902</ele>
        <time>2024-01-12T11:26:45Z</time>
      </trkpt>
      <trkpt lat="42.92197" lon="0.31408">
        <ele>1715.14364</ele>
        <time>2024-01-12T11:26:52Z</time>
      </trkpt>
      <trkpt lat="42.92196" lon="0.31408">
        <ele>1715.18493</ele>
        <time>2024-01-12T11:26:54Z</time>
      </trkpt>
      <trkpt lat="42.92195" lon="0.31409">
        <ele>1716.996</ele>
        <time>2024-01-12T11:26:56Z</time>
      </trkpt>
      <trkpt lat="42.92197" lon="0.3141">
        <ele>1715.63077</ele>
        <time>2024-01-12T11:26:57Z</time>
      </trkpt>
      <trkpt lat="42.92196" lon="0.3141">
        <ele>1716.33261</ele>
        <time>2024-01-12T11:26:58Z</time>
      </trkpt>
      <trkpt lat="42.92195" lon="0.31409">
        <ele>1715.78416</ele>
        <time>2024-01-12T11:27:00Z</time>
      </trkpt>
      <trkpt lat="42.92193" lon="0.31409">
        <ele>1715.80976</ele>
        <time>2024-01-12T11:27:02Z</time>
      </trkpt>
      <trkpt lat="42.92192" lon="0.31409">
        <ele>1716.22689</ele>
        <time>2024-01-12T11:27:03Z</time>
      </trkpt>
      <trkpt lat="42.92191" lon="0.31408">
        <ele>1717.79026</ele>
        <time>2024-01-12T11:27:06Z</time>
      </trkpt>
      <trkpt lat="42.92189" lon="0.31407">
        <ele>1719.24601</ele>
        <time>2024-01-12T11:27:08Z</time>
      </trkpt>
      <trkpt lat="42.92188" lon="0.31407">
        <ele>1720.64753</ele>
        <time>2024-01-12T11:27:10Z</time>
      </trkpt>
      <trkpt lat="42.92187" lon="0.31406">
        <ele>1720.78962</ele>
        <time>2024-01-12T11:27:14Z</time>
      </trkpt>
      <trkpt lat="42.92185" lon="0.31405">
        <ele>1720.47914</ele>
        <time>2024-01-12T11:27:17Z</time>
      </trkpt>
      <trkpt lat="42.92184" lon="0.31404">
        <ele>1719.80833</ele>
        <time>2024-01-12T11:27:18Z</time>
      </trkpt>
      <trkpt lat="42.92183" lon="0.31405">
        <ele>1719.91239</ele>
        <time>2024-01-12T11:27:20Z</time>
      </trkpt>
      <trkpt lat="42.92182" lon="0.31405">
        <ele>1721.63568</ele>
        <time>2024-01-12T11:27:24Z</time>
      </trkpt>
      <trkpt lat="42.92181" lon="0.31405">
        <ele>1721.32333</ele>
        <time>2024-01-12T11:27:25Z</time>
      </trkpt>
      <trkpt lat="42.9218" lon="0.31405">
        <ele>1721.03346</ele>
        <time>2024-01-12T11:27:27Z</time>
      </trkpt>
      <trkpt lat="42.92179" lon="0.31406">
        <ele>1721.64371</ele>
        <time>2024-01-12T11:27:31Z</time>
      </trkpt>
      <trkpt lat="42.92178" lon="0.31407">
        <ele>1722.05616</ele>
        <time>2024-01-12T11:27:33Z</time>
      </trkpt>
      <trkpt lat="42.92177" lon="0.31407">
        <ele>1720.72076</ele>
        <time>2024-01-12T11:27:36Z</time>
      </trkpt>
      <trkpt lat="42.92175" lon="0.31407">
        <ele>1719.82652</ele>
        <time>2024-01-12T11:27:38Z</time>
      </trkpt>
      <trkpt lat="42.92174" lon="0.31407">
        <ele>1721.95261</ele>
        <time>2024-01-12T11:27:44Z</time>
      </trkpt>
      <trkpt lat="42.92172" lon="0.31406">
        <ele>1722.03551</ele>
        <time>2024-01-12T11:27:47Z</time>
      </trkpt>
      <trkpt lat="42.92171" lon="0.31407">
        <ele>1721.04668</ele>
        <time>2024-01-12T11:27:50Z</time>
      </trkpt>
      <trkpt lat="42.9217" lon="0.31408">
        <ele>1721.80576</ele>
        <time>2024-01-12T11:27:54Z</time>
      </trkpt>
      <trkpt lat="42.92169" lon="0.31408">
        <ele>1721.63069</ele>
        <time>2024-01-12T11:27:55Z</time>
      </trkpt>
      <trkpt lat="42.92168" lon="0.31408">
        <ele>1722.48863</ele>
        <time>2024-01-12T11:27:57Z</time>
      </trkpt>
      <trkpt lat="42.92167" lon="0.31406">
        <ele>1723.71155</ele>
        <time>2024-01-12T11:27:59Z</time>
      </trkpt>
      <trkpt lat="42.92165" lon="0.31406">
        <ele>1723.62662</ele>
        <time>2024-01-12T11:28:01Z</time>
      </trkpt>
      <trkpt lat="42.92164" lon="0.31406">
        <ele>1724.2279</ele>
        <time>2024-01-12T11:28:05Z</time>
      </trkpt>
      <trkpt lat="42.92163" lon="0.31406">
        <ele>1724.10678</ele>
        <time>2024-01-12T11:28:07Z</time>
      </trkpt>
      <trkpt lat="42.92162" lon="0.31406">
        <ele>1725.72942</ele>
        <time>2024-01-12T11:28:09Z</time>
      </trkpt>
      <trkpt lat="42.92161" lon="0.31406">
        <ele>1726.51107</ele>
        <time>2024-01-12T11:28:11Z</time>
      </trkpt>
      <trkpt lat="42.9216" lon="0.31406">
        <ele>1726.79776</ele>
        <time>2024-01-12T11:28:13Z</time>
      </trkpt>
      <trkpt lat="42.92159" lon="0.31406">
        <ele>1726.28065</ele>
        <time>2024-01-12T11:28:15Z</time>
      </trkpt>
      <trkpt lat="42.92158" lon="0.31406">
        <ele>1726.36617</ele>
        <time>2024-01-12T11:28:17Z</time>
      </trkpt>
      <trkpt lat="42.92157" lon="0.31406">
        <ele>1726.32294</ele>
        <time>2024-01-12T11:28:20Z</time>
      </trkpt>
      <trkpt lat="42.92156" lon="0.31405">
        <ele>1724.87631</ele>
        <time>2024-01-12T11:28:22Z</time>
      </trkpt>
      <trkpt lat="42.92154" lon="0.31405">
        <ele>1725.75398</ele>
        <time>2024-01-12T11:28:26Z</time>
      </trkpt>
      <trkpt lat="42.92153" lon="0.31404">
        <ele>1725.65951</ele>
        <time>2024-01-12T11:28:29Z</time>
      </trkpt>
      <trkpt lat="42.92152" lon="0.31404">
        <ele>1725.51106</ele>
        <time>2024-01-12T11:28:31Z</time>
      </trkpt>
      <trkpt lat="42.9215" lon="0.31404">
        <ele>1725.76675</ele>
        <time>2024-01-12T11:28:34Z</time>
      </trkpt>
      <trkpt lat="42.92149" lon="0.31404">
        <ele>1725.70528</ele>
        <time>2024-01-12T11:28:37Z</time>
      </trkpt>
      <trkpt lat="42.92148" lon="0.31403">
        <ele>1726.17863</ele>
        <time>2024-01-12T11:28:39Z</time>
      </trkpt>
      <trkpt lat="42.92147" lon="0.31403">
        <ele>1726.00016</ele>
        <time>2024-01-12T11:28:41Z</time>
      </trkpt>
      <trkpt lat="42.92146" lon="0.31402">
        <ele>1726.87007</ele>
        <time>2024-01-12T11:28:43Z</time>
      </trkpt>
      <trkpt lat="42.92146" lon="0.31401">
        <ele>1727.30996</ele>
        <time>2024-01-12T11:28:45Z</time>
      </trkpt>
      <trkpt lat="42.92145" lon="0.31401">
        <ele>1727.22998</ele>
        <time>2024-01-12T11:28:47Z</time>
      </trkpt>
      <trkpt lat="42.92144" lon="0.314">
        <ele>1726.84624</ele>
        <time>2024-01-12T11:28:49Z</time>
      </trkpt>
      <trkpt lat="42.92143" lon="0.314">
        <ele>1727.05078</ele>
        <time>2024-01-12T11:28:51Z</time>
      </trkpt>
      <trkpt lat="42.92141" lon="0.314">
        <ele>1727.30768</ele>
        <time>2024-01-12T11:28:53Z</time>
      </trkpt>
      <trkpt lat="42.9214" lon="0.31399">
        <ele>1728.22777</ele>
        <time>2024-01-12T11:28:55Z</time>
      </trkpt>
      <trkpt lat="42.92139" lon="0.31398">
        <ele>1728.42965</ele>
        <time>2024-01-12T11:28:57Z</time>
      </trkpt>
      <trkpt lat="42.92138" lon="0.31398">
        <ele>1729.23544</ele>
        <time>2024-01-12T11:28:59Z</time>
      </trkpt>
      <trkpt lat="42.92137" lon="0.31397">
        <ele>1729.11222</ele>
        <time>2024-01-12T11:29:00Z</time>
      </trkpt>
      <trkpt lat="42.92136" lon="0.31396">
        <ele>1728.95368</ele>
        <time>2024-01-12T11:29:04Z</time>
      </trkpt>
      <trkpt lat="42.92135" lon="0.31396">
        <ele>1729.75567</ele>
        <time>2024-01-12T11:29:10Z</time>
      </trkpt>
      <trkpt lat="42.92134" lon="0.31396">
        <ele>1730.32402</ele>
        <time>2024-01-12T11:29:13Z</time>
      </trkpt>
      <trkpt lat="42.92133" lon="0.31396">
        <ele>1728.96728</ele>
        <time>2024-01-12T11:29:15Z</time>
      </trkpt>
      <trkpt lat="42.92132" lon="0.31396">
        <ele>1729.21033</ele>
        <time>2024-01-12T11:29:17Z</time>
      </trkpt>
      <trkpt lat="42.92131" lon="0.31396">
        <ele>1728.4432</ele>
        <time>2024-01-12T11:29:19Z</time>
      </trkpt>
      <trkpt lat="42.92129" lon="0.31396">
        <ele>1728.87035</ele>
        <time>2024-01-12T11:29:21Z</time>
      </trkpt>
      <trkpt lat="42.92128" lon="0.31396">
        <ele>1729.7128</ele>
        <time>2024-01-12T11:29:23Z</time>
      </trkpt>
      <trkpt lat="42.92127" lon="0.31396">
        <ele>1729.2749</ele>
        <time>2024-01-12T11:29:25Z</time>
      </trkpt>
      <trkpt lat="42.92126" lon="0.31396">
        <ele>1729.89365</ele>
        <time>2024-01-12T11:29:28Z</time>
      </trkpt>
      <trkpt lat="42.92124" lon="0.31395">
        <ele>1730.59068</ele>
        <time>2024-01-12T11:29:30Z</time>
      </trkpt>
      <trkpt lat="42.92123" lon="0.31395">
        <ele>1730.84659</ele>
        <time>2024-01-12T11:29:32Z</time>
      </trkpt>
      <trkpt lat="42.92122" lon="0.31395">
        <ele>1729.77248</ele>
        <time>2024-01-12T11:29:36Z</time>
      </trkpt>
      <trkpt lat="42.92121" lon="0.31396">
        <ele>1729.61858</ele>
        <time>2024-01-12T11:29:40Z</time>
      </trkpt>
      <trkpt lat="42.9212" lon="0.31396">
        <ele>1731.1824</ele>
        <time>2024-01-12T11:29:45Z</time>
      </trkpt>
      <trkpt lat="42.92119" lon="0.31395">
        <ele>1731.39926</ele>
        <time>2024-01-12T11:29:46Z</time>
      </trkpt>
      <trkpt lat="42.92117" lon="0.31393">
        <ele>1730.58905</ele>
        <time>2024-01-12T11:29:48Z</time>
      </trkpt>
      <trkpt lat="42.92116" lon="0.31393">
        <ele>1730.66922</ele>
        <time>2024-01-12T11:29:50Z</time>
      </trkpt>
      <trkpt lat="42.92115" lon="0.31392">
        <ele>1731.55204</ele>
        <time>2024-01-12T11:29:53Z</time>
      </trkpt>
      <trkpt lat="42.92113" lon="0.31393">
        <ele>1732.22201</ele>
        <time>2024-01-12T11:29:57Z</time>
      </trkpt>
      <trkpt lat="42.92112" lon="0.31392">
        <ele>1732.11535</ele>
        <time>2024-01-12T11:29:58Z</time>
      </trkpt>
      <trkpt lat="42.92111" lon="0.31391">
        <ele>1731.99309</ele>
        <time>2024-01-12T11:30:00Z</time>
      </trkpt>
      <trkpt lat="42.9211" lon="0.3139">
        <ele>1733.2929</ele>
        <time>2024-01-12T11:30:02Z</time>
      </trkpt>
      <trkpt lat="42.92109" lon="0.31388">
        <ele>1734.4651</ele>
        <time>2024-01-12T11:30:04Z</time>
      </trkpt>
      <trkpt lat="42.92108" lon="0.31388">
        <ele>1734.86218</ele>
        <time>2024-01-12T11:30:05Z</time>
      </trkpt>
      <trkpt lat="42.92107" lon="0.31387">
        <ele>1735.62003</ele>
        <time>2024-01-12T11:30:08Z</time>
      </trkpt>
      <trkpt lat="42.92106" lon="0.31387">
        <ele>1735.85385</ele>
        <time>2024-01-12T11:30:11Z</time>
      </trkpt>
      <trkpt lat="42.92105" lon="0.31386">
        <ele>1734.70036</ele>
        <time>2024-01-12T11:30:13Z</time>
      </trkpt>
      <trkpt lat="42.92104" lon="0.31385">
        <ele>1734.41733</ele>
        <time>2024-01-12T11:30:14Z</time>
      </trkpt>
      <trkpt lat="42.92102" lon="0.31384">
        <ele>1734.84772</ele>
        <time>2024-01-12T11:30:18Z</time>
      </trkpt>
      <trkpt lat="42.921" lon="0.31383">
        <ele>1735.2483</ele>
        <time>2024-01-12T11:30:21Z</time>
      </trkpt>
      <trkpt lat="42.92099" lon="0.31382">
        <ele>1736.11004</ele>
        <time>2024-01-12T11:30:24Z</time>
      </trkpt>
      <trkpt lat="42.92097" lon="0.31382">
        <ele>1736.4115</ele>
        <time>2024-01-12T11:30:27Z</time>
      </trkpt>
      <trkpt lat="42.92096" lon="0.31382">
        <ele>1735.49163</ele>
        <time>2024-01-12T11:30:29Z</time>
      </trkpt>
      <trkpt lat="42.92095" lon="0.31381">
        <ele>1735.61853</ele>
        <time>2024-01-12T11:30:31Z</time>
      </trkpt>
      <trkpt lat="42.92094" lon="0.31381">
        <ele>1735.90511</ele>
        <time>2024-01-12T11:30:33Z</time>
      </trkpt>
      <trkpt lat="42.92093" lon="0.31381">
        <ele>1735.28694</ele>
        <time>2024-01-12T11:30:35Z</time>
      </trkpt>
      <trkpt lat="42.92092" lon="0.3138">
        <ele>1735.17558</ele>
        <time>2024-01-12T11:30:37Z</time>
      </trkpt>
      <trkpt lat="42.92091" lon="0.3138">
        <ele>1733.3984</ele>
        <time>2024-01-12T11:30:38Z</time>
      </trkpt>
      <trkpt lat="42.92089" lon="0.3138">
        <ele>1734.61989</ele>
        <time>2024-01-12T11:30:42Z</time>
      </trkpt>
      <trkpt lat="42.92089" lon="0.31379">
        <ele>1734.6267</ele>
        <time>2024-01-12T11:30:43Z</time>
      </trkpt>
      <trkpt lat="42.92087" lon="0.31378">
        <ele>1735.26467</ele>
        <time>2024-01-12T11:30:45Z</time>
      </trkpt>
      <trkpt lat="42.92086" lon="0.31378">
        <ele>1735.02231</ele>
        <time>2024-01-12T11:30:47Z</time>
      </trkpt>
      <trkpt lat="42.92085" lon="0.31377">
        <ele>1735.46764</ele>
        <time>2024-01-12T11:30:49Z</time>
      </trkpt>
      <trkpt lat="42.92083" lon="0.31377">
        <ele>1734.65748</ele>
        <time>2024-01-12T11:30:52Z</time>
      </trkpt>
      <trkpt lat="42.92083" lon="0.31376">
        <ele>1734.5394</ele>
        <time>2024-01-12T11:30:55Z</time>
      </trkpt>
      <trkpt lat="42.92081" lon="0.31375">
        <ele>1734.39468</ele>
        <time>2024-01-12T11:30:57Z</time>
      </trkpt>
      <trkpt lat="42.9208" lon="0.31374">
        <ele>1733.7021</ele>
        <time>2024-01-12T11:30:59Z</time>
      </trkpt>
      <trkpt lat="42.92079" lon="0.31374">
        <ele>1733.84392</ele>
        <time>2024-01-12T11:31:01Z</time>
      </trkpt>
      <trkpt lat="42.92078" lon="0.31374">
        <ele>1733.98893</ele>
        <time>2024-01-12T11:31:04Z</time>
      </trkpt>
      <trkpt lat="42.92076" lon="0.31374">
        <ele>1732.98634</ele>
        <time>2024-01-12T11:31:06Z</time>
      </trkpt>
      <trkpt lat="42.92075" lon="0.31373">
        <ele>1733.77044</ele>
        <time>2024-01-12T11:31:08Z</time>
      </trkpt>
      <trkpt lat="42.92074" lon="0.31373">
        <ele>1734.50154</ele>
        <time>2024-01-12T11:31:10Z</time>
      </trkpt>
      <trkpt lat="42.92073" lon="0.31372">
        <ele>1735.63454</ele>
        <time>2024-01-12T11:31:13Z</time>
      </trkpt>
      <trkpt lat="42.92071" lon="0.31371">
        <ele>1737.13666</ele>
        <time>2024-01-12T11:31:16Z</time>
      </trkpt>
      <trkpt lat="42.9207" lon="0.31372">
        <ele>1735.3595</ele>
        <time>2024-01-12T11:31:19Z</time>
      </trkpt>
      <trkpt lat="42.92069" lon="0.3137">
        <ele>1736.54454</ele>
        <time>2024-01-12T11:31:22Z</time>
      </trkpt>
      <trkpt lat="42.92068" lon="0.3137">
        <ele>1736.10934</ele>
        <time>2024-01-12T11:31:24Z</time>
      </trkpt>
      <trkpt lat="42.92067" lon="0.3137">
        <ele>1737.24243</ele>
        <time>2024-01-12T11:31:26Z</time>
      </trkpt>
      <trkpt lat="42.92066" lon="0.31369">
        <ele>1736.86792</ele>
        <time>2024-01-12T11:31:27Z</time>
      </trkpt>
      <trkpt lat="42.92065" lon="0.31369">
        <ele>1738.91321</ele>
        <time>2024-01-12T11:31:31Z</time>
      </trkpt>
      <trkpt lat="42.92063" lon="0.31369">
        <ele>1738.48693</ele>
        <time>2024-01-12T11:31:34Z</time>
      </trkpt>
      <trkpt lat="42.92063" lon="0.31368">
        <ele>1738.90917</ele>
        <time>2024-01-12T11:31:35Z</time>
      </trkpt>
      <trkpt lat="42.92061" lon="0.31368">
        <ele>1739.7548</ele>
        <time>2024-01-12T11:31:38Z</time>
      </trkpt>
      <trkpt lat="42.9206" lon="0.31369">
        <ele>1739.60051</ele>
        <time>2024-01-12T11:31:41Z</time>
      </trkpt>
      <trkpt lat="42.92059" lon="0.31368">
        <ele>1739.83347</ele>
        <time>2024-01-12T11:31:43Z</time>
      </trkpt>
      <trkpt lat="42.92058" lon="0.31368">
        <ele>1739.96196</ele>
        <time>2024-01-12T11:31:47Z</time>
      </trkpt>
      <trkpt lat="42.92057" lon="0.31368">
        <ele>1740.75146</ele>
        <time>2024-01-12T11:31:50Z</time>
      </trkpt>
      <trkpt lat="42.92056" lon="0.31368">
        <ele>1741.1655</ele>
        <time>2024-01-12T11:31:52Z</time>
      </trkpt>
      <trkpt lat="42.92055" lon="0.31367">
        <ele>1740.71472</ele>
        <time>2024-01-12T11:31:54Z</time>
      </trkpt>
      <trkpt lat="42.92054" lon="0.31367">
        <ele>1740.6791</ele>
        <time>2024-01-12T11:31:56Z</time>
      </trkpt>
      <trkpt lat="42.92053" lon="0.31367">
        <ele>1740.3594</ele>
        <time>2024-01-12T11:31:59Z</time>
      </trkpt>
      <trkpt lat="42.92052" lon="0.31365">
        <ele>1740.70977</ele>
        <time>2024-01-12T11:32:01Z</time>
      </trkpt>
      <trkpt lat="42.9205" lon="0.31365">
        <ele>1741.05556</ele>
        <time>2024-01-12T11:32:04Z</time>
      </trkpt>
      <trkpt lat="42.92049" lon="0.31364">
        <ele>1741.7655</ele>
        <time>2024-01-12T11:32:06Z</time>
      </trkpt>
      <trkpt lat="42.92048" lon="0.31363">
        <ele>1741.39701</ele>
        <time>2024-01-12T11:32:08Z</time>
      </trkpt>
      <trkpt lat="42.92047" lon="0.31362">
        <ele>1741.07187</ele>
        <time>2024-01-12T11:32:11Z</time>
      </trkpt>
      <trkpt lat="42.92045" lon="0.31361">
        <ele>1740.01597</ele>
        <time>2024-01-12T11:32:13Z</time>
      </trkpt>
      <trkpt lat="42.92044" lon="0.31361">
        <ele>1741.49212</ele>
        <time>2024-01-12T11:32:15Z</time>
      </trkpt>
      <trkpt lat="42.92042" lon="0.3136">
        <ele>1741.11129</ele>
        <time>2024-01-12T11:32:18Z</time>
      </trkpt>
      <trkpt lat="42.92041" lon="0.3136">
        <ele>1741.90903</ele>
        <time>2024-01-12T11:32:20Z</time>
      </trkpt>
      <trkpt lat="42.9204" lon="0.3136">
        <ele>1741.93266</ele>
        <time>2024-01-12T11:32:22Z</time>
      </trkpt>
      <trkpt lat="42.92039" lon="0.3136">
        <ele>1741.09441</ele>
        <time>2024-01-12T11:32:25Z</time>
      </trkpt>
      <trkpt lat="42.92037" lon="0.3136">
        <ele>1742.37005</ele>
        <time>2024-01-12T11:32:28Z</time>
      </trkpt>
      <trkpt lat="42.92036" lon="0.31359">
        <ele>1742.26531</ele>
        <time>2024-01-12T11:32:31Z</time>
      </trkpt>
      <trkpt lat="42.92035" lon="0.31358">
        <ele>1742.71961</ele>
        <time>2024-01-12T11:32:33Z</time>
      </trkpt>
      <trkpt lat="42.92033" lon="0.31358">
        <ele>1742.9512</ele>
        <time>2024-01-12T11:32:35Z</time>
      </trkpt>
      <trkpt lat="42.92032" lon="0.31357">
        <ele>1743.17244</ele>
        <time>2024-01-12T11:32:38Z</time>
      </trkpt>
      <trkpt lat="42.9203" lon="0.31356">
        <ele>1744.12829</ele>
        <time>2024-01-12T11:32:40Z</time>
      </trkpt>
      <trkpt lat="42.92029" lon="0.31355">
        <ele>1743.86697</ele>
        <time>2024-01-12T11:32:42Z</time>
      </trkpt>
      <trkpt lat="42.92027" lon="0.31354">
        <ele>1745.7484</ele>
        <time>2024-01-12T11:32:44Z</time>
      </trkpt>
      <trkpt lat="42.92026" lon="0.31354">
        <ele>1746.05275</ele>
        <time>2024-01-12T11:32:46Z</time>
      </trkpt>
      <trkpt lat="42.92025" lon="0.31355">
        <ele>1745.97007</ele>
        <time>2024-01-12T11:32:48Z</time>
      </trkpt>
      <trkpt lat="42.92024" lon="0.31355">
        <ele>1745.94701</ele>
        <time>2024-01-12T11:32:50Z</time>
      </trkpt>
      <trkpt lat="42.92023" lon="0.31356">
        <ele>1745.00239</ele>
        <time>2024-01-12T11:32:54Z</time>
      </trkpt>
      <trkpt lat="42.92023" lon="0.31358">
        <ele>1744.20313</ele>
        <time>2024-01-12T11:32:56Z</time>
      </trkpt>
      <trkpt lat="42.92022" lon="0.31358">
        <ele>1744.53322</ele>
        <time>2024-01-12T11:32:59Z</time>
      </trkpt>
      <trkpt lat="42.92021" lon="0.31359">
        <ele>1745.94759</ele>
        <time>2024-01-12T11:33:01Z</time>
      </trkpt>
      <trkpt lat="42.9202" lon="0.31359">
        <ele>1746.4046</ele>
        <time>2024-01-12T11:33:04Z</time>
      </trkpt>
      <trkpt lat="42.92019" lon="0.3136">
        <ele>1745.85217</ele>
        <time>2024-01-12T11:33:07Z</time>
      </trkpt>
      <trkpt lat="42.92017" lon="0.3136">
        <ele>1748.57674</ele>
        <time>2024-01-12T11:33:09Z</time>
      </trkpt>
      <trkpt lat="42.92016" lon="0.31359">
        <ele>1748.44398</ele>
        <time>2024-01-12T11:33:11Z</time>
      </trkpt>
      <trkpt lat="42.92014" lon="0.3136">
        <ele>1749.99433</ele>
        <time>2024-01-12T11:33:14Z</time>
      </trkpt>
      <trkpt lat="42.92013" lon="0.3136">
        <ele>1749.00858</ele>
        <time>2024-01-12T11:33:16Z</time>
      </trkpt>
      <trkpt lat="42.92012" lon="0.3136">
        <ele>1748.18438</ele>
        <time>2024-01-12T11:33:18Z</time>
      </trkpt>
      <trkpt lat="42.9201" lon="0.3136">
        <ele>1749.87656</ele>
        <time>2024-01-12T11:33:20Z</time>
      </trkpt>
      <trkpt lat="42.92008" lon="0.31359">
        <ele>1751.31471</ele>
        <time>2024-01-12T11:33:22Z</time>
      </trkpt>
      <trkpt lat="42.92007" lon="0.31361">
        <ele>1747.92243</ele>
        <time>2024-01-12T11:33:25Z</time>
      </trkpt>
      <trkpt lat="42.92006" lon="0.31361">
        <ele>1747.55617</ele>
        <time>2024-01-12T11:33:28Z</time>
      </trkpt>
      <trkpt lat="42.92004" lon="0.31361">
        <ele>1747.8753</ele>
        <time>2024-01-12T11:33:30Z</time>
      </trkpt>
      <trkpt lat="42.92003" lon="0.31362">
        <ele>1747.89453</ele>
        <time>2024-01-12T11:33:33Z</time>
      </trkpt>
      <trkpt lat="42.92001" lon="0.31362">
        <ele>1747.02957</ele>
        <time>2024-01-12T11:33:35Z</time>
      </trkpt>
      <trkpt lat="42.92001" lon="0.31364">
        <ele>1746.81958</ele>
        <time>2024-01-12T11:33:37Z</time>
      </trkpt>
      <trkpt lat="42.91999" lon="0.31363">
        <ele>1748.53565</ele>
        <time>2024-01-12T11:33:39Z</time>
      </trkpt>
      <trkpt lat="42.91998" lon="0.31363">
        <ele>1748.01164</ele>
        <time>2024-01-12T11:33:43Z</time>
      </trkpt>
      <trkpt lat="42.91996" lon="0.31362">
        <ele>1747.94387</ele>
        <time>2024-01-12T11:33:45Z</time>
      </trkpt>
      <trkpt lat="42.91995" lon="0.31362">
        <ele>1748.05747</ele>
        <time>2024-01-12T11:33:46Z</time>
      </trkpt>
      <trkpt lat="42.91994" lon="0.31362">
        <ele>1748.08782</ele>
        <time>2024-01-12T11:33:47Z</time>
      </trkpt>
      <trkpt lat="42.91993" lon="0.31362">
        <ele>1748.70153</ele>
        <time>2024-01-12T11:33:48Z</time>
      </trkpt>
      <trkpt lat="42.91991" lon="0.31362">
        <ele>1748.85223</ele>
        <time>2024-01-12T11:33:50Z</time>
      </trkpt>
      <trkpt lat="42.9199" lon="0.31361">
        <ele>1748.82017</ele>
        <time>2024-01-12T11:33:51Z</time>
      </trkpt>
      <trkpt lat="42.91989" lon="0.31361">
        <ele>1748.14046</ele>
        <time>2024-01-12T11:33:53Z</time>
      </trkpt>
      <trkpt lat="42.91988" lon="0.31361">
        <ele>1748.82872</ele>
        <time>2024-01-12T11:33:55Z</time>
      </trkpt>
      <trkpt lat="42.91988" lon="0.31362">
        <ele>1748.89125</ele>
        <time>2024-01-12T11:33:59Z</time>
      </trkpt>
      <trkpt lat="42.91987" lon="0.31363">
        <ele>1748.50069</ele>
        <time>2024-01-12T11:34:06Z</time>
      </trkpt>
      <trkpt lat="42.91988" lon="0.31362">
        <ele>1745.8476</ele>
        <time>2024-01-12T11:34:18Z</time>
      </trkpt>
      <trkpt lat="42.91986" lon="0.31361">
        <ele>1746.14375</ele>
        <time>2024-01-12T11:34:39Z</time>
      </trkpt>
      <trkpt lat="42.91986" lon="0.31363">
        <ele>1747.17979</ele>
        <time>2024-01-12T11:34:54Z</time>
      </trkpt>
      <trkpt lat="42.91985" lon="0.31361">
        <ele>1746.12322</ele>
        <time>2024-01-12T11:35:32Z</time>
      </trkpt>
      <trkpt lat="42.91984" lon="0.31361">
        <ele>1745.94745</ele>
        <time>2024-01-12T11:35:34Z</time>
      </trkpt>
      <trkpt lat="42.91985" lon="0.31362">
        <ele>1746.51495</ele>
        <time>2024-01-12T11:35:39Z</time>
      </trkpt>
      <trkpt lat="42.91984" lon="0.31361">
        <ele>1744.78662</ele>
        <time>2024-01-12T11:35:48Z</time>
      </trkpt>
      <trkpt lat="42.91985" lon="0.31362">
        <ele>1745.22522</ele>
        <time>2024-01-12T11:35:51Z</time>
      </trkpt>
      <trkpt lat="42.91986" lon="0.31362">
        <ele>1745.61412</ele>
        <time>2024-01-12T11:36:09Z</time>
      </trkpt>
      <trkpt lat="42.91985" lon="0.31363">
        <ele>1746.68737</ele>
        <time>2024-01-12T11:37:07Z</time>
      </trkpt>
      <trkpt lat="42.91985" lon="0.31362">
        <ele>1745.46555</ele>
        <time>2024-01-12T11:38:55Z</time>
      </trkpt>
      <trkpt lat="42.91985" lon="0.31363">
        <ele>1744.50671</ele>
        <time>2024-01-12T11:40:05Z</time>
      </trkpt>
      <trkpt lat="42.91984" lon="0.31364">
        <ele>1744.42697</ele>
        <time>2024-01-12T11:40:45Z</time>
      </trkpt>
      <trkpt lat="42.91985" lon="0.31363">
        <ele>1746.75503</ele>
        <time>2024-01-12T11:41:12Z</time>
      </trkpt>
      <trkpt lat="42.91984" lon="0.31363">
        <ele>1739.76816</ele>
        <time>2024-01-12T11:41:26Z</time>
      </trkpt>
      <trkpt lat="42.91987" lon="0.31363">
        <ele>1746.12116</ele>
        <time>2024-01-12T11:42:07Z</time>
      </trkpt>
      <trkpt lat="42.91986" lon="0.31362">
        <ele>1747.00059</ele>
        <time>2024-01-12T11:42:12Z</time>
      </trkpt>
      <trkpt lat="42.91985" lon="0.31363">
        <ele>1746.96109</ele>
        <time>2024-01-12T11:42:17Z</time>
      </trkpt>
      <trkpt lat="42.91984" lon="0.31363">
        <ele>1745.95886</ele>
        <time>2024-01-12T11:42:21Z</time>
      </trkpt>
      <trkpt lat="42.91985" lon="0.31363">
        <ele>1746.46299</ele>
        <time>2024-01-12T11:42:28Z</time>
      </trkpt>
      <trkpt lat="42.91986" lon="0.31361">
        <ele>1745.48958</ele>
        <time>2024-01-12T11:42:48Z</time>
      </trkpt>
      <trkpt lat="42.91985" lon="0.3136">
        <ele>1747.11398</ele>
        <time>2024-01-12T11:42:57Z</time>
      </trkpt>
      <trkpt lat="42.91984" lon="0.3136">
        <ele>1747.08755</ele>
        <time>2024-01-12T11:42:59Z</time>
      </trkpt>
      <trkpt lat="42.91985" lon="0.31362">
        <ele>1748.87745</ele>
        <time>2024-01-12T11:43:01Z</time>
      </trkpt>
      <trkpt lat="42.91986" lon="0.31363">
        <ele>1747.71536</ele>
        <time>2024-01-12T11:43:06Z</time>
      </trkpt>
      <trkpt lat="42.91987" lon="0.31362">
        <ele>1748.5007</ele>
        <time>2024-01-12T11:43:20Z</time>
      </trkpt>
      <trkpt lat="42.91986" lon="0.31362">
        <ele>1746.71897</ele>
        <time>2024-01-12T11:43:23Z</time>
      </trkpt>
      <trkpt lat="42.91987" lon="0.31363">
        <ele>1754.46868</ele>
        <time>2024-01-12T11:43:48Z</time>
      </trkpt>
      <trkpt lat="42.91986" lon="0.31362">
        <ele>1747.32322</ele>
        <time>2024-01-12T11:49:03Z</time>
      </trkpt>
      <trkpt lat="42.91985" lon="0.31363">
        <ele>1747.4465</ele>
        <time>2024-01-12T11:49:16Z</time>
      </trkpt>
      <trkpt lat="42.91986" lon="0.31362">
        <ele>1748.28914</ele>
        <time>2024-01-12T11:50:36Z</time>
      </trkpt>
      <trkpt lat="42.91985" lon="0.31363">
        <ele>1747.85447</ele>
        <time>2024-01-12T11:50:40Z</time>
      </trkpt>
      <trkpt lat="42.91986" lon="0.31363">
        <ele>1747.08291</ele>
        <time>2024-01-12T11:51:05Z</time>
      </trkpt>
      <trkpt lat="42.91986" lon="0.31364">
        <ele>1748.84338</ele>
        <time>2024-01-12T11:51:54Z</time>
      </trkpt>
      <trkpt lat="42.91987" lon="0.31365">
        <ele>1750.86882</ele>
        <time>2024-01-12T11:52:20Z</time>
      </trkpt>
      <trkpt lat="42.91985" lon="0.31363">
        <ele>1744.15245</ele>
        <time>2024-01-12T11:52:37Z</time>
      </trkpt>
      <trkpt lat="42.91985" lon="0.31362">
        <ele>1743.50439</ele>
        <time>2024-01-12T11:53:00Z</time>
      </trkpt>
      <trkpt lat="42.91984" lon="0.31364">
        <ele>1743.97779</ele>
        <time>2024-01-12T11:53:23Z</time>
      </trkpt>
      <trkpt lat="42.91986" lon="0.31363">
        <ele>1745.85964</ele>
        <time>2024-01-12T11:53:39Z</time>
      </trkpt>
      <trkpt lat="42.91985" lon="0.31361">
        <ele>1744.31922</ele>
        <time>2024-01-12T11:53:56Z</time>
      </trkpt>
      <trkpt lat="42.91985" lon="0.31363">
        <ele>1745.83139</ele>
        <time>2024-01-12T11:53:59Z</time>
      </trkpt>
      <trkpt lat="42.91986" lon="0.31363">
        <ele>1747.29342</ele>
        <time>2024-01-12T11:55:22Z</time>
      </trkpt>
      <trkpt lat="42.91985" lon="0.31364">
        <ele>1744.8997</ele>
        <time>2024-01-12T11:55:29Z</time>
      </trkpt>
      <trkpt lat="42.91985" lon="0.31363">
        <ele>1744.67009</ele>
        <time>2024-01-12T11:56:19Z</time>
      </trkpt>
      <trkpt lat="42.91985" lon="0.31364">
        <ele>1746.0473</ele>
        <time>2024-01-12T11:56:39Z</time>
      </trkpt>
      <trkpt lat="42.91984" lon="0.31364">
        <ele>1746.15787</ele>
        <time>2024-01-12T11:57:06Z</time>
      </trkpt>
      <trkpt lat="42.91984" lon="0.31363">
        <ele>1747.34269</ele>
        <time>2024-01-12T11:57:14Z</time>
      </trkpt>
      <trkpt lat="42.91985" lon="0.31364">
        <ele>1746.90525</ele>
        <time>2024-01-12T11:57:17Z</time>
      </trkpt>
      <trkpt lat="42.91986" lon="0.31363">
        <ele>1748.28471</ele>
        <time>2024-01-12T11:57:32Z</time>
      </trkpt>
      <trkpt lat="42.91987" lon="0.31361">
        <ele>1750.68177</ele>
        <time>2024-01-12T11:57:45Z</time>
      </trkpt>
      <trkpt lat="42.91986" lon="0.31361">
        <ele>1743.82517</ele>
        <time>2024-01-12T11:59:15Z</time>
      </trkpt>
      <trkpt lat="42.91988" lon="0.31363">
        <ele>1753.47543</ele>
        <time>2024-01-12T12:01:54Z</time>
      </trkpt>
      <trkpt lat="42.91987" lon="0.31364">
        <ele>1751.3189</ele>
        <time>2024-01-12T12:01:57Z</time>
      </trkpt>
      <trkpt lat="42.91987" lon="0.31363">
        <ele>1750.22146</ele>
        <time>2024-01-12T12:01:58Z</time>
      </trkpt>
      <trkpt lat="42.91985" lon="0.31364">
        <ele>1746.5473</ele>
        <time>2024-01-12T12:02:26Z</time>
      </trkpt>
      <trkpt lat="42.91985" lon="0.31366">
        <ele>1744.86543</ele>
        <time>2024-01-12T12:02:29Z</time>
      </trkpt>
      <trkpt lat="42.91985" lon="0.31364">
        <ele>1745.89358</ele>
        <time>2024-01-12T12:02:30Z</time>
      </trkpt>
      <trkpt lat="42.91985" lon="0.31363">
        <ele>1745.65624</ele>
        <time>2024-01-12T12:02:52Z</time>
      </trkpt>
      <trkpt lat="42.91985" lon="0.31364">
        <ele>1744.28102</ele>
        <time>2024-01-12T12:03:24Z</time>
      </trkpt>
      <trkpt lat="42.91983" lon="0.31363">
        <ele>1744.34629</ele>
        <time>2024-01-12T12:05:16Z</time>
      </trkpt>
      <trkpt lat="42.91984" lon="0.31364">
        <ele>1744.12772</ele>
        <time>2024-01-12T12:05:19Z</time>
      </trkpt>
      <trkpt lat="42.91985" lon="0.31363">
        <ele>1744.05128</ele>
        <time>2024-01-12T12:06:25Z</time>
      </trkpt>
      <trkpt lat="42.91986" lon="0.31364">
        <ele>1748.21477</ele>
        <time>2024-01-12T12:07:00Z</time>
      </trkpt>
      <trkpt lat="42.91986" lon="0.31363">
        <ele>1746.31511</ele>
        <time>2024-01-12T12:07:50Z</time>
      </trkpt>
      <trkpt lat="42.91986" lon="0.31364">
        <ele>1747.65666</ele>
        <time>2024-01-12T12:08:28Z</time>
      </trkpt>
      <trkpt lat="42.91989" lon="0.31361">
        <ele>1747.80966</ele>
        <time>2024-01-12T12:08:47Z</time>
      </trkpt>
      <trkpt lat="42.91984" lon="0.31363">
        <ele>1742.34139</ele>
        <time>2024-01-12T12:09:13Z</time>
      </trkpt>
      <trkpt lat="42.91987" lon="0.31363">
        <ele>1754.50969</ele>
        <time>2024-01-12T12:12:03Z</time>
      </trkpt>
      <trkpt lat="42.91988" lon="0.31362">
        <ele>1753.53963</ele>
        <time>2024-01-12T12:12:05Z</time>
      </trkpt>
      <trkpt lat="42.91989" lon="0.3136">
        <ele>1747.78018</ele>
        <time>2024-01-12T12:12:15Z</time>
      </trkpt>
      <trkpt lat="42.91987" lon="0.31363">
        <ele>1748.1194</ele>
        <time>2024-01-12T12:12:26Z</time>
      </trkpt>
      <trkpt lat="42.91986" lon="0.31363">
        <ele>1746.01548</ele>
        <time>2024-01-12T12:12:27Z</time>
      </trkpt>
      <trkpt lat="42.91987" lon="0.31363">
        <ele>1747.90411</ele>
        <time>2024-01-12T12:12:28Z</time>
      </trkpt>
      <trkpt lat="42.91986" lon="0.31361">
        <ele>1748.85777</ele>
        <time>2024-01-12T12:12:32Z</time>
      </trkpt>
      <trkpt lat="42.91985" lon="0.3136">
        <ele>1748.85129</ele>
        <time>2024-01-12T12:12:33Z</time>
      </trkpt>
      <trkpt lat="42.91986" lon="0.3136">
        <ele>1747.69076</ele>
        <time>2024-01-12T12:12:34Z</time>
      </trkpt>
      <trkpt lat="42.91985" lon="0.31359">
        <ele>1746.7336</ele>
        <time>2024-01-12T12:12:39Z</time>
      </trkpt>
      <trkpt lat="42.91985" lon="0.31358">
        <ele>1745.70397</ele>
        <time>2024-01-12T12:12:40Z</time>
      </trkpt>
      <trkpt lat="42.91985" lon="0.3136">
        <ele>1746.56522</ele>
        <time>2024-01-12T12:12:54Z</time>
      </trkpt>
      <trkpt lat="42.91985" lon="0.31361">
        <ele>1746.87896</ele>
        <time>2024-01-12T12:12:56Z</time>
      </trkpt>
      <trkpt lat="42.91985" lon="0.31362">
        <ele>1746.11727</ele>
        <time>2024-01-12T12:13:00Z</time>
      </trkpt>
      <trkpt lat="42.91985" lon="0.31364">
        <ele>1747.06474</ele>
        <time>2024-01-12T12:13:02Z</time>
      </trkpt>
      <trkpt lat="42.91984" lon="0.31365">
        <ele>1745.91235</ele>
        <time>2024-01-12T12:13:16Z</time>
      </trkpt>
      <trkpt lat="42.91985" lon="0.31364">
        <ele>1745.33823</ele>
        <time>2024-01-12T12:13:20Z</time>
      </trkpt>
      <trkpt lat="42.91984" lon="0.31362">
        <ele>1742.9672</ele>
        <time>2024-01-12T12:13:31Z</time>
      </trkpt>
      <trkpt lat="42.91985" lon="0.31362">
        <ele>1743.55719</ele>
        <time>2024-01-12T12:13:43Z</time>
      </trkpt>
      <trkpt lat="42.91986" lon="0.3136">
        <ele>1743.22685</ele>
        <time>2024-01-12T12:13:45Z</time>
      </trkpt>
      <trkpt lat="42.91986" lon="0.31358">
        <ele>1743.00899</ele>
        <time>2024-01-12T12:13:46Z</time>
      </trkpt>
      <trkpt lat="42.91985" lon="0.31357">
        <ele>1744.20405</ele>
        <time>2024-01-12T12:13:47Z</time>
      </trkpt>
      <trkpt lat="42.91985" lon="0.31359">
        <ele>1744.21307</ele>
        <time>2024-01-12T12:14:09Z</time>
      </trkpt>
      <trkpt lat="42.91985" lon="0.31361">
        <ele>1745.41331</ele>
        <time>2024-01-12T12:14:10Z</time>
      </trkpt>
      <trkpt lat="42.91985" lon="0.31363">
        <ele>1746.33574</ele>
        <time>2024-01-12T12:14:11Z</time>
      </trkpt>
      <trkpt lat="42.91986" lon="0.31362">
        <ele>1747.55059</ele>
        <time>2024-01-12T12:14:13Z</time>
      </trkpt>
      <trkpt lat="42.91985" lon="0.31363">
        <ele>1746.99633</ele>
        <time>2024-01-12T12:14:22Z</time>
      </trkpt>
      <trkpt lat="42.91985" lon="0.31362">
        <ele>1746.63028</ele>
        <time>2024-01-12T12:14:25Z</time>
      </trkpt>
      <trkpt lat="42.91986" lon="0.3136">
        <ele>1746.81484</ele>
        <time>2024-01-12T12:14:26Z</time>
      </trkpt>
      <trkpt lat="42.91986" lon="0.31358">
        <ele>1746.76716</ele>
        <time>2024-01-12T12:14:27Z</time>
      </trkpt>
      <trkpt lat="42.91986" lon="0.31357">
        <ele>1746.31412</ele>
        <time>2024-01-12T12:14:30Z</time>
      </trkpt>
      <trkpt lat="42.91985" lon="0.31357">
        <ele>1746.02103</ele>
        <time>2024-01-12T12:14:32Z</time>
      </trkpt>
      <trkpt lat="42.91985" lon="0.31359">
        <ele>1744.61209</ele>
        <time>2024-01-12T12:14:50Z</time>
      </trkpt>
      <trkpt lat="42.91985" lon="0.3136">
        <ele>1745.91027</ele>
        <time>2024-01-12T12:14:54Z</time>
      </trkpt>
      <trkpt lat="42.91985" lon="0.31362">
        <ele>1744.19918</ele>
        <time>2024-01-12T12:15:09Z</time>
      </trkpt>
      <trkpt lat="42.91985" lon="0.31364">
        <ele>1743.96386</ele>
        <time>2024-01-12T12:15:38Z</time>
      </trkpt>
      <trkpt lat="42.91985" lon="0.31362">
        <ele>1743.43697</ele>
        <time>2024-01-12T12:15:42Z</time>
      </trkpt>
      <trkpt lat="42.91986" lon="0.31362">
        <ele>1745.65957</ele>
        <time>2024-01-12T12:16:32Z</time>
      </trkpt>
      <trkpt lat="42.91985" lon="0.31361">
        <ele>1745.53244</ele>
        <time>2024-01-12T12:17:13Z</time>
      </trkpt>
      <trkpt lat="42.91984" lon="0.31361">
        <ele>1742.2483</ele>
        <time>2024-01-12T12:17:51Z</time>
      </trkpt>
      <trkpt lat="42.91985" lon="0.31362">
        <ele>1744.20894</ele>
        <time>2024-01-12T12:18:14Z</time>
      </trkpt>
      <trkpt lat="42.91986" lon="0.31363">
        <ele>1747.07247</ele>
        <time>2024-01-12T12:18:26Z</time>
      </trkpt>
      <trkpt lat="42.91985" lon="0.31361">
        <ele>1743.78492</ele>
        <time>2024-01-12T12:18:42Z</time>
      </trkpt>
      <trkpt lat="42.91986" lon="0.31362">
        <ele>1743.98928</ele>
        <time>2024-01-12T12:18:53Z</time>
      </trkpt>
      <trkpt lat="42.91986" lon="0.31363">
        <ele>1745.01361</ele>
        <time>2024-01-12T12:19:14Z</time>
      </trkpt>
      <trkpt lat="42.91985" lon="0.31361">
        <ele>1742.87684</ele>
        <time>2024-01-12T12:19:17Z</time>
      </trkpt>
      <trkpt lat="42.91985" lon="0.31363">
        <ele>1743.23931</ele>
        <time>2024-01-12T12:19:40Z</time>
      </trkpt>
      <trkpt lat="42.91984" lon="0.31364">
        <ele>1744.15474</ele>
        <time>2024-01-12T12:20:28Z</time>
      </trkpt>
      <trkpt lat="42.91986" lon="0.31365">
        <ele>1744.98306</ele>
        <time>2024-01-12T12:20:43Z</time>
      </trkpt>
      <trkpt lat="42.91987" lon="0.31364">
        <ele>1744.95559</ele>
        <time>2024-01-12T12:20:53Z</time>
      </trkpt>
      <trkpt lat="42.91986" lon="0.31363">
        <ele>1743.23677</ele>
        <time>2024-01-12T12:21:08Z</time>
      </trkpt>
      <trkpt lat="42.91986" lon="0.31363">
        <ele>1744.2211</ele>
        <time>2024-01-12T12:21:58Z</time>
      </trkpt>
      <trkpt lat="42.91985" lon="0.31363">
        <ele>1741.93701</ele>
        <time>2024-01-12T12:22:11Z</time>
      </trkpt>
      <trkpt lat="42.91985" lon="0.31364">
        <ele>1743.44947</ele>
        <time>2024-01-12T12:22:25Z</time>
      </trkpt>
      <trkpt lat="42.91985" lon="0.31363">
        <ele>1743.05787</ele>
        <time>2024-01-12T12:22:51Z</time>
      </trkpt>
      <trkpt lat="42.91985" lon="0.31362">
        <ele>1741.86109</ele>
        <time>2024-01-12T12:23:31Z</time>
      </trkpt>
      <trkpt lat="42.91985" lon="0.31361">
        <ele>1740.99018</ele>
        <time>2024-01-12T12:23:41Z</time>
      </trkpt>
      <trkpt lat="42.91985" lon="0.31361">
        <ele>1741.37676</ele>
        <time>2024-01-12T12:23:53Z</time>
      </trkpt>
      <trkpt lat="42.91985" lon="0.31363">
        <ele>1741.5471</ele>
        <time>2024-01-12T12:24:03Z</time>
      </trkpt>
      <trkpt lat="42.91985" lon="0.31364">
        <ele>1745.06626</ele>
        <time>2024-01-12T12:24:36Z</time>
      </trkpt>
      <trkpt lat="42.91984" lon="0.31362">
        <ele>1743.74303</ele>
        <time>2024-01-12T12:24:51Z</time>
      </trkpt>
      <trkpt lat="42.91985" lon="0.31364">
        <ele>1746.19809</ele>
        <time>2024-01-12T12:25:07Z</time>
      </trkpt>
      <trkpt lat="42.91984" lon="0.31363">
        <ele>1747.01759</ele>
        <time>2024-01-12T12:25:12Z</time>
      </trkpt>
      <trkpt lat="42.91985" lon="0.31363">
        <ele>1743.89927</ele>
        <time>2024-01-12T12:25:32Z</time>
      </trkpt>
      <trkpt lat="42.91984" lon="0.31364">
        <ele>1742.26634</ele>
        <time>2024-01-12T12:25:40Z</time>
      </trkpt>
      <trkpt lat="42.91985" lon="0.31362">
        <ele>1744.34053</ele>
        <time>2024-01-12T12:26:01Z</time>
      </trkpt>
      <trkpt lat="42.91984" lon="0.31362">
        <ele>1745.31346</ele>
        <time>2024-01-12T12:26:07Z</time>
      </trkpt>
      <trkpt lat="42.91985" lon="0.31361">
        <ele>1746.20877</ele>
        <time>2024-01-12T12:26:18Z</time>
      </trkpt>
      <trkpt lat="42.91985" lon="0.31363">
        <ele>1746.15245</ele>
        <time>2024-01-12T12:26:53Z</time>
      </trkpt>
      <trkpt lat="42.91985" lon="0.31364">
        <ele>1745.24286</ele>
        <time>2024-01-12T12:27:39Z</time>
      </trkpt>
      <trkpt lat="42.91984" lon="0.31363">
        <ele>1746.67423</ele>
        <time>2024-01-12T12:28:03Z</time>
      </trkpt>
      <trkpt lat="42.91985" lon="0.31364">
        <ele>1746.63591</ele>
        <time>2024-01-12T12:28:10Z</time>
      </trkpt>
      <trkpt lat="42.91985" lon="0.31363">
        <ele>1747.26284</ele>
        <time>2024-01-12T12:28:26Z</time>
      </trkpt>
      <trkpt lat="42.91984" lon="0.31363">
        <ele>1747.21372</ele>
        <time>2024-01-12T12:28:58Z</time>
      </trkpt>
      <trkpt lat="42.91984" lon="0.31364">
        <ele>1744.20753</ele>
        <time>2024-01-12T12:30:09Z</time>
      </trkpt>
      <trkpt lat="42.91985" lon="0.31364">
        <ele>1745.12869</ele>
        <time>2024-01-12T12:30:16Z</time>
      </trkpt>
      <trkpt lat="42.91984" lon="0.31364">
        <ele>1744.187</ele>
        <time>2024-01-12T12:30:18Z</time>
      </trkpt>
      <trkpt lat="42.91985" lon="0.31364">
        <ele>1746.3224</ele>
        <time>2024-01-12T12:30:25Z</time>
      </trkpt>
      <trkpt lat="42.91984" lon="0.31364">
        <ele>1746.63321</ele>
        <time>2024-01-12T12:30:37Z</time>
      </trkpt>
      <trkpt lat="42.91985" lon="0.31366">
        <ele>1748.80884</ele>
        <time>2024-01-12T12:30:47Z</time>
      </trkpt>
      <trkpt lat="42.91985" lon="0.31365">
        <ele>1746.46561</ele>
        <time>2024-01-12T12:30:54Z</time>
      </trkpt>
      <trkpt lat="42.91985" lon="0.31364">
        <ele>1745.01765</ele>
        <time>2024-01-12T12:30:57Z</time>
      </trkpt>
      <trkpt lat="42.91984" lon="0.31365">
        <ele>1745.21737</ele>
        <time>2024-01-12T12:31:04Z</time>
      </trkpt>
      <trkpt lat="42.91985" lon="0.31364">
        <ele>1744.56051</ele>
        <time>2024-01-12T12:31:06Z</time>
      </trkpt>
      <trkpt lat="42.91985" lon="0.31362">
        <ele>1745.22253</ele>
        <time>2024-01-12T12:31:31Z</time>
      </trkpt>
      <trkpt lat="42.91984" lon="0.31363">
        <ele>1743.04418</ele>
        <time>2024-01-12T12:32:01Z</time>
      </trkpt>
      <trkpt lat="42.91984" lon="0.31362">
        <ele>1742.68155</ele>
        <time>2024-01-12T12:32:08Z</time>
      </trkpt>
      <trkpt lat="42.91984" lon="0.31363">
        <ele>1742.7049</ele>
        <time>2024-01-12T12:32:16Z</time>
      </trkpt>
      <trkpt lat="42.91984" lon="0.31364">
        <ele>1743.93985</ele>
        <time>2024-01-12T12:32:24Z</time>
      </trkpt>
      <trkpt lat="42.91985" lon="0.31363">
        <ele>1746.76805</ele>
        <time>2024-01-12T12:32:30Z</time>
      </trkpt>
      <trkpt lat="42.91985" lon="0.31366">
        <ele>1750.58676</ele>
        <time>2024-01-12T12:32:37Z</time>
      </trkpt>
      <trkpt lat="42.91984" lon="0.31366">
        <ele>1749.9839</ele>
        <time>2024-01-12T12:32:40Z</time>
      </trkpt>
      <trkpt lat="42.91983" lon="0.31367">
        <ele>1752.44607</ele>
        <time>2024-01-12T12:32:49Z</time>
      </trkpt>
      <trkpt lat="42.91984" lon="0.31365">
        <ele>1748.8091</ele>
        <time>2024-01-12T12:32:53Z</time>
      </trkpt>
      <trkpt lat="42.91985" lon="0.31365">
        <ele>1747.39133</ele>
        <time>2024-01-12T12:32:59Z</time>
      </trkpt>
      <trkpt lat="42.91985" lon="0.31363">
        <ele>1748.10003</ele>
        <time>2024-01-12T12:33:02Z</time>
      </trkpt>
      <trkpt lat="42.91986" lon="0.31364">
        <ele>1750.10201</ele>
        <time>2024-01-12T12:33:06Z</time>
      </trkpt>
      <trkpt lat="42.91985" lon="0.31365">
        <ele>1750.48525</ele>
        <time>2024-01-12T12:33:07Z</time>
      </trkpt>
      <trkpt lat="42.91984" lon="0.31366">
        <ele>1749.30278</ele>
        <time>2024-01-12T12:33:10Z</time>
      </trkpt>
      <trkpt lat="42.91984" lon="0.31365">
        <ele>1744.34843</ele>
        <time>2024-01-12T12:33:13Z</time>
      </trkpt>
      <trkpt lat="42.91985" lon="0.31364">
        <ele>1745.49951</ele>
        <time>2024-01-12T12:33:22Z</time>
      </trkpt>
      <trkpt lat="42.91986" lon="0.31364">
        <ele>1743.22319</ele>
        <time>2024-01-12T12:34:07Z</time>
      </trkpt>
      <trkpt lat="42.91984" lon="0.31362">
        <ele>1743.66876</ele>
        <time>2024-01-12T12:34:09Z</time>
      </trkpt>
      <trkpt lat="42.91985" lon="0.31361">
        <ele>1742.59962</ele>
        <time>2024-01-12T12:35:46Z</time>
      </trkpt>
      <trkpt lat="42.91985" lon="0.3136">
        <ele>1743.11268</ele>
        <time>2024-01-12T12:35:50Z</time>
      </trkpt>
      <trkpt lat="42.91985" lon="0.31358">
        <ele>1743.55804</ele>
        <time>2024-01-12T12:35:52Z</time>
      </trkpt>
      <trkpt lat="42.91983" lon="0.31358">
        <ele>1744.30298</ele>
        <time>2024-01-12T12:35:55Z</time>
      </trkpt>
      <trkpt lat="42.91984" lon="0.3136">
        <ele>1744.37514</ele>
        <time>2024-01-12T12:35:58Z</time>
      </trkpt>
      <trkpt lat="42.91983" lon="0.3136">
        <ele>1744.42067</ele>
        <time>2024-01-12T12:36:36Z</time>
      </trkpt>
      <trkpt lat="42.91982" lon="0.31359">
        <ele>1744.81954</ele>
        <time>2024-01-12T12:36:38Z</time>
      </trkpt>
      <trkpt lat="42.9198" lon="0.31359">
        <ele>1744.8756</ele>
        <time>2024-01-12T12:36:40Z</time>
      </trkpt>
      <trkpt lat="42.91979" lon="0.31359">
        <ele>1745.29761</ele>
        <time>2024-01-12T12:36:42Z</time>
      </trkpt>
      <trkpt lat="42.91977" lon="0.31359">
        <ele>1745.29101</ele>
        <time>2024-01-12T12:36:44Z</time>
      </trkpt>
      <trkpt lat="42.91976" lon="0.31359">
        <ele>1745.80725</ele>
        <time>2024-01-12T12:36:45Z</time>
      </trkpt>
      <trkpt lat="42.91975" lon="0.31359">
        <ele>1745.89837</ele>
        <time>2024-01-12T12:36:47Z</time>
      </trkpt>
      <trkpt lat="42.91974" lon="0.31358">
        <ele>1745.28752</ele>
        <time>2024-01-12T12:36:49Z</time>
      </trkpt>
      <trkpt lat="42.91973" lon="0.31358">
        <ele>1745.69655</ele>
        <time>2024-01-12T12:36:51Z</time>
      </trkpt>
      <trkpt lat="42.91973" lon="0.3136">
        <ele>1745.468</ele>
        <time>2024-01-12T12:36:56Z</time>
      </trkpt>
      <trkpt lat="42.91973" lon="0.31358">
        <ele>1744.14078</ele>
        <time>2024-01-12T12:37:16Z</time>
      </trkpt>
      <trkpt lat="42.91973" lon="0.31359">
        <ele>1745.35329</ele>
        <time>2024-01-12T12:37:20Z</time>
      </trkpt>
      <trkpt lat="42.91973" lon="0.31358">
        <ele>1743.63317</ele>
        <time>2024-01-12T12:37:26Z</time>
      </trkpt>
      <trkpt lat="42.91972" lon="0.3136">
        <ele>1743.91868</ele>
        <time>2024-01-12T12:37:30Z</time>
      </trkpt>
      <trkpt lat="42.91972" lon="0.31361">
        <ele>1745.61469</ele>
        <time>2024-01-12T12:37:44Z</time>
      </trkpt>
      <trkpt lat="42.9197" lon="0.3136">
        <ele>1742.8924</ele>
        <time>2024-01-12T12:37:48Z</time>
      </trkpt>
      <trkpt lat="42.91969" lon="0.3136">
        <ele>1743.17844</ele>
        <time>2024-01-12T12:37:50Z</time>
      </trkpt>
      <trkpt lat="42.91968" lon="0.3136">
        <ele>1742.94966</ele>
        <time>2024-01-12T12:37:51Z</time>
      </trkpt>
      <trkpt lat="42.91967" lon="0.3136">
        <ele>1743.08611</ele>
        <time>2024-01-12T12:37:53Z</time>
      </trkpt>
      <trkpt lat="42.91966" lon="0.3136">
        <ele>1742.87427</ele>
        <time>2024-01-12T12:37:55Z</time>
      </trkpt>
      <trkpt lat="42.91964" lon="0.3136">
        <ele>1743.34578</ele>
        <time>2024-01-12T12:37:56Z</time>
      </trkpt>
      <trkpt lat="42.91963" lon="0.3136">
        <ele>1743.79598</ele>
        <time>2024-01-12T12:37:58Z</time>
      </trkpt>
      <trkpt lat="42.91962" lon="0.3136">
        <ele>1744.45522</ele>
        <time>2024-01-12T12:38:00Z</time>
      </trkpt>
      <trkpt lat="42.9196" lon="0.3136">
        <ele>1745.23264</ele>
        <time>2024-01-12T12:38:02Z</time>
      </trkpt>
      <trkpt lat="42.91959" lon="0.3136">
        <ele>1744.70121</ele>
        <time>2024-01-12T12:38:03Z</time>
      </trkpt>
      <trkpt lat="42.91958" lon="0.31361">
        <ele>1745.0599</ele>
        <time>2024-01-12T12:38:06Z</time>
      </trkpt>
      <trkpt lat="42.91957" lon="0.31361">
        <ele>1745.3775</ele>
        <time>2024-01-12T12:38:07Z</time>
      </trkpt>
      <trkpt lat="42.91956" lon="0.31361">
        <ele>1744.72256</ele>
        <time>2024-01-12T12:38:09Z</time>
      </trkpt>
      <trkpt lat="42.91954" lon="0.3136">
        <ele>1744.64118</ele>
        <time>2024-01-12T12:38:10Z</time>
      </trkpt>
      <trkpt lat="42.91953" lon="0.3136">
        <ele>1744.12468</ele>
        <time>2024-01-12T12:38:11Z</time>
      </trkpt>
      <trkpt lat="42.91952" lon="0.3136">
        <ele>1744.11765</ele>
        <time>2024-01-12T12:38:13Z</time>
      </trkpt>
      <trkpt lat="42.91951" lon="0.3136">
        <ele>1744.76311</ele>
        <time>2024-01-12T12:38:15Z</time>
      </trkpt>
      <trkpt lat="42.91949" lon="0.3136">
        <ele>1745.08554</ele>
        <time>2024-01-12T12:38:17Z</time>
      </trkpt>
      <trkpt lat="42.91948" lon="0.31361">
        <ele>1744.48523</ele>
        <time>2024-01-12T12:38:20Z</time>
      </trkpt>
      <trkpt lat="42.91947" lon="0.31362">
        <ele>1744.6993</ele>
        <time>2024-01-12T12:38:23Z</time>
      </trkpt>
      <trkpt lat="42.91948" lon="0.31364">
        <ele>1744.03119</ele>
        <time>2024-01-12T12:38:28Z</time>
      </trkpt>
      <trkpt lat="42.91947" lon="0.31363">
        <ele>1743.51085</ele>
        <time>2024-01-12T12:38:30Z</time>
      </trkpt>
      <trkpt lat="42.91948" lon="0.31362">
        <ele>1741.90948</ele>
        <time>2024-01-12T12:38:52Z</time>
      </trkpt>
      <trkpt lat="42.91947" lon="0.31361">
        <ele>1741.20495</ele>
        <time>2024-01-12T12:39:08Z</time>
      </trkpt>
      <trkpt lat="42.91948" lon="0.31362">
        <ele>1745.00172</ele>
        <time>2024-01-12T12:39:56Z</time>
      </trkpt>
      <trkpt lat="42.91948" lon="0.31363">
        <ele>1747.83241</ele>
        <time>2024-01-12T12:41:04Z</time>
      </trkpt>
      <trkpt lat="42.91949" lon="0.31363">
        <ele>1747.60269</ele>
        <time>2024-01-12T12:41:09Z</time>
      </trkpt>
      <trkpt lat="42.91949" lon="0.31361">
        <ele>1747.42517</ele>
        <time>2024-01-12T12:41:14Z</time>
      </trkpt>
      <trkpt lat="42.91947" lon="0.31361">
        <ele>1747.40883</ele>
        <time>2024-01-12T12:41:16Z</time>
      </trkpt>
      <trkpt lat="42.91946" lon="0.3136">
        <ele>1747.77315</ele>
        <time>2024-01-12T12:41:18Z</time>
      </trkpt>
      <trkpt lat="42.91945" lon="0.3136">
        <ele>1747.72017</ele>
        <time>2024-01-12T12:41:20Z</time>
      </trkpt>
      <trkpt lat="42.91943" lon="0.31359">
        <ele>1748.48446</ele>
        <time>2024-01-12T12:41:25Z</time>
      </trkpt>
      <trkpt lat="42.91942" lon="0.31359">
        <ele>1748.71311</ele>
        <time>2024-01-12T12:41:26Z</time>
      </trkpt>
      <trkpt lat="42.9194" lon="0.3136">
        <ele>1748.40249</ele>
        <time>2024-01-12T12:41:28Z</time>
      </trkpt>
      <trkpt lat="42.91939" lon="0.31361">
        <ele>1747.75416</ele>
        <time>2024-01-12T12:41:30Z</time>
      </trkpt>
      <trkpt lat="42.91937" lon="0.3136">
        <ele>1746.76213</ele>
        <time>2024-01-12T12:41:32Z</time>
      </trkpt>
      <trkpt lat="42.91935" lon="0.3136">
        <ele>1746.65971</ele>
        <time>2024-01-12T12:41:34Z</time>
      </trkpt>
      <trkpt lat="42.91935" lon="0.3136">
        <ele>1746.56483</ele>
        <time>2024-01-12T12:41:35Z</time>
      </trkpt>
      <trkpt lat="42.91934" lon="0.3136">
        <ele>1746.19486</ele>
        <time>2024-01-12T12:41:37Z</time>
      </trkpt>
      <trkpt lat="42.91933" lon="0.3136">
        <ele>1746.13612</ele>
        <time>2024-01-12T12:41:38Z</time>
      </trkpt>
      <trkpt lat="42.91931" lon="0.31359">
        <ele>1746.48095</ele>
        <time>2024-01-12T12:41:40Z</time>
      </trkpt>
      <trkpt lat="42.9193" lon="0.31359">
        <ele>1746.63654</ele>
        <time>2024-01-12T12:41:42Z</time>
      </trkpt>
      <trkpt lat="42.91928" lon="0.31359">
        <ele>1745.84615</ele>
        <time>2024-01-12T12:41:44Z</time>
      </trkpt>
      <trkpt lat="42.91927" lon="0.31358">
        <ele>1745.87397</ele>
        <time>2024-01-12T12:41:45Z</time>
      </trkpt>
      <trkpt lat="42.91925" lon="0.31358">
        <ele>1746.0609</ele>
        <time>2024-01-12T12:41:47Z</time>
      </trkpt>
      <trkpt lat="42.91924" lon="0.31358">
        <ele>1745.15983</ele>
        <time>2024-01-12T12:41:49Z</time>
      </trkpt>
      <trkpt lat="42.91923" lon="0.31357">
        <ele>1745.92527</ele>
        <time>2024-01-12T12:41:50Z</time>
      </trkpt>
      <trkpt lat="42.91922" lon="0.31357">
        <ele>1745.41475</ele>
        <time>2024-01-12T12:41:51Z</time>
      </trkpt>
      <trkpt lat="42.91921" lon="0.31357">
        <ele>1746.12923</ele>
        <time>2024-01-12T12:41:52Z</time>
      </trkpt>
      <trkpt lat="42.91921" lon="0.31358">
        <ele>1746.66615</ele>
        <time>2024-01-12T12:41:54Z</time>
      </trkpt>
      <trkpt lat="42.9192" lon="0.31358">
        <ele>1745.85838</ele>
        <time>2024-01-12T12:41:56Z</time>
      </trkpt>
      <trkpt lat="42.91918" lon="0.31357">
        <ele>1746.55367</ele>
        <time>2024-01-12T12:41:59Z</time>
      </trkpt>
      <trkpt lat="42.91918" lon="0.31356">
        <ele>1747.60136</ele>
        <time>2024-01-12T12:42:07Z</time>
      </trkpt>
      <trkpt lat="42.91917" lon="0.31356">
        <ele>1748.05517</ele>
        <time>2024-01-12T12:42:11Z</time>
      </trkpt>
      <trkpt lat="42.91917" lon="0.31355">
        <ele>1747.03123</ele>
        <time>2024-01-12T12:42:21Z</time>
      </trkpt>
      <trkpt lat="42.91917" lon="0.31354">
        <ele>1746.46882</ele>
        <time>2024-01-12T12:42:53Z</time>
      </trkpt>
      <trkpt lat="42.91916" lon="0.31354">
        <ele>1753.18922</ele>
        <time>2024-01-12T12:43:09Z</time>
      </trkpt>
      <trkpt lat="42.91914" lon="0.31353">
        <ele>1749.36053</ele>
        <time>2024-01-12T12:43:16Z</time>
      </trkpt>
      <trkpt lat="42.91913" lon="0.31353">
        <ele>1749.75036</ele>
        <time>2024-01-12T12:43:17Z</time>
      </trkpt>
      <trkpt lat="42.91912" lon="0.31352">
        <ele>1750.31256</ele>
        <time>2024-01-12T12:43:18Z</time>
      </trkpt>
      <trkpt lat="42.91911" lon="0.31351">
        <ele>1750.38645</ele>
        <time>2024-01-12T12:43:20Z</time>
      </trkpt>
      <trkpt lat="42.9191" lon="0.3135">
        <ele>1749.65437</ele>
        <time>2024-01-12T12:43:21Z</time>
      </trkpt>
      <trkpt lat="42.91909" lon="0.31349">
        <ele>1749.56399</ele>
        <time>2024-01-12T12:43:23Z</time>
      </trkpt>
      <trkpt lat="42.91908" lon="0.31348">
        <ele>1749.09131</ele>
        <time>2024-01-12T12:43:26Z</time>
      </trkpt>
      <trkpt lat="42.91908" lon="0.31347">
        <ele>1748.18872</ele>
        <time>2024-01-12T12:43:27Z</time>
      </trkpt>
      <trkpt lat="42.91907" lon="0.31346">
        <ele>1747.97262</ele>
        <time>2024-01-12T12:43:28Z</time>
      </trkpt>
      <trkpt lat="42.91906" lon="0.31346">
        <ele>1747.22502</ele>
        <time>2024-01-12T12:43:30Z</time>
      </trkpt>
      <trkpt lat="42.91905" lon="0.31345">
        <ele>1747.13114</ele>
        <time>2024-01-12T12:43:31Z</time>
      </trkpt>
      <trkpt lat="42.91904" lon="0.31344">
        <ele>1748.37914</ele>
        <time>2024-01-12T12:43:32Z</time>
      </trkpt>
      <trkpt lat="42.91903" lon="0.31344">
        <ele>1747.987</ele>
        <time>2024-01-12T12:43:33Z</time>
      </trkpt>
      <trkpt lat="42.91901" lon="0.31342">
        <ele>1747.61547</ele>
        <time>2024-01-12T12:43:34Z</time>
      </trkpt>
      <trkpt lat="42.919" lon="0.31341">
        <ele>1747.6526</ele>
        <time>2024-01-12T12:43:36Z</time>
      </trkpt>
      <trkpt lat="42.91899" lon="0.31341">
        <ele>1746.95544</ele>
        <time>2024-01-12T12:43:38Z</time>
      </trkpt>
      <trkpt lat="42.91898" lon="0.31341">
        <ele>1746.51019</ele>
        <time>2024-01-12T12:43:39Z</time>
      </trkpt>
      <trkpt lat="42.91896" lon="0.31341">
        <ele>1745.86438</ele>
        <time>2024-01-12T12:43:41Z</time>
      </trkpt>
      <trkpt lat="42.91895" lon="0.31341">
        <ele>1745.43713</ele>
        <time>2024-01-12T12:43:42Z</time>
      </trkpt>
      <trkpt lat="42.91895" lon="0.31339">
        <ele>1744.29624</ele>
        <time>2024-01-12T12:43:44Z</time>
      </trkpt>
      <trkpt lat="42.91894" lon="0.31338">
        <ele>1743.5429</ele>
        <time>2024-01-12T12:43:48Z</time>
      </trkpt>
      <trkpt lat="42.91892" lon="0.31338">
        <ele>1743.9567</ele>
        <time>2024-01-12T12:43:49Z</time>
      </trkpt>
      <trkpt lat="42.91891" lon="0.31337">
        <ele>1744.01786</ele>
        <time>2024-01-12T12:43:51Z</time>
      </trkpt>
      <trkpt lat="42.9189" lon="0.31336">
        <ele>1744.95487</ele>
        <time>2024-01-12T12:43:52Z</time>
      </trkpt>
      <trkpt lat="42.91889" lon="0.31335">
        <ele>1744.1829</ele>
        <time>2024-01-12T12:43:54Z</time>
      </trkpt>
      <trkpt lat="42.91888" lon="0.31335">
        <ele>1745.0353</ele>
        <time>2024-01-12T12:43:55Z</time>
      </trkpt>
      <trkpt lat="42.91887" lon="0.31335">
        <ele>1745.42634</ele>
        <time>2024-01-12T12:43:56Z</time>
      </trkpt>
      <trkpt lat="42.91885" lon="0.31334">
        <ele>1746.43328</ele>
        <time>2024-01-12T12:43:57Z</time>
      </trkpt>
      <trkpt lat="42.91884" lon="0.31333">
        <ele>1746.48136</ele>
        <time>2024-01-12T12:43:59Z</time>
      </trkpt>
      <trkpt lat="42.91882" lon="0.31331">
        <ele>1745.43261</ele>
        <time>2024-01-12T12:44:01Z</time>
      </trkpt>
      <trkpt lat="42.91881" lon="0.3133">
        <ele>1744.71019</ele>
        <time>2024-01-12T12:44:03Z</time>
      </trkpt>
      <trkpt lat="42.91879" lon="0.31328">
        <ele>1744.78415</ele>
        <time>2024-01-12T12:44:05Z</time>
      </trkpt>
      <trkpt lat="42.91878" lon="0.31328">
        <ele>1744.46773</ele>
        <time>2024-01-12T12:44:07Z</time>
      </trkpt>
      <trkpt lat="42.91876" lon="0.31327">
        <ele>1743.60065</ele>
        <time>2024-01-12T12:44:09Z</time>
      </trkpt>
      <trkpt lat="42.91875" lon="0.31326">
        <ele>1743.0861</ele>
        <time>2024-01-12T12:44:11Z</time>
      </trkpt>
      <trkpt lat="42.91873" lon="0.31325">
        <ele>1742.53601</ele>
        <time>2024-01-12T12:44:13Z</time>
      </trkpt>
      <trkpt lat="42.91873" lon="0.31325">
        <ele>1743.29503</ele>
        <time>2024-01-12T12:44:15Z</time>
      </trkpt>
      <trkpt lat="42.91872" lon="0.31324">
        <ele>1742.39336</ele>
        <time>2024-01-12T12:44:16Z</time>
      </trkpt>
      <trkpt lat="42.91871" lon="0.31323">
        <ele>1742.09247</ele>
        <time>2024-01-12T12:44:17Z</time>
      </trkpt>
      <trkpt lat="42.9187" lon="0.31322">
        <ele>1742.06407</ele>
        <time>2024-01-12T12:44:19Z</time>
      </trkpt>
      <trkpt lat="42.91869" lon="0.31321">
        <ele>1740.80091</ele>
        <time>2024-01-12T12:44:21Z</time>
      </trkpt>
      <trkpt lat="42.91867" lon="0.31319">
        <ele>1740.14684</ele>
        <time>2024-01-12T12:44:23Z</time>
      </trkpt>
      <trkpt lat="42.91866" lon="0.31319">
        <ele>1739.69578</ele>
        <time>2024-01-12T12:44:24Z</time>
      </trkpt>
      <trkpt lat="42.91865" lon="0.31318">
        <ele>1739.56916</ele>
        <time>2024-01-12T12:44:25Z</time>
      </trkpt>
      <trkpt lat="42.91864" lon="0.31317">
        <ele>1738.25271</ele>
        <time>2024-01-12T12:44:27Z</time>
      </trkpt>
      <trkpt lat="42.91863" lon="0.31316">
        <ele>1738.99184</ele>
        <time>2024-01-12T12:44:29Z</time>
      </trkpt>
      <trkpt lat="42.91862" lon="0.31315">
        <ele>1738.92861</ele>
        <time>2024-01-12T12:44:30Z</time>
      </trkpt>
      <trkpt lat="42.91862" lon="0.31314">
        <ele>1737.73079</ele>
        <time>2024-01-12T12:44:31Z</time>
      </trkpt>
      <trkpt lat="42.9186" lon="0.31312">
        <ele>1738.06602</ele>
        <time>2024-01-12T12:44:34Z</time>
      </trkpt>
      <trkpt lat="42.91859" lon="0.31311">
        <ele>1737.88964</ele>
        <time>2024-01-12T12:44:36Z</time>
      </trkpt>
      <trkpt lat="42.91859" lon="0.31309">
        <ele>1738.14008</ele>
        <time>2024-01-12T12:44:37Z</time>
      </trkpt>
      <trkpt lat="42.91858" lon="0.31308">
        <ele>1737.10683</ele>
        <time>2024-01-12T12:44:39Z</time>
      </trkpt>
      <trkpt lat="42.91857" lon="0.31307">
        <ele>1736.46195</ele>
        <time>2024-01-12T12:44:40Z</time>
      </trkpt>
      <trkpt lat="42.91856" lon="0.31307">
        <ele>1737.35079</ele>
        <time>2024-01-12T12:44:41Z</time>
      </trkpt>
      <trkpt lat="42.91855" lon="0.31305">
        <ele>1737.65795</ele>
        <time>2024-01-12T12:44:42Z</time>
      </trkpt>
      <trkpt lat="42.91854" lon="0.31304">
        <ele>1735.57314</ele>
        <time>2024-01-12T12:44:45Z</time>
      </trkpt>
      <trkpt lat="42.91853" lon="0.31302">
        <ele>1735.34625</ele>
        <time>2024-01-12T12:44:47Z</time>
      </trkpt>
      <trkpt lat="42.91852" lon="0.313">
        <ele>1737.55426</ele>
        <time>2024-01-12T12:44:49Z</time>
      </trkpt>
      <trkpt lat="42.9185" lon="0.313">
        <ele>1737.36253</ele>
        <time>2024-01-12T12:44:51Z</time>
      </trkpt>
      <trkpt lat="42.91849" lon="0.31298">
        <ele>1737.36912</ele>
        <time>2024-01-12T12:44:53Z</time>
      </trkpt>
      <trkpt lat="42.91848" lon="0.31297">
        <ele>1737.30053</ele>
        <time>2024-01-12T12:44:56Z</time>
      </trkpt>
      <trkpt lat="42.91847" lon="0.31296">
        <ele>1734.11112</ele>
        <time>2024-01-12T12:45:05Z</time>
      </trkpt>
      <trkpt lat="42.91848" lon="0.31295">
        <ele>1736.18306</ele>
        <time>2024-01-12T12:45:28Z</time>
      </trkpt>
      <trkpt lat="42.91848" lon="0.31296">
        <ele>1737.38568</ele>
        <time>2024-01-12T12:45:39Z</time>
      </trkpt>
      <trkpt lat="42.91849" lon="0.31296">
        <ele>1737.33136</ele>
        <time>2024-01-12T12:45:48Z</time>
      </trkpt>
      <trkpt lat="42.91848" lon="0.31295">
        <ele>1734.79496</ele>
        <time>2024-01-12T12:45:58Z</time>
      </trkpt>
      <trkpt lat="42.91847" lon="0.31294">
        <ele>1734.22085</ele>
        <time>2024-01-12T12:46:11Z</time>
      </trkpt>
      <trkpt lat="42.91848" lon="0.31293">
        <ele>1733.07468</ele>
        <time>2024-01-12T12:46:13Z</time>
      </trkpt>
      <trkpt lat="42.91847" lon="0.31294">
        <ele>1734.32201</ele>
        <time>2024-01-12T12:46:24Z</time>
      </trkpt>
      <trkpt lat="42.91847" lon="0.31293">
        <ele>1734.11234</ele>
        <time>2024-01-12T12:46:36Z</time>
      </trkpt>
      <trkpt lat="42.91847" lon="0.31291">
        <ele>1734.35366</ele>
        <time>2024-01-12T12:46:38Z</time>
      </trkpt>
      <trkpt lat="42.91847" lon="0.31289">
        <ele>1734.0002</ele>
        <time>2024-01-12T12:46:40Z</time>
      </trkpt>
      <trkpt lat="42.91847" lon="0.31288">
        <ele>1733.94416</ele>
        <time>2024-01-12T12:46:41Z</time>
      </trkpt>
      <trkpt lat="42.91848" lon="0.31287">
        <ele>1733.9517</ele>
        <time>2024-01-12T12:46:42Z</time>
      </trkpt>
      <trkpt lat="42.91848" lon="0.31285">
        <ele>1734.20727</ele>
        <time>2024-01-12T12:46:44Z</time>
      </trkpt>
      <trkpt lat="42.91849" lon="0.31283">
        <ele>1733.58941</ele>
        <time>2024-01-12T12:46:46Z</time>
      </trkpt>
      <trkpt lat="42.91849" lon="0.31281">
        <ele>1733.47503</ele>
        <time>2024-01-12T12:46:47Z</time>
      </trkpt>
      <trkpt lat="42.91848" lon="0.31278">
        <ele>1733.84452</ele>
        <time>2024-01-12T12:46:49Z</time>
      </trkpt>
      <trkpt lat="42.91849" lon="0.31275">
        <ele>1732.65528</ele>
        <time>2024-01-12T12:46:51Z</time>
      </trkpt>
      <trkpt lat="42.91849" lon="0.31274">
        <ele>1732.50838</ele>
        <time>2024-01-12T12:46:52Z</time>
      </trkpt>
      <trkpt lat="42.9185" lon="0.31272">
        <ele>1732.45937</ele>
        <time>2024-01-12T12:46:54Z</time>
      </trkpt>
      <trkpt lat="42.91851" lon="0.3127">
        <ele>1732.06014</ele>
        <time>2024-01-12T12:46:56Z</time>
      </trkpt>
      <trkpt lat="42.91851" lon="0.31269">
        <ele>1732.00405</ele>
        <time>2024-01-12T12:46:57Z</time>
      </trkpt>
      <trkpt lat="42.91852" lon="0.31267">
        <ele>1731.22474</ele>
        <time>2024-01-12T12:46:59Z</time>
      </trkpt>
      <trkpt lat="42.91852" lon="0.31265">
        <ele>1731.03687</ele>
        <time>2024-01-12T12:47:00Z</time>
      </trkpt>
      <trkpt lat="42.91852" lon="0.31264">
        <ele>1730.45158</ele>
        <time>2024-01-12T12:47:01Z</time>
      </trkpt>
      <trkpt lat="42.91853" lon="0.31261">
        <ele>1730.42452</ele>
        <time>2024-01-12T12:47:03Z</time>
      </trkpt>
      <trkpt lat="42.91853" lon="0.3126">
        <ele>1730.0469</ele>
        <time>2024-01-12T12:47:04Z</time>
      </trkpt>
      <trkpt lat="42.91854" lon="0.31258">
        <ele>1730.37153</ele>
        <time>2024-01-12T12:47:06Z</time>
      </trkpt>
      <trkpt lat="42.91854" lon="0.31256">
        <ele>1729.96403</ele>
        <time>2024-01-12T12:47:08Z</time>
      </trkpt>
      <trkpt lat="42.91855" lon="0.31254">
        <ele>1730.08828</ele>
        <time>2024-01-12T12:47:09Z</time>
      </trkpt>
      <trkpt lat="42.91855" lon="0.31253">
        <ele>1730.36158</ele>
        <time>2024-01-12T12:47:11Z</time>
      </trkpt>
      <trkpt lat="42.91855" lon="0.31251">
        <ele>1730.69971</ele>
        <time>2024-01-12T12:47:13Z</time>
      </trkpt>
      <trkpt lat="42.91855" lon="0.31249">
        <ele>1732.20544</ele>
        <time>2024-01-12T12:47:14Z</time>
      </trkpt>
      <trkpt lat="42.91855" lon="0.31247">
        <ele>1730.94844</ele>
        <time>2024-01-12T12:47:15Z</time>
      </trkpt>
      <trkpt lat="42.91855" lon="0.31244">
        <ele>1728.98344</ele>
        <time>2024-01-12T12:47:17Z</time>
      </trkpt>
      <trkpt lat="42.91856" lon="0.31242">
        <ele>1730.23558</ele>
        <time>2024-01-12T12:47:19Z</time>
      </trkpt>
      <trkpt lat="42.91856" lon="0.31241">
        <ele>1727.66947</ele>
        <time>2024-01-12T12:47:21Z</time>
      </trkpt>
      <trkpt lat="42.91857" lon="0.31239">
        <ele>1728.09834</ele>
        <time>2024-01-12T12:47:22Z</time>
      </trkpt>
      <trkpt lat="42.91857" lon="0.31238">
        <ele>1727.72515</ele>
        <time>2024-01-12T12:47:23Z</time>
      </trkpt>
      <trkpt lat="42.91858" lon="0.31236">
        <ele>1728.31053</ele>
        <time>2024-01-12T12:47:25Z</time>
      </trkpt>
      <trkpt lat="42.91858" lon="0.31235">
        <ele>1727.8686</ele>
        <time>2024-01-12T12:47:26Z</time>
      </trkpt>
      <trkpt lat="42.91858" lon="0.31233">
        <ele>1728.13318</ele>
        <time>2024-01-12T12:47:27Z</time>
      </trkpt>
      <trkpt lat="42.91859" lon="0.31232">
        <ele>1728.36181</ele>
        <time>2024-01-12T12:47:28Z</time>
      </trkpt>
      <trkpt lat="42.9186" lon="0.31231">
        <ele>1728.30793</ele>
        <time>2024-01-12T12:47:29Z</time>
      </trkpt>
      <trkpt lat="42.9186" lon="0.31229">
        <ele>1728.63451</ele>
        <time>2024-01-12T12:47:30Z</time>
      </trkpt>
      <trkpt lat="42.9186" lon="0.31227">
        <ele>1728.99882</ele>
        <time>2024-01-12T12:47:32Z</time>
      </trkpt>
      <trkpt lat="42.9186" lon="0.31225">
        <ele>1729.06992</ele>
        <time>2024-01-12T12:47:34Z</time>
      </trkpt>
      <trkpt lat="42.9186" lon="0.31223">
        <ele>1729.00395</ele>
        <time>2024-01-12T12:47:36Z</time>
      </trkpt>
      <trkpt lat="42.9186" lon="0.31221">
        <ele>1729.07229</ele>
        <time>2024-01-12T12:47:38Z</time>
      </trkpt>
      <trkpt lat="42.9186" lon="0.31223">
        <ele>1729.32298</ele>
        <time>2024-01-12T12:47:47Z</time>
      </trkpt>
      <trkpt lat="42.9186" lon="0.31222">
        <ele>1730.72693</ele>
        <time>2024-01-12T12:47:52Z</time>
      </trkpt>
      <trkpt lat="42.9186" lon="0.31221">
        <ele>1730.56927</ele>
        <time>2024-01-12T12:47:53Z</time>
      </trkpt>
      <trkpt lat="42.91861" lon="0.31218">
        <ele>1730.15681</ele>
        <time>2024-01-12T12:47:55Z</time>
      </trkpt>
      <trkpt lat="42.91861" lon="0.31216">
        <ele>1730.46742</ele>
        <time>2024-01-12T12:47:56Z</time>
      </trkpt>
      <trkpt lat="42.91862" lon="0.31215">
        <ele>1729.72729</ele>
        <time>2024-01-12T12:47:57Z</time>
      </trkpt>
      <trkpt lat="42.91861" lon="0.31212">
        <ele>1729.25159</ele>
        <time>2024-01-12T12:47:59Z</time>
      </trkpt>
      <trkpt lat="42.91861" lon="0.31211">
        <ele>1728.80854</ele>
        <time>2024-01-12T12:48:00Z</time>
      </trkpt>
      <trkpt lat="42.91861" lon="0.31209">
        <ele>1728.74515</ele>
        <time>2024-01-12T12:48:01Z</time>
      </trkpt>
      <trkpt lat="42.91861" lon="0.31206">
        <ele>1728.32083</ele>
        <time>2024-01-12T12:48:03Z</time>
      </trkpt>
      <trkpt lat="42.91862" lon="0.31204">
        <ele>1728.30652</ele>
        <time>2024-01-12T12:48:04Z</time>
      </trkpt>
      <trkpt lat="42.91861" lon="0.31201">
        <ele>1728.37754</ele>
        <time>2024-01-12T12:48:06Z</time>
      </trkpt>
      <trkpt lat="42.91861" lon="0.312">
        <ele>1728.02693</ele>
        <time>2024-01-12T12:48:07Z</time>
      </trkpt>
      <trkpt lat="42.91861" lon="0.31198">
        <ele>1727.40736</ele>
        <time>2024-01-12T12:48:08Z</time>
      </trkpt>
      <trkpt lat="42.91862" lon="0.31195">
        <ele>1726.54843</ele>
        <time>2024-01-12T12:48:10Z</time>
      </trkpt>
      <trkpt lat="42.91861" lon="0.31194">
        <ele>1726.39443</ele>
        <time>2024-01-12T12:48:11Z</time>
      </trkpt>
      <trkpt lat="42.91861" lon="0.31192">
        <ele>1726.31369</ele>
        <time>2024-01-12T12:48:13Z</time>
      </trkpt>
      <trkpt lat="42.91861" lon="0.31191">
        <ele>1725.90568</ele>
        <time>2024-01-12T12:48:14Z</time>
      </trkpt>
      <trkpt lat="42.91861" lon="0.31189">
        <ele>1725.20777</ele>
        <time>2024-01-12T12:48:15Z</time>
      </trkpt>
      <trkpt lat="42.91861" lon="0.31187">
        <ele>1725.28487</ele>
        <time>2024-01-12T12:48:17Z</time>
      </trkpt>
      <trkpt lat="42.91862" lon="0.31185">
        <ele>1724.96094</ele>
        <time>2024-01-12T12:48:18Z</time>
      </trkpt>
      <trkpt lat="42.91862" lon="0.31184">
        <ele>1725.31537</ele>
        <time>2024-01-12T12:48:20Z</time>
      </trkpt>
      <trkpt lat="42.91864" lon="0.31182">
        <ele>1725.39958</ele>
        <time>2024-01-12T12:48:21Z</time>
      </trkpt>
      <trkpt lat="42.91864" lon="0.3118">
        <ele>1725.46756</ele>
        <time>2024-01-12T12:48:23Z</time>
      </trkpt>
      <trkpt lat="42.91864" lon="0.31178">
        <ele>1725.60635</ele>
        <time>2024-01-12T12:48:24Z</time>
      </trkpt>
      <trkpt lat="42.91864" lon="0.31176">
        <ele>1724.95286</ele>
        <time>2024-01-12T12:48:25Z</time>
      </trkpt>
      <trkpt lat="42.91864" lon="0.31174">
        <ele>1725.01886</ele>
        <time>2024-01-12T12:48:27Z</time>
      </trkpt>
      <trkpt lat="42.91865" lon="0.31171">
        <ele>1724.49137</ele>
        <time>2024-01-12T12:48:29Z</time>
      </trkpt>
      <trkpt lat="42.91865" lon="0.31169">
        <ele>1723.65828</ele>
        <time>2024-01-12T12:48:31Z</time>
      </trkpt>
      <trkpt lat="42.91865" lon="0.31167">
        <ele>1724.17285</ele>
        <time>2024-01-12T12:48:32Z</time>
      </trkpt>
      <trkpt lat="42.91865" lon="0.31165">
        <ele>1724.5378</ele>
        <time>2024-01-12T12:48:34Z</time>
      </trkpt>
      <trkpt lat="42.91866" lon="0.31163">
        <ele>1724.08483</ele>
        <time>2024-01-12T12:48:35Z</time>
      </trkpt>
      <trkpt lat="42.91866" lon="0.31161">
        <ele>1723.37153</ele>
        <time>2024-01-12T12:48:36Z</time>
      </trkpt>
      <trkpt lat="42.91866" lon="0.31159">
        <ele>1724.34914</ele>
        <time>2024-01-12T12:48:38Z</time>
      </trkpt>
      <trkpt lat="42.91866" lon="0.31156">
        <ele>1724.51963</ele>
        <time>2024-01-12T12:48:40Z</time>
      </trkpt>
      <trkpt lat="42.91866" lon="0.31153">
        <ele>1722.36443</ele>
        <time>2024-01-12T12:48:42Z</time>
      </trkpt>
      <trkpt lat="42.91865" lon="0.31152">
        <ele>1722.19252</ele>
        <time>2024-01-12T12:48:43Z</time>
      </trkpt>
      <trkpt lat="42.91866" lon="0.31151">
        <ele>1721.72348</ele>
        <time>2024-01-12T12:48:44Z</time>
      </trkpt>
      <trkpt lat="42.91866" lon="0.31149">
        <ele>1722.24295</ele>
        <time>2024-01-12T12:48:45Z</time>
      </trkpt>
      <trkpt lat="42.91866" lon="0.31148">
        <ele>1722.28475</ele>
        <time>2024-01-12T12:48:46Z</time>
      </trkpt>
      <trkpt lat="42.91866" lon="0.31146">
        <ele>1721.91693</ele>
        <time>2024-01-12T12:48:48Z</time>
      </trkpt>
      <trkpt lat="42.91866" lon="0.31144">
        <ele>1721.44344</ele>
        <time>2024-01-12T12:48:49Z</time>
      </trkpt>
      <trkpt lat="42.91867" lon="0.31143">
        <ele>1721.38526</ele>
        <time>2024-01-12T12:48:50Z</time>
      </trkpt>
      <trkpt lat="42.91866" lon="0.31141">
        <ele>1720.71761</ele>
        <time>2024-01-12T12:48:52Z</time>
      </trkpt>
      <trkpt lat="42.91866" lon="0.31139">
        <ele>1720.56964</ele>
        <time>2024-01-12T12:48:53Z</time>
      </trkpt>
      <trkpt lat="42.91866" lon="0.31138">
        <ele>1720.31638</ele>
        <time>2024-01-12T12:48:54Z</time>
      </trkpt>
      <trkpt lat="42.91866" lon="0.31136">
        <ele>1720.43029</ele>
        <time>2024-01-12T12:48:55Z</time>
      </trkpt>
      <trkpt lat="42.91866" lon="0.31134">
        <ele>1719.85225</ele>
        <time>2024-01-12T12:48:57Z</time>
      </trkpt>
      <trkpt lat="42.91867" lon="0.31133">
        <ele>1719.52358</ele>
        <time>2024-01-12T12:48:58Z</time>
      </trkpt>
      <trkpt lat="42.91867" lon="0.31131">
        <ele>1719.52894</ele>
        <time>2024-01-12T12:48:59Z</time>
      </trkpt>
      <trkpt lat="42.91867" lon="0.3113">
        <ele>1719.06419</ele>
        <time>2024-01-12T12:49:00Z</time>
      </trkpt>
      <trkpt lat="42.91867" lon="0.31128">
        <ele>1719.01662</ele>
        <time>2024-01-12T12:49:01Z</time>
      </trkpt>
      <trkpt lat="42.91867" lon="0.31126">
        <ele>1719.66516</ele>
        <time>2024-01-12T12:49:02Z</time>
      </trkpt>
      <trkpt lat="42.91867" lon="0.31124">
        <ele>1719.28011</ele>
        <time>2024-01-12T12:49:04Z</time>
      </trkpt>
      <trkpt lat="42.91866" lon="0.31122">
        <ele>1719.03795</ele>
        <time>2024-01-12T12:49:05Z</time>
      </trkpt>
      <trkpt lat="42.91866" lon="0.31121">
        <ele>1718.282</ele>
        <time>2024-01-12T12:49:07Z</time>
      </trkpt>
      <trkpt lat="42.91866" lon="0.31119">
        <ele>1718.31119</ele>
        <time>2024-01-12T12:49:08Z</time>
      </trkpt>
      <trkpt lat="42.91866" lon="0.31118">
        <ele>1718.49001</ele>
        <time>2024-01-12T12:49:09Z</time>
      </trkpt>
      <trkpt lat="42.91866" lon="0.31119">
        <ele>1717.25231</ele>
        <time>2024-01-12T12:49:15Z</time>
      </trkpt>
      <trkpt lat="42.91866" lon="0.31117">
        <ele>1715.04097</ele>
        <time>2024-01-12T12:49:30Z</time>
      </trkpt>
      <trkpt lat="42.91866" lon="0.31116">
        <ele>1715.18655</ele>
        <time>2024-01-12T12:49:31Z</time>
      </trkpt>
      <trkpt lat="42.91865" lon="0.31114">
        <ele>1715.65121</ele>
        <time>2024-01-12T12:49:32Z</time>
      </trkpt>
      <trkpt lat="42.91864" lon="0.31113">
        <ele>1715.53263</ele>
        <time>2024-01-12T12:49:34Z</time>
      </trkpt>
      <trkpt lat="42.91864" lon="0.31111">
        <ele>1716.31819</ele>
        <time>2024-01-12T12:49:35Z</time>
      </trkpt>
      <trkpt lat="42.91864" lon="0.3111">
        <ele>1715.36428</ele>
        <time>2024-01-12T12:49:36Z</time>
      </trkpt>
      <trkpt lat="42.91863" lon="0.31108">
        <ele>1716.24479</ele>
        <time>2024-01-12T12:49:38Z</time>
      </trkpt>
      <trkpt lat="42.91863" lon="0.31107">
        <ele>1715.84674</ele>
        <time>2024-01-12T12:49:39Z</time>
      </trkpt>
      <trkpt lat="42.91863" lon="0.31106">
        <ele>1715.73438</ele>
        <time>2024-01-12T12:49:40Z</time>
      </trkpt>
      <trkpt lat="42.91863" lon="0.31105">
        <ele>1715.90059</ele>
        <time>2024-01-12T12:49:41Z</time>
      </trkpt>
      <trkpt lat="42.91863" lon="0.31103">
        <ele>1715.75299</ele>
        <time>2024-01-12T12:49:42Z</time>
      </trkpt>
      <trkpt lat="42.91863" lon="0.31101">
        <ele>1715.69334</ele>
        <time>2024-01-12T12:49:43Z</time>
      </trkpt>
      <trkpt lat="42.91863" lon="0.31099">
        <ele>1715.73598</ele>
        <time>2024-01-12T12:49:44Z</time>
      </trkpt>
      <trkpt lat="42.91861" lon="0.31097">
        <ele>1714.89437</ele>
        <time>2024-01-12T12:49:46Z</time>
      </trkpt>
      <trkpt lat="42.91861" lon="0.31095">
        <ele>1714.92685</ele>
        <time>2024-01-12T12:49:48Z</time>
      </trkpt>
      <trkpt lat="42.9186" lon="0.31092">
        <ele>1715.10139</ele>
        <time>2024-01-12T12:49:49Z</time>
      </trkpt>
      <trkpt lat="42.91861" lon="0.31091">
        <ele>1713.57875</ele>
        <time>2024-01-12T12:49:51Z</time>
      </trkpt>
      <trkpt lat="42.91861" lon="0.31089">
        <ele>1713.16079</ele>
        <time>2024-01-12T12:49:52Z</time>
      </trkpt>
      <trkpt lat="42.91861" lon="0.31087">
        <ele>1713.28184</ele>
        <time>2024-01-12T12:49:53Z</time>
      </trkpt>
      <trkpt lat="42.91861" lon="0.31084">
        <ele>1713.75824</ele>
        <time>2024-01-12T12:49:55Z</time>
      </trkpt>
      <trkpt lat="42.91861" lon="0.31081">
        <ele>1714.36495</ele>
        <time>2024-01-12T12:49:57Z</time>
      </trkpt>
      <trkpt lat="42.9186" lon="0.3108">
        <ele>1715.02229</ele>
        <time>2024-01-12T12:49:59Z</time>
      </trkpt>
      <trkpt lat="42.9186" lon="0.31077">
        <ele>1714.66099</ele>
        <time>2024-01-12T12:50:01Z</time>
      </trkpt>
      <trkpt lat="42.91859" lon="0.31075">
        <ele>1713.31271</ele>
        <time>2024-01-12T12:50:03Z</time>
      </trkpt>
      <trkpt lat="42.91859" lon="0.31074">
        <ele>1713.17029</ele>
        <time>2024-01-12T12:50:04Z</time>
      </trkpt>
      <trkpt lat="42.91859" lon="0.31072">
        <ele>1713.78656</ele>
        <time>2024-01-12T12:50:05Z</time>
      </trkpt>
      <trkpt lat="42.91858" lon="0.31071">
        <ele>1713.81475</ele>
        <time>2024-01-12T12:50:06Z</time>
      </trkpt>
      <trkpt lat="42.91858" lon="0.31069">
        <ele>1713.29163</ele>
        <time>2024-01-12T12:50:08Z</time>
      </trkpt>
      <trkpt lat="42.91858" lon="0.31067">
        <ele>1713.12891</ele>
        <time>2024-01-12T12:50:09Z</time>
      </trkpt>
      <trkpt lat="42.91857" lon="0.31066">
        <ele>1712.76764</ele>
        <time>2024-01-12T12:50:10Z</time>
      </trkpt>
      <trkpt lat="42.91857" lon="0.31065">
        <ele>1712.1755</ele>
        <time>2024-01-12T12:50:11Z</time>
      </trkpt>
      <trkpt lat="42.91856" lon="0.31063">
        <ele>1710.99826</ele>
        <time>2024-01-12T12:50:13Z</time>
      </trkpt>
      <trkpt lat="42.91856" lon="0.31061">
        <ele>1711.08729</ele>
        <time>2024-01-12T12:50:14Z</time>
      </trkpt>
      <trkpt lat="42.91855" lon="0.31059">
        <ele>1711.41252</ele>
        <time>2024-01-12T12:50:16Z</time>
      </trkpt>
      <trkpt lat="42.91855" lon="0.31057">
        <ele>1710.61503</ele>
        <time>2024-01-12T12:50:17Z</time>
      </trkpt>
      <trkpt lat="42.91855" lon="0.31055">
        <ele>1710.45512</ele>
        <time>2024-01-12T12:50:19Z</time>
      </trkpt>
      <trkpt lat="42.91855" lon="0.31054">
        <ele>1709.79575</ele>
        <time>2024-01-12T12:50:20Z</time>
      </trkpt>
      <trkpt lat="42.91854" lon="0.31051">
        <ele>1709.75072</ele>
        <time>2024-01-12T12:50:21Z</time>
      </trkpt>
      <trkpt lat="42.91853" lon="0.3105">
        <ele>1709.66241</ele>
        <time>2024-01-12T12:50:23Z</time>
      </trkpt>
      <trkpt lat="42.91853" lon="0.31046">
        <ele>1709.32903</ele>
        <time>2024-01-12T12:50:25Z</time>
      </trkpt>
      <trkpt lat="42.91853" lon="0.31045">
        <ele>1708.42543</ele>
        <time>2024-01-12T12:50:27Z</time>
      </trkpt>
      <trkpt lat="42.91852" lon="0.31042">
        <ele>1708.60833</ele>
        <time>2024-01-12T12:50:29Z</time>
      </trkpt>
      <trkpt lat="42.91852" lon="0.31041">
        <ele>1708.50517</ele>
        <time>2024-01-12T12:50:30Z</time>
      </trkpt>
      <trkpt lat="42.91852" lon="0.31038">
        <ele>1709.88489</ele>
        <time>2024-01-12T12:50:32Z</time>
      </trkpt>
      <trkpt lat="42.91852" lon="0.31036">
        <ele>1708.42688</ele>
        <time>2024-01-12T12:50:34Z</time>
      </trkpt>
      <trkpt lat="42.91852" lon="0.31035">
        <ele>1708.97517</ele>
        <time>2024-01-12T12:50:35Z</time>
      </trkpt>
      <trkpt lat="42.91852" lon="0.31033">
        <ele>1708.57347</ele>
        <time>2024-01-12T12:50:36Z</time>
      </trkpt>
      <trkpt lat="42.91852" lon="0.31032">
        <ele>1708.55778</ele>
        <time>2024-01-12T12:50:38Z</time>
      </trkpt>
      <trkpt lat="42.91851" lon="0.3103">
        <ele>1707.90299</ele>
        <time>2024-01-12T12:50:40Z</time>
      </trkpt>
      <trkpt lat="42.91851" lon="0.31027">
        <ele>1707.05682</ele>
        <time>2024-01-12T12:50:42Z</time>
      </trkpt>
      <trkpt lat="42.91851" lon="0.31025">
        <ele>1706.56071</ele>
        <time>2024-01-12T12:50:44Z</time>
      </trkpt>
      <trkpt lat="42.91851" lon="0.31023">
        <ele>1706.95115</ele>
        <time>2024-01-12T12:50:45Z</time>
      </trkpt>
      <trkpt lat="42.91851" lon="0.31021">
        <ele>1706.43535</ele>
        <time>2024-01-12T12:50:47Z</time>
      </trkpt>
      <trkpt lat="42.91851" lon="0.31019">
        <ele>1706.47988</ele>
        <time>2024-01-12T12:50:48Z</time>
      </trkpt>
      <trkpt lat="42.91851" lon="0.31018">
        <ele>1706.47449</ele>
        <time>2024-01-12T12:50:49Z</time>
      </trkpt>
      <trkpt lat="42.91851" lon="0.31015">
        <ele>1705.79916</ele>
        <time>2024-01-12T12:50:51Z</time>
      </trkpt>
      <trkpt lat="42.91851" lon="0.31013">
        <ele>1705.62815</ele>
        <time>2024-01-12T12:50:52Z</time>
      </trkpt>
      <trkpt lat="42.91851" lon="0.31012">
        <ele>1705.01263</ele>
        <time>2024-01-12T12:50:53Z</time>
      </trkpt>
      <trkpt lat="42.9185" lon="0.31011">
        <ele>1704.57336</ele>
        <time>2024-01-12T12:50:54Z</time>
      </trkpt>
      <trkpt lat="42.9185" lon="0.31009">
        <ele>1702.94038</ele>
        <time>2024-01-12T12:50:56Z</time>
      </trkpt>
      <trkpt lat="42.9185" lon="0.31006">
        <ele>1704.14455</ele>
        <time>2024-01-12T12:50:58Z</time>
      </trkpt>
      <trkpt lat="42.91851" lon="0.31004">
        <ele>1704.1385</ele>
        <time>2024-01-12T12:50:59Z</time>
      </trkpt>
      <trkpt lat="42.91851" lon="0.31003">
        <ele>1704.0211</ele>
        <time>2024-01-12T12:51:00Z</time>
      </trkpt>
      <trkpt lat="42.91851" lon="0.31002">
        <ele>1703.42525</ele>
        <time>2024-01-12T12:51:01Z</time>
      </trkpt>
      <trkpt lat="42.91851" lon="0.31">
        <ele>1703.70883</ele>
        <time>2024-01-12T12:51:02Z</time>
      </trkpt>
      <trkpt lat="42.9185" lon="0.30998">
        <ele>1702.39635</ele>
        <time>2024-01-12T12:51:04Z</time>
      </trkpt>
      <trkpt lat="42.91849" lon="0.30995">
        <ele>1703.87566</ele>
        <time>2024-01-12T12:51:06Z</time>
      </trkpt>
      <trkpt lat="42.91849" lon="0.30994">
        <ele>1702.21794</ele>
        <time>2024-01-12T12:51:08Z</time>
      </trkpt>
      <trkpt lat="42.91848" lon="0.30993">
        <ele>1702.23243</ele>
        <time>2024-01-12T12:51:09Z</time>
      </trkpt>
      <trkpt lat="42.91848" lon="0.30991">
        <ele>1702.41755</ele>
        <time>2024-01-12T12:51:10Z</time>
      </trkpt>
      <trkpt lat="42.91848" lon="0.30989">
        <ele>1702.42589</ele>
        <time>2024-01-12T12:51:12Z</time>
      </trkpt>
      <trkpt lat="42.91847" lon="0.30987">
        <ele>1702.70816</ele>
        <time>2024-01-12T12:51:14Z</time>
      </trkpt>
      <trkpt lat="42.91847" lon="0.30985">
        <ele>1702.15817</ele>
        <time>2024-01-12T12:51:15Z</time>
      </trkpt>
      <trkpt lat="42.91847" lon="0.30983">
        <ele>1702.02892</ele>
        <time>2024-01-12T12:51:16Z</time>
      </trkpt>
      <trkpt lat="42.91846" lon="0.30981">
        <ele>1702.79957</ele>
        <time>2024-01-12T12:51:17Z</time>
      </trkpt>
      <trkpt lat="42.91845" lon="0.3098">
        <ele>1700.9956</ele>
        <time>2024-01-12T12:51:19Z</time>
      </trkpt>
      <trkpt lat="42.91845" lon="0.30978">
        <ele>1700.62997</ele>
        <time>2024-01-12T12:51:21Z</time>
      </trkpt>
      <trkpt lat="42.91844" lon="0.30976">
        <ele>1700.71862</ele>
        <time>2024-01-12T12:51:23Z</time>
      </trkpt>
      <trkpt lat="42.91844" lon="0.30979">
        <ele>1697.8505</ele>
        <time>2024-01-12T12:51:39Z</time>
      </trkpt>
      <trkpt lat="42.91844" lon="0.3098">
        <ele>1699.11035</ele>
        <time>2024-01-12T12:51:45Z</time>
      </trkpt>
      <trkpt lat="42.91844" lon="0.30979">
        <ele>1697.67141</ele>
        <time>2024-01-12T12:51:48Z</time>
      </trkpt>
      <trkpt lat="42.91845" lon="0.30978">
        <ele>1696.03091</ele>
        <time>2024-01-12T12:52:16Z</time>
      </trkpt>
      <trkpt lat="42.91844" lon="0.30976">
        <ele>1694.96849</ele>
        <time>2024-01-12T12:52:21Z</time>
      </trkpt>
      <trkpt lat="42.91844" lon="0.30974">
        <ele>1694.91045</ele>
        <time>2024-01-12T12:52:23Z</time>
      </trkpt>
      <trkpt lat="42.91844" lon="0.30972">
        <ele>1694.75806</ele>
        <time>2024-01-12T12:52:24Z</time>
      </trkpt>
      <trkpt lat="42.91844" lon="0.30971">
        <ele>1695.09991</ele>
        <time>2024-01-12T12:52:25Z</time>
      </trkpt>
      <trkpt lat="42.91843" lon="0.30969">
        <ele>1694.57929</ele>
        <time>2024-01-12T12:52:27Z</time>
      </trkpt>
      <trkpt lat="42.91843" lon="0.30967">
        <ele>1694.47264</ele>
        <time>2024-01-12T12:52:28Z</time>
      </trkpt>
      <trkpt lat="42.91842" lon="0.30966">
        <ele>1694.60538</ele>
        <time>2024-01-12T12:52:29Z</time>
      </trkpt>
      <trkpt lat="42.91842" lon="0.30964">
        <ele>1694.40399</ele>
        <time>2024-01-12T12:52:31Z</time>
      </trkpt>
      <trkpt lat="42.91841" lon="0.30962">
        <ele>1695.19771</ele>
        <time>2024-01-12T12:52:32Z</time>
      </trkpt>
      <trkpt lat="42.91841" lon="0.30959">
        <ele>1695.06428</ele>
        <time>2024-01-12T12:52:35Z</time>
      </trkpt>
      <trkpt lat="42.9184" lon="0.30959">
        <ele>1695.3107</ele>
        <time>2024-01-12T12:52:37Z</time>
      </trkpt>
      <trkpt lat="42.91839" lon="0.30956">
        <ele>1695.46432</ele>
        <time>2024-01-12T12:52:40Z</time>
      </trkpt>
      <trkpt lat="42.91839" lon="0.30955">
        <ele>1694.587</ele>
        <time>2024-01-12T12:52:41Z</time>
      </trkpt>
      <trkpt lat="42.91838" lon="0.30954">
        <ele>1694.41949</ele>
        <time>2024-01-12T12:52:42Z</time>
      </trkpt>
      <trkpt lat="42.91837" lon="0.30951">
        <ele>1694.46558</ele>
        <time>2024-01-12T12:52:44Z</time>
      </trkpt>
      <trkpt lat="42.91836" lon="0.30949">
        <ele>1693.21532</ele>
        <time>2024-01-12T12:52:45Z</time>
      </trkpt>
      <trkpt lat="42.91836" lon="0.30948">
        <ele>1692.9249</ele>
        <time>2024-01-12T12:52:46Z</time>
      </trkpt>
      <trkpt lat="42.91836" lon="0.30946">
        <ele>1691.98657</ele>
        <time>2024-01-12T12:52:48Z</time>
      </trkpt>
      <trkpt lat="42.91835" lon="0.30943">
        <ele>1691.82427</ele>
        <time>2024-01-12T12:52:50Z</time>
      </trkpt>
      <trkpt lat="42.91834" lon="0.30942">
        <ele>1691.45546</ele>
        <time>2024-01-12T12:52:51Z</time>
      </trkpt>
      <trkpt lat="42.91834" lon="0.30941">
        <ele>1691.15185</ele>
        <time>2024-01-12T12:52:53Z</time>
      </trkpt>
      <trkpt lat="42.91834" lon="0.30939">
        <ele>1691.09332</ele>
        <time>2024-01-12T12:52:54Z</time>
      </trkpt>
      <trkpt lat="42.91834" lon="0.30937">
        <ele>1690.93719</ele>
        <time>2024-01-12T12:52:55Z</time>
      </trkpt>
      <trkpt lat="42.91833" lon="0.30935">
        <ele>1690.9411</ele>
        <time>2024-01-12T12:52:56Z</time>
      </trkpt>
      <trkpt lat="42.91832" lon="0.30934">
        <ele>1687.58151</ele>
        <time>2024-01-12T12:52:59Z</time>
      </trkpt>
      <trkpt lat="42.91831" lon="0.30932">
        <ele>1687.95529</ele>
        <time>2024-01-12T12:53:00Z</time>
      </trkpt>
      <trkpt lat="42.91831" lon="0.3093">
        <ele>1687.7541</ele>
        <time>2024-01-12T12:53:01Z</time>
      </trkpt>
      <trkpt lat="42.9183" lon="0.30928">
        <ele>1688.086</ele>
        <time>2024-01-12T12:53:03Z</time>
      </trkpt>
      <trkpt lat="42.9183" lon="0.30926">
        <ele>1688.28959</ele>
        <time>2024-01-12T12:53:04Z</time>
      </trkpt>
      <trkpt lat="42.91828" lon="0.30924">
        <ele>1685.88304</ele>
        <time>2024-01-12T12:53:07Z</time>
      </trkpt>
      <trkpt lat="42.91827" lon="0.30923">
        <ele>1686.5409</ele>
        <time>2024-01-12T12:53:09Z</time>
      </trkpt>
      <trkpt lat="42.91827" lon="0.30922">
        <ele>1686.10129</ele>
        <time>2024-01-12T12:53:10Z</time>
      </trkpt>
      <trkpt lat="42.91826" lon="0.30922">
        <ele>1685.5224</ele>
        <time>2024-01-12T12:53:11Z</time>
      </trkpt>
      <trkpt lat="42.91825" lon="0.30921">
        <ele>1685.04439</ele>
        <time>2024-01-12T12:53:12Z</time>
      </trkpt>
      <trkpt lat="42.91824" lon="0.30919">
        <ele>1684.70395</ele>
        <time>2024-01-12T12:53:13Z</time>
      </trkpt>
      <trkpt lat="42.91823" lon="0.30918">
        <ele>1684.486</ele>
        <time>2024-01-12T12:53:14Z</time>
      </trkpt>
      <trkpt lat="42.91822" lon="0.30917">
        <ele>1684.06507</ele>
        <time>2024-01-12T12:53:15Z</time>
      </trkpt>
      <trkpt lat="42.91821" lon="0.30916">
        <ele>1683.89145</ele>
        <time>2024-01-12T12:53:17Z</time>
      </trkpt>
      <trkpt lat="42.9182" lon="0.30914">
        <ele>1682.7821</ele>
        <time>2024-01-12T12:53:19Z</time>
      </trkpt>
      <trkpt lat="42.91818" lon="0.30912">
        <ele>1682.25065</ele>
        <time>2024-01-12T12:53:21Z</time>
      </trkpt>
      <trkpt lat="42.91818" lon="0.30912">
        <ele>1681.62887</ele>
        <time>2024-01-12T12:53:22Z</time>
      </trkpt>
      <trkpt lat="42.91817" lon="0.3091">
        <ele>1680.81465</ele>
        <time>2024-01-12T12:53:24Z</time>
      </trkpt>
      <trkpt lat="42.91816" lon="0.30908">
        <ele>1680.82372</ele>
        <time>2024-01-12T12:53:26Z</time>
      </trkpt>
      <trkpt lat="42.91815" lon="0.30907">
        <ele>1680.28281</ele>
        <time>2024-01-12T12:53:27Z</time>
      </trkpt>
      <trkpt lat="42.91814" lon="0.30906">
        <ele>1680.35754</ele>
        <time>2024-01-12T12:53:29Z</time>
      </trkpt>
      <trkpt lat="42.91813" lon="0.30905">
        <ele>1679.51757</ele>
        <time>2024-01-12T12:53:30Z</time>
      </trkpt>
      <trkpt lat="42.91812" lon="0.30904">
        <ele>1679.68284</ele>
        <time>2024-01-12T12:53:31Z</time>
      </trkpt>
      <trkpt lat="42.91811" lon="0.30903">
        <ele>1680.3939</ele>
        <time>2024-01-12T12:53:33Z</time>
      </trkpt>
      <trkpt lat="42.9181" lon="0.30902">
        <ele>1679.92886</ele>
        <time>2024-01-12T12:53:35Z</time>
      </trkpt>
      <trkpt lat="42.91809" lon="0.30899">
        <ele>1680.36495</ele>
        <time>2024-01-12T12:53:37Z</time>
      </trkpt>
      <trkpt lat="42.91809" lon="0.30898">
        <ele>1678.94461</ele>
        <time>2024-01-12T12:53:39Z</time>
      </trkpt>
      <trkpt lat="42.91808" lon="0.30897">
        <ele>1679.36007</ele>
        <time>2024-01-12T12:53:40Z</time>
      </trkpt>
      <trkpt lat="42.91807" lon="0.30896">
        <ele>1679.31839</ele>
        <time>2024-01-12T12:53:41Z</time>
      </trkpt>
      <trkpt lat="42.91806" lon="0.30894">
        <ele>1678.09002</ele>
        <time>2024-01-12T12:53:43Z</time>
      </trkpt>
      <trkpt lat="42.91806" lon="0.30893">
        <ele>1678.03154</ele>
        <time>2024-01-12T12:53:45Z</time>
      </trkpt>
      <trkpt lat="42.91806" lon="0.30891">
        <ele>1677.50346</ele>
        <time>2024-01-12T12:53:47Z</time>
      </trkpt>
      <trkpt lat="42.91804" lon="0.3089">
        <ele>1678.6178</ele>
        <time>2024-01-12T12:53:48Z</time>
      </trkpt>
      <trkpt lat="42.91803" lon="0.30889">
        <ele>1677.93231</ele>
        <time>2024-01-12T12:53:50Z</time>
      </trkpt>
      <trkpt lat="42.91802" lon="0.30888">
        <ele>1677.55305</ele>
        <time>2024-01-12T12:53:51Z</time>
      </trkpt>
      <trkpt lat="42.91801" lon="0.30887">
        <ele>1677.34647</ele>
        <time>2024-01-12T12:53:53Z</time>
      </trkpt>
      <trkpt lat="42.91801" lon="0.30885">
        <ele>1677.30216</ele>
        <time>2024-01-12T12:53:54Z</time>
      </trkpt>
      <trkpt lat="42.918" lon="0.30885">
        <ele>1675.8713</ele>
        <time>2024-01-12T12:53:55Z</time>
      </trkpt>
      <trkpt lat="42.91798" lon="0.30882">
        <ele>1675.03501</ele>
        <time>2024-01-12T12:53:58Z</time>
      </trkpt>
      <trkpt lat="42.91797" lon="0.30881">
        <ele>1675.13028</ele>
        <time>2024-01-12T12:54:00Z</time>
      </trkpt>
      <trkpt lat="42.91796" lon="0.30881">
        <ele>1674.5082</ele>
        <time>2024-01-12T12:54:02Z</time>
      </trkpt>
      <trkpt lat="42.91795" lon="0.3088">
        <ele>1674.20563</ele>
        <time>2024-01-12T12:54:03Z</time>
      </trkpt>
      <trkpt lat="42.91794" lon="0.30878">
        <ele>1673.22573</ele>
        <time>2024-01-12T12:54:05Z</time>
      </trkpt>
      <trkpt lat="42.91793" lon="0.30878">
        <ele>1672.82458</ele>
        <time>2024-01-12T12:54:06Z</time>
      </trkpt>
      <trkpt lat="42.91792" lon="0.30877">
        <ele>1671.90521</ele>
        <time>2024-01-12T12:54:08Z</time>
      </trkpt>
      <trkpt lat="42.91791" lon="0.30877">
        <ele>1671.39527</ele>
        <time>2024-01-12T12:54:09Z</time>
      </trkpt>
      <trkpt lat="42.91789" lon="0.30876">
        <ele>1669.89815</ele>
        <time>2024-01-12T12:54:12Z</time>
      </trkpt>
      <trkpt lat="42.91788" lon="0.30874">
        <ele>1669.52337</ele>
        <time>2024-01-12T12:54:14Z</time>
      </trkpt>
      <trkpt lat="42.91787" lon="0.30873">
        <ele>1669.24349</ele>
        <time>2024-01-12T12:54:15Z</time>
      </trkpt>
      <trkpt lat="42.91786" lon="0.30872">
        <ele>1669.31056</ele>
        <time>2024-01-12T12:54:16Z</time>
      </trkpt>
      <trkpt lat="42.91785" lon="0.30871">
        <ele>1669.71152</ele>
        <time>2024-01-12T12:54:17Z</time>
      </trkpt>
      <trkpt lat="42.91783" lon="0.3087">
        <ele>1669.39072</ele>
        <time>2024-01-12T12:54:19Z</time>
      </trkpt>
      <trkpt lat="42.91782" lon="0.30869">
        <ele>1667.41663</ele>
        <time>2024-01-12T12:54:23Z</time>
      </trkpt>
      <trkpt lat="42.9178" lon="0.30868">
        <ele>1666.97764</ele>
        <time>2024-01-12T12:54:25Z</time>
      </trkpt>
      <trkpt lat="42.9178" lon="0.30867">
        <ele>1666.91378</ele>
        <time>2024-01-12T12:54:26Z</time>
      </trkpt>
      <trkpt lat="42.91779" lon="0.30866">
        <ele>1665.64818</ele>
        <time>2024-01-12T12:54:28Z</time>
      </trkpt>
      <trkpt lat="42.91777" lon="0.30865">
        <ele>1664.49118</ele>
        <time>2024-01-12T12:54:30Z</time>
      </trkpt>
      <trkpt lat="42.91777" lon="0.30864">
        <ele>1664.26669</ele>
        <time>2024-01-12T12:54:31Z</time>
      </trkpt>
      <trkpt lat="42.91776" lon="0.30862">
        <ele>1665.74133</ele>
        <time>2024-01-12T12:54:32Z</time>
      </trkpt>
      <trkpt lat="42.91777" lon="0.30863">
        <ele>1663.58502</ele>
        <time>2024-01-12T12:54:33Z</time>
      </trkpt>
      <trkpt lat="42.91775" lon="0.30863">
        <ele>1663.04535</ele>
        <time>2024-01-12T12:54:34Z</time>
      </trkpt>
      <trkpt lat="42.91774" lon="0.30862">
        <ele>1661.87117</ele>
        <time>2024-01-12T12:54:37Z</time>
      </trkpt>
      <trkpt lat="42.91772" lon="0.30862">
        <ele>1662.17282</ele>
        <time>2024-01-12T12:54:38Z</time>
      </trkpt>
      <trkpt lat="42.91771" lon="0.30861">
        <ele>1660.9867</ele>
        <time>2024-01-12T12:54:39Z</time>
      </trkpt>
      <trkpt lat="42.91771" lon="0.30859">
        <ele>1660.59215</ele>
        <time>2024-01-12T12:54:41Z</time>
      </trkpt>
      <trkpt lat="42.91769" lon="0.30858">
        <ele>1661.02432</ele>
        <time>2024-01-12T12:54:44Z</time>
      </trkpt>
      <trkpt lat="42.91768" lon="0.30857">
        <ele>1663.102</ele>
        <time>2024-01-12T12:54:56Z</time>
      </trkpt>
      <trkpt lat="42.91768" lon="0.30856">
        <ele>1662.56299</ele>
        <time>2024-01-12T12:54:58Z</time>
      </trkpt>
      <trkpt lat="42.91767" lon="0.30855">
        <ele>1661.6359</ele>
        <time>2024-01-12T12:54:59Z</time>
      </trkpt>
      <trkpt lat="42.91765" lon="0.30853">
        <ele>1660.0029</ele>
        <time>2024-01-12T12:55:01Z</time>
      </trkpt>
      <trkpt lat="42.91765" lon="0.30851">
        <ele>1659.47106</ele>
        <time>2024-01-12T12:55:03Z</time>
      </trkpt>
      <trkpt lat="42.91764" lon="0.3085">
        <ele>1659.74151</ele>
        <time>2024-01-12T12:55:04Z</time>
      </trkpt>
      <trkpt lat="42.91764" lon="0.30848">
        <ele>1658.84601</ele>
        <time>2024-01-12T12:55:06Z</time>
      </trkpt>
      <trkpt lat="42.91763" lon="0.30847">
        <ele>1656.76571</ele>
        <time>2024-01-12T12:55:08Z</time>
      </trkpt>
      <trkpt lat="42.91762" lon="0.30846">
        <ele>1656.58607</ele>
        <time>2024-01-12T12:55:09Z</time>
      </trkpt>
      <trkpt lat="42.91761" lon="0.30844">
        <ele>1657.35546</ele>
        <time>2024-01-12T12:55:10Z</time>
      </trkpt>
      <trkpt lat="42.9176" lon="0.30843">
        <ele>1656.77165</ele>
        <time>2024-01-12T12:55:12Z</time>
      </trkpt>
      <trkpt lat="42.9176" lon="0.30842">
        <ele>1656.81842</ele>
        <time>2024-01-12T12:55:13Z</time>
      </trkpt>
      <trkpt lat="42.91759" lon="0.3084">
        <ele>1655.71068</ele>
        <time>2024-01-12T12:55:15Z</time>
      </trkpt>
      <trkpt lat="42.91758" lon="0.30839">
        <ele>1656.12906</ele>
        <time>2024-01-12T12:55:17Z</time>
      </trkpt>
      <trkpt lat="42.91757" lon="0.30837">
        <ele>1656.8029</ele>
        <time>2024-01-12T12:55:19Z</time>
      </trkpt>
      <trkpt lat="42.91756" lon="0.30836">
        <ele>1657.54821</ele>
        <time>2024-01-12T12:55:20Z</time>
      </trkpt>
      <trkpt lat="42.91755" lon="0.30836">
        <ele>1657.18865</ele>
        <time>2024-01-12T12:55:21Z</time>
      </trkpt>
      <trkpt lat="42.91754" lon="0.30835">
        <ele>1657.34421</ele>
        <time>2024-01-12T12:55:23Z</time>
      </trkpt>
      <trkpt lat="42.91753" lon="0.30835">
        <ele>1653.85027</ele>
        <time>2024-01-12T12:55:25Z</time>
      </trkpt>
      <trkpt lat="42.91751" lon="0.30833">
        <ele>1653.12957</ele>
        <time>2024-01-12T12:55:28Z</time>
      </trkpt>
      <trkpt lat="42.9175" lon="0.30831">
        <ele>1653.70086</ele>
        <time>2024-01-12T12:55:30Z</time>
      </trkpt>
      <trkpt lat="42.91749" lon="0.3083">
        <ele>1653.44303</ele>
        <time>2024-01-12T12:55:32Z</time>
      </trkpt>
      <trkpt lat="42.91747" lon="0.30829">
        <ele>1654.98169</ele>
        <time>2024-01-12T12:55:34Z</time>
      </trkpt>
      <trkpt lat="42.91747" lon="0.30829">
        <ele>1654.56526</ele>
        <time>2024-01-12T12:55:36Z</time>
      </trkpt>
      <trkpt lat="42.91745" lon="0.30828">
        <ele>1653.88894</ele>
        <time>2024-01-12T12:55:37Z</time>
      </trkpt>
      <trkpt lat="42.91744" lon="0.30827">
        <ele>1652.89534</ele>
        <time>2024-01-12T12:55:39Z</time>
      </trkpt>
      <trkpt lat="42.91743" lon="0.30826">
        <ele>1652.83872</ele>
        <time>2024-01-12T12:55:41Z</time>
      </trkpt>
      <trkpt lat="42.91742" lon="0.30825">
        <ele>1652.00433</ele>
        <time>2024-01-12T12:55:43Z</time>
      </trkpt>
      <trkpt lat="42.91741" lon="0.30824">
        <ele>1652.38662</ele>
        <time>2024-01-12T12:55:44Z</time>
      </trkpt>
      <trkpt lat="42.9174" lon="0.30823">
        <ele>1652.04426</ele>
        <time>2024-01-12T12:55:45Z</time>
      </trkpt>
      <trkpt lat="42.91739" lon="0.30821">
        <ele>1651.5683</ele>
        <time>2024-01-12T12:55:48Z</time>
      </trkpt>
      <trkpt lat="42.91738" lon="0.30819">
        <ele>1650.8549</ele>
        <time>2024-01-12T12:55:50Z</time>
      </trkpt>
      <trkpt lat="42.91737" lon="0.30818">
        <ele>1649.90419</ele>
        <time>2024-01-12T12:55:51Z</time>
      </trkpt>
      <trkpt lat="42.91736" lon="0.30817">
        <ele>1649.16196</ele>
        <time>2024-01-12T12:55:53Z</time>
      </trkpt>
      <trkpt lat="42.91736" lon="0.30816">
        <ele>1649.56394</ele>
        <time>2024-01-12T12:55:55Z</time>
      </trkpt>
      <trkpt lat="42.91735" lon="0.30815">
        <ele>1648.67522</ele>
        <time>2024-01-12T12:55:57Z</time>
      </trkpt>
      <trkpt lat="42.91734" lon="0.30814">
        <ele>1648.39302</ele>
        <time>2024-01-12T12:55:59Z</time>
      </trkpt>
      <trkpt lat="42.91733" lon="0.30813">
        <ele>1648.46208</ele>
        <time>2024-01-12T12:56:00Z</time>
      </trkpt>
      <trkpt lat="42.91732" lon="0.30811">
        <ele>1647.97259</ele>
        <time>2024-01-12T12:56:01Z</time>
      </trkpt>
      <trkpt lat="42.91731" lon="0.3081">
        <ele>1648.04541</ele>
        <time>2024-01-12T12:56:03Z</time>
      </trkpt>
      <trkpt lat="42.9173" lon="0.3081">
        <ele>1649.27611</ele>
        <time>2024-01-12T12:56:05Z</time>
      </trkpt>
      <trkpt lat="42.91731" lon="0.30809">
        <ele>1648.19286</ele>
        <time>2024-01-12T12:56:06Z</time>
      </trkpt>
      <trkpt lat="42.91729" lon="0.30807">
        <ele>1647.26091</ele>
        <time>2024-01-12T12:56:07Z</time>
      </trkpt>
      <trkpt lat="42.91728" lon="0.30807">
        <ele>1646.5281</ele>
        <time>2024-01-12T12:56:08Z</time>
      </trkpt>
      <trkpt lat="42.91727" lon="0.30807">
        <ele>1647.00452</ele>
        <time>2024-01-12T12:56:09Z</time>
      </trkpt>
      <trkpt lat="42.91726" lon="0.30805">
        <ele>1647.09073</ele>
        <time>2024-01-12T12:56:11Z</time>
      </trkpt>
      <trkpt lat="42.91727" lon="0.30806">
        <ele>1646.49658</ele>
        <time>2024-01-12T12:56:12Z</time>
      </trkpt>
      <trkpt lat="42.91726" lon="0.30804">
        <ele>1646.75927</ele>
        <time>2024-01-12T12:56:13Z</time>
      </trkpt>
      <trkpt lat="42.91725" lon="0.30803">
        <ele>1647.53548</ele>
        <time>2024-01-12T12:56:15Z</time>
      </trkpt>
      <trkpt lat="42.91723" lon="0.30802">
        <ele>1647.31603</ele>
        <time>2024-01-12T12:56:17Z</time>
      </trkpt>
      <trkpt lat="42.91723" lon="0.30801">
        <ele>1646.12949</ele>
        <time>2024-01-12T12:56:18Z</time>
      </trkpt>
      <trkpt lat="42.91722" lon="0.308">
        <ele>1645.15306</ele>
        <time>2024-01-12T12:56:19Z</time>
      </trkpt>
      <trkpt lat="42.91721" lon="0.30798">
        <ele>1644.84763</ele>
        <time>2024-01-12T12:56:20Z</time>
      </trkpt>
      <trkpt lat="42.91722" lon="0.30796">
        <ele>1644.31734</ele>
        <time>2024-01-12T12:56:22Z</time>
      </trkpt>
      <trkpt lat="42.91721" lon="0.30794">
        <ele>1643.42769</ele>
        <time>2024-01-12T12:56:24Z</time>
      </trkpt>
      <trkpt lat="42.91719" lon="0.30793">
        <ele>1643.6738</ele>
        <time>2024-01-12T12:56:26Z</time>
      </trkpt>
      <trkpt lat="42.91718" lon="0.30792">
        <ele>1643.55148</ele>
        <time>2024-01-12T12:56:27Z</time>
      </trkpt>
      <trkpt lat="42.91717" lon="0.30791">
        <ele>1643.52846</ele>
        <time>2024-01-12T12:56:29Z</time>
      </trkpt>
      <trkpt lat="42.91717" lon="0.30789">
        <ele>1643.50433</ele>
        <time>2024-01-12T12:56:30Z</time>
      </trkpt>
      <trkpt lat="42.91717" lon="0.30788">
        <ele>1643.19788</ele>
        <time>2024-01-12T12:56:32Z</time>
      </trkpt>
      <trkpt lat="42.91716" lon="0.30787">
        <ele>1642.95317</ele>
        <time>2024-01-12T12:56:33Z</time>
      </trkpt>
      <trkpt lat="42.91714" lon="0.30786">
        <ele>1642.6003</ele>
        <time>2024-01-12T12:56:36Z</time>
      </trkpt>
      <trkpt lat="42.91713" lon="0.30786">
        <ele>1642.49805</ele>
        <time>2024-01-12T12:56:37Z</time>
      </trkpt>
      <trkpt lat="42.91712" lon="0.30784">
        <ele>1641.043</ele>
        <time>2024-01-12T12:56:40Z</time>
      </trkpt>
      <trkpt lat="42.91712" lon="0.30782">
        <ele>1639.43546</ele>
        <time>2024-01-12T12:56:41Z</time>
      </trkpt>
      <trkpt lat="42.91711" lon="0.3078">
        <ele>1639.20449</ele>
        <time>2024-01-12T12:56:43Z</time>
      </trkpt>
      <trkpt lat="42.9171" lon="0.30779">
        <ele>1638.44085</ele>
        <time>2024-01-12T12:56:45Z</time>
      </trkpt>
      <trkpt lat="42.9171" lon="0.30777">
        <ele>1636.78368</ele>
        <time>2024-01-12T12:56:47Z</time>
      </trkpt>
      <trkpt lat="42.91709" lon="0.30775">
        <ele>1636.30189</ele>
        <time>2024-01-12T12:56:48Z</time>
      </trkpt>
      <trkpt lat="42.91709" lon="0.30774">
        <ele>1635.77334</ele>
        <time>2024-01-12T12:56:49Z</time>
      </trkpt>
      <trkpt lat="42.91708" lon="0.30773">
        <ele>1635.52401</ele>
        <time>2024-01-12T12:56:50Z</time>
      </trkpt>
      <trkpt lat="42.91708" lon="0.30772">
        <ele>1635.26426</ele>
        <time>2024-01-12T12:56:52Z</time>
      </trkpt>
      <trkpt lat="42.91708" lon="0.3077">
        <ele>1635.73626</ele>
        <time>2024-01-12T12:56:54Z</time>
      </trkpt>
      <trkpt lat="42.91707" lon="0.30768">
        <ele>1635.84193</ele>
        <time>2024-01-12T12:56:56Z</time>
      </trkpt>
      <trkpt lat="42.91706" lon="0.30767">
        <ele>1634.86584</ele>
        <time>2024-01-12T12:56:58Z</time>
      </trkpt>
      <trkpt lat="42.91706" lon="0.30766">
        <ele>1634.79865</ele>
        <time>2024-01-12T12:57:00Z</time>
      </trkpt>
      <trkpt lat="42.91705" lon="0.30764">
        <ele>1634.38478</ele>
        <time>2024-01-12T12:57:02Z</time>
      </trkpt>
      <trkpt lat="42.91705" lon="0.30763">
        <ele>1632.5536</ele>
        <time>2024-01-12T12:57:04Z</time>
      </trkpt>
      <trkpt lat="42.91704" lon="0.3076">
        <ele>1632.77556</ele>
        <time>2024-01-12T12:57:06Z</time>
      </trkpt>
      <trkpt lat="42.91703" lon="0.3076">
        <ele>1632.63556</ele>
        <time>2024-01-12T12:57:07Z</time>
      </trkpt>
      <trkpt lat="42.91703" lon="0.30758">
        <ele>1632.90936</ele>
        <time>2024-01-12T12:57:08Z</time>
      </trkpt>
      <trkpt lat="42.91702" lon="0.30755">
        <ele>1631.59905</ele>
        <time>2024-01-12T12:57:11Z</time>
      </trkpt>
      <trkpt lat="42.91702" lon="0.30754">
        <ele>1631.51272</ele>
        <time>2024-01-12T12:57:12Z</time>
      </trkpt>
      <trkpt lat="42.91701" lon="0.30753">
        <ele>1629.66483</ele>
        <time>2024-01-12T12:57:14Z</time>
      </trkpt>
      <trkpt lat="42.917" lon="0.30752">
        <ele>1629.35461</ele>
        <time>2024-01-12T12:57:16Z</time>
      </trkpt>
      <trkpt lat="42.917" lon="0.3075">
        <ele>1629.59542</ele>
        <time>2024-01-12T12:57:17Z</time>
      </trkpt>
      <trkpt lat="42.917" lon="0.30749">
        <ele>1628.90648</ele>
        <time>2024-01-12T12:57:18Z</time>
      </trkpt>
      <trkpt lat="42.91698" lon="0.30748">
        <ele>1627.2397</ele>
        <time>2024-01-12T12:57:20Z</time>
      </trkpt>
      <trkpt lat="42.91698" lon="0.30747">
        <ele>1626.82411</ele>
        <time>2024-01-12T12:57:21Z</time>
      </trkpt>
      <trkpt lat="42.91697" lon="0.30746">
        <ele>1627.23155</ele>
        <time>2024-01-12T12:57:24Z</time>
      </trkpt>
      <trkpt lat="42.91696" lon="0.30744">
        <ele>1627.82354</ele>
        <time>2024-01-12T12:57:25Z</time>
      </trkpt>
      <trkpt lat="42.91695" lon="0.30742">
        <ele>1626.2647</ele>
        <time>2024-01-12T12:57:28Z</time>
      </trkpt>
      <trkpt lat="42.91694" lon="0.3074">
        <ele>1624.73868</ele>
        <time>2024-01-12T12:57:30Z</time>
      </trkpt>
      <trkpt lat="42.91694" lon="0.30738">
        <ele>1623.20685</ele>
        <time>2024-01-12T12:57:33Z</time>
      </trkpt>
      <trkpt lat="42.91692" lon="0.30737">
        <ele>1621.50799</ele>
        <time>2024-01-12T12:57:35Z</time>
      </trkpt>
      <trkpt lat="42.91691" lon="0.30736">
        <ele>1620.90689</ele>
        <time>2024-01-12T12:57:37Z</time>
      </trkpt>
      <trkpt lat="42.9169" lon="0.30734">
        <ele>1620.60363</ele>
        <time>2024-01-12T12:57:40Z</time>
      </trkpt>
      <trkpt lat="42.91689" lon="0.30732">
        <ele>1619.63875</ele>
        <time>2024-01-12T12:57:43Z</time>
      </trkpt>
      <trkpt lat="42.91689" lon="0.3073">
        <ele>1618.62275</ele>
        <time>2024-01-12T12:57:45Z</time>
      </trkpt>
      <trkpt lat="42.91689" lon="0.30728">
        <ele>1618.82339</ele>
        <time>2024-01-12T12:57:47Z</time>
      </trkpt>
      <trkpt lat="42.91687" lon="0.30728">
        <ele>1618.30385</ele>
        <time>2024-01-12T12:57:49Z</time>
      </trkpt>
      <trkpt lat="42.91686" lon="0.30726">
        <ele>1617.22755</ele>
        <time>2024-01-12T12:57:51Z</time>
      </trkpt>
      <trkpt lat="42.91686" lon="0.30724">
        <ele>1617.63208</ele>
        <time>2024-01-12T12:57:53Z</time>
      </trkpt>
      <trkpt lat="42.91685" lon="0.30722">
        <ele>1617.98724</ele>
        <time>2024-01-12T12:57:54Z</time>
      </trkpt>
      <trkpt lat="42.91685" lon="0.3072">
        <ele>1617.61005</ele>
        <time>2024-01-12T12:57:58Z</time>
      </trkpt>
      <trkpt lat="42.91684" lon="0.30718">
        <ele>1617.71662</ele>
        <time>2024-01-12T12:58:00Z</time>
      </trkpt>
      <trkpt lat="42.91683" lon="0.30718">
        <ele>1617.30539</ele>
        <time>2024-01-12T12:58:01Z</time>
      </trkpt>
      <trkpt lat="42.91681" lon="0.30716">
        <ele>1616.8499</ele>
        <time>2024-01-12T12:58:03Z</time>
      </trkpt>
      <trkpt lat="42.91681" lon="0.30715">
        <ele>1616.07015</ele>
        <time>2024-01-12T12:58:05Z</time>
      </trkpt>
      <trkpt lat="42.91679" lon="0.30712">
        <ele>1615.51226</ele>
        <time>2024-01-12T12:58:07Z</time>
      </trkpt>
      <trkpt lat="42.91678" lon="0.30712">
        <ele>1615.36848</ele>
        <time>2024-01-12T12:58:09Z</time>
      </trkpt>
      <trkpt lat="42.91677" lon="0.30711">
        <ele>1615.43223</ele>
        <time>2024-01-12T12:58:10Z</time>
      </trkpt>
      <trkpt lat="42.91678" lon="0.30712">
        <ele>1613.46359</ele>
        <time>2024-01-12T12:58:12Z</time>
      </trkpt>
      <trkpt lat="42.91677" lon="0.3071">
        <ele>1613.5389</ele>
        <time>2024-01-12T12:58:13Z</time>
      </trkpt>
      <trkpt lat="42.91676" lon="0.30709">
        <ele>1613.30226</ele>
        <time>2024-01-12T12:58:14Z</time>
      </trkpt>
      <trkpt lat="42.91675" lon="0.30708">
        <ele>1613.01347</ele>
        <time>2024-01-12T12:58:15Z</time>
      </trkpt>
      <trkpt lat="42.91674" lon="0.30706">
        <ele>1612.92072</ele>
        <time>2024-01-12T12:58:16Z</time>
      </trkpt>
      <trkpt lat="42.91673" lon="0.30705">
        <ele>1612.5606</ele>
        <time>2024-01-12T12:58:18Z</time>
      </trkpt>
      <trkpt lat="42.91673" lon="0.30703">
        <ele>1611.28379</ele>
        <time>2024-01-12T12:58:21Z</time>
      </trkpt>
      <trkpt lat="42.91672" lon="0.30701">
        <ele>1610.87071</ele>
        <time>2024-01-12T12:58:23Z</time>
      </trkpt>
      <trkpt lat="42.91671" lon="0.30701">
        <ele>1609.88719</ele>
        <time>2024-01-12T12:58:25Z</time>
      </trkpt>
      <trkpt lat="42.9167" lon="0.307">
        <ele>1608.9826</ele>
        <time>2024-01-12T12:58:27Z</time>
      </trkpt>
      <trkpt lat="42.9167" lon="0.30698">
        <ele>1608.73979</ele>
        <time>2024-01-12T12:58:30Z</time>
      </trkpt>
      <trkpt lat="42.9167" lon="0.30697">
        <ele>1608.02633</ele>
        <time>2024-01-12T12:58:31Z</time>
      </trkpt>
      <trkpt lat="42.9167" lon="0.30695">
        <ele>1607.34904</ele>
        <time>2024-01-12T12:58:33Z</time>
      </trkpt>
      <trkpt lat="42.91669" lon="0.30694">
        <ele>1607.63838</ele>
        <time>2024-01-12T12:58:34Z</time>
      </trkpt>
      <trkpt lat="42.91668" lon="0.30691">
        <ele>1606.84334</ele>
        <time>2024-01-12T12:58:36Z</time>
      </trkpt>
      <trkpt lat="42.91668" lon="0.3069">
        <ele>1604.73052</ele>
        <time>2024-01-12T12:58:39Z</time>
      </trkpt>
      <trkpt lat="42.91667" lon="0.30688">
        <ele>1603.94142</ele>
        <time>2024-01-12T12:58:41Z</time>
      </trkpt>
      <trkpt lat="42.91667" lon="0.30686">
        <ele>1603.45868</ele>
        <time>2024-01-12T12:58:43Z</time>
      </trkpt>
      <trkpt lat="42.91666" lon="0.30684">
        <ele>1601.93877</ele>
        <time>2024-01-12T12:58:46Z</time>
      </trkpt>
      <trkpt lat="42.91664" lon="0.30683">
        <ele>1600.58158</ele>
        <time>2024-01-12T12:58:49Z</time>
      </trkpt>
      <trkpt lat="42.91664" lon="0.30682">
        <ele>1600.59916</ele>
        <time>2024-01-12T12:58:51Z</time>
      </trkpt>
      <trkpt lat="42.91662" lon="0.3068">
        <ele>1600.54618</ele>
        <time>2024-01-12T12:58:53Z</time>
      </trkpt>
      <trkpt lat="42.91662" lon="0.30679">
        <ele>1599.73874</ele>
        <time>2024-01-12T12:58:54Z</time>
      </trkpt>
      <trkpt lat="42.91661" lon="0.30676">
        <ele>1599.28811</ele>
        <time>2024-01-12T12:58:56Z</time>
      </trkpt>
      <trkpt lat="42.91661" lon="0.30675">
        <ele>1598.89125</ele>
        <time>2024-01-12T12:58:57Z</time>
      </trkpt>
      <trkpt lat="42.9166" lon="0.30674">
        <ele>1598.76564</ele>
        <time>2024-01-12T12:58:58Z</time>
      </trkpt>
      <trkpt lat="42.9166" lon="0.30672">
        <ele>1598.02147</ele>
        <time>2024-01-12T12:59:01Z</time>
      </trkpt>
      <trkpt lat="42.91659" lon="0.30671">
        <ele>1597.51387</ele>
        <time>2024-01-12T12:59:02Z</time>
      </trkpt>
      <trkpt lat="42.91658" lon="0.3067">
        <ele>1597.21389</ele>
        <time>2024-01-12T12:59:04Z</time>
      </trkpt>
      <trkpt lat="42.91657" lon="0.30669">
        <ele>1597.03637</ele>
        <time>2024-01-12T12:59:05Z</time>
      </trkpt>
      <trkpt lat="42.91656" lon="0.30667">
        <ele>1597.21768</ele>
        <time>2024-01-12T12:59:06Z</time>
      </trkpt>
      <trkpt lat="42.91656" lon="0.30666">
        <ele>1595.95559</ele>
        <time>2024-01-12T12:59:09Z</time>
      </trkpt>
      <trkpt lat="42.91654" lon="0.30664">
        <ele>1594.91298</ele>
        <time>2024-01-12T12:59:11Z</time>
      </trkpt>
      <trkpt lat="42.91654" lon="0.30663">
        <ele>1595.07133</ele>
        <time>2024-01-12T12:59:12Z</time>
      </trkpt>
      <trkpt lat="42.91653" lon="0.30662">
        <ele>1595.442</ele>
        <time>2024-01-12T12:59:13Z</time>
      </trkpt>
      <trkpt lat="42.91653" lon="0.3066">
        <ele>1594.41222</ele>
        <time>2024-01-12T12:59:15Z</time>
      </trkpt>
      <trkpt lat="42.91652" lon="0.30659">
        <ele>1594.45341</ele>
        <time>2024-01-12T12:59:17Z</time>
      </trkpt>
      <trkpt lat="42.91651" lon="0.30658">
        <ele>1594.55108</ele>
        <time>2024-01-12T12:59:18Z</time>
      </trkpt>
      <trkpt lat="42.9165" lon="0.30656">
        <ele>1593.55554</ele>
        <time>2024-01-12T12:59:20Z</time>
      </trkpt>
      <trkpt lat="42.9165" lon="0.30654">
        <ele>1594.12778</ele>
        <time>2024-01-12T12:59:21Z</time>
      </trkpt>
      <trkpt lat="42.91649" lon="0.30653">
        <ele>1593.28418</ele>
        <time>2024-01-12T12:59:22Z</time>
      </trkpt>
      <trkpt lat="42.91648" lon="0.30652">
        <ele>1592.0114</ele>
        <time>2024-01-12T12:59:24Z</time>
      </trkpt>
      <trkpt lat="42.91647" lon="0.3065">
        <ele>1592.54937</ele>
        <time>2024-01-12T12:59:26Z</time>
      </trkpt>
      <trkpt lat="42.91646" lon="0.30649">
        <ele>1592.03165</ele>
        <time>2024-01-12T12:59:27Z</time>
      </trkpt>
      <trkpt lat="42.91645" lon="0.30646">
        <ele>1591.95277</ele>
        <time>2024-01-12T12:59:30Z</time>
      </trkpt>
      <trkpt lat="42.91644" lon="0.30645">
        <ele>1591.54442</ele>
        <time>2024-01-12T12:59:32Z</time>
      </trkpt>
      <trkpt lat="42.91643" lon="0.30644">
        <ele>1591.66668</ele>
        <time>2024-01-12T12:59:33Z</time>
      </trkpt>
      <trkpt lat="42.91642" lon="0.30642">
        <ele>1590.87722</ele>
        <time>2024-01-12T12:59:35Z</time>
      </trkpt>
      <trkpt lat="42.91641" lon="0.30642">
        <ele>1590.38202</ele>
        <time>2024-01-12T12:59:37Z</time>
      </trkpt>
      <trkpt lat="42.9164" lon="0.3064">
        <ele>1591.0957</ele>
        <time>2024-01-12T12:59:40Z</time>
      </trkpt>
      <trkpt lat="42.9164" lon="0.30641">
        <ele>1588.88488</ele>
        <time>2024-01-12T12:59:55Z</time>
      </trkpt>
      <trkpt lat="42.91641" lon="0.30642">
        <ele>1587.2955</ele>
        <time>2024-01-12T13:00:15Z</time>
      </trkpt>
      <trkpt lat="42.91641" lon="0.3064">
        <ele>1589.90467</ele>
        <time>2024-01-12T13:01:03Z</time>
      </trkpt>
      <trkpt lat="42.91642" lon="0.30642">
        <ele>1588.41686</ele>
        <time>2024-01-12T13:01:23Z</time>
      </trkpt>
      <trkpt lat="42.91641" lon="0.30642">
        <ele>1589.16519</ele>
        <time>2024-01-12T13:01:38Z</time>
      </trkpt>
      <trkpt lat="42.91642" lon="0.30643">
        <ele>1588.32069</ele>
        <time>2024-01-12T13:01:52Z</time>
      </trkpt>
      <trkpt lat="42.91641" lon="0.30643">
        <ele>1590.05451</ele>
        <time>2024-01-12T13:02:03Z</time>
      </trkpt>
      <trkpt lat="42.9164" lon="0.30644">
        <ele>1586.81124</ele>
        <time>2024-01-12T13:02:10Z</time>
      </trkpt>
      <trkpt lat="42.91639" lon="0.30643">
        <ele>1590.38892</ele>
        <time>2024-01-12T13:02:17Z</time>
      </trkpt>
      <trkpt lat="42.91639" lon="0.30644">
        <ele>1590.3558</ele>
        <time>2024-01-12T13:02:24Z</time>
      </trkpt>
      <trkpt lat="42.9164" lon="0.30643">
        <ele>1589.62018</ele>
        <time>2024-01-12T13:02:30Z</time>
      </trkpt>
      <trkpt lat="42.9164" lon="0.30644">
        <ele>1592.3433</ele>
        <time>2024-01-12T13:02:38Z</time>
      </trkpt>
      <trkpt lat="42.91639" lon="0.30643">
        <ele>1594.38371</ele>
        <time>2024-01-12T13:02:47Z</time>
      </trkpt>
      <trkpt lat="42.9164" lon="0.30643">
        <ele>1599.21821</ele>
        <time>2024-01-12T13:02:53Z</time>
      </trkpt>
      <trkpt lat="42.91639" lon="0.30644">
        <ele>1592.89939</ele>
        <time>2024-01-12T13:03:06Z</time>
      </trkpt>
      <trkpt lat="42.91639" lon="0.30642">
        <ele>1592.97777</ele>
        <time>2024-01-12T13:03:11Z</time>
      </trkpt>
      <trkpt lat="42.9164" lon="0.30644">
        <ele>1591.26151</ele>
        <time>2024-01-12T13:03:16Z</time>
      </trkpt>
      <trkpt lat="42.91641" lon="0.30643">
        <ele>1591.38005</ele>
        <time>2024-01-12T13:03:23Z</time>
      </trkpt>
      <trkpt lat="42.9164" lon="0.30643">
        <ele>1590.0856</ele>
        <time>2024-01-12T13:03:49Z</time>
      </trkpt>
      <trkpt lat="42.9164" lon="0.30644">
        <ele>1588.47063</ele>
        <time>2024-01-12T13:04:54Z</time>
      </trkpt>
      <trkpt lat="42.91639" lon="0.30643">
        <ele>1588.53642</ele>
        <time>2024-01-12T13:05:03Z</time>
      </trkpt>
      <trkpt lat="42.91639" lon="0.30642">
        <ele>1588.28155</ele>
        <time>2024-01-12T13:05:06Z</time>
      </trkpt>
      <trkpt lat="42.91638" lon="0.3064">
        <ele>1588.28751</ele>
        <time>2024-01-12T13:05:13Z</time>
      </trkpt>
      <trkpt lat="42.91637" lon="0.30637">
        <ele>1587.16687</ele>
        <time>2024-01-12T13:05:15Z</time>
      </trkpt>
      <trkpt lat="42.91636" lon="0.30636">
        <ele>1587.25061</ele>
        <time>2024-01-12T13:05:16Z</time>
      </trkpt>
      <trkpt lat="42.91635" lon="0.30633">
        <ele>1587.70751</ele>
        <time>2024-01-12T13:05:18Z</time>
      </trkpt>
      <trkpt lat="42.91635" lon="0.30632">
        <ele>1587.123</ele>
        <time>2024-01-12T13:05:20Z</time>
      </trkpt>
      <trkpt lat="42.91634" lon="0.3063">
        <ele>1587.5017</ele>
        <time>2024-01-12T13:05:22Z</time>
      </trkpt>
      <trkpt lat="42.91633" lon="0.30629">
        <ele>1586.1919</ele>
        <time>2024-01-12T13:05:23Z</time>
      </trkpt>
      <trkpt lat="42.91633" lon="0.30628">
        <ele>1585.16603</ele>
        <time>2024-01-12T13:05:25Z</time>
      </trkpt>
      <trkpt lat="42.91632" lon="0.30627">
        <ele>1585.41348</ele>
        <time>2024-01-12T13:05:26Z</time>
      </trkpt>
      <trkpt lat="42.9163" lon="0.30626">
        <ele>1586.01431</ele>
        <time>2024-01-12T13:05:29Z</time>
      </trkpt>
      <trkpt lat="42.91629" lon="0.30625">
        <ele>1585.85152</ele>
        <time>2024-01-12T13:05:30Z</time>
      </trkpt>
      <trkpt lat="42.91629" lon="0.30624">
        <ele>1584.5847</ele>
        <time>2024-01-12T13:05:32Z</time>
      </trkpt>
      <trkpt lat="42.91628" lon="0.30622">
        <ele>1584.21034</ele>
        <time>2024-01-12T13:05:34Z</time>
      </trkpt>
      <trkpt lat="42.91627" lon="0.30621">
        <ele>1584.16489</ele>
        <time>2024-01-12T13:05:35Z</time>
      </trkpt>
      <trkpt lat="42.91626" lon="0.3062">
        <ele>1583.88767</ele>
        <time>2024-01-12T13:05:37Z</time>
      </trkpt>
      <trkpt lat="42.91625" lon="0.30619">
        <ele>1583.27825</ele>
        <time>2024-01-12T13:05:38Z</time>
      </trkpt>
      <trkpt lat="42.91624" lon="0.30617">
        <ele>1583.28759</ele>
        <time>2024-01-12T13:05:41Z</time>
      </trkpt>
      <trkpt lat="42.91623" lon="0.30616">
        <ele>1583.42512</ele>
        <time>2024-01-12T13:05:42Z</time>
      </trkpt>
      <trkpt lat="42.91622" lon="0.30614">
        <ele>1583.23949</ele>
        <time>2024-01-12T13:05:44Z</time>
      </trkpt>
      <trkpt lat="42.91622" lon="0.30613">
        <ele>1583.22618</ele>
        <time>2024-01-12T13:05:46Z</time>
      </trkpt>
      <trkpt lat="42.9162" lon="0.30612">
        <ele>1582.99147</ele>
        <time>2024-01-12T13:05:47Z</time>
      </trkpt>
      <trkpt lat="42.91619" lon="0.3061">
        <ele>1584.27576</ele>
        <time>2024-01-12T13:05:49Z</time>
      </trkpt>
      <trkpt lat="42.91618" lon="0.30608">
        <ele>1585.08768</ele>
        <time>2024-01-12T13:05:50Z</time>
      </trkpt>
      <trkpt lat="42.91617" lon="0.30608">
        <ele>1582.67555</ele>
        <time>2024-01-12T13:05:53Z</time>
      </trkpt>
      <trkpt lat="42.91616" lon="0.30606">
        <ele>1582.15063</ele>
        <time>2024-01-12T13:05:54Z</time>
      </trkpt>
      <trkpt lat="42.91616" lon="0.30605">
        <ele>1582.161</ele>
        <time>2024-01-12T13:05:56Z</time>
      </trkpt>
      <trkpt lat="42.91615" lon="0.30604">
        <ele>1581.96918</ele>
        <time>2024-01-12T13:05:57Z</time>
      </trkpt>
      <trkpt lat="42.91614" lon="0.30602">
        <ele>1581.25349</ele>
        <time>2024-01-12T13:05:59Z</time>
      </trkpt>
      <trkpt lat="42.91613" lon="0.30601">
        <ele>1579.8125</ele>
        <time>2024-01-12T13:06:01Z</time>
      </trkpt>
      <trkpt lat="42.91611" lon="0.30599">
        <ele>1580.38219</ele>
        <time>2024-01-12T13:06:03Z</time>
      </trkpt>
      <trkpt lat="42.9161" lon="0.30597">
        <ele>1579.37175</ele>
        <time>2024-01-12T13:06:06Z</time>
      </trkpt>
      <trkpt lat="42.9161" lon="0.30596">
        <ele>1578.9027</ele>
        <time>2024-01-12T13:06:07Z</time>
      </trkpt>
      <trkpt lat="42.91609" lon="0.30595">
        <ele>1578.20356</ele>
        <time>2024-01-12T13:06:09Z</time>
      </trkpt>
      <trkpt lat="42.91608" lon="0.30593">
        <ele>1578.83957</ele>
        <time>2024-01-12T13:06:11Z</time>
      </trkpt>
      <trkpt lat="42.91607" lon="0.30592">
        <ele>1577.39857</ele>
        <time>2024-01-12T13:06:12Z</time>
      </trkpt>
      <trkpt lat="42.91606" lon="0.30591">
        <ele>1577.30252</ele>
        <time>2024-01-12T13:06:14Z</time>
      </trkpt>
      <trkpt lat="42.91604" lon="0.30589">
        <ele>1577.23422</ele>
        <time>2024-01-12T13:06:16Z</time>
      </trkpt>
      <trkpt lat="42.91603" lon="0.30587">
        <ele>1576.51033</ele>
        <time>2024-01-12T13:06:18Z</time>
      </trkpt>
      <trkpt lat="42.91602" lon="0.30586">
        <ele>1576.41495</ele>
        <time>2024-01-12T13:06:19Z</time>
      </trkpt>
      <trkpt lat="42.91602" lon="0.30585">
        <ele>1576.73613</ele>
        <time>2024-01-12T13:06:20Z</time>
      </trkpt>
      <trkpt lat="42.91601" lon="0.30584">
        <ele>1575.73899</ele>
        <time>2024-01-12T13:06:21Z</time>
      </trkpt>
      <trkpt lat="42.916" lon="0.30583">
        <ele>1575.67104</ele>
        <time>2024-01-12T13:06:22Z</time>
      </trkpt>
      <trkpt lat="42.916" lon="0.30582">
        <ele>1575.52208</ele>
        <time>2024-01-12T13:06:23Z</time>
      </trkpt>
      <trkpt lat="42.91599" lon="0.3058">
        <ele>1574.54674</ele>
        <time>2024-01-12T13:06:25Z</time>
      </trkpt>
      <trkpt lat="42.91598" lon="0.30578">
        <ele>1574.66965</ele>
        <time>2024-01-12T13:06:27Z</time>
      </trkpt>
      <trkpt lat="42.91598" lon="0.30577">
        <ele>1574.29584</ele>
        <time>2024-01-12T13:06:28Z</time>
      </trkpt>
      <trkpt lat="42.91597" lon="0.30576">
        <ele>1574.20919</ele>
        <time>2024-01-12T13:06:29Z</time>
      </trkpt>
      <trkpt lat="42.91597" lon="0.30574">
        <ele>1573.37785</ele>
        <time>2024-01-12T13:06:31Z</time>
      </trkpt>
      <trkpt lat="42.91595" lon="0.30573">
        <ele>1573.25106</ele>
        <time>2024-01-12T13:06:33Z</time>
      </trkpt>
      <trkpt lat="42.91595" lon="0.30572">
        <ele>1572.24424</ele>
        <time>2024-01-12T13:06:35Z</time>
      </trkpt>
      <trkpt lat="42.91594" lon="0.30571">
        <ele>1572.51514</ele>
        <time>2024-01-12T13:06:36Z</time>
      </trkpt>
      <trkpt lat="42.91593" lon="0.30569">
        <ele>1571.59838</ele>
        <time>2024-01-12T13:06:38Z</time>
      </trkpt>
      <trkpt lat="42.91592" lon="0.30568">
        <ele>1570.74186</ele>
        <time>2024-01-12T13:06:40Z</time>
      </trkpt>
      <trkpt lat="42.91592" lon="0.30567">
        <ele>1571.32404</ele>
        <time>2024-01-12T13:06:41Z</time>
      </trkpt>
      <trkpt lat="42.9159" lon="0.30566">
        <ele>1569.91838</ele>
        <time>2024-01-12T13:06:43Z</time>
      </trkpt>
      <trkpt lat="42.9159" lon="0.30565">
        <ele>1570.1357</ele>
        <time>2024-01-12T13:06:44Z</time>
      </trkpt>
      <trkpt lat="42.91589" lon="0.30563">
        <ele>1570.2279</ele>
        <time>2024-01-12T13:06:46Z</time>
      </trkpt>
      <trkpt lat="42.91588" lon="0.30562">
        <ele>1570.58347</ele>
        <time>2024-01-12T13:06:47Z</time>
      </trkpt>
      <trkpt lat="42.91587" lon="0.30561">
        <ele>1569.92399</ele>
        <time>2024-01-12T13:06:49Z</time>
      </trkpt>
      <trkpt lat="42.91587" lon="0.3056">
        <ele>1570.05432</ele>
        <time>2024-01-12T13:06:50Z</time>
      </trkpt>
      <trkpt lat="42.91586" lon="0.30558">
        <ele>1569.04443</ele>
        <time>2024-01-12T13:06:52Z</time>
      </trkpt>
      <trkpt lat="42.91585" lon="0.30557">
        <ele>1569.05545</ele>
        <time>2024-01-12T13:06:53Z</time>
      </trkpt>
      <trkpt lat="42.91585" lon="0.30556">
        <ele>1567.98387</ele>
        <time>2024-01-12T13:06:55Z</time>
      </trkpt>
      <trkpt lat="42.91584" lon="0.30553">
        <ele>1568.30388</ele>
        <time>2024-01-12T13:06:57Z</time>
      </trkpt>
      <trkpt lat="42.91583" lon="0.30552">
        <ele>1568.02585</ele>
        <time>2024-01-12T13:06:58Z</time>
      </trkpt>
      <trkpt lat="42.91582" lon="0.30551">
        <ele>1567.05429</ele>
        <time>2024-01-12T13:07:00Z</time>
      </trkpt>
      <trkpt lat="42.91581" lon="0.30549">
        <ele>1566.718</ele>
        <time>2024-01-12T13:07:02Z</time>
      </trkpt>
      <trkpt lat="42.9158" lon="0.30547">
        <ele>1565.96372</ele>
        <time>2024-01-12T13:07:04Z</time>
      </trkpt>
      <trkpt lat="42.9158" lon="0.30546">
        <ele>1565.82423</ele>
        <time>2024-01-12T13:07:05Z</time>
      </trkpt>
      <trkpt lat="42.91579" lon="0.30544">
        <ele>1565.58015</ele>
        <time>2024-01-12T13:07:07Z</time>
      </trkpt>
      <trkpt lat="42.91578" lon="0.30542">
        <ele>1565.47612</ele>
        <time>2024-01-12T13:07:08Z</time>
      </trkpt>
      <trkpt lat="42.91578" lon="0.3054">
        <ele>1565.38536</ele>
        <time>2024-01-12T13:07:10Z</time>
      </trkpt>
      <trkpt lat="42.91576" lon="0.30539">
        <ele>1564.35531</ele>
        <time>2024-01-12T13:07:12Z</time>
      </trkpt>
      <trkpt lat="42.91575" lon="0.30537">
        <ele>1563.40165</ele>
        <time>2024-01-12T13:07:14Z</time>
      </trkpt>
      <trkpt lat="42.91575" lon="0.30536">
        <ele>1563.56183</ele>
        <time>2024-01-12T13:07:15Z</time>
      </trkpt>
      <trkpt lat="42.91574" lon="0.30535">
        <ele>1562.85544</ele>
        <time>2024-01-12T13:07:17Z</time>
      </trkpt>
      <trkpt lat="42.91573" lon="0.30534">
        <ele>1563.00737</ele>
        <time>2024-01-12T13:07:18Z</time>
      </trkpt>
      <trkpt lat="42.91572" lon="0.30532">
        <ele>1562.54706</ele>
        <time>2024-01-12T13:07:19Z</time>
      </trkpt>
      <trkpt lat="42.91571" lon="0.30531">
        <ele>1562.16611</ele>
        <time>2024-01-12T13:07:20Z</time>
      </trkpt>
      <trkpt lat="42.91571" lon="0.3053">
        <ele>1561.77938</ele>
        <time>2024-01-12T13:07:21Z</time>
      </trkpt>
      <trkpt lat="42.91569" lon="0.30528">
        <ele>1560.9782</ele>
        <time>2024-01-12T13:07:23Z</time>
      </trkpt>
      <trkpt lat="42.91569" lon="0.30526">
        <ele>1560.05319</ele>
        <time>2024-01-12T13:07:25Z</time>
      </trkpt>
      <trkpt lat="42.91568" lon="0.30525">
        <ele>1558.9334</ele>
        <time>2024-01-12T13:07:26Z</time>
      </trkpt>
      <trkpt lat="42.91567" lon="0.30524">
        <ele>1558.81206</ele>
        <time>2024-01-12T13:07:27Z</time>
      </trkpt>
      <trkpt lat="42.91567" lon="0.30522">
        <ele>1558.87814</ele>
        <time>2024-01-12T13:07:29Z</time>
      </trkpt>
      <trkpt lat="42.91566" lon="0.30521">
        <ele>1559.00696</ele>
        <time>2024-01-12T13:07:30Z</time>
      </trkpt>
      <trkpt lat="42.91565" lon="0.3052">
        <ele>1558.84043</ele>
        <time>2024-01-12T13:07:31Z</time>
      </trkpt>
      <trkpt lat="42.91565" lon="0.30519">
        <ele>1558.47878</ele>
        <time>2024-01-12T13:07:32Z</time>
      </trkpt>
      <trkpt lat="42.91564" lon="0.30517">
        <ele>1557.6047</ele>
        <time>2024-01-12T13:07:34Z</time>
      </trkpt>
      <trkpt lat="42.91564" lon="0.30515">
        <ele>1556.84286</ele>
        <time>2024-01-12T13:07:35Z</time>
      </trkpt>
      <trkpt lat="42.91562" lon="0.30513">
        <ele>1556.29765</ele>
        <time>2024-01-12T13:07:37Z</time>
      </trkpt>
      <trkpt lat="42.91562" lon="0.30511">
        <ele>1555.631</ele>
        <time>2024-01-12T13:07:39Z</time>
      </trkpt>
      <trkpt lat="42.91561" lon="0.3051">
        <ele>1555.84871</ele>
        <time>2024-01-12T13:07:40Z</time>
      </trkpt>
      <trkpt lat="42.91561" lon="0.30507">
        <ele>1553.52082</ele>
        <time>2024-01-12T13:07:43Z</time>
      </trkpt>
      <trkpt lat="42.9156" lon="0.30505">
        <ele>1554.12437</ele>
        <time>2024-01-12T13:07:45Z</time>
      </trkpt>
      <trkpt lat="42.91559" lon="0.30503">
        <ele>1554.7208</ele>
        <time>2024-01-12T13:07:47Z</time>
      </trkpt>
      <trkpt lat="42.91559" lon="0.30501">
        <ele>1553.91</ele>
        <time>2024-01-12T13:07:48Z</time>
      </trkpt>
      <trkpt lat="42.91558" lon="0.30499">
        <ele>1552.55421</ele>
        <time>2024-01-12T13:07:50Z</time>
      </trkpt>
      <trkpt lat="42.91557" lon="0.30498">
        <ele>1552.29806</ele>
        <time>2024-01-12T13:07:52Z</time>
      </trkpt>
      <trkpt lat="42.91556" lon="0.30496">
        <ele>1552.74366</ele>
        <time>2024-01-12T13:07:53Z</time>
      </trkpt>
      <trkpt lat="42.91556" lon="0.30494">
        <ele>1552.34388</ele>
        <time>2024-01-12T13:07:55Z</time>
      </trkpt>
      <trkpt lat="42.91555" lon="0.30492">
        <ele>1551.4276</ele>
        <time>2024-01-12T13:07:58Z</time>
      </trkpt>
      <trkpt lat="42.91554" lon="0.30491">
        <ele>1551.14484</ele>
        <time>2024-01-12T13:07:59Z</time>
      </trkpt>
      <trkpt lat="42.91554" lon="0.3049">
        <ele>1550.57281</ele>
        <time>2024-01-12T13:08:00Z</time>
      </trkpt>
      <trkpt lat="42.91552" lon="0.30488">
        <ele>1552.09046</ele>
        <time>2024-01-12T13:08:02Z</time>
      </trkpt>
      <trkpt lat="42.91552" lon="0.30486">
        <ele>1552.13823</ele>
        <time>2024-01-12T13:08:03Z</time>
      </trkpt>
      <trkpt lat="42.91551" lon="0.30485">
        <ele>1551.73871</ele>
        <time>2024-01-12T13:08:04Z</time>
      </trkpt>
      <trkpt lat="42.91551" lon="0.30484">
        <ele>1551.20681</ele>
        <time>2024-01-12T13:08:06Z</time>
      </trkpt>
      <trkpt lat="42.9155" lon="0.30483">
        <ele>1551.38703</ele>
        <time>2024-01-12T13:08:07Z</time>
      </trkpt>
      <trkpt lat="42.91549" lon="0.3048">
        <ele>1550.57354</ele>
        <time>2024-01-12T13:08:09Z</time>
      </trkpt>
      <trkpt lat="42.91549" lon="0.30478">
        <ele>1550.13265</ele>
        <time>2024-01-12T13:08:11Z</time>
      </trkpt>
      <trkpt lat="42.91548" lon="0.30477">
        <ele>1550.05856</ele>
        <time>2024-01-12T13:08:12Z</time>
      </trkpt>
      <trkpt lat="42.91547" lon="0.30475">
        <ele>1548.16986</ele>
        <time>2024-01-12T13:08:14Z</time>
      </trkpt>
      <trkpt lat="42.91547" lon="0.30472">
        <ele>1548.31145</ele>
        <time>2024-01-12T13:08:16Z</time>
      </trkpt>
      <trkpt lat="42.91546" lon="0.30471">
        <ele>1548.09637</ele>
        <time>2024-01-12T13:08:17Z</time>
      </trkpt>
      <trkpt lat="42.91546" lon="0.3047">
        <ele>1546.58998</ele>
        <time>2024-01-12T13:08:19Z</time>
      </trkpt>
      <trkpt lat="42.91545" lon="0.30468">
        <ele>1546.29832</ele>
        <time>2024-01-12T13:08:20Z</time>
      </trkpt>
      <trkpt lat="42.91545" lon="0.30466">
        <ele>1545.94052</ele>
        <time>2024-01-12T13:08:21Z</time>
      </trkpt>
      <trkpt lat="42.91544" lon="0.30465">
        <ele>1545.99059</ele>
        <time>2024-01-12T13:08:22Z</time>
      </trkpt>
      <trkpt lat="42.91544" lon="0.30464">
        <ele>1544.93743</ele>
        <time>2024-01-12T13:08:24Z</time>
      </trkpt>
      <trkpt lat="42.91543" lon="0.30462">
        <ele>1544.57722</ele>
        <time>2024-01-12T13:08:26Z</time>
      </trkpt>
      <trkpt lat="42.91542" lon="0.3046">
        <ele>1544.10023</ele>
        <time>2024-01-12T13:08:28Z</time>
      </trkpt>
      <trkpt lat="42.91541" lon="0.30458">
        <ele>1543.5675</ele>
        <time>2024-01-12T13:08:30Z</time>
      </trkpt>
      <trkpt lat="42.9154" lon="0.30456">
        <ele>1543.89334</ele>
        <time>2024-01-12T13:08:31Z</time>
      </trkpt>
      <trkpt lat="42.9154" lon="0.30455">
        <ele>1544.02646</ele>
        <time>2024-01-12T13:08:32Z</time>
      </trkpt>
      <trkpt lat="42.91539" lon="0.30454">
        <ele>1543.38207</ele>
        <time>2024-01-12T13:08:34Z</time>
      </trkpt>
      <trkpt lat="42.91538" lon="0.30452">
        <ele>1542.40778</ele>
        <time>2024-01-12T13:08:36Z</time>
      </trkpt>
      <trkpt lat="42.91537" lon="0.30451">
        <ele>1541.85977</ele>
        <time>2024-01-12T13:08:37Z</time>
      </trkpt>
      <trkpt lat="42.91536" lon="0.3045">
        <ele>1540.77849</ele>
        <time>2024-01-12T13:08:39Z</time>
      </trkpt>
      <trkpt lat="42.91534" lon="0.30448">
        <ele>1540.29555</ele>
        <time>2024-01-12T13:08:41Z</time>
      </trkpt>
      <trkpt lat="42.91533" lon="0.30446">
        <ele>1539.60235</ele>
        <time>2024-01-12T13:08:43Z</time>
      </trkpt>
      <trkpt lat="42.91532" lon="0.30445">
        <ele>1540.09008</ele>
        <time>2024-01-12T13:08:45Z</time>
      </trkpt>
      <trkpt lat="42.91531" lon="0.30443">
        <ele>1540.76334</ele>
        <time>2024-01-12T13:08:47Z</time>
      </trkpt>
      <trkpt lat="42.9153" lon="0.30442">
        <ele>1540.97921</ele>
        <time>2024-01-12T13:08:48Z</time>
      </trkpt>
      <trkpt lat="42.91529" lon="0.30441">
        <ele>1540.36301</ele>
        <time>2024-01-12T13:08:49Z</time>
      </trkpt>
      <trkpt lat="42.91528" lon="0.30439">
        <ele>1539.7645</ele>
        <time>2024-01-12T13:08:51Z</time>
      </trkpt>
      <trkpt lat="42.91526" lon="0.30436">
        <ele>1539.04715</ele>
        <time>2024-01-12T13:08:53Z</time>
      </trkpt>
      <trkpt lat="42.91525" lon="0.30436">
        <ele>1538.30018</ele>
        <time>2024-01-12T13:08:54Z</time>
      </trkpt>
      <trkpt lat="42.91525" lon="0.30434">
        <ele>1538.54332</ele>
        <time>2024-01-12T13:08:56Z</time>
      </trkpt>
      <trkpt lat="42.91524" lon="0.30432">
        <ele>1538.70007</ele>
        <time>2024-01-12T13:08:57Z</time>
      </trkpt>
      <trkpt lat="42.91524" lon="0.30431">
        <ele>1538.27763</ele>
        <time>2024-01-12T13:08:58Z</time>
      </trkpt>
      <trkpt lat="42.91523" lon="0.30429">
        <ele>1538.99854</ele>
        <time>2024-01-12T13:09:00Z</time>
      </trkpt>
      <trkpt lat="42.91522" lon="0.30427">
        <ele>1539.17113</ele>
        <time>2024-01-12T13:09:01Z</time>
      </trkpt>
      <trkpt lat="42.91522" lon="0.30426">
        <ele>1538.56969</ele>
        <time>2024-01-12T13:09:02Z</time>
      </trkpt>
      <trkpt lat="42.91521" lon="0.30425">
        <ele>1538.01024</ele>
        <time>2024-01-12T13:09:03Z</time>
      </trkpt>
      <trkpt lat="42.91521" lon="0.30423">
        <ele>1538.40816</ele>
        <time>2024-01-12T13:09:04Z</time>
      </trkpt>
      <trkpt lat="42.91521" lon="0.30421">
        <ele>1538.22289</ele>
        <time>2024-01-12T13:09:06Z</time>
      </trkpt>
      <trkpt lat="42.9152" lon="0.3042">
        <ele>1538.05384</ele>
        <time>2024-01-12T13:09:07Z</time>
      </trkpt>
      <trkpt lat="42.91519" lon="0.30418">
        <ele>1536.55201</ele>
        <time>2024-01-12T13:09:09Z</time>
      </trkpt>
      <trkpt lat="42.91519" lon="0.30417">
        <ele>1535.99599</ele>
        <time>2024-01-12T13:09:10Z</time>
      </trkpt>
      <trkpt lat="42.91519" lon="0.30415">
        <ele>1536.98896</ele>
        <time>2024-01-12T13:09:11Z</time>
      </trkpt>
      <trkpt lat="42.91519" lon="0.30413">
        <ele>1535.92487</ele>
        <time>2024-01-12T13:09:12Z</time>
      </trkpt>
      <trkpt lat="42.91518" lon="0.30412">
        <ele>1535.4737</ele>
        <time>2024-01-12T13:09:13Z</time>
      </trkpt>
      <trkpt lat="42.91517" lon="0.30411">
        <ele>1535.52627</ele>
        <time>2024-01-12T13:09:14Z</time>
      </trkpt>
      <trkpt lat="42.91517" lon="0.30409">
        <ele>1535.1697</ele>
        <time>2024-01-12T13:09:15Z</time>
      </trkpt>
      <trkpt lat="42.91516" lon="0.30407">
        <ele>1535.48577</ele>
        <time>2024-01-12T13:09:17Z</time>
      </trkpt>
      <trkpt lat="42.91516" lon="0.30405">
        <ele>1534.7488</ele>
        <time>2024-01-12T13:09:19Z</time>
      </trkpt>
      <trkpt lat="42.91516" lon="0.30402">
        <ele>1535.00071</ele>
        <time>2024-01-12T13:09:21Z</time>
      </trkpt>
      <trkpt lat="42.91516" lon="0.30401">
        <ele>1535.10167</ele>
        <time>2024-01-12T13:09:22Z</time>
      </trkpt>
      <trkpt lat="42.91516" lon="0.304">
        <ele>1535.65929</ele>
        <time>2024-01-12T13:09:23Z</time>
      </trkpt>
      <trkpt lat="42.91515" lon="0.30398">
        <ele>1533.21062</ele>
        <time>2024-01-12T13:09:25Z</time>
      </trkpt>
      <trkpt lat="42.91515" lon="0.30397">
        <ele>1533.03836</ele>
        <time>2024-01-12T13:09:26Z</time>
      </trkpt>
      <trkpt lat="42.91515" lon="0.30395">
        <ele>1532.18182</ele>
        <time>2024-01-12T13:09:27Z</time>
      </trkpt>
      <trkpt lat="42.91514" lon="0.30393">
        <ele>1532.05732</ele>
        <time>2024-01-12T13:09:29Z</time>
      </trkpt>
      <trkpt lat="42.91514" lon="0.30392">
        <ele>1531.5479</ele>
        <time>2024-01-12T13:09:30Z</time>
      </trkpt>
      <trkpt lat="42.91513" lon="0.30391">
        <ele>1530.78058</ele>
        <time>2024-01-12T13:09:31Z</time>
      </trkpt>
      <trkpt lat="42.91513" lon="0.3039">
        <ele>1531.40223</ele>
        <time>2024-01-12T13:09:32Z</time>
      </trkpt>
      <trkpt lat="42.91512" lon="0.30388">
        <ele>1530.74822</ele>
        <time>2024-01-12T13:09:33Z</time>
      </trkpt>
      <trkpt lat="42.91512" lon="0.30386">
        <ele>1530.39604</ele>
        <time>2024-01-12T13:09:35Z</time>
      </trkpt>
      <trkpt lat="42.9151" lon="0.30384">
        <ele>1530.44768</ele>
        <time>2024-01-12T13:09:37Z</time>
      </trkpt>
      <trkpt lat="42.9151" lon="0.30382">
        <ele>1531.09997</ele>
        <time>2024-01-12T13:09:38Z</time>
      </trkpt>
      <trkpt lat="42.91509" lon="0.30381">
        <ele>1531.30364</ele>
        <time>2024-01-12T13:09:39Z</time>
      </trkpt>
      <trkpt lat="42.91508" lon="0.30379">
        <ele>1529.8585</ele>
        <time>2024-01-12T13:09:41Z</time>
      </trkpt>
      <trkpt lat="42.91507" lon="0.30377">
        <ele>1530.22735</ele>
        <time>2024-01-12T13:09:42Z</time>
      </trkpt>
      <trkpt lat="42.91507" lon="0.30376">
        <ele>1530.63627</ele>
        <time>2024-01-12T13:09:44Z</time>
      </trkpt>
      <trkpt lat="42.91507" lon="0.30377">
        <ele>1530.92871</ele>
        <time>2024-01-12T13:10:16Z</time>
      </trkpt>
      <trkpt lat="42.91507" lon="0.30375">
        <ele>1531.67692</ele>
        <time>2024-01-12T13:10:47Z</time>
      </trkpt>
      <trkpt lat="42.91506" lon="0.30373">
        <ele>1530.83604</ele>
        <time>2024-01-12T13:10:48Z</time>
      </trkpt>
      <trkpt lat="42.91505" lon="0.30371">
        <ele>1530.81878</ele>
        <time>2024-01-12T13:10:49Z</time>
      </trkpt>
      <trkpt lat="42.91504" lon="0.3037">
        <ele>1530.47447</ele>
        <time>2024-01-12T13:10:50Z</time>
      </trkpt>
      <trkpt lat="42.91503" lon="0.30368">
        <ele>1530.2057</ele>
        <time>2024-01-12T13:10:53Z</time>
      </trkpt>
      <trkpt lat="42.91503" lon="0.30365">
        <ele>1530.88392</ele>
        <time>2024-01-12T13:10:54Z</time>
      </trkpt>
      <trkpt lat="42.91502" lon="0.30364">
        <ele>1529.82082</ele>
        <time>2024-01-12T13:10:55Z</time>
      </trkpt>
      <trkpt lat="42.91501" lon="0.30364">
        <ele>1529.04152</ele>
        <time>2024-01-12T13:10:56Z</time>
      </trkpt>
      <trkpt lat="42.915" lon="0.30363">
        <ele>1527.76809</ele>
        <time>2024-01-12T13:10:57Z</time>
      </trkpt>
      <trkpt lat="42.915" lon="0.3036">
        <ele>1528.15418</ele>
        <time>2024-01-12T13:10:59Z</time>
      </trkpt>
      <trkpt lat="42.91498" lon="0.30357">
        <ele>1526.84952</ele>
        <time>2024-01-12T13:11:01Z</time>
      </trkpt>
      <trkpt lat="42.91497" lon="0.30354">
        <ele>1524.70956</ele>
        <time>2024-01-12T13:11:05Z</time>
      </trkpt>
      <trkpt lat="42.91496" lon="0.30353">
        <ele>1523.39101</ele>
        <time>2024-01-12T13:11:06Z</time>
      </trkpt>
      <trkpt lat="42.91495" lon="0.30351">
        <ele>1522.68404</ele>
        <time>2024-01-12T13:11:07Z</time>
      </trkpt>
      <trkpt lat="42.91495" lon="0.30349">
        <ele>1523.80735</ele>
        <time>2024-01-12T13:11:08Z</time>
      </trkpt>
      <trkpt lat="42.91494" lon="0.30349">
        <ele>1523.71409</ele>
        <time>2024-01-12T13:11:11Z</time>
      </trkpt>
      <trkpt lat="42.91492" lon="0.30346">
        <ele>1523.2463</ele>
        <time>2024-01-12T13:11:12Z</time>
      </trkpt>
      <trkpt lat="42.91492" lon="0.30345">
        <ele>1523.01723</ele>
        <time>2024-01-12T13:11:13Z</time>
      </trkpt>
      <trkpt lat="42.91491" lon="0.30343">
        <ele>1522.91649</ele>
        <time>2024-01-12T13:11:14Z</time>
      </trkpt>
      <trkpt lat="42.9149" lon="0.30342">
        <ele>1521.22392</ele>
        <time>2024-01-12T13:11:16Z</time>
      </trkpt>
      <trkpt lat="42.9149" lon="0.30341">
        <ele>1521.02354</ele>
        <time>2024-01-12T13:11:17Z</time>
      </trkpt>
      <trkpt lat="42.91489" lon="0.3034">
        <ele>1519.40639</ele>
        <time>2024-01-12T13:11:18Z</time>
      </trkpt>
      <trkpt lat="42.91489" lon="0.30338">
        <ele>1518.7829</ele>
        <time>2024-01-12T13:11:20Z</time>
      </trkpt>
      <trkpt lat="42.91488" lon="0.30336">
        <ele>1519.35397</ele>
        <time>2024-01-12T13:11:21Z</time>
      </trkpt>
      <trkpt lat="42.91487" lon="0.30335">
        <ele>1518.38029</ele>
        <time>2024-01-12T13:11:23Z</time>
      </trkpt>
      <trkpt lat="42.91487" lon="0.30334">
        <ele>1517.86658</ele>
        <time>2024-01-12T13:11:24Z</time>
      </trkpt>
      <trkpt lat="42.91486" lon="0.30333">
        <ele>1517.89524</ele>
        <time>2024-01-12T13:11:25Z</time>
      </trkpt>
      <trkpt lat="42.91486" lon="0.3033">
        <ele>1518.18999</ele>
        <time>2024-01-12T13:11:26Z</time>
      </trkpt>
      <trkpt lat="42.91484" lon="0.30329">
        <ele>1516.77223</ele>
        <time>2024-01-12T13:11:28Z</time>
      </trkpt>
      <trkpt lat="42.91484" lon="0.30328">
        <ele>1516.01928</ele>
        <time>2024-01-12T13:11:29Z</time>
      </trkpt>
      <trkpt lat="42.91483" lon="0.30326">
        <ele>1516.36309</ele>
        <time>2024-01-12T13:11:30Z</time>
      </trkpt>
      <trkpt lat="42.91482" lon="0.30324">
        <ele>1515.26348</ele>
        <time>2024-01-12T13:11:33Z</time>
      </trkpt>
      <trkpt lat="42.91481" lon="0.30321">
        <ele>1515.90793</ele>
        <time>2024-01-12T13:11:34Z</time>
      </trkpt>
      <trkpt lat="42.91482" lon="0.30321">
        <ele>1515.32217</ele>
        <time>2024-01-12T13:11:44Z</time>
      </trkpt>
      <trkpt lat="42.91483" lon="0.3032">
        <ele>1516.18217</ele>
        <time>2024-01-12T13:11:51Z</time>
      </trkpt>
      <trkpt lat="42.91484" lon="0.30319">
        <ele>1514.60975</ele>
        <time>2024-01-12T13:12:11Z</time>
      </trkpt>
      <trkpt lat="42.91485" lon="0.30319">
        <ele>1515.80961</ele>
        <time>2024-01-12T13:12:14Z</time>
      </trkpt>
      <trkpt lat="42.91485" lon="0.30317">
        <ele>1516.21242</ele>
        <time>2024-01-12T13:12:17Z</time>
      </trkpt>
      <trkpt lat="42.91485" lon="0.30315">
        <ele>1515.45215</ele>
        <time>2024-01-12T13:12:19Z</time>
      </trkpt>
      <trkpt lat="42.91484" lon="0.30315">
        <ele>1515.5865</ele>
        <time>2024-01-12T13:12:20Z</time>
      </trkpt>
      <trkpt lat="42.91483" lon="0.30314">
        <ele>1515.77777</ele>
        <time>2024-01-12T13:12:21Z</time>
      </trkpt>
      <trkpt lat="42.91482" lon="0.30311">
        <ele>1514.34016</ele>
        <time>2024-01-12T13:12:23Z</time>
      </trkpt>
      <trkpt lat="42.91481" lon="0.30311">
        <ele>1513.29268</ele>
        <time>2024-01-12T13:12:25Z</time>
      </trkpt>
      <trkpt lat="42.9148" lon="0.3031">
        <ele>1513.50651</ele>
        <time>2024-01-12T13:12:26Z</time>
      </trkpt>
      <trkpt lat="42.91479" lon="0.30307">
        <ele>1513.69185</ele>
        <time>2024-01-12T13:12:28Z</time>
      </trkpt>
      <trkpt lat="42.91478" lon="0.30306">
        <ele>1513.61157</ele>
        <time>2024-01-12T13:12:29Z</time>
      </trkpt>
      <trkpt lat="42.91476" lon="0.30305">
        <ele>1515.13111</ele>
        <time>2024-01-12T13:12:31Z</time>
      </trkpt>
      <trkpt lat="42.91476" lon="0.30303">
        <ele>1513.72498</ele>
        <time>2024-01-12T13:12:34Z</time>
      </trkpt>
      <trkpt lat="42.91475" lon="0.30301">
        <ele>1513.83652</ele>
        <time>2024-01-12T13:12:36Z</time>
      </trkpt>
      <trkpt lat="42.91474" lon="0.303">
        <ele>1513.64044</ele>
        <time>2024-01-12T13:12:37Z</time>
      </trkpt>
      <trkpt lat="42.91473" lon="0.30298">
        <ele>1513.33654</ele>
        <time>2024-01-12T13:12:39Z</time>
      </trkpt>
      <trkpt lat="42.91472" lon="0.30297">
        <ele>1512.12569</ele>
        <time>2024-01-12T13:12:41Z</time>
      </trkpt>
      <trkpt lat="42.91471" lon="0.30297">
        <ele>1512.26884</ele>
        <time>2024-01-12T13:12:42Z</time>
      </trkpt>
      <trkpt lat="42.91471" lon="0.30295">
        <ele>1511.43921</ele>
        <time>2024-01-12T13:12:43Z</time>
      </trkpt>
      <trkpt lat="42.9147" lon="0.30294">
        <ele>1511.73076</ele>
        <time>2024-01-12T13:12:44Z</time>
      </trkpt>
      <trkpt lat="42.9147" lon="0.30293">
        <ele>1511.38657</ele>
        <time>2024-01-12T13:12:45Z</time>
      </trkpt>
      <trkpt lat="42.91469" lon="0.30292">
        <ele>1511.1359</ele>
        <time>2024-01-12T13:12:47Z</time>
      </trkpt>
      <trkpt lat="42.91469" lon="0.30291">
        <ele>1511.04854</ele>
        <time>2024-01-12T13:12:48Z</time>
      </trkpt>
      <trkpt lat="42.91468" lon="0.30289">
        <ele>1511.00931</ele>
        <time>2024-01-12T13:12:49Z</time>
      </trkpt>
      <trkpt lat="42.91467" lon="0.30288">
        <ele>1511.49199</ele>
        <time>2024-01-12T13:12:50Z</time>
      </trkpt>
      <trkpt lat="42.91466" lon="0.30285">
        <ele>1511.04909</ele>
        <time>2024-01-12T13:12:52Z</time>
      </trkpt>
      <trkpt lat="42.91466" lon="0.30284">
        <ele>1509.62481</ele>
        <time>2024-01-12T13:12:54Z</time>
      </trkpt>
      <trkpt lat="42.91466" lon="0.30283">
        <ele>1509.1016</ele>
        <time>2024-01-12T13:12:55Z</time>
      </trkpt>
      <trkpt lat="42.91465" lon="0.30281">
        <ele>1509.27906</ele>
        <time>2024-01-12T13:12:57Z</time>
      </trkpt>
      <trkpt lat="42.91464" lon="0.30278">
        <ele>1508.64388</ele>
        <time>2024-01-12T13:12:59Z</time>
      </trkpt>
      <trkpt lat="42.91464" lon="0.30276">
        <ele>1507.73664</ele>
        <time>2024-01-12T13:13:00Z</time>
      </trkpt>
      <trkpt lat="42.91464" lon="0.30275">
        <ele>1507.27967</ele>
        <time>2024-01-12T13:13:02Z</time>
      </trkpt>
      <trkpt lat="42.91464" lon="0.30273">
        <ele>1506.96398</ele>
        <time>2024-01-12T13:13:03Z</time>
      </trkpt>
      <trkpt lat="42.91464" lon="0.30272">
        <ele>1507.42472</ele>
        <time>2024-01-12T13:13:04Z</time>
      </trkpt>
      <trkpt lat="42.91464" lon="0.30269">
        <ele>1507.31441</ele>
        <time>2024-01-12T13:13:06Z</time>
      </trkpt>
      <trkpt lat="42.91464" lon="0.30267">
        <ele>1507.03475</ele>
        <time>2024-01-12T13:13:07Z</time>
      </trkpt>
      <trkpt lat="42.91464" lon="0.30266">
        <ele>1506.39805</ele>
        <time>2024-01-12T13:13:08Z</time>
      </trkpt>
      <trkpt lat="42.91464" lon="0.30264">
        <ele>1505.99293</ele>
        <time>2024-01-12T13:13:09Z</time>
      </trkpt>
      <trkpt lat="42.91464" lon="0.30263">
        <ele>1506.23045</ele>
        <time>2024-01-12T13:13:10Z</time>
      </trkpt>
      <trkpt lat="42.91464" lon="0.30261">
        <ele>1506.45804</ele>
        <time>2024-01-12T13:13:11Z</time>
      </trkpt>
      <trkpt lat="42.91464" lon="0.30259">
        <ele>1506.23222</ele>
        <time>2024-01-12T13:13:13Z</time>
      </trkpt>
      <trkpt lat="42.91464" lon="0.30258">
        <ele>1505.59426</ele>
        <time>2024-01-12T13:13:14Z</time>
      </trkpt>
      <trkpt lat="42.91463" lon="0.30256">
        <ele>1505.83116</ele>
        <time>2024-01-12T13:13:15Z</time>
      </trkpt>
      <trkpt lat="42.91463" lon="0.30254">
        <ele>1504.00763</ele>
        <time>2024-01-12T13:13:17Z</time>
      </trkpt>
      <trkpt lat="42.91461" lon="0.30253">
        <ele>1504.78548</ele>
        <time>2024-01-12T13:13:19Z</time>
      </trkpt>
      <trkpt lat="42.91461" lon="0.30252">
        <ele>1504.59272</ele>
        <time>2024-01-12T13:13:20Z</time>
      </trkpt>
      <trkpt lat="42.9146" lon="0.30251">
        <ele>1504.47234</ele>
        <time>2024-01-12T13:13:21Z</time>
      </trkpt>
      <trkpt lat="42.91459" lon="0.3025">
        <ele>1503.90714</ele>
        <time>2024-01-12T13:13:22Z</time>
      </trkpt>
      <trkpt lat="42.91458" lon="0.30248">
        <ele>1504.71859</ele>
        <time>2024-01-12T13:13:24Z</time>
      </trkpt>
      <trkpt lat="42.91457" lon="0.30247">
        <ele>1504.5597</ele>
        <time>2024-01-12T13:13:25Z</time>
      </trkpt>
      <trkpt lat="42.91457" lon="0.30245">
        <ele>1504.16817</ele>
        <time>2024-01-12T13:13:27Z</time>
      </trkpt>
      <trkpt lat="42.91455" lon="0.30244">
        <ele>1502.8511</ele>
        <time>2024-01-12T13:13:29Z</time>
      </trkpt>
      <trkpt lat="42.91454" lon="0.30242">
        <ele>1502.12611</ele>
        <time>2024-01-12T13:13:31Z</time>
      </trkpt>
      <trkpt lat="42.91453" lon="0.30242">
        <ele>1500.50798</ele>
        <time>2024-01-12T13:13:33Z</time>
      </trkpt>
      <trkpt lat="42.91452" lon="0.3024">
        <ele>1500.36071</ele>
        <time>2024-01-12T13:13:34Z</time>
      </trkpt>
      <trkpt lat="42.91451" lon="0.30238">
        <ele>1499.76357</ele>
        <time>2024-01-12T13:13:36Z</time>
      </trkpt>
      <trkpt lat="42.9145" lon="0.30237">
        <ele>1499.13599</ele>
        <time>2024-01-12T13:13:37Z</time>
      </trkpt>
      <trkpt lat="42.91449" lon="0.30236">
        <ele>1499.06517</ele>
        <time>2024-01-12T13:13:39Z</time>
      </trkpt>
      <trkpt lat="42.91448" lon="0.30233">
        <ele>1498.76216</ele>
        <time>2024-01-12T13:13:41Z</time>
      </trkpt>
      <trkpt lat="42.91447" lon="0.30231">
        <ele>1499.2323</ele>
        <time>2024-01-12T13:13:43Z</time>
      </trkpt>
      <trkpt lat="42.91447" lon="0.30229">
        <ele>1499.61286</ele>
        <time>2024-01-12T13:13:45Z</time>
      </trkpt>
      <trkpt lat="42.91446" lon="0.30227">
        <ele>1498.41672</ele>
        <time>2024-01-12T13:13:46Z</time>
      </trkpt>
      <trkpt lat="42.91446" lon="0.30226">
        <ele>1499.29949</ele>
        <time>2024-01-12T13:13:47Z</time>
      </trkpt>
      <trkpt lat="42.91445" lon="0.30224">
        <ele>1498.85985</ele>
        <time>2024-01-12T13:13:49Z</time>
      </trkpt>
      <trkpt lat="42.91444" lon="0.30222">
        <ele>1498.27173</ele>
        <time>2024-01-12T13:13:51Z</time>
      </trkpt>
      <trkpt lat="42.91444" lon="0.30221">
        <ele>1498.06694</ele>
        <time>2024-01-12T13:13:52Z</time>
      </trkpt>
      <trkpt lat="42.91443" lon="0.3022">
        <ele>1498.39879</ele>
        <time>2024-01-12T13:13:53Z</time>
      </trkpt>
      <trkpt lat="42.91443" lon="0.30217">
        <ele>1498.95603</ele>
        <time>2024-01-12T13:13:55Z</time>
      </trkpt>
      <trkpt lat="42.91442" lon="0.30214">
        <ele>1497.8405</ele>
        <time>2024-01-12T13:13:57Z</time>
      </trkpt>
      <trkpt lat="42.91442" lon="0.30213">
        <ele>1498.13548</ele>
        <time>2024-01-12T13:13:58Z</time>
      </trkpt>
      <trkpt lat="42.91441" lon="0.30212">
        <ele>1497.5897</ele>
        <time>2024-01-12T13:13:59Z</time>
      </trkpt>
      <trkpt lat="42.91441" lon="0.30209">
        <ele>1497.7238</ele>
        <time>2024-01-12T13:14:01Z</time>
      </trkpt>
      <trkpt lat="42.91441" lon="0.30208">
        <ele>1497.68867</ele>
        <time>2024-01-12T13:14:02Z</time>
      </trkpt>
      <trkpt lat="42.9144" lon="0.30207">
        <ele>1496.86892</ele>
        <time>2024-01-12T13:14:03Z</time>
      </trkpt>
      <trkpt lat="42.91441" lon="0.30204">
        <ele>1496.78448</ele>
        <time>2024-01-12T13:14:05Z</time>
      </trkpt>
      <trkpt lat="42.91441" lon="0.30202">
        <ele>1497.67374</ele>
        <time>2024-01-12T13:14:06Z</time>
      </trkpt>
      <trkpt lat="42.91441" lon="0.30199">
        <ele>1499.19129</ele>
        <time>2024-01-12T13:14:08Z</time>
      </trkpt>
      <trkpt lat="42.91441" lon="0.30196">
        <ele>1497.93913</ele>
        <time>2024-01-12T13:14:10Z</time>
      </trkpt>
      <trkpt lat="42.91442" lon="0.30194">
        <ele>1496.43126</ele>
        <time>2024-01-12T13:14:12Z</time>
      </trkpt>
      <trkpt lat="42.91442" lon="0.30191">
        <ele>1495.89937</ele>
        <time>2024-01-12T13:14:14Z</time>
      </trkpt>
      <trkpt lat="42.91442" lon="0.3019">
        <ele>1496.7356</ele>
        <time>2024-01-12T13:14:15Z</time>
      </trkpt>
      <trkpt lat="42.91441" lon="0.30188">
        <ele>1496.40303</ele>
        <time>2024-01-12T13:14:16Z</time>
      </trkpt>
      <trkpt lat="42.91441" lon="0.30186">
        <ele>1496.02853</ele>
        <time>2024-01-12T13:14:17Z</time>
      </trkpt>
      <trkpt lat="42.91443" lon="0.30184">
        <ele>1495.91837</ele>
        <time>2024-01-12T13:14:19Z</time>
      </trkpt>
      <trkpt lat="42.91443" lon="0.30182">
        <ele>1496.19545</ele>
        <time>2024-01-12T13:14:20Z</time>
      </trkpt>
      <trkpt lat="42.91443" lon="0.3018">
        <ele>1495.30937</ele>
        <time>2024-01-12T13:14:23Z</time>
      </trkpt>
      <trkpt lat="42.91443" lon="0.30179">
        <ele>1494.94304</ele>
        <time>2024-01-12T13:14:24Z</time>
      </trkpt>
      <trkpt lat="42.91443" lon="0.30176">
        <ele>1493.62054</ele>
        <time>2024-01-12T13:14:26Z</time>
      </trkpt>
      <trkpt lat="42.91443" lon="0.30174">
        <ele>1494.99587</ele>
        <time>2024-01-12T13:14:28Z</time>
      </trkpt>
      <trkpt lat="42.91444" lon="0.30172">
        <ele>1494.87703</ele>
        <time>2024-01-12T13:14:29Z</time>
      </trkpt>
      <trkpt lat="42.91444" lon="0.30171">
        <ele>1493.93496</ele>
        <time>2024-01-12T13:14:30Z</time>
      </trkpt>
      <trkpt lat="42.91443" lon="0.30171">
        <ele>1493.98045</ele>
        <time>2024-01-12T13:14:31Z</time>
      </trkpt>
      <trkpt lat="42.91443" lon="0.30169">
        <ele>1494.40129</ele>
        <time>2024-01-12T13:14:32Z</time>
      </trkpt>
      <trkpt lat="42.91444" lon="0.30168">
        <ele>1494.46443</ele>
        <time>2024-01-12T13:14:33Z</time>
      </trkpt>
      <trkpt lat="42.91444" lon="0.30165">
        <ele>1495.62463</ele>
        <time>2024-01-12T13:14:35Z</time>
      </trkpt>
      <trkpt lat="42.91444" lon="0.30162">
        <ele>1493.90829</ele>
        <time>2024-01-12T13:14:38Z</time>
      </trkpt>
      <trkpt lat="42.91443" lon="0.30161">
        <ele>1494.70877</ele>
        <time>2024-01-12T13:14:40Z</time>
      </trkpt>
      <trkpt lat="42.91444" lon="0.30159">
        <ele>1494.91459</ele>
        <time>2024-01-12T13:14:41Z</time>
      </trkpt>
      <trkpt lat="42.91444" lon="0.30158">
        <ele>1494.89251</ele>
        <time>2024-01-12T13:14:42Z</time>
      </trkpt>
      <trkpt lat="42.91444" lon="0.30157">
        <ele>1494.37547</ele>
        <time>2024-01-12T13:14:43Z</time>
      </trkpt>
      <trkpt lat="42.91444" lon="0.30155">
        <ele>1494.25249</ele>
        <time>2024-01-12T13:14:45Z</time>
      </trkpt>
      <trkpt lat="42.91444" lon="0.30153">
        <ele>1492.89922</ele>
        <time>2024-01-12T13:14:47Z</time>
      </trkpt>
      <trkpt lat="42.91444" lon="0.30151">
        <ele>1492.11041</ele>
        <time>2024-01-12T13:14:49Z</time>
      </trkpt>
      <trkpt lat="42.91445" lon="0.30149">
        <ele>1491.82877</ele>
        <time>2024-01-12T13:14:51Z</time>
      </trkpt>
      <trkpt lat="42.91445" lon="0.30146">
        <ele>1492.3732</ele>
        <time>2024-01-12T13:14:53Z</time>
      </trkpt>
      <trkpt lat="42.91445" lon="0.30145">
        <ele>1492.67882</ele>
        <time>2024-01-12T13:14:54Z</time>
      </trkpt>
      <trkpt lat="42.91444" lon="0.30143">
        <ele>1493.06331</ele>
        <time>2024-01-12T13:14:55Z</time>
      </trkpt>
      <trkpt lat="42.91444" lon="0.30141">
        <ele>1492.41128</ele>
        <time>2024-01-12T13:14:57Z</time>
      </trkpt>
      <trkpt lat="42.91444" lon="0.30139">
        <ele>1493.0814</ele>
        <time>2024-01-12T13:14:58Z</time>
      </trkpt>
      <trkpt lat="42.91443" lon="0.30138">
        <ele>1492.29162</ele>
        <time>2024-01-12T13:15:00Z</time>
      </trkpt>
      <trkpt lat="42.91443" lon="0.30136">
        <ele>1492.64347</ele>
        <time>2024-01-12T13:15:01Z</time>
      </trkpt>
      <trkpt lat="42.91443" lon="0.30134">
        <ele>1492.21973</ele>
        <time>2024-01-12T13:15:03Z</time>
      </trkpt>
      <trkpt lat="42.91443" lon="0.30132">
        <ele>1492.23013</ele>
        <time>2024-01-12T13:15:05Z</time>
      </trkpt>
      <trkpt lat="42.91443" lon="0.30129">
        <ele>1492.61546</ele>
        <time>2024-01-12T13:15:07Z</time>
      </trkpt>
      <trkpt lat="42.91443" lon="0.30126">
        <ele>1492.33975</ele>
        <time>2024-01-12T13:15:09Z</time>
      </trkpt>
      <trkpt lat="42.91444" lon="0.30124">
        <ele>1491.92494</ele>
        <time>2024-01-12T13:15:10Z</time>
      </trkpt>
      <trkpt lat="42.91443" lon="0.30123">
        <ele>1491.97185</ele>
        <time>2024-01-12T13:15:11Z</time>
      </trkpt>
      <trkpt lat="42.91443" lon="0.30122">
        <ele>1492.09945</ele>
        <time>2024-01-12T13:15:13Z</time>
      </trkpt>
      <trkpt lat="42.91442" lon="0.3012">
        <ele>1491.41651</ele>
        <time>2024-01-12T13:15:14Z</time>
      </trkpt>
      <trkpt lat="42.91442" lon="0.30118">
        <ele>1491.70875</ele>
        <time>2024-01-12T13:15:16Z</time>
      </trkpt>
      <trkpt lat="42.91442" lon="0.30116">
        <ele>1492.2058</ele>
        <time>2024-01-12T13:15:17Z</time>
      </trkpt>
      <trkpt lat="42.91441" lon="0.30115">
        <ele>1492.17946</ele>
        <time>2024-01-12T13:15:19Z</time>
      </trkpt>
      <trkpt lat="42.91441" lon="0.30113">
        <ele>1492.59337</ele>
        <time>2024-01-12T13:15:20Z</time>
      </trkpt>
      <trkpt lat="42.91441" lon="0.30111">
        <ele>1493.10113</ele>
        <time>2024-01-12T13:15:21Z</time>
      </trkpt>
      <trkpt lat="42.91441" lon="0.3011">
        <ele>1492.6404</ele>
        <time>2024-01-12T13:15:22Z</time>
      </trkpt>
      <trkpt lat="42.91441" lon="0.30107">
        <ele>1492.29898</ele>
        <time>2024-01-12T13:15:25Z</time>
      </trkpt>
      <trkpt lat="42.91441" lon="0.30105">
        <ele>1493.12705</ele>
        <time>2024-01-12T13:15:26Z</time>
      </trkpt>
      <trkpt lat="42.9144" lon="0.30104">
        <ele>1493.80288</ele>
        <time>2024-01-12T13:15:27Z</time>
      </trkpt>
      <trkpt lat="42.9144" lon="0.30102">
        <ele>1493.23483</ele>
        <time>2024-01-12T13:15:29Z</time>
      </trkpt>
      <trkpt lat="42.91439" lon="0.30099">
        <ele>1491.41744</ele>
        <time>2024-01-12T13:15:32Z</time>
      </trkpt>
      <trkpt lat="42.91438" lon="0.30098">
        <ele>1491.95422</ele>
        <time>2024-01-12T13:15:33Z</time>
      </trkpt>
      <trkpt lat="42.91438" lon="0.30096">
        <ele>1492.27553</ele>
        <time>2024-01-12T13:15:35Z</time>
      </trkpt>
      <trkpt lat="42.91438" lon="0.30094">
        <ele>1491.20249</ele>
        <time>2024-01-12T13:15:37Z</time>
      </trkpt>
      <trkpt lat="42.91438" lon="0.30092">
        <ele>1491.26608</ele>
        <time>2024-01-12T13:15:38Z</time>
      </trkpt>
      <trkpt lat="42.91438" lon="0.3009">
        <ele>1491.05228</ele>
        <time>2024-01-12T13:15:40Z</time>
      </trkpt>
      <trkpt lat="42.91438" lon="0.30088">
        <ele>1491.22239</ele>
        <time>2024-01-12T13:15:41Z</time>
      </trkpt>
      <trkpt lat="42.91438" lon="0.30086">
        <ele>1490.40724</ele>
        <time>2024-01-12T13:15:43Z</time>
      </trkpt>
      <trkpt lat="42.91437" lon="0.30083">
        <ele>1489.63694</ele>
        <time>2024-01-12T13:15:44Z</time>
      </trkpt>
      <trkpt lat="42.91437" lon="0.30082">
        <ele>1489.8783</ele>
        <time>2024-01-12T13:15:46Z</time>
      </trkpt>
      <trkpt lat="42.91437" lon="0.3008">
        <ele>1489.43985</ele>
        <time>2024-01-12T13:15:48Z</time>
      </trkpt>
      <trkpt lat="42.91437" lon="0.30078">
        <ele>1489.44571</ele>
        <time>2024-01-12T13:15:49Z</time>
      </trkpt>
      <trkpt lat="42.91437" lon="0.30077">
        <ele>1489.00794</ele>
        <time>2024-01-12T13:15:50Z</time>
      </trkpt>
      <trkpt lat="42.91437" lon="0.30075">
        <ele>1490.25258</ele>
        <time>2024-01-12T13:15:51Z</time>
      </trkpt>
      <trkpt lat="42.91437" lon="0.30074">
        <ele>1489.82913</ele>
        <time>2024-01-12T13:15:52Z</time>
      </trkpt>
      <trkpt lat="42.91437" lon="0.30072">
        <ele>1489.06557</ele>
        <time>2024-01-12T13:15:54Z</time>
      </trkpt>
      <trkpt lat="42.91436" lon="0.30071">
        <ele>1487.62766</ele>
        <time>2024-01-12T13:15:56Z</time>
      </trkpt>
      <trkpt lat="42.91436" lon="0.3007">
        <ele>1488.53416</ele>
        <time>2024-01-12T13:15:57Z</time>
      </trkpt>
      <trkpt lat="42.91437" lon="0.30068">
        <ele>1488.31708</ele>
        <time>2024-01-12T13:15:58Z</time>
      </trkpt>
      <trkpt lat="42.91436" lon="0.30067">
        <ele>1488.03936</ele>
        <time>2024-01-12T13:15:59Z</time>
      </trkpt>
      <trkpt lat="42.91436" lon="0.30065">
        <ele>1488.20415</ele>
        <time>2024-01-12T13:16:00Z</time>
      </trkpt>
      <trkpt lat="42.91437" lon="0.30066">
        <ele>1488.84166</ele>
        <time>2024-01-12T13:16:04Z</time>
      </trkpt>
      <trkpt lat="42.91437" lon="0.30063">
        <ele>1488.8046</ele>
        <time>2024-01-12T13:16:09Z</time>
      </trkpt>
      <trkpt lat="42.91437" lon="0.30064">
        <ele>1487.70802</ele>
        <time>2024-01-12T13:16:18Z</time>
      </trkpt>
      <trkpt lat="42.91438" lon="0.30065">
        <ele>1488.66211</ele>
        <time>2024-01-12T13:16:40Z</time>
      </trkpt>
      <trkpt lat="42.91438" lon="0.30064">
        <ele>1487.94549</ele>
        <time>2024-01-12T13:16:55Z</time>
      </trkpt>
      <trkpt lat="42.91438" lon="0.30062">
        <ele>1487.24176</ele>
        <time>2024-01-12T13:16:57Z</time>
      </trkpt>
      <trkpt lat="42.91438" lon="0.3006">
        <ele>1487.18723</ele>
        <time>2024-01-12T13:16:58Z</time>
      </trkpt>
      <trkpt lat="42.91438" lon="0.30058">
        <ele>1486.93479</ele>
        <time>2024-01-12T13:16:59Z</time>
      </trkpt>
      <trkpt lat="42.91438" lon="0.30056">
        <ele>1487.51928</ele>
        <time>2024-01-12T13:17:01Z</time>
      </trkpt>
      <trkpt lat="42.91439" lon="0.30054">
        <ele>1487.1678</ele>
        <time>2024-01-12T13:17:02Z</time>
      </trkpt>
      <trkpt lat="42.91439" lon="0.30052">
        <ele>1487.16425</ele>
        <time>2024-01-12T13:17:03Z</time>
      </trkpt>
      <trkpt lat="42.91438" lon="0.3005">
        <ele>1487.04282</ele>
        <time>2024-01-12T13:17:05Z</time>
      </trkpt>
      <trkpt lat="42.91439" lon="0.30049">
        <ele>1486.35811</ele>
        <time>2024-01-12T13:17:06Z</time>
      </trkpt>
      <trkpt lat="42.91439" lon="0.30047">
        <ele>1486.55901</ele>
        <time>2024-01-12T13:17:07Z</time>
      </trkpt>
      <trkpt lat="42.91439" lon="0.30044">
        <ele>1484.81455</ele>
        <time>2024-01-12T13:17:09Z</time>
      </trkpt>
      <trkpt lat="42.91439" lon="0.30043">
        <ele>1484.50655</ele>
        <time>2024-01-12T13:17:10Z</time>
      </trkpt>
      <trkpt lat="42.91439" lon="0.30041">
        <ele>1484.79136</ele>
        <time>2024-01-12T13:17:11Z</time>
      </trkpt>
      <trkpt lat="42.91439" lon="0.30039">
        <ele>1483.58566</ele>
        <time>2024-01-12T13:17:13Z</time>
      </trkpt>
      <trkpt lat="42.91439" lon="0.30037">
        <ele>1484.13358</ele>
        <time>2024-01-12T13:17:15Z</time>
      </trkpt>
      <trkpt lat="42.91439" lon="0.30035">
        <ele>1484.18766</ele>
        <time>2024-01-12T13:17:16Z</time>
      </trkpt>
      <trkpt lat="42.91439" lon="0.30033">
        <ele>1483.70862</ele>
        <time>2024-01-12T13:17:17Z</time>
      </trkpt>
      <trkpt lat="42.91439" lon="0.30031">
        <ele>1484.35451</ele>
        <time>2024-01-12T13:17:19Z</time>
      </trkpt>
      <trkpt lat="42.91439" lon="0.30028">
        <ele>1483.86374</ele>
        <time>2024-01-12T13:17:22Z</time>
      </trkpt>
      <trkpt lat="42.9144" lon="0.30027">
        <ele>1482.60527</ele>
        <time>2024-01-12T13:17:24Z</time>
      </trkpt>
      <trkpt lat="42.91441" lon="0.30025">
        <ele>1482.11232</ele>
        <time>2024-01-12T13:17:25Z</time>
      </trkpt>
      <trkpt lat="42.91442" lon="0.30024">
        <ele>1481.75038</ele>
        <time>2024-01-12T13:17:27Z</time>
      </trkpt>
      <trkpt lat="42.91442" lon="0.30022">
        <ele>1480.48761</ele>
        <time>2024-01-12T13:17:29Z</time>
      </trkpt>
      <trkpt lat="42.91442" lon="0.3002">
        <ele>1478.93661</ele>
        <time>2024-01-12T13:17:31Z</time>
      </trkpt>
      <trkpt lat="42.91442" lon="0.30018">
        <ele>1478.70077</ele>
        <time>2024-01-12T13:17:32Z</time>
      </trkpt>
      <trkpt lat="42.91442" lon="0.30016">
        <ele>1478.78751</ele>
        <time>2024-01-12T13:17:33Z</time>
      </trkpt>
      <trkpt lat="42.91442" lon="0.30014">
        <ele>1478.17225</ele>
        <time>2024-01-12T13:17:35Z</time>
      </trkpt>
      <trkpt lat="42.91442" lon="0.30013">
        <ele>1477.25974</ele>
        <time>2024-01-12T13:17:36Z</time>
      </trkpt>
      <trkpt lat="42.91442" lon="0.30011">
        <ele>1477.11367</ele>
        <time>2024-01-12T13:17:37Z</time>
      </trkpt>
      <trkpt lat="42.91442" lon="0.30009">
        <ele>1476.37715</ele>
        <time>2024-01-12T13:17:39Z</time>
      </trkpt>
      <trkpt lat="42.91442" lon="0.30007">
        <ele>1477.42881</ele>
        <time>2024-01-12T13:17:41Z</time>
      </trkpt>
      <trkpt lat="42.91442" lon="0.30006">
        <ele>1477.39098</ele>
        <time>2024-01-12T13:17:42Z</time>
      </trkpt>
      <trkpt lat="42.91442" lon="0.30004">
        <ele>1476.2177</ele>
        <time>2024-01-12T13:17:43Z</time>
      </trkpt>
      <trkpt lat="42.91442" lon="0.30002">
        <ele>1475.58769</ele>
        <time>2024-01-12T13:17:45Z</time>
      </trkpt>
      <trkpt lat="42.91442" lon="0.30001">
        <ele>1475.4519</ele>
        <time>2024-01-12T13:17:46Z</time>
      </trkpt>
      <trkpt lat="42.91442" lon="0.29999">
        <ele>1474.92076</ele>
        <time>2024-01-12T13:17:48Z</time>
      </trkpt>
      <trkpt lat="42.91442" lon="0.29997">
        <ele>1473.95784</ele>
        <time>2024-01-12T13:17:50Z</time>
      </trkpt>
      <trkpt lat="42.91443" lon="0.29994">
        <ele>1473.59358</ele>
        <time>2024-01-12T13:17:52Z</time>
      </trkpt>
      <trkpt lat="42.91443" lon="0.29993">
        <ele>1474.1413</ele>
        <time>2024-01-12T13:17:53Z</time>
      </trkpt>
      <trkpt lat="42.91443" lon="0.29991">
        <ele>1474.35802</ele>
        <time>2024-01-12T13:17:54Z</time>
      </trkpt>
      <trkpt lat="42.91443" lon="0.2999">
        <ele>1474.48235</ele>
        <time>2024-01-12T13:17:55Z</time>
      </trkpt>
      <trkpt lat="42.91443" lon="0.29988">
        <ele>1473.89979</ele>
        <time>2024-01-12T13:17:56Z</time>
      </trkpt>
      <trkpt lat="42.91444" lon="0.29986">
        <ele>1472.45915</ele>
        <time>2024-01-12T13:17:58Z</time>
      </trkpt>
      <trkpt lat="42.91446" lon="0.29984">
        <ele>1472.39756</ele>
        <time>2024-01-12T13:18:00Z</time>
      </trkpt>
      <trkpt lat="42.91446" lon="0.29983">
        <ele>1471.22353</ele>
        <time>2024-01-12T13:18:01Z</time>
      </trkpt>
      <trkpt lat="42.91447" lon="0.29982">
        <ele>1471.53865</ele>
        <time>2024-01-12T13:18:02Z</time>
      </trkpt>
      <trkpt lat="42.91448" lon="0.29981">
        <ele>1471.17638</ele>
        <time>2024-01-12T13:18:03Z</time>
      </trkpt>
      <trkpt lat="42.91449" lon="0.29979">
        <ele>1470.11302</ele>
        <time>2024-01-12T13:18:05Z</time>
      </trkpt>
      <trkpt lat="42.9145" lon="0.29978">
        <ele>1470.1718</ele>
        <time>2024-01-12T13:18:06Z</time>
      </trkpt>
      <trkpt lat="42.9145" lon="0.29976">
        <ele>1470.09871</ele>
        <time>2024-01-12T13:18:07Z</time>
      </trkpt>
      <trkpt lat="42.91451" lon="0.29974">
        <ele>1469.46838</ele>
        <time>2024-01-12T13:18:09Z</time>
      </trkpt>
      <trkpt lat="42.91451" lon="0.29972">
        <ele>1469.52599</ele>
        <time>2024-01-12T13:18:11Z</time>
      </trkpt>
      <trkpt lat="42.91452" lon="0.2997">
        <ele>1469.75107</ele>
        <time>2024-01-12T13:18:12Z</time>
      </trkpt>
      <trkpt lat="42.91453" lon="0.29968">
        <ele>1468.1704</ele>
        <time>2024-01-12T13:18:14Z</time>
      </trkpt>
      <trkpt lat="42.91454" lon="0.29967">
        <ele>1468.09538</ele>
        <time>2024-01-12T13:18:15Z</time>
      </trkpt>
      <trkpt lat="42.91455" lon="0.29966">
        <ele>1468.23908</ele>
        <time>2024-01-12T13:18:16Z</time>
      </trkpt>
      <trkpt lat="42.91456" lon="0.29963">
        <ele>1467.64351</ele>
        <time>2024-01-12T13:18:18Z</time>
      </trkpt>
      <trkpt lat="42.91457" lon="0.29961">
        <ele>1466.64229</ele>
        <time>2024-01-12T13:18:20Z</time>
      </trkpt>
      <trkpt lat="42.91459" lon="0.29959">
        <ele>1467.7539</ele>
        <time>2024-01-12T13:18:22Z</time>
      </trkpt>
      <trkpt lat="42.9146" lon="0.29957">
        <ele>1465.5809</ele>
        <time>2024-01-12T13:18:24Z</time>
      </trkpt>
      <trkpt lat="42.9146" lon="0.29956">
        <ele>1465.33025</ele>
        <time>2024-01-12T13:18:25Z</time>
      </trkpt>
      <trkpt lat="42.9146" lon="0.29954">
        <ele>1464.58597</ele>
        <time>2024-01-12T13:18:26Z</time>
      </trkpt>
      <trkpt lat="42.91461" lon="0.29953">
        <ele>1464.07155</ele>
        <time>2024-01-12T13:18:27Z</time>
      </trkpt>
      <trkpt lat="42.91462" lon="0.29952">
        <ele>1463.93276</ele>
        <time>2024-01-12T13:18:28Z</time>
      </trkpt>
      <trkpt lat="42.91462" lon="0.2995">
        <ele>1463.30563</ele>
        <time>2024-01-12T13:18:29Z</time>
      </trkpt>
      <trkpt lat="42.91463" lon="0.29948">
        <ele>1464.62453</ele>
        <time>2024-01-12T13:18:31Z</time>
      </trkpt>
      <trkpt lat="42.91463" lon="0.29947">
        <ele>1463.64047</ele>
        <time>2024-01-12T13:18:33Z</time>
      </trkpt>
      <trkpt lat="42.91464" lon="0.29946">
        <ele>1463.24219</ele>
        <time>2024-01-12T13:18:34Z</time>
      </trkpt>
      <trkpt lat="42.91465" lon="0.29945">
        <ele>1462.05755</ele>
        <time>2024-01-12T13:18:36Z</time>
      </trkpt>
      <trkpt lat="42.91465" lon="0.29944">
        <ele>1460.68154</ele>
        <time>2024-01-12T13:18:39Z</time>
      </trkpt>
      <trkpt lat="42.91464" lon="0.29944">
        <ele>1465.85925</ele>
        <time>2024-01-12T13:18:44Z</time>
      </trkpt>
      <trkpt lat="42.91466" lon="0.29943">
        <ele>1463.15906</ele>
        <time>2024-01-12T13:18:59Z</time>
      </trkpt>
      <trkpt lat="42.91468" lon="0.29943">
        <ele>1462.89169</ele>
        <time>2024-01-12T13:19:01Z</time>
      </trkpt>
      <trkpt lat="42.91469" lon="0.29943">
        <ele>1463.19101</ele>
        <time>2024-01-12T13:19:02Z</time>
      </trkpt>
      <trkpt lat="42.91471" lon="0.29943">
        <ele>1464.77293</ele>
        <time>2024-01-12T13:19:03Z</time>
      </trkpt>
      <trkpt lat="42.91473" lon="0.29944">
        <ele>1462.13851</ele>
        <time>2024-01-12T13:19:05Z</time>
      </trkpt>
      <trkpt lat="42.91474" lon="0.29945">
        <ele>1463.03286</ele>
        <time>2024-01-12T13:19:06Z</time>
      </trkpt>
      <trkpt lat="42.91475" lon="0.29945">
        <ele>1463.9702</ele>
        <time>2024-01-12T13:19:07Z</time>
      </trkpt>
      <trkpt lat="42.91476" lon="0.29945">
        <ele>1463.46497</ele>
        <time>2024-01-12T13:19:08Z</time>
      </trkpt>
      <trkpt lat="42.91478" lon="0.29945">
        <ele>1463.17576</ele>
        <time>2024-01-12T13:19:10Z</time>
      </trkpt>
      <trkpt lat="42.91479" lon="0.29944">
        <ele>1461.74601</ele>
        <time>2024-01-12T13:19:12Z</time>
      </trkpt>
      <trkpt lat="42.9148" lon="0.29943">
        <ele>1461.27978</ele>
        <time>2024-01-12T13:19:13Z</time>
      </trkpt>
      <trkpt lat="42.91481" lon="0.29943">
        <ele>1459.72964</ele>
        <time>2024-01-12T13:19:14Z</time>
      </trkpt>
      <trkpt lat="42.91483" lon="0.29942">
        <ele>1460.33791</ele>
        <time>2024-01-12T13:19:16Z</time>
      </trkpt>
      <trkpt lat="42.91485" lon="0.2994">
        <ele>1459.56157</ele>
        <time>2024-01-12T13:19:18Z</time>
      </trkpt>
      <trkpt lat="42.91486" lon="0.29938">
        <ele>1458.71135</ele>
        <time>2024-01-12T13:19:19Z</time>
      </trkpt>
      <trkpt lat="42.91486" lon="0.29938">
        <ele>1459.22081</ele>
        <time>2024-01-12T13:19:20Z</time>
      </trkpt>
      <trkpt lat="42.91487" lon="0.29937">
        <ele>1459.38737</ele>
        <time>2024-01-12T13:19:21Z</time>
      </trkpt>
      <trkpt lat="42.91488" lon="0.29936">
        <ele>1459.12663</ele>
        <time>2024-01-12T13:19:22Z</time>
      </trkpt>
      <trkpt lat="42.9149" lon="0.29935">
        <ele>1459.54502</ele>
        <time>2024-01-12T13:19:23Z</time>
      </trkpt>
      <trkpt lat="42.91491" lon="0.29934">
        <ele>1459.2087</ele>
        <time>2024-01-12T13:19:24Z</time>
      </trkpt>
      <trkpt lat="42.91492" lon="0.29933">
        <ele>1458.48447</ele>
        <time>2024-01-12T13:19:25Z</time>
      </trkpt>
      <trkpt lat="42.91493" lon="0.29932">
        <ele>1457.65557</ele>
        <time>2024-01-12T13:19:26Z</time>
      </trkpt>
      <trkpt lat="42.91494" lon="0.29931">
        <ele>1457.14101</ele>
        <time>2024-01-12T13:19:27Z</time>
      </trkpt>
      <trkpt lat="42.91495" lon="0.2993">
        <ele>1455.99442</ele>
        <time>2024-01-12T13:19:29Z</time>
      </trkpt>
      <trkpt lat="42.91497" lon="0.29927">
        <ele>1455.38361</ele>
        <time>2024-01-12T13:19:31Z</time>
      </trkpt>
      <trkpt lat="42.91498" lon="0.29926">
        <ele>1455.34256</ele>
        <time>2024-01-12T13:19:33Z</time>
      </trkpt>
      <trkpt lat="42.91498" lon="0.29924">
        <ele>1454.17237</ele>
        <time>2024-01-12T13:19:35Z</time>
      </trkpt>
      <trkpt lat="42.91499" lon="0.29922">
        <ele>1453.98868</ele>
        <time>2024-01-12T13:19:36Z</time>
      </trkpt>
      <trkpt lat="42.915" lon="0.29921">
        <ele>1453.26972</ele>
        <time>2024-01-12T13:19:37Z</time>
      </trkpt>
      <trkpt lat="42.91501" lon="0.2992">
        <ele>1453.35677</ele>
        <time>2024-01-12T13:19:38Z</time>
      </trkpt>
      <trkpt lat="42.91502" lon="0.29919">
        <ele>1452.71407</ele>
        <time>2024-01-12T13:19:39Z</time>
      </trkpt>
      <trkpt lat="42.91503" lon="0.29917">
        <ele>1453.57149</ele>
        <time>2024-01-12T13:19:40Z</time>
      </trkpt>
      <trkpt lat="42.91504" lon="0.29916">
        <ele>1452.91149</ele>
        <time>2024-01-12T13:19:42Z</time>
      </trkpt>
      <trkpt lat="42.91505" lon="0.29915">
        <ele>1452.67388</ele>
        <time>2024-01-12T13:19:43Z</time>
      </trkpt>
      <trkpt lat="42.91506" lon="0.29914">
        <ele>1451.69783</ele>
        <time>2024-01-12T13:19:44Z</time>
      </trkpt>
      <trkpt lat="42.91507" lon="0.29914">
        <ele>1451.04096</ele>
        <time>2024-01-12T13:19:45Z</time>
      </trkpt>
      <trkpt lat="42.91508" lon="0.29913">
        <ele>1450.13149</ele>
        <time>2024-01-12T13:19:46Z</time>
      </trkpt>
      <trkpt lat="42.9151" lon="0.29912">
        <ele>1449.63375</ele>
        <time>2024-01-12T13:19:47Z</time>
      </trkpt>
      <trkpt lat="42.9151" lon="0.29911">
        <ele>1449.75053</ele>
        <time>2024-01-12T13:19:48Z</time>
      </trkpt>
      <trkpt lat="42.91512" lon="0.2991">
        <ele>1450.23853</ele>
        <time>2024-01-12T13:19:49Z</time>
      </trkpt>
      <trkpt lat="42.91513" lon="0.29908">
        <ele>1451.48981</ele>
        <time>2024-01-12T13:19:50Z</time>
      </trkpt>
      <trkpt lat="42.91514" lon="0.29907">
        <ele>1451.24536</ele>
        <time>2024-01-12T13:19:51Z</time>
      </trkpt>
      <trkpt lat="42.91515" lon="0.29906">
        <ele>1450.13416</ele>
        <time>2024-01-12T13:19:52Z</time>
      </trkpt>
      <trkpt lat="42.91515" lon="0.29904">
        <ele>1451.02075</ele>
        <time>2024-01-12T13:19:53Z</time>
      </trkpt>
      <trkpt lat="42.91516" lon="0.29903">
        <ele>1449.31515</ele>
        <time>2024-01-12T13:19:55Z</time>
      </trkpt>
      <trkpt lat="42.91517" lon="0.29902">
        <ele>1447.84339</ele>
        <time>2024-01-12T13:19:56Z</time>
      </trkpt>
      <trkpt lat="42.91517" lon="0.29901">
        <ele>1448.37653</ele>
        <time>2024-01-12T13:19:57Z</time>
      </trkpt>
      <trkpt lat="42.91518" lon="0.29899">
        <ele>1447.43743</ele>
        <time>2024-01-12T13:19:58Z</time>
      </trkpt>
      <trkpt lat="42.91518" lon="0.29897">
        <ele>1447.51436</ele>
        <time>2024-01-12T13:19:59Z</time>
      </trkpt>
      <trkpt lat="42.91519" lon="0.29896">
        <ele>1447.22657</ele>
        <time>2024-01-12T13:20:00Z</time>
      </trkpt>
      <trkpt lat="42.9152" lon="0.29895">
        <ele>1445.84804</ele>
        <time>2024-01-12T13:20:01Z</time>
      </trkpt>
      <trkpt lat="42.9152" lon="0.29894">
        <ele>1445.62501</ele>
        <time>2024-01-12T13:20:02Z</time>
      </trkpt>
      <trkpt lat="42.91521" lon="0.29893">
        <ele>1446.47632</ele>
        <time>2024-01-12T13:20:03Z</time>
      </trkpt>
      <trkpt lat="42.91522" lon="0.29892">
        <ele>1444.63392</ele>
        <time>2024-01-12T13:20:04Z</time>
      </trkpt>
      <trkpt lat="42.91522" lon="0.29891">
        <ele>1445.00609</ele>
        <time>2024-01-12T13:20:05Z</time>
      </trkpt>
      <trkpt lat="42.91523" lon="0.2989">
        <ele>1444.80917</ele>
        <time>2024-01-12T13:20:06Z</time>
      </trkpt>
      <trkpt lat="42.91524" lon="0.29887">
        <ele>1443.34928</ele>
        <time>2024-01-12T13:20:08Z</time>
      </trkpt>
      <trkpt lat="42.91524" lon="0.29885">
        <ele>1442.41465</ele>
        <time>2024-01-12T13:20:12Z</time>
      </trkpt>
      <trkpt lat="42.91524" lon="0.29884">
        <ele>1443.63427</ele>
        <time>2024-01-12T13:20:14Z</time>
      </trkpt>
      <trkpt lat="42.91522" lon="0.29885">
        <ele>1442.09225</ele>
        <time>2024-01-12T13:20:17Z</time>
      </trkpt>
      <trkpt lat="42.91521" lon="0.29883">
        <ele>1446.64926</ele>
        <time>2024-01-12T13:20:19Z</time>
      </trkpt>
      <trkpt lat="42.91522" lon="0.29884">
        <ele>1443.04629</ele>
        <time>2024-01-12T13:20:21Z</time>
      </trkpt>
      <trkpt lat="42.91522" lon="0.29883">
        <ele>1444.8057</ele>
        <time>2024-01-12T13:20:28Z</time>
      </trkpt>
      <trkpt lat="42.91523" lon="0.29883">
        <ele>1439.60798</ele>
        <time>2024-01-12T13:20:53Z</time>
      </trkpt>
      <trkpt lat="42.91524" lon="0.29886">
        <ele>1435.67626</ele>
        <time>2024-01-12T13:21:17Z</time>
      </trkpt>
      <trkpt lat="42.91524" lon="0.29884">
        <ele>1437.50525</ele>
        <time>2024-01-12T13:21:21Z</time>
      </trkpt>
      <trkpt lat="42.91525" lon="0.29883">
        <ele>1442.31372</ele>
        <time>2024-01-12T13:21:30Z</time>
      </trkpt>
      <trkpt lat="42.91526" lon="0.29883">
        <ele>1443.27818</ele>
        <time>2024-01-12T13:21:33Z</time>
      </trkpt>
      <trkpt lat="42.91528" lon="0.29883">
        <ele>1446.34455</ele>
        <time>2024-01-12T13:21:41Z</time>
      </trkpt>
      <trkpt lat="42.91529" lon="0.29882">
        <ele>1444.45686</ele>
        <time>2024-01-12T13:21:56Z</time>
      </trkpt>
      <trkpt lat="42.91528" lon="0.29881">
        <ele>1441.82235</ele>
        <time>2024-01-12T13:21:58Z</time>
      </trkpt>
      <trkpt lat="42.91529" lon="0.29879">
        <ele>1443.23088</ele>
        <time>2024-01-12T13:22:00Z</time>
      </trkpt>
      <trkpt lat="42.9153" lon="0.29879">
        <ele>1442.01795</ele>
        <time>2024-01-12T13:22:02Z</time>
      </trkpt>
      <trkpt lat="42.91532" lon="0.29877">
        <ele>1442.13815</ele>
        <time>2024-01-12T13:22:04Z</time>
      </trkpt>
      <trkpt lat="42.91532" lon="0.29876">
        <ele>1440.77672</ele>
        <time>2024-01-12T13:22:05Z</time>
      </trkpt>
      <trkpt lat="42.91534" lon="0.29875">
        <ele>1441.40677</ele>
        <time>2024-01-12T13:22:06Z</time>
      </trkpt>
      <trkpt lat="42.91535" lon="0.29873">
        <ele>1439.02837</ele>
        <time>2024-01-12T13:22:08Z</time>
      </trkpt>
      <trkpt lat="42.91536" lon="0.29872">
        <ele>1439.19036</ele>
        <time>2024-01-12T13:22:09Z</time>
      </trkpt>
      <trkpt lat="42.91537" lon="0.2987">
        <ele>1439.79356</ele>
        <time>2024-01-12T13:22:11Z</time>
      </trkpt>
      <trkpt lat="42.91538" lon="0.29869">
        <ele>1438.70154</ele>
        <time>2024-01-12T13:22:12Z</time>
      </trkpt>
      <trkpt lat="42.91539" lon="0.29868">
        <ele>1438.78421</ele>
        <time>2024-01-12T13:22:14Z</time>
      </trkpt>
      <trkpt lat="42.91539" lon="0.29867">
        <ele>1439.66072</ele>
        <time>2024-01-12T13:22:15Z</time>
      </trkpt>
      <trkpt lat="42.9154" lon="0.29865">
        <ele>1441.44521</ele>
        <time>2024-01-12T13:22:16Z</time>
      </trkpt>
      <trkpt lat="42.91541" lon="0.29863">
        <ele>1441.19416</ele>
        <time>2024-01-12T13:22:18Z</time>
      </trkpt>
      <trkpt lat="42.91541" lon="0.29861">
        <ele>1439.89404</ele>
        <time>2024-01-12T13:22:19Z</time>
      </trkpt>
      <trkpt lat="42.91542" lon="0.29859">
        <ele>1441.35256</ele>
        <time>2024-01-12T13:22:21Z</time>
      </trkpt>
      <trkpt lat="42.91543" lon="0.29858">
        <ele>1439.64272</ele>
        <time>2024-01-12T13:22:22Z</time>
      </trkpt>
      <trkpt lat="42.91544" lon="0.29856">
        <ele>1439.64658</ele>
        <time>2024-01-12T13:22:23Z</time>
      </trkpt>
      <trkpt lat="42.91544" lon="0.29855">
        <ele>1439.00017</ele>
        <time>2024-01-12T13:22:24Z</time>
      </trkpt>
      <trkpt lat="42.91545" lon="0.29854">
        <ele>1438.83035</ele>
        <time>2024-01-12T13:22:25Z</time>
      </trkpt>
      <trkpt lat="42.91545" lon="0.29852">
        <ele>1438.41259</ele>
        <time>2024-01-12T13:22:26Z</time>
      </trkpt>
      <trkpt lat="42.91546" lon="0.29851">
        <ele>1438.3164</ele>
        <time>2024-01-12T13:22:27Z</time>
      </trkpt>
      <trkpt lat="42.91546" lon="0.29849">
        <ele>1437.87705</ele>
        <time>2024-01-12T13:22:28Z</time>
      </trkpt>
      <trkpt lat="42.91546" lon="0.29848">
        <ele>1438.23187</ele>
        <time>2024-01-12T13:22:29Z</time>
      </trkpt>
      <trkpt lat="42.91547" lon="0.29847">
        <ele>1437.82321</ele>
        <time>2024-01-12T13:22:30Z</time>
      </trkpt>
      <trkpt lat="42.91548" lon="0.29845">
        <ele>1436.94797</ele>
        <time>2024-01-12T13:22:32Z</time>
      </trkpt>
      <trkpt lat="42.91548" lon="0.29844">
        <ele>1436.46391</ele>
        <time>2024-01-12T13:22:33Z</time>
      </trkpt>
      <trkpt lat="42.91549" lon="0.29842">
        <ele>1437.57648</ele>
        <time>2024-01-12T13:22:34Z</time>
      </trkpt>
      <trkpt lat="42.91549" lon="0.29841">
        <ele>1437.59423</ele>
        <time>2024-01-12T13:22:35Z</time>
      </trkpt>
      <trkpt lat="42.9155" lon="0.2984">
        <ele>1437.2613</ele>
        <time>2024-01-12T13:22:36Z</time>
      </trkpt>
      <trkpt lat="42.91551" lon="0.29839">
        <ele>1435.87469</ele>
        <time>2024-01-12T13:22:38Z</time>
      </trkpt>
      <trkpt lat="42.91551" lon="0.29837">
        <ele>1436.70292</ele>
        <time>2024-01-12T13:22:39Z</time>
      </trkpt>
      <trkpt lat="42.91552" lon="0.29836">
        <ele>1435.55406</ele>
        <time>2024-01-12T13:22:40Z</time>
      </trkpt>
      <trkpt lat="42.91552" lon="0.29834">
        <ele>1435.91458</ele>
        <time>2024-01-12T13:22:41Z</time>
      </trkpt>
      <trkpt lat="42.91553" lon="0.29833">
        <ele>1435.95412</ele>
        <time>2024-01-12T13:22:42Z</time>
      </trkpt>
      <trkpt lat="42.91553" lon="0.29831">
        <ele>1436.53955</ele>
        <time>2024-01-12T13:22:43Z</time>
      </trkpt>
      <trkpt lat="42.91555" lon="0.29831">
        <ele>1435.48177</ele>
        <time>2024-01-12T13:22:44Z</time>
      </trkpt>
      <trkpt lat="42.91556" lon="0.29828">
        <ele>1434.2126</ele>
        <time>2024-01-12T13:22:46Z</time>
      </trkpt>
      <trkpt lat="42.91556" lon="0.29827">
        <ele>1434.40721</ele>
        <time>2024-01-12T13:22:47Z</time>
      </trkpt>
      <trkpt lat="42.91556" lon="0.29825">
        <ele>1433.87213</ele>
        <time>2024-01-12T13:22:48Z</time>
      </trkpt>
      <trkpt lat="42.91557" lon="0.29824">
        <ele>1433.76342</ele>
        <time>2024-01-12T13:22:49Z</time>
      </trkpt>
      <trkpt lat="42.91558" lon="0.29822">
        <ele>1434.23657</ele>
        <time>2024-01-12T13:22:50Z</time>
      </trkpt>
      <trkpt lat="42.91559" lon="0.2982">
        <ele>1434.38832</ele>
        <time>2024-01-12T13:22:51Z</time>
      </trkpt>
      <trkpt lat="42.9156" lon="0.29818">
        <ele>1434.43006</ele>
        <time>2024-01-12T13:22:53Z</time>
      </trkpt>
      <trkpt lat="42.9156" lon="0.29817">
        <ele>1433.06589</ele>
        <time>2024-01-12T13:22:54Z</time>
      </trkpt>
      <trkpt lat="42.91561" lon="0.29815">
        <ele>1432.14971</ele>
        <time>2024-01-12T13:22:56Z</time>
      </trkpt>
      <trkpt lat="42.91562" lon="0.29814">
        <ele>1431.22892</ele>
        <time>2024-01-12T13:22:57Z</time>
      </trkpt>
      <trkpt lat="42.91562" lon="0.29812">
        <ele>1431.72074</ele>
        <time>2024-01-12T13:22:58Z</time>
      </trkpt>
      <trkpt lat="42.91563" lon="0.29811">
        <ele>1430.95123</ele>
        <time>2024-01-12T13:23:00Z</time>
      </trkpt>
      <trkpt lat="42.91564" lon="0.29809">
        <ele>1429.03207</ele>
        <time>2024-01-12T13:23:02Z</time>
      </trkpt>
      <trkpt lat="42.91565" lon="0.29808">
        <ele>1427.2095</ele>
        <time>2024-01-12T13:23:04Z</time>
      </trkpt>
      <trkpt lat="42.91566" lon="0.29806">
        <ele>1427.96003</ele>
        <time>2024-01-12T13:23:05Z</time>
      </trkpt>
      <trkpt lat="42.91566" lon="0.29805">
        <ele>1428.23947</ele>
        <time>2024-01-12T13:23:06Z</time>
      </trkpt>
      <trkpt lat="42.91567" lon="0.29804">
        <ele>1427.96203</ele>
        <time>2024-01-12T13:23:07Z</time>
      </trkpt>
      <trkpt lat="42.91567" lon="0.29802">
        <ele>1428.57704</ele>
        <time>2024-01-12T13:23:08Z</time>
      </trkpt>
      <trkpt lat="42.91568" lon="0.298">
        <ele>1429.67666</ele>
        <time>2024-01-12T13:23:09Z</time>
      </trkpt>
      <trkpt lat="42.91568" lon="0.29799">
        <ele>1428.83496</ele>
        <time>2024-01-12T13:23:10Z</time>
      </trkpt>
      <trkpt lat="42.91569" lon="0.29797">
        <ele>1428.57579</ele>
        <time>2024-01-12T13:23:11Z</time>
      </trkpt>
      <trkpt lat="42.9157" lon="0.29796">
        <ele>1428.9647</ele>
        <time>2024-01-12T13:23:12Z</time>
      </trkpt>
      <trkpt lat="42.9157" lon="0.29794">
        <ele>1429.37993</ele>
        <time>2024-01-12T13:23:13Z</time>
      </trkpt>
      <trkpt lat="42.91571" lon="0.29793">
        <ele>1427.71252</ele>
        <time>2024-01-12T13:23:15Z</time>
      </trkpt>
      <trkpt lat="42.91572" lon="0.29791">
        <ele>1426.79678</ele>
        <time>2024-01-12T13:23:16Z</time>
      </trkpt>
      <trkpt lat="42.91573" lon="0.29789">
        <ele>1427.71287</ele>
        <time>2024-01-12T13:23:17Z</time>
      </trkpt>
      <trkpt lat="42.91574" lon="0.29788">
        <ele>1425.79174</ele>
        <time>2024-01-12T13:23:18Z</time>
      </trkpt>
      <trkpt lat="42.91575" lon="0.29787">
        <ele>1426.28164</ele>
        <time>2024-01-12T13:23:20Z</time>
      </trkpt>
      <trkpt lat="42.91576" lon="0.29785">
        <ele>1425.96067</ele>
        <time>2024-01-12T13:23:22Z</time>
      </trkpt>
      <trkpt lat="42.91576" lon="0.29783">
        <ele>1425.18541</ele>
        <time>2024-01-12T13:23:23Z</time>
      </trkpt>
      <trkpt lat="42.91577" lon="0.29782">
        <ele>1424.56072</ele>
        <time>2024-01-12T13:23:24Z</time>
      </trkpt>
      <trkpt lat="42.91578" lon="0.2978">
        <ele>1424.51343</ele>
        <time>2024-01-12T13:23:25Z</time>
      </trkpt>
      <trkpt lat="42.91578" lon="0.29779">
        <ele>1423.16127</ele>
        <time>2024-01-12T13:23:26Z</time>
      </trkpt>
      <trkpt lat="42.91579" lon="0.29778">
        <ele>1423.63333</ele>
        <time>2024-01-12T13:23:27Z</time>
      </trkpt>
      <trkpt lat="42.91579" lon="0.29776">
        <ele>1423.99893</ele>
        <time>2024-01-12T13:23:28Z</time>
      </trkpt>
      <trkpt lat="42.91579" lon="0.29775">
        <ele>1424.49522</ele>
        <time>2024-01-12T13:23:29Z</time>
      </trkpt>
      <trkpt lat="42.91579" lon="0.29773">
        <ele>1424.23414</ele>
        <time>2024-01-12T13:23:30Z</time>
      </trkpt>
      <trkpt lat="42.9158" lon="0.29772">
        <ele>1424.92358</ele>
        <time>2024-01-12T13:23:32Z</time>
      </trkpt>
      <trkpt lat="42.91581" lon="0.29771">
        <ele>1422.88702</ele>
        <time>2024-01-12T13:23:33Z</time>
      </trkpt>
      <trkpt lat="42.91582" lon="0.29769">
        <ele>1423.83723</ele>
        <time>2024-01-12T13:23:34Z</time>
      </trkpt>
      <trkpt lat="42.91583" lon="0.29767">
        <ele>1424.94192</ele>
        <time>2024-01-12T13:23:35Z</time>
      </trkpt>
      <trkpt lat="42.91584" lon="0.29766">
        <ele>1423.31622</ele>
        <time>2024-01-12T13:23:36Z</time>
      </trkpt>
      <trkpt lat="42.91584" lon="0.29764">
        <ele>1423.89248</ele>
        <time>2024-01-12T13:23:37Z</time>
      </trkpt>
      <trkpt lat="42.91585" lon="0.29763">
        <ele>1423.71427</ele>
        <time>2024-01-12T13:23:38Z</time>
      </trkpt>
      <trkpt lat="42.91585" lon="0.2976">
        <ele>1423.49012</ele>
        <time>2024-01-12T13:23:40Z</time>
      </trkpt>
      <trkpt lat="42.91585" lon="0.29758">
        <ele>1422.27449</ele>
        <time>2024-01-12T13:23:42Z</time>
      </trkpt>
      <trkpt lat="42.91585" lon="0.29757">
        <ele>1423.27741</ele>
        <time>2024-01-12T13:23:43Z</time>
      </trkpt>
      <trkpt lat="42.91585" lon="0.29755">
        <ele>1423.7208</ele>
        <time>2024-01-12T13:23:44Z</time>
      </trkpt>
      <trkpt lat="42.91585" lon="0.29754">
        <ele>1423.36149</ele>
        <time>2024-01-12T13:23:45Z</time>
      </trkpt>
      <trkpt lat="42.91586" lon="0.29753">
        <ele>1422.31219</ele>
        <time>2024-01-12T13:23:46Z</time>
      </trkpt>
      <trkpt lat="42.91588" lon="0.29752">
        <ele>1421.30301</ele>
        <time>2024-01-12T13:23:48Z</time>
      </trkpt>
      <trkpt lat="42.91588" lon="0.2975">
        <ele>1422.76383</ele>
        <time>2024-01-12T13:23:50Z</time>
      </trkpt>
      <trkpt lat="42.91588" lon="0.29749">
        <ele>1420.49892</ele>
        <time>2024-01-12T13:23:51Z</time>
      </trkpt>
      <trkpt lat="42.91589" lon="0.29747">
        <ele>1420.74955</ele>
        <time>2024-01-12T13:23:53Z</time>
      </trkpt>
      <trkpt lat="42.91589" lon="0.29746">
        <ele>1420.28043</ele>
        <time>2024-01-12T13:23:54Z</time>
      </trkpt>
      <trkpt lat="42.91588" lon="0.29744">
        <ele>1420.67011</ele>
        <time>2024-01-12T13:23:55Z</time>
      </trkpt>
      <trkpt lat="42.91588" lon="0.29743">
        <ele>1421.1918</ele>
        <time>2024-01-12T13:23:56Z</time>
      </trkpt>
      <trkpt lat="42.91588" lon="0.29741">
        <ele>1420.8379</ele>
        <time>2024-01-12T13:23:57Z</time>
      </trkpt>
      <trkpt lat="42.91588" lon="0.2974">
        <ele>1420.6041</ele>
        <time>2024-01-12T13:23:58Z</time>
      </trkpt>
      <trkpt lat="42.91587" lon="0.29738">
        <ele>1420.69234</ele>
        <time>2024-01-12T13:24:00Z</time>
      </trkpt>
      <trkpt lat="42.91586" lon="0.2974">
        <ele>1417.34434</ele>
        <time>2024-01-12T13:24:02Z</time>
      </trkpt>
      <trkpt lat="42.91585" lon="0.29739">
        <ele>1418.90503</ele>
        <time>2024-01-12T13:24:03Z</time>
      </trkpt>
      <trkpt lat="42.91584" lon="0.29737">
        <ele>1419.918</ele>
        <time>2024-01-12T13:24:05Z</time>
      </trkpt>
      <trkpt lat="42.91583" lon="0.29735">
        <ele>1424.95582</ele>
        <time>2024-01-12T13:24:06Z</time>
      </trkpt>
      <trkpt lat="42.91582" lon="0.29734">
        <ele>1426.25759</ele>
        <time>2024-01-12T13:24:07Z</time>
      </trkpt>
      <trkpt lat="42.91582" lon="0.29732">
        <ele>1426.04869</ele>
        <time>2024-01-12T13:24:10Z</time>
      </trkpt>
      <trkpt lat="42.91582" lon="0.29731">
        <ele>1426.65675</ele>
        <time>2024-01-12T13:24:11Z</time>
      </trkpt>
      <trkpt lat="42.91582" lon="0.2973">
        <ele>1426.34804</ele>
        <time>2024-01-12T13:24:12Z</time>
      </trkpt>
      <trkpt lat="42.91583" lon="0.29731">
        <ele>1424.76991</ele>
        <time>2024-01-12T13:24:14Z</time>
      </trkpt>
      <trkpt lat="42.91583" lon="0.29727">
        <ele>1424.68391</ele>
        <time>2024-01-12T13:24:18Z</time>
      </trkpt>
      <trkpt lat="42.91583" lon="0.29724">
        <ele>1423.85034</ele>
        <time>2024-01-12T13:24:20Z</time>
      </trkpt>
      <trkpt lat="42.91583" lon="0.29723">
        <ele>1423.4051</ele>
        <time>2024-01-12T13:24:21Z</time>
      </trkpt>
      <trkpt lat="42.91583" lon="0.29721">
        <ele>1422.98992</ele>
        <time>2024-01-12T13:24:22Z</time>
      </trkpt>
      <trkpt lat="42.91583" lon="0.29719">
        <ele>1422.24414</ele>
        <time>2024-01-12T13:24:24Z</time>
      </trkpt>
      <trkpt lat="42.91583" lon="0.29717">
        <ele>1421.78294</ele>
        <time>2024-01-12T13:24:26Z</time>
      </trkpt>
      <trkpt lat="42.91582" lon="0.29715">
        <ele>1421.82676</ele>
        <time>2024-01-12T13:24:28Z</time>
      </trkpt>
      <trkpt lat="42.91583" lon="0.29713">
        <ele>1418.85271</ele>
        <time>2024-01-12T13:24:30Z</time>
      </trkpt>
      <trkpt lat="42.91582" lon="0.29712">
        <ele>1420.03502</ele>
        <time>2024-01-12T13:24:31Z</time>
      </trkpt>
      <trkpt lat="42.91581" lon="0.2971">
        <ele>1420.42156</ele>
        <time>2024-01-12T13:24:32Z</time>
      </trkpt>
      <trkpt lat="42.9158" lon="0.29709">
        <ele>1419.68325</ele>
        <time>2024-01-12T13:24:33Z</time>
      </trkpt>
      <trkpt lat="42.91579" lon="0.29707">
        <ele>1419.39728</ele>
        <time>2024-01-12T13:24:35Z</time>
      </trkpt>
      <trkpt lat="42.91579" lon="0.29705">
        <ele>1418.64656</ele>
        <time>2024-01-12T13:24:37Z</time>
      </trkpt>
      <trkpt lat="42.91579" lon="0.29703">
        <ele>1417.89921</ele>
        <time>2024-01-12T13:24:38Z</time>
      </trkpt>
      <trkpt lat="42.91579" lon="0.29702">
        <ele>1417.59498</ele>
        <time>2024-01-12T13:24:39Z</time>
      </trkpt>
      <trkpt lat="42.91579" lon="0.29701">
        <ele>1418.38735</ele>
        <time>2024-01-12T13:24:40Z</time>
      </trkpt>
      <trkpt lat="42.91579" lon="0.29699">
        <ele>1415.6052</ele>
        <time>2024-01-12T13:24:42Z</time>
      </trkpt>
      <trkpt lat="42.91579" lon="0.29697">
        <ele>1416.91135</ele>
        <time>2024-01-12T13:24:43Z</time>
      </trkpt>
      <trkpt lat="42.91579" lon="0.29696">
        <ele>1416.65105</ele>
        <time>2024-01-12T13:24:44Z</time>
      </trkpt>
      <trkpt lat="42.91578" lon="0.29694">
        <ele>1416.08115</ele>
        <time>2024-01-12T13:24:45Z</time>
      </trkpt>
      <trkpt lat="42.91577" lon="0.29693">
        <ele>1415.98974</ele>
        <time>2024-01-12T13:24:46Z</time>
      </trkpt>
      <trkpt lat="42.91577" lon="0.29692">
        <ele>1416.01875</ele>
        <time>2024-01-12T13:24:47Z</time>
      </trkpt>
      <trkpt lat="42.91577" lon="0.2969">
        <ele>1415.89262</ele>
        <time>2024-01-12T13:24:48Z</time>
      </trkpt>
      <trkpt lat="42.91577" lon="0.29689">
        <ele>1416.1266</ele>
        <time>2024-01-12T13:24:50Z</time>
      </trkpt>
      <trkpt lat="42.91577" lon="0.29687">
        <ele>1414.65087</ele>
        <time>2024-01-12T13:24:52Z</time>
      </trkpt>
      <trkpt lat="42.91576" lon="0.29686">
        <ele>1414.01568</ele>
        <time>2024-01-12T13:24:55Z</time>
      </trkpt>
      <trkpt lat="42.91576" lon="0.29688">
        <ele>1409.09041</ele>
        <time>2024-01-12T13:24:58Z</time>
      </trkpt>
      <trkpt lat="42.91576" lon="0.29686">
        <ele>1409.86738</ele>
        <time>2024-01-12T13:25:01Z</time>
      </trkpt>
      <trkpt lat="42.91575" lon="0.29685">
        <ele>1410.21034</ele>
        <time>2024-01-12T13:25:02Z</time>
      </trkpt>
      <trkpt lat="42.91575" lon="0.29683">
        <ele>1410.83592</ele>
        <time>2024-01-12T13:25:07Z</time>
      </trkpt>
      <trkpt lat="42.91575" lon="0.29681">
        <ele>1410.28546</ele>
        <time>2024-01-12T13:25:10Z</time>
      </trkpt>
      <trkpt lat="42.91575" lon="0.29679">
        <ele>1410.384</ele>
        <time>2024-01-12T13:25:11Z</time>
      </trkpt>
      <trkpt lat="42.91575" lon="0.29678">
        <ele>1410.99197</ele>
        <time>2024-01-12T13:25:13Z</time>
      </trkpt>
      <trkpt lat="42.91576" lon="0.29677">
        <ele>1412.20912</ele>
        <time>2024-01-12T13:25:15Z</time>
      </trkpt>
      <trkpt lat="42.91577" lon="0.29675">
        <ele>1413.17026</ele>
        <time>2024-01-12T13:25:17Z</time>
      </trkpt>
      <trkpt lat="42.91578" lon="0.29674">
        <ele>1413.11467</ele>
        <time>2024-01-12T13:25:18Z</time>
      </trkpt>
      <trkpt lat="42.91579" lon="0.29673">
        <ele>1414.76386</ele>
        <time>2024-01-12T13:25:19Z</time>
      </trkpt>
      <trkpt lat="42.9158" lon="0.29673">
        <ele>1415.66188</ele>
        <time>2024-01-12T13:25:20Z</time>
      </trkpt>
      <trkpt lat="42.91581" lon="0.29671">
        <ele>1415.17469</ele>
        <time>2024-01-12T13:25:22Z</time>
      </trkpt>
      <trkpt lat="42.91582" lon="0.2967">
        <ele>1415.66275</ele>
        <time>2024-01-12T13:25:23Z</time>
      </trkpt>
      <trkpt lat="42.91583" lon="0.29669">
        <ele>1416.14144</ele>
        <time>2024-01-12T13:25:24Z</time>
      </trkpt>
      <trkpt lat="42.91584" lon="0.29667">
        <ele>1414.75</ele>
        <time>2024-01-12T13:25:26Z</time>
      </trkpt>
      <trkpt lat="42.91585" lon="0.29667">
        <ele>1414.67995</ele>
        <time>2024-01-12T13:25:27Z</time>
      </trkpt>
      <trkpt lat="42.91587" lon="0.29665">
        <ele>1415.58959</ele>
        <time>2024-01-12T13:25:28Z</time>
      </trkpt>
      <trkpt lat="42.91588" lon="0.29665">
        <ele>1415.37185</ele>
        <time>2024-01-12T13:25:30Z</time>
      </trkpt>
      <trkpt lat="42.91589" lon="0.29664">
        <ele>1416.62364</ele>
        <time>2024-01-12T13:25:31Z</time>
      </trkpt>
      <trkpt lat="42.9159" lon="0.29663">
        <ele>1415.2912</ele>
        <time>2024-01-12T13:25:33Z</time>
      </trkpt>
      <trkpt lat="42.91592" lon="0.29662">
        <ele>1415.71392</ele>
        <time>2024-01-12T13:25:34Z</time>
      </trkpt>
      <trkpt lat="42.91593" lon="0.29661">
        <ele>1414.53547</ele>
        <time>2024-01-12T13:25:36Z</time>
      </trkpt>
      <trkpt lat="42.91594" lon="0.2966">
        <ele>1415.14275</ele>
        <time>2024-01-12T13:25:37Z</time>
      </trkpt>
      <trkpt lat="42.91595" lon="0.29659">
        <ele>1413.76973</ele>
        <time>2024-01-12T13:25:38Z</time>
      </trkpt>
      <trkpt lat="42.91596" lon="0.29658">
        <ele>1412.35523</ele>
        <time>2024-01-12T13:25:40Z</time>
      </trkpt>
      <trkpt lat="42.91597" lon="0.29657">
        <ele>1412.07467</ele>
        <time>2024-01-12T13:25:41Z</time>
      </trkpt>
      <trkpt lat="42.91598" lon="0.29657">
        <ele>1410.68639</ele>
        <time>2024-01-12T13:25:42Z</time>
      </trkpt>
      <trkpt lat="42.91599" lon="0.29656">
        <ele>1410.39634</ele>
        <time>2024-01-12T13:25:43Z</time>
      </trkpt>
      <trkpt lat="42.916" lon="0.29656">
        <ele>1409.57834</ele>
        <time>2024-01-12T13:25:44Z</time>
      </trkpt>
      <trkpt lat="42.91601" lon="0.29655">
        <ele>1410.00525</ele>
        <time>2024-01-12T13:25:45Z</time>
      </trkpt>
      <trkpt lat="42.91602" lon="0.29654">
        <ele>1410.4537</ele>
        <time>2024-01-12T13:25:46Z</time>
      </trkpt>
      <trkpt lat="42.91603" lon="0.29654">
        <ele>1410.45044</ele>
        <time>2024-01-12T13:25:47Z</time>
      </trkpt>
      <trkpt lat="42.91605" lon="0.29653">
        <ele>1413.4567</ele>
        <time>2024-01-12T13:25:48Z</time>
      </trkpt>
      <trkpt lat="42.91606" lon="0.29651">
        <ele>1413.447</ele>
        <time>2024-01-12T13:25:50Z</time>
      </trkpt>
      <trkpt lat="42.91607" lon="0.2965">
        <ele>1413.04871</ele>
        <time>2024-01-12T13:25:51Z</time>
      </trkpt>
      <trkpt lat="42.91608" lon="0.29649">
        <ele>1414.37362</ele>
        <time>2024-01-12T13:25:52Z</time>
      </trkpt>
      <trkpt lat="42.91608" lon="0.2965">
        <ele>1411.32007</ele>
        <time>2024-01-12T13:25:54Z</time>
      </trkpt>
      <trkpt lat="42.9161" lon="0.29651">
        <ele>1409.97844</ele>
        <time>2024-01-12T13:25:56Z</time>
      </trkpt>
      <trkpt lat="42.91612" lon="0.29651">
        <ele>1410.10462</ele>
        <time>2024-01-12T13:25:57Z</time>
      </trkpt>
      <trkpt lat="42.91613" lon="0.29652">
        <ele>1411.05452</ele>
        <time>2024-01-12T13:25:59Z</time>
      </trkpt>
      <trkpt lat="42.91614" lon="0.29652">
        <ele>1410.99311</ele>
        <time>2024-01-12T13:26:00Z</time>
      </trkpt>
      <trkpt lat="42.91616" lon="0.29652">
        <ele>1411.8714</ele>
        <time>2024-01-12T13:26:02Z</time>
      </trkpt>
      <trkpt lat="42.91618" lon="0.29652">
        <ele>1411.88134</ele>
        <time>2024-01-12T13:26:04Z</time>
      </trkpt>
      <trkpt lat="42.91619" lon="0.29652">
        <ele>1409.34579</ele>
        <time>2024-01-12T13:26:06Z</time>
      </trkpt>
      <trkpt lat="42.91621" lon="0.29652">
        <ele>1409.18987</ele>
        <time>2024-01-12T13:26:07Z</time>
      </trkpt>
      <trkpt lat="42.91622" lon="0.29651">
        <ele>1408.59376</ele>
        <time>2024-01-12T13:26:08Z</time>
      </trkpt>
      <trkpt lat="42.91623" lon="0.29649">
        <ele>1408.82219</ele>
        <time>2024-01-12T13:26:10Z</time>
      </trkpt>
      <trkpt lat="42.91625" lon="0.29648">
        <ele>1412.78032</ele>
        <time>2024-01-12T13:26:11Z</time>
      </trkpt>
      <trkpt lat="42.91626" lon="0.29647">
        <ele>1411.45226</ele>
        <time>2024-01-12T13:26:13Z</time>
      </trkpt>
      <trkpt lat="42.91627" lon="0.29647">
        <ele>1410.91765</ele>
        <time>2024-01-12T13:26:14Z</time>
      </trkpt>
      <trkpt lat="42.91628" lon="0.29647">
        <ele>1409.91203</ele>
        <time>2024-01-12T13:26:15Z</time>
      </trkpt>
      <trkpt lat="42.91629" lon="0.29647">
        <ele>1411.33585</ele>
        <time>2024-01-12T13:26:16Z</time>
      </trkpt>
      <trkpt lat="42.91631" lon="0.29646">
        <ele>1409.92541</ele>
        <time>2024-01-12T13:26:18Z</time>
      </trkpt>
      <trkpt lat="42.91632" lon="0.29645">
        <ele>1408.78879</ele>
        <time>2024-01-12T13:26:20Z</time>
      </trkpt>
      <trkpt lat="42.91634" lon="0.29645">
        <ele>1408.00661</ele>
        <time>2024-01-12T13:26:22Z</time>
      </trkpt>
      <trkpt lat="42.91634" lon="0.29644">
        <ele>1407.74554</ele>
        <time>2024-01-12T13:26:23Z</time>
      </trkpt>
      <trkpt lat="42.91636" lon="0.29644">
        <ele>1407.54927</ele>
        <time>2024-01-12T13:26:25Z</time>
      </trkpt>
      <trkpt lat="42.91637" lon="0.29643">
        <ele>1407.75069</ele>
        <time>2024-01-12T13:26:26Z</time>
      </trkpt>
      <trkpt lat="42.91638" lon="0.29643">
        <ele>1405.21504</ele>
        <time>2024-01-12T13:26:28Z</time>
      </trkpt>
      <trkpt lat="42.91639" lon="0.29642">
        <ele>1404.42555</ele>
        <time>2024-01-12T13:26:30Z</time>
      </trkpt>
      <trkpt lat="42.91641" lon="0.29642">
        <ele>1405.84475</ele>
        <time>2024-01-12T13:26:31Z</time>
      </trkpt>
      <trkpt lat="42.91642" lon="0.29642">
        <ele>1406.29485</ele>
        <time>2024-01-12T13:26:32Z</time>
      </trkpt>
      <trkpt lat="42.91643" lon="0.29643">
        <ele>1407.44195</ele>
        <time>2024-01-12T13:26:34Z</time>
      </trkpt>
      <trkpt lat="42.91644" lon="0.29644">
        <ele>1406.26975</ele>
        <time>2024-01-12T13:26:35Z</time>
      </trkpt>
      <trkpt lat="42.91645" lon="0.29642">
        <ele>1404.61819</ele>
        <time>2024-01-12T13:26:37Z</time>
      </trkpt>
      <trkpt lat="42.91647" lon="0.2964">
        <ele>1405.36669</ele>
        <time>2024-01-12T13:26:39Z</time>
      </trkpt>
      <trkpt lat="42.91647" lon="0.29641">
        <ele>1403.48265</ele>
        <time>2024-01-12T13:26:41Z</time>
      </trkpt>
      <trkpt lat="42.91649" lon="0.29641">
        <ele>1404.26571</ele>
        <time>2024-01-12T13:26:42Z</time>
      </trkpt>
      <trkpt lat="42.9165" lon="0.2964">
        <ele>1404.26856</ele>
        <time>2024-01-12T13:26:43Z</time>
      </trkpt>
      <trkpt lat="42.91652" lon="0.29639">
        <ele>1405.87935</ele>
        <time>2024-01-12T13:26:44Z</time>
      </trkpt>
      <trkpt lat="42.91653" lon="0.29639">
        <ele>1408.24575</ele>
        <time>2024-01-12T13:26:45Z</time>
      </trkpt>
      <trkpt lat="42.91655" lon="0.29639">
        <ele>1405.56438</ele>
        <time>2024-01-12T13:26:47Z</time>
      </trkpt>
      <trkpt lat="42.91656" lon="0.29638">
        <ele>1405.16721</ele>
        <time>2024-01-12T13:26:49Z</time>
      </trkpt>
      <trkpt lat="42.91656" lon="0.29636">
        <ele>1401.99963</ele>
        <time>2024-01-12T13:26:51Z</time>
      </trkpt>
      <trkpt lat="42.91656" lon="0.29634">
        <ele>1401.92708</ele>
        <time>2024-01-12T13:26:53Z</time>
      </trkpt>
      <trkpt lat="42.91656" lon="0.29632">
        <ele>1401.95584</ele>
        <time>2024-01-12T13:26:54Z</time>
      </trkpt>
      <trkpt lat="42.91656" lon="0.2963">
        <ele>1400.98667</ele>
        <time>2024-01-12T13:26:56Z</time>
      </trkpt>
      <trkpt lat="42.91657" lon="0.29628">
        <ele>1401.13485</ele>
        <time>2024-01-12T13:26:58Z</time>
      </trkpt>
      <trkpt lat="42.91657" lon="0.29626">
        <ele>1401.4766</ele>
        <time>2024-01-12T13:26:59Z</time>
      </trkpt>
      <trkpt lat="42.91658" lon="0.29625">
        <ele>1401.48359</ele>
        <time>2024-01-12T13:27:00Z</time>
      </trkpt>
      <trkpt lat="42.91658" lon="0.29623">
        <ele>1399.77872</ele>
        <time>2024-01-12T13:27:02Z</time>
      </trkpt>
      <trkpt lat="42.91658" lon="0.29621">
        <ele>1400.23245</ele>
        <time>2024-01-12T13:27:04Z</time>
      </trkpt>
      <trkpt lat="42.91659" lon="0.29619">
        <ele>1399.92145</ele>
        <time>2024-01-12T13:27:06Z</time>
      </trkpt>
      <trkpt lat="42.9166" lon="0.29618">
        <ele>1398.8148</ele>
        <time>2024-01-12T13:27:09Z</time>
      </trkpt>
      <trkpt lat="42.91661" lon="0.29618">
        <ele>1401.01373</ele>
        <time>2024-01-12T13:27:11Z</time>
      </trkpt>
      <trkpt lat="42.91662" lon="0.29618">
        <ele>1401.31717</ele>
        <time>2024-01-12T13:27:12Z</time>
      </trkpt>
      <trkpt lat="42.91664" lon="0.29618">
        <ele>1401.26083</ele>
        <time>2024-01-12T13:27:14Z</time>
      </trkpt>
      <trkpt lat="42.91665" lon="0.29618">
        <ele>1401.15435</ele>
        <time>2024-01-12T13:27:15Z</time>
      </trkpt>
      <trkpt lat="42.91667" lon="0.29619">
        <ele>1400.38889</ele>
        <time>2024-01-12T13:27:17Z</time>
      </trkpt>
      <trkpt lat="42.91668" lon="0.29619">
        <ele>1400.02675</ele>
        <time>2024-01-12T13:27:18Z</time>
      </trkpt>
      <trkpt lat="42.91671" lon="0.29619">
        <ele>1401.06481</ele>
        <time>2024-01-12T13:27:19Z</time>
      </trkpt>
      <trkpt lat="42.91672" lon="0.29617">
        <ele>1399.81911</ele>
        <time>2024-01-12T13:27:21Z</time>
      </trkpt>
      <trkpt lat="42.91673" lon="0.29617">
        <ele>1399.27164</ele>
        <time>2024-01-12T13:27:22Z</time>
      </trkpt>
      <trkpt lat="42.91675" lon="0.29617">
        <ele>1398.52571</ele>
        <time>2024-01-12T13:27:25Z</time>
      </trkpt>
      <trkpt lat="42.91676" lon="0.29617">
        <ele>1397.42802</ele>
        <time>2024-01-12T13:27:27Z</time>
      </trkpt>
      <trkpt lat="42.91678" lon="0.29616">
        <ele>1396.65856</ele>
        <time>2024-01-12T13:27:29Z</time>
      </trkpt>
      <trkpt lat="42.9168" lon="0.29615">
        <ele>1396.61147</ele>
        <time>2024-01-12T13:27:31Z</time>
      </trkpt>
      <trkpt lat="42.9168" lon="0.29614">
        <ele>1395.09569</ele>
        <time>2024-01-12T13:27:34Z</time>
      </trkpt>
      <trkpt lat="42.91681" lon="0.29611">
        <ele>1393.81503</ele>
        <time>2024-01-12T13:27:37Z</time>
      </trkpt>
      <trkpt lat="42.91683" lon="0.2961">
        <ele>1393.56558</ele>
        <time>2024-01-12T13:27:38Z</time>
      </trkpt>
      <trkpt lat="42.91684" lon="0.29609">
        <ele>1393.74534</ele>
        <time>2024-01-12T13:27:39Z</time>
      </trkpt>
      <trkpt lat="42.91685" lon="0.29609">
        <ele>1391.4224</ele>
        <time>2024-01-12T13:27:41Z</time>
      </trkpt>
      <trkpt lat="42.91686" lon="0.29608">
        <ele>1391.69479</ele>
        <time>2024-01-12T13:27:42Z</time>
      </trkpt>
      <trkpt lat="42.91687" lon="0.29607">
        <ele>1390.90825</ele>
        <time>2024-01-12T13:27:45Z</time>
      </trkpt>
      <trkpt lat="42.91688" lon="0.29607">
        <ele>1388.94826</ele>
        <time>2024-01-12T13:27:48Z</time>
      </trkpt>
      <trkpt lat="42.91688" lon="0.29606">
        <ele>1388.48828</ele>
        <time>2024-01-12T13:27:49Z</time>
      </trkpt>
      <trkpt lat="42.91689" lon="0.29604">
        <ele>1388.30061</ele>
        <time>2024-01-12T13:27:51Z</time>
      </trkpt>
      <trkpt lat="42.9169" lon="0.29603">
        <ele>1388.37864</ele>
        <time>2024-01-12T13:27:52Z</time>
      </trkpt>
      <trkpt lat="42.91691" lon="0.29602">
        <ele>1388.50467</ele>
        <time>2024-01-12T13:27:54Z</time>
      </trkpt>
      <trkpt lat="42.91694" lon="0.29602">
        <ele>1387.70756</ele>
        <time>2024-01-12T13:27:57Z</time>
      </trkpt>
      <trkpt lat="42.91696" lon="0.296">
        <ele>1385.53019</ele>
        <time>2024-01-12T13:27:59Z</time>
      </trkpt>
      <trkpt lat="42.91698" lon="0.29601">
        <ele>1385.90211</ele>
        <time>2024-01-12T13:28:01Z</time>
      </trkpt>
      <trkpt lat="42.91699" lon="0.29601">
        <ele>1384.92641</ele>
        <time>2024-01-12T13:28:03Z</time>
      </trkpt>
      <trkpt lat="42.91699" lon="0.29601">
        <ele>1384.50704</ele>
        <time>2024-01-12T13:28:04Z</time>
      </trkpt>
      <trkpt lat="42.91701" lon="0.29602">
        <ele>1384.23868</ele>
        <time>2024-01-12T13:28:05Z</time>
      </trkpt>
      <trkpt lat="42.91702" lon="0.29602">
        <ele>1383.86517</ele>
        <time>2024-01-12T13:28:07Z</time>
      </trkpt>
      <trkpt lat="42.91701" lon="0.29602">
        <ele>1379.51081</ele>
        <time>2024-01-12T13:28:08Z</time>
      </trkpt>
      <trkpt lat="42.91702" lon="0.29603">
        <ele>1379.94638</ele>
        <time>2024-01-12T13:28:09Z</time>
      </trkpt>
      <trkpt lat="42.91703" lon="0.29602">
        <ele>1380.19271</ele>
        <time>2024-01-12T13:28:10Z</time>
      </trkpt>
      <trkpt lat="42.91704" lon="0.29602">
        <ele>1380.45325</ele>
        <time>2024-01-12T13:28:11Z</time>
      </trkpt>
      <trkpt lat="42.91705" lon="0.29604">
        <ele>1379.46367</ele>
        <time>2024-01-12T13:28:13Z</time>
      </trkpt>
      <trkpt lat="42.91706" lon="0.29605">
        <ele>1379.66384</ele>
        <time>2024-01-12T13:28:15Z</time>
      </trkpt>
      <trkpt lat="42.91707" lon="0.29606">
        <ele>1378.84904</ele>
        <time>2024-01-12T13:28:17Z</time>
      </trkpt>
      <trkpt lat="42.91709" lon="0.29608">
        <ele>1377.35325</ele>
        <time>2024-01-12T13:28:19Z</time>
      </trkpt>
      <trkpt lat="42.91709" lon="0.29609">
        <ele>1377.87255</ele>
        <time>2024-01-12T13:28:20Z</time>
      </trkpt>
      <trkpt lat="42.9171" lon="0.2961">
        <ele>1377.8834</ele>
        <time>2024-01-12T13:28:21Z</time>
      </trkpt>
      <trkpt lat="42.9171" lon="0.29612">
        <ele>1377.36183</ele>
        <time>2024-01-12T13:28:23Z</time>
      </trkpt>
      <trkpt lat="42.91711" lon="0.29613">
        <ele>1377.07315</ele>
        <time>2024-01-12T13:28:25Z</time>
      </trkpt>
      <trkpt lat="42.91712" lon="0.29614">
        <ele>1376.34739</ele>
        <time>2024-01-12T13:28:26Z</time>
      </trkpt>
      <trkpt lat="42.91712" lon="0.29616">
        <ele>1376.49797</ele>
        <time>2024-01-12T13:28:27Z</time>
      </trkpt>
      <trkpt lat="42.91713" lon="0.29617">
        <ele>1376.69544</ele>
        <time>2024-01-12T13:28:28Z</time>
      </trkpt>
      <trkpt lat="42.91713" lon="0.29619">
        <ele>1377.27606</ele>
        <time>2024-01-12T13:28:29Z</time>
      </trkpt>
      <trkpt lat="42.91713" lon="0.29621">
        <ele>1378.08241</ele>
        <time>2024-01-12T13:28:31Z</time>
      </trkpt>
      <trkpt lat="42.91714" lon="0.29623">
        <ele>1376.99336</ele>
        <time>2024-01-12T13:28:33Z</time>
      </trkpt>
      <trkpt lat="42.91716" lon="0.29624">
        <ele>1376.68008</ele>
        <time>2024-01-12T13:28:34Z</time>
      </trkpt>
      <trkpt lat="42.91716" lon="0.29625">
        <ele>1376.27848</ele>
        <time>2024-01-12T13:28:35Z</time>
      </trkpt>
      <trkpt lat="42.91717" lon="0.29627">
        <ele>1375.84572</ele>
        <time>2024-01-12T13:28:36Z</time>
      </trkpt>
      <trkpt lat="42.91718" lon="0.29628">
        <ele>1376.06777</ele>
        <time>2024-01-12T13:28:37Z</time>
      </trkpt>
      <trkpt lat="42.91719" lon="0.29628">
        <ele>1375.8724</ele>
        <time>2024-01-12T13:28:38Z</time>
      </trkpt>
      <trkpt lat="42.9172" lon="0.29627">
        <ele>1374.29388</ele>
        <time>2024-01-12T13:28:39Z</time>
      </trkpt>
      <trkpt lat="42.91721" lon="0.29626">
        <ele>1375.13198</ele>
        <time>2024-01-12T13:28:41Z</time>
      </trkpt>
      <trkpt lat="42.91718" lon="0.29624">
        <ele>1374.16664</ele>
        <time>2024-01-12T13:28:44Z</time>
      </trkpt>
      <trkpt lat="42.91719" lon="0.29623">
        <ele>1374.31653</ele>
        <time>2024-01-12T13:28:45Z</time>
      </trkpt>
      <trkpt lat="42.91719" lon="0.2962">
        <ele>1374.66321</ele>
        <time>2024-01-12T13:28:47Z</time>
      </trkpt>
      <trkpt lat="42.9172" lon="0.2962">
        <ele>1374.80642</ele>
        <time>2024-01-12T13:28:48Z</time>
      </trkpt>
      <trkpt lat="42.91722" lon="0.29621">
        <ele>1376.44742</ele>
        <time>2024-01-12T13:28:49Z</time>
      </trkpt>
      <trkpt lat="42.91721" lon="0.29622">
        <ele>1382.12036</ele>
        <time>2024-01-12T13:28:55Z</time>
      </trkpt>
      <trkpt lat="42.91722" lon="0.29622">
        <ele>1380.89325</ele>
        <time>2024-01-12T13:28:57Z</time>
      </trkpt>
      <trkpt lat="42.91724" lon="0.29622">
        <ele>1391.25467</ele>
        <time>2024-01-12T13:29:06Z</time>
      </trkpt>
      <trkpt lat="42.91723" lon="0.29622">
        <ele>1377.49914</ele>
        <time>2024-01-12T13:29:19Z</time>
      </trkpt>
      <trkpt lat="42.91724" lon="0.29622">
        <ele>1381.15342</ele>
        <time>2024-01-12T13:29:30Z</time>
      </trkpt>
      <trkpt lat="42.91725" lon="0.29622">
        <ele>1386.65774</ele>
        <time>2024-01-12T13:29:33Z</time>
      </trkpt>
      <trkpt lat="42.91724" lon="0.29622">
        <ele>1383.98458</ele>
        <time>2024-01-12T13:29:35Z</time>
      </trkpt>
      <trkpt lat="42.91723" lon="0.29622">
        <ele>1380.85627</ele>
        <time>2024-01-12T13:29:36Z</time>
      </trkpt>
      <trkpt lat="42.9172" lon="0.29622">
        <ele>1377.05153</ele>
        <time>2024-01-12T13:29:45Z</time>
      </trkpt>
      <trkpt lat="42.91719" lon="0.29624">
        <ele>1377.47231</ele>
        <time>2024-01-12T13:29:59Z</time>
      </trkpt>
      <trkpt lat="42.91719" lon="0.29626">
        <ele>1380.06505</ele>
        <time>2024-01-12T13:30:11Z</time>
      </trkpt>
      <trkpt lat="42.91718" lon="0.29627">
        <ele>1381.02542</ele>
        <time>2024-01-12T13:30:17Z</time>
      </trkpt>
      <trkpt lat="42.91716" lon="0.2963">
        <ele>1384.84626</ele>
        <time>2024-01-12T13:30:23Z</time>
      </trkpt>
      <trkpt lat="42.91714" lon="0.29626">
        <ele>1375.14494</ele>
        <time>2024-01-12T13:31:14Z</time>
      </trkpt>
      <trkpt lat="42.91715" lon="0.29626">
        <ele>1372.95476</ele>
        <time>2024-01-12T13:31:18Z</time>
      </trkpt>
      <trkpt lat="42.91716" lon="0.29627">
        <ele>1375.58117</ele>
        <time>2024-01-12T13:31:23Z</time>
      </trkpt>
      <trkpt lat="42.91717" lon="0.29628">
        <ele>1374.76855</ele>
        <time>2024-01-12T13:31:29Z</time>
      </trkpt>
      <trkpt lat="42.91717" lon="0.2963">
        <ele>1386.00604</ele>
        <time>2024-01-12T13:31:36Z</time>
      </trkpt>
      <trkpt lat="42.91715" lon="0.2963">
        <ele>1381.43468</ele>
        <time>2024-01-12T13:31:40Z</time>
      </trkpt>
      <trkpt lat="42.91712" lon="0.29628">
        <ele>1370.98051</ele>
        <time>2024-01-12T13:31:53Z</time>
      </trkpt>
      <trkpt lat="42.91713" lon="0.29627">
        <ele>1371.1819</ele>
        <time>2024-01-12T13:31:56Z</time>
      </trkpt>
      <trkpt lat="42.91715" lon="0.29626">
        <ele>1373.0849</ele>
        <time>2024-01-12T13:31:57Z</time>
      </trkpt>
      <trkpt lat="42.91716" lon="0.29625">
        <ele>1372.99875</ele>
        <time>2024-01-12T13:31:58Z</time>
      </trkpt>
      <trkpt lat="42.91718" lon="0.29623">
        <ele>1375.84648</ele>
        <time>2024-01-12T13:31:59Z</time>
      </trkpt>
      <trkpt lat="42.91719" lon="0.29621">
        <ele>1373.72149</ele>
        <time>2024-01-12T13:32:02Z</time>
      </trkpt>
      <trkpt lat="42.91719" lon="0.29619">
        <ele>1374.60409</ele>
        <time>2024-01-12T13:32:04Z</time>
      </trkpt>
      <trkpt lat="42.91721" lon="0.29617">
        <ele>1375.42507</ele>
        <time>2024-01-12T13:32:06Z</time>
      </trkpt>
      <trkpt lat="42.91721" lon="0.29616">
        <ele>1373.72705</ele>
        <time>2024-01-12T13:32:07Z</time>
      </trkpt>
      <trkpt lat="42.91721" lon="0.29614">
        <ele>1371.01957</ele>
        <time>2024-01-12T13:32:09Z</time>
      </trkpt>
      <trkpt lat="42.91721" lon="0.29612">
        <ele>1371.94336</ele>
        <time>2024-01-12T13:32:10Z</time>
      </trkpt>
      <trkpt lat="42.91722" lon="0.29611">
        <ele>1371.22332</ele>
        <time>2024-01-12T13:32:11Z</time>
      </trkpt>
      <trkpt lat="42.91722" lon="0.2961">
        <ele>1370.43401</ele>
        <time>2024-01-12T13:32:12Z</time>
      </trkpt>
      <trkpt lat="42.91723" lon="0.29609">
        <ele>1369.99168</ele>
        <time>2024-01-12T13:32:13Z</time>
      </trkpt>
      <trkpt lat="42.91723" lon="0.29608">
        <ele>1370.72475</ele>
        <time>2024-01-12T13:32:14Z</time>
      </trkpt>
      <trkpt lat="42.91724" lon="0.29607">
        <ele>1371.90131</ele>
        <time>2024-01-12T13:32:15Z</time>
      </trkpt>
      <trkpt lat="42.91724" lon="0.29605">
        <ele>1371.83579</ele>
        <time>2024-01-12T13:32:16Z</time>
      </trkpt>
      <trkpt lat="42.91725" lon="0.29602">
        <ele>1373.38032</ele>
        <time>2024-01-12T13:32:17Z</time>
      </trkpt>
      <trkpt lat="42.91726" lon="0.296">
        <ele>1373.04984</ele>
        <time>2024-01-12T13:32:19Z</time>
      </trkpt>
      <trkpt lat="42.91726" lon="0.29598">
        <ele>1373.59972</ele>
        <time>2024-01-12T13:32:21Z</time>
      </trkpt>
      <trkpt lat="42.91728" lon="0.29597">
        <ele>1371.63485</ele>
        <time>2024-01-12T13:32:23Z</time>
      </trkpt>
      <trkpt lat="42.91728" lon="0.29595">
        <ele>1371.85037</ele>
        <time>2024-01-12T13:32:25Z</time>
      </trkpt>
      <trkpt lat="42.91729" lon="0.29593">
        <ele>1371.31394</ele>
        <time>2024-01-12T13:32:26Z</time>
      </trkpt>
      <trkpt lat="42.91729" lon="0.29591">
        <ele>1371.49657</ele>
        <time>2024-01-12T13:32:28Z</time>
      </trkpt>
      <trkpt lat="42.91729" lon="0.29589">
        <ele>1369.56801</ele>
        <time>2024-01-12T13:32:30Z</time>
      </trkpt>
      <trkpt lat="42.9173" lon="0.29587">
        <ele>1370.57759</ele>
        <time>2024-01-12T13:32:32Z</time>
      </trkpt>
      <trkpt lat="42.9173" lon="0.29585">
        <ele>1368.02103</ele>
        <time>2024-01-12T13:32:34Z</time>
      </trkpt>
      <trkpt lat="42.91729" lon="0.29584">
        <ele>1367.14988</ele>
        <time>2024-01-12T13:32:35Z</time>
      </trkpt>
      <trkpt lat="42.91729" lon="0.29583">
        <ele>1367.12553</ele>
        <time>2024-01-12T13:32:36Z</time>
      </trkpt>
      <trkpt lat="42.91729" lon="0.29581">
        <ele>1369.04916</ele>
        <time>2024-01-12T13:32:37Z</time>
      </trkpt>
      <trkpt lat="42.91729" lon="0.2958">
        <ele>1369.78908</ele>
        <time>2024-01-12T13:32:38Z</time>
      </trkpt>
      <trkpt lat="42.91728" lon="0.29578">
        <ele>1371.17246</ele>
        <time>2024-01-12T13:32:40Z</time>
      </trkpt>
      <trkpt lat="42.91728" lon="0.29576">
        <ele>1371.05166</ele>
        <time>2024-01-12T13:32:41Z</time>
      </trkpt>
      <trkpt lat="42.91729" lon="0.29575">
        <ele>1369.38761</ele>
        <time>2024-01-12T13:32:42Z</time>
      </trkpt>
      <trkpt lat="42.91728" lon="0.29573">
        <ele>1369.27022</ele>
        <time>2024-01-12T13:32:43Z</time>
      </trkpt>
      <trkpt lat="42.91727" lon="0.29572">
        <ele>1370.27909</ele>
        <time>2024-01-12T13:32:44Z</time>
      </trkpt>
      <trkpt lat="42.91727" lon="0.2957">
        <ele>1369.66184</ele>
        <time>2024-01-12T13:32:45Z</time>
      </trkpt>
      <trkpt lat="42.91726" lon="0.29568">
        <ele>1370.0949</ele>
        <time>2024-01-12T13:32:46Z</time>
      </trkpt>
      <trkpt lat="42.91727" lon="0.29566">
        <ele>1368.45434</ele>
        <time>2024-01-12T13:32:48Z</time>
      </trkpt>
      <trkpt lat="42.91726" lon="0.29564">
        <ele>1368.75099</ele>
        <time>2024-01-12T13:32:50Z</time>
      </trkpt>
      <trkpt lat="42.91726" lon="0.29563">
        <ele>1366.69868</ele>
        <time>2024-01-12T13:32:52Z</time>
      </trkpt>
      <trkpt lat="42.91726" lon="0.29561">
        <ele>1367.75749</ele>
        <time>2024-01-12T13:32:53Z</time>
      </trkpt>
      <trkpt lat="42.91724" lon="0.29559">
        <ele>1368.9266</ele>
        <time>2024-01-12T13:32:54Z</time>
      </trkpt>
      <trkpt lat="42.91723" lon="0.29557">
        <ele>1368.76122</ele>
        <time>2024-01-12T13:32:55Z</time>
      </trkpt>
      <trkpt lat="42.91723" lon="0.29556">
        <ele>1368.73427</ele>
        <time>2024-01-12T13:32:57Z</time>
      </trkpt>
      <trkpt lat="42.91722" lon="0.29555">
        <ele>1369.55058</ele>
        <time>2024-01-12T13:32:58Z</time>
      </trkpt>
      <trkpt lat="42.91721" lon="0.29553">
        <ele>1369.3632</ele>
        <time>2024-01-12T13:33:00Z</time>
      </trkpt>
      <trkpt lat="42.91718" lon="0.29553">
        <ele>1368.0582</ele>
        <time>2024-01-12T13:33:02Z</time>
      </trkpt>
      <trkpt lat="42.91717" lon="0.29552">
        <ele>1368.80746</ele>
        <time>2024-01-12T13:33:03Z</time>
      </trkpt>
      <trkpt lat="42.91716" lon="0.29552">
        <ele>1369.50152</ele>
        <time>2024-01-12T13:33:04Z</time>
      </trkpt>
      <trkpt lat="42.91715" lon="0.29551">
        <ele>1369.18944</ele>
        <time>2024-01-12T13:33:05Z</time>
      </trkpt>
      <trkpt lat="42.91713" lon="0.29549">
        <ele>1370.39869</ele>
        <time>2024-01-12T13:33:07Z</time>
      </trkpt>
      <trkpt lat="42.91713" lon="0.29548">
        <ele>1371.07607</ele>
        <time>2024-01-12T13:33:09Z</time>
      </trkpt>
      <trkpt lat="42.91712" lon="0.29546">
        <ele>1371.24147</ele>
        <time>2024-01-12T13:33:11Z</time>
      </trkpt>
      <trkpt lat="42.91711" lon="0.29546">
        <ele>1370.19429</ele>
        <time>2024-01-12T13:33:12Z</time>
      </trkpt>
      <trkpt lat="42.9171" lon="0.29545">
        <ele>1370.42796</ele>
        <time>2024-01-12T13:33:14Z</time>
      </trkpt>
      <trkpt lat="42.91709" lon="0.29545">
        <ele>1369.39324</ele>
        <time>2024-01-12T13:33:15Z</time>
      </trkpt>
      <trkpt lat="42.91708" lon="0.29544">
        <ele>1369.27424</ele>
        <time>2024-01-12T13:33:16Z</time>
      </trkpt>
      <trkpt lat="42.91706" lon="0.29543">
        <ele>1369.30699</ele>
        <time>2024-01-12T13:33:17Z</time>
      </trkpt>
      <trkpt lat="42.91705" lon="0.29542">
        <ele>1369.40774</ele>
        <time>2024-01-12T13:33:18Z</time>
      </trkpt>
      <trkpt lat="42.91704" lon="0.29541">
        <ele>1369.33892</ele>
        <time>2024-01-12T13:33:19Z</time>
      </trkpt>
      <trkpt lat="42.91703" lon="0.29541">
        <ele>1369.34632</ele>
        <time>2024-01-12T13:33:20Z</time>
      </trkpt>
      <trkpt lat="42.91701" lon="0.29539">
        <ele>1366.83213</ele>
        <time>2024-01-12T13:33:21Z</time>
      </trkpt>
      <trkpt lat="42.917" lon="0.29538">
        <ele>1364.39569</ele>
        <time>2024-01-12T13:33:22Z</time>
      </trkpt>
      <trkpt lat="42.91699" lon="0.29537">
        <ele>1364.87017</ele>
        <time>2024-01-12T13:33:24Z</time>
      </trkpt>
      <trkpt lat="42.91698" lon="0.29537">
        <ele>1365.15149</ele>
        <time>2024-01-12T13:33:25Z</time>
      </trkpt>
      <trkpt lat="42.91697" lon="0.29536">
        <ele>1365.3755</ele>
        <time>2024-01-12T13:33:26Z</time>
      </trkpt>
      <trkpt lat="42.91695" lon="0.29536">
        <ele>1366.28982</ele>
        <time>2024-01-12T13:33:28Z</time>
      </trkpt>
      <trkpt lat="42.91694" lon="0.29535">
        <ele>1365.92297</ele>
        <time>2024-01-12T13:33:29Z</time>
      </trkpt>
      <trkpt lat="42.91692" lon="0.29535">
        <ele>1366.93236</ele>
        <time>2024-01-12T13:33:30Z</time>
      </trkpt>
      <trkpt lat="42.91691" lon="0.29534">
        <ele>1366.87034</ele>
        <time>2024-01-12T13:33:31Z</time>
      </trkpt>
      <trkpt lat="42.91689" lon="0.29534">
        <ele>1369.52855</ele>
        <time>2024-01-12T13:33:32Z</time>
      </trkpt>
      <trkpt lat="42.91688" lon="0.29534">
        <ele>1367.58917</ele>
        <time>2024-01-12T13:33:33Z</time>
      </trkpt>
      <trkpt lat="42.91687" lon="0.29533">
        <ele>1364.7234</ele>
        <time>2024-01-12T13:33:34Z</time>
      </trkpt>
      <trkpt lat="42.91685" lon="0.29532">
        <ele>1367.73971</ele>
        <time>2024-01-12T13:33:35Z</time>
      </trkpt>
      <trkpt lat="42.91684" lon="0.29532">
        <ele>1367.97243</ele>
        <time>2024-01-12T13:33:36Z</time>
      </trkpt>
      <trkpt lat="42.91683" lon="0.29532">
        <ele>1368.80497</ele>
        <time>2024-01-12T13:33:37Z</time>
      </trkpt>
      <trkpt lat="42.91681" lon="0.29532">
        <ele>1369.32109</ele>
        <time>2024-01-12T13:33:38Z</time>
      </trkpt>
      <trkpt lat="42.9168" lon="0.29532">
        <ele>1367.0564</ele>
        <time>2024-01-12T13:33:39Z</time>
      </trkpt>
      <trkpt lat="42.91679" lon="0.29531">
        <ele>1367.46405</ele>
        <time>2024-01-12T13:33:40Z</time>
      </trkpt>
      <trkpt lat="42.91677" lon="0.29532">
        <ele>1369.21486</ele>
        <time>2024-01-12T13:33:41Z</time>
      </trkpt>
      <trkpt lat="42.91676" lon="0.29531">
        <ele>1368.93507</ele>
        <time>2024-01-12T13:33:42Z</time>
      </trkpt>
      <trkpt lat="42.91675" lon="0.29531">
        <ele>1367.70359</ele>
        <time>2024-01-12T13:33:43Z</time>
      </trkpt>
      <trkpt lat="42.91674" lon="0.2953">
        <ele>1367.85315</ele>
        <time>2024-01-12T13:33:44Z</time>
      </trkpt>
      <trkpt lat="42.91673" lon="0.29528">
        <ele>1368.67989</ele>
        <time>2024-01-12T13:33:46Z</time>
      </trkpt>
      <trkpt lat="42.91673" lon="0.29526">
        <ele>1369.10857</ele>
        <time>2024-01-12T13:33:51Z</time>
      </trkpt>
      <trkpt lat="42.91674" lon="0.29526">
        <ele>1370.57965</ele>
        <time>2024-01-12T13:33:53Z</time>
      </trkpt>
      <trkpt lat="42.91676" lon="0.29526">
        <ele>1367.34623</ele>
        <time>2024-01-12T13:33:55Z</time>
      </trkpt>
      <trkpt lat="42.91679" lon="0.29527">
        <ele>1367.49434</ele>
        <time>2024-01-12T13:33:56Z</time>
      </trkpt>
      <trkpt lat="42.91683" lon="0.29526">
        <ele>1366.17055</ele>
        <time>2024-01-12T13:33:57Z</time>
      </trkpt>
      <trkpt lat="42.91686" lon="0.29525">
        <ele>1367.40944</ele>
        <time>2024-01-12T13:33:58Z</time>
      </trkpt>
      <trkpt lat="42.91687" lon="0.29526">
        <ele>1366.47748</ele>
        <time>2024-01-12T13:33:59Z</time>
      </trkpt>
      <trkpt lat="42.91689" lon="0.29525">
        <ele>1367.31567</ele>
        <time>2024-01-12T13:34:00Z</time>
      </trkpt>
      <trkpt lat="42.91691" lon="0.29525">
        <ele>1365.49246</ele>
        <time>2024-01-12T13:34:02Z</time>
      </trkpt>
      <trkpt lat="42.91692" lon="0.29525">
        <ele>1363.00139</ele>
        <time>2024-01-12T13:34:04Z</time>
      </trkpt>
      <trkpt lat="42.91694" lon="0.29525">
        <ele>1365.4879</ele>
        <time>2024-01-12T13:34:05Z</time>
      </trkpt>
      <trkpt lat="42.91695" lon="0.29525">
        <ele>1365.30194</ele>
        <time>2024-01-12T13:34:06Z</time>
      </trkpt>
      <trkpt lat="42.91696" lon="0.29525">
        <ele>1364.95582</ele>
        <time>2024-01-12T13:34:07Z</time>
      </trkpt>
      <trkpt lat="42.91698" lon="0.29525">
        <ele>1362.70637</ele>
        <time>2024-01-12T13:34:08Z</time>
      </trkpt>
      <trkpt lat="42.91699" lon="0.29525">
        <ele>1364.5285</ele>
        <time>2024-01-12T13:34:09Z</time>
      </trkpt>
      <trkpt lat="42.91701" lon="0.29524">
        <ele>1364.38725</ele>
        <time>2024-01-12T13:34:10Z</time>
      </trkpt>
      <trkpt lat="42.91703" lon="0.29524">
        <ele>1364.35013</ele>
        <time>2024-01-12T13:34:11Z</time>
      </trkpt>
      <trkpt lat="42.91704" lon="0.29524">
        <ele>1363.4275</ele>
        <time>2024-01-12T13:34:12Z</time>
      </trkpt>
      <trkpt lat="42.91706" lon="0.29524">
        <ele>1363.11037</ele>
        <time>2024-01-12T13:34:13Z</time>
      </trkpt>
      <trkpt lat="42.91707" lon="0.29523">
        <ele>1363.68159</ele>
        <time>2024-01-12T13:34:14Z</time>
      </trkpt>
      <trkpt lat="42.91708" lon="0.29524">
        <ele>1362.86276</ele>
        <time>2024-01-12T13:34:15Z</time>
      </trkpt>
      <trkpt lat="42.9171" lon="0.29524">
        <ele>1362.43801</ele>
        <time>2024-01-12T13:34:16Z</time>
      </trkpt>
      <trkpt lat="42.91712" lon="0.29523">
        <ele>1363.93443</ele>
        <time>2024-01-12T13:34:17Z</time>
      </trkpt>
      <trkpt lat="42.91713" lon="0.29523">
        <ele>1363.98607</ele>
        <time>2024-01-12T13:34:18Z</time>
      </trkpt>
      <trkpt lat="42.91715" lon="0.29522">
        <ele>1365.31662</ele>
        <time>2024-01-12T13:34:19Z</time>
      </trkpt>
      <trkpt lat="42.91716" lon="0.29523">
        <ele>1362.13888</ele>
        <time>2024-01-12T13:34:20Z</time>
      </trkpt>
      <trkpt lat="42.91717" lon="0.29523">
        <ele>1363.22851</ele>
        <time>2024-01-12T13:34:21Z</time>
      </trkpt>
      <trkpt lat="42.91719" lon="0.29522">
        <ele>1363.32229</ele>
        <time>2024-01-12T13:34:22Z</time>
      </trkpt>
      <trkpt lat="42.9172" lon="0.29522">
        <ele>1364.45906</ele>
        <time>2024-01-12T13:34:23Z</time>
      </trkpt>
      <trkpt lat="42.9172" lon="0.29522">
        <ele>1364.23963</ele>
        <time>2024-01-12T13:34:24Z</time>
      </trkpt>
      <trkpt lat="42.91722" lon="0.29522">
        <ele>1364.19898</ele>
        <time>2024-01-12T13:34:25Z</time>
      </trkpt>
      <trkpt lat="42.91723" lon="0.29522">
        <ele>1365.84674</ele>
        <time>2024-01-12T13:34:26Z</time>
      </trkpt>
      <trkpt lat="42.91724" lon="0.29522">
        <ele>1365.54496</ele>
        <time>2024-01-12T13:34:27Z</time>
      </trkpt>
      <trkpt lat="42.91725" lon="0.29523">
        <ele>1361.7144</ele>
        <time>2024-01-12T13:34:28Z</time>
      </trkpt>
      <trkpt lat="42.91726" lon="0.29522">
        <ele>1363.31987</ele>
        <time>2024-01-12T13:34:29Z</time>
      </trkpt>
      <trkpt lat="42.91727" lon="0.29522">
        <ele>1361.8272</ele>
        <time>2024-01-12T13:34:30Z</time>
      </trkpt>
      <trkpt lat="42.91728" lon="0.29523">
        <ele>1360.671</ele>
        <time>2024-01-12T13:34:32Z</time>
      </trkpt>
      <trkpt lat="42.91729" lon="0.29522">
        <ele>1362.57772</ele>
        <time>2024-01-12T13:34:33Z</time>
      </trkpt>
      <trkpt lat="42.91731" lon="0.29522">
        <ele>1361.72645</ele>
        <time>2024-01-12T13:34:35Z</time>
      </trkpt>
      <trkpt lat="42.91732" lon="0.29522">
        <ele>1359.5903</ele>
        <time>2024-01-12T13:34:37Z</time>
      </trkpt>
      <trkpt lat="42.91734" lon="0.29523">
        <ele>1359.53063</ele>
        <time>2024-01-12T13:34:38Z</time>
      </trkpt>
      <trkpt lat="42.91735" lon="0.29524">
        <ele>1357.0871</ele>
        <time>2024-01-12T13:34:40Z</time>
      </trkpt>
      <trkpt lat="42.91737" lon="0.29524">
        <ele>1358.80451</ele>
        <time>2024-01-12T13:34:42Z</time>
      </trkpt>
      <trkpt lat="42.91739" lon="0.29525">
        <ele>1358.07796</ele>
        <time>2024-01-12T13:34:44Z</time>
      </trkpt>
      <trkpt lat="42.9174" lon="0.29526">
        <ele>1356.6273</ele>
        <time>2024-01-12T13:34:46Z</time>
      </trkpt>
      <trkpt lat="42.91742" lon="0.29526">
        <ele>1355.92124</ele>
        <time>2024-01-12T13:34:48Z</time>
      </trkpt>
      <trkpt lat="42.91744" lon="0.29526">
        <ele>1356.06367</ele>
        <time>2024-01-12T13:34:49Z</time>
      </trkpt>
      <trkpt lat="42.91745" lon="0.29526">
        <ele>1355.76356</ele>
        <time>2024-01-12T13:34:50Z</time>
      </trkpt>
      <trkpt lat="42.91747" lon="0.29526">
        <ele>1356.70699</ele>
        <time>2024-01-12T13:34:51Z</time>
      </trkpt>
      <trkpt lat="42.91749" lon="0.29526">
        <ele>1356.4561</ele>
        <time>2024-01-12T13:34:52Z</time>
      </trkpt>
      <trkpt lat="42.91751" lon="0.29526">
        <ele>1355.43488</ele>
        <time>2024-01-12T13:34:54Z</time>
      </trkpt>
      <trkpt lat="42.91752" lon="0.29528">
        <ele>1353.92525</ele>
        <time>2024-01-12T13:34:55Z</time>
      </trkpt>
      <trkpt lat="42.91753" lon="0.29528">
        <ele>1353.61111</ele>
        <time>2024-01-12T13:34:56Z</time>
      </trkpt>
      <trkpt lat="42.91754" lon="0.29528">
        <ele>1352.72093</ele>
        <time>2024-01-12T13:34:57Z</time>
      </trkpt>
      <trkpt lat="42.91756" lon="0.29528">
        <ele>1350.71671</ele>
        <time>2024-01-12T13:35:00Z</time>
      </trkpt>
      <trkpt lat="42.91758" lon="0.29529">
        <ele>1350.49056</ele>
        <time>2024-01-12T13:35:02Z</time>
      </trkpt>
      <trkpt lat="42.91759" lon="0.2953">
        <ele>1349.22365</ele>
        <time>2024-01-12T13:35:04Z</time>
      </trkpt>
      <trkpt lat="42.9176" lon="0.29531">
        <ele>1347.86393</ele>
        <time>2024-01-12T13:35:05Z</time>
      </trkpt>
      <trkpt lat="42.91762" lon="0.29532">
        <ele>1349.41837</ele>
        <time>2024-01-12T13:35:06Z</time>
      </trkpt>
      <trkpt lat="42.91763" lon="0.29532">
        <ele>1349.52638</ele>
        <time>2024-01-12T13:35:07Z</time>
      </trkpt>
      <trkpt lat="42.91765" lon="0.29532">
        <ele>1349.69978</ele>
        <time>2024-01-12T13:35:09Z</time>
      </trkpt>
      <trkpt lat="42.91766" lon="0.29533">
        <ele>1347.97364</ele>
        <time>2024-01-12T13:35:10Z</time>
      </trkpt>
      <trkpt lat="42.91769" lon="0.29534">
        <ele>1348.67283</ele>
        <time>2024-01-12T13:35:11Z</time>
      </trkpt>
      <trkpt lat="42.9177" lon="0.29534">
        <ele>1348.98894</ele>
        <time>2024-01-12T13:35:12Z</time>
      </trkpt>
      <trkpt lat="42.91771" lon="0.29536">
        <ele>1349.52454</ele>
        <time>2024-01-12T13:35:13Z</time>
      </trkpt>
      <trkpt lat="42.91772" lon="0.29536">
        <ele>1348.99968</ele>
        <time>2024-01-12T13:35:14Z</time>
      </trkpt>
      <trkpt lat="42.91774" lon="0.29537">
        <ele>1347.55827</ele>
        <time>2024-01-12T13:35:16Z</time>
      </trkpt>
      <trkpt lat="42.91775" lon="0.29537">
        <ele>1347.72601</ele>
        <time>2024-01-12T13:35:17Z</time>
      </trkpt>
      <trkpt lat="42.91776" lon="0.29538">
        <ele>1345.98241</ele>
        <time>2024-01-12T13:35:19Z</time>
      </trkpt>
      <trkpt lat="42.91777" lon="0.29539">
        <ele>1347.02326</ele>
        <time>2024-01-12T13:35:20Z</time>
      </trkpt>
      <trkpt lat="42.91779" lon="0.2954">
        <ele>1347.10662</ele>
        <time>2024-01-12T13:35:21Z</time>
      </trkpt>
      <trkpt lat="42.9178" lon="0.2954">
        <ele>1346.44091</ele>
        <time>2024-01-12T13:35:22Z</time>
      </trkpt>
      <trkpt lat="42.9178" lon="0.29542">
        <ele>1346.66269</ele>
        <time>2024-01-12T13:35:23Z</time>
      </trkpt>
      <trkpt lat="42.91782" lon="0.29543">
        <ele>1344.8724</ele>
        <time>2024-01-12T13:35:25Z</time>
      </trkpt>
      <trkpt lat="42.91783" lon="0.29544">
        <ele>1347.64561</ele>
        <time>2024-01-12T13:35:26Z</time>
      </trkpt>
      <trkpt lat="42.91783" lon="0.29546">
        <ele>1347.07377</ele>
        <time>2024-01-12T13:35:27Z</time>
      </trkpt>
      <trkpt lat="42.91785" lon="0.29548">
        <ele>1347.82432</ele>
        <time>2024-01-12T13:35:28Z</time>
      </trkpt>
      <trkpt lat="42.91786" lon="0.29549">
        <ele>1346.71651</ele>
        <time>2024-01-12T13:35:29Z</time>
      </trkpt>
      <trkpt lat="42.91786" lon="0.29551">
        <ele>1346.76225</ele>
        <time>2024-01-12T13:35:30Z</time>
      </trkpt>
      <trkpt lat="42.91787" lon="0.29552">
        <ele>1346.73947</ele>
        <time>2024-01-12T13:35:31Z</time>
      </trkpt>
      <trkpt lat="42.91788" lon="0.29553">
        <ele>1346.5338</ele>
        <time>2024-01-12T13:35:32Z</time>
      </trkpt>
      <trkpt lat="42.9179" lon="0.29555">
        <ele>1346.05463</ele>
        <time>2024-01-12T13:35:33Z</time>
      </trkpt>
      <trkpt lat="42.91791" lon="0.29556">
        <ele>1346.37307</ele>
        <time>2024-01-12T13:35:34Z</time>
      </trkpt>
      <trkpt lat="42.91792" lon="0.29557">
        <ele>1345.90058</ele>
        <time>2024-01-12T13:35:35Z</time>
      </trkpt>
      <trkpt lat="42.91795" lon="0.2956">
        <ele>1346.67734</ele>
        <time>2024-01-12T13:35:36Z</time>
      </trkpt>
      <trkpt lat="42.91796" lon="0.29561">
        <ele>1346.0716</ele>
        <time>2024-01-12T13:35:37Z</time>
      </trkpt>
      <trkpt lat="42.91797" lon="0.29562">
        <ele>1346.33141</ele>
        <time>2024-01-12T13:35:38Z</time>
      </trkpt>
      <trkpt lat="42.91798" lon="0.29563">
        <ele>1344.15027</ele>
        <time>2024-01-12T13:35:39Z</time>
      </trkpt>
      <trkpt lat="42.918" lon="0.29563">
        <ele>1344.80113</ele>
        <time>2024-01-12T13:35:40Z</time>
      </trkpt>
      <trkpt lat="42.91801" lon="0.29565">
        <ele>1342.57792</ele>
        <time>2024-01-12T13:35:42Z</time>
      </trkpt>
      <trkpt lat="42.91803" lon="0.29566">
        <ele>1342.20653</ele>
        <time>2024-01-12T13:35:44Z</time>
      </trkpt>
      <trkpt lat="42.91805" lon="0.29568">
        <ele>1341.377</ele>
        <time>2024-01-12T13:35:46Z</time>
      </trkpt>
      <trkpt lat="42.91806" lon="0.29569">
        <ele>1340.26886</ele>
        <time>2024-01-12T13:35:47Z</time>
      </trkpt>
      <trkpt lat="42.91807" lon="0.2957">
        <ele>1340.48663</ele>
        <time>2024-01-12T13:35:48Z</time>
      </trkpt>
      <trkpt lat="42.91809" lon="0.29572">
        <ele>1339.95229</ele>
        <time>2024-01-12T13:35:50Z</time>
      </trkpt>
      <trkpt lat="42.9181" lon="0.29573">
        <ele>1339.16298</ele>
        <time>2024-01-12T13:35:51Z</time>
      </trkpt>
      <trkpt lat="42.91811" lon="0.29574">
        <ele>1337.91814</ele>
        <time>2024-01-12T13:35:52Z</time>
      </trkpt>
      <trkpt lat="42.91813" lon="0.29575">
        <ele>1337.9483</ele>
        <time>2024-01-12T13:35:53Z</time>
      </trkpt>
      <trkpt lat="42.91814" lon="0.29575">
        <ele>1339.394</ele>
        <time>2024-01-12T13:35:54Z</time>
      </trkpt>
      <trkpt lat="42.91816" lon="0.29576">
        <ele>1339.29538</ele>
        <time>2024-01-12T13:35:55Z</time>
      </trkpt>
      <trkpt lat="42.91816" lon="0.29577">
        <ele>1337.04734</ele>
        <time>2024-01-12T13:35:56Z</time>
      </trkpt>
      <trkpt lat="42.91817" lon="0.29577">
        <ele>1337.64348</ele>
        <time>2024-01-12T13:35:57Z</time>
      </trkpt>
      <trkpt lat="42.91819" lon="0.29579">
        <ele>1338.29878</ele>
        <time>2024-01-12T13:35:59Z</time>
      </trkpt>
      <trkpt lat="42.9182" lon="0.2958">
        <ele>1339.1423</ele>
        <time>2024-01-12T13:36:00Z</time>
      </trkpt>
      <trkpt lat="42.91821" lon="0.29581">
        <ele>1337.91545</ele>
        <time>2024-01-12T13:36:01Z</time>
      </trkpt>
      <trkpt lat="42.91822" lon="0.29582">
        <ele>1337.13599</ele>
        <time>2024-01-12T13:36:03Z</time>
      </trkpt>
      <trkpt lat="42.91823" lon="0.29583">
        <ele>1337.01789</ele>
        <time>2024-01-12T13:36:04Z</time>
      </trkpt>
      <trkpt lat="42.91824" lon="0.29584">
        <ele>1336.4195</ele>
        <time>2024-01-12T13:36:05Z</time>
      </trkpt>
      <trkpt lat="42.91825" lon="0.29586">
        <ele>1335.26522</ele>
        <time>2024-01-12T13:36:07Z</time>
      </trkpt>
      <trkpt lat="42.91826" lon="0.29587">
        <ele>1336.59512</ele>
        <time>2024-01-12T13:36:08Z</time>
      </trkpt>
      <trkpt lat="42.91828" lon="0.29589">
        <ele>1334.10701</ele>
        <time>2024-01-12T13:36:10Z</time>
      </trkpt>
      <trkpt lat="42.9183" lon="0.2959">
        <ele>1335.14757</ele>
        <time>2024-01-12T13:36:11Z</time>
      </trkpt>
      <trkpt lat="42.9183" lon="0.29591">
        <ele>1333.46328</ele>
        <time>2024-01-12T13:36:12Z</time>
      </trkpt>
      <trkpt lat="42.91832" lon="0.29593">
        <ele>1333.98392</ele>
        <time>2024-01-12T13:36:13Z</time>
      </trkpt>
      <trkpt lat="42.91834" lon="0.29595">
        <ele>1334.04225</ele>
        <time>2024-01-12T13:36:15Z</time>
      </trkpt>
      <trkpt lat="42.91835" lon="0.29596">
        <ele>1332.93599</ele>
        <time>2024-01-12T13:36:17Z</time>
      </trkpt>
      <trkpt lat="42.91837" lon="0.29597">
        <ele>1333.28074</ele>
        <time>2024-01-12T13:36:18Z</time>
      </trkpt>
      <trkpt lat="42.91838" lon="0.29597">
        <ele>1333.49662</ele>
        <time>2024-01-12T13:36:19Z</time>
      </trkpt>
      <trkpt lat="42.91838" lon="0.29599">
        <ele>1332.4599</ele>
        <time>2024-01-12T13:36:20Z</time>
      </trkpt>
      <trkpt lat="42.9184" lon="0.29601">
        <ele>1330.99432</ele>
        <time>2024-01-12T13:36:22Z</time>
      </trkpt>
      <trkpt lat="42.9184" lon="0.29602">
        <ele>1329.95433</ele>
        <time>2024-01-12T13:36:23Z</time>
      </trkpt>
      <trkpt lat="42.91842" lon="0.29602">
        <ele>1330.92112</ele>
        <time>2024-01-12T13:36:25Z</time>
      </trkpt>
      <trkpt lat="42.91843" lon="0.29601">
        <ele>1332.01014</ele>
        <time>2024-01-12T13:36:26Z</time>
      </trkpt>
      <trkpt lat="42.91845" lon="0.29602">
        <ele>1331.61206</ele>
        <time>2024-01-12T13:36:28Z</time>
      </trkpt>
      <trkpt lat="42.91847" lon="0.29603">
        <ele>1332.9433</ele>
        <time>2024-01-12T13:36:29Z</time>
      </trkpt>
      <trkpt lat="42.91848" lon="0.29603">
        <ele>1331.22959</ele>
        <time>2024-01-12T13:36:31Z</time>
      </trkpt>
      <trkpt lat="42.91849" lon="0.29602">
        <ele>1329.99212</ele>
        <time>2024-01-12T13:36:32Z</time>
      </trkpt>
      <trkpt lat="42.9185" lon="0.29602">
        <ele>1331.78545</ele>
        <time>2024-01-12T13:36:34Z</time>
      </trkpt>
      <trkpt lat="42.91851" lon="0.29601">
        <ele>1330.47592</ele>
        <time>2024-01-12T13:36:35Z</time>
      </trkpt>
      <trkpt lat="42.91853" lon="0.29602">
        <ele>1330.48858</ele>
        <time>2024-01-12T13:36:37Z</time>
      </trkpt>
      <trkpt lat="42.91854" lon="0.29601">
        <ele>1329.33279</ele>
        <time>2024-01-12T13:36:38Z</time>
      </trkpt>
      <trkpt lat="42.91855" lon="0.29601">
        <ele>1330.75136</ele>
        <time>2024-01-12T13:36:39Z</time>
      </trkpt>
      <trkpt lat="42.91857" lon="0.296">
        <ele>1331.06195</ele>
        <time>2024-01-12T13:36:40Z</time>
      </trkpt>
      <trkpt lat="42.91858" lon="0.296">
        <ele>1331.46613</ele>
        <time>2024-01-12T13:36:41Z</time>
      </trkpt>
      <trkpt lat="42.9186" lon="0.296">
        <ele>1330.4707</ele>
        <time>2024-01-12T13:36:42Z</time>
      </trkpt>
      <trkpt lat="42.91861" lon="0.296">
        <ele>1330.33124</ele>
        <time>2024-01-12T13:36:43Z</time>
      </trkpt>
      <trkpt lat="42.91863" lon="0.296">
        <ele>1331.45358</ele>
        <time>2024-01-12T13:36:44Z</time>
      </trkpt>
      <trkpt lat="42.91865" lon="0.296">
        <ele>1331.73818</ele>
        <time>2024-01-12T13:36:45Z</time>
      </trkpt>
      <trkpt lat="42.91866" lon="0.296">
        <ele>1329.36872</ele>
        <time>2024-01-12T13:36:46Z</time>
      </trkpt>
      <trkpt lat="42.91867" lon="0.296">
        <ele>1329.43705</ele>
        <time>2024-01-12T13:36:47Z</time>
      </trkpt>
      <trkpt lat="42.91869" lon="0.29599">
        <ele>1329.52502</ele>
        <time>2024-01-12T13:36:49Z</time>
      </trkpt>
      <trkpt lat="42.91871" lon="0.29599">
        <ele>1330.4447</ele>
        <time>2024-01-12T13:36:50Z</time>
      </trkpt>
      <trkpt lat="42.91872" lon="0.29599">
        <ele>1329.37661</ele>
        <time>2024-01-12T13:36:51Z</time>
      </trkpt>
      <trkpt lat="42.91874" lon="0.29598">
        <ele>1329.64729</ele>
        <time>2024-01-12T13:36:52Z</time>
      </trkpt>
      <trkpt lat="42.91876" lon="0.29598">
        <ele>1328.81867</ele>
        <time>2024-01-12T13:36:54Z</time>
      </trkpt>
      <trkpt lat="42.91877" lon="0.29597">
        <ele>1327.59238</ele>
        <time>2024-01-12T13:36:55Z</time>
      </trkpt>
      <trkpt lat="42.91878" lon="0.29597">
        <ele>1329.60267</ele>
        <time>2024-01-12T13:36:56Z</time>
      </trkpt>
      <trkpt lat="42.91879" lon="0.29597">
        <ele>1328.70155</ele>
        <time>2024-01-12T13:36:57Z</time>
      </trkpt>
      <trkpt lat="42.9188" lon="0.29596">
        <ele>1327.94357</ele>
        <time>2024-01-12T13:36:58Z</time>
      </trkpt>
      <trkpt lat="42.91882" lon="0.29595">
        <ele>1327.37424</ele>
        <time>2024-01-12T13:37:00Z</time>
      </trkpt>
      <trkpt lat="42.91883" lon="0.29595">
        <ele>1327.31121</ele>
        <time>2024-01-12T13:37:01Z</time>
      </trkpt>
      <trkpt lat="42.91884" lon="0.29594">
        <ele>1324.73962</ele>
        <time>2024-01-12T13:37:03Z</time>
      </trkpt>
      <trkpt lat="42.91885" lon="0.29592">
        <ele>1325.83479</ele>
        <time>2024-01-12T13:37:05Z</time>
      </trkpt>
      <trkpt lat="42.91887" lon="0.29592">
        <ele>1324.62154</ele>
        <time>2024-01-12T13:37:07Z</time>
      </trkpt>
      <trkpt lat="42.91888" lon="0.29591">
        <ele>1324.92891</ele>
        <time>2024-01-12T13:37:08Z</time>
      </trkpt>
      <trkpt lat="42.91889" lon="0.2959">
        <ele>1323.16596</ele>
        <time>2024-01-12T13:37:10Z</time>
      </trkpt>
      <trkpt lat="42.9189" lon="0.29589">
        <ele>1324.29182</ele>
        <time>2024-01-12T13:37:11Z</time>
      </trkpt>
      <trkpt lat="42.91891" lon="0.29588">
        <ele>1325.02114</ele>
        <time>2024-01-12T13:37:12Z</time>
      </trkpt>
      <trkpt lat="42.91892" lon="0.29586">
        <ele>1324.58606</ele>
        <time>2024-01-12T13:37:13Z</time>
      </trkpt>
      <trkpt lat="42.91895" lon="0.29584">
        <ele>1325.31406</ele>
        <time>2024-01-12T13:37:15Z</time>
      </trkpt>
      <trkpt lat="42.91896" lon="0.29584">
        <ele>1324.53758</ele>
        <time>2024-01-12T13:37:17Z</time>
      </trkpt>
      <trkpt lat="42.91897" lon="0.29583">
        <ele>1325.46431</ele>
        <time>2024-01-12T13:37:19Z</time>
      </trkpt>
      <trkpt lat="42.91898" lon="0.29582">
        <ele>1324.76315</ele>
        <time>2024-01-12T13:37:21Z</time>
      </trkpt>
      <trkpt lat="42.91899" lon="0.29582">
        <ele>1325.87165</ele>
        <time>2024-01-12T13:37:22Z</time>
      </trkpt>
      <trkpt lat="42.91901" lon="0.29581">
        <ele>1322.42632</ele>
        <time>2024-01-12T13:37:24Z</time>
      </trkpt>
      <trkpt lat="42.91902" lon="0.2958">
        <ele>1322.57913</ele>
        <time>2024-01-12T13:37:26Z</time>
      </trkpt>
      <trkpt lat="42.91903" lon="0.29579">
        <ele>1321.83534</ele>
        <time>2024-01-12T13:37:28Z</time>
      </trkpt>
      <trkpt lat="42.91904" lon="0.29577">
        <ele>1323.92827</ele>
        <time>2024-01-12T13:37:29Z</time>
      </trkpt>
      <trkpt lat="42.91905" lon="0.29576">
        <ele>1321.75744</ele>
        <time>2024-01-12T13:37:30Z</time>
      </trkpt>
      <trkpt lat="42.91906" lon="0.29575">
        <ele>1322.23599</ele>
        <time>2024-01-12T13:37:31Z</time>
      </trkpt>
      <trkpt lat="42.91908" lon="0.29574">
        <ele>1322.06933</ele>
        <time>2024-01-12T13:37:33Z</time>
      </trkpt>
      <trkpt lat="42.91909" lon="0.29573">
        <ele>1322.11466</ele>
        <time>2024-01-12T13:37:35Z</time>
      </trkpt>
      <trkpt lat="42.9191" lon="0.29572">
        <ele>1322.19948</ele>
        <time>2024-01-12T13:37:36Z</time>
      </trkpt>
      <trkpt lat="42.91912" lon="0.29571">
        <ele>1319.86919</ele>
        <time>2024-01-12T13:37:38Z</time>
      </trkpt>
      <trkpt lat="42.91913" lon="0.2957">
        <ele>1320.86915</ele>
        <time>2024-01-12T13:37:39Z</time>
      </trkpt>
      <trkpt lat="42.91914" lon="0.29569">
        <ele>1322.21748</ele>
        <time>2024-01-12T13:37:41Z</time>
      </trkpt>
      <trkpt lat="42.91916" lon="0.29568">
        <ele>1318.99019</ele>
        <time>2024-01-12T13:37:43Z</time>
      </trkpt>
      <trkpt lat="42.91917" lon="0.29567">
        <ele>1319.97111</ele>
        <time>2024-01-12T13:37:45Z</time>
      </trkpt>
      <trkpt lat="42.91919" lon="0.29566">
        <ele>1320.55698</ele>
        <time>2024-01-12T13:37:46Z</time>
      </trkpt>
      <trkpt lat="42.9192" lon="0.29567">
        <ele>1317.89575</ele>
        <time>2024-01-12T13:37:47Z</time>
      </trkpt>
      <trkpt lat="42.91921" lon="0.29566">
        <ele>1318.31099</ele>
        <time>2024-01-12T13:37:48Z</time>
      </trkpt>
      <trkpt lat="42.91922" lon="0.29563">
        <ele>1316.50151</ele>
        <time>2024-01-12T13:37:52Z</time>
      </trkpt>
      <trkpt lat="42.91924" lon="0.29562">
        <ele>1316.61282</ele>
        <time>2024-01-12T13:37:53Z</time>
      </trkpt>
      <trkpt lat="42.91926" lon="0.29562">
        <ele>1317.06508</ele>
        <time>2024-01-12T13:37:54Z</time>
      </trkpt>
      <trkpt lat="42.91928" lon="0.29561">
        <ele>1315.40017</ele>
        <time>2024-01-12T13:37:55Z</time>
      </trkpt>
      <trkpt lat="42.91929" lon="0.2956">
        <ele>1317.42229</ele>
        <time>2024-01-12T13:37:56Z</time>
      </trkpt>
      <trkpt lat="42.9193" lon="0.2956">
        <ele>1316.13417</ele>
        <time>2024-01-12T13:37:57Z</time>
      </trkpt>
      <trkpt lat="42.91932" lon="0.2956">
        <ele>1316.1695</ele>
        <time>2024-01-12T13:37:58Z</time>
      </trkpt>
      <trkpt lat="42.91933" lon="0.2956">
        <ele>1315.54891</ele>
        <time>2024-01-12T13:37:59Z</time>
      </trkpt>
      <trkpt lat="42.91934" lon="0.29559">
        <ele>1313.24093</ele>
        <time>2024-01-12T13:38:01Z</time>
      </trkpt>
      <trkpt lat="42.91935" lon="0.29559">
        <ele>1314.04349</ele>
        <time>2024-01-12T13:38:02Z</time>
      </trkpt>
      <trkpt lat="42.91937" lon="0.29558">
        <ele>1314.95796</ele>
        <time>2024-01-12T13:38:03Z</time>
      </trkpt>
      <trkpt lat="42.91938" lon="0.29557">
        <ele>1314.69241</ele>
        <time>2024-01-12T13:38:04Z</time>
      </trkpt>
      <trkpt lat="42.9194" lon="0.29557">
        <ele>1314.59423</ele>
        <time>2024-01-12T13:38:06Z</time>
      </trkpt>
      <trkpt lat="42.91941" lon="0.29556">
        <ele>1312.95977</ele>
        <time>2024-01-12T13:38:08Z</time>
      </trkpt>
      <trkpt lat="42.91943" lon="0.29556">
        <ele>1312.01677</ele>
        <time>2024-01-12T13:38:10Z</time>
      </trkpt>
      <trkpt lat="42.91944" lon="0.29555">
        <ele>1311.02104</ele>
        <time>2024-01-12T13:38:11Z</time>
      </trkpt>
      <trkpt lat="42.91946" lon="0.29554">
        <ele>1309.16403</ele>
        <time>2024-01-12T13:38:13Z</time>
      </trkpt>
      <trkpt lat="42.91948" lon="0.29553">
        <ele>1309.20402</ele>
        <time>2024-01-12T13:38:14Z</time>
      </trkpt>
      <trkpt lat="42.91949" lon="0.29553">
        <ele>1310.0277</ele>
        <time>2024-01-12T13:38:15Z</time>
      </trkpt>
      <trkpt lat="42.9195" lon="0.29552">
        <ele>1309.36289</ele>
        <time>2024-01-12T13:38:16Z</time>
      </trkpt>
      <trkpt lat="42.91952" lon="0.29551">
        <ele>1308.43148</ele>
        <time>2024-01-12T13:38:19Z</time>
      </trkpt>
      <trkpt lat="42.91953" lon="0.29552">
        <ele>1307.00653</ele>
        <time>2024-01-12T13:38:20Z</time>
      </trkpt>
      <trkpt lat="42.91954" lon="0.29551">
        <ele>1308.32372</ele>
        <time>2024-01-12T13:38:21Z</time>
      </trkpt>
      <trkpt lat="42.91955" lon="0.2955">
        <ele>1308.14614</ele>
        <time>2024-01-12T13:38:23Z</time>
      </trkpt>
      <trkpt lat="42.91957" lon="0.2955">
        <ele>1306.08018</ele>
        <time>2024-01-12T13:38:26Z</time>
      </trkpt>
      <trkpt lat="42.91959" lon="0.29549">
        <ele>1306.58339</ele>
        <time>2024-01-12T13:38:28Z</time>
      </trkpt>
      <trkpt lat="42.9196" lon="0.29549">
        <ele>1307.77889</ele>
        <time>2024-01-12T13:38:29Z</time>
      </trkpt>
      <trkpt lat="42.91961" lon="0.29548">
        <ele>1307.80831</ele>
        <time>2024-01-12T13:38:30Z</time>
      </trkpt>
      <trkpt lat="42.91962" lon="0.29548">
        <ele>1307.37162</ele>
        <time>2024-01-12T13:38:31Z</time>
      </trkpt>
      <trkpt lat="42.91963" lon="0.29547">
        <ele>1308.73653</ele>
        <time>2024-01-12T13:38:32Z</time>
      </trkpt>
      <trkpt lat="42.91963" lon="0.29546">
        <ele>1308.41218</ele>
        <time>2024-01-12T13:38:33Z</time>
      </trkpt>
      <trkpt lat="42.91965" lon="0.29545">
        <ele>1308.45984</ele>
        <time>2024-01-12T13:38:35Z</time>
      </trkpt>
      <trkpt lat="42.91967" lon="0.29547">
        <ele>1305.99116</ele>
        <time>2024-01-12T13:38:36Z</time>
      </trkpt>
      <trkpt lat="42.91968" lon="0.29545">
        <ele>1305.61275</ele>
        <time>2024-01-12T13:38:39Z</time>
      </trkpt>
      <trkpt lat="42.9197" lon="0.29544">
        <ele>1304.35418</ele>
        <time>2024-01-12T13:38:40Z</time>
      </trkpt>
      <trkpt lat="42.91972" lon="0.29543">
        <ele>1302.95412</ele>
        <time>2024-01-12T13:38:42Z</time>
      </trkpt>
      <trkpt lat="42.91973" lon="0.29543">
        <ele>1301.53668</ele>
        <time>2024-01-12T13:38:43Z</time>
      </trkpt>
      <trkpt lat="42.91975" lon="0.29543">
        <ele>1303.41119</ele>
        <time>2024-01-12T13:38:44Z</time>
      </trkpt>
      <trkpt lat="42.91976" lon="0.29542">
        <ele>1302.939</ele>
        <time>2024-01-12T13:38:45Z</time>
      </trkpt>
      <trkpt lat="42.91977" lon="0.29542">
        <ele>1303.36659</ele>
        <time>2024-01-12T13:38:46Z</time>
      </trkpt>
      <trkpt lat="42.91978" lon="0.29542">
        <ele>1301.93637</ele>
        <time>2024-01-12T13:38:51Z</time>
      </trkpt>
      <trkpt lat="42.9198" lon="0.29541">
        <ele>1301.63769</ele>
        <time>2024-01-12T13:38:53Z</time>
      </trkpt>
      <trkpt lat="42.91981" lon="0.29541">
        <ele>1301.34966</ele>
        <time>2024-01-12T13:38:54Z</time>
      </trkpt>
      <trkpt lat="42.91983" lon="0.2954">
        <ele>1300.80014</ele>
        <time>2024-01-12T13:38:55Z</time>
      </trkpt>
      <trkpt lat="42.91985" lon="0.2954">
        <ele>1300.33702</ele>
        <time>2024-01-12T13:38:56Z</time>
      </trkpt>
      <trkpt lat="42.91986" lon="0.2954">
        <ele>1300.46991</ele>
        <time>2024-01-12T13:38:57Z</time>
      </trkpt>
      <trkpt lat="42.91988" lon="0.29539">
        <ele>1300.58214</ele>
        <time>2024-01-12T13:38:58Z</time>
      </trkpt>
      <trkpt lat="42.91991" lon="0.29538">
        <ele>1298.52093</ele>
        <time>2024-01-12T13:39:00Z</time>
      </trkpt>
      <trkpt lat="42.91991" lon="0.29537">
        <ele>1298.42986</ele>
        <time>2024-01-12T13:39:01Z</time>
      </trkpt>
      <trkpt lat="42.91993" lon="0.29535">
        <ele>1298.44618</ele>
        <time>2024-01-12T13:39:02Z</time>
      </trkpt>
      <trkpt lat="42.91994" lon="0.29535">
        <ele>1297.73734</ele>
        <time>2024-01-12T13:39:03Z</time>
      </trkpt>
      <trkpt lat="42.91996" lon="0.29534">
        <ele>1297.57369</ele>
        <time>2024-01-12T13:39:04Z</time>
      </trkpt>
      <trkpt lat="42.91998" lon="0.29534">
        <ele>1297.78938</ele>
        <time>2024-01-12T13:39:05Z</time>
      </trkpt>
      <trkpt lat="42.91999" lon="0.29533">
        <ele>1297.19059</ele>
        <time>2024-01-12T13:39:06Z</time>
      </trkpt>
      <trkpt lat="42.92" lon="0.29534">
        <ele>1296.71867</ele>
        <time>2024-01-12T13:39:07Z</time>
      </trkpt>
      <trkpt lat="42.92" lon="0.29535">
        <ele>1292.79247</ele>
        <time>2024-01-12T13:39:11Z</time>
      </trkpt>
      <trkpt lat="42.91998" lon="0.29535">
        <ele>1301.59639</ele>
        <time>2024-01-12T13:39:24Z</time>
      </trkpt>
      <trkpt lat="42.91999" lon="0.29532">
        <ele>1301.37288</ele>
        <time>2024-01-12T13:39:33Z</time>
      </trkpt>
      <trkpt lat="42.91999" lon="0.2953">
        <ele>1299.24473</ele>
        <time>2024-01-12T13:39:35Z</time>
      </trkpt>
      <trkpt lat="42.92" lon="0.29531">
        <ele>1296.12057</ele>
        <time>2024-01-12T13:39:38Z</time>
      </trkpt>
      <trkpt lat="42.92001" lon="0.29531">
        <ele>1295.9629</ele>
        <time>2024-01-12T13:39:41Z</time>
      </trkpt>
      <trkpt lat="42.92002" lon="0.29533">
        <ele>1292.11422</ele>
        <time>2024-01-12T13:39:43Z</time>
      </trkpt>
      <trkpt lat="42.92003" lon="0.29533">
        <ele>1293.5333</ele>
        <time>2024-01-12T13:39:44Z</time>
      </trkpt>
      <trkpt lat="42.92005" lon="0.29532">
        <ele>1294.06273</ele>
        <time>2024-01-12T13:39:46Z</time>
      </trkpt>
      <trkpt lat="42.92006" lon="0.29534">
        <ele>1290.86665</ele>
        <time>2024-01-12T13:39:47Z</time>
      </trkpt>
      <trkpt lat="42.92006" lon="0.29532">
        <ele>1292.16743</ele>
        <time>2024-01-12T13:39:48Z</time>
      </trkpt>
      <trkpt lat="42.92008" lon="0.29532">
        <ele>1293.60365</ele>
        <time>2024-01-12T13:39:49Z</time>
      </trkpt>
      <trkpt lat="42.92009" lon="0.29531">
        <ele>1293.23547</ele>
        <time>2024-01-12T13:39:51Z</time>
      </trkpt>
      <trkpt lat="42.92011" lon="0.29531">
        <ele>1294.59186</ele>
        <time>2024-01-12T13:39:53Z</time>
      </trkpt>
      <trkpt lat="42.92013" lon="0.2953">
        <ele>1294.10268</ele>
        <time>2024-01-12T13:39:54Z</time>
      </trkpt>
      <trkpt lat="42.92014" lon="0.29531">
        <ele>1291.52585</ele>
        <time>2024-01-12T13:39:56Z</time>
      </trkpt>
      <trkpt lat="42.92016" lon="0.29529">
        <ele>1290.62538</ele>
        <time>2024-01-12T13:39:57Z</time>
      </trkpt>
      <trkpt lat="42.92018" lon="0.29528">
        <ele>1288.82705</ele>
        <time>2024-01-12T13:39:59Z</time>
      </trkpt>
      <trkpt lat="42.92019" lon="0.29527">
        <ele>1289.6018</ele>
        <time>2024-01-12T13:40:00Z</time>
      </trkpt>
      <trkpt lat="42.92021" lon="0.29527">
        <ele>1290.31792</ele>
        <time>2024-01-12T13:40:01Z</time>
      </trkpt>
      <trkpt lat="42.92022" lon="0.29526">
        <ele>1289.95163</ele>
        <time>2024-01-12T13:40:02Z</time>
      </trkpt>
      <trkpt lat="42.92023" lon="0.29526">
        <ele>1289.70625</ele>
        <time>2024-01-12T13:40:03Z</time>
      </trkpt>
      <trkpt lat="42.92024" lon="0.29525">
        <ele>1290.53195</ele>
        <time>2024-01-12T13:40:04Z</time>
      </trkpt>
      <trkpt lat="42.92025" lon="0.29524">
        <ele>1289.32704</ele>
        <time>2024-01-12T13:40:06Z</time>
      </trkpt>
      <trkpt lat="42.92026" lon="0.29525">
        <ele>1287.41383</ele>
        <time>2024-01-12T13:40:08Z</time>
      </trkpt>
      <trkpt lat="42.92027" lon="0.29524">
        <ele>1288.68371</ele>
        <time>2024-01-12T13:40:10Z</time>
      </trkpt>
      <trkpt lat="42.92028" lon="0.29524">
        <ele>1286.21127</ele>
        <time>2024-01-12T13:40:14Z</time>
      </trkpt>
      <trkpt lat="42.9203" lon="0.29522">
        <ele>1286.71113</ele>
        <time>2024-01-12T13:40:17Z</time>
      </trkpt>
      <trkpt lat="42.92031" lon="0.2952">
        <ele>1286.62457</ele>
        <time>2024-01-12T13:40:19Z</time>
      </trkpt>
      <trkpt lat="42.92032" lon="0.29521">
        <ele>1284.78577</ele>
        <time>2024-01-12T13:40:20Z</time>
      </trkpt>
      <trkpt lat="42.92033" lon="0.2952">
        <ele>1286.86548</ele>
        <time>2024-01-12T13:40:21Z</time>
      </trkpt>
      <trkpt lat="42.92035" lon="0.2952">
        <ele>1286.515</ele>
        <time>2024-01-12T13:40:22Z</time>
      </trkpt>
      <trkpt lat="42.92036" lon="0.29519">
        <ele>1284.15279</ele>
        <time>2024-01-12T13:40:25Z</time>
      </trkpt>
      <trkpt lat="42.92037" lon="0.29519">
        <ele>1285.00743</ele>
        <time>2024-01-12T13:40:26Z</time>
      </trkpt>
      <trkpt lat="42.92039" lon="0.29518">
        <ele>1286.70299</ele>
        <time>2024-01-12T13:40:27Z</time>
      </trkpt>
      <trkpt lat="42.9204" lon="0.29518">
        <ele>1283.91949</ele>
        <time>2024-01-12T13:40:29Z</time>
      </trkpt>
      <trkpt lat="42.92041" lon="0.29517">
        <ele>1284.50797</ele>
        <time>2024-01-12T13:40:30Z</time>
      </trkpt>
      <trkpt lat="42.92043" lon="0.29517">
        <ele>1284.99381</ele>
        <time>2024-01-12T13:40:31Z</time>
      </trkpt>
      <trkpt lat="42.92045" lon="0.29517">
        <ele>1284.95447</ele>
        <time>2024-01-12T13:40:32Z</time>
      </trkpt>
      <trkpt lat="42.92046" lon="0.29516">
        <ele>1286.07807</ele>
        <time>2024-01-12T13:40:33Z</time>
      </trkpt>
      <trkpt lat="42.92048" lon="0.29516">
        <ele>1284.76493</ele>
        <time>2024-01-12T13:40:34Z</time>
      </trkpt>
      <trkpt lat="42.9205" lon="0.29516">
        <ele>1286.49394</ele>
        <time>2024-01-12T13:40:35Z</time>
      </trkpt>
      <trkpt lat="42.92051" lon="0.29516">
        <ele>1286.9719</ele>
        <time>2024-01-12T13:40:36Z</time>
      </trkpt>
      <trkpt lat="42.92052" lon="0.29515">
        <ele>1287.67173</ele>
        <time>2024-01-12T13:40:37Z</time>
      </trkpt>
      <trkpt lat="42.92053" lon="0.29514">
        <ele>1285.32949</ele>
        <time>2024-01-12T13:40:40Z</time>
      </trkpt>
      <trkpt lat="42.92056" lon="0.29512">
        <ele>1294.86437</ele>
        <time>2024-01-12T13:40:41Z</time>
      </trkpt>
      <trkpt lat="42.92053" lon="0.29512">
        <ele>1295.59556</ele>
        <time>2024-01-12T13:40:42Z</time>
      </trkpt>
      <trkpt lat="42.92051" lon="0.2951">
        <ele>1300.3535</ele>
        <time>2024-01-12T13:40:43Z</time>
      </trkpt>
      <trkpt lat="42.92054" lon="0.29511">
        <ele>1296.30502</ele>
        <time>2024-01-12T13:40:44Z</time>
      </trkpt>
      <trkpt lat="42.92055" lon="0.29509">
        <ele>1297.93239</ele>
        <time>2024-01-12T13:40:46Z</time>
      </trkpt>
      <trkpt lat="42.92056" lon="0.29507">
        <ele>1297.76992</ele>
        <time>2024-01-12T13:40:47Z</time>
      </trkpt>
      <trkpt lat="42.92057" lon="0.29506">
        <ele>1292.43411</ele>
        <time>2024-01-12T13:40:50Z</time>
      </trkpt>
      <trkpt lat="42.92058" lon="0.29506">
        <ele>1291.10133</ele>
        <time>2024-01-12T13:40:51Z</time>
      </trkpt>
      <trkpt lat="42.92058" lon="0.29507">
        <ele>1284.55426</ele>
        <time>2024-01-12T13:40:52Z</time>
      </trkpt>
      <trkpt lat="42.92059" lon="0.29508">
        <ele>1282.62518</ele>
        <time>2024-01-12T13:40:53Z</time>
      </trkpt>
      <trkpt lat="42.92062" lon="0.29508">
        <ele>1282.9366</ele>
        <time>2024-01-12T13:40:54Z</time>
      </trkpt>
      <trkpt lat="42.92064" lon="0.29508">
        <ele>1283.03244</ele>
        <time>2024-01-12T13:40:56Z</time>
      </trkpt>
      <trkpt lat="42.92065" lon="0.29507">
        <ele>1282.60686</ele>
        <time>2024-01-12T13:40:57Z</time>
      </trkpt>
      <trkpt lat="42.92067" lon="0.29507">
        <ele>1283.88115</ele>
        <time>2024-01-12T13:40:58Z</time>
      </trkpt>
      <trkpt lat="42.92069" lon="0.29506">
        <ele>1283.88311</ele>
        <time>2024-01-12T13:41:00Z</time>
      </trkpt>
      <trkpt lat="42.92071" lon="0.29505">
        <ele>1283.0804</ele>
        <time>2024-01-12T13:41:02Z</time>
      </trkpt>
      <trkpt lat="42.92072" lon="0.29505">
        <ele>1283.13783</ele>
        <time>2024-01-12T13:41:03Z</time>
      </trkpt>
      <trkpt lat="42.92074" lon="0.29504">
        <ele>1283.40211</ele>
        <time>2024-01-12T13:41:04Z</time>
      </trkpt>
      <trkpt lat="42.92075" lon="0.29504">
        <ele>1282.40199</ele>
        <time>2024-01-12T13:41:07Z</time>
      </trkpt>
      <trkpt lat="42.92077" lon="0.29504">
        <ele>1282.34022</ele>
        <time>2024-01-12T13:41:09Z</time>
      </trkpt>
      <trkpt lat="42.92078" lon="0.29503">
        <ele>1281.8694</ele>
        <time>2024-01-12T13:41:12Z</time>
      </trkpt>
      <trkpt lat="42.92079" lon="0.29504">
        <ele>1281.96482</ele>
        <time>2024-01-12T13:41:13Z</time>
      </trkpt>
      <trkpt lat="42.9208" lon="0.29504">
        <ele>1280.98387</ele>
        <time>2024-01-12T13:41:14Z</time>
      </trkpt>
      <trkpt lat="42.92082" lon="0.29504">
        <ele>1282.39054</ele>
        <time>2024-01-12T13:41:15Z</time>
      </trkpt>
      <trkpt lat="42.92083" lon="0.29504">
        <ele>1281.88307</ele>
        <time>2024-01-12T13:41:16Z</time>
      </trkpt>
      <trkpt lat="42.92085" lon="0.29503">
        <ele>1283.19367</ele>
        <time>2024-01-12T13:41:18Z</time>
      </trkpt>
      <trkpt lat="42.92087" lon="0.29503">
        <ele>1284.23043</ele>
        <time>2024-01-12T13:41:20Z</time>
      </trkpt>
      <trkpt lat="42.92089" lon="0.29503">
        <ele>1284.72326</ele>
        <time>2024-01-12T13:41:21Z</time>
      </trkpt>
      <trkpt lat="42.9209" lon="0.29503">
        <ele>1285.09327</ele>
        <time>2024-01-12T13:41:22Z</time>
      </trkpt>
      <trkpt lat="42.92092" lon="0.29504">
        <ele>1283.01681</ele>
        <time>2024-01-12T13:41:23Z</time>
      </trkpt>
      <trkpt lat="42.92093" lon="0.29504">
        <ele>1282.73136</ele>
        <time>2024-01-12T13:41:24Z</time>
      </trkpt>
      <trkpt lat="42.92094" lon="0.29504">
        <ele>1282.35231</ele>
        <time>2024-01-12T13:41:25Z</time>
      </trkpt>
      <trkpt lat="42.92095" lon="0.29504">
        <ele>1283.11869</ele>
        <time>2024-01-12T13:41:26Z</time>
      </trkpt>
      <trkpt lat="42.92097" lon="0.29504">
        <ele>1281.86547</ele>
        <time>2024-01-12T13:41:28Z</time>
      </trkpt>
      <trkpt lat="42.92098" lon="0.29503">
        <ele>1280.88199</ele>
        <time>2024-01-12T13:41:29Z</time>
      </trkpt>
      <trkpt lat="42.92099" lon="0.29502">
        <ele>1282.12377</ele>
        <time>2024-01-12T13:41:30Z</time>
      </trkpt>
      <trkpt lat="42.92101" lon="0.29501">
        <ele>1281.51407</ele>
        <time>2024-01-12T13:41:32Z</time>
      </trkpt>
      <trkpt lat="42.92102" lon="0.29501">
        <ele>1281.91769</ele>
        <time>2024-01-12T13:41:34Z</time>
      </trkpt>
      <trkpt lat="42.92104" lon="0.295">
        <ele>1282.96152</ele>
        <time>2024-01-12T13:41:35Z</time>
      </trkpt>
      <trkpt lat="42.92105" lon="0.295">
        <ele>1282.47936</ele>
        <time>2024-01-12T13:41:36Z</time>
      </trkpt>
      <trkpt lat="42.92106" lon="0.29499">
        <ele>1280.6971</ele>
        <time>2024-01-12T13:41:38Z</time>
      </trkpt>
      <trkpt lat="42.92108" lon="0.29499">
        <ele>1282.14649</ele>
        <time>2024-01-12T13:41:40Z</time>
      </trkpt>
      <trkpt lat="42.92109" lon="0.29498">
        <ele>1282.37656</ele>
        <time>2024-01-12T13:41:41Z</time>
      </trkpt>
      <trkpt lat="42.9211" lon="0.29499">
        <ele>1281.63491</ele>
        <time>2024-01-12T13:41:43Z</time>
      </trkpt>
      <trkpt lat="42.92112" lon="0.295">
        <ele>1280.63297</ele>
        <time>2024-01-12T13:41:45Z</time>
      </trkpt>
      <trkpt lat="42.92113" lon="0.29499">
        <ele>1281.47119</ele>
        <time>2024-01-12T13:41:46Z</time>
      </trkpt>
      <trkpt lat="42.92114" lon="0.29499">
        <ele>1281.87002</ele>
        <time>2024-01-12T13:41:48Z</time>
      </trkpt>
      <trkpt lat="42.92116" lon="0.295">
        <ele>1280.42694</ele>
        <time>2024-01-12T13:41:49Z</time>
      </trkpt>
      <trkpt lat="42.92118" lon="0.29501">
        <ele>1281.51048</ele>
        <time>2024-01-12T13:41:50Z</time>
      </trkpt>
      <trkpt lat="42.9212" lon="0.29501">
        <ele>1281.76695</ele>
        <time>2024-01-12T13:41:52Z</time>
      </trkpt>
      <trkpt lat="42.92122" lon="0.295">
        <ele>1280.97186</ele>
        <time>2024-01-12T13:41:53Z</time>
      </trkpt>
      <trkpt lat="42.92124" lon="0.29499">
        <ele>1282.20406</ele>
        <time>2024-01-12T13:41:54Z</time>
      </trkpt>
      <trkpt lat="42.92126" lon="0.29498">
        <ele>1282.26667</ele>
        <time>2024-01-12T13:41:56Z</time>
      </trkpt>
      <trkpt lat="42.92128" lon="0.29499">
        <ele>1279.19055</ele>
        <time>2024-01-12T13:41:57Z</time>
      </trkpt>
      <trkpt lat="42.92129" lon="0.29498">
        <ele>1278.42869</ele>
        <time>2024-01-12T13:41:58Z</time>
      </trkpt>
      <trkpt lat="42.92131" lon="0.29497">
        <ele>1278.21211</ele>
        <time>2024-01-12T13:41:59Z</time>
      </trkpt>
      <trkpt lat="42.92132" lon="0.29497">
        <ele>1278.38166</ele>
        <time>2024-01-12T13:42:00Z</time>
      </trkpt>
      <trkpt lat="42.92134" lon="0.29495">
        <ele>1278.56268</ele>
        <time>2024-01-12T13:42:01Z</time>
      </trkpt>
      <trkpt lat="42.92135" lon="0.29494">
        <ele>1279.41214</ele>
        <time>2024-01-12T13:42:02Z</time>
      </trkpt>
      <trkpt lat="42.92136" lon="0.29493">
        <ele>1278.93997</ele>
        <time>2024-01-12T13:42:03Z</time>
      </trkpt>
      <trkpt lat="42.92137" lon="0.29491">
        <ele>1278.84003</ele>
        <time>2024-01-12T13:42:04Z</time>
      </trkpt>
      <trkpt lat="42.92138" lon="0.29491">
        <ele>1278.79478</ele>
        <time>2024-01-12T13:42:05Z</time>
      </trkpt>
      <trkpt lat="42.92138" lon="0.29489">
        <ele>1278.63121</ele>
        <time>2024-01-12T13:42:06Z</time>
      </trkpt>
      <trkpt lat="42.9214" lon="0.29487">
        <ele>1276.92959</ele>
        <time>2024-01-12T13:42:08Z</time>
      </trkpt>
      <trkpt lat="42.92141" lon="0.29485">
        <ele>1277.57325</ele>
        <time>2024-01-12T13:42:09Z</time>
      </trkpt>
      <trkpt lat="42.92142" lon="0.29484">
        <ele>1276.85719</ele>
        <time>2024-01-12T13:42:10Z</time>
      </trkpt>
      <trkpt lat="42.92144" lon="0.29483">
        <ele>1275.52736</ele>
        <time>2024-01-12T13:42:12Z</time>
      </trkpt>
      <trkpt lat="42.92145" lon="0.29481">
        <ele>1274.94704</ele>
        <time>2024-01-12T13:42:14Z</time>
      </trkpt>
      <trkpt lat="42.92147" lon="0.2948">
        <ele>1274.399</ele>
        <time>2024-01-12T13:42:16Z</time>
      </trkpt>
      <trkpt lat="42.92147" lon="0.29479">
        <ele>1271.47847</ele>
        <time>2024-01-12T13:42:18Z</time>
      </trkpt>
      <trkpt lat="42.92148" lon="0.29478">
        <ele>1273.02272</ele>
        <time>2024-01-12T13:42:19Z</time>
      </trkpt>
      <trkpt lat="42.92148" lon="0.29476">
        <ele>1272.96156</ele>
        <time>2024-01-12T13:42:20Z</time>
      </trkpt>
      <trkpt lat="42.92148" lon="0.29474">
        <ele>1273.75863</ele>
        <time>2024-01-12T13:42:21Z</time>
      </trkpt>
      <trkpt lat="42.9215" lon="0.29471">
        <ele>1273.38649</ele>
        <time>2024-01-12T13:42:23Z</time>
      </trkpt>
      <trkpt lat="42.9215" lon="0.2947">
        <ele>1273.7049</ele>
        <time>2024-01-12T13:42:24Z</time>
      </trkpt>
      <trkpt lat="42.92152" lon="0.29468">
        <ele>1272.88168</ele>
        <time>2024-01-12T13:42:26Z</time>
      </trkpt>
      <trkpt lat="42.92153" lon="0.29466">
        <ele>1272.41654</ele>
        <time>2024-01-12T13:42:28Z</time>
      </trkpt>
      <trkpt lat="42.92153" lon="0.29465">
        <ele>1271.73035</ele>
        <time>2024-01-12T13:42:31Z</time>
      </trkpt>
      <trkpt lat="42.92154" lon="0.29463">
        <ele>1272.30722</ele>
        <time>2024-01-12T13:42:32Z</time>
      </trkpt>
      <trkpt lat="42.92154" lon="0.29461">
        <ele>1272.72909</ele>
        <time>2024-01-12T13:42:34Z</time>
      </trkpt>
      <trkpt lat="42.92156" lon="0.29458">
        <ele>1270.82593</ele>
        <time>2024-01-12T13:42:37Z</time>
      </trkpt>
      <trkpt lat="42.92158" lon="0.29457">
        <ele>1270.25468</ele>
        <time>2024-01-12T13:42:38Z</time>
      </trkpt>
      <trkpt lat="42.92159" lon="0.29455">
        <ele>1270.50487</ele>
        <time>2024-01-12T13:42:39Z</time>
      </trkpt>
      <trkpt lat="42.9216" lon="0.29454">
        <ele>1270.46649</ele>
        <time>2024-01-12T13:42:40Z</time>
      </trkpt>
      <trkpt lat="42.92161" lon="0.29453">
        <ele>1270.21364</ele>
        <time>2024-01-12T13:42:41Z</time>
      </trkpt>
      <trkpt lat="42.92162" lon="0.29453">
        <ele>1269.3773</ele>
        <time>2024-01-12T13:42:42Z</time>
      </trkpt>
      <trkpt lat="42.92164" lon="0.29452">
        <ele>1267.94617</ele>
        <time>2024-01-12T13:42:44Z</time>
      </trkpt>
      <trkpt lat="42.92165" lon="0.2945">
        <ele>1268.03049</ele>
        <time>2024-01-12T13:42:46Z</time>
      </trkpt>
      <trkpt lat="42.92165" lon="0.29449">
        <ele>1268.45398</ele>
        <time>2024-01-12T13:42:48Z</time>
      </trkpt>
      <trkpt lat="42.92166" lon="0.29448">
        <ele>1267.94786</ele>
        <time>2024-01-12T13:42:50Z</time>
      </trkpt>
      <trkpt lat="42.92167" lon="0.29446">
        <ele>1266.20412</ele>
        <time>2024-01-12T13:42:52Z</time>
      </trkpt>
      <trkpt lat="42.92168" lon="0.29445">
        <ele>1266.61145</ele>
        <time>2024-01-12T13:42:53Z</time>
      </trkpt>
      <trkpt lat="42.92169" lon="0.29443">
        <ele>1266.88804</ele>
        <time>2024-01-12T13:42:54Z</time>
      </trkpt>
      <trkpt lat="42.9217" lon="0.29443">
        <ele>1265.5103</ele>
        <time>2024-01-12T13:42:55Z</time>
      </trkpt>
      <trkpt lat="42.92171" lon="0.2944">
        <ele>1266.86641</ele>
        <time>2024-01-12T13:42:56Z</time>
      </trkpt>
      <trkpt lat="42.92173" lon="0.29439">
        <ele>1268.14792</ele>
        <time>2024-01-12T13:42:57Z</time>
      </trkpt>
      <trkpt lat="42.92174" lon="0.29438">
        <ele>1267.6119</ele>
        <time>2024-01-12T13:42:58Z</time>
      </trkpt>
      <trkpt lat="42.92176" lon="0.29438">
        <ele>1265.46114</ele>
        <time>2024-01-12T13:43:00Z</time>
      </trkpt>
      <trkpt lat="42.92177" lon="0.29437">
        <ele>1266.19009</ele>
        <time>2024-01-12T13:43:01Z</time>
      </trkpt>
      <trkpt lat="42.92179" lon="0.29436">
        <ele>1266.11209</ele>
        <time>2024-01-12T13:43:03Z</time>
      </trkpt>
      <trkpt lat="42.92181" lon="0.29435">
        <ele>1265.86199</ele>
        <time>2024-01-12T13:43:04Z</time>
      </trkpt>
      <trkpt lat="42.92183" lon="0.29433">
        <ele>1265.79012</ele>
        <time>2024-01-12T13:43:05Z</time>
      </trkpt>
      <trkpt lat="42.92184" lon="0.29433">
        <ele>1265.23101</ele>
        <time>2024-01-12T13:43:06Z</time>
      </trkpt>
      <trkpt lat="42.92186" lon="0.29432">
        <ele>1264.56658</ele>
        <time>2024-01-12T13:43:08Z</time>
      </trkpt>
      <trkpt lat="42.92187" lon="0.29431">
        <ele>1264.69977</ele>
        <time>2024-01-12T13:43:09Z</time>
      </trkpt>
      <trkpt lat="42.92189" lon="0.2943">
        <ele>1264.33766</ele>
        <time>2024-01-12T13:43:10Z</time>
      </trkpt>
      <trkpt lat="42.92191" lon="0.29429">
        <ele>1263.0944</ele>
        <time>2024-01-12T13:43:12Z</time>
      </trkpt>
      <trkpt lat="42.92193" lon="0.29428">
        <ele>1263.39257</ele>
        <time>2024-01-12T13:43:13Z</time>
      </trkpt>
      <trkpt lat="42.92194" lon="0.29426">
        <ele>1263.50387</ele>
        <time>2024-01-12T13:43:14Z</time>
      </trkpt>
      <trkpt lat="42.92195" lon="0.29426">
        <ele>1261.11552</ele>
        <time>2024-01-12T13:43:15Z</time>
      </trkpt>
      <trkpt lat="42.92196" lon="0.29425">
        <ele>1262.16635</ele>
        <time>2024-01-12T13:43:17Z</time>
      </trkpt>
      <trkpt lat="42.92197" lon="0.29424">
        <ele>1262.82835</ele>
        <time>2024-01-12T13:43:19Z</time>
      </trkpt>
      <trkpt lat="42.92198" lon="0.29424">
        <ele>1261.79135</ele>
        <time>2024-01-12T13:43:21Z</time>
      </trkpt>
      <trkpt lat="42.92198" lon="0.29423">
        <ele>1262.77732</ele>
        <time>2024-01-12T13:43:22Z</time>
      </trkpt>
      <trkpt lat="42.92199" lon="0.29423">
        <ele>1260.72677</ele>
        <time>2024-01-12T13:43:23Z</time>
      </trkpt>
      <trkpt lat="42.922" lon="0.29422">
        <ele>1260.3625</ele>
        <time>2024-01-12T13:43:25Z</time>
      </trkpt>
      <trkpt lat="42.92202" lon="0.29422">
        <ele>1260.27916</ele>
        <time>2024-01-12T13:43:28Z</time>
      </trkpt>
      <trkpt lat="42.922" lon="0.29423">
        <ele>1256.21749</ele>
        <time>2024-01-12T13:43:33Z</time>
      </trkpt>
      <trkpt lat="42.92201" lon="0.29422">
        <ele>1258.9199</ele>
        <time>2024-01-12T13:43:38Z</time>
      </trkpt>
      <trkpt lat="42.92202" lon="0.29421">
        <ele>1260.48937</ele>
        <time>2024-01-12T13:43:39Z</time>
      </trkpt>
      <trkpt lat="42.92203" lon="0.2942">
        <ele>1258.3551</ele>
        <time>2024-01-12T13:43:41Z</time>
      </trkpt>
      <trkpt lat="42.92206" lon="0.29418">
        <ele>1259.54229</ele>
        <time>2024-01-12T13:43:42Z</time>
      </trkpt>
      <trkpt lat="42.92207" lon="0.29417">
        <ele>1259.49703</ele>
        <time>2024-01-12T13:43:43Z</time>
      </trkpt>
      <trkpt lat="42.9221" lon="0.29416">
        <ele>1259.53712</ele>
        <time>2024-01-12T13:43:45Z</time>
      </trkpt>
      <trkpt lat="42.92212" lon="0.29416">
        <ele>1257.40099</ele>
        <time>2024-01-12T13:43:46Z</time>
      </trkpt>
      <trkpt lat="42.92212" lon="0.29414">
        <ele>1256.37098</ele>
        <time>2024-01-12T13:43:47Z</time>
      </trkpt>
      <trkpt lat="42.92214" lon="0.29413">
        <ele>1257.29983</ele>
        <time>2024-01-12T13:43:48Z</time>
      </trkpt>
      <trkpt lat="42.92215" lon="0.29412">
        <ele>1258.38539</ele>
        <time>2024-01-12T13:43:49Z</time>
      </trkpt>
      <trkpt lat="42.92216" lon="0.29411">
        <ele>1258.61671</ele>
        <time>2024-01-12T13:43:50Z</time>
      </trkpt>
      <trkpt lat="42.92217" lon="0.29409">
        <ele>1261.44094</ele>
        <time>2024-01-12T13:43:51Z</time>
      </trkpt>
      <trkpt lat="42.92218" lon="0.2941">
        <ele>1257.68529</ele>
        <time>2024-01-12T13:43:52Z</time>
      </trkpt>
      <trkpt lat="42.9222" lon="0.29408">
        <ele>1258.35561</ele>
        <time>2024-01-12T13:43:54Z</time>
      </trkpt>
      <trkpt lat="42.92221" lon="0.29408">
        <ele>1257.55419</ele>
        <time>2024-01-12T13:43:56Z</time>
      </trkpt>
      <trkpt lat="42.92222" lon="0.29407">
        <ele>1257.92462</ele>
        <time>2024-01-12T13:43:57Z</time>
      </trkpt>
      <trkpt lat="42.92223" lon="0.29406">
        <ele>1258.34365</ele>
        <time>2024-01-12T13:43:58Z</time>
      </trkpt>
      <trkpt lat="42.92224" lon="0.29406">
        <ele>1257.96415</ele>
        <time>2024-01-12T13:43:59Z</time>
      </trkpt>
      <trkpt lat="42.92225" lon="0.29406">
        <ele>1256.64792</ele>
        <time>2024-01-12T13:44:01Z</time>
      </trkpt>
      <trkpt lat="42.92225" lon="0.29405">
        <ele>1257.01721</ele>
        <time>2024-01-12T13:44:02Z</time>
      </trkpt>
      <trkpt lat="42.92227" lon="0.29403">
        <ele>1256.09234</ele>
        <time>2024-01-12T13:44:04Z</time>
      </trkpt>
      <trkpt lat="42.92228" lon="0.29401">
        <ele>1257.49844</ele>
        <time>2024-01-12T13:44:05Z</time>
      </trkpt>
      <trkpt lat="42.92229" lon="0.29402">
        <ele>1254.91328</ele>
        <time>2024-01-12T13:44:06Z</time>
      </trkpt>
      <trkpt lat="42.9223" lon="0.29402">
        <ele>1255.53819</ele>
        <time>2024-01-12T13:44:07Z</time>
      </trkpt>
      <trkpt lat="42.92231" lon="0.29401">
        <ele>1256.10805</ele>
        <time>2024-01-12T13:44:08Z</time>
      </trkpt>
      <trkpt lat="42.92233" lon="0.294">
        <ele>1256.91891</ele>
        <time>2024-01-12T13:44:09Z</time>
      </trkpt>
      <trkpt lat="42.92234" lon="0.29399">
        <ele>1254.77494</ele>
        <time>2024-01-12T13:44:10Z</time>
      </trkpt>
      <trkpt lat="42.92237" lon="0.29397">
        <ele>1254.71205</ele>
        <time>2024-01-12T13:44:11Z</time>
      </trkpt>
      <trkpt lat="42.92238" lon="0.29396">
        <ele>1254.75159</ele>
        <time>2024-01-12T13:44:12Z</time>
      </trkpt>
      <trkpt lat="42.9224" lon="0.29395">
        <ele>1254.0507</ele>
        <time>2024-01-12T13:44:13Z</time>
      </trkpt>
      <trkpt lat="42.92242" lon="0.29393">
        <ele>1253.7846</ele>
        <time>2024-01-12T13:44:14Z</time>
      </trkpt>
      <trkpt lat="42.92243" lon="0.29393">
        <ele>1253.40228</ele>
        <time>2024-01-12T13:44:15Z</time>
      </trkpt>
      <trkpt lat="42.92244" lon="0.29393">
        <ele>1252.85186</ele>
        <time>2024-01-12T13:44:17Z</time>
      </trkpt>
      <trkpt lat="42.92245" lon="0.29392">
        <ele>1254.06099</ele>
        <time>2024-01-12T13:44:18Z</time>
      </trkpt>
      <trkpt lat="42.92247" lon="0.29391">
        <ele>1253.42337</ele>
        <time>2024-01-12T13:44:19Z</time>
      </trkpt>
      <trkpt lat="42.92249" lon="0.2939">
        <ele>1254.80939</ele>
        <time>2024-01-12T13:44:20Z</time>
      </trkpt>
      <trkpt lat="42.9225" lon="0.29388">
        <ele>1254.69211</ele>
        <time>2024-01-12T13:44:21Z</time>
      </trkpt>
      <trkpt lat="42.92251" lon="0.29387">
        <ele>1254.83504</ele>
        <time>2024-01-12T13:44:22Z</time>
      </trkpt>
      <trkpt lat="42.92252" lon="0.29387">
        <ele>1252.5987</ele>
        <time>2024-01-12T13:44:23Z</time>
      </trkpt>
      <trkpt lat="42.92254" lon="0.29386">
        <ele>1252.67445</ele>
        <time>2024-01-12T13:44:24Z</time>
      </trkpt>
      <trkpt lat="42.92255" lon="0.29386">
        <ele>1252.87671</ele>
        <time>2024-01-12T13:44:25Z</time>
      </trkpt>
      <trkpt lat="42.92256" lon="0.29385">
        <ele>1249.70803</ele>
        <time>2024-01-12T13:44:27Z</time>
      </trkpt>
      <trkpt lat="42.92257" lon="0.29384">
        <ele>1250.32981</ele>
        <time>2024-01-12T13:44:28Z</time>
      </trkpt>
      <trkpt lat="42.92258" lon="0.29384">
        <ele>1250.02769</ele>
        <time>2024-01-12T13:44:29Z</time>
      </trkpt>
      <trkpt lat="42.92259" lon="0.29383">
        <ele>1248.99142</ele>
        <time>2024-01-12T13:44:30Z</time>
      </trkpt>
      <trkpt lat="42.9226" lon="0.29382">
        <ele>1248.82945</ele>
        <time>2024-01-12T13:44:31Z</time>
      </trkpt>
      <trkpt lat="42.92262" lon="0.29381">
        <ele>1249.75031</ele>
        <time>2024-01-12T13:44:33Z</time>
      </trkpt>
      <trkpt lat="42.92263" lon="0.2938">
        <ele>1248.03757</ele>
        <time>2024-01-12T13:44:35Z</time>
      </trkpt>
      <trkpt lat="42.92264" lon="0.29379">
        <ele>1248.16142</ele>
        <time>2024-01-12T13:44:37Z</time>
      </trkpt>
      <trkpt lat="42.92265" lon="0.29378">
        <ele>1247.4641</ele>
        <time>2024-01-12T13:44:40Z</time>
      </trkpt>
      <trkpt lat="42.92266" lon="0.29376">
        <ele>1247.51244</ele>
        <time>2024-01-12T13:44:41Z</time>
      </trkpt>
      <trkpt lat="42.92267" lon="0.29376">
        <ele>1247.46577</ele>
        <time>2024-01-12T13:44:42Z</time>
      </trkpt>
      <trkpt lat="42.92269" lon="0.29374">
        <ele>1244.79753</ele>
        <time>2024-01-12T13:44:44Z</time>
      </trkpt>
      <trkpt lat="42.9227" lon="0.29373">
        <ele>1245.7526</ele>
        <time>2024-01-12T13:44:45Z</time>
      </trkpt>
      <trkpt lat="42.92271" lon="0.29373">
        <ele>1245.99856</ele>
        <time>2024-01-12T13:44:46Z</time>
      </trkpt>
      <trkpt lat="42.92273" lon="0.29372">
        <ele>1246.75739</ele>
        <time>2024-01-12T13:44:47Z</time>
      </trkpt>
      <trkpt lat="42.92274" lon="0.2937">
        <ele>1245.98324</ele>
        <time>2024-01-12T13:44:48Z</time>
      </trkpt>
      <trkpt lat="42.92276" lon="0.29371">
        <ele>1245.07003</ele>
        <time>2024-01-12T13:44:50Z</time>
      </trkpt>
      <trkpt lat="42.92278" lon="0.29372">
        <ele>1245.52833</ele>
        <time>2024-01-12T13:44:51Z</time>
      </trkpt>
      <trkpt lat="42.92279" lon="0.29372">
        <ele>1243.63147</ele>
        <time>2024-01-12T13:44:52Z</time>
      </trkpt>
      <trkpt lat="42.9228" lon="0.29371">
        <ele>1243.5994</ele>
        <time>2024-01-12T13:44:53Z</time>
      </trkpt>
      <trkpt lat="42.92281" lon="0.2937">
        <ele>1245.40711</ele>
        <time>2024-01-12T13:44:54Z</time>
      </trkpt>
      <trkpt lat="42.92283" lon="0.2937">
        <ele>1244.97158</ele>
        <time>2024-01-12T13:44:56Z</time>
      </trkpt>
      <trkpt lat="42.92284" lon="0.29369">
        <ele>1245.55644</ele>
        <time>2024-01-12T13:44:57Z</time>
      </trkpt>
      <trkpt lat="42.92286" lon="0.29367">
        <ele>1247.0908</ele>
        <time>2024-01-12T13:44:59Z</time>
      </trkpt>
      <trkpt lat="42.92287" lon="0.29367">
        <ele>1244.42632</ele>
        <time>2024-01-12T13:45:00Z</time>
      </trkpt>
      <trkpt lat="42.92288" lon="0.29367">
        <ele>1241.65469</ele>
        <time>2024-01-12T13:45:01Z</time>
      </trkpt>
      <trkpt lat="42.92289" lon="0.29367">
        <ele>1241.00939</ele>
        <time>2024-01-12T13:45:02Z</time>
      </trkpt>
      <trkpt lat="42.92291" lon="0.29365">
        <ele>1241.45745</ele>
        <time>2024-01-12T13:45:03Z</time>
      </trkpt>
      <trkpt lat="42.92292" lon="0.29365">
        <ele>1240.87646</ele>
        <time>2024-01-12T13:45:04Z</time>
      </trkpt>
      <trkpt lat="42.92293" lon="0.29364">
        <ele>1240.54478</ele>
        <time>2024-01-12T13:45:05Z</time>
      </trkpt>
      <trkpt lat="42.92294" lon="0.29364">
        <ele>1238.36736</ele>
        <time>2024-01-12T13:45:06Z</time>
      </trkpt>
      <trkpt lat="42.92295" lon="0.29363">
        <ele>1240.67107</ele>
        <time>2024-01-12T13:45:07Z</time>
      </trkpt>
      <trkpt lat="42.92297" lon="0.29361">
        <ele>1240.09744</ele>
        <time>2024-01-12T13:45:08Z</time>
      </trkpt>
      <trkpt lat="42.92298" lon="0.2936">
        <ele>1240.44496</ele>
        <time>2024-01-12T13:45:09Z</time>
      </trkpt>
      <trkpt lat="42.923" lon="0.29361">
        <ele>1237.95541</ele>
        <time>2024-01-12T13:45:11Z</time>
      </trkpt>
      <trkpt lat="42.92301" lon="0.29359">
        <ele>1238.5659</ele>
        <time>2024-01-12T13:45:12Z</time>
      </trkpt>
      <trkpt lat="42.92301" lon="0.29358">
        <ele>1237.96443</ele>
        <time>2024-01-12T13:45:13Z</time>
      </trkpt>
      <trkpt lat="42.92302" lon="0.29357">
        <ele>1240.03377</ele>
        <time>2024-01-12T13:45:14Z</time>
      </trkpt>
      <trkpt lat="42.92303" lon="0.29359">
        <ele>1236.2171</ele>
        <time>2024-01-12T13:45:15Z</time>
      </trkpt>
      <trkpt lat="42.92304" lon="0.29358">
        <ele>1237.38455</ele>
        <time>2024-01-12T13:45:16Z</time>
      </trkpt>
      <trkpt lat="42.92305" lon="0.29357">
        <ele>1236.70924</ele>
        <time>2024-01-12T13:45:17Z</time>
      </trkpt>
      <trkpt lat="42.92305" lon="0.29356">
        <ele>1238.81116</ele>
        <time>2024-01-12T13:45:18Z</time>
      </trkpt>
      <trkpt lat="42.92307" lon="0.29355">
        <ele>1236.284</ele>
        <time>2024-01-12T13:45:20Z</time>
      </trkpt>
      <trkpt lat="42.92308" lon="0.29353">
        <ele>1235.78604</ele>
        <time>2024-01-12T13:45:21Z</time>
      </trkpt>
      <trkpt lat="42.92309" lon="0.29352">
        <ele>1237.21671</ele>
        <time>2024-01-12T13:45:22Z</time>
      </trkpt>
      <trkpt lat="42.9231" lon="0.29351">
        <ele>1238.27298</ele>
        <time>2024-01-12T13:45:23Z</time>
      </trkpt>
      <trkpt lat="42.92312" lon="0.2935">
        <ele>1238.70585</ele>
        <time>2024-01-12T13:45:25Z</time>
      </trkpt>
      <trkpt lat="42.92313" lon="0.29348">
        <ele>1237.77892</ele>
        <time>2024-01-12T13:45:26Z</time>
      </trkpt>
      <trkpt lat="42.92314" lon="0.29347">
        <ele>1239.07866</ele>
        <time>2024-01-12T13:45:27Z</time>
      </trkpt>
      <trkpt lat="42.92315" lon="0.29346">
        <ele>1239.03778</ele>
        <time>2024-01-12T13:45:28Z</time>
      </trkpt>
      <trkpt lat="42.92316" lon="0.29344">
        <ele>1238.43483</ele>
        <time>2024-01-12T13:45:30Z</time>
      </trkpt>
      <trkpt lat="42.92317" lon="0.29343">
        <ele>1239.26893</ele>
        <time>2024-01-12T13:45:31Z</time>
      </trkpt>
      <trkpt lat="42.92318" lon="0.29342">
        <ele>1239.842</ele>
        <time>2024-01-12T13:45:32Z</time>
      </trkpt>
      <trkpt lat="42.9232" lon="0.29342">
        <ele>1238.56139</ele>
        <time>2024-01-12T13:45:33Z</time>
      </trkpt>
      <trkpt lat="42.92321" lon="0.29341">
        <ele>1237.85403</ele>
        <time>2024-01-12T13:45:34Z</time>
      </trkpt>
      <trkpt lat="42.92321" lon="0.29342">
        <ele>1234.64311</ele>
        <time>2024-01-12T13:45:35Z</time>
      </trkpt>
      <trkpt lat="42.92323" lon="0.29341">
        <ele>1233.46302</ele>
        <time>2024-01-12T13:45:36Z</time>
      </trkpt>
      <trkpt lat="42.92325" lon="0.2934">
        <ele>1233.29464</ele>
        <time>2024-01-12T13:45:38Z</time>
      </trkpt>
      <trkpt lat="42.92326" lon="0.29339">
        <ele>1231.70818</ele>
        <time>2024-01-12T13:45:39Z</time>
      </trkpt>
      <trkpt lat="42.92327" lon="0.29337">
        <ele>1231.85451</ele>
        <time>2024-01-12T13:45:40Z</time>
      </trkpt>
      <trkpt lat="42.92329" lon="0.29337">
        <ele>1232.36543</ele>
        <time>2024-01-12T13:45:41Z</time>
      </trkpt>
      <trkpt lat="42.92331" lon="0.29336">
        <ele>1231.95466</ele>
        <time>2024-01-12T13:45:42Z</time>
      </trkpt>
      <trkpt lat="42.92332" lon="0.29336">
        <ele>1230.8733</ele>
        <time>2024-01-12T13:45:43Z</time>
      </trkpt>
      <trkpt lat="42.92334" lon="0.29335">
        <ele>1231.81181</ele>
        <time>2024-01-12T13:45:45Z</time>
      </trkpt>
      <trkpt lat="42.92336" lon="0.29333">
        <ele>1232.28333</ele>
        <time>2024-01-12T13:45:46Z</time>
      </trkpt>
      <trkpt lat="42.92337" lon="0.29333">
        <ele>1231.1588</ele>
        <time>2024-01-12T13:45:47Z</time>
      </trkpt>
      <trkpt lat="42.92338" lon="0.29333">
        <ele>1229.52509</ele>
        <time>2024-01-12T13:45:48Z</time>
      </trkpt>
      <trkpt lat="42.9234" lon="0.29331">
        <ele>1233.65383</ele>
        <time>2024-01-12T13:45:49Z</time>
      </trkpt>
      <trkpt lat="42.92341" lon="0.29331">
        <ele>1233.38277</ele>
        <time>2024-01-12T13:45:50Z</time>
      </trkpt>
      <trkpt lat="42.92342" lon="0.29331">
        <ele>1231.80674</ele>
        <time>2024-01-12T13:45:51Z</time>
      </trkpt>
      <trkpt lat="42.92341" lon="0.2933">
        <ele>1230.06005</ele>
        <time>2024-01-12T13:45:53Z</time>
      </trkpt>
      <trkpt lat="42.92341" lon="0.29328">
        <ele>1229.92834</ele>
        <time>2024-01-12T13:45:54Z</time>
      </trkpt>
      <trkpt lat="42.92342" lon="0.29326">
        <ele>1228.80531</ele>
        <time>2024-01-12T13:45:55Z</time>
      </trkpt>
      <trkpt lat="42.92342" lon="0.29323">
        <ele>1227.92696</ele>
        <time>2024-01-12T13:45:56Z</time>
      </trkpt>
      <trkpt lat="42.92343" lon="0.29321">
        <ele>1228.69672</ele>
        <time>2024-01-12T13:45:58Z</time>
      </trkpt>
      <trkpt lat="42.92344" lon="0.29321">
        <ele>1230.05786</ele>
        <time>2024-01-12T13:46:00Z</time>
      </trkpt>
      <trkpt lat="42.92345" lon="0.2932">
        <ele>1231.47909</ele>
        <time>2024-01-12T13:46:02Z</time>
      </trkpt>
      <trkpt lat="42.92346" lon="0.29323">
        <ele>1228.35867</ele>
        <time>2024-01-12T13:46:04Z</time>
      </trkpt>
      <trkpt lat="42.92346" lon="0.29325">
        <ele>1225.64926</ele>
        <time>2024-01-12T13:46:05Z</time>
      </trkpt>
      <trkpt lat="42.92347" lon="0.29323">
        <ele>1235.17186</ele>
        <time>2024-01-12T13:46:08Z</time>
      </trkpt>
      <trkpt lat="42.92348" lon="0.29322">
        <ele>1234.2847</ele>
        <time>2024-01-12T13:46:10Z</time>
      </trkpt>
      <trkpt lat="42.9235" lon="0.29322">
        <ele>1235.13434</ele>
        <time>2024-01-12T13:46:12Z</time>
      </trkpt>
      <trkpt lat="42.92351" lon="0.2932">
        <ele>1237.89149</ele>
        <time>2024-01-12T13:46:14Z</time>
      </trkpt>
      <trkpt lat="42.92352" lon="0.2932">
        <ele>1238.54628</ele>
        <time>2024-01-12T13:46:15Z</time>
      </trkpt>
      <trkpt lat="42.92353" lon="0.29321">
        <ele>1232.22557</ele>
        <time>2024-01-12T13:46:18Z</time>
      </trkpt>
      <trkpt lat="42.92354" lon="0.29321">
        <ele>1230.54825</ele>
        <time>2024-01-12T13:46:20Z</time>
      </trkpt>
      <trkpt lat="42.92355" lon="0.29321">
        <ele>1232.89433</ele>
        <time>2024-01-12T13:46:22Z</time>
      </trkpt>
      <trkpt lat="42.92356" lon="0.29321">
        <ele>1233.70969</ele>
        <time>2024-01-12T13:46:23Z</time>
      </trkpt>
      <trkpt lat="42.92358" lon="0.29321">
        <ele>1231.31763</ele>
        <time>2024-01-12T13:46:24Z</time>
      </trkpt>
      <trkpt lat="42.92359" lon="0.29321">
        <ele>1231.5919</ele>
        <time>2024-01-12T13:46:25Z</time>
      </trkpt>
      <trkpt lat="42.92361" lon="0.29321">
        <ele>1231.79938</ele>
        <time>2024-01-12T13:46:26Z</time>
      </trkpt>
      <trkpt lat="42.92363" lon="0.29321">
        <ele>1228.93589</ele>
        <time>2024-01-12T13:46:28Z</time>
      </trkpt>
      <trkpt lat="42.92364" lon="0.29321">
        <ele>1231.80572</ele>
        <time>2024-01-12T13:46:29Z</time>
      </trkpt>
      <trkpt lat="42.92366" lon="0.29321">
        <ele>1229.70091</ele>
        <time>2024-01-12T13:46:31Z</time>
      </trkpt>
      <trkpt lat="42.92368" lon="0.2932">
        <ele>1228.97195</ele>
        <time>2024-01-12T13:46:32Z</time>
      </trkpt>
      <trkpt lat="42.9237" lon="0.29319">
        <ele>1230.2398</ele>
        <time>2024-01-12T13:46:33Z</time>
      </trkpt>
      <trkpt lat="42.92372" lon="0.29319">
        <ele>1230.659</ele>
        <time>2024-01-12T13:46:34Z</time>
      </trkpt>
      <trkpt lat="42.92374" lon="0.29318">
        <ele>1232.04722</ele>
        <time>2024-01-12T13:46:35Z</time>
      </trkpt>
      <trkpt lat="42.92376" lon="0.29318">
        <ele>1232.08883</ele>
        <time>2024-01-12T13:46:36Z</time>
      </trkpt>
      <trkpt lat="42.92378" lon="0.29318">
        <ele>1232.3309</ele>
        <time>2024-01-12T13:46:37Z</time>
      </trkpt>
      <trkpt lat="42.92379" lon="0.29318">
        <ele>1231.9947</ele>
        <time>2024-01-12T13:46:38Z</time>
      </trkpt>
      <trkpt lat="42.9238" lon="0.29318">
        <ele>1232.46644</ele>
        <time>2024-01-12T13:46:39Z</time>
      </trkpt>
      <trkpt lat="42.92382" lon="0.29318">
        <ele>1233.45907</ele>
        <time>2024-01-12T13:46:40Z</time>
      </trkpt>
      <trkpt lat="42.92383" lon="0.29318">
        <ele>1233.25601</ele>
        <time>2024-01-12T13:46:41Z</time>
      </trkpt>
      <trkpt lat="42.92385" lon="0.29317">
        <ele>1233.63842</ele>
        <time>2024-01-12T13:46:42Z</time>
      </trkpt>
      <trkpt lat="42.92387" lon="0.29316">
        <ele>1233.95646</ele>
        <time>2024-01-12T13:46:43Z</time>
      </trkpt>
      <trkpt lat="42.92388" lon="0.29316">
        <ele>1233.36805</ele>
        <time>2024-01-12T13:46:44Z</time>
      </trkpt>
      <trkpt lat="42.9239" lon="0.29315">
        <ele>1233.81354</ele>
        <time>2024-01-12T13:46:45Z</time>
      </trkpt>
      <trkpt lat="42.92392" lon="0.29315">
        <ele>1232.96083</ele>
        <time>2024-01-12T13:46:46Z</time>
      </trkpt>
      <trkpt lat="42.92395" lon="0.29314">
        <ele>1234.70621</ele>
        <time>2024-01-12T13:46:47Z</time>
      </trkpt>
      <trkpt lat="42.92396" lon="0.29313">
        <ele>1229.29473</ele>
        <time>2024-01-12T13:46:49Z</time>
      </trkpt>
      <trkpt lat="42.92397" lon="0.29313">
        <ele>1229.26283</ele>
        <time>2024-01-12T13:46:50Z</time>
      </trkpt>
      <trkpt lat="42.92399" lon="0.29312">
        <ele>1229.13466</ele>
        <time>2024-01-12T13:46:51Z</time>
      </trkpt>
      <trkpt lat="42.92399" lon="0.29311">
        <ele>1230.34843</ele>
        <time>2024-01-12T13:46:52Z</time>
      </trkpt>
      <trkpt lat="42.924" lon="0.2931">
        <ele>1232.48649</ele>
        <time>2024-01-12T13:46:54Z</time>
      </trkpt>
      <trkpt lat="42.92401" lon="0.29311">
        <ele>1226.36867</ele>
        <time>2024-01-12T13:46:55Z</time>
      </trkpt>
      <trkpt lat="42.92403" lon="0.2931">
        <ele>1224.89805</ele>
        <time>2024-01-12T13:46:58Z</time>
      </trkpt>
      <trkpt lat="42.92403" lon="0.2931">
        <ele>1222.82141</ele>
        <time>2024-01-12T13:46:59Z</time>
      </trkpt>
      <trkpt lat="42.92405" lon="0.29309">
        <ele>1222.88421</ele>
        <time>2024-01-12T13:47:00Z</time>
      </trkpt>
      <trkpt lat="42.92406" lon="0.29308">
        <ele>1224.76805</ele>
        <time>2024-01-12T13:47:01Z</time>
      </trkpt>
      <trkpt lat="42.92408" lon="0.29308">
        <ele>1226.40848</ele>
        <time>2024-01-12T13:47:02Z</time>
      </trkpt>
      <trkpt lat="42.9241" lon="0.29307">
        <ele>1228.9131</ele>
        <time>2024-01-12T13:47:04Z</time>
      </trkpt>
      <trkpt lat="42.92411" lon="0.29306">
        <ele>1228.9192</ele>
        <time>2024-01-12T13:47:06Z</time>
      </trkpt>
      <trkpt lat="42.92411" lon="0.29307">
        <ele>1231.91914</ele>
        <time>2024-01-12T13:47:08Z</time>
      </trkpt>
      <trkpt lat="42.92413" lon="0.29306">
        <ele>1231.28408</ele>
        <time>2024-01-12T13:47:10Z</time>
      </trkpt>
      <trkpt lat="42.92415" lon="0.29305">
        <ele>1233.56627</ele>
        <time>2024-01-12T13:47:12Z</time>
      </trkpt>
      <trkpt lat="42.92416" lon="0.29305">
        <ele>1230.38323</ele>
        <time>2024-01-12T13:47:15Z</time>
      </trkpt>
      <trkpt lat="42.92417" lon="0.29304">
        <ele>1229.32009</ele>
        <time>2024-01-12T13:47:16Z</time>
      </trkpt>
      <trkpt lat="42.92419" lon="0.29302">
        <ele>1230.30841</ele>
        <time>2024-01-12T13:47:17Z</time>
      </trkpt>
      <trkpt lat="42.92421" lon="0.29302">
        <ele>1229.68125</ele>
        <time>2024-01-12T13:47:18Z</time>
      </trkpt>
      <trkpt lat="42.92423" lon="0.293">
        <ele>1229.70188</ele>
        <time>2024-01-12T13:47:19Z</time>
      </trkpt>
      <trkpt lat="42.92425" lon="0.293">
        <ele>1231.26606</ele>
        <time>2024-01-12T13:47:20Z</time>
      </trkpt>
      <trkpt lat="42.92427" lon="0.29299">
        <ele>1230.18813</ele>
        <time>2024-01-12T13:47:21Z</time>
      </trkpt>
      <trkpt lat="42.92429" lon="0.293">
        <ele>1231.29334</ele>
        <time>2024-01-12T13:47:22Z</time>
      </trkpt>
      <trkpt lat="42.9243" lon="0.29299">
        <ele>1231.09883</ele>
        <time>2024-01-12T13:47:23Z</time>
      </trkpt>
      <trkpt lat="42.92432" lon="0.29299">
        <ele>1229.07547</ele>
        <time>2024-01-12T13:47:24Z</time>
      </trkpt>
      <trkpt lat="42.92433" lon="0.29299">
        <ele>1227.94903</ele>
        <time>2024-01-12T13:47:25Z</time>
      </trkpt>
      <trkpt lat="42.92435" lon="0.293">
        <ele>1227.09769</ele>
        <time>2024-01-12T13:47:26Z</time>
      </trkpt>
      <trkpt lat="42.92437" lon="0.29299">
        <ele>1227.73865</ele>
        <time>2024-01-12T13:47:27Z</time>
      </trkpt>
      <trkpt lat="42.92438" lon="0.29298">
        <ele>1225.61432</ele>
        <time>2024-01-12T13:47:28Z</time>
      </trkpt>
      <trkpt lat="42.92439" lon="0.29298">
        <ele>1224.19559</ele>
        <time>2024-01-12T13:47:29Z</time>
      </trkpt>
      <trkpt lat="42.9244" lon="0.29298">
        <ele>1223.81675</ele>
        <time>2024-01-12T13:47:30Z</time>
      </trkpt>
      <trkpt lat="42.92441" lon="0.29297">
        <ele>1225.02952</ele>
        <time>2024-01-12T13:47:31Z</time>
      </trkpt>
      <trkpt lat="42.92442" lon="0.29297">
        <ele>1223.69673</ele>
        <time>2024-01-12T13:47:33Z</time>
      </trkpt>
      <trkpt lat="42.92443" lon="0.29296">
        <ele>1223.67185</ele>
        <time>2024-01-12T13:47:35Z</time>
      </trkpt>
      <trkpt lat="42.92445" lon="0.29296">
        <ele>1219.75411</ele>
        <time>2024-01-12T13:47:37Z</time>
      </trkpt>
      <trkpt lat="42.92445" lon="0.29295">
        <ele>1221.3958</ele>
        <time>2024-01-12T13:47:38Z</time>
      </trkpt>
      <trkpt lat="42.92446" lon="0.29294">
        <ele>1223.0924</ele>
        <time>2024-01-12T13:47:39Z</time>
      </trkpt>
      <trkpt lat="42.92447" lon="0.29293">
        <ele>1224.53116</ele>
        <time>2024-01-12T13:47:40Z</time>
      </trkpt>
      <trkpt lat="42.92449" lon="0.29293">
        <ele>1225.58716</ele>
        <time>2024-01-12T13:47:42Z</time>
      </trkpt>
      <trkpt lat="42.9245" lon="0.29293">
        <ele>1222.30617</ele>
        <time>2024-01-12T13:47:44Z</time>
      </trkpt>
      <trkpt lat="42.92451" lon="0.29294">
        <ele>1222.21435</ele>
        <time>2024-01-12T13:47:46Z</time>
      </trkpt>
      <trkpt lat="42.92453" lon="0.29293">
        <ele>1221.50532</ele>
        <time>2024-01-12T13:47:48Z</time>
      </trkpt>
      <trkpt lat="42.92454" lon="0.29294">
        <ele>1220.22193</ele>
        <time>2024-01-12T13:47:50Z</time>
      </trkpt>
      <trkpt lat="42.92455" lon="0.29293">
        <ele>1220.19414</ele>
        <time>2024-01-12T13:47:51Z</time>
      </trkpt>
      <trkpt lat="42.92456" lon="0.29292">
        <ele>1221.81713</ele>
        <time>2024-01-12T13:47:52Z</time>
      </trkpt>
      <trkpt lat="42.92458" lon="0.29293">
        <ele>1218.30774</ele>
        <time>2024-01-12T13:47:54Z</time>
      </trkpt>
      <trkpt lat="42.92459" lon="0.29292">
        <ele>1220.94146</ele>
        <time>2024-01-12T13:47:55Z</time>
      </trkpt>
      <trkpt lat="42.9246" lon="0.29291">
        <ele>1219.52589</ele>
        <time>2024-01-12T13:47:56Z</time>
      </trkpt>
      <trkpt lat="42.92461" lon="0.29291">
        <ele>1218.87906</ele>
        <time>2024-01-12T13:47:57Z</time>
      </trkpt>
      <trkpt lat="42.92462" lon="0.29291">
        <ele>1218.5846</ele>
        <time>2024-01-12T13:47:58Z</time>
      </trkpt>
      <trkpt lat="42.92463" lon="0.2929">
        <ele>1220.00354</ele>
        <time>2024-01-12T13:47:59Z</time>
      </trkpt>
      <trkpt lat="42.92465" lon="0.2929">
        <ele>1220.5359</ele>
        <time>2024-01-12T13:48:00Z</time>
      </trkpt>
      <trkpt lat="42.92467" lon="0.2929">
        <ele>1220.15646</ele>
        <time>2024-01-12T13:48:01Z</time>
      </trkpt>
      <trkpt lat="42.92469" lon="0.29289">
        <ele>1220.41713</ele>
        <time>2024-01-12T13:48:03Z</time>
      </trkpt>
      <trkpt lat="42.92469" lon="0.29289">
        <ele>1219.47824</ele>
        <time>2024-01-12T13:48:04Z</time>
      </trkpt>
      <trkpt lat="42.92471" lon="0.2929">
        <ele>1220.78384</ele>
        <time>2024-01-12T13:48:06Z</time>
      </trkpt>
      <trkpt lat="42.92472" lon="0.2929">
        <ele>1221.4399</ele>
        <time>2024-01-12T13:48:08Z</time>
      </trkpt>
      <trkpt lat="42.92473" lon="0.29289">
        <ele>1223.10793</ele>
        <time>2024-01-12T13:48:10Z</time>
      </trkpt>
      <trkpt lat="42.92474" lon="0.29288">
        <ele>1220.96154</ele>
        <time>2024-01-12T13:48:12Z</time>
      </trkpt>
      <trkpt lat="42.92477" lon="0.29286">
        <ele>1220.91451</ele>
        <time>2024-01-12T13:48:14Z</time>
      </trkpt>
      <trkpt lat="42.92478" lon="0.29286">
        <ele>1218.27035</ele>
        <time>2024-01-12T13:48:15Z</time>
      </trkpt>
      <trkpt lat="42.9248" lon="0.29286">
        <ele>1218.99889</ele>
        <time>2024-01-12T13:48:17Z</time>
      </trkpt>
      <trkpt lat="42.92481" lon="0.29285">
        <ele>1218.79396</ele>
        <time>2024-01-12T13:48:18Z</time>
      </trkpt>
      <trkpt lat="42.92482" lon="0.29285">
        <ele>1215.36121</ele>
        <time>2024-01-12T13:48:20Z</time>
      </trkpt>
      <trkpt lat="42.92484" lon="0.29284">
        <ele>1218.301</ele>
        <time>2024-01-12T13:48:22Z</time>
      </trkpt>
      <trkpt lat="42.92485" lon="0.29284">
        <ele>1217.9095</ele>
        <time>2024-01-12T13:48:23Z</time>
      </trkpt>
      <trkpt lat="42.92487" lon="0.29284">
        <ele>1217.1287</ele>
        <time>2024-01-12T13:48:24Z</time>
      </trkpt>
      <trkpt lat="42.92488" lon="0.29284">
        <ele>1217.38128</ele>
        <time>2024-01-12T13:48:25Z</time>
      </trkpt>
      <trkpt lat="42.92489" lon="0.29284">
        <ele>1216.81206</ele>
        <time>2024-01-12T13:48:26Z</time>
      </trkpt>
      <trkpt lat="42.92491" lon="0.29283">
        <ele>1216.64652</ele>
        <time>2024-01-12T13:48:27Z</time>
      </trkpt>
      <trkpt lat="42.92492" lon="0.29284">
        <ele>1218.09101</ele>
        <time>2024-01-12T13:48:28Z</time>
      </trkpt>
      <trkpt lat="42.92494" lon="0.29284">
        <ele>1217.31457</ele>
        <time>2024-01-12T13:48:29Z</time>
      </trkpt>
      <trkpt lat="42.92495" lon="0.29284">
        <ele>1216.71929</ele>
        <time>2024-01-12T13:48:30Z</time>
      </trkpt>
      <trkpt lat="42.92496" lon="0.29283">
        <ele>1218.33916</ele>
        <time>2024-01-12T13:48:31Z</time>
      </trkpt>
      <trkpt lat="42.92497" lon="0.29284">
        <ele>1215.702</ele>
        <time>2024-01-12T13:48:32Z</time>
      </trkpt>
      <trkpt lat="42.92499" lon="0.29284">
        <ele>1215.01576</ele>
        <time>2024-01-12T13:48:33Z</time>
      </trkpt>
      <trkpt lat="42.92501" lon="0.29285">
        <ele>1213.51916</ele>
        <time>2024-01-12T13:48:34Z</time>
      </trkpt>
      <trkpt lat="42.92502" lon="0.29284">
        <ele>1217.24513</ele>
        <time>2024-01-12T13:48:35Z</time>
      </trkpt>
      <trkpt lat="42.92503" lon="0.29285">
        <ele>1216.84094</ele>
        <time>2024-01-12T13:48:36Z</time>
      </trkpt>
      <trkpt lat="42.92505" lon="0.29284">
        <ele>1216.50864</ele>
        <time>2024-01-12T13:48:37Z</time>
      </trkpt>
      <trkpt lat="42.92506" lon="0.29284">
        <ele>1215.86299</ele>
        <time>2024-01-12T13:48:38Z</time>
      </trkpt>
      <trkpt lat="42.92507" lon="0.29283">
        <ele>1215.3048</ele>
        <time>2024-01-12T13:48:39Z</time>
      </trkpt>
      <trkpt lat="42.92508" lon="0.29283">
        <ele>1215.13851</ele>
        <time>2024-01-12T13:48:40Z</time>
      </trkpt>
      <trkpt lat="42.92509" lon="0.29284">
        <ele>1213.83199</ele>
        <time>2024-01-12T13:48:41Z</time>
      </trkpt>
      <trkpt lat="42.92511" lon="0.29283">
        <ele>1215.05604</ele>
        <time>2024-01-12T13:48:42Z</time>
      </trkpt>
      <trkpt lat="42.92512" lon="0.29283">
        <ele>1213.52034</ele>
        <time>2024-01-12T13:48:43Z</time>
      </trkpt>
      <trkpt lat="42.92513" lon="0.29283">
        <ele>1214.96991</ele>
        <time>2024-01-12T13:48:44Z</time>
      </trkpt>
      <trkpt lat="42.92514" lon="0.29283">
        <ele>1214.76116</ele>
        <time>2024-01-12T13:48:45Z</time>
      </trkpt>
      <trkpt lat="42.92516" lon="0.29282">
        <ele>1213.57907</ele>
        <time>2024-01-12T13:48:46Z</time>
      </trkpt>
      <trkpt lat="42.92518" lon="0.29281">
        <ele>1210.25751</ele>
        <time>2024-01-12T13:48:48Z</time>
      </trkpt>
      <trkpt lat="42.9252" lon="0.29281">
        <ele>1211.78537</ele>
        <time>2024-01-12T13:48:49Z</time>
      </trkpt>
      <trkpt lat="42.92521" lon="0.29282">
        <ele>1209.22001</ele>
        <time>2024-01-12T13:48:51Z</time>
      </trkpt>
      <trkpt lat="42.92522" lon="0.29282">
        <ele>1207.52258</ele>
        <time>2024-01-12T13:48:53Z</time>
      </trkpt>
      <trkpt lat="42.92524" lon="0.29281">
        <ele>1205.28329</ele>
        <time>2024-01-12T13:48:55Z</time>
      </trkpt>
      <trkpt lat="42.92525" lon="0.29281">
        <ele>1205.34251</ele>
        <time>2024-01-12T13:48:56Z</time>
      </trkpt>
      <trkpt lat="42.92527" lon="0.29281">
        <ele>1206.44123</ele>
        <time>2024-01-12T13:48:58Z</time>
      </trkpt>
      <trkpt lat="42.92528" lon="0.29281">
        <ele>1203.47914</ele>
        <time>2024-01-12T13:48:59Z</time>
      </trkpt>
      <trkpt lat="42.9253" lon="0.29282">
        <ele>1204.73198</ele>
        <time>2024-01-12T13:49:00Z</time>
      </trkpt>
      <trkpt lat="42.92532" lon="0.29282">
        <ele>1206.43112</ele>
        <time>2024-01-12T13:49:01Z</time>
      </trkpt>
      <trkpt lat="42.92534" lon="0.29283">
        <ele>1203.02879</ele>
        <time>2024-01-12T13:49:03Z</time>
      </trkpt>
      <trkpt lat="42.92536" lon="0.29283">
        <ele>1205.01111</ele>
        <time>2024-01-12T13:49:04Z</time>
      </trkpt>
      <trkpt lat="42.92539" lon="0.29283">
        <ele>1207.3627</ele>
        <time>2024-01-12T13:49:06Z</time>
      </trkpt>
      <trkpt lat="42.9254" lon="0.29283">
        <ele>1207.90101</ele>
        <time>2024-01-12T13:49:07Z</time>
      </trkpt>
      <trkpt lat="42.92541" lon="0.29285">
        <ele>1208.1868</ele>
        <time>2024-01-12T13:49:08Z</time>
      </trkpt>
      <trkpt lat="42.92542" lon="0.29285">
        <ele>1209.4722</ele>
        <time>2024-01-12T13:49:09Z</time>
      </trkpt>
      <trkpt lat="42.92543" lon="0.29285">
        <ele>1209.94927</ele>
        <time>2024-01-12T13:49:10Z</time>
      </trkpt>
      <trkpt lat="42.92544" lon="0.29285">
        <ele>1212.29024</ele>
        <time>2024-01-12T13:49:11Z</time>
      </trkpt>
      <trkpt lat="42.92546" lon="0.29286">
        <ele>1207.88179</ele>
        <time>2024-01-12T13:49:12Z</time>
      </trkpt>
      <trkpt lat="42.92548" lon="0.29286">
        <ele>1207.15215</ele>
        <time>2024-01-12T13:49:13Z</time>
      </trkpt>
      <trkpt lat="42.92549" lon="0.29285">
        <ele>1205.58209</ele>
        <time>2024-01-12T13:49:14Z</time>
      </trkpt>
      <trkpt lat="42.9255" lon="0.29286">
        <ele>1206.6579</ele>
        <time>2024-01-12T13:49:15Z</time>
      </trkpt>
      <trkpt lat="42.92551" lon="0.29286">
        <ele>1205.04635</ele>
        <time>2024-01-12T13:49:16Z</time>
      </trkpt>
      <trkpt lat="42.92553" lon="0.29287">
        <ele>1203.99722</ele>
        <time>2024-01-12T13:49:18Z</time>
      </trkpt>
      <trkpt lat="42.92554" lon="0.29287">
        <ele>1202.34252</ele>
        <time>2024-01-12T13:49:19Z</time>
      </trkpt>
      <trkpt lat="42.92556" lon="0.29288">
        <ele>1204.16361</ele>
        <time>2024-01-12T13:49:20Z</time>
      </trkpt>
      <trkpt lat="42.92557" lon="0.29288">
        <ele>1206.95426</ele>
        <time>2024-01-12T13:49:22Z</time>
      </trkpt>
      <trkpt lat="42.92558" lon="0.29288">
        <ele>1206.53794</ele>
        <time>2024-01-12T13:49:23Z</time>
      </trkpt>
      <trkpt lat="42.9256" lon="0.29289">
        <ele>1204.86406</ele>
        <time>2024-01-12T13:49:24Z</time>
      </trkpt>
      <trkpt lat="42.92561" lon="0.29289">
        <ele>1205.98579</ele>
        <time>2024-01-12T13:49:25Z</time>
      </trkpt>
      <trkpt lat="42.92563" lon="0.2929">
        <ele>1206.16632</ele>
        <time>2024-01-12T13:49:26Z</time>
      </trkpt>
      <trkpt lat="42.92564" lon="0.2929">
        <ele>1207.7703</ele>
        <time>2024-01-12T13:49:27Z</time>
      </trkpt>
      <trkpt lat="42.92565" lon="0.29292">
        <ele>1207.68062</ele>
        <time>2024-01-12T13:49:28Z</time>
      </trkpt>
      <trkpt lat="42.92567" lon="0.29293">
        <ele>1206.94202</ele>
        <time>2024-01-12T13:49:29Z</time>
      </trkpt>
      <trkpt lat="42.92567" lon="0.29293">
        <ele>1207.36335</ele>
        <time>2024-01-12T13:49:30Z</time>
      </trkpt>
      <trkpt lat="42.92569" lon="0.29294">
        <ele>1206.90056</ele>
        <time>2024-01-12T13:49:31Z</time>
      </trkpt>
      <trkpt lat="42.9257" lon="0.29294">
        <ele>1206.99254</ele>
        <time>2024-01-12T13:49:32Z</time>
      </trkpt>
      <trkpt lat="42.92571" lon="0.29295">
        <ele>1207.56421</ele>
        <time>2024-01-12T13:49:33Z</time>
      </trkpt>
      <trkpt lat="42.92572" lon="0.29295">
        <ele>1206.74599</ele>
        <time>2024-01-12T13:49:34Z</time>
      </trkpt>
      <trkpt lat="42.92573" lon="0.29296">
        <ele>1204.74052</ele>
        <time>2024-01-12T13:49:35Z</time>
      </trkpt>
      <trkpt lat="42.92574" lon="0.29297">
        <ele>1206.13669</ele>
        <time>2024-01-12T13:49:36Z</time>
      </trkpt>
      <trkpt lat="42.92576" lon="0.29298">
        <ele>1205.75687</ele>
        <time>2024-01-12T13:49:37Z</time>
      </trkpt>
      <trkpt lat="42.92576" lon="0.29299">
        <ele>1205.01087</ele>
        <time>2024-01-12T13:49:38Z</time>
      </trkpt>
      <trkpt lat="42.92577" lon="0.29299">
        <ele>1207.94538</ele>
        <time>2024-01-12T13:49:39Z</time>
      </trkpt>
      <trkpt lat="42.92579" lon="0.293">
        <ele>1207.98587</ele>
        <time>2024-01-12T13:49:40Z</time>
      </trkpt>
      <trkpt lat="42.9258" lon="0.293">
        <ele>1205.43218</ele>
        <time>2024-01-12T13:49:41Z</time>
      </trkpt>
      <trkpt lat="42.92581" lon="0.29301">
        <ele>1206.44979</ele>
        <time>2024-01-12T13:49:42Z</time>
      </trkpt>
      <trkpt lat="42.92582" lon="0.29302">
        <ele>1207.97903</ele>
        <time>2024-01-12T13:49:43Z</time>
      </trkpt>
      <trkpt lat="42.92584" lon="0.29302">
        <ele>1206.74315</ele>
        <time>2024-01-12T13:49:44Z</time>
      </trkpt>
      <trkpt lat="42.92585" lon="0.29303">
        <ele>1205.96554</ele>
        <time>2024-01-12T13:49:45Z</time>
      </trkpt>
      <trkpt lat="42.92585" lon="0.29304">
        <ele>1206.59707</ele>
        <time>2024-01-12T13:49:47Z</time>
      </trkpt>
      <trkpt lat="42.92587" lon="0.29305">
        <ele>1206.21893</ele>
        <time>2024-01-12T13:49:48Z</time>
      </trkpt>
      <trkpt lat="42.92589" lon="0.29305">
        <ele>1203.52805</ele>
        <time>2024-01-12T13:49:50Z</time>
      </trkpt>
      <trkpt lat="42.9259" lon="0.29306">
        <ele>1205.76152</ele>
        <time>2024-01-12T13:49:51Z</time>
      </trkpt>
      <trkpt lat="42.92592" lon="0.29307">
        <ele>1207.46944</ele>
        <time>2024-01-12T13:49:53Z</time>
      </trkpt>
      <trkpt lat="42.92593" lon="0.29308">
        <ele>1204.89258</ele>
        <time>2024-01-12T13:49:54Z</time>
      </trkpt>
      <trkpt lat="42.92595" lon="0.29308">
        <ele>1204.54727</ele>
        <time>2024-01-12T13:49:55Z</time>
      </trkpt>
      <trkpt lat="42.92596" lon="0.29309">
        <ele>1204.22472</ele>
        <time>2024-01-12T13:49:56Z</time>
      </trkpt>
      <trkpt lat="42.92597" lon="0.2931">
        <ele>1205.58681</ele>
        <time>2024-01-12T13:49:57Z</time>
      </trkpt>
      <trkpt lat="42.92598" lon="0.2931">
        <ele>1207.28315</ele>
        <time>2024-01-12T13:49:58Z</time>
      </trkpt>
      <trkpt lat="42.92599" lon="0.2931">
        <ele>1206.24485</ele>
        <time>2024-01-12T13:49:59Z</time>
      </trkpt>
      <trkpt lat="42.92601" lon="0.2931">
        <ele>1203.31405</ele>
        <time>2024-01-12T13:50:00Z</time>
      </trkpt>
      <trkpt lat="42.92602" lon="0.29311">
        <ele>1203.63256</ele>
        <time>2024-01-12T13:50:01Z</time>
      </trkpt>
      <trkpt lat="42.92604" lon="0.29312">
        <ele>1204.56881</ele>
        <time>2024-01-12T13:50:02Z</time>
      </trkpt>
      <trkpt lat="42.92605" lon="0.29312">
        <ele>1204.67567</ele>
        <time>2024-01-12T13:50:03Z</time>
      </trkpt>
      <trkpt lat="42.92606" lon="0.29313">
        <ele>1206.01831</ele>
        <time>2024-01-12T13:50:04Z</time>
      </trkpt>
      <trkpt lat="42.92607" lon="0.29314">
        <ele>1206.54804</ele>
        <time>2024-01-12T13:50:05Z</time>
      </trkpt>
      <trkpt lat="42.92607" lon="0.29315">
        <ele>1206.2205</ele>
        <time>2024-01-12T13:50:06Z</time>
      </trkpt>
      <trkpt lat="42.92608" lon="0.29316">
        <ele>1207.55665</ele>
        <time>2024-01-12T13:50:07Z</time>
      </trkpt>
      <trkpt lat="42.9261" lon="0.29316">
        <ele>1208.89657</ele>
        <time>2024-01-12T13:50:09Z</time>
      </trkpt>
      <trkpt lat="42.92611" lon="0.29317">
        <ele>1208.69979</ele>
        <time>2024-01-12T13:50:10Z</time>
      </trkpt>
      <trkpt lat="42.92611" lon="0.29318">
        <ele>1207.6298</ele>
        <time>2024-01-12T13:50:11Z</time>
      </trkpt>
      <trkpt lat="42.92613" lon="0.29318">
        <ele>1206.90451</ele>
        <time>2024-01-12T13:50:12Z</time>
      </trkpt>
      <trkpt lat="42.92614" lon="0.29318">
        <ele>1206.95824</ele>
        <time>2024-01-12T13:50:13Z</time>
      </trkpt>
      <trkpt lat="42.92615" lon="0.29317">
        <ele>1206.71856</ele>
        <time>2024-01-12T13:50:14Z</time>
      </trkpt>
      <trkpt lat="42.92616" lon="0.29318">
        <ele>1206.81894</ele>
        <time>2024-01-12T13:50:15Z</time>
      </trkpt>
      <trkpt lat="42.92618" lon="0.29318">
        <ele>1204.62473</ele>
        <time>2024-01-12T13:50:16Z</time>
      </trkpt>
      <trkpt lat="42.92619" lon="0.29318">
        <ele>1202.42303</ele>
        <time>2024-01-12T13:50:17Z</time>
      </trkpt>
      <trkpt lat="42.92619" lon="0.29319">
        <ele>1204.51679</ele>
        <time>2024-01-12T13:50:18Z</time>
      </trkpt>
      <trkpt lat="42.9262" lon="0.29319">
        <ele>1203.50824</ele>
        <time>2024-01-12T13:50:19Z</time>
      </trkpt>
      <trkpt lat="42.92621" lon="0.29319">
        <ele>1205.05795</ele>
        <time>2024-01-12T13:50:20Z</time>
      </trkpt>
      <trkpt lat="42.92623" lon="0.29319">
        <ele>1203.65184</ele>
        <time>2024-01-12T13:50:21Z</time>
      </trkpt>
      <trkpt lat="42.92623" lon="0.29319">
        <ele>1200.79034</ele>
        <time>2024-01-12T13:50:22Z</time>
      </trkpt>
      <trkpt lat="42.92625" lon="0.2932">
        <ele>1202.56204</ele>
        <time>2024-01-12T13:50:23Z</time>
      </trkpt>
      <trkpt lat="42.92627" lon="0.29321">
        <ele>1202.79711</ele>
        <time>2024-01-12T13:50:24Z</time>
      </trkpt>
      <trkpt lat="42.92628" lon="0.29321">
        <ele>1203.46621</ele>
        <time>2024-01-12T13:50:25Z</time>
      </trkpt>
      <trkpt lat="42.92628" lon="0.29322">
        <ele>1201.29486</ele>
        <time>2024-01-12T13:50:26Z</time>
      </trkpt>
      <trkpt lat="42.9263" lon="0.29322">
        <ele>1200.53145</ele>
        <time>2024-01-12T13:50:27Z</time>
      </trkpt>
      <trkpt lat="42.92631" lon="0.29323">
        <ele>1202.70636</ele>
        <time>2024-01-12T13:50:29Z</time>
      </trkpt>
      <trkpt lat="42.92632" lon="0.29324">
        <ele>1202.08398</ele>
        <time>2024-01-12T13:50:30Z</time>
      </trkpt>
      <trkpt lat="42.92634" lon="0.29324">
        <ele>1203.04751</ele>
        <time>2024-01-12T13:50:31Z</time>
      </trkpt>
      <trkpt lat="42.92635" lon="0.29325">
        <ele>1203.71184</ele>
        <time>2024-01-12T13:50:32Z</time>
      </trkpt>
      <trkpt lat="42.92637" lon="0.29325">
        <ele>1204.07993</ele>
        <time>2024-01-12T13:50:33Z</time>
      </trkpt>
      <trkpt lat="42.92638" lon="0.29325">
        <ele>1205.22239</ele>
        <time>2024-01-12T13:50:34Z</time>
      </trkpt>
      <trkpt lat="42.92639" lon="0.29326">
        <ele>1206.29847</ele>
        <time>2024-01-12T13:50:35Z</time>
      </trkpt>
      <trkpt lat="42.92642" lon="0.29327">
        <ele>1204.6617</ele>
        <time>2024-01-12T13:50:37Z</time>
      </trkpt>
      <trkpt lat="42.92644" lon="0.29327">
        <ele>1204.52422</ele>
        <time>2024-01-12T13:50:38Z</time>
      </trkpt>
      <trkpt lat="42.92645" lon="0.29327">
        <ele>1203.20346</ele>
        <time>2024-01-12T13:50:39Z</time>
      </trkpt>
      <trkpt lat="42.92648" lon="0.29328">
        <ele>1202.50769</ele>
        <time>2024-01-12T13:50:41Z</time>
      </trkpt>
      <trkpt lat="42.92649" lon="0.29329">
        <ele>1202.13751</ele>
        <time>2024-01-12T13:50:42Z</time>
      </trkpt>
      <trkpt lat="42.9265" lon="0.29328">
        <ele>1202.41652</ele>
        <time>2024-01-12T13:50:43Z</time>
      </trkpt>
      <trkpt lat="42.92651" lon="0.29327">
        <ele>1200.54657</ele>
        <time>2024-01-12T13:50:46Z</time>
      </trkpt>
      <trkpt lat="42.92653" lon="0.29328">
        <ele>1201.16507</ele>
        <time>2024-01-12T13:50:48Z</time>
      </trkpt>
      <trkpt lat="42.92654" lon="0.29328">
        <ele>1201.95216</ele>
        <time>2024-01-12T13:50:49Z</time>
      </trkpt>
      <trkpt lat="42.92656" lon="0.29329">
        <ele>1199.81643</ele>
        <time>2024-01-12T13:50:51Z</time>
      </trkpt>
      <trkpt lat="42.92657" lon="0.2933">
        <ele>1199.19398</ele>
        <time>2024-01-12T13:50:52Z</time>
      </trkpt>
      <trkpt lat="42.92659" lon="0.29331">
        <ele>1201.31902</ele>
        <time>2024-01-12T13:50:54Z</time>
      </trkpt>
      <trkpt lat="42.9266" lon="0.29331">
        <ele>1198.65473</ele>
        <time>2024-01-12T13:50:55Z</time>
      </trkpt>
      <trkpt lat="42.92662" lon="0.29331">
        <ele>1198.63741</ele>
        <time>2024-01-12T13:50:57Z</time>
      </trkpt>
      <trkpt lat="42.92663" lon="0.29331">
        <ele>1199.06324</ele>
        <time>2024-01-12T13:50:58Z</time>
      </trkpt>
      <trkpt lat="42.92665" lon="0.29331">
        <ele>1196.00035</ele>
        <time>2024-01-12T13:50:59Z</time>
      </trkpt>
      <trkpt lat="42.92667" lon="0.29331">
        <ele>1196.98755</ele>
        <time>2024-01-12T13:51:00Z</time>
      </trkpt>
      <trkpt lat="42.92669" lon="0.29332">
        <ele>1199.19511</ele>
        <time>2024-01-12T13:51:02Z</time>
      </trkpt>
      <trkpt lat="42.92671" lon="0.29332">
        <ele>1199.7595</ele>
        <time>2024-01-12T13:51:03Z</time>
      </trkpt>
      <trkpt lat="42.92672" lon="0.29332">
        <ele>1199.71853</ele>
        <time>2024-01-12T13:51:04Z</time>
      </trkpt>
      <trkpt lat="42.92673" lon="0.29332">
        <ele>1199.39243</ele>
        <time>2024-01-12T13:51:05Z</time>
      </trkpt>
      <trkpt lat="42.92675" lon="0.29333">
        <ele>1200.17562</ele>
        <time>2024-01-12T13:51:06Z</time>
      </trkpt>
      <trkpt lat="42.92676" lon="0.29334">
        <ele>1201.28823</ele>
        <time>2024-01-12T13:51:07Z</time>
      </trkpt>
      <trkpt lat="42.92677" lon="0.29334">
        <ele>1200.76307</ele>
        <time>2024-01-12T13:51:08Z</time>
      </trkpt>
      <trkpt lat="42.92679" lon="0.29335">
        <ele>1199.71791</ele>
        <time>2024-01-12T13:51:10Z</time>
      </trkpt>
      <trkpt lat="42.9268" lon="0.29336">
        <ele>1201.41731</ele>
        <time>2024-01-12T13:51:12Z</time>
      </trkpt>
      <trkpt lat="42.92682" lon="0.29337">
        <ele>1198.6894</ele>
        <time>2024-01-12T13:51:14Z</time>
      </trkpt>
      <trkpt lat="42.92683" lon="0.29338">
        <ele>1198.39179</ele>
        <time>2024-01-12T13:51:16Z</time>
      </trkpt>
      <trkpt lat="42.92684" lon="0.29338">
        <ele>1198.47296</ele>
        <time>2024-01-12T13:51:17Z</time>
      </trkpt>
      <trkpt lat="42.92685" lon="0.29338">
        <ele>1197.75002</ele>
        <time>2024-01-12T13:51:18Z</time>
      </trkpt>
      <trkpt lat="42.92688" lon="0.29338">
        <ele>1200.25783</ele>
        <time>2024-01-12T13:51:20Z</time>
      </trkpt>
      <trkpt lat="42.92689" lon="0.29338">
        <ele>1201.26408</ele>
        <time>2024-01-12T13:51:21Z</time>
      </trkpt>
      <trkpt lat="42.92691" lon="0.29338">
        <ele>1200.44071</ele>
        <time>2024-01-12T13:51:22Z</time>
      </trkpt>
      <trkpt lat="42.92692" lon="0.29338">
        <ele>1200.43222</ele>
        <time>2024-01-12T13:51:23Z</time>
      </trkpt>
      <trkpt lat="42.92693" lon="0.29338">
        <ele>1200.15762</ele>
        <time>2024-01-12T13:51:24Z</time>
      </trkpt>
      <trkpt lat="42.92695" lon="0.29339">
        <ele>1201.60132</ele>
        <time>2024-01-12T13:51:25Z</time>
      </trkpt>
      <trkpt lat="42.92696" lon="0.29339">
        <ele>1201.17211</ele>
        <time>2024-01-12T13:51:26Z</time>
      </trkpt>
      <trkpt lat="42.92697" lon="0.2934">
        <ele>1201.86802</ele>
        <time>2024-01-12T13:51:27Z</time>
      </trkpt>
      <trkpt lat="42.92698" lon="0.29341">
        <ele>1204.76829</ele>
        <time>2024-01-12T13:51:28Z</time>
      </trkpt>
      <trkpt lat="42.927" lon="0.29341">
        <ele>1204.63553</ele>
        <time>2024-01-12T13:51:29Z</time>
      </trkpt>
      <trkpt lat="42.92701" lon="0.29341">
        <ele>1203.84836</ele>
        <time>2024-01-12T13:51:30Z</time>
      </trkpt>
      <trkpt lat="42.92703" lon="0.29341">
        <ele>1203.6583</ele>
        <time>2024-01-12T13:51:32Z</time>
      </trkpt>
      <trkpt lat="42.92705" lon="0.29342">
        <ele>1202.55082</ele>
        <time>2024-01-12T13:51:34Z</time>
      </trkpt>
      <trkpt lat="42.92706" lon="0.29342">
        <ele>1203.27415</ele>
        <time>2024-01-12T13:51:35Z</time>
      </trkpt>
      <trkpt lat="42.92707" lon="0.29343">
        <ele>1202.53416</ele>
        <time>2024-01-12T13:51:37Z</time>
      </trkpt>
      <trkpt lat="42.92708" lon="0.29343">
        <ele>1198.96343</ele>
        <time>2024-01-12T13:51:38Z</time>
      </trkpt>
      <trkpt lat="42.92709" lon="0.29343">
        <ele>1200.64441</ele>
        <time>2024-01-12T13:51:39Z</time>
      </trkpt>
      <trkpt lat="42.92711" lon="0.29343">
        <ele>1200.4184</ele>
        <time>2024-01-12T13:51:40Z</time>
      </trkpt>
      <trkpt lat="42.92712" lon="0.29343">
        <ele>1201.12189</ele>
        <time>2024-01-12T13:51:41Z</time>
      </trkpt>
      <trkpt lat="42.92713" lon="0.29343">
        <ele>1200.76888</ele>
        <time>2024-01-12T13:51:42Z</time>
      </trkpt>
      <trkpt lat="42.92714" lon="0.29344">
        <ele>1199.88723</ele>
        <time>2024-01-12T13:51:43Z</time>
      </trkpt>
      <trkpt lat="42.92716" lon="0.29345">
        <ele>1200.53471</ele>
        <time>2024-01-12T13:51:45Z</time>
      </trkpt>
      <trkpt lat="42.92717" lon="0.29346">
        <ele>1199.7259</ele>
        <time>2024-01-12T13:51:46Z</time>
      </trkpt>
      <trkpt lat="42.92718" lon="0.29346">
        <ele>1200.421</ele>
        <time>2024-01-12T13:51:47Z</time>
      </trkpt>
      <trkpt lat="42.92719" lon="0.29347">
        <ele>1199.1921</ele>
        <time>2024-01-12T13:51:48Z</time>
      </trkpt>
      <trkpt lat="42.9272" lon="0.29348">
        <ele>1200.46478</ele>
        <time>2024-01-12T13:51:49Z</time>
      </trkpt>
      <trkpt lat="42.92721" lon="0.29349">
        <ele>1200.08259</ele>
        <time>2024-01-12T13:51:51Z</time>
      </trkpt>
      <trkpt lat="42.92722" lon="0.29349">
        <ele>1200.33453</ele>
        <time>2024-01-12T13:51:52Z</time>
      </trkpt>
      <trkpt lat="42.92723" lon="0.29349">
        <ele>1199.79345</ele>
        <time>2024-01-12T13:51:53Z</time>
      </trkpt>
      <trkpt lat="42.92725" lon="0.2935">
        <ele>1199.53325</ele>
        <time>2024-01-12T13:51:55Z</time>
      </trkpt>
      <trkpt lat="42.92726" lon="0.29351">
        <ele>1199.72525</ele>
        <time>2024-01-12T13:51:56Z</time>
      </trkpt>
      <trkpt lat="42.92727" lon="0.29351">
        <ele>1198.38059</ele>
        <time>2024-01-12T13:51:57Z</time>
      </trkpt>
      <trkpt lat="42.92728" lon="0.29352">
        <ele>1198.85515</ele>
        <time>2024-01-12T13:51:58Z</time>
      </trkpt>
      <trkpt lat="42.92729" lon="0.29352">
        <ele>1198.78388</ele>
        <time>2024-01-12T13:51:59Z</time>
      </trkpt>
      <trkpt lat="42.92731" lon="0.29352">
        <ele>1197.31673</ele>
        <time>2024-01-12T13:52:00Z</time>
      </trkpt>
      <trkpt lat="42.92732" lon="0.29353">
        <ele>1198.77472</ele>
        <time>2024-01-12T13:52:01Z</time>
      </trkpt>
      <trkpt lat="42.92734" lon="0.29353">
        <ele>1197.99496</ele>
        <time>2024-01-12T13:52:02Z</time>
      </trkpt>
      <trkpt lat="42.92735" lon="0.29354">
        <ele>1197.07124</ele>
        <time>2024-01-12T13:52:03Z</time>
      </trkpt>
      <trkpt lat="42.92737" lon="0.29354">
        <ele>1193.16842</ele>
        <time>2024-01-12T13:52:04Z</time>
      </trkpt>
      <trkpt lat="42.92739" lon="0.29354">
        <ele>1192.94383</ele>
        <time>2024-01-12T13:52:06Z</time>
      </trkpt>
      <trkpt lat="42.9274" lon="0.29355">
        <ele>1192.61783</ele>
        <time>2024-01-12T13:52:07Z</time>
      </trkpt>
      <trkpt lat="42.92742" lon="0.29355">
        <ele>1192.82785</ele>
        <time>2024-01-12T13:52:08Z</time>
      </trkpt>
      <trkpt lat="42.92744" lon="0.29356">
        <ele>1194.14735</ele>
        <time>2024-01-12T13:52:10Z</time>
      </trkpt>
      <trkpt lat="42.92745" lon="0.29356">
        <ele>1192.95376</ele>
        <time>2024-01-12T13:52:11Z</time>
      </trkpt>
      <trkpt lat="42.92746" lon="0.29357">
        <ele>1195.30554</ele>
        <time>2024-01-12T13:52:12Z</time>
      </trkpt>
      <trkpt lat="42.92747" lon="0.29358">
        <ele>1194.49191</ele>
        <time>2024-01-12T13:52:16Z</time>
      </trkpt>
      <trkpt lat="42.92748" lon="0.29358">
        <ele>1196.17472</ele>
        <time>2024-01-12T13:52:17Z</time>
      </trkpt>
      <trkpt lat="42.9275" lon="0.29359">
        <ele>1193.46689</ele>
        <time>2024-01-12T13:52:18Z</time>
      </trkpt>
      <trkpt lat="42.92751" lon="0.29359">
        <ele>1190.41028</ele>
        <time>2024-01-12T13:52:19Z</time>
      </trkpt>
      <trkpt lat="42.92752" lon="0.2936">
        <ele>1190.28753</ele>
        <time>2024-01-12T13:52:20Z</time>
      </trkpt>
      <trkpt lat="42.92753" lon="0.2936">
        <ele>1191.68256</ele>
        <time>2024-01-12T13:52:21Z</time>
      </trkpt>
      <trkpt lat="42.92755" lon="0.2936">
        <ele>1192.09076</ele>
        <time>2024-01-12T13:52:23Z</time>
      </trkpt>
      <trkpt lat="42.92757" lon="0.2936">
        <ele>1188.0387</ele>
        <time>2024-01-12T13:52:24Z</time>
      </trkpt>
      <trkpt lat="42.92759" lon="0.29359">
        <ele>1188.86029</ele>
        <time>2024-01-12T13:52:25Z</time>
      </trkpt>
      <trkpt lat="42.92761" lon="0.29359">
        <ele>1189.60048</ele>
        <time>2024-01-12T13:52:26Z</time>
      </trkpt>
      <trkpt lat="42.92762" lon="0.29359">
        <ele>1191.00132</ele>
        <time>2024-01-12T13:52:27Z</time>
      </trkpt>
      <trkpt lat="42.92763" lon="0.2936">
        <ele>1189.80211</ele>
        <time>2024-01-12T13:52:28Z</time>
      </trkpt>
      <trkpt lat="42.92765" lon="0.2936">
        <ele>1188.12736</ele>
        <time>2024-01-12T13:52:29Z</time>
      </trkpt>
      <trkpt lat="42.92766" lon="0.2936">
        <ele>1189.44246</ele>
        <time>2024-01-12T13:52:30Z</time>
      </trkpt>
      <trkpt lat="42.92768" lon="0.2936">
        <ele>1190.34404</ele>
        <time>2024-01-12T13:52:31Z</time>
      </trkpt>
      <trkpt lat="42.92769" lon="0.2936">
        <ele>1190.39771</ele>
        <time>2024-01-12T13:52:32Z</time>
      </trkpt>
      <trkpt lat="42.92771" lon="0.2936">
        <ele>1190.35854</ele>
        <time>2024-01-12T13:52:33Z</time>
      </trkpt>
      <trkpt lat="42.92771" lon="0.29361">
        <ele>1189.11347</ele>
        <time>2024-01-12T13:52:34Z</time>
      </trkpt>
      <trkpt lat="42.92773" lon="0.29361">
        <ele>1188.74257</ele>
        <time>2024-01-12T13:52:35Z</time>
      </trkpt>
      <trkpt lat="42.92774" lon="0.29361">
        <ele>1189.45696</ele>
        <time>2024-01-12T13:52:36Z</time>
      </trkpt>
      <trkpt lat="42.92775" lon="0.29361">
        <ele>1190.96242</ele>
        <time>2024-01-12T13:52:37Z</time>
      </trkpt>
      <trkpt lat="42.92776" lon="0.29362">
        <ele>1189.96013</ele>
        <time>2024-01-12T13:52:38Z</time>
      </trkpt>
      <trkpt lat="42.92777" lon="0.29362">
        <ele>1189.90517</ele>
        <time>2024-01-12T13:52:39Z</time>
      </trkpt>
      <trkpt lat="42.92779" lon="0.29362">
        <ele>1190.79862</ele>
        <time>2024-01-12T13:52:40Z</time>
      </trkpt>
      <trkpt lat="42.9278" lon="0.29363">
        <ele>1191.52471</ele>
        <time>2024-01-12T13:52:41Z</time>
      </trkpt>
      <trkpt lat="42.92781" lon="0.29364">
        <ele>1192.2426</ele>
        <time>2024-01-12T13:52:42Z</time>
      </trkpt>
      <trkpt lat="42.92783" lon="0.29363">
        <ele>1191.15584</ele>
        <time>2024-01-12T13:52:43Z</time>
      </trkpt>
      <trkpt lat="42.92784" lon="0.29364">
        <ele>1188.03914</ele>
        <time>2024-01-12T13:52:44Z</time>
      </trkpt>
      <trkpt lat="42.92785" lon="0.29363">
        <ele>1189.51656</ele>
        <time>2024-01-12T13:52:45Z</time>
      </trkpt>
      <trkpt lat="42.92787" lon="0.29363">
        <ele>1189.05739</ele>
        <time>2024-01-12T13:52:46Z</time>
      </trkpt>
      <trkpt lat="42.92788" lon="0.29364">
        <ele>1189.23931</ele>
        <time>2024-01-12T13:52:47Z</time>
      </trkpt>
      <trkpt lat="42.92789" lon="0.29363">
        <ele>1189.45562</ele>
        <time>2024-01-12T13:52:48Z</time>
      </trkpt>
      <trkpt lat="42.9279" lon="0.29363">
        <ele>1189.06627</ele>
        <time>2024-01-12T13:52:49Z</time>
      </trkpt>
      <trkpt lat="42.92792" lon="0.29364">
        <ele>1189.21504</ele>
        <time>2024-01-12T13:52:50Z</time>
      </trkpt>
      <trkpt lat="42.92793" lon="0.29363">
        <ele>1189.77981</ele>
        <time>2024-01-12T13:52:51Z</time>
      </trkpt>
      <trkpt lat="42.92796" lon="0.29362">
        <ele>1186.49583</ele>
        <time>2024-01-12T13:52:53Z</time>
      </trkpt>
      <trkpt lat="42.92797" lon="0.29362">
        <ele>1187.29659</ele>
        <time>2024-01-12T13:52:54Z</time>
      </trkpt>
      <trkpt lat="42.92799" lon="0.29362">
        <ele>1187.3764</ele>
        <time>2024-01-12T13:52:55Z</time>
      </trkpt>
      <trkpt lat="42.928" lon="0.29362">
        <ele>1187.2955</ele>
        <time>2024-01-12T13:52:56Z</time>
      </trkpt>
      <trkpt lat="42.92801" lon="0.29363">
        <ele>1187.66108</ele>
        <time>2024-01-12T13:52:59Z</time>
      </trkpt>
      <trkpt lat="42.92802" lon="0.29363">
        <ele>1187.43496</ele>
        <time>2024-01-12T13:53:00Z</time>
      </trkpt>
      <trkpt lat="42.92804" lon="0.29363">
        <ele>1188.73114</ele>
        <time>2024-01-12T13:53:02Z</time>
      </trkpt>
      <trkpt lat="42.92805" lon="0.29363">
        <ele>1187.30323</ele>
        <time>2024-01-12T13:53:03Z</time>
      </trkpt>
      <trkpt lat="42.92807" lon="0.29363">
        <ele>1184.18467</ele>
        <time>2024-01-12T13:53:04Z</time>
      </trkpt>
      <trkpt lat="42.92809" lon="0.29362">
        <ele>1185.76344</ele>
        <time>2024-01-12T13:53:05Z</time>
      </trkpt>
      <trkpt lat="42.9281" lon="0.29362">
        <ele>1186.10381</ele>
        <time>2024-01-12T13:53:06Z</time>
      </trkpt>
      <trkpt lat="42.92812" lon="0.29361">
        <ele>1183.39785</ele>
        <time>2024-01-12T13:53:08Z</time>
      </trkpt>
      <trkpt lat="42.92815" lon="0.2936">
        <ele>1183.9265</ele>
        <time>2024-01-12T13:53:09Z</time>
      </trkpt>
      <trkpt lat="42.92817" lon="0.29359">
        <ele>1185.36777</ele>
        <time>2024-01-12T13:53:10Z</time>
      </trkpt>
      <trkpt lat="42.92818" lon="0.29359">
        <ele>1182.75532</ele>
        <time>2024-01-12T13:53:11Z</time>
      </trkpt>
      <trkpt lat="42.92819" lon="0.29359">
        <ele>1182.74675</ele>
        <time>2024-01-12T13:53:12Z</time>
      </trkpt>
      <trkpt lat="42.92821" lon="0.29358">
        <ele>1183.41863</ele>
        <time>2024-01-12T13:53:13Z</time>
      </trkpt>
      <trkpt lat="42.92822" lon="0.29358">
        <ele>1182.58383</ele>
        <time>2024-01-12T13:53:14Z</time>
      </trkpt>
      <trkpt lat="42.92825" lon="0.29357">
        <ele>1183.79266</ele>
        <time>2024-01-12T13:53:15Z</time>
      </trkpt>
      <trkpt lat="42.92826" lon="0.29356">
        <ele>1184.6785</ele>
        <time>2024-01-12T13:53:16Z</time>
      </trkpt>
      <trkpt lat="42.92829" lon="0.29357">
        <ele>1184.32282</ele>
        <time>2024-01-12T13:53:17Z</time>
      </trkpt>
      <trkpt lat="42.92831" lon="0.29356">
        <ele>1185.69347</ele>
        <time>2024-01-12T13:53:18Z</time>
      </trkpt>
      <trkpt lat="42.92832" lon="0.29355">
        <ele>1185.21986</ele>
        <time>2024-01-12T13:53:19Z</time>
      </trkpt>
      <trkpt lat="42.92835" lon="0.29355">
        <ele>1186.01877</ele>
        <time>2024-01-12T13:53:20Z</time>
      </trkpt>
      <trkpt lat="42.92836" lon="0.29355">
        <ele>1184.3068</ele>
        <time>2024-01-12T13:53:23Z</time>
      </trkpt>
      <trkpt lat="42.92838" lon="0.29356">
        <ele>1184.33922</ele>
        <time>2024-01-12T13:53:25Z</time>
      </trkpt>
      <trkpt lat="42.92839" lon="0.29357">
        <ele>1183.71736</ele>
        <time>2024-01-12T13:53:26Z</time>
      </trkpt>
      <trkpt lat="42.92841" lon="0.29357">
        <ele>1183.42803</ele>
        <time>2024-01-12T13:53:27Z</time>
      </trkpt>
      <trkpt lat="42.92842" lon="0.29357">
        <ele>1182.82759</ele>
        <time>2024-01-12T13:53:28Z</time>
      </trkpt>
      <trkpt lat="42.92843" lon="0.29357">
        <ele>1182.59475</ele>
        <time>2024-01-12T13:53:29Z</time>
      </trkpt>
      <trkpt lat="42.92844" lon="0.29357">
        <ele>1182.36005</ele>
        <time>2024-01-12T13:53:31Z</time>
      </trkpt>
      <trkpt lat="42.92846" lon="0.29356">
        <ele>1181.16257</ele>
        <time>2024-01-12T13:53:33Z</time>
      </trkpt>
      <trkpt lat="42.92847" lon="0.29356">
        <ele>1178.61125</ele>
        <time>2024-01-12T13:53:34Z</time>
      </trkpt>
      <trkpt lat="42.92848" lon="0.29356">
        <ele>1179.099</ele>
        <time>2024-01-12T13:53:35Z</time>
      </trkpt>
      <trkpt lat="42.92849" lon="0.29356">
        <ele>1178.19513</ele>
        <time>2024-01-12T13:53:37Z</time>
      </trkpt>
      <trkpt lat="42.92851" lon="0.29356">
        <ele>1178.46554</ele>
        <time>2024-01-12T13:53:39Z</time>
      </trkpt>
      <trkpt lat="42.92853" lon="0.29356">
        <ele>1178.34774</ele>
        <time>2024-01-12T13:53:40Z</time>
      </trkpt>
      <trkpt lat="42.92854" lon="0.29356">
        <ele>1177.65454</ele>
        <time>2024-01-12T13:53:42Z</time>
      </trkpt>
      <trkpt lat="42.92856" lon="0.29357">
        <ele>1175.98083</ele>
        <time>2024-01-12T13:53:43Z</time>
      </trkpt>
      <trkpt lat="42.92857" lon="0.29356">
        <ele>1177.04646</ele>
        <time>2024-01-12T13:53:44Z</time>
      </trkpt>
      <trkpt lat="42.92859" lon="0.29356">
        <ele>1176.98774</ele>
        <time>2024-01-12T13:53:45Z</time>
      </trkpt>
      <trkpt lat="42.9286" lon="0.29356">
        <ele>1177.00195</ele>
        <time>2024-01-12T13:53:46Z</time>
      </trkpt>
      <trkpt lat="42.92861" lon="0.29357">
        <ele>1177.12396</ele>
        <time>2024-01-12T13:53:47Z</time>
      </trkpt>
      <trkpt lat="42.92862" lon="0.29357">
        <ele>1177.33584</ele>
        <time>2024-01-12T13:53:48Z</time>
      </trkpt>
      <trkpt lat="42.92864" lon="0.29357">
        <ele>1177.04916</ele>
        <time>2024-01-12T13:53:49Z</time>
      </trkpt>
      <trkpt lat="42.92865" lon="0.29357">
        <ele>1177.38416</ele>
        <time>2024-01-12T13:53:50Z</time>
      </trkpt>
      <trkpt lat="42.92867" lon="0.29357">
        <ele>1179.30098</ele>
        <time>2024-01-12T13:53:51Z</time>
      </trkpt>
      <trkpt lat="42.92868" lon="0.29357">
        <ele>1178.39517</ele>
        <time>2024-01-12T13:53:53Z</time>
      </trkpt>
      <trkpt lat="42.92869" lon="0.29357">
        <ele>1179.39577</ele>
        <time>2024-01-12T13:53:54Z</time>
      </trkpt>
      <trkpt lat="42.92871" lon="0.29358">
        <ele>1178.09255</ele>
        <time>2024-01-12T13:53:57Z</time>
      </trkpt>
      <trkpt lat="42.92872" lon="0.29359">
        <ele>1178.88326</ele>
        <time>2024-01-12T13:53:58Z</time>
      </trkpt>
      <trkpt lat="42.92873" lon="0.29359">
        <ele>1178.23174</ele>
        <time>2024-01-12T13:53:59Z</time>
      </trkpt>
      <trkpt lat="42.92875" lon="0.29359">
        <ele>1179.63164</ele>
        <time>2024-01-12T13:54:00Z</time>
      </trkpt>
      <trkpt lat="42.92876" lon="0.29359">
        <ele>1179.06856</ele>
        <time>2024-01-12T13:54:01Z</time>
      </trkpt>
      <trkpt lat="42.92878" lon="0.2936">
        <ele>1177.71872</ele>
        <time>2024-01-12T13:54:03Z</time>
      </trkpt>
      <trkpt lat="42.92879" lon="0.2936">
        <ele>1178.45627</ele>
        <time>2024-01-12T13:54:04Z</time>
      </trkpt>
      <trkpt lat="42.9288" lon="0.2936">
        <ele>1178.301</ele>
        <time>2024-01-12T13:54:05Z</time>
      </trkpt>
      <trkpt lat="42.92881" lon="0.2936">
        <ele>1176.0295</ele>
        <time>2024-01-12T13:54:06Z</time>
      </trkpt>
      <trkpt lat="42.92883" lon="0.29361">
        <ele>1176.09107</ele>
        <time>2024-01-12T13:54:08Z</time>
      </trkpt>
      <trkpt lat="42.92884" lon="0.29361">
        <ele>1176.48979</ele>
        <time>2024-01-12T13:54:09Z</time>
      </trkpt>
      <trkpt lat="42.92885" lon="0.29362">
        <ele>1177.91374</ele>
        <time>2024-01-12T13:54:11Z</time>
      </trkpt>
      <trkpt lat="42.92887" lon="0.29362">
        <ele>1175.67927</ele>
        <time>2024-01-12T13:54:12Z</time>
      </trkpt>
      <trkpt lat="42.92888" lon="0.29362">
        <ele>1176.30572</ele>
        <time>2024-01-12T13:54:13Z</time>
      </trkpt>
      <trkpt lat="42.92889" lon="0.29362">
        <ele>1178.22983</ele>
        <time>2024-01-12T13:54:14Z</time>
      </trkpt>
      <trkpt lat="42.92891" lon="0.29362">
        <ele>1178.24357</ele>
        <time>2024-01-12T13:54:15Z</time>
      </trkpt>
      <trkpt lat="42.92892" lon="0.29363">
        <ele>1177.06899</ele>
        <time>2024-01-12T13:54:16Z</time>
      </trkpt>
      <trkpt lat="42.92893" lon="0.29365">
        <ele>1176.25384</ele>
        <time>2024-01-12T13:54:17Z</time>
      </trkpt>
      <trkpt lat="42.92894" lon="0.29365">
        <ele>1177.98583</ele>
        <time>2024-01-12T13:54:18Z</time>
      </trkpt>
      <trkpt lat="42.92895" lon="0.29366">
        <ele>1177.62853</ele>
        <time>2024-01-12T13:54:19Z</time>
      </trkpt>
      <trkpt lat="42.92896" lon="0.29366">
        <ele>1178.55388</ele>
        <time>2024-01-12T13:54:20Z</time>
      </trkpt>
      <trkpt lat="42.92898" lon="0.29367">
        <ele>1177.40331</ele>
        <time>2024-01-12T13:54:21Z</time>
      </trkpt>
      <trkpt lat="42.92899" lon="0.29368">
        <ele>1173.0598</ele>
        <time>2024-01-12T13:54:22Z</time>
      </trkpt>
      <trkpt lat="42.929" lon="0.29368">
        <ele>1174.39253</ele>
        <time>2024-01-12T13:54:23Z</time>
      </trkpt>
      <trkpt lat="42.92901" lon="0.29368">
        <ele>1175.26662</ele>
        <time>2024-01-12T13:54:24Z</time>
      </trkpt>
      <trkpt lat="42.92902" lon="0.29368">
        <ele>1175.90062</ele>
        <time>2024-01-12T13:54:25Z</time>
      </trkpt>
      <trkpt lat="42.92905" lon="0.29369">
        <ele>1177.0046</ele>
        <time>2024-01-12T13:54:27Z</time>
      </trkpt>
      <trkpt lat="42.92906" lon="0.29369">
        <ele>1176.50377</ele>
        <time>2024-01-12T13:54:28Z</time>
      </trkpt>
      <trkpt lat="42.92907" lon="0.29369">
        <ele>1177.05885</ele>
        <time>2024-01-12T13:54:30Z</time>
      </trkpt>
      <trkpt lat="42.92909" lon="0.29368">
        <ele>1176.32179</ele>
        <time>2024-01-12T13:54:31Z</time>
      </trkpt>
      <trkpt lat="42.9291" lon="0.29368">
        <ele>1177.11201</ele>
        <time>2024-01-12T13:54:32Z</time>
      </trkpt>
      <trkpt lat="42.92911" lon="0.29369">
        <ele>1176.89309</ele>
        <time>2024-01-12T13:54:33Z</time>
      </trkpt>
      <trkpt lat="42.92912" lon="0.2937">
        <ele>1177.31725</ele>
        <time>2024-01-12T13:54:34Z</time>
      </trkpt>
      <trkpt lat="42.92913" lon="0.2937">
        <ele>1176.24067</ele>
        <time>2024-01-12T13:54:35Z</time>
      </trkpt>
      <trkpt lat="42.92915" lon="0.2937">
        <ele>1176.03686</ele>
        <time>2024-01-12T13:54:36Z</time>
      </trkpt>
      <trkpt lat="42.92916" lon="0.2937">
        <ele>1176.1017</ele>
        <time>2024-01-12T13:54:37Z</time>
      </trkpt>
      <trkpt lat="42.92918" lon="0.29371">
        <ele>1175.18613</ele>
        <time>2024-01-12T13:54:41Z</time>
      </trkpt>
      <trkpt lat="42.9292" lon="0.29371">
        <ele>1177.20046</ele>
        <time>2024-01-12T13:54:42Z</time>
      </trkpt>
      <trkpt lat="42.92921" lon="0.29371">
        <ele>1174.16096</ele>
        <time>2024-01-12T13:54:43Z</time>
      </trkpt>
      <trkpt lat="42.92922" lon="0.2937">
        <ele>1173.1374</ele>
        <time>2024-01-12T13:54:44Z</time>
      </trkpt>
      <trkpt lat="42.92924" lon="0.2937">
        <ele>1173.37588</ele>
        <time>2024-01-12T13:54:45Z</time>
      </trkpt>
      <trkpt lat="42.92925" lon="0.2937">
        <ele>1173.0973</ele>
        <time>2024-01-12T13:54:46Z</time>
      </trkpt>
      <trkpt lat="42.92927" lon="0.2937">
        <ele>1172.07816</ele>
        <time>2024-01-12T13:54:47Z</time>
      </trkpt>
      <trkpt lat="42.92929" lon="0.29371">
        <ele>1169.63806</ele>
        <time>2024-01-12T13:54:48Z</time>
      </trkpt>
      <trkpt lat="42.9293" lon="0.2937">
        <ele>1170.33832</ele>
        <time>2024-01-12T13:54:49Z</time>
      </trkpt>
      <trkpt lat="42.92932" lon="0.2937">
        <ele>1171.61669</ele>
        <time>2024-01-12T13:54:50Z</time>
      </trkpt>
      <trkpt lat="42.92932" lon="0.29371">
        <ele>1170.08478</ele>
        <time>2024-01-12T13:54:51Z</time>
      </trkpt>
      <trkpt lat="42.92934" lon="0.29371">
        <ele>1168.71429</ele>
        <time>2024-01-12T13:54:52Z</time>
      </trkpt>
      <trkpt lat="42.92936" lon="0.29372">
        <ele>1168.81817</ele>
        <time>2024-01-12T13:54:53Z</time>
      </trkpt>
      <trkpt lat="42.92938" lon="0.29372">
        <ele>1170.08423</ele>
        <time>2024-01-12T13:54:54Z</time>
      </trkpt>
      <trkpt lat="42.9294" lon="0.29371">
        <ele>1170.5904</ele>
        <time>2024-01-12T13:54:55Z</time>
      </trkpt>
      <trkpt lat="42.92942" lon="0.29371">
        <ele>1169.91705</ele>
        <time>2024-01-12T13:54:56Z</time>
      </trkpt>
      <trkpt lat="42.92943" lon="0.29371">
        <ele>1170.97232</ele>
        <time>2024-01-12T13:54:57Z</time>
      </trkpt>
      <trkpt lat="42.92945" lon="0.29371">
        <ele>1171.54468</ele>
        <time>2024-01-12T13:54:58Z</time>
      </trkpt>
      <trkpt lat="42.92946" lon="0.29372">
        <ele>1171.41008</ele>
        <time>2024-01-12T13:54:59Z</time>
      </trkpt>
      <trkpt lat="42.92947" lon="0.29373">
        <ele>1171.97718</ele>
        <time>2024-01-12T13:55:00Z</time>
      </trkpt>
      <trkpt lat="42.92948" lon="0.29373">
        <ele>1171.98311</ele>
        <time>2024-01-12T13:55:01Z</time>
      </trkpt>
      <trkpt lat="42.92949" lon="0.29372">
        <ele>1172.63361</ele>
        <time>2024-01-12T13:55:03Z</time>
      </trkpt>
      <trkpt lat="42.92951" lon="0.29373">
        <ele>1169.96719</ele>
        <time>2024-01-12T13:55:04Z</time>
      </trkpt>
      <trkpt lat="42.92952" lon="0.29373">
        <ele>1169.57986</ele>
        <time>2024-01-12T13:55:05Z</time>
      </trkpt>
      <trkpt lat="42.92953" lon="0.29374">
        <ele>1170.53211</ele>
        <time>2024-01-12T13:55:07Z</time>
      </trkpt>
      <trkpt lat="42.92955" lon="0.29375">
        <ele>1168.29725</ele>
        <time>2024-01-12T13:55:08Z</time>
      </trkpt>
      <trkpt lat="42.92956" lon="0.29375">
        <ele>1169.00047</ele>
        <time>2024-01-12T13:55:09Z</time>
      </trkpt>
      <trkpt lat="42.92958" lon="0.29375">
        <ele>1169.1238</ele>
        <time>2024-01-12T13:55:10Z</time>
      </trkpt>
      <trkpt lat="42.92959" lon="0.29375">
        <ele>1169.01631</ele>
        <time>2024-01-12T13:55:11Z</time>
      </trkpt>
      <trkpt lat="42.9296" lon="0.29375">
        <ele>1168.44396</ele>
        <time>2024-01-12T13:55:12Z</time>
      </trkpt>
      <trkpt lat="42.92963" lon="0.29376">
        <ele>1166.25895</ele>
        <time>2024-01-12T13:55:14Z</time>
      </trkpt>
      <trkpt lat="42.92964" lon="0.29376">
        <ele>1167.2866</ele>
        <time>2024-01-12T13:55:15Z</time>
      </trkpt>
      <trkpt lat="42.92965" lon="0.29376">
        <ele>1167.66422</ele>
        <time>2024-01-12T13:55:16Z</time>
      </trkpt>
      <trkpt lat="42.92966" lon="0.29376">
        <ele>1167.58886</ele>
        <time>2024-01-12T13:55:17Z</time>
      </trkpt>
      <trkpt lat="42.92968" lon="0.29376">
        <ele>1168.23548</ele>
        <time>2024-01-12T13:55:18Z</time>
      </trkpt>
      <trkpt lat="42.92969" lon="0.29375">
        <ele>1168.62272</ele>
        <time>2024-01-12T13:55:19Z</time>
      </trkpt>
      <trkpt lat="42.9297" lon="0.29375">
        <ele>1169.05789</ele>
        <time>2024-01-12T13:55:20Z</time>
      </trkpt>
      <trkpt lat="42.92972" lon="0.29375">
        <ele>1168.00644</ele>
        <time>2024-01-12T13:55:21Z</time>
      </trkpt>
      <trkpt lat="42.92973" lon="0.29375">
        <ele>1168.9052</ele>
        <time>2024-01-12T13:55:22Z</time>
      </trkpt>
      <trkpt lat="42.92975" lon="0.29375">
        <ele>1169.67216</ele>
        <time>2024-01-12T13:55:23Z</time>
      </trkpt>
      <trkpt lat="42.92977" lon="0.29375">
        <ele>1167.90916</ele>
        <time>2024-01-12T13:55:25Z</time>
      </trkpt>
      <trkpt lat="42.92978" lon="0.29375">
        <ele>1167.4692</ele>
        <time>2024-01-12T13:55:26Z</time>
      </trkpt>
      <trkpt lat="42.92979" lon="0.29376">
        <ele>1168.76782</ele>
        <time>2024-01-12T13:55:28Z</time>
      </trkpt>
      <trkpt lat="42.92981" lon="0.29375">
        <ele>1169.49758</ele>
        <time>2024-01-12T13:55:29Z</time>
      </trkpt>
      <trkpt lat="42.92982" lon="0.29375">
        <ele>1167.34411</ele>
        <time>2024-01-12T13:55:31Z</time>
      </trkpt>
      <trkpt lat="42.92984" lon="0.29375">
        <ele>1167.88034</ele>
        <time>2024-01-12T13:55:32Z</time>
      </trkpt>
      <trkpt lat="42.92985" lon="0.29375">
        <ele>1168.44256</ele>
        <time>2024-01-12T13:55:33Z</time>
      </trkpt>
      <trkpt lat="42.92987" lon="0.29375">
        <ele>1166.80424</ele>
        <time>2024-01-12T13:55:34Z</time>
      </trkpt>
      <trkpt lat="42.92988" lon="0.29375">
        <ele>1165.08345</ele>
        <time>2024-01-12T13:55:35Z</time>
      </trkpt>
      <trkpt lat="42.92989" lon="0.29376">
        <ele>1166.38165</ele>
        <time>2024-01-12T13:55:36Z</time>
      </trkpt>
      <trkpt lat="42.9299" lon="0.29377">
        <ele>1164.86438</ele>
        <time>2024-01-12T13:55:37Z</time>
      </trkpt>
      <trkpt lat="42.92991" lon="0.29376">
        <ele>1165.27486</ele>
        <time>2024-01-12T13:55:38Z</time>
      </trkpt>
      <trkpt lat="42.92993" lon="0.29376">
        <ele>1164.67705</ele>
        <time>2024-01-12T13:55:39Z</time>
      </trkpt>
      <trkpt lat="42.92994" lon="0.29377">
        <ele>1163.70034</ele>
        <time>2024-01-12T13:55:40Z</time>
      </trkpt>
      <trkpt lat="42.92995" lon="0.29378">
        <ele>1163.95306</ele>
        <time>2024-01-12T13:55:41Z</time>
      </trkpt>
      <trkpt lat="42.92996" lon="0.29378">
        <ele>1164.10367</ele>
        <time>2024-01-12T13:55:42Z</time>
      </trkpt>
      <trkpt lat="42.92997" lon="0.29378">
        <ele>1164.96919</ele>
        <time>2024-01-12T13:55:43Z</time>
      </trkpt>
      <trkpt lat="42.92998" lon="0.29378">
        <ele>1164.37656</ele>
        <time>2024-01-12T13:55:44Z</time>
      </trkpt>
      <trkpt lat="42.93" lon="0.29378">
        <ele>1166.83133</ele>
        <time>2024-01-12T13:55:45Z</time>
      </trkpt>
      <trkpt lat="42.93001" lon="0.29379">
        <ele>1166.80441</ele>
        <time>2024-01-12T13:55:46Z</time>
      </trkpt>
      <trkpt lat="42.93002" lon="0.29379">
        <ele>1167.27082</ele>
        <time>2024-01-12T13:55:47Z</time>
      </trkpt>
      <trkpt lat="42.93004" lon="0.2938">
        <ele>1166.97791</ele>
        <time>2024-01-12T13:55:49Z</time>
      </trkpt>
      <trkpt lat="42.93005" lon="0.29381">
        <ele>1167.99537</ele>
        <time>2024-01-12T13:55:50Z</time>
      </trkpt>
      <trkpt lat="42.93007" lon="0.29382">
        <ele>1167.86297</ele>
        <time>2024-01-12T13:55:51Z</time>
      </trkpt>
      <trkpt lat="42.93008" lon="0.29382">
        <ele>1167.68711</ele>
        <time>2024-01-12T13:55:52Z</time>
      </trkpt>
      <trkpt lat="42.93009" lon="0.29382">
        <ele>1165.60561</ele>
        <time>2024-01-12T13:55:53Z</time>
      </trkpt>
      <trkpt lat="42.9301" lon="0.29382">
        <ele>1166.06831</ele>
        <time>2024-01-12T13:55:54Z</time>
      </trkpt>
      <trkpt lat="42.93012" lon="0.29383">
        <ele>1166.48495</ele>
        <time>2024-01-12T13:55:56Z</time>
      </trkpt>
      <trkpt lat="42.93013" lon="0.29383">
        <ele>1165.72825</ele>
        <time>2024-01-12T13:55:57Z</time>
      </trkpt>
      <trkpt lat="42.93014" lon="0.29383">
        <ele>1166.13364</ele>
        <time>2024-01-12T13:55:58Z</time>
      </trkpt>
      <trkpt lat="42.93015" lon="0.29383">
        <ele>1166.15076</ele>
        <time>2024-01-12T13:55:59Z</time>
      </trkpt>
      <trkpt lat="42.93016" lon="0.29383">
        <ele>1165.67835</ele>
        <time>2024-01-12T13:56:00Z</time>
      </trkpt>
      <trkpt lat="42.93018" lon="0.29383">
        <ele>1163.65502</ele>
        <time>2024-01-12T13:56:01Z</time>
      </trkpt>
      <trkpt lat="42.93019" lon="0.29383">
        <ele>1165.02434</ele>
        <time>2024-01-12T13:56:02Z</time>
      </trkpt>
      <trkpt lat="42.9302" lon="0.29383">
        <ele>1166.01646</ele>
        <time>2024-01-12T13:56:03Z</time>
      </trkpt>
      <trkpt lat="42.93022" lon="0.29383">
        <ele>1162.97465</ele>
        <time>2024-01-12T13:56:05Z</time>
      </trkpt>
      <trkpt lat="42.93024" lon="0.29383">
        <ele>1162.68046</ele>
        <time>2024-01-12T13:56:06Z</time>
      </trkpt>
      <trkpt lat="42.93026" lon="0.29383">
        <ele>1163.93981</ele>
        <time>2024-01-12T13:56:07Z</time>
      </trkpt>
      <trkpt lat="42.93027" lon="0.29382">
        <ele>1164.59309</ele>
        <time>2024-01-12T13:56:08Z</time>
      </trkpt>
      <trkpt lat="42.93028" lon="0.29382">
        <ele>1163.79503</ele>
        <time>2024-01-12T13:56:09Z</time>
      </trkpt>
      <trkpt lat="42.9303" lon="0.29382">
        <ele>1163.28205</ele>
        <time>2024-01-12T13:56:10Z</time>
      </trkpt>
      <trkpt lat="42.93031" lon="0.29382">
        <ele>1163.7589</ele>
        <time>2024-01-12T13:56:11Z</time>
      </trkpt>
      <trkpt lat="42.93032" lon="0.29381">
        <ele>1165.37452</ele>
        <time>2024-01-12T13:56:12Z</time>
      </trkpt>
      <trkpt lat="42.93033" lon="0.29382">
        <ele>1164.88147</ele>
        <time>2024-01-12T13:56:13Z</time>
      </trkpt>
      <trkpt lat="42.93035" lon="0.29381">
        <ele>1165.32517</ele>
        <time>2024-01-12T13:56:14Z</time>
      </trkpt>
      <trkpt lat="42.93036" lon="0.29381">
        <ele>1165.40038</ele>
        <time>2024-01-12T13:56:15Z</time>
      </trkpt>
      <trkpt lat="42.93038" lon="0.29382">
        <ele>1165.10888</ele>
        <time>2024-01-12T13:56:16Z</time>
      </trkpt>
      <trkpt lat="42.93039" lon="0.29383">
        <ele>1162.49154</ele>
        <time>2024-01-12T13:56:18Z</time>
      </trkpt>
      <trkpt lat="42.93041" lon="0.29382">
        <ele>1163.30944</ele>
        <time>2024-01-12T13:56:20Z</time>
      </trkpt>
      <trkpt lat="42.93042" lon="0.29382">
        <ele>1162.483</ele>
        <time>2024-01-12T13:56:21Z</time>
      </trkpt>
      <trkpt lat="42.93043" lon="0.29382">
        <ele>1162.86839</ele>
        <time>2024-01-12T13:56:22Z</time>
      </trkpt>
      <trkpt lat="42.93045" lon="0.29381">
        <ele>1164.97775</ele>
        <time>2024-01-12T13:56:24Z</time>
      </trkpt>
      <trkpt lat="42.93047" lon="0.2938">
        <ele>1165.62933</ele>
        <time>2024-01-12T13:56:26Z</time>
      </trkpt>
      <trkpt lat="42.93048" lon="0.2938">
        <ele>1165.65864</ele>
        <time>2024-01-12T13:56:27Z</time>
      </trkpt>
      <trkpt lat="42.93049" lon="0.2938">
        <ele>1166.73985</ele>
        <time>2024-01-12T13:56:28Z</time>
      </trkpt>
      <trkpt lat="42.9305" lon="0.2938">
        <ele>1166.19818</ele>
        <time>2024-01-12T13:56:29Z</time>
      </trkpt>
      <trkpt lat="42.93052" lon="0.2938">
        <ele>1168.26411</ele>
        <time>2024-01-12T13:56:31Z</time>
      </trkpt>
      <trkpt lat="42.93053" lon="0.29381">
        <ele>1167.55852</ele>
        <time>2024-01-12T13:56:33Z</time>
      </trkpt>
      <trkpt lat="42.93054" lon="0.29382">
        <ele>1166.39787</ele>
        <time>2024-01-12T13:56:35Z</time>
      </trkpt>
      <trkpt lat="42.93055" lon="0.29381">
        <ele>1163.98757</ele>
        <time>2024-01-12T13:56:36Z</time>
      </trkpt>
      <trkpt lat="42.93056" lon="0.29381">
        <ele>1164.04089</ele>
        <time>2024-01-12T13:56:37Z</time>
      </trkpt>
      <trkpt lat="42.93058" lon="0.29382">
        <ele>1163.69191</ele>
        <time>2024-01-12T13:56:38Z</time>
      </trkpt>
      <trkpt lat="42.93059" lon="0.29382">
        <ele>1164.68027</ele>
        <time>2024-01-12T13:56:39Z</time>
      </trkpt>
      <trkpt lat="42.93061" lon="0.29382">
        <ele>1163.88177</ele>
        <time>2024-01-12T13:56:40Z</time>
      </trkpt>
      <trkpt lat="42.93062" lon="0.29382">
        <ele>1163.28059</ele>
        <time>2024-01-12T13:56:41Z</time>
      </trkpt>
      <trkpt lat="42.93063" lon="0.29382">
        <ele>1164.81682</ele>
        <time>2024-01-12T13:56:42Z</time>
      </trkpt>
      <trkpt lat="42.93064" lon="0.29382">
        <ele>1163.81105</ele>
        <time>2024-01-12T13:56:43Z</time>
      </trkpt>
      <trkpt lat="42.93065" lon="0.29382">
        <ele>1165.64739</ele>
        <time>2024-01-12T13:56:44Z</time>
      </trkpt>
      <trkpt lat="42.93066" lon="0.29382">
        <ele>1164.08223</ele>
        <time>2024-01-12T13:56:45Z</time>
      </trkpt>
      <trkpt lat="42.93067" lon="0.29383">
        <ele>1163.44701</ele>
        <time>2024-01-12T13:56:46Z</time>
      </trkpt>
      <trkpt lat="42.93068" lon="0.29383">
        <ele>1164.23819</ele>
        <time>2024-01-12T13:56:47Z</time>
      </trkpt>
      <trkpt lat="42.9307" lon="0.29383">
        <ele>1161.58081</ele>
        <time>2024-01-12T13:56:48Z</time>
      </trkpt>
      <trkpt lat="42.93072" lon="0.29383">
        <ele>1162.52767</ele>
        <time>2024-01-12T13:56:49Z</time>
      </trkpt>
      <trkpt lat="42.93073" lon="0.29383">
        <ele>1162.06579</ele>
        <time>2024-01-12T13:56:50Z</time>
      </trkpt>
      <trkpt lat="42.93074" lon="0.29382">
        <ele>1163.83877</ele>
        <time>2024-01-12T13:56:51Z</time>
      </trkpt>
      <trkpt lat="42.93075" lon="0.29382">
        <ele>1160.75982</ele>
        <time>2024-01-12T13:56:52Z</time>
      </trkpt>
      <trkpt lat="42.93076" lon="0.29381">
        <ele>1161.71254</ele>
        <time>2024-01-12T13:56:53Z</time>
      </trkpt>
      <trkpt lat="42.93077" lon="0.29381">
        <ele>1162.16887</ele>
        <time>2024-01-12T13:56:54Z</time>
      </trkpt>
      <trkpt lat="42.93078" lon="0.29381">
        <ele>1159.83091</ele>
        <time>2024-01-12T13:56:55Z</time>
      </trkpt>
      <trkpt lat="42.9308" lon="0.2938">
        <ele>1161.77549</ele>
        <time>2024-01-12T13:56:56Z</time>
      </trkpt>
      <trkpt lat="42.93081" lon="0.2938">
        <ele>1162.6305</ele>
        <time>2024-01-12T13:56:57Z</time>
      </trkpt>
      <trkpt lat="42.93083" lon="0.2938">
        <ele>1160.07386</ele>
        <time>2024-01-12T13:56:59Z</time>
      </trkpt>
      <trkpt lat="42.93085" lon="0.2938">
        <ele>1162.85192</ele>
        <time>2024-01-12T13:57:01Z</time>
      </trkpt>
      <trkpt lat="42.93086" lon="0.2938">
        <ele>1162.33447</ele>
        <time>2024-01-12T13:57:02Z</time>
      </trkpt>
      <trkpt lat="42.93087" lon="0.2938">
        <ele>1163.1256</ele>
        <time>2024-01-12T13:57:03Z</time>
      </trkpt>
      <trkpt lat="42.93089" lon="0.2938">
        <ele>1161.42512</ele>
        <time>2024-01-12T13:57:04Z</time>
      </trkpt>
      <trkpt lat="42.9309" lon="0.2938">
        <ele>1161.436</ele>
        <time>2024-01-12T13:57:05Z</time>
      </trkpt>
      <trkpt lat="42.93093" lon="0.29379">
        <ele>1163.80907</ele>
        <time>2024-01-12T13:57:06Z</time>
      </trkpt>
      <trkpt lat="42.93095" lon="0.2938">
        <ele>1161.23426</ele>
        <time>2024-01-12T13:57:08Z</time>
      </trkpt>
      <trkpt lat="42.93096" lon="0.29379">
        <ele>1161.9772</ele>
        <time>2024-01-12T13:57:09Z</time>
      </trkpt>
      <trkpt lat="42.93097" lon="0.29379">
        <ele>1159.67412</ele>
        <time>2024-01-12T13:57:10Z</time>
      </trkpt>
      <trkpt lat="42.93099" lon="0.29379">
        <ele>1159.01533</ele>
        <time>2024-01-12T13:57:11Z</time>
      </trkpt>
      <trkpt lat="42.931" lon="0.29378">
        <ele>1160.30387</ele>
        <time>2024-01-12T13:57:12Z</time>
      </trkpt>
      <trkpt lat="42.93102" lon="0.29378">
        <ele>1161.94973</ele>
        <time>2024-01-12T13:57:13Z</time>
      </trkpt>
      <trkpt lat="42.93104" lon="0.29378">
        <ele>1159.12742</ele>
        <time>2024-01-12T13:57:15Z</time>
      </trkpt>
      <trkpt lat="42.93105" lon="0.29378">
        <ele>1159.82737</ele>
        <time>2024-01-12T13:57:16Z</time>
      </trkpt>
      <trkpt lat="42.93107" lon="0.29379">
        <ele>1159.76463</ele>
        <time>2024-01-12T13:57:17Z</time>
      </trkpt>
      <trkpt lat="42.93109" lon="0.29379">
        <ele>1159.72881</ele>
        <time>2024-01-12T13:57:18Z</time>
      </trkpt>
      <trkpt lat="42.9311" lon="0.2938">
        <ele>1158.92768</ele>
        <time>2024-01-12T13:57:19Z</time>
      </trkpt>
      <trkpt lat="42.93111" lon="0.2938">
        <ele>1160.37547</ele>
        <time>2024-01-12T13:57:20Z</time>
      </trkpt>
      <trkpt lat="42.93112" lon="0.2938">
        <ele>1158.8763</ele>
        <time>2024-01-12T13:57:25Z</time>
      </trkpt>
      <trkpt lat="42.93113" lon="0.2938">
        <ele>1157.65092</ele>
        <time>2024-01-12T13:57:27Z</time>
      </trkpt>
      <trkpt lat="42.93115" lon="0.29379">
        <ele>1157.95461</ele>
        <time>2024-01-12T13:57:28Z</time>
      </trkpt>
      <trkpt lat="42.93116" lon="0.29379">
        <ele>1157.82014</ele>
        <time>2024-01-12T13:57:30Z</time>
      </trkpt>
      <trkpt lat="42.93117" lon="0.29378">
        <ele>1157.3554</ele>
        <time>2024-01-12T13:57:31Z</time>
      </trkpt>
      <trkpt lat="42.9312" lon="0.29377">
        <ele>1158.77092</ele>
        <time>2024-01-12T13:57:32Z</time>
      </trkpt>
      <trkpt lat="42.93121" lon="0.29377">
        <ele>1159.06735</ele>
        <time>2024-01-12T13:57:33Z</time>
      </trkpt>
      <trkpt lat="42.93122" lon="0.29378">
        <ele>1159.22794</ele>
        <time>2024-01-12T13:57:34Z</time>
      </trkpt>
      <trkpt lat="42.93124" lon="0.29378">
        <ele>1159.28342</ele>
        <time>2024-01-12T13:57:35Z</time>
      </trkpt>
      <trkpt lat="42.93126" lon="0.29378">
        <ele>1159.6086</ele>
        <time>2024-01-12T13:57:37Z</time>
      </trkpt>
      <trkpt lat="42.93127" lon="0.29378">
        <ele>1158.75868</ele>
        <time>2024-01-12T13:57:38Z</time>
      </trkpt>
      <trkpt lat="42.93129" lon="0.29378">
        <ele>1160.43605</ele>
        <time>2024-01-12T13:57:39Z</time>
      </trkpt>
      <trkpt lat="42.9313" lon="0.29378">
        <ele>1160.65857</ele>
        <time>2024-01-12T13:57:40Z</time>
      </trkpt>
      <trkpt lat="42.93132" lon="0.29379">
        <ele>1158.42935</ele>
        <time>2024-01-12T13:57:42Z</time>
      </trkpt>
      <trkpt lat="42.93134" lon="0.29379">
        <ele>1158.27807</ele>
        <time>2024-01-12T13:57:43Z</time>
      </trkpt>
      <trkpt lat="42.93135" lon="0.29379">
        <ele>1159.05678</ele>
        <time>2024-01-12T13:57:44Z</time>
      </trkpt>
      <trkpt lat="42.93136" lon="0.2938">
        <ele>1157.87019</ele>
        <time>2024-01-12T13:57:45Z</time>
      </trkpt>
      <trkpt lat="42.93138" lon="0.29379">
        <ele>1157.50846</ele>
        <time>2024-01-12T13:57:46Z</time>
      </trkpt>
      <trkpt lat="42.9314" lon="0.29379">
        <ele>1158.38625</ele>
        <time>2024-01-12T13:57:47Z</time>
      </trkpt>
      <trkpt lat="42.93141" lon="0.29378">
        <ele>1158.47856</ele>
        <time>2024-01-12T13:57:48Z</time>
      </trkpt>
      <trkpt lat="42.93144" lon="0.29378">
        <ele>1156.65017</ele>
        <time>2024-01-12T13:57:50Z</time>
      </trkpt>
      <trkpt lat="42.93146" lon="0.29378">
        <ele>1157.17516</ele>
        <time>2024-01-12T13:57:51Z</time>
      </trkpt>
      <trkpt lat="42.93147" lon="0.29378">
        <ele>1157.93125</ele>
        <time>2024-01-12T13:57:52Z</time>
      </trkpt>
      <trkpt lat="42.93149" lon="0.29378">
        <ele>1157.8219</ele>
        <time>2024-01-12T13:57:53Z</time>
      </trkpt>
      <trkpt lat="42.9315" lon="0.29378">
        <ele>1158.10046</ele>
        <time>2024-01-12T13:57:54Z</time>
      </trkpt>
      <trkpt lat="42.93151" lon="0.29378">
        <ele>1157.93038</ele>
        <time>2024-01-12T13:57:55Z</time>
      </trkpt>
      <trkpt lat="42.93153" lon="0.29379">
        <ele>1159.19514</ele>
        <time>2024-01-12T13:57:57Z</time>
      </trkpt>
      <trkpt lat="42.93156" lon="0.29378">
        <ele>1156.91423</ele>
        <time>2024-01-12T13:58:01Z</time>
      </trkpt>
      <trkpt lat="42.93158" lon="0.29378">
        <ele>1156.74603</ele>
        <time>2024-01-12T13:58:02Z</time>
      </trkpt>
      <trkpt lat="42.9316" lon="0.29378">
        <ele>1154.94553</ele>
        <time>2024-01-12T13:58:03Z</time>
      </trkpt>
      <trkpt lat="42.93161" lon="0.29377">
        <ele>1156.09155</ele>
        <time>2024-01-12T13:58:04Z</time>
      </trkpt>
      <trkpt lat="42.93162" lon="0.29378">
        <ele>1153.1749</ele>
        <time>2024-01-12T13:58:06Z</time>
      </trkpt>
      <trkpt lat="42.93164" lon="0.29378">
        <ele>1154.71469</ele>
        <time>2024-01-12T13:58:07Z</time>
      </trkpt>
      <trkpt lat="42.93165" lon="0.29377">
        <ele>1156.11126</ele>
        <time>2024-01-12T13:58:09Z</time>
      </trkpt>
      <trkpt lat="42.93166" lon="0.29377">
        <ele>1155.89682</ele>
        <time>2024-01-12T13:58:10Z</time>
      </trkpt>
      <trkpt lat="42.93168" lon="0.29377">
        <ele>1157.44303</ele>
        <time>2024-01-12T13:58:12Z</time>
      </trkpt>
      <trkpt lat="42.93169" lon="0.29376">
        <ele>1157.3885</ele>
        <time>2024-01-12T13:58:13Z</time>
      </trkpt>
      <trkpt lat="42.93171" lon="0.29376">
        <ele>1157.23411</ele>
        <time>2024-01-12T13:58:14Z</time>
      </trkpt>
      <trkpt lat="42.93172" lon="0.29375">
        <ele>1156.35921</ele>
        <time>2024-01-12T13:58:15Z</time>
      </trkpt>
      <trkpt lat="42.93174" lon="0.29375">
        <ele>1155.8256</ele>
        <time>2024-01-12T13:58:16Z</time>
      </trkpt>
      <trkpt lat="42.93175" lon="0.29375">
        <ele>1153.50643</ele>
        <time>2024-01-12T13:58:17Z</time>
      </trkpt>
      <trkpt lat="42.93176" lon="0.29374">
        <ele>1151.77202</ele>
        <time>2024-01-12T13:58:18Z</time>
      </trkpt>
      <trkpt lat="42.93178" lon="0.29373">
        <ele>1153.66987</ele>
        <time>2024-01-12T13:58:19Z</time>
      </trkpt>
      <trkpt lat="42.93179" lon="0.29373">
        <ele>1153.41184</ele>
        <time>2024-01-12T13:58:20Z</time>
      </trkpt>
      <trkpt lat="42.93181" lon="0.29372">
        <ele>1153.02121</ele>
        <time>2024-01-12T13:58:21Z</time>
      </trkpt>
      <trkpt lat="42.93182" lon="0.29372">
        <ele>1153.92915</ele>
        <time>2024-01-12T13:58:22Z</time>
      </trkpt>
      <trkpt lat="42.93184" lon="0.29372">
        <ele>1153.7278</ele>
        <time>2024-01-12T13:58:24Z</time>
      </trkpt>
      <trkpt lat="42.93186" lon="0.29371">
        <ele>1154.25389</ele>
        <time>2024-01-12T13:58:25Z</time>
      </trkpt>
      <trkpt lat="42.93187" lon="0.29371">
        <ele>1155.13499</ele>
        <time>2024-01-12T13:58:26Z</time>
      </trkpt>
      <trkpt lat="42.93188" lon="0.29371">
        <ele>1152.47777</ele>
        <time>2024-01-12T13:58:27Z</time>
      </trkpt>
      <trkpt lat="42.93189" lon="0.29371">
        <ele>1152.38425</ele>
        <time>2024-01-12T13:58:28Z</time>
      </trkpt>
      <trkpt lat="42.93191" lon="0.2937">
        <ele>1151.4571</ele>
        <time>2024-01-12T13:58:30Z</time>
      </trkpt>
      <trkpt lat="42.93192" lon="0.2937">
        <ele>1150.49404</ele>
        <time>2024-01-12T13:58:31Z</time>
      </trkpt>
      <trkpt lat="42.93193" lon="0.2937">
        <ele>1149.82259</ele>
        <time>2024-01-12T13:58:32Z</time>
      </trkpt>
      <trkpt lat="42.93194" lon="0.29369">
        <ele>1150.24408</ele>
        <time>2024-01-12T13:58:33Z</time>
      </trkpt>
      <trkpt lat="42.93196" lon="0.29368">
        <ele>1150.59401</ele>
        <time>2024-01-12T13:58:34Z</time>
      </trkpt>
      <trkpt lat="42.93197" lon="0.29367">
        <ele>1151.43928</ele>
        <time>2024-01-12T13:58:35Z</time>
      </trkpt>
      <trkpt lat="42.93199" lon="0.29367">
        <ele>1149.23969</ele>
        <time>2024-01-12T13:58:37Z</time>
      </trkpt>
      <trkpt lat="42.93199" lon="0.29366">
        <ele>1151.22916</ele>
        <time>2024-01-12T13:58:38Z</time>
      </trkpt>
      <trkpt lat="42.932" lon="0.29365">
        <ele>1149.43241</ele>
        <time>2024-01-12T13:58:39Z</time>
      </trkpt>
      <trkpt lat="42.93202" lon="0.29364">
        <ele>1148.52317</ele>
        <time>2024-01-12T13:58:41Z</time>
      </trkpt>
      <trkpt lat="42.93203" lon="0.29363">
        <ele>1148.13313</ele>
        <time>2024-01-12T13:58:42Z</time>
      </trkpt>
      <trkpt lat="42.93205" lon="0.29362">
        <ele>1148.16453</ele>
        <time>2024-01-12T13:58:43Z</time>
      </trkpt>
      <trkpt lat="42.93206" lon="0.29362">
        <ele>1147.16463</ele>
        <time>2024-01-12T13:58:44Z</time>
      </trkpt>
      <trkpt lat="42.93208" lon="0.29362">
        <ele>1146.96344</ele>
        <time>2024-01-12T13:58:45Z</time>
      </trkpt>
      <trkpt lat="42.93209" lon="0.2936">
        <ele>1148.1776</ele>
        <time>2024-01-12T13:58:46Z</time>
      </trkpt>
      <trkpt lat="42.93211" lon="0.29359">
        <ele>1148.29329</ele>
        <time>2024-01-12T13:58:47Z</time>
      </trkpt>
      <trkpt lat="42.93212" lon="0.29359">
        <ele>1149.36407</ele>
        <time>2024-01-12T13:58:48Z</time>
      </trkpt>
      <trkpt lat="42.93213" lon="0.29358">
        <ele>1149.34379</ele>
        <time>2024-01-12T13:58:49Z</time>
      </trkpt>
      <trkpt lat="42.93214" lon="0.29357">
        <ele>1147.88317</ele>
        <time>2024-01-12T13:58:50Z</time>
      </trkpt>
      <trkpt lat="42.93215" lon="0.29357">
        <ele>1148.94097</ele>
        <time>2024-01-12T13:58:51Z</time>
      </trkpt>
      <trkpt lat="42.93217" lon="0.29355">
        <ele>1149.74235</ele>
        <time>2024-01-12T13:58:52Z</time>
      </trkpt>
      <trkpt lat="42.93218" lon="0.29354">
        <ele>1148.53245</ele>
        <time>2024-01-12T13:58:53Z</time>
      </trkpt>
      <trkpt lat="42.93219" lon="0.29353">
        <ele>1148.60378</ele>
        <time>2024-01-12T13:58:54Z</time>
      </trkpt>
      <trkpt lat="42.93221" lon="0.29352">
        <ele>1150.15597</ele>
        <time>2024-01-12T13:58:55Z</time>
      </trkpt>
      <trkpt lat="42.93222" lon="0.29351">
        <ele>1148.93783</ele>
        <time>2024-01-12T13:58:56Z</time>
      </trkpt>
      <trkpt lat="42.93223" lon="0.2935">
        <ele>1150.44433</ele>
        <time>2024-01-12T13:58:57Z</time>
      </trkpt>
      <trkpt lat="42.93224" lon="0.2935">
        <ele>1149.53354</ele>
        <time>2024-01-12T13:58:58Z</time>
      </trkpt>
      <trkpt lat="42.93224" lon="0.29348">
        <ele>1150.14356</ele>
        <time>2024-01-12T13:59:00Z</time>
      </trkpt>
      <trkpt lat="42.93225" lon="0.29347">
        <ele>1149.38009</ele>
        <time>2024-01-12T13:59:02Z</time>
      </trkpt>
      <trkpt lat="42.93226" lon="0.29346">
        <ele>1149.52067</ele>
        <time>2024-01-12T13:59:03Z</time>
      </trkpt>
      <trkpt lat="42.93227" lon="0.29345">
        <ele>1149.86598</ele>
        <time>2024-01-12T13:59:04Z</time>
      </trkpt>
      <trkpt lat="42.93228" lon="0.29344">
        <ele>1149.70256</ele>
        <time>2024-01-12T13:59:06Z</time>
      </trkpt>
      <trkpt lat="42.93228" lon="0.29343">
        <ele>1148.75974</ele>
        <time>2024-01-12T13:59:07Z</time>
      </trkpt>
      <trkpt lat="42.93229" lon="0.29342">
        <ele>1149.1527</ele>
        <time>2024-01-12T13:59:08Z</time>
      </trkpt>
      <trkpt lat="42.93231" lon="0.29341">
        <ele>1149.38068</ele>
        <time>2024-01-12T13:59:09Z</time>
      </trkpt>
      <trkpt lat="42.93232" lon="0.29339">
        <ele>1148.96409</ele>
        <time>2024-01-12T13:59:10Z</time>
      </trkpt>
      <trkpt lat="42.93233" lon="0.29338">
        <ele>1149.03517</ele>
        <time>2024-01-12T13:59:11Z</time>
      </trkpt>
      <trkpt lat="42.93234" lon="0.29337">
        <ele>1148.43431</ele>
        <time>2024-01-12T13:59:12Z</time>
      </trkpt>
      <trkpt lat="42.93235" lon="0.29336">
        <ele>1148.14464</ele>
        <time>2024-01-12T13:59:14Z</time>
      </trkpt>
      <trkpt lat="42.93236" lon="0.29335">
        <ele>1149.08588</ele>
        <time>2024-01-12T13:59:15Z</time>
      </trkpt>
      <trkpt lat="42.93238" lon="0.29334">
        <ele>1150.42336</ele>
        <time>2024-01-12T13:59:17Z</time>
      </trkpt>
      <trkpt lat="42.9324" lon="0.29333">
        <ele>1149.8765</ele>
        <time>2024-01-12T13:59:18Z</time>
      </trkpt>
      <trkpt lat="42.93241" lon="0.29332">
        <ele>1150.92337</ele>
        <time>2024-01-12T13:59:19Z</time>
      </trkpt>
      <trkpt lat="42.93242" lon="0.29332">
        <ele>1153.5945</ele>
        <time>2024-01-12T13:59:20Z</time>
      </trkpt>
      <trkpt lat="42.93244" lon="0.29331">
        <ele>1151.80376</ele>
        <time>2024-01-12T13:59:22Z</time>
      </trkpt>
      <trkpt lat="42.93246" lon="0.29331">
        <ele>1150.88372</ele>
        <time>2024-01-12T13:59:23Z</time>
      </trkpt>
      <trkpt lat="42.93247" lon="0.2933">
        <ele>1149.49945</ele>
        <time>2024-01-12T13:59:24Z</time>
      </trkpt>
      <trkpt lat="42.93248" lon="0.2933">
        <ele>1149.80208</ele>
        <time>2024-01-12T13:59:25Z</time>
      </trkpt>
      <trkpt lat="42.93249" lon="0.2933">
        <ele>1150.37743</ele>
        <time>2024-01-12T13:59:26Z</time>
      </trkpt>
      <trkpt lat="42.9325" lon="0.2933">
        <ele>1149.3064</ele>
        <time>2024-01-12T13:59:27Z</time>
      </trkpt>
      <trkpt lat="42.93252" lon="0.2933">
        <ele>1148.79204</ele>
        <time>2024-01-12T13:59:28Z</time>
      </trkpt>
      <trkpt lat="42.93253" lon="0.2933">
        <ele>1149.40254</ele>
        <time>2024-01-12T13:59:29Z</time>
      </trkpt>
      <trkpt lat="42.93255" lon="0.29328">
        <ele>1149.98318</ele>
        <time>2024-01-12T13:59:30Z</time>
      </trkpt>
      <trkpt lat="42.93257" lon="0.29327">
        <ele>1148.89379</ele>
        <time>2024-01-12T13:59:32Z</time>
      </trkpt>
      <trkpt lat="42.93259" lon="0.29326">
        <ele>1149.31895</ele>
        <time>2024-01-12T13:59:33Z</time>
      </trkpt>
      <trkpt lat="42.93261" lon="0.29325">
        <ele>1148.08682</ele>
        <time>2024-01-12T13:59:35Z</time>
      </trkpt>
      <trkpt lat="42.93262" lon="0.29325">
        <ele>1147.5185</ele>
        <time>2024-01-12T13:59:37Z</time>
      </trkpt>
      <trkpt lat="42.93264" lon="0.29324">
        <ele>1146.56212</ele>
        <time>2024-01-12T13:59:39Z</time>
      </trkpt>
      <trkpt lat="42.93265" lon="0.29323">
        <ele>1146.18032</ele>
        <time>2024-01-12T13:59:40Z</time>
      </trkpt>
      <trkpt lat="42.93266" lon="0.29322">
        <ele>1145.48388</ele>
        <time>2024-01-12T13:59:41Z</time>
      </trkpt>
      <trkpt lat="42.93267" lon="0.29321">
        <ele>1144.52214</ele>
        <time>2024-01-12T13:59:43Z</time>
      </trkpt>
      <trkpt lat="42.93268" lon="0.2932">
        <ele>1145.50476</ele>
        <time>2024-01-12T13:59:44Z</time>
      </trkpt>
      <trkpt lat="42.93269" lon="0.29318">
        <ele>1145.7787</ele>
        <time>2024-01-12T13:59:46Z</time>
      </trkpt>
      <trkpt lat="42.9327" lon="0.29317">
        <ele>1142.59176</ele>
        <time>2024-01-12T13:59:48Z</time>
      </trkpt>
      <trkpt lat="42.93271" lon="0.29316">
        <ele>1142.77629</ele>
        <time>2024-01-12T13:59:50Z</time>
      </trkpt>
      <trkpt lat="42.93272" lon="0.29315">
        <ele>1141.91169</ele>
        <time>2024-01-12T13:59:51Z</time>
      </trkpt>
      <trkpt lat="42.93271" lon="0.29314">
        <ele>1142.91415</ele>
        <time>2024-01-12T14:00:03Z</time>
      </trkpt>
      <trkpt lat="42.9327" lon="0.29313">
        <ele>1142.99862</ele>
        <time>2024-01-12T14:00:04Z</time>
      </trkpt>
      <trkpt lat="42.93269" lon="0.29313">
        <ele>1143.22846</ele>
        <time>2024-01-12T14:00:07Z</time>
      </trkpt>
      <trkpt lat="42.93268" lon="0.29316">
        <ele>1142.17043</ele>
        <time>2024-01-12T14:00:16Z</time>
      </trkpt>
      <trkpt lat="42.93268" lon="0.2932">
        <ele>1142.71154</ele>
        <time>2024-01-12T14:00:22Z</time>
      </trkpt>
      <trkpt lat="42.93268" lon="0.29321">
        <ele>1141.99588</ele>
        <time>2024-01-12T14:00:27Z</time>
      </trkpt>
      <trkpt lat="42.93269" lon="0.29322">
        <ele>1141.76774</ele>
        <time>2024-01-12T14:00:37Z</time>
      </trkpt>
      <trkpt lat="42.9327" lon="0.2932">
        <ele>1141.49218</ele>
        <time>2024-01-12T14:00:40Z</time>
      </trkpt>
      <trkpt lat="42.9327" lon="0.29318">
        <ele>1141.26349</ele>
        <time>2024-01-12T14:00:41Z</time>
      </trkpt>
      <trkpt lat="42.93271" lon="0.29318">
        <ele>1141.66145</ele>
        <time>2024-01-12T14:00:43Z</time>
      </trkpt>
      <trkpt lat="42.93272" lon="0.29317">
        <ele>1141.21353</ele>
        <time>2024-01-12T14:00:49Z</time>
      </trkpt>
      <trkpt lat="42.9327" lon="0.29319">
        <ele>1141.90586</ele>
        <time>2024-01-12T14:00:58Z</time>
      </trkpt>
      <trkpt lat="42.93267" lon="0.29322">
        <ele>1140.92143</ele>
        <time>2024-01-12T14:01:05Z</time>
      </trkpt>
      <trkpt lat="42.93266" lon="0.29324">
        <ele>1140.41042</ele>
        <time>2024-01-12T14:01:07Z</time>
      </trkpt>
      <trkpt lat="42.93265" lon="0.29324">
        <ele>1142.5975</ele>
        <time>2024-01-12T14:01:12Z</time>
      </trkpt>
      <trkpt lat="42.93267" lon="0.29327">
        <ele>1144.64542</ele>
        <time>2024-01-12T14:01:25Z</time>
      </trkpt>
      <trkpt lat="42.93267" lon="0.29325">
        <ele>1142.22243</ele>
        <time>2024-01-12T14:01:28Z</time>
      </trkpt>
      <trkpt lat="42.93267" lon="0.29323">
        <ele>1140.49577</ele>
        <time>2024-01-12T14:01:33Z</time>
      </trkpt>
      <trkpt lat="42.93267" lon="0.29325">
        <ele>1147.57274</ele>
        <time>2024-01-12T14:01:43Z</time>
      </trkpt>
      <trkpt lat="42.93268" lon="0.29323">
        <ele>1147.34058</ele>
        <time>2024-01-12T14:01:45Z</time>
      </trkpt>
      <trkpt lat="42.93269" lon="0.29322">
        <ele>1146.55687</ele>
        <time>2024-01-12T14:01:47Z</time>
      </trkpt>
      <trkpt lat="42.93269" lon="0.29321">
        <ele>1150.17623</ele>
        <time>2024-01-12T14:01:52Z</time>
      </trkpt>
      <trkpt lat="42.93269" lon="0.29319">
        <ele>1151.49418</ele>
        <time>2024-01-12T14:01:54Z</time>
      </trkpt>
      <trkpt lat="42.9327" lon="0.29315">
        <ele>1144.11825</ele>
        <time>2024-01-12T14:02:09Z</time>
      </trkpt>
      <trkpt lat="42.9327" lon="0.29313">
        <ele>1149.65502</ele>
        <time>2024-01-12T14:02:21Z</time>
      </trkpt>
      <trkpt lat="42.93271" lon="0.29311">
        <ele>1150.58311</ele>
        <time>2024-01-12T14:02:23Z</time>
      </trkpt>
      <trkpt lat="42.93272" lon="0.29311">
        <ele>1147.55139</ele>
        <time>2024-01-12T14:02:32Z</time>
      </trkpt>
      <trkpt lat="42.93273" lon="0.29311">
        <ele>1143.93011</ele>
        <time>2024-01-12T14:02:37Z</time>
      </trkpt>
      <trkpt lat="42.93274" lon="0.29311">
        <ele>1142.25275</ele>
        <time>2024-01-12T14:02:52Z</time>
      </trkpt>
      <trkpt lat="42.93276" lon="0.2931">
        <ele>1144.82447</ele>
        <time>2024-01-12T14:02:53Z</time>
      </trkpt>
      <trkpt lat="42.93275" lon="0.29308">
        <ele>1145.04106</ele>
        <time>2024-01-12T14:02:54Z</time>
      </trkpt>
      <trkpt lat="42.93274" lon="0.2931">
        <ele>1143.27216</ele>
        <time>2024-01-12T14:02:55Z</time>
      </trkpt>
      <trkpt lat="42.93273" lon="0.29311">
        <ele>1143.03399</ele>
        <time>2024-01-12T14:02:57Z</time>
      </trkpt>
      <trkpt lat="42.93273" lon="0.29313">
        <ele>1143.67049</ele>
        <time>2024-01-12T14:03:01Z</time>
      </trkpt>
      <trkpt lat="42.93274" lon="0.29314">
        <ele>1141.55054</ele>
        <time>2024-01-12T14:03:03Z</time>
      </trkpt>
      <trkpt lat="42.93271" lon="0.29318">
        <ele>1146.75614</ele>
        <time>2024-01-12T14:03:14Z</time>
      </trkpt>
      <trkpt lat="42.93271" lon="0.2932">
        <ele>1149.30323</ele>
        <time>2024-01-12T14:03:17Z</time>
      </trkpt>
      <trkpt lat="42.93274" lon="0.2932">
        <ele>1135.26469</ele>
        <time>2024-01-12T14:03:25Z</time>
      </trkpt>
      <trkpt lat="42.93274" lon="0.29318">
        <ele>1135.26674</ele>
        <time>2024-01-12T14:03:27Z</time>
      </trkpt>
      <trkpt lat="42.93275" lon="0.29317">
        <ele>1134.89695</ele>
        <time>2024-01-12T14:03:29Z</time>
      </trkpt>
      <trkpt lat="42.93276" lon="0.29317">
        <ele>1137.72073</ele>
        <time>2024-01-12T14:03:32Z</time>
      </trkpt>
      <trkpt lat="42.93277" lon="0.29317">
        <ele>1137.96372</ele>
        <time>2024-01-12T14:03:34Z</time>
      </trkpt>
      <trkpt lat="42.93277" lon="0.29316">
        <ele>1137.36909</ele>
        <time>2024-01-12T14:03:36Z</time>
      </trkpt>
      <trkpt lat="42.93276" lon="0.29314">
        <ele>1137.41842</ele>
        <time>2024-01-12T14:03:45Z</time>
      </trkpt>
      <trkpt lat="42.93277" lon="0.29312">
        <ele>1138.50505</ele>
        <time>2024-01-12T14:03:48Z</time>
      </trkpt>
      <trkpt lat="42.93278" lon="0.29311">
        <ele>1138.75591</ele>
        <time>2024-01-12T14:03:50Z</time>
      </trkpt>
      <trkpt lat="42.93279" lon="0.2931">
        <ele>1138.28778</ele>
        <time>2024-01-12T14:03:51Z</time>
      </trkpt>
      <trkpt lat="42.9328" lon="0.29309">
        <ele>1138.73988</ele>
        <time>2024-01-12T14:03:52Z</time>
      </trkpt>
      <trkpt lat="42.93281" lon="0.29307">
        <ele>1139.11516</ele>
        <time>2024-01-12T14:03:55Z</time>
      </trkpt>
      <trkpt lat="42.93281" lon="0.29308">
        <ele>1138.15708</ele>
        <time>2024-01-12T14:03:57Z</time>
      </trkpt>
      <trkpt lat="42.93282" lon="0.29307">
        <ele>1137.74809</ele>
        <time>2024-01-12T14:03:58Z</time>
      </trkpt>
      <trkpt lat="42.93283" lon="0.29306">
        <ele>1139.64961</ele>
        <time>2024-01-12T14:03:59Z</time>
      </trkpt>
      <trkpt lat="42.93284" lon="0.29306">
        <ele>1140.58743</ele>
        <time>2024-01-12T14:04:00Z</time>
      </trkpt>
      <trkpt lat="42.93286" lon="0.29304">
        <ele>1139.56478</ele>
        <time>2024-01-12T14:04:02Z</time>
      </trkpt>
      <trkpt lat="42.93287" lon="0.29303">
        <ele>1139.54551</ele>
        <time>2024-01-12T14:04:03Z</time>
      </trkpt>
      <trkpt lat="42.93288" lon="0.29302">
        <ele>1139.37466</ele>
        <time>2024-01-12T14:04:05Z</time>
      </trkpt>
      <trkpt lat="42.9329" lon="0.29299">
        <ele>1140.18756</ele>
        <time>2024-01-12T14:04:07Z</time>
      </trkpt>
      <trkpt lat="42.93291" lon="0.29297">
        <ele>1141.50839</ele>
        <time>2024-01-12T14:04:09Z</time>
      </trkpt>
      <trkpt lat="42.93293" lon="0.29296">
        <ele>1141.1165</ele>
        <time>2024-01-12T14:04:11Z</time>
      </trkpt>
      <trkpt lat="42.93293" lon="0.29295">
        <ele>1140.88992</ele>
        <time>2024-01-12T14:04:12Z</time>
      </trkpt>
      <trkpt lat="42.93294" lon="0.29293">
        <ele>1141.04035</ele>
        <time>2024-01-12T14:04:14Z</time>
      </trkpt>
      <trkpt lat="42.93296" lon="0.29292">
        <ele>1139.30244</ele>
        <time>2024-01-12T14:04:16Z</time>
      </trkpt>
      <trkpt lat="42.93297" lon="0.29291">
        <ele>1140.47644</ele>
        <time>2024-01-12T14:04:17Z</time>
      </trkpt>
      <trkpt lat="42.93298" lon="0.2929">
        <ele>1140.03541</ele>
        <time>2024-01-12T14:04:19Z</time>
      </trkpt>
      <trkpt lat="42.933" lon="0.29289">
        <ele>1140.32295</ele>
        <time>2024-01-12T14:04:20Z</time>
      </trkpt>
      <trkpt lat="42.933" lon="0.29288">
        <ele>1139.76607</ele>
        <time>2024-01-12T14:04:21Z</time>
      </trkpt>
      <trkpt lat="42.93301" lon="0.29287">
        <ele>1139.44829</ele>
        <time>2024-01-12T14:04:22Z</time>
      </trkpt>
      <trkpt lat="42.93302" lon="0.29286">
        <ele>1139.01819</ele>
        <time>2024-01-12T14:04:23Z</time>
      </trkpt>
      <trkpt lat="42.93303" lon="0.29285">
        <ele>1139.59817</ele>
        <time>2024-01-12T14:04:24Z</time>
      </trkpt>
      <trkpt lat="42.93304" lon="0.29284">
        <ele>1138.93635</ele>
        <time>2024-01-12T14:04:25Z</time>
      </trkpt>
      <trkpt lat="42.93305" lon="0.29283">
        <ele>1138.58152</ele>
        <time>2024-01-12T14:04:26Z</time>
      </trkpt>
      <trkpt lat="42.93306" lon="0.29282">
        <ele>1140.06069</ele>
        <time>2024-01-12T14:04:27Z</time>
      </trkpt>
      <trkpt lat="42.93307" lon="0.29281">
        <ele>1140.56082</ele>
        <time>2024-01-12T14:04:28Z</time>
      </trkpt>
      <trkpt lat="42.93308" lon="0.2928">
        <ele>1140.69448</ele>
        <time>2024-01-12T14:04:29Z</time>
      </trkpt>
      <trkpt lat="42.93308" lon="0.29279">
        <ele>1139.67296</ele>
        <time>2024-01-12T14:04:30Z</time>
      </trkpt>
      <trkpt lat="42.93309" lon="0.29278">
        <ele>1138.30366</ele>
        <time>2024-01-12T14:04:31Z</time>
      </trkpt>
      <trkpt lat="42.9331" lon="0.29277">
        <ele>1139.55439</ele>
        <time>2024-01-12T14:04:32Z</time>
      </trkpt>
      <trkpt lat="42.93311" lon="0.29275">
        <ele>1140.08072</ele>
        <time>2024-01-12T14:04:33Z</time>
      </trkpt>
      <trkpt lat="42.93312" lon="0.29274">
        <ele>1141.27188</ele>
        <time>2024-01-12T14:04:34Z</time>
      </trkpt>
      <trkpt lat="42.93312" lon="0.29274">
        <ele>1141.02693</ele>
        <time>2024-01-12T14:04:35Z</time>
      </trkpt>
      <trkpt lat="42.9331" lon="0.29274">
        <ele>1138.47164</ele>
        <time>2024-01-12T14:04:37Z</time>
      </trkpt>
      <trkpt lat="42.93311" lon="0.29274">
        <ele>1137.68668</ele>
        <time>2024-01-12T14:04:41Z</time>
      </trkpt>
      <trkpt lat="42.93312" lon="0.29273">
        <ele>1137.10647</ele>
        <time>2024-01-12T14:04:42Z</time>
      </trkpt>
      <trkpt lat="42.93314" lon="0.29271">
        <ele>1135.60417</ele>
        <time>2024-01-12T14:04:44Z</time>
      </trkpt>
      <trkpt lat="42.93316" lon="0.2927">
        <ele>1136.61597</ele>
        <time>2024-01-12T14:04:45Z</time>
      </trkpt>
      <trkpt lat="42.93317" lon="0.29269">
        <ele>1138.27045</ele>
        <time>2024-01-12T14:04:46Z</time>
      </trkpt>
      <trkpt lat="42.93318" lon="0.29268">
        <ele>1138.75877</ele>
        <time>2024-01-12T14:04:47Z</time>
      </trkpt>
      <trkpt lat="42.93319" lon="0.29267">
        <ele>1139.22952</ele>
        <time>2024-01-12T14:04:48Z</time>
      </trkpt>
      <trkpt lat="42.9332" lon="0.29266">
        <ele>1139.70847</ele>
        <time>2024-01-12T14:04:49Z</time>
      </trkpt>
      <trkpt lat="42.93321" lon="0.29265">
        <ele>1139.3048</ele>
        <time>2024-01-12T14:04:50Z</time>
      </trkpt>
      <trkpt lat="42.93322" lon="0.29263">
        <ele>1138.09124</ele>
        <time>2024-01-12T14:04:52Z</time>
      </trkpt>
      <trkpt lat="42.93323" lon="0.29261">
        <ele>1138.12734</ele>
        <time>2024-01-12T14:04:53Z</time>
      </trkpt>
      <trkpt lat="42.93324" lon="0.2926">
        <ele>1137.68454</ele>
        <time>2024-01-12T14:04:54Z</time>
      </trkpt>
      <trkpt lat="42.93325" lon="0.29259">
        <ele>1136.38393</ele>
        <time>2024-01-12T14:04:56Z</time>
      </trkpt>
      <trkpt lat="42.93326" lon="0.29258">
        <ele>1136.6855</ele>
        <time>2024-01-12T14:04:57Z</time>
      </trkpt>
      <trkpt lat="42.93327" lon="0.29257">
        <ele>1137.01153</ele>
        <time>2024-01-12T14:04:58Z</time>
      </trkpt>
      <trkpt lat="42.93328" lon="0.29255">
        <ele>1137.66346</ele>
        <time>2024-01-12T14:04:59Z</time>
      </trkpt>
      <trkpt lat="42.9333" lon="0.29254">
        <ele>1137.44094</ele>
        <time>2024-01-12T14:05:00Z</time>
      </trkpt>
      <trkpt lat="42.9333" lon="0.29253">
        <ele>1137.14282</ele>
        <time>2024-01-12T14:05:01Z</time>
      </trkpt>
      <trkpt lat="42.93331" lon="0.2925">
        <ele>1137.75625</ele>
        <time>2024-01-12T14:05:03Z</time>
      </trkpt>
      <trkpt lat="42.93333" lon="0.2925">
        <ele>1138.40256</ele>
        <time>2024-01-12T14:05:04Z</time>
      </trkpt>
      <trkpt lat="42.93334" lon="0.29248">
        <ele>1139.80694</ele>
        <time>2024-01-12T14:05:06Z</time>
      </trkpt>
      <trkpt lat="42.93335" lon="0.29247">
        <ele>1139.87883</ele>
        <time>2024-01-12T14:05:07Z</time>
      </trkpt>
      <trkpt lat="42.93336" lon="0.29246">
        <ele>1140.87035</ele>
        <time>2024-01-12T14:05:08Z</time>
      </trkpt>
      <trkpt lat="42.93337" lon="0.29243">
        <ele>1138.54846</ele>
        <time>2024-01-12T14:05:10Z</time>
      </trkpt>
      <trkpt lat="42.93337" lon="0.29242">
        <ele>1138.63456</ele>
        <time>2024-01-12T14:05:11Z</time>
      </trkpt>
      <trkpt lat="42.93338" lon="0.29241">
        <ele>1138.93241</ele>
        <time>2024-01-12T14:05:12Z</time>
      </trkpt>
      <trkpt lat="42.93339" lon="0.29239">
        <ele>1138.21479</ele>
        <time>2024-01-12T14:05:13Z</time>
      </trkpt>
      <trkpt lat="42.9334" lon="0.29239">
        <ele>1138.75317</ele>
        <time>2024-01-12T14:05:14Z</time>
      </trkpt>
      <trkpt lat="42.93341" lon="0.29238">
        <ele>1139.08479</ele>
        <time>2024-01-12T14:05:15Z</time>
      </trkpt>
      <trkpt lat="42.93342" lon="0.29236">
        <ele>1139.25885</ele>
        <time>2024-01-12T14:05:16Z</time>
      </trkpt>
      <trkpt lat="42.93343" lon="0.29235">
        <ele>1139.29913</ele>
        <time>2024-01-12T14:05:17Z</time>
      </trkpt>
      <trkpt lat="42.93344" lon="0.29235">
        <ele>1139.14228</ele>
        <time>2024-01-12T14:05:18Z</time>
      </trkpt>
      <trkpt lat="42.93345" lon="0.29233">
        <ele>1139.05636</ele>
        <time>2024-01-12T14:05:19Z</time>
      </trkpt>
      <trkpt lat="42.93345" lon="0.29232">
        <ele>1140.09957</ele>
        <time>2024-01-12T14:05:20Z</time>
      </trkpt>
      <trkpt lat="42.93346" lon="0.29231">
        <ele>1140.52706</ele>
        <time>2024-01-12T14:05:21Z</time>
      </trkpt>
      <trkpt lat="42.93345" lon="0.29231">
        <ele>1138.6493</ele>
        <time>2024-01-12T14:05:24Z</time>
      </trkpt>
      <trkpt lat="42.93344" lon="0.29232">
        <ele>1138.6012</ele>
        <time>2024-01-12T14:05:26Z</time>
      </trkpt>
      <trkpt lat="42.93343" lon="0.29233">
        <ele>1137.90551</ele>
        <time>2024-01-12T14:05:29Z</time>
      </trkpt>
      <trkpt lat="42.93342" lon="0.29234">
        <ele>1138.22895</ele>
        <time>2024-01-12T14:05:32Z</time>
      </trkpt>
      <trkpt lat="42.93342" lon="0.29235">
        <ele>1136.51609</ele>
        <time>2024-01-12T14:05:35Z</time>
      </trkpt>
      <trkpt lat="42.93343" lon="0.29233">
        <ele>1138.14174</ele>
        <time>2024-01-12T14:05:38Z</time>
      </trkpt>
      <trkpt lat="42.93345" lon="0.29231">
        <ele>1139.13695</ele>
        <time>2024-01-12T14:05:39Z</time>
      </trkpt>
      <trkpt lat="42.93346" lon="0.29229">
        <ele>1139.46464</ele>
        <time>2024-01-12T14:05:40Z</time>
      </trkpt>
      <trkpt lat="42.93347" lon="0.29228">
        <ele>1139.72194</ele>
        <time>2024-01-12T14:05:41Z</time>
      </trkpt>
      <trkpt lat="42.93348" lon="0.29227">
        <ele>1139.94007</ele>
        <time>2024-01-12T14:05:42Z</time>
      </trkpt>
      <trkpt lat="42.93349" lon="0.29226">
        <ele>1139.24849</ele>
        <time>2024-01-12T14:05:43Z</time>
      </trkpt>
      <trkpt lat="42.93351" lon="0.29225">
        <ele>1139.28156</ele>
        <time>2024-01-12T14:05:44Z</time>
      </trkpt>
      <trkpt lat="42.93352" lon="0.29224">
        <ele>1139.93989</ele>
        <time>2024-01-12T14:05:45Z</time>
      </trkpt>
      <trkpt lat="42.93352" lon="0.29222">
        <ele>1140.09044</ele>
        <time>2024-01-12T14:05:46Z</time>
      </trkpt>
      <trkpt lat="42.93353" lon="0.29221">
        <ele>1139.54725</ele>
        <time>2024-01-12T14:05:47Z</time>
      </trkpt>
      <trkpt lat="42.93354" lon="0.2922">
        <ele>1139.72624</ele>
        <time>2024-01-12T14:05:48Z</time>
      </trkpt>
      <trkpt lat="42.93355" lon="0.29218">
        <ele>1139.67896</ele>
        <time>2024-01-12T14:05:49Z</time>
      </trkpt>
      <trkpt lat="42.93357" lon="0.29218">
        <ele>1137.69697</ele>
        <time>2024-01-12T14:05:51Z</time>
      </trkpt>
      <trkpt lat="42.93358" lon="0.29217">
        <ele>1137.9294</ele>
        <time>2024-01-12T14:05:52Z</time>
      </trkpt>
      <trkpt lat="42.93359" lon="0.29216">
        <ele>1138.02624</ele>
        <time>2024-01-12T14:05:53Z</time>
      </trkpt>
      <trkpt lat="42.9336" lon="0.29215">
        <ele>1138.80234</ele>
        <time>2024-01-12T14:05:54Z</time>
      </trkpt>
      <trkpt lat="42.93361" lon="0.29214">
        <ele>1138.6942</ele>
        <time>2024-01-12T14:05:55Z</time>
      </trkpt>
      <trkpt lat="42.93362" lon="0.29213">
        <ele>1138.1299</ele>
        <time>2024-01-12T14:05:56Z</time>
      </trkpt>
      <trkpt lat="42.93363" lon="0.29212">
        <ele>1137.31241</ele>
        <time>2024-01-12T14:05:57Z</time>
      </trkpt>
      <trkpt lat="42.93364" lon="0.29211">
        <ele>1135.79933</ele>
        <time>2024-01-12T14:05:58Z</time>
      </trkpt>
      <trkpt lat="42.93366" lon="0.2921">
        <ele>1135.53836</ele>
        <time>2024-01-12T14:06:00Z</time>
      </trkpt>
      <trkpt lat="42.93367" lon="0.29209">
        <ele>1136.00092</ele>
        <time>2024-01-12T14:06:01Z</time>
      </trkpt>
      <trkpt lat="42.93368" lon="0.29208">
        <ele>1136.37277</ele>
        <time>2024-01-12T14:06:02Z</time>
      </trkpt>
      <trkpt lat="42.93369" lon="0.29207">
        <ele>1135.81122</ele>
        <time>2024-01-12T14:06:03Z</time>
      </trkpt>
      <trkpt lat="42.9337" lon="0.29206">
        <ele>1135.09981</ele>
        <time>2024-01-12T14:06:04Z</time>
      </trkpt>
      <trkpt lat="42.93372" lon="0.29204">
        <ele>1133.82744</ele>
        <time>2024-01-12T14:06:06Z</time>
      </trkpt>
      <trkpt lat="42.93373" lon="0.29203">
        <ele>1134.08625</ele>
        <time>2024-01-12T14:06:07Z</time>
      </trkpt>
      <trkpt lat="42.93375" lon="0.29202">
        <ele>1133.82788</ele>
        <time>2024-01-12T14:06:09Z</time>
      </trkpt>
      <trkpt lat="42.93376" lon="0.29201">
        <ele>1134.38222</ele>
        <time>2024-01-12T14:06:10Z</time>
      </trkpt>
      <trkpt lat="42.93378" lon="0.29201">
        <ele>1134.72369</ele>
        <time>2024-01-12T14:06:11Z</time>
      </trkpt>
      <trkpt lat="42.93379" lon="0.292">
        <ele>1134.37763</ele>
        <time>2024-01-12T14:06:12Z</time>
      </trkpt>
      <trkpt lat="42.9338" lon="0.29198">
        <ele>1134.29483</ele>
        <time>2024-01-12T14:06:14Z</time>
      </trkpt>
      <trkpt lat="42.93382" lon="0.29197">
        <ele>1134.89859</ele>
        <time>2024-01-12T14:06:15Z</time>
      </trkpt>
      <trkpt lat="42.93383" lon="0.29196">
        <ele>1134.09653</ele>
        <time>2024-01-12T14:06:17Z</time>
      </trkpt>
      <trkpt lat="42.93384" lon="0.29195">
        <ele>1133.24284</ele>
        <time>2024-01-12T14:06:18Z</time>
      </trkpt>
      <trkpt lat="42.93385" lon="0.29193">
        <ele>1132.58592</ele>
        <time>2024-01-12T14:06:20Z</time>
      </trkpt>
      <trkpt lat="42.93387" lon="0.29192">
        <ele>1133.40501</ele>
        <time>2024-01-12T14:06:21Z</time>
      </trkpt>
      <trkpt lat="42.93388" lon="0.29191">
        <ele>1133.27275</ele>
        <time>2024-01-12T14:06:22Z</time>
      </trkpt>
      <trkpt lat="42.93389" lon="0.2919">
        <ele>1133.38336</ele>
        <time>2024-01-12T14:06:24Z</time>
      </trkpt>
      <trkpt lat="42.93391" lon="0.29189">
        <ele>1133.85519</ele>
        <time>2024-01-12T14:06:26Z</time>
      </trkpt>
      <trkpt lat="42.93392" lon="0.29188">
        <ele>1133.6523</ele>
        <time>2024-01-12T14:06:27Z</time>
      </trkpt>
      <trkpt lat="42.93393" lon="0.29188">
        <ele>1132.91713</ele>
        <time>2024-01-12T14:06:28Z</time>
      </trkpt>
      <trkpt lat="42.93395" lon="0.29186">
        <ele>1135.0116</ele>
        <time>2024-01-12T14:06:30Z</time>
      </trkpt>
      <trkpt lat="42.93396" lon="0.29185">
        <ele>1134.94804</ele>
        <time>2024-01-12T14:06:31Z</time>
      </trkpt>
      <trkpt lat="42.93397" lon="0.29185">
        <ele>1134.07283</ele>
        <time>2024-01-12T14:06:32Z</time>
      </trkpt>
      <trkpt lat="42.93398" lon="0.29185">
        <ele>1132.38965</ele>
        <time>2024-01-12T14:06:34Z</time>
      </trkpt>
      <trkpt lat="42.93399" lon="0.29186">
        <ele>1132.30936</ele>
        <time>2024-01-12T14:06:36Z</time>
      </trkpt>
      <trkpt lat="42.934" lon="0.29187">
        <ele>1132.51176</ele>
        <time>2024-01-12T14:06:39Z</time>
      </trkpt>
      <trkpt lat="42.93399" lon="0.29188">
        <ele>1130.36209</ele>
        <time>2024-01-12T14:06:50Z</time>
      </trkpt>
      <trkpt lat="42.934" lon="0.29188">
        <ele>1124.97556</ele>
        <time>2024-01-12T14:06:52Z</time>
      </trkpt>
      <trkpt lat="42.93402" lon="0.29187">
        <ele>1128.78499</ele>
        <time>2024-01-12T14:06:56Z</time>
      </trkpt>
      <trkpt lat="42.93402" lon="0.29185">
        <ele>1130.52878</ele>
        <time>2024-01-12T14:06:57Z</time>
      </trkpt>
      <trkpt lat="42.93402" lon="0.29183">
        <ele>1130.83127</ele>
        <time>2024-01-12T14:06:58Z</time>
      </trkpt>
      <trkpt lat="42.93404" lon="0.29182">
        <ele>1131.58532</ele>
        <time>2024-01-12T14:06:59Z</time>
      </trkpt>
      <trkpt lat="42.93404" lon="0.29181">
        <ele>1130.96348</ele>
        <time>2024-01-12T14:07:00Z</time>
      </trkpt>
      <trkpt lat="42.93405" lon="0.2918">
        <ele>1131.0288</ele>
        <time>2024-01-12T14:07:01Z</time>
      </trkpt>
      <trkpt lat="42.93406" lon="0.29179">
        <ele>1132.0884</ele>
        <time>2024-01-12T14:07:02Z</time>
      </trkpt>
      <trkpt lat="42.93407" lon="0.29179">
        <ele>1132.02916</ele>
        <time>2024-01-12T14:07:03Z</time>
      </trkpt>
      <trkpt lat="42.93409" lon="0.29178">
        <ele>1132.14533</ele>
        <time>2024-01-12T14:07:04Z</time>
      </trkpt>
      <trkpt lat="42.9341" lon="0.29177">
        <ele>1132.63032</ele>
        <time>2024-01-12T14:07:05Z</time>
      </trkpt>
      <trkpt lat="42.93411" lon="0.29176">
        <ele>1133.38675</ele>
        <time>2024-01-12T14:07:06Z</time>
      </trkpt>
      <trkpt lat="42.93412" lon="0.29176">
        <ele>1133.44509</ele>
        <time>2024-01-12T14:07:07Z</time>
      </trkpt>
      <trkpt lat="42.93414" lon="0.29175">
        <ele>1132.9614</ele>
        <time>2024-01-12T14:07:08Z</time>
      </trkpt>
      <trkpt lat="42.93416" lon="0.29173">
        <ele>1131.27867</ele>
        <time>2024-01-12T14:07:10Z</time>
      </trkpt>
      <trkpt lat="42.93418" lon="0.29172">
        <ele>1131.75815</ele>
        <time>2024-01-12T14:07:12Z</time>
      </trkpt>
      <trkpt lat="42.9342" lon="0.2917">
        <ele>1131.36074</ele>
        <time>2024-01-12T14:07:14Z</time>
      </trkpt>
      <trkpt lat="42.93421" lon="0.29169">
        <ele>1130.20921</ele>
        <time>2024-01-12T14:07:15Z</time>
      </trkpt>
      <trkpt lat="42.93422" lon="0.29168">
        <ele>1130.81301</ele>
        <time>2024-01-12T14:07:16Z</time>
      </trkpt>
      <trkpt lat="42.93424" lon="0.29167">
        <ele>1131.76356</ele>
        <time>2024-01-12T14:07:18Z</time>
      </trkpt>
      <trkpt lat="42.93425" lon="0.29167">
        <ele>1131.79298</ele>
        <time>2024-01-12T14:07:19Z</time>
      </trkpt>
      <trkpt lat="42.93426" lon="0.29166">
        <ele>1132.41991</ele>
        <time>2024-01-12T14:07:20Z</time>
      </trkpt>
      <trkpt lat="42.93427" lon="0.29165">
        <ele>1133.12956</ele>
        <time>2024-01-12T14:07:21Z</time>
      </trkpt>
      <trkpt lat="42.93429" lon="0.29164">
        <ele>1133.02898</ele>
        <time>2024-01-12T14:07:22Z</time>
      </trkpt>
      <trkpt lat="42.9343" lon="0.29165">
        <ele>1133.07858</ele>
        <time>2024-01-12T14:07:23Z</time>
      </trkpt>
      <trkpt lat="42.93432" lon="0.29163">
        <ele>1131.92266</ele>
        <time>2024-01-12T14:07:24Z</time>
      </trkpt>
      <trkpt lat="42.93433" lon="0.29162">
        <ele>1131.54715</ele>
        <time>2024-01-12T14:07:25Z</time>
      </trkpt>
      <trkpt lat="42.93434" lon="0.29161">
        <ele>1131.50092</ele>
        <time>2024-01-12T14:07:27Z</time>
      </trkpt>
      <trkpt lat="42.93435" lon="0.2916">
        <ele>1131.30647</ele>
        <time>2024-01-12T14:07:28Z</time>
      </trkpt>
      <trkpt lat="42.93436" lon="0.29159">
        <ele>1131.26155</ele>
        <time>2024-01-12T14:07:29Z</time>
      </trkpt>
      <trkpt lat="42.93437" lon="0.29158">
        <ele>1131.3042</ele>
        <time>2024-01-12T14:07:30Z</time>
      </trkpt>
      <trkpt lat="42.93439" lon="0.29157">
        <ele>1132.2671</ele>
        <time>2024-01-12T14:07:32Z</time>
      </trkpt>
      <trkpt lat="42.9344" lon="0.29156">
        <ele>1131.76279</ele>
        <time>2024-01-12T14:07:33Z</time>
      </trkpt>
      <trkpt lat="42.93442" lon="0.29156">
        <ele>1132.24539</ele>
        <time>2024-01-12T14:07:34Z</time>
      </trkpt>
      <trkpt lat="42.93443" lon="0.29155">
        <ele>1132.82809</ele>
        <time>2024-01-12T14:07:35Z</time>
      </trkpt>
      <trkpt lat="42.93445" lon="0.29154">
        <ele>1132.91611</ele>
        <time>2024-01-12T14:07:36Z</time>
      </trkpt>
      <trkpt lat="42.93446" lon="0.29154">
        <ele>1132.45837</ele>
        <time>2024-01-12T14:07:37Z</time>
      </trkpt>
      <trkpt lat="42.93447" lon="0.29153">
        <ele>1132.16013</ele>
        <time>2024-01-12T14:07:38Z</time>
      </trkpt>
      <trkpt lat="42.93447" lon="0.29152">
        <ele>1132.3361</ele>
        <time>2024-01-12T14:07:39Z</time>
      </trkpt>
      <trkpt lat="42.93449" lon="0.29151">
        <ele>1132.32771</ele>
        <time>2024-01-12T14:07:40Z</time>
      </trkpt>
      <trkpt lat="42.93451" lon="0.2915">
        <ele>1132.75372</ele>
        <time>2024-01-12T14:07:42Z</time>
      </trkpt>
      <trkpt lat="42.93452" lon="0.29149">
        <ele>1132.64191</ele>
        <time>2024-01-12T14:07:43Z</time>
      </trkpt>
      <trkpt lat="42.93453" lon="0.29149">
        <ele>1132.56473</ele>
        <time>2024-01-12T14:07:44Z</time>
      </trkpt>
      <trkpt lat="42.93454" lon="0.29148">
        <ele>1132.03406</ele>
        <time>2024-01-12T14:07:45Z</time>
      </trkpt>
      <trkpt lat="42.93455" lon="0.29147">
        <ele>1132.65535</ele>
        <time>2024-01-12T14:07:46Z</time>
      </trkpt>
      <trkpt lat="42.93456" lon="0.29147">
        <ele>1132.69636</ele>
        <time>2024-01-12T14:07:47Z</time>
      </trkpt>
      <trkpt lat="42.93458" lon="0.29146">
        <ele>1131.27404</ele>
        <time>2024-01-12T14:07:49Z</time>
      </trkpt>
      <trkpt lat="42.93459" lon="0.29145">
        <ele>1131.68388</ele>
        <time>2024-01-12T14:07:50Z</time>
      </trkpt>
      <trkpt lat="42.93461" lon="0.29144">
        <ele>1131.41146</ele>
        <time>2024-01-12T14:07:51Z</time>
      </trkpt>
      <trkpt lat="42.93462" lon="0.29143">
        <ele>1132.43743</ele>
        <time>2024-01-12T14:07:52Z</time>
      </trkpt>
      <trkpt lat="42.93464" lon="0.29143">
        <ele>1132.16115</ele>
        <time>2024-01-12T14:07:53Z</time>
      </trkpt>
      <trkpt lat="42.93465" lon="0.29142">
        <ele>1131.74285</ele>
        <time>2024-01-12T14:07:54Z</time>
      </trkpt>
      <trkpt lat="42.93467" lon="0.29142">
        <ele>1131.40198</ele>
        <time>2024-01-12T14:07:55Z</time>
      </trkpt>
      <trkpt lat="42.93468" lon="0.29141">
        <ele>1131.21815</ele>
        <time>2024-01-12T14:07:56Z</time>
      </trkpt>
      <trkpt lat="42.93469" lon="0.2914">
        <ele>1131.20706</ele>
        <time>2024-01-12T14:07:57Z</time>
      </trkpt>
      <trkpt lat="42.9347" lon="0.2914">
        <ele>1131.89461</ele>
        <time>2024-01-12T14:07:58Z</time>
      </trkpt>
      <trkpt lat="42.93471" lon="0.29139">
        <ele>1132.3557</ele>
        <time>2024-01-12T14:07:59Z</time>
      </trkpt>
      <trkpt lat="42.93471" lon="0.29139">
        <ele>1132.42938</ele>
        <time>2024-01-12T14:08:00Z</time>
      </trkpt>
      <trkpt lat="42.93473" lon="0.29139">
        <ele>1132.61879</ele>
        <time>2024-01-12T14:08:01Z</time>
      </trkpt>
      <trkpt lat="42.93474" lon="0.29138">
        <ele>1132.60635</ele>
        <time>2024-01-12T14:08:02Z</time>
      </trkpt>
      <trkpt lat="42.93475" lon="0.29137">
        <ele>1132.47758</ele>
        <time>2024-01-12T14:08:03Z</time>
      </trkpt>
      <trkpt lat="42.93476" lon="0.29136">
        <ele>1131.50248</ele>
        <time>2024-01-12T14:08:04Z</time>
      </trkpt>
      <trkpt lat="42.93477" lon="0.29135">
        <ele>1132.12894</ele>
        <time>2024-01-12T14:08:05Z</time>
      </trkpt>
      <trkpt lat="42.93478" lon="0.29135">
        <ele>1132.1099</ele>
        <time>2024-01-12T14:08:06Z</time>
      </trkpt>
      <trkpt lat="42.9348" lon="0.29135">
        <ele>1133.23249</ele>
        <time>2024-01-12T14:08:07Z</time>
      </trkpt>
      <trkpt lat="42.93482" lon="0.29134">
        <ele>1132.58063</ele>
        <time>2024-01-12T14:08:09Z</time>
      </trkpt>
      <trkpt lat="42.93483" lon="0.29134">
        <ele>1131.26511</ele>
        <time>2024-01-12T14:08:10Z</time>
      </trkpt>
      <trkpt lat="42.93484" lon="0.29132">
        <ele>1130.43358</ele>
        <time>2024-01-12T14:08:12Z</time>
      </trkpt>
      <trkpt lat="42.93485" lon="0.29132">
        <ele>1131.0188</ele>
        <time>2024-01-12T14:08:13Z</time>
      </trkpt>
      <trkpt lat="42.93486" lon="0.29131">
        <ele>1131.35581</ele>
        <time>2024-01-12T14:08:14Z</time>
      </trkpt>
      <trkpt lat="42.93488" lon="0.2913">
        <ele>1131.34377</ele>
        <time>2024-01-12T14:08:15Z</time>
      </trkpt>
      <trkpt lat="42.93489" lon="0.2913">
        <ele>1132.36783</ele>
        <time>2024-01-12T14:08:16Z</time>
      </trkpt>
      <trkpt lat="42.9349" lon="0.29129">
        <ele>1132.35644</ele>
        <time>2024-01-12T14:08:17Z</time>
      </trkpt>
      <trkpt lat="42.93491" lon="0.29128">
        <ele>1131.74186</ele>
        <time>2024-01-12T14:08:18Z</time>
      </trkpt>
      <trkpt lat="42.93493" lon="0.29128">
        <ele>1130.3804</ele>
        <time>2024-01-12T14:08:19Z</time>
      </trkpt>
      <trkpt lat="42.93493" lon="0.29127">
        <ele>1128.2135</ele>
        <time>2024-01-12T14:08:20Z</time>
      </trkpt>
      <trkpt lat="42.93495" lon="0.29127">
        <ele>1128.37625</ele>
        <time>2024-01-12T14:08:22Z</time>
      </trkpt>
      <trkpt lat="42.93496" lon="0.29126">
        <ele>1127.50855</ele>
        <time>2024-01-12T14:08:23Z</time>
      </trkpt>
      <trkpt lat="42.93497" lon="0.29125">
        <ele>1127.50635</ele>
        <time>2024-01-12T14:08:24Z</time>
      </trkpt>
      <trkpt lat="42.93498" lon="0.29125">
        <ele>1125.98435</ele>
        <time>2024-01-12T14:08:26Z</time>
      </trkpt>
      <trkpt lat="42.935" lon="0.29124">
        <ele>1126.60128</ele>
        <time>2024-01-12T14:08:27Z</time>
      </trkpt>
      <trkpt lat="42.93501" lon="0.29123">
        <ele>1126.39705</ele>
        <time>2024-01-12T14:08:28Z</time>
      </trkpt>
      <trkpt lat="42.93502" lon="0.29122">
        <ele>1126.69594</ele>
        <time>2024-01-12T14:08:29Z</time>
      </trkpt>
      <trkpt lat="42.93503" lon="0.29121">
        <ele>1127.21682</ele>
        <time>2024-01-12T14:08:30Z</time>
      </trkpt>
      <trkpt lat="42.93505" lon="0.29121">
        <ele>1126.01521</ele>
        <time>2024-01-12T14:08:31Z</time>
      </trkpt>
      <trkpt lat="42.93505" lon="0.2912">
        <ele>1125.09194</ele>
        <time>2024-01-12T14:08:32Z</time>
      </trkpt>
      <trkpt lat="42.93506" lon="0.29119">
        <ele>1125.37253</ele>
        <time>2024-01-12T14:08:33Z</time>
      </trkpt>
      <trkpt lat="42.93509" lon="0.29118">
        <ele>1126.25568</ele>
        <time>2024-01-12T14:08:35Z</time>
      </trkpt>
      <trkpt lat="42.9351" lon="0.29118">
        <ele>1125.95703</ele>
        <time>2024-01-12T14:08:36Z</time>
      </trkpt>
      <trkpt lat="42.93511" lon="0.29117">
        <ele>1125.54309</ele>
        <time>2024-01-12T14:08:37Z</time>
      </trkpt>
      <trkpt lat="42.93512" lon="0.29116">
        <ele>1123.82335</ele>
        <time>2024-01-12T14:08:38Z</time>
      </trkpt>
      <trkpt lat="42.93513" lon="0.29116">
        <ele>1123.47953</ele>
        <time>2024-01-12T14:08:39Z</time>
      </trkpt>
      <trkpt lat="42.93514" lon="0.29115">
        <ele>1124.28087</ele>
        <time>2024-01-12T14:08:40Z</time>
      </trkpt>
      <trkpt lat="42.93516" lon="0.29113">
        <ele>1124.8009</ele>
        <time>2024-01-12T14:08:42Z</time>
      </trkpt>
      <trkpt lat="42.93517" lon="0.29112">
        <ele>1123.67764</ele>
        <time>2024-01-12T14:08:43Z</time>
      </trkpt>
      <trkpt lat="42.93519" lon="0.29113">
        <ele>1123.86368</ele>
        <time>2024-01-12T14:08:44Z</time>
      </trkpt>
      <trkpt lat="42.9352" lon="0.29113">
        <ele>1123.65539</ele>
        <time>2024-01-12T14:08:45Z</time>
      </trkpt>
      <trkpt lat="42.93521" lon="0.29112">
        <ele>1123.46422</ele>
        <time>2024-01-12T14:08:46Z</time>
      </trkpt>
      <trkpt lat="42.93522" lon="0.29111">
        <ele>1124.01766</ele>
        <time>2024-01-12T14:08:47Z</time>
      </trkpt>
      <trkpt lat="42.93523" lon="0.29109">
        <ele>1123.52317</ele>
        <time>2024-01-12T14:08:48Z</time>
      </trkpt>
      <trkpt lat="42.93524" lon="0.29108">
        <ele>1122.8992</ele>
        <time>2024-01-12T14:08:49Z</time>
      </trkpt>
      <trkpt lat="42.93525" lon="0.29107">
        <ele>1122.93981</ele>
        <time>2024-01-12T14:08:50Z</time>
      </trkpt>
      <trkpt lat="42.93527" lon="0.29106">
        <ele>1123.2387</ele>
        <time>2024-01-12T14:08:51Z</time>
      </trkpt>
      <trkpt lat="42.93527" lon="0.29105">
        <ele>1124.24995</ele>
        <time>2024-01-12T14:08:52Z</time>
      </trkpt>
      <trkpt lat="42.93529" lon="0.29105">
        <ele>1123.94845</ele>
        <time>2024-01-12T14:08:53Z</time>
      </trkpt>
      <trkpt lat="42.9353" lon="0.29104">
        <ele>1124.09064</ele>
        <time>2024-01-12T14:08:54Z</time>
      </trkpt>
      <trkpt lat="42.93531" lon="0.29103">
        <ele>1123.66192</ele>
        <time>2024-01-12T14:08:55Z</time>
      </trkpt>
      <trkpt lat="42.93532" lon="0.29102">
        <ele>1123.57049</ele>
        <time>2024-01-12T14:08:56Z</time>
      </trkpt>
      <trkpt lat="42.93534" lon="0.29101">
        <ele>1123.72024</ele>
        <time>2024-01-12T14:08:57Z</time>
      </trkpt>
      <trkpt lat="42.93535" lon="0.29101">
        <ele>1123.53035</ele>
        <time>2024-01-12T14:08:58Z</time>
      </trkpt>
      <trkpt lat="42.93537" lon="0.291">
        <ele>1123.26474</ele>
        <time>2024-01-12T14:08:59Z</time>
      </trkpt>
      <trkpt lat="42.93538" lon="0.29099">
        <ele>1124.29384</ele>
        <time>2024-01-12T14:09:00Z</time>
      </trkpt>
      <trkpt lat="42.93539" lon="0.29098">
        <ele>1124.03421</ele>
        <time>2024-01-12T14:09:01Z</time>
      </trkpt>
      <trkpt lat="42.9354" lon="0.29096">
        <ele>1123.72924</ele>
        <time>2024-01-12T14:09:02Z</time>
      </trkpt>
      <trkpt lat="42.93541" lon="0.29096">
        <ele>1123.47971</ele>
        <time>2024-01-12T14:09:03Z</time>
      </trkpt>
      <trkpt lat="42.93542" lon="0.29094">
        <ele>1123.62159</ele>
        <time>2024-01-12T14:09:04Z</time>
      </trkpt>
      <trkpt lat="42.93544" lon="0.29094">
        <ele>1123.62008</ele>
        <time>2024-01-12T14:09:05Z</time>
      </trkpt>
      <trkpt lat="42.93546" lon="0.29092">
        <ele>1124.03742</ele>
        <time>2024-01-12T14:09:07Z</time>
      </trkpt>
      <trkpt lat="42.93547" lon="0.29091">
        <ele>1124.11326</ele>
        <time>2024-01-12T14:09:08Z</time>
      </trkpt>
      <trkpt lat="42.93548" lon="0.2909">
        <ele>1124.0077</ele>
        <time>2024-01-12T14:09:09Z</time>
      </trkpt>
      <trkpt lat="42.93549" lon="0.29089">
        <ele>1123.74467</ele>
        <time>2024-01-12T14:09:10Z</time>
      </trkpt>
      <trkpt lat="42.9355" lon="0.29088">
        <ele>1122.73394</ele>
        <time>2024-01-12T14:09:11Z</time>
      </trkpt>
      <trkpt lat="42.93551" lon="0.29087">
        <ele>1122.24862</ele>
        <time>2024-01-12T14:09:12Z</time>
      </trkpt>
      <trkpt lat="42.93552" lon="0.29086">
        <ele>1122.78871</ele>
        <time>2024-01-12T14:09:13Z</time>
      </trkpt>
      <trkpt lat="42.93553" lon="0.29085">
        <ele>1123.23149</ele>
        <time>2024-01-12T14:09:14Z</time>
      </trkpt>
      <trkpt lat="42.93555" lon="0.29084">
        <ele>1122.63988</ele>
        <time>2024-01-12T14:09:15Z</time>
      </trkpt>
      <trkpt lat="42.93556" lon="0.29082">
        <ele>1122.94467</ele>
        <time>2024-01-12T14:09:16Z</time>
      </trkpt>
      <trkpt lat="42.93557" lon="0.29081">
        <ele>1123.32492</ele>
        <time>2024-01-12T14:09:17Z</time>
      </trkpt>
      <trkpt lat="42.93558" lon="0.29079">
        <ele>1123.98184</ele>
        <time>2024-01-12T14:09:18Z</time>
      </trkpt>
      <trkpt lat="42.93559" lon="0.29079">
        <ele>1123.2961</ele>
        <time>2024-01-12T14:09:19Z</time>
      </trkpt>
      <trkpt lat="42.9356" lon="0.29077">
        <ele>1122.61462</ele>
        <time>2024-01-12T14:09:20Z</time>
      </trkpt>
      <trkpt lat="42.93561" lon="0.29076">
        <ele>1123.19043</ele>
        <time>2024-01-12T14:09:21Z</time>
      </trkpt>
      <trkpt lat="42.93562" lon="0.29075">
        <ele>1122.9784</ele>
        <time>2024-01-12T14:09:22Z</time>
      </trkpt>
      <trkpt lat="42.93562" lon="0.29074">
        <ele>1123.41726</ele>
        <time>2024-01-12T14:09:23Z</time>
      </trkpt>
      <trkpt lat="42.93563" lon="0.29072">
        <ele>1123.90595</ele>
        <time>2024-01-12T14:09:24Z</time>
      </trkpt>
      <trkpt lat="42.93563" lon="0.29071">
        <ele>1123.47314</ele>
        <time>2024-01-12T14:09:25Z</time>
      </trkpt>
      <trkpt lat="42.93564" lon="0.29069">
        <ele>1122.65876</ele>
        <time>2024-01-12T14:09:26Z</time>
      </trkpt>
      <trkpt lat="42.93565" lon="0.29068">
        <ele>1122.57409</ele>
        <time>2024-01-12T14:09:27Z</time>
      </trkpt>
      <trkpt lat="42.93565" lon="0.29066">
        <ele>1122.71324</ele>
        <time>2024-01-12T14:09:28Z</time>
      </trkpt>
      <trkpt lat="42.93566" lon="0.29065">
        <ele>1123.65238</ele>
        <time>2024-01-12T14:09:29Z</time>
      </trkpt>
      <trkpt lat="42.93567" lon="0.29063">
        <ele>1123.42883</ele>
        <time>2024-01-12T14:09:30Z</time>
      </trkpt>
      <trkpt lat="42.93568" lon="0.29062">
        <ele>1123.22513</ele>
        <time>2024-01-12T14:09:31Z</time>
      </trkpt>
      <trkpt lat="42.93568" lon="0.29061">
        <ele>1123.66531</ele>
        <time>2024-01-12T14:09:32Z</time>
      </trkpt>
      <trkpt lat="42.93569" lon="0.29059">
        <ele>1123.54585</ele>
        <time>2024-01-12T14:09:33Z</time>
      </trkpt>
      <trkpt lat="42.9357" lon="0.29058">
        <ele>1123.66908</ele>
        <time>2024-01-12T14:09:34Z</time>
      </trkpt>
      <trkpt lat="42.93571" lon="0.29056">
        <ele>1122.90396</ele>
        <time>2024-01-12T14:09:35Z</time>
      </trkpt>
      <trkpt lat="42.93572" lon="0.29054">
        <ele>1123.76263</ele>
        <time>2024-01-12T14:09:37Z</time>
      </trkpt>
      <trkpt lat="42.93573" lon="0.29053">
        <ele>1124.45046</ele>
        <time>2024-01-12T14:09:38Z</time>
      </trkpt>
      <trkpt lat="42.93573" lon="0.29051">
        <ele>1124.5549</ele>
        <time>2024-01-12T14:09:39Z</time>
      </trkpt>
      <trkpt lat="42.93574" lon="0.29049">
        <ele>1124.10419</ele>
        <time>2024-01-12T14:09:41Z</time>
      </trkpt>
      <trkpt lat="42.93575" lon="0.29047">
        <ele>1124.36688</ele>
        <time>2024-01-12T14:09:42Z</time>
      </trkpt>
      <trkpt lat="42.93575" lon="0.29045">
        <ele>1124.06022</ele>
        <time>2024-01-12T14:09:43Z</time>
      </trkpt>
      <trkpt lat="42.93576" lon="0.29044">
        <ele>1123.76463</ele>
        <time>2024-01-12T14:09:44Z</time>
      </trkpt>
      <trkpt lat="42.93577" lon="0.29042">
        <ele>1123.98066</ele>
        <time>2024-01-12T14:09:45Z</time>
      </trkpt>
      <trkpt lat="42.93578" lon="0.29041">
        <ele>1124.678</ele>
        <time>2024-01-12T14:09:46Z</time>
      </trkpt>
      <trkpt lat="42.93579" lon="0.2904">
        <ele>1124.49587</ele>
        <time>2024-01-12T14:09:47Z</time>
      </trkpt>
      <trkpt lat="42.93579" lon="0.29039">
        <ele>1123.59466</ele>
        <time>2024-01-12T14:09:48Z</time>
      </trkpt>
      <trkpt lat="42.9358" lon="0.29037">
        <ele>1122.52206</ele>
        <time>2024-01-12T14:09:49Z</time>
      </trkpt>
      <trkpt lat="42.93581" lon="0.29036">
        <ele>1122.82897</ele>
        <time>2024-01-12T14:09:50Z</time>
      </trkpt>
      <trkpt lat="42.93582" lon="0.29034">
        <ele>1124.26912</ele>
        <time>2024-01-12T14:09:52Z</time>
      </trkpt>
      <trkpt lat="42.93582" lon="0.29032">
        <ele>1124.4625</ele>
        <time>2024-01-12T14:09:53Z</time>
      </trkpt>
      <trkpt lat="42.93583" lon="0.29031">
        <ele>1123.82532</ele>
        <time>2024-01-12T14:09:54Z</time>
      </trkpt>
      <trkpt lat="42.93583" lon="0.2903">
        <ele>1123.40991</ele>
        <time>2024-01-12T14:09:55Z</time>
      </trkpt>
      <trkpt lat="42.93585" lon="0.29027">
        <ele>1125.37881</ele>
        <time>2024-01-12T14:09:57Z</time>
      </trkpt>
      <trkpt lat="42.93586" lon="0.29026">
        <ele>1124.48654</ele>
        <time>2024-01-12T14:09:58Z</time>
      </trkpt>
      <trkpt lat="42.93586" lon="0.29024">
        <ele>1124.66821</ele>
        <time>2024-01-12T14:09:59Z</time>
      </trkpt>
      <trkpt lat="42.93587" lon="0.29023">
        <ele>1125.29556</ele>
        <time>2024-01-12T14:10:00Z</time>
      </trkpt>
      <trkpt lat="42.93588" lon="0.2902">
        <ele>1124.32268</ele>
        <time>2024-01-12T14:10:02Z</time>
      </trkpt>
      <trkpt lat="42.93588" lon="0.2902">
        <ele>1122.90066</ele>
        <time>2024-01-12T14:10:03Z</time>
      </trkpt>
      <trkpt lat="42.93589" lon="0.29018">
        <ele>1123.32338</ele>
        <time>2024-01-12T14:10:04Z</time>
      </trkpt>
      <trkpt lat="42.9359" lon="0.29016">
        <ele>1123.95533</ele>
        <time>2024-01-12T14:10:05Z</time>
      </trkpt>
      <trkpt lat="42.9359" lon="0.29013">
        <ele>1123.81842</ele>
        <time>2024-01-12T14:10:07Z</time>
      </trkpt>
      <trkpt lat="42.93591" lon="0.29011">
        <ele>1123.2673</ele>
        <time>2024-01-12T14:10:08Z</time>
      </trkpt>
      <trkpt lat="42.93591" lon="0.29009">
        <ele>1123.2929</ele>
        <time>2024-01-12T14:10:09Z</time>
      </trkpt>
      <trkpt lat="42.93592" lon="0.29009">
        <ele>1123.8168</ele>
        <time>2024-01-12T14:10:10Z</time>
      </trkpt>
      <trkpt lat="42.93593" lon="0.29008">
        <ele>1124.33792</ele>
        <time>2024-01-12T14:10:11Z</time>
      </trkpt>
      <trkpt lat="42.93593" lon="0.29006">
        <ele>1124.82393</ele>
        <time>2024-01-12T14:10:12Z</time>
      </trkpt>
      <trkpt lat="42.93595" lon="0.29004">
        <ele>1124.63952</ele>
        <time>2024-01-12T14:10:13Z</time>
      </trkpt>
      <trkpt lat="42.93595" lon="0.29003">
        <ele>1124.93468</ele>
        <time>2024-01-12T14:10:14Z</time>
      </trkpt>
      <trkpt lat="42.93596" lon="0.29002">
        <ele>1124.54328</ele>
        <time>2024-01-12T14:10:15Z</time>
      </trkpt>
      <trkpt lat="42.93597" lon="0.28999">
        <ele>1124.48244</ele>
        <time>2024-01-12T14:10:17Z</time>
      </trkpt>
      <trkpt lat="42.93597" lon="0.28998">
        <ele>1124.88966</ele>
        <time>2024-01-12T14:10:18Z</time>
      </trkpt>
      <trkpt lat="42.93597" lon="0.28996">
        <ele>1124.62146</ele>
        <time>2024-01-12T14:10:19Z</time>
      </trkpt>
      <trkpt lat="42.93598" lon="0.28995">
        <ele>1122.83509</ele>
        <time>2024-01-12T14:10:20Z</time>
      </trkpt>
      <trkpt lat="42.93599" lon="0.28993">
        <ele>1122.77535</ele>
        <time>2024-01-12T14:10:22Z</time>
      </trkpt>
      <trkpt lat="42.93599" lon="0.28992">
        <ele>1122.5115</ele>
        <time>2024-01-12T14:10:23Z</time>
      </trkpt>
      <trkpt lat="42.93601" lon="0.28991">
        <ele>1122.22005</ele>
        <time>2024-01-12T14:10:24Z</time>
      </trkpt>
      <trkpt lat="42.93601" lon="0.28989">
        <ele>1122.47</ele>
        <time>2024-01-12T14:10:25Z</time>
      </trkpt>
      <trkpt lat="42.93602" lon="0.28987">
        <ele>1122.91216</ele>
        <time>2024-01-12T14:10:26Z</time>
      </trkpt>
      <trkpt lat="42.93603" lon="0.28986">
        <ele>1123.17267</ele>
        <time>2024-01-12T14:10:27Z</time>
      </trkpt>
      <trkpt lat="42.93603" lon="0.28984">
        <ele>1122.97011</ele>
        <time>2024-01-12T14:10:28Z</time>
      </trkpt>
      <trkpt lat="42.93604" lon="0.28983">
        <ele>1123.64105</ele>
        <time>2024-01-12T14:10:29Z</time>
      </trkpt>
      <trkpt lat="42.93604" lon="0.28981">
        <ele>1122.98017</ele>
        <time>2024-01-12T14:10:30Z</time>
      </trkpt>
      <trkpt lat="42.93605" lon="0.2898">
        <ele>1123.97725</ele>
        <time>2024-01-12T14:10:31Z</time>
      </trkpt>
      <trkpt lat="42.93606" lon="0.28978">
        <ele>1124.20165</ele>
        <time>2024-01-12T14:10:32Z</time>
      </trkpt>
      <trkpt lat="42.93607" lon="0.28976">
        <ele>1122.66716</ele>
        <time>2024-01-12T14:10:34Z</time>
      </trkpt>
      <trkpt lat="42.93608" lon="0.28975">
        <ele>1123.82438</ele>
        <time>2024-01-12T14:10:35Z</time>
      </trkpt>
      <trkpt lat="42.93609" lon="0.28974">
        <ele>1124.38443</ele>
        <time>2024-01-12T14:10:36Z</time>
      </trkpt>
      <trkpt lat="42.9361" lon="0.28972">
        <ele>1124.70513</ele>
        <time>2024-01-12T14:10:37Z</time>
      </trkpt>
      <trkpt lat="42.93611" lon="0.28971">
        <ele>1124.95069</ele>
        <time>2024-01-12T14:10:38Z</time>
      </trkpt>
      <trkpt lat="42.93611" lon="0.2897">
        <ele>1125.2469</ele>
        <time>2024-01-12T14:10:39Z</time>
      </trkpt>
      <trkpt lat="42.93612" lon="0.28968">
        <ele>1125.14632</ele>
        <time>2024-01-12T14:10:40Z</time>
      </trkpt>
      <trkpt lat="42.93613" lon="0.28967">
        <ele>1125.07904</ele>
        <time>2024-01-12T14:10:41Z</time>
      </trkpt>
      <trkpt lat="42.93614" lon="0.28965">
        <ele>1125.97619</ele>
        <time>2024-01-12T14:10:42Z</time>
      </trkpt>
      <trkpt lat="42.93615" lon="0.28963">
        <ele>1125.12531</ele>
        <time>2024-01-12T14:10:44Z</time>
      </trkpt>
      <trkpt lat="42.93616" lon="0.28961">
        <ele>1123.99859</ele>
        <time>2024-01-12T14:10:45Z</time>
      </trkpt>
      <trkpt lat="42.93617" lon="0.2896">
        <ele>1123.90925</ele>
        <time>2024-01-12T14:10:46Z</time>
      </trkpt>
      <trkpt lat="42.93617" lon="0.2896">
        <ele>1123.61609</ele>
        <time>2024-01-12T14:10:47Z</time>
      </trkpt>
      <trkpt lat="42.93618" lon="0.28958">
        <ele>1124.00185</ele>
        <time>2024-01-12T14:10:48Z</time>
      </trkpt>
      <trkpt lat="42.9362" lon="0.28957">
        <ele>1124.40932</ele>
        <time>2024-01-12T14:10:49Z</time>
      </trkpt>
      <trkpt lat="42.9362" lon="0.28956">
        <ele>1124.56738</ele>
        <time>2024-01-12T14:10:50Z</time>
      </trkpt>
      <trkpt lat="42.93621" lon="0.28954">
        <ele>1124.44547</ele>
        <time>2024-01-12T14:10:51Z</time>
      </trkpt>
      <trkpt lat="42.93623" lon="0.28953">
        <ele>1124.99122</ele>
        <time>2024-01-12T14:10:52Z</time>
      </trkpt>
      <trkpt lat="42.93623" lon="0.28951">
        <ele>1125.33456</ele>
        <time>2024-01-12T14:10:53Z</time>
      </trkpt>
      <trkpt lat="42.93624" lon="0.2895">
        <ele>1124.79814</ele>
        <time>2024-01-12T14:10:54Z</time>
      </trkpt>
      <trkpt lat="42.93625" lon="0.28949">
        <ele>1125.31484</ele>
        <time>2024-01-12T14:10:55Z</time>
      </trkpt>
      <trkpt lat="42.93625" lon="0.28948">
        <ele>1124.78301</ele>
        <time>2024-01-12T14:10:56Z</time>
      </trkpt>
      <trkpt lat="42.93626" lon="0.28946">
        <ele>1125.07758</ele>
        <time>2024-01-12T14:10:57Z</time>
      </trkpt>
      <trkpt lat="42.93627" lon="0.28945">
        <ele>1124.30838</ele>
        <time>2024-01-12T14:10:58Z</time>
      </trkpt>
      <trkpt lat="42.93628" lon="0.28944">
        <ele>1124.35064</ele>
        <time>2024-01-12T14:10:59Z</time>
      </trkpt>
      <trkpt lat="42.93629" lon="0.28943">
        <ele>1124.70451</ele>
        <time>2024-01-12T14:11:00Z</time>
      </trkpt>
      <trkpt lat="42.9363" lon="0.28941">
        <ele>1124.98893</ele>
        <time>2024-01-12T14:11:01Z</time>
      </trkpt>
      <trkpt lat="42.9363" lon="0.2894">
        <ele>1125.2183</ele>
        <time>2024-01-12T14:11:02Z</time>
      </trkpt>
      <trkpt lat="42.93631" lon="0.28938">
        <ele>1125.4334</ele>
        <time>2024-01-12T14:11:03Z</time>
      </trkpt>
      <trkpt lat="42.93632" lon="0.28937">
        <ele>1125.68446</ele>
        <time>2024-01-12T14:11:04Z</time>
      </trkpt>
      <trkpt lat="42.93633" lon="0.28935">
        <ele>1126.08455</ele>
        <time>2024-01-12T14:11:05Z</time>
      </trkpt>
      <trkpt lat="42.93633" lon="0.28934">
        <ele>1124.87651</ele>
        <time>2024-01-12T14:11:06Z</time>
      </trkpt>
      <trkpt lat="42.93634" lon="0.28933">
        <ele>1124.78514</ele>
        <time>2024-01-12T14:11:08Z</time>
      </trkpt>
      <trkpt lat="42.93635" lon="0.28931">
        <ele>1125.02458</ele>
        <time>2024-01-12T14:11:09Z</time>
      </trkpt>
      <trkpt lat="42.93636" lon="0.28929">
        <ele>1125.21842</ele>
        <time>2024-01-12T14:11:10Z</time>
      </trkpt>
      <trkpt lat="42.93637" lon="0.28928">
        <ele>1125.07904</ele>
        <time>2024-01-12T14:11:11Z</time>
      </trkpt>
      <trkpt lat="42.93638" lon="0.28926">
        <ele>1125.3421</ele>
        <time>2024-01-12T14:11:12Z</time>
      </trkpt>
      <trkpt lat="42.93639" lon="0.28925">
        <ele>1125.53227</ele>
        <time>2024-01-12T14:11:13Z</time>
      </trkpt>
      <trkpt lat="42.9364" lon="0.28924">
        <ele>1124.32899</ele>
        <time>2024-01-12T14:11:14Z</time>
      </trkpt>
      <trkpt lat="42.9364" lon="0.28922">
        <ele>1124.7271</ele>
        <time>2024-01-12T14:11:15Z</time>
      </trkpt>
      <trkpt lat="42.93641" lon="0.28921">
        <ele>1123.9795</ele>
        <time>2024-01-12T14:11:17Z</time>
      </trkpt>
      <trkpt lat="42.93642" lon="0.28919">
        <ele>1123.85873</ele>
        <time>2024-01-12T14:11:18Z</time>
      </trkpt>
      <trkpt lat="42.93642" lon="0.28917">
        <ele>1123.72787</ele>
        <time>2024-01-12T14:11:19Z</time>
      </trkpt>
      <trkpt lat="42.93643" lon="0.28916">
        <ele>1123.96982</ele>
        <time>2024-01-12T14:11:20Z</time>
      </trkpt>
      <trkpt lat="42.93644" lon="0.28915">
        <ele>1124.18223</ele>
        <time>2024-01-12T14:11:21Z</time>
      </trkpt>
      <trkpt lat="42.93645" lon="0.28913">
        <ele>1123.90307</ele>
        <time>2024-01-12T14:11:22Z</time>
      </trkpt>
      <trkpt lat="42.93646" lon="0.28911">
        <ele>1123.58497</ele>
        <time>2024-01-12T14:11:24Z</time>
      </trkpt>
      <trkpt lat="42.93646" lon="0.2891">
        <ele>1123.2632</ele>
        <time>2024-01-12T14:11:25Z</time>
      </trkpt>
      <trkpt lat="42.93647" lon="0.28908">
        <ele>1123.58297</ele>
        <time>2024-01-12T14:11:26Z</time>
      </trkpt>
      <trkpt lat="42.93648" lon="0.28907">
        <ele>1123.80481</ele>
        <time>2024-01-12T14:11:27Z</time>
      </trkpt>
      <trkpt lat="42.93648" lon="0.28905">
        <ele>1122.6987</ele>
        <time>2024-01-12T14:11:28Z</time>
      </trkpt>
      <trkpt lat="42.93649" lon="0.28904">
        <ele>1122.53342</ele>
        <time>2024-01-12T14:11:29Z</time>
      </trkpt>
      <trkpt lat="42.93649" lon="0.28902">
        <ele>1123.36471</ele>
        <time>2024-01-12T14:11:30Z</time>
      </trkpt>
      <trkpt lat="42.9365" lon="0.28901">
        <ele>1123.02103</ele>
        <time>2024-01-12T14:11:31Z</time>
      </trkpt>
      <trkpt lat="42.93651" lon="0.289">
        <ele>1123.22723</ele>
        <time>2024-01-12T14:11:32Z</time>
      </trkpt>
      <trkpt lat="42.93652" lon="0.28897">
        <ele>1123.18121</ele>
        <time>2024-01-12T14:11:34Z</time>
      </trkpt>
      <trkpt lat="42.93653" lon="0.28896">
        <ele>1122.38437</ele>
        <time>2024-01-12T14:11:35Z</time>
      </trkpt>
      <trkpt lat="42.93653" lon="0.28895">
        <ele>1121.62135</ele>
        <time>2024-01-12T14:11:36Z</time>
      </trkpt>
      <trkpt lat="42.93653" lon="0.28893">
        <ele>1121.32279</ele>
        <time>2024-01-12T14:11:37Z</time>
      </trkpt>
      <trkpt lat="42.93654" lon="0.28892">
        <ele>1121.24933</ele>
        <time>2024-01-12T14:11:38Z</time>
      </trkpt>
      <trkpt lat="42.93655" lon="0.2889">
        <ele>1121.15734</ele>
        <time>2024-01-12T14:11:39Z</time>
      </trkpt>
      <trkpt lat="42.93656" lon="0.28889">
        <ele>1120.9659</ele>
        <time>2024-01-12T14:11:40Z</time>
      </trkpt>
      <trkpt lat="42.93657" lon="0.28888">
        <ele>1121.82223</ele>
        <time>2024-01-12T14:11:41Z</time>
      </trkpt>
      <trkpt lat="42.93659" lon="0.28886">
        <ele>1121.2755</ele>
        <time>2024-01-12T14:11:42Z</time>
      </trkpt>
      <trkpt lat="42.93659" lon="0.28884">
        <ele>1121.80465</ele>
        <time>2024-01-12T14:11:43Z</time>
      </trkpt>
      <trkpt lat="42.9366" lon="0.28883">
        <ele>1120.91779</ele>
        <time>2024-01-12T14:11:44Z</time>
      </trkpt>
      <trkpt lat="42.9366" lon="0.28881">
        <ele>1119.21051</ele>
        <time>2024-01-12T14:11:46Z</time>
      </trkpt>
      <trkpt lat="42.93661" lon="0.28879">
        <ele>1119.08921</ele>
        <time>2024-01-12T14:11:47Z</time>
      </trkpt>
      <trkpt lat="42.93662" lon="0.28878">
        <ele>1119.36567</ele>
        <time>2024-01-12T14:11:48Z</time>
      </trkpt>
      <trkpt lat="42.93663" lon="0.28877">
        <ele>1119.56644</ele>
        <time>2024-01-12T14:11:49Z</time>
      </trkpt>
      <trkpt lat="42.93664" lon="0.28875">
        <ele>1120.17703</ele>
        <time>2024-01-12T14:11:50Z</time>
      </trkpt>
      <trkpt lat="42.93664" lon="0.28874">
        <ele>1120.59993</ele>
        <time>2024-01-12T14:11:51Z</time>
      </trkpt>
      <trkpt lat="42.93665" lon="0.28872">
        <ele>1120.12012</ele>
        <time>2024-01-12T14:11:53Z</time>
      </trkpt>
      <trkpt lat="42.93666" lon="0.2887">
        <ele>1119.73821</ele>
        <time>2024-01-12T14:11:54Z</time>
      </trkpt>
      <trkpt lat="42.93667" lon="0.28869">
        <ele>1119.53783</ele>
        <time>2024-01-12T14:11:55Z</time>
      </trkpt>
      <trkpt lat="42.93667" lon="0.28867">
        <ele>1119.17082</ele>
        <time>2024-01-12T14:11:56Z</time>
      </trkpt>
      <trkpt lat="42.93668" lon="0.28865">
        <ele>1119.72789</ele>
        <time>2024-01-12T14:11:57Z</time>
      </trkpt>
      <trkpt lat="42.93669" lon="0.28864">
        <ele>1119.43454</ele>
        <time>2024-01-12T14:11:58Z</time>
      </trkpt>
      <trkpt lat="42.9367" lon="0.28863">
        <ele>1118.64751</ele>
        <time>2024-01-12T14:11:59Z</time>
      </trkpt>
      <trkpt lat="42.9367" lon="0.28862">
        <ele>1118.54422</ele>
        <time>2024-01-12T14:12:00Z</time>
      </trkpt>
      <trkpt lat="42.93671" lon="0.28861">
        <ele>1119.37721</ele>
        <time>2024-01-12T14:12:01Z</time>
      </trkpt>
      <trkpt lat="42.93672" lon="0.28859">
        <ele>1119.53383</ele>
        <time>2024-01-12T14:12:02Z</time>
      </trkpt>
      <trkpt lat="42.93672" lon="0.28858">
        <ele>1119.87291</ele>
        <time>2024-01-12T14:12:03Z</time>
      </trkpt>
      <trkpt lat="42.93673" lon="0.28856">
        <ele>1120.08762</ele>
        <time>2024-01-12T14:12:04Z</time>
      </trkpt>
      <trkpt lat="42.93674" lon="0.28855">
        <ele>1120.16754</ele>
        <time>2024-01-12T14:12:05Z</time>
      </trkpt>
      <trkpt lat="42.93675" lon="0.28853">
        <ele>1120.2397</ele>
        <time>2024-01-12T14:12:06Z</time>
      </trkpt>
      <trkpt lat="42.93675" lon="0.28852">
        <ele>1120.33643</ele>
        <time>2024-01-12T14:12:07Z</time>
      </trkpt>
      <trkpt lat="42.93676" lon="0.2885">
        <ele>1119.93489</ele>
        <time>2024-01-12T14:12:08Z</time>
      </trkpt>
      <trkpt lat="42.93677" lon="0.28848">
        <ele>1120.3742</ele>
        <time>2024-01-12T14:12:10Z</time>
      </trkpt>
      <trkpt lat="42.93678" lon="0.28847">
        <ele>1119.47482</ele>
        <time>2024-01-12T14:12:11Z</time>
      </trkpt>
      <trkpt lat="42.93679" lon="0.28846">
        <ele>1119.55044</ele>
        <time>2024-01-12T14:12:12Z</time>
      </trkpt>
      <trkpt lat="42.9368" lon="0.28845">
        <ele>1118.96238</ele>
        <time>2024-01-12T14:12:13Z</time>
      </trkpt>
      <trkpt lat="42.93681" lon="0.28843">
        <ele>1118.70369</ele>
        <time>2024-01-12T14:12:14Z</time>
      </trkpt>
      <trkpt lat="42.93682" lon="0.28841">
        <ele>1119.63178</ele>
        <time>2024-01-12T14:12:16Z</time>
      </trkpt>
      <trkpt lat="42.93682" lon="0.2884">
        <ele>1120.12523</ele>
        <time>2024-01-12T14:12:17Z</time>
      </trkpt>
      <trkpt lat="42.93683" lon="0.28838">
        <ele>1120.2126</ele>
        <time>2024-01-12T14:12:18Z</time>
      </trkpt>
      <trkpt lat="42.93684" lon="0.28837">
        <ele>1119.26471</ele>
        <time>2024-01-12T14:12:19Z</time>
      </trkpt>
      <trkpt lat="42.93684" lon="0.28835">
        <ele>1118.14259</ele>
        <time>2024-01-12T14:12:20Z</time>
      </trkpt>
      <trkpt lat="42.93685" lon="0.28834">
        <ele>1118.39545</ele>
        <time>2024-01-12T14:12:21Z</time>
      </trkpt>
      <trkpt lat="42.93686" lon="0.28832">
        <ele>1118.631</ele>
        <time>2024-01-12T14:12:22Z</time>
      </trkpt>
      <trkpt lat="42.93687" lon="0.28831">
        <ele>1118.07315</ele>
        <time>2024-01-12T14:12:23Z</time>
      </trkpt>
      <trkpt lat="42.93687" lon="0.2883">
        <ele>1118.25917</ele>
        <time>2024-01-12T14:12:24Z</time>
      </trkpt>
      <trkpt lat="42.93688" lon="0.28829">
        <ele>1118.16362</ele>
        <time>2024-01-12T14:12:25Z</time>
      </trkpt>
      <trkpt lat="42.93689" lon="0.28828">
        <ele>1118.19005</ele>
        <time>2024-01-12T14:12:26Z</time>
      </trkpt>
      <trkpt lat="42.9369" lon="0.28827">
        <ele>1119.40344</ele>
        <time>2024-01-12T14:12:27Z</time>
      </trkpt>
      <trkpt lat="42.93691" lon="0.28826">
        <ele>1118.55653</ele>
        <time>2024-01-12T14:12:28Z</time>
      </trkpt>
      <trkpt lat="42.93692" lon="0.28824">
        <ele>1118.67747</ele>
        <time>2024-01-12T14:12:29Z</time>
      </trkpt>
      <trkpt lat="42.93693" lon="0.28823">
        <ele>1119.24294</ele>
        <time>2024-01-12T14:12:30Z</time>
      </trkpt>
      <trkpt lat="42.93693" lon="0.28822">
        <ele>1119.53047</ele>
        <time>2024-01-12T14:12:31Z</time>
      </trkpt>
      <trkpt lat="42.93694" lon="0.2882">
        <ele>1119.16607</ele>
        <time>2024-01-12T14:12:32Z</time>
      </trkpt>
      <trkpt lat="42.93695" lon="0.28819">
        <ele>1119.14635</ele>
        <time>2024-01-12T14:12:33Z</time>
      </trkpt>
      <trkpt lat="42.93695" lon="0.28818">
        <ele>1118.58027</ele>
        <time>2024-01-12T14:12:34Z</time>
      </trkpt>
      <trkpt lat="42.93696" lon="0.28817">
        <ele>1117.78937</ele>
        <time>2024-01-12T14:12:35Z</time>
      </trkpt>
      <trkpt lat="42.93697" lon="0.28816">
        <ele>1117.99609</ele>
        <time>2024-01-12T14:12:36Z</time>
      </trkpt>
      <trkpt lat="42.93697" lon="0.28815">
        <ele>1118.3997</ele>
        <time>2024-01-12T14:12:37Z</time>
      </trkpt>
      <trkpt lat="42.93698" lon="0.28814">
        <ele>1118.39978</ele>
        <time>2024-01-12T14:12:38Z</time>
      </trkpt>
      <trkpt lat="42.93699" lon="0.28812">
        <ele>1118.53286</ele>
        <time>2024-01-12T14:12:39Z</time>
      </trkpt>
      <trkpt lat="42.937" lon="0.28811">
        <ele>1118.20224</ele>
        <time>2024-01-12T14:12:40Z</time>
      </trkpt>
      <trkpt lat="42.93701" lon="0.28809">
        <ele>1117.41548</ele>
        <time>2024-01-12T14:12:41Z</time>
      </trkpt>
      <trkpt lat="42.93702" lon="0.28808">
        <ele>1117.22761</ele>
        <time>2024-01-12T14:12:42Z</time>
      </trkpt>
      <trkpt lat="42.93703" lon="0.28806">
        <ele>1117.97629</ele>
        <time>2024-01-12T14:12:43Z</time>
      </trkpt>
      <trkpt lat="42.93704" lon="0.28805">
        <ele>1118.31922</ele>
        <time>2024-01-12T14:12:44Z</time>
      </trkpt>
      <trkpt lat="42.93705" lon="0.28803">
        <ele>1119.39955</ele>
        <time>2024-01-12T14:12:45Z</time>
      </trkpt>
      <trkpt lat="42.93705" lon="0.28802">
        <ele>1119.23397</ele>
        <time>2024-01-12T14:12:46Z</time>
      </trkpt>
      <trkpt lat="42.93706" lon="0.28801">
        <ele>1118.82438</ele>
        <time>2024-01-12T14:12:47Z</time>
      </trkpt>
      <trkpt lat="42.93707" lon="0.28799">
        <ele>1118.98433</ele>
        <time>2024-01-12T14:12:48Z</time>
      </trkpt>
      <trkpt lat="42.93708" lon="0.28798">
        <ele>1119.6311</ele>
        <time>2024-01-12T14:12:49Z</time>
      </trkpt>
      <trkpt lat="42.9371" lon="0.28797">
        <ele>1119.18285</ele>
        <time>2024-01-12T14:12:50Z</time>
      </trkpt>
      <trkpt lat="42.93711" lon="0.28795">
        <ele>1119.8482</ele>
        <time>2024-01-12T14:12:51Z</time>
      </trkpt>
      <trkpt lat="42.93712" lon="0.28793">
        <ele>1119.98664</ele>
        <time>2024-01-12T14:12:53Z</time>
      </trkpt>
      <trkpt lat="42.93712" lon="0.28791">
        <ele>1118.6607</ele>
        <time>2024-01-12T14:12:55Z</time>
      </trkpt>
      <trkpt lat="42.93713" lon="0.28789">
        <ele>1118.38868</ele>
        <time>2024-01-12T14:12:56Z</time>
      </trkpt>
      <trkpt lat="42.93714" lon="0.28787">
        <ele>1118.09169</ele>
        <time>2024-01-12T14:12:58Z</time>
      </trkpt>
      <trkpt lat="42.93715" lon="0.28786">
        <ele>1118.75374</ele>
        <time>2024-01-12T14:12:59Z</time>
      </trkpt>
      <trkpt lat="42.93716" lon="0.28785">
        <ele>1118.47115</ele>
        <time>2024-01-12T14:13:00Z</time>
      </trkpt>
      <trkpt lat="42.93717" lon="0.28784">
        <ele>1119.02395</ele>
        <time>2024-01-12T14:13:01Z</time>
      </trkpt>
      <trkpt lat="42.93717" lon="0.28782">
        <ele>1119.28809</ele>
        <time>2024-01-12T14:13:02Z</time>
      </trkpt>
      <trkpt lat="42.93718" lon="0.28781">
        <ele>1118.55666</ele>
        <time>2024-01-12T14:13:03Z</time>
      </trkpt>
      <trkpt lat="42.93719" lon="0.2878">
        <ele>1118.28621</ele>
        <time>2024-01-12T14:13:04Z</time>
      </trkpt>
      <trkpt lat="42.9372" lon="0.28777">
        <ele>1119.80943</ele>
        <time>2024-01-12T14:13:06Z</time>
      </trkpt>
      <trkpt lat="42.93721" lon="0.28776">
        <ele>1119.0172</ele>
        <time>2024-01-12T14:13:07Z</time>
      </trkpt>
      <trkpt lat="42.93722" lon="0.28775">
        <ele>1119.33034</ele>
        <time>2024-01-12T14:13:08Z</time>
      </trkpt>
      <trkpt lat="42.93722" lon="0.28773">
        <ele>1119.4765</ele>
        <time>2024-01-12T14:13:09Z</time>
      </trkpt>
      <trkpt lat="42.93723" lon="0.28771">
        <ele>1117.59688</ele>
        <time>2024-01-12T14:13:11Z</time>
      </trkpt>
      <trkpt lat="42.93724" lon="0.2877">
        <ele>1117.42384</ele>
        <time>2024-01-12T14:13:12Z</time>
      </trkpt>
      <trkpt lat="42.93725" lon="0.28767">
        <ele>1117.86716</ele>
        <time>2024-01-12T14:13:14Z</time>
      </trkpt>
      <trkpt lat="42.93726" lon="0.28766">
        <ele>1118.47533</ele>
        <time>2024-01-12T14:13:15Z</time>
      </trkpt>
      <trkpt lat="42.93727" lon="0.28765">
        <ele>1117.60965</ele>
        <time>2024-01-12T14:13:16Z</time>
      </trkpt>
      <trkpt lat="42.93728" lon="0.28764">
        <ele>1117.77073</ele>
        <time>2024-01-12T14:13:17Z</time>
      </trkpt>
      <trkpt lat="42.93729" lon="0.28763">
        <ele>1118.08723</ele>
        <time>2024-01-12T14:13:18Z</time>
      </trkpt>
      <trkpt lat="42.93729" lon="0.28761">
        <ele>1116.86085</ele>
        <time>2024-01-12T14:13:19Z</time>
      </trkpt>
      <trkpt lat="42.9373" lon="0.28759">
        <ele>1115.94583</ele>
        <time>2024-01-12T14:13:20Z</time>
      </trkpt>
      <trkpt lat="42.9373" lon="0.28758">
        <ele>1116.06037</ele>
        <time>2024-01-12T14:13:21Z</time>
      </trkpt>
      <trkpt lat="42.93731" lon="0.28757">
        <ele>1116.7772</ele>
        <time>2024-01-12T14:13:22Z</time>
      </trkpt>
      <trkpt lat="42.93732" lon="0.28756">
        <ele>1117.16373</ele>
        <time>2024-01-12T14:13:23Z</time>
      </trkpt>
      <trkpt lat="42.93733" lon="0.28754">
        <ele>1116.90332</ele>
        <time>2024-01-12T14:13:25Z</time>
      </trkpt>
      <trkpt lat="42.93734" lon="0.28752">
        <ele>1116.98746</ele>
        <time>2024-01-12T14:13:26Z</time>
      </trkpt>
      <trkpt lat="42.93734" lon="0.28751">
        <ele>1116.09685</ele>
        <time>2024-01-12T14:13:27Z</time>
      </trkpt>
      <trkpt lat="42.93735" lon="0.2875">
        <ele>1116.57106</ele>
        <time>2024-01-12T14:13:28Z</time>
      </trkpt>
      <trkpt lat="42.93737" lon="0.28748">
        <ele>1117.86302</ele>
        <time>2024-01-12T14:13:29Z</time>
      </trkpt>
      <trkpt lat="42.93738" lon="0.28747">
        <ele>1118.46771</ele>
        <time>2024-01-12T14:13:30Z</time>
      </trkpt>
      <trkpt lat="42.93738" lon="0.28746">
        <ele>1118.7149</ele>
        <time>2024-01-12T14:13:31Z</time>
      </trkpt>
      <trkpt lat="42.93739" lon="0.28744">
        <ele>1118.99566</ele>
        <time>2024-01-12T14:13:32Z</time>
      </trkpt>
      <trkpt lat="42.93741" lon="0.28743">
        <ele>1118.81191</ele>
        <time>2024-01-12T14:13:33Z</time>
      </trkpt>
      <trkpt lat="42.93741" lon="0.28741">
        <ele>1119.29058</ele>
        <time>2024-01-12T14:13:34Z</time>
      </trkpt>
      <trkpt lat="42.93742" lon="0.2874">
        <ele>1119.00179</ele>
        <time>2024-01-12T14:13:35Z</time>
      </trkpt>
      <trkpt lat="42.93743" lon="0.28738">
        <ele>1116.73556</ele>
        <time>2024-01-12T14:13:37Z</time>
      </trkpt>
      <trkpt lat="42.93744" lon="0.28737">
        <ele>1116.18878</ele>
        <time>2024-01-12T14:13:38Z</time>
      </trkpt>
      <trkpt lat="42.93744" lon="0.28735">
        <ele>1116.28479</ele>
        <time>2024-01-12T14:13:39Z</time>
      </trkpt>
      <trkpt lat="42.93745" lon="0.28734">
        <ele>1116.29767</ele>
        <time>2024-01-12T14:13:40Z</time>
      </trkpt>
      <trkpt lat="42.93747" lon="0.28733">
        <ele>1116.9903</ele>
        <time>2024-01-12T14:13:41Z</time>
      </trkpt>
      <trkpt lat="42.93747" lon="0.28732">
        <ele>1117.20247</ele>
        <time>2024-01-12T14:13:42Z</time>
      </trkpt>
      <trkpt lat="42.93748" lon="0.2873">
        <ele>1117.55352</ele>
        <time>2024-01-12T14:13:43Z</time>
      </trkpt>
      <trkpt lat="42.93749" lon="0.28729">
        <ele>1117.57259</ele>
        <time>2024-01-12T14:13:44Z</time>
      </trkpt>
      <trkpt lat="42.9375" lon="0.28728">
        <ele>1118.14713</ele>
        <time>2024-01-12T14:13:45Z</time>
      </trkpt>
      <trkpt lat="42.9375" lon="0.28726">
        <ele>1118.0199</ele>
        <time>2024-01-12T14:13:46Z</time>
      </trkpt>
      <trkpt lat="42.93751" lon="0.28725">
        <ele>1117.95974</ele>
        <time>2024-01-12T14:13:47Z</time>
      </trkpt>
      <trkpt lat="42.93752" lon="0.28724">
        <ele>1118.62826</ele>
        <time>2024-01-12T14:13:48Z</time>
      </trkpt>
      <trkpt lat="42.93753" lon="0.28723">
        <ele>1118.58951</ele>
        <time>2024-01-12T14:13:49Z</time>
      </trkpt>
      <trkpt lat="42.93753" lon="0.28722">
        <ele>1118.62068</ele>
        <time>2024-01-12T14:13:50Z</time>
      </trkpt>
      <trkpt lat="42.93754" lon="0.2872">
        <ele>1118.5484</ele>
        <time>2024-01-12T14:13:51Z</time>
      </trkpt>
      <trkpt lat="42.93755" lon="0.28718">
        <ele>1118.38871</ele>
        <time>2024-01-12T14:13:52Z</time>
      </trkpt>
      <trkpt lat="42.93756" lon="0.28717">
        <ele>1118.75195</ele>
        <time>2024-01-12T14:13:53Z</time>
      </trkpt>
      <trkpt lat="42.93757" lon="0.28716">
        <ele>1118.66126</ele>
        <time>2024-01-12T14:13:54Z</time>
      </trkpt>
      <trkpt lat="42.93758" lon="0.28716">
        <ele>1118.58336</ele>
        <time>2024-01-12T14:13:55Z</time>
      </trkpt>
      <trkpt lat="42.93758" lon="0.28714">
        <ele>1118.60813</ele>
        <time>2024-01-12T14:13:56Z</time>
      </trkpt>
      <trkpt lat="42.93759" lon="0.28713">
        <ele>1117.74756</ele>
        <time>2024-01-12T14:13:57Z</time>
      </trkpt>
      <trkpt lat="42.9376" lon="0.28712">
        <ele>1117.70054</ele>
        <time>2024-01-12T14:13:58Z</time>
      </trkpt>
      <trkpt lat="42.9376" lon="0.2871">
        <ele>1117.69936</ele>
        <time>2024-01-12T14:13:59Z</time>
      </trkpt>
      <trkpt lat="42.93761" lon="0.28709">
        <ele>1117.66773</ele>
        <time>2024-01-12T14:14:00Z</time>
      </trkpt>
      <trkpt lat="42.93762" lon="0.28707">
        <ele>1118.40951</ele>
        <time>2024-01-12T14:14:01Z</time>
      </trkpt>
      <trkpt lat="42.93763" lon="0.28706">
        <ele>1118.43774</ele>
        <time>2024-01-12T14:14:02Z</time>
      </trkpt>
      <trkpt lat="42.93765" lon="0.28704">
        <ele>1119.23425</ele>
        <time>2024-01-12T14:14:03Z</time>
      </trkpt>
      <trkpt lat="42.93765" lon="0.28703">
        <ele>1119.43381</ele>
        <time>2024-01-12T14:14:04Z</time>
      </trkpt>
      <trkpt lat="42.93766" lon="0.28702">
        <ele>1118.98416</ele>
        <time>2024-01-12T14:14:05Z</time>
      </trkpt>
      <trkpt lat="42.93766" lon="0.287">
        <ele>1118.31879</ele>
        <time>2024-01-12T14:14:06Z</time>
      </trkpt>
      <trkpt lat="42.93767" lon="0.28699">
        <ele>1117.87367</ele>
        <time>2024-01-12T14:14:07Z</time>
      </trkpt>
      <trkpt lat="42.93768" lon="0.28698">
        <ele>1117.11209</ele>
        <time>2024-01-12T14:14:08Z</time>
      </trkpt>
      <trkpt lat="42.93768" lon="0.28697">
        <ele>1117.30254</ele>
        <time>2024-01-12T14:14:09Z</time>
      </trkpt>
      <trkpt lat="42.9377" lon="0.28695">
        <ele>1117.77009</ele>
        <time>2024-01-12T14:14:10Z</time>
      </trkpt>
      <trkpt lat="42.9377" lon="0.28694">
        <ele>1117.63748</ele>
        <time>2024-01-12T14:14:11Z</time>
      </trkpt>
      <trkpt lat="42.93771" lon="0.28692">
        <ele>1116.5019</ele>
        <time>2024-01-12T14:14:13Z</time>
      </trkpt>
      <trkpt lat="42.93772" lon="0.2869">
        <ele>1116.41721</ele>
        <time>2024-01-12T14:14:15Z</time>
      </trkpt>
      <trkpt lat="42.93773" lon="0.28688">
        <ele>1116.24764</ele>
        <time>2024-01-12T14:14:16Z</time>
      </trkpt>
      <trkpt lat="42.93774" lon="0.28687">
        <ele>1116.31728</ele>
        <time>2024-01-12T14:14:17Z</time>
      </trkpt>
      <trkpt lat="42.93776" lon="0.28685">
        <ele>1116.74114</ele>
        <time>2024-01-12T14:14:18Z</time>
      </trkpt>
      <trkpt lat="42.93777" lon="0.28684">
        <ele>1117.78591</ele>
        <time>2024-01-12T14:14:19Z</time>
      </trkpt>
      <trkpt lat="42.93778" lon="0.28683">
        <ele>1117.77112</ele>
        <time>2024-01-12T14:14:20Z</time>
      </trkpt>
      <trkpt lat="42.93778" lon="0.28682">
        <ele>1117.08631</ele>
        <time>2024-01-12T14:14:21Z</time>
      </trkpt>
      <trkpt lat="42.93779" lon="0.28681">
        <ele>1117.14771</ele>
        <time>2024-01-12T14:14:22Z</time>
      </trkpt>
      <trkpt lat="42.93779" lon="0.28679">
        <ele>1116.61989</ele>
        <time>2024-01-12T14:14:23Z</time>
      </trkpt>
      <trkpt lat="42.9378" lon="0.28678">
        <ele>1116.48223</ele>
        <time>2024-01-12T14:14:24Z</time>
      </trkpt>
      <trkpt lat="42.93781" lon="0.28677">
        <ele>1116.79223</ele>
        <time>2024-01-12T14:14:25Z</time>
      </trkpt>
      <trkpt lat="42.93781" lon="0.28675">
        <ele>1117.17595</ele>
        <time>2024-01-12T14:14:26Z</time>
      </trkpt>
      <trkpt lat="42.93783" lon="0.28673">
        <ele>1116.71053</ele>
        <time>2024-01-12T14:14:28Z</time>
      </trkpt>
      <trkpt lat="42.93784" lon="0.28671">
        <ele>1116.65969</ele>
        <time>2024-01-12T14:14:29Z</time>
      </trkpt>
      <trkpt lat="42.93785" lon="0.2867">
        <ele>1116.72466</ele>
        <time>2024-01-12T14:14:30Z</time>
      </trkpt>
      <trkpt lat="42.93785" lon="0.28669">
        <ele>1115.66389</ele>
        <time>2024-01-12T14:14:31Z</time>
      </trkpt>
      <trkpt lat="42.93786" lon="0.28668">
        <ele>1115.70988</ele>
        <time>2024-01-12T14:14:32Z</time>
      </trkpt>
      <trkpt lat="42.93787" lon="0.28666">
        <ele>1115.53706</ele>
        <time>2024-01-12T14:14:33Z</time>
      </trkpt>
      <trkpt lat="42.93788" lon="0.28665">
        <ele>1115.81766</ele>
        <time>2024-01-12T14:14:34Z</time>
      </trkpt>
      <trkpt lat="42.93789" lon="0.28664">
        <ele>1116.62181</ele>
        <time>2024-01-12T14:14:35Z</time>
      </trkpt>
      <trkpt lat="42.93789" lon="0.28663">
        <ele>1116.11048</ele>
        <time>2024-01-12T14:14:36Z</time>
      </trkpt>
      <trkpt lat="42.9379" lon="0.28662">
        <ele>1116.26981</ele>
        <time>2024-01-12T14:14:37Z</time>
      </trkpt>
      <trkpt lat="42.93791" lon="0.2866">
        <ele>1115.97746</ele>
        <time>2024-01-12T14:14:38Z</time>
      </trkpt>
      <trkpt lat="42.93792" lon="0.28659">
        <ele>1115.71283</ele>
        <time>2024-01-12T14:14:39Z</time>
      </trkpt>
      <trkpt lat="42.93793" lon="0.28657">
        <ele>1114.52277</ele>
        <time>2024-01-12T14:14:40Z</time>
      </trkpt>
      <trkpt lat="42.93793" lon="0.28656">
        <ele>1114.27081</ele>
        <time>2024-01-12T14:14:41Z</time>
      </trkpt>
      <trkpt lat="42.93794" lon="0.28655">
        <ele>1114.37527</ele>
        <time>2024-01-12T14:14:42Z</time>
      </trkpt>
      <trkpt lat="42.93794" lon="0.28654">
        <ele>1114.56793</ele>
        <time>2024-01-12T14:14:43Z</time>
      </trkpt>
      <trkpt lat="42.93795" lon="0.28652">
        <ele>1114.41707</ele>
        <time>2024-01-12T14:14:44Z</time>
      </trkpt>
      <trkpt lat="42.93796" lon="0.28651">
        <ele>1114.21535</ele>
        <time>2024-01-12T14:14:45Z</time>
      </trkpt>
      <trkpt lat="42.93797" lon="0.2865">
        <ele>1114.33401</ele>
        <time>2024-01-12T14:14:46Z</time>
      </trkpt>
      <trkpt lat="42.93797" lon="0.28649">
        <ele>1114.58331</ele>
        <time>2024-01-12T14:14:47Z</time>
      </trkpt>
      <trkpt lat="42.93798" lon="0.28648">
        <ele>1113.83843</ele>
        <time>2024-01-12T14:14:48Z</time>
      </trkpt>
      <trkpt lat="42.93799" lon="0.28647">
        <ele>1113.62125</ele>
        <time>2024-01-12T14:14:49Z</time>
      </trkpt>
      <trkpt lat="42.938" lon="0.28645">
        <ele>1113.94059</ele>
        <time>2024-01-12T14:14:50Z</time>
      </trkpt>
      <trkpt lat="42.93801" lon="0.28644">
        <ele>1114.16472</ele>
        <time>2024-01-12T14:14:51Z</time>
      </trkpt>
      <trkpt lat="42.93802" lon="0.28643">
        <ele>1114.14491</ele>
        <time>2024-01-12T14:14:52Z</time>
      </trkpt>
      <trkpt lat="42.93803" lon="0.28641">
        <ele>1114.06767</ele>
        <time>2024-01-12T14:14:53Z</time>
      </trkpt>
      <trkpt lat="42.93803" lon="0.2864">
        <ele>1113.29524</ele>
        <time>2024-01-12T14:14:54Z</time>
      </trkpt>
      <trkpt lat="42.93804" lon="0.28639">
        <ele>1112.99293</ele>
        <time>2024-01-12T14:14:55Z</time>
      </trkpt>
      <trkpt lat="42.93805" lon="0.28638">
        <ele>1113.03197</ele>
        <time>2024-01-12T14:14:56Z</time>
      </trkpt>
      <trkpt lat="42.93806" lon="0.28636">
        <ele>1113.53684</ele>
        <time>2024-01-12T14:14:57Z</time>
      </trkpt>
      <trkpt lat="42.93807" lon="0.28634">
        <ele>1111.71378</ele>
        <time>2024-01-12T14:14:59Z</time>
      </trkpt>
      <trkpt lat="42.93807" lon="0.28633">
        <ele>1111.91369</ele>
        <time>2024-01-12T14:15:00Z</time>
      </trkpt>
      <trkpt lat="42.93808" lon="0.28631">
        <ele>1112.31543</ele>
        <time>2024-01-12T14:15:01Z</time>
      </trkpt>
      <trkpt lat="42.93808" lon="0.28629">
        <ele>1113.10265</ele>
        <time>2024-01-12T14:15:02Z</time>
      </trkpt>
      <trkpt lat="42.93809" lon="0.28628">
        <ele>1113.07824</ele>
        <time>2024-01-12T14:15:03Z</time>
      </trkpt>
      <trkpt lat="42.9381" lon="0.28627">
        <ele>1112.89797</ele>
        <time>2024-01-12T14:15:04Z</time>
      </trkpt>
      <trkpt lat="42.93811" lon="0.28625">
        <ele>1111.65404</ele>
        <time>2024-01-12T14:15:05Z</time>
      </trkpt>
      <trkpt lat="42.93813" lon="0.28623">
        <ele>1111.16117</ele>
        <time>2024-01-12T14:15:07Z</time>
      </trkpt>
      <trkpt lat="42.93814" lon="0.28622">
        <ele>1111.27215</ele>
        <time>2024-01-12T14:15:08Z</time>
      </trkpt>
      <trkpt lat="42.93815" lon="0.2862">
        <ele>1111.58</ele>
        <time>2024-01-12T14:15:09Z</time>
      </trkpt>
      <trkpt lat="42.93815" lon="0.28619">
        <ele>1111.7402</ele>
        <time>2024-01-12T14:15:10Z</time>
      </trkpt>
      <trkpt lat="42.93816" lon="0.28618">
        <ele>1112.59643</ele>
        <time>2024-01-12T14:15:11Z</time>
      </trkpt>
      <trkpt lat="42.93817" lon="0.28617">
        <ele>1113.00813</ele>
        <time>2024-01-12T14:15:12Z</time>
      </trkpt>
      <trkpt lat="42.93818" lon="0.28615">
        <ele>1111.80443</ele>
        <time>2024-01-12T14:15:14Z</time>
      </trkpt>
      <trkpt lat="42.93819" lon="0.28614">
        <ele>1111.45773</ele>
        <time>2024-01-12T14:15:15Z</time>
      </trkpt>
      <trkpt lat="42.9382" lon="0.28612">
        <ele>1111.81742</ele>
        <time>2024-01-12T14:15:16Z</time>
      </trkpt>
      <trkpt lat="42.93821" lon="0.28611">
        <ele>1111.98651</ele>
        <time>2024-01-12T14:15:17Z</time>
      </trkpt>
      <trkpt lat="42.93822" lon="0.2861">
        <ele>1112.35201</ele>
        <time>2024-01-12T14:15:18Z</time>
      </trkpt>
      <trkpt lat="42.93823" lon="0.28609">
        <ele>1112.87363</ele>
        <time>2024-01-12T14:15:19Z</time>
      </trkpt>
      <trkpt lat="42.93824" lon="0.28607">
        <ele>1113.02516</ele>
        <time>2024-01-12T14:15:20Z</time>
      </trkpt>
      <trkpt lat="42.93824" lon="0.28606">
        <ele>1113.11828</ele>
        <time>2024-01-12T14:15:21Z</time>
      </trkpt>
      <trkpt lat="42.93825" lon="0.28604">
        <ele>1112.25426</ele>
        <time>2024-01-12T14:15:22Z</time>
      </trkpt>
      <trkpt lat="42.93826" lon="0.28603">
        <ele>1112.31102</ele>
        <time>2024-01-12T14:15:23Z</time>
      </trkpt>
      <trkpt lat="42.93827" lon="0.28602">
        <ele>1112.73202</ele>
        <time>2024-01-12T14:15:24Z</time>
      </trkpt>
      <trkpt lat="42.93828" lon="0.286">
        <ele>1113.03507</ele>
        <time>2024-01-12T14:15:26Z</time>
      </trkpt>
      <trkpt lat="42.93829" lon="0.28598">
        <ele>1113.75279</ele>
        <time>2024-01-12T14:15:27Z</time>
      </trkpt>
      <trkpt lat="42.9383" lon="0.28596">
        <ele>1112.48595</ele>
        <time>2024-01-12T14:15:29Z</time>
      </trkpt>
      <trkpt lat="42.93831" lon="0.28595">
        <ele>1112.51988</ele>
        <time>2024-01-12T14:15:30Z</time>
      </trkpt>
      <trkpt lat="42.93832" lon="0.28592">
        <ele>1112.72874</ele>
        <time>2024-01-12T14:15:32Z</time>
      </trkpt>
      <trkpt lat="42.93832" lon="0.28591">
        <ele>1112.59178</ele>
        <time>2024-01-12T14:15:33Z</time>
      </trkpt>
      <trkpt lat="42.93833" lon="0.2859">
        <ele>1113.04058</ele>
        <time>2024-01-12T14:15:34Z</time>
      </trkpt>
      <trkpt lat="42.93834" lon="0.28589">
        <ele>1113.24202</ele>
        <time>2024-01-12T14:15:35Z</time>
      </trkpt>
      <trkpt lat="42.93835" lon="0.28587">
        <ele>1113.50007</ele>
        <time>2024-01-12T14:15:36Z</time>
      </trkpt>
      <trkpt lat="42.93835" lon="0.28586">
        <ele>1113.55447</ele>
        <time>2024-01-12T14:15:37Z</time>
      </trkpt>
      <trkpt lat="42.93837" lon="0.28584">
        <ele>1111.51348</ele>
        <time>2024-01-12T14:15:39Z</time>
      </trkpt>
      <trkpt lat="42.93837" lon="0.28582">
        <ele>1112.09349</ele>
        <time>2024-01-12T14:15:40Z</time>
      </trkpt>
      <trkpt lat="42.93838" lon="0.2858">
        <ele>1112.60508</ele>
        <time>2024-01-12T14:15:41Z</time>
      </trkpt>
      <trkpt lat="42.93839" lon="0.28579">
        <ele>1112.8948</ele>
        <time>2024-01-12T14:15:42Z</time>
      </trkpt>
      <trkpt lat="42.9384" lon="0.28578">
        <ele>1113.60792</ele>
        <time>2024-01-12T14:15:43Z</time>
      </trkpt>
      <trkpt lat="42.93841" lon="0.28576">
        <ele>1114.02677</ele>
        <time>2024-01-12T14:15:44Z</time>
      </trkpt>
      <trkpt lat="42.93841" lon="0.28575">
        <ele>1112.99349</ele>
        <time>2024-01-12T14:15:45Z</time>
      </trkpt>
      <trkpt lat="42.93843" lon="0.28573">
        <ele>1111.83841</ele>
        <time>2024-01-12T14:15:47Z</time>
      </trkpt>
      <trkpt lat="42.93844" lon="0.28571">
        <ele>1111.39814</ele>
        <time>2024-01-12T14:15:48Z</time>
      </trkpt>
      <trkpt lat="42.93844" lon="0.2857">
        <ele>1111.54631</ele>
        <time>2024-01-12T14:15:49Z</time>
      </trkpt>
      <trkpt lat="42.93845" lon="0.28569">
        <ele>1111.71229</ele>
        <time>2024-01-12T14:15:50Z</time>
      </trkpt>
      <trkpt lat="42.93846" lon="0.28567">
        <ele>1111.40618</ele>
        <time>2024-01-12T14:15:51Z</time>
      </trkpt>
      <trkpt lat="42.93847" lon="0.28566">
        <ele>1112.03833</ele>
        <time>2024-01-12T14:15:52Z</time>
      </trkpt>
      <trkpt lat="42.93847" lon="0.28565">
        <ele>1111.51727</ele>
        <time>2024-01-12T14:15:53Z</time>
      </trkpt>
      <trkpt lat="42.93849" lon="0.28564">
        <ele>1110.48569</ele>
        <time>2024-01-12T14:15:55Z</time>
      </trkpt>
      <trkpt lat="42.9385" lon="0.28562">
        <ele>1111.02149</ele>
        <time>2024-01-12T14:15:56Z</time>
      </trkpt>
      <trkpt lat="42.9385" lon="0.28561">
        <ele>1111.22773</ele>
        <time>2024-01-12T14:15:57Z</time>
      </trkpt>
      <trkpt lat="42.93851" lon="0.28559">
        <ele>1111.21063</ele>
        <time>2024-01-12T14:15:58Z</time>
      </trkpt>
      <trkpt lat="42.93852" lon="0.28558">
        <ele>1111.65897</ele>
        <time>2024-01-12T14:15:59Z</time>
      </trkpt>
      <trkpt lat="42.93853" lon="0.28557">
        <ele>1112.83894</ele>
        <time>2024-01-12T14:16:00Z</time>
      </trkpt>
      <trkpt lat="42.93854" lon="0.28555">
        <ele>1112.55022</ele>
        <time>2024-01-12T14:16:01Z</time>
      </trkpt>
      <trkpt lat="42.93855" lon="0.28554">
        <ele>1111.05272</ele>
        <time>2024-01-12T14:16:03Z</time>
      </trkpt>
      <trkpt lat="42.93856" lon="0.28553">
        <ele>1111.30589</ele>
        <time>2024-01-12T14:16:04Z</time>
      </trkpt>
      <trkpt lat="42.93856" lon="0.28551">
        <ele>1111.00485</ele>
        <time>2024-01-12T14:16:05Z</time>
      </trkpt>
      <trkpt lat="42.93857" lon="0.2855">
        <ele>1110.88318</ele>
        <time>2024-01-12T14:16:06Z</time>
      </trkpt>
      <trkpt lat="42.93857" lon="0.28549">
        <ele>1111.09427</ele>
        <time>2024-01-12T14:16:07Z</time>
      </trkpt>
      <trkpt lat="42.93859" lon="0.28548">
        <ele>1111.03322</ele>
        <time>2024-01-12T14:16:08Z</time>
      </trkpt>
      <trkpt lat="42.93859" lon="0.28547">
        <ele>1110.9782</ele>
        <time>2024-01-12T14:16:09Z</time>
      </trkpt>
      <trkpt lat="42.9386" lon="0.28545">
        <ele>1110.51911</ele>
        <time>2024-01-12T14:16:10Z</time>
      </trkpt>
      <trkpt lat="42.93861" lon="0.28544">
        <ele>1110.39689</ele>
        <time>2024-01-12T14:16:11Z</time>
      </trkpt>
      <trkpt lat="42.93862" lon="0.28542">
        <ele>1111.11376</ele>
        <time>2024-01-12T14:16:12Z</time>
      </trkpt>
      <trkpt lat="42.93862" lon="0.28541">
        <ele>1110.92917</ele>
        <time>2024-01-12T14:16:13Z</time>
      </trkpt>
      <trkpt lat="42.93863" lon="0.2854">
        <ele>1111.30461</ele>
        <time>2024-01-12T14:16:14Z</time>
      </trkpt>
      <trkpt lat="42.93864" lon="0.28538">
        <ele>1111.5196</ele>
        <time>2024-01-12T14:16:15Z</time>
      </trkpt>
      <trkpt lat="42.93865" lon="0.28537">
        <ele>1111.36461</ele>
        <time>2024-01-12T14:16:16Z</time>
      </trkpt>
      <trkpt lat="42.93866" lon="0.28536">
        <ele>1111.46413</ele>
        <time>2024-01-12T14:16:17Z</time>
      </trkpt>
      <trkpt lat="42.93867" lon="0.28535">
        <ele>1111.34983</ele>
        <time>2024-01-12T14:16:18Z</time>
      </trkpt>
      <trkpt lat="42.93868" lon="0.28533">
        <ele>1111.78152</ele>
        <time>2024-01-12T14:16:19Z</time>
      </trkpt>
      <trkpt lat="42.9387" lon="0.28531">
        <ele>1112.43988</ele>
        <time>2024-01-12T14:16:21Z</time>
      </trkpt>
      <trkpt lat="42.93871" lon="0.28528">
        <ele>1110.87718</ele>
        <time>2024-01-12T14:16:23Z</time>
      </trkpt>
      <trkpt lat="42.93872" lon="0.28527">
        <ele>1111.03857</ele>
        <time>2024-01-12T14:16:24Z</time>
      </trkpt>
      <trkpt lat="42.93872" lon="0.28526">
        <ele>1111.40141</ele>
        <time>2024-01-12T14:16:25Z</time>
      </trkpt>
      <trkpt lat="42.93873" lon="0.28525">
        <ele>1111.93911</ele>
        <time>2024-01-12T14:16:26Z</time>
      </trkpt>
      <trkpt lat="42.93874" lon="0.28524">
        <ele>1111.82939</ele>
        <time>2024-01-12T14:16:27Z</time>
      </trkpt>
      <trkpt lat="42.93875" lon="0.28522">
        <ele>1112.58282</ele>
        <time>2024-01-12T14:16:28Z</time>
      </trkpt>
      <trkpt lat="42.93876" lon="0.28521">
        <ele>1111.95807</ele>
        <time>2024-01-12T14:16:29Z</time>
      </trkpt>
      <trkpt lat="42.93877" lon="0.2852">
        <ele>1111.86708</ele>
        <time>2024-01-12T14:16:30Z</time>
      </trkpt>
      <trkpt lat="42.93877" lon="0.28518">
        <ele>1112.06112</ele>
        <time>2024-01-12T14:16:31Z</time>
      </trkpt>
      <trkpt lat="42.93878" lon="0.28517">
        <ele>1112.14664</ele>
        <time>2024-01-12T14:16:32Z</time>
      </trkpt>
      <trkpt lat="42.93879" lon="0.28515">
        <ele>1112.34591</ele>
        <time>2024-01-12T14:16:33Z</time>
      </trkpt>
      <trkpt lat="42.9388" lon="0.28514">
        <ele>1111.81113</ele>
        <time>2024-01-12T14:16:34Z</time>
      </trkpt>
      <trkpt lat="42.9388" lon="0.28513">
        <ele>1112.09924</ele>
        <time>2024-01-12T14:16:35Z</time>
      </trkpt>
      <trkpt lat="42.93881" lon="0.28512">
        <ele>1111.18963</ele>
        <time>2024-01-12T14:16:36Z</time>
      </trkpt>
      <trkpt lat="42.93882" lon="0.2851">
        <ele>1111.05915</ele>
        <time>2024-01-12T14:16:37Z</time>
      </trkpt>
      <trkpt lat="42.93883" lon="0.28509">
        <ele>1110.22145</ele>
        <time>2024-01-12T14:16:38Z</time>
      </trkpt>
      <trkpt lat="42.93883" lon="0.28507">
        <ele>1110.73339</ele>
        <time>2024-01-12T14:16:39Z</time>
      </trkpt>
      <trkpt lat="42.93885" lon="0.28506">
        <ele>1110.91927</ele>
        <time>2024-01-12T14:16:40Z</time>
      </trkpt>
      <trkpt lat="42.93886" lon="0.28505">
        <ele>1111.40958</ele>
        <time>2024-01-12T14:16:41Z</time>
      </trkpt>
      <trkpt lat="42.93886" lon="0.28504">
        <ele>1111.50483</ele>
        <time>2024-01-12T14:16:42Z</time>
      </trkpt>
      <trkpt lat="42.93887" lon="0.28503">
        <ele>1111.67343</ele>
        <time>2024-01-12T14:16:43Z</time>
      </trkpt>
      <trkpt lat="42.93887" lon="0.28501">
        <ele>1112.49368</ele>
        <time>2024-01-12T14:16:44Z</time>
      </trkpt>
      <trkpt lat="42.93888" lon="0.28499">
        <ele>1112.68537</ele>
        <time>2024-01-12T14:16:45Z</time>
      </trkpt>
      <trkpt lat="42.93889" lon="0.28498">
        <ele>1111.64655</ele>
        <time>2024-01-12T14:16:46Z</time>
      </trkpt>
      <trkpt lat="42.9389" lon="0.28496">
        <ele>1111.53974</ele>
        <time>2024-01-12T14:16:47Z</time>
      </trkpt>
      <trkpt lat="42.93891" lon="0.28495">
        <ele>1112.01806</ele>
        <time>2024-01-12T14:16:48Z</time>
      </trkpt>
      <trkpt lat="42.93891" lon="0.28494">
        <ele>1112.12529</ele>
        <time>2024-01-12T14:16:49Z</time>
      </trkpt>
      <trkpt lat="42.93892" lon="0.28493">
        <ele>1112.59642</ele>
        <time>2024-01-12T14:16:50Z</time>
      </trkpt>
      <trkpt lat="42.93893" lon="0.28492">
        <ele>1113.01303</ele>
        <time>2024-01-12T14:16:51Z</time>
      </trkpt>
      <trkpt lat="42.93894" lon="0.2849">
        <ele>1112.27055</ele>
        <time>2024-01-12T14:16:52Z</time>
      </trkpt>
      <trkpt lat="42.93894" lon="0.28489">
        <ele>1112.4046</ele>
        <time>2024-01-12T14:16:53Z</time>
      </trkpt>
      <trkpt lat="42.93895" lon="0.28488">
        <ele>1111.72653</ele>
        <time>2024-01-12T14:16:54Z</time>
      </trkpt>
      <trkpt lat="42.93896" lon="0.28487">
        <ele>1111.31862</ele>
        <time>2024-01-12T14:16:55Z</time>
      </trkpt>
      <trkpt lat="42.93897" lon="0.28485">
        <ele>1111.7859</ele>
        <time>2024-01-12T14:16:56Z</time>
      </trkpt>
      <trkpt lat="42.93897" lon="0.28483">
        <ele>1111.82676</ele>
        <time>2024-01-12T14:16:57Z</time>
      </trkpt>
      <trkpt lat="42.93898" lon="0.28482">
        <ele>1111.75051</ele>
        <time>2024-01-12T14:16:58Z</time>
      </trkpt>
      <trkpt lat="42.93899" lon="0.2848">
        <ele>1112.63929</ele>
        <time>2024-01-12T14:16:59Z</time>
      </trkpt>
      <trkpt lat="42.939" lon="0.2848">
        <ele>1112.38301</ele>
        <time>2024-01-12T14:17:00Z</time>
      </trkpt>
      <trkpt lat="42.939" lon="0.28479">
        <ele>1112.35712</ele>
        <time>2024-01-12T14:17:01Z</time>
      </trkpt>
      <trkpt lat="42.93901" lon="0.28478">
        <ele>1112.19612</ele>
        <time>2024-01-12T14:17:02Z</time>
      </trkpt>
      <trkpt lat="42.93902" lon="0.28476">
        <ele>1112.52684</ele>
        <time>2024-01-12T14:17:03Z</time>
      </trkpt>
      <trkpt lat="42.93903" lon="0.28474">
        <ele>1112.51694</ele>
        <time>2024-01-12T14:17:04Z</time>
      </trkpt>
      <trkpt lat="42.93903" lon="0.28473">
        <ele>1112.06326</ele>
        <time>2024-01-12T14:17:05Z</time>
      </trkpt>
      <trkpt lat="42.93904" lon="0.28472">
        <ele>1112.10773</ele>
        <time>2024-01-12T14:17:06Z</time>
      </trkpt>
      <trkpt lat="42.93905" lon="0.28471">
        <ele>1112.00051</ele>
        <time>2024-01-12T14:17:07Z</time>
      </trkpt>
      <trkpt lat="42.93906" lon="0.28469">
        <ele>1112.12096</ele>
        <time>2024-01-12T14:17:08Z</time>
      </trkpt>
      <trkpt lat="42.93907" lon="0.28468">
        <ele>1112.37069</ele>
        <time>2024-01-12T14:17:09Z</time>
      </trkpt>
      <trkpt lat="42.93907" lon="0.28467">
        <ele>1111.37827</ele>
        <time>2024-01-12T14:17:10Z</time>
      </trkpt>
      <trkpt lat="42.93908" lon="0.28466">
        <ele>1110.99604</ele>
        <time>2024-01-12T14:17:11Z</time>
      </trkpt>
      <trkpt lat="42.93909" lon="0.28464">
        <ele>1111.34522</ele>
        <time>2024-01-12T14:17:12Z</time>
      </trkpt>
      <trkpt lat="42.93909" lon="0.28463">
        <ele>1111.51164</ele>
        <time>2024-01-12T14:17:13Z</time>
      </trkpt>
      <trkpt lat="42.9391" lon="0.28462">
        <ele>1112.16307</ele>
        <time>2024-01-12T14:17:14Z</time>
      </trkpt>
      <trkpt lat="42.93911" lon="0.2846">
        <ele>1112.02326</ele>
        <time>2024-01-12T14:17:15Z</time>
      </trkpt>
      <trkpt lat="42.93911" lon="0.28458">
        <ele>1111.53413</ele>
        <time>2024-01-12T14:17:16Z</time>
      </trkpt>
      <trkpt lat="42.93912" lon="0.28457">
        <ele>1110.89674</ele>
        <time>2024-01-12T14:17:17Z</time>
      </trkpt>
      <trkpt lat="42.93912" lon="0.28456">
        <ele>1110.10667</ele>
        <time>2024-01-12T14:17:18Z</time>
      </trkpt>
      <trkpt lat="42.93914" lon="0.28454">
        <ele>1110.27738</ele>
        <time>2024-01-12T14:17:20Z</time>
      </trkpt>
      <trkpt lat="42.93915" lon="0.28452">
        <ele>1110.79663</ele>
        <time>2024-01-12T14:17:21Z</time>
      </trkpt>
      <trkpt lat="42.93915" lon="0.28451">
        <ele>1111.16065</ele>
        <time>2024-01-12T14:17:22Z</time>
      </trkpt>
      <trkpt lat="42.93916" lon="0.28449">
        <ele>1111.51174</ele>
        <time>2024-01-12T14:17:23Z</time>
      </trkpt>
      <trkpt lat="42.93916" lon="0.28448">
        <ele>1111.11136</ele>
        <time>2024-01-12T14:17:24Z</time>
      </trkpt>
      <trkpt lat="42.93917" lon="0.28447">
        <ele>1110.11221</ele>
        <time>2024-01-12T14:17:25Z</time>
      </trkpt>
      <trkpt lat="42.93918" lon="0.28445">
        <ele>1110.27249</ele>
        <time>2024-01-12T14:17:27Z</time>
      </trkpt>
      <trkpt lat="42.93919" lon="0.28443">
        <ele>1110.88419</ele>
        <time>2024-01-12T14:17:28Z</time>
      </trkpt>
      <trkpt lat="42.9392" lon="0.28441">
        <ele>1110.41746</ele>
        <time>2024-01-12T14:17:29Z</time>
      </trkpt>
      <trkpt lat="42.93921" lon="0.2844">
        <ele>1110.7264</ele>
        <time>2024-01-12T14:17:30Z</time>
      </trkpt>
      <trkpt lat="42.93921" lon="0.28438">
        <ele>1110.21633</ele>
        <time>2024-01-12T14:17:31Z</time>
      </trkpt>
      <trkpt lat="42.93922" lon="0.28437">
        <ele>1110.33518</ele>
        <time>2024-01-12T14:17:32Z</time>
      </trkpt>
      <trkpt lat="42.93923" lon="0.28435">
        <ele>1108.72984</ele>
        <time>2024-01-12T14:17:34Z</time>
      </trkpt>
      <trkpt lat="42.93924" lon="0.28433">
        <ele>1108.39738</ele>
        <time>2024-01-12T14:17:35Z</time>
      </trkpt>
      <trkpt lat="42.93925" lon="0.28432">
        <ele>1108.99189</ele>
        <time>2024-01-12T14:17:36Z</time>
      </trkpt>
      <trkpt lat="42.93925" lon="0.2843">
        <ele>1109.1864</ele>
        <time>2024-01-12T14:17:37Z</time>
      </trkpt>
      <trkpt lat="42.93926" lon="0.28429">
        <ele>1109.70331</ele>
        <time>2024-01-12T14:17:38Z</time>
      </trkpt>
      <trkpt lat="42.93927" lon="0.28428">
        <ele>1109.89707</ele>
        <time>2024-01-12T14:17:39Z</time>
      </trkpt>
      <trkpt lat="42.93928" lon="0.28426">
        <ele>1109.99334</ele>
        <time>2024-01-12T14:17:40Z</time>
      </trkpt>
      <trkpt lat="42.93928" lon="0.28425">
        <ele>1110.13437</ele>
        <time>2024-01-12T14:17:41Z</time>
      </trkpt>
      <trkpt lat="42.93929" lon="0.28424">
        <ele>1110.02655</ele>
        <time>2024-01-12T14:17:42Z</time>
      </trkpt>
      <trkpt lat="42.9393" lon="0.28422">
        <ele>1111.37097</ele>
        <time>2024-01-12T14:17:43Z</time>
      </trkpt>
      <trkpt lat="42.93931" lon="0.28421">
        <ele>1111.17557</ele>
        <time>2024-01-12T14:17:44Z</time>
      </trkpt>
      <trkpt lat="42.93931" lon="0.28419">
        <ele>1112.18616</ele>
        <time>2024-01-12T14:17:45Z</time>
      </trkpt>
      <trkpt lat="42.93932" lon="0.28418">
        <ele>1111.81217</ele>
        <time>2024-01-12T14:17:46Z</time>
      </trkpt>
      <trkpt lat="42.93933" lon="0.28417">
        <ele>1112.02138</ele>
        <time>2024-01-12T14:17:47Z</time>
      </trkpt>
      <trkpt lat="42.93934" lon="0.28416">
        <ele>1110.5524</ele>
        <time>2024-01-12T14:17:48Z</time>
      </trkpt>
      <trkpt lat="42.93935" lon="0.28414">
        <ele>1109.8897</ele>
        <time>2024-01-12T14:17:49Z</time>
      </trkpt>
      <trkpt lat="42.93936" lon="0.28413">
        <ele>1110.02568</ele>
        <time>2024-01-12T14:17:50Z</time>
      </trkpt>
      <trkpt lat="42.93937" lon="0.28412">
        <ele>1110.05869</ele>
        <time>2024-01-12T14:17:51Z</time>
      </trkpt>
      <trkpt lat="42.93937" lon="0.28411">
        <ele>1110.37474</ele>
        <time>2024-01-12T14:17:52Z</time>
      </trkpt>
      <trkpt lat="42.93939" lon="0.28408">
        <ele>1110.63994</ele>
        <time>2024-01-12T14:17:54Z</time>
      </trkpt>
      <trkpt lat="42.93939" lon="0.28407">
        <ele>1110.33156</ele>
        <time>2024-01-12T14:17:55Z</time>
      </trkpt>
      <trkpt lat="42.93941" lon="0.28406">
        <ele>1109.37259</ele>
        <time>2024-01-12T14:17:56Z</time>
      </trkpt>
      <trkpt lat="42.93942" lon="0.28404">
        <ele>1109.31236</ele>
        <time>2024-01-12T14:17:57Z</time>
      </trkpt>
      <trkpt lat="42.93943" lon="0.28403">
        <ele>1110.09153</ele>
        <time>2024-01-12T14:17:58Z</time>
      </trkpt>
      <trkpt lat="42.93944" lon="0.28402">
        <ele>1110.52628</ele>
        <time>2024-01-12T14:17:59Z</time>
      </trkpt>
      <trkpt lat="42.93944" lon="0.28401">
        <ele>1110.50335</ele>
        <time>2024-01-12T14:18:00Z</time>
      </trkpt>
      <trkpt lat="42.93945" lon="0.28398">
        <ele>1109.75226</ele>
        <time>2024-01-12T14:18:02Z</time>
      </trkpt>
      <trkpt lat="42.93946" lon="0.28396">
        <ele>1109.96584</ele>
        <time>2024-01-12T14:18:03Z</time>
      </trkpt>
      <trkpt lat="42.93946" lon="0.28394">
        <ele>1107.56331</ele>
        <time>2024-01-12T14:18:05Z</time>
      </trkpt>
      <trkpt lat="42.93947" lon="0.28393">
        <ele>1108.05721</ele>
        <time>2024-01-12T14:18:06Z</time>
      </trkpt>
      <trkpt lat="42.93948" lon="0.28392">
        <ele>1108.08797</ele>
        <time>2024-01-12T14:18:07Z</time>
      </trkpt>
      <trkpt lat="42.93949" lon="0.2839">
        <ele>1108.20534</ele>
        <time>2024-01-12T14:18:08Z</time>
      </trkpt>
      <trkpt lat="42.93951" lon="0.28389">
        <ele>1106.5706</ele>
        <time>2024-01-12T14:18:10Z</time>
      </trkpt>
      <trkpt lat="42.93951" lon="0.28387">
        <ele>1105.79977</ele>
        <time>2024-01-12T14:18:11Z</time>
      </trkpt>
      <trkpt lat="42.93952" lon="0.28386">
        <ele>1106.73405</ele>
        <time>2024-01-12T14:18:12Z</time>
      </trkpt>
      <trkpt lat="42.93953" lon="0.28385">
        <ele>1107.06213</ele>
        <time>2024-01-12T14:18:13Z</time>
      </trkpt>
      <trkpt lat="42.93954" lon="0.28384">
        <ele>1106.28851</ele>
        <time>2024-01-12T14:18:14Z</time>
      </trkpt>
      <trkpt lat="42.93955" lon="0.28383">
        <ele>1106.207</ele>
        <time>2024-01-12T14:18:15Z</time>
      </trkpt>
      <trkpt lat="42.93955" lon="0.28382">
        <ele>1106.24404</ele>
        <time>2024-01-12T14:18:16Z</time>
      </trkpt>
      <trkpt lat="42.93956" lon="0.28381">
        <ele>1106.09515</ele>
        <time>2024-01-12T14:18:17Z</time>
      </trkpt>
      <trkpt lat="42.93957" lon="0.2838">
        <ele>1105.20554</ele>
        <time>2024-01-12T14:18:18Z</time>
      </trkpt>
      <trkpt lat="42.93957" lon="0.28378">
        <ele>1105.09949</ele>
        <time>2024-01-12T14:18:19Z</time>
      </trkpt>
      <trkpt lat="42.93958" lon="0.28377">
        <ele>1106.01747</ele>
        <time>2024-01-12T14:18:20Z</time>
      </trkpt>
      <trkpt lat="42.93959" lon="0.28376">
        <ele>1106.72911</ele>
        <time>2024-01-12T14:18:21Z</time>
      </trkpt>
      <trkpt lat="42.9396" lon="0.28375">
        <ele>1107.4108</ele>
        <time>2024-01-12T14:18:22Z</time>
      </trkpt>
      <trkpt lat="42.93961" lon="0.28374">
        <ele>1106.464</ele>
        <time>2024-01-12T14:18:23Z</time>
      </trkpt>
      <trkpt lat="42.93961" lon="0.28373">
        <ele>1104.68042</ele>
        <time>2024-01-12T14:18:24Z</time>
      </trkpt>
      <trkpt lat="42.93962" lon="0.28372">
        <ele>1104.8209</ele>
        <time>2024-01-12T14:18:25Z</time>
      </trkpt>
      <trkpt lat="42.93962" lon="0.2837">
        <ele>1104.95844</ele>
        <time>2024-01-12T14:18:26Z</time>
      </trkpt>
      <trkpt lat="42.93964" lon="0.28368">
        <ele>1104.90708</ele>
        <time>2024-01-12T14:18:28Z</time>
      </trkpt>
      <trkpt lat="42.93964" lon="0.28366">
        <ele>1105.63397</ele>
        <time>2024-01-12T14:18:29Z</time>
      </trkpt>
      <trkpt lat="42.93965" lon="0.28365">
        <ele>1105.46998</ele>
        <time>2024-01-12T14:18:30Z</time>
      </trkpt>
      <trkpt lat="42.93966" lon="0.28364">
        <ele>1103.92147</ele>
        <time>2024-01-12T14:18:31Z</time>
      </trkpt>
      <trkpt lat="42.93967" lon="0.28362">
        <ele>1103.65246</ele>
        <time>2024-01-12T14:18:33Z</time>
      </trkpt>
      <trkpt lat="42.93969" lon="0.2836">
        <ele>1103.80704</ele>
        <time>2024-01-12T14:18:34Z</time>
      </trkpt>
      <trkpt lat="42.9397" lon="0.28359">
        <ele>1104.01913</ele>
        <time>2024-01-12T14:18:35Z</time>
      </trkpt>
      <trkpt lat="42.93971" lon="0.28358">
        <ele>1103.89442</ele>
        <time>2024-01-12T14:18:36Z</time>
      </trkpt>
      <trkpt lat="42.93972" lon="0.28356">
        <ele>1104.83109</ele>
        <time>2024-01-12T14:18:37Z</time>
      </trkpt>
      <trkpt lat="42.93972" lon="0.28355">
        <ele>1104.57008</ele>
        <time>2024-01-12T14:18:38Z</time>
      </trkpt>
      <trkpt lat="42.93973" lon="0.28354">
        <ele>1104.4915</ele>
        <time>2024-01-12T14:18:39Z</time>
      </trkpt>
      <trkpt lat="42.93974" lon="0.28352">
        <ele>1103.69759</ele>
        <time>2024-01-12T14:18:40Z</time>
      </trkpt>
      <trkpt lat="42.93975" lon="0.28351">
        <ele>1103.44868</ele>
        <time>2024-01-12T14:18:41Z</time>
      </trkpt>
      <trkpt lat="42.93975" lon="0.2835">
        <ele>1104.65571</ele>
        <time>2024-01-12T14:18:42Z</time>
      </trkpt>
      <trkpt lat="42.93977" lon="0.28349">
        <ele>1104.26252</ele>
        <time>2024-01-12T14:18:43Z</time>
      </trkpt>
      <trkpt lat="42.93977" lon="0.28348">
        <ele>1104.75971</ele>
        <time>2024-01-12T14:18:44Z</time>
      </trkpt>
      <trkpt lat="42.93979" lon="0.28346">
        <ele>1105.53487</ele>
        <time>2024-01-12T14:18:46Z</time>
      </trkpt>
      <trkpt lat="42.93979" lon="0.28344">
        <ele>1105.85627</ele>
        <time>2024-01-12T14:18:47Z</time>
      </trkpt>
      <trkpt lat="42.93981" lon="0.28344">
        <ele>1105.037</ele>
        <time>2024-01-12T14:18:48Z</time>
      </trkpt>
      <trkpt lat="42.93982" lon="0.28342">
        <ele>1105.33618</ele>
        <time>2024-01-12T14:18:49Z</time>
      </trkpt>
      <trkpt lat="42.93983" lon="0.28341">
        <ele>1106.3578</ele>
        <time>2024-01-12T14:18:50Z</time>
      </trkpt>
      <trkpt lat="42.93984" lon="0.2834">
        <ele>1106.27409</ele>
        <time>2024-01-12T14:18:51Z</time>
      </trkpt>
      <trkpt lat="42.93985" lon="0.28339">
        <ele>1105.76817</ele>
        <time>2024-01-12T14:18:52Z</time>
      </trkpt>
      <trkpt lat="42.93986" lon="0.28338">
        <ele>1106.02488</ele>
        <time>2024-01-12T14:18:53Z</time>
      </trkpt>
      <trkpt lat="42.93986" lon="0.28335">
        <ele>1104.60298</ele>
        <time>2024-01-12T14:18:55Z</time>
      </trkpt>
      <trkpt lat="42.93987" lon="0.28333">
        <ele>1104.91367</ele>
        <time>2024-01-12T14:18:56Z</time>
      </trkpt>
      <trkpt lat="42.93987" lon="0.28332">
        <ele>1105.34364</ele>
        <time>2024-01-12T14:18:57Z</time>
      </trkpt>
      <trkpt lat="42.93988" lon="0.28331">
        <ele>1105.29851</ele>
        <time>2024-01-12T14:18:58Z</time>
      </trkpt>
      <trkpt lat="42.93989" lon="0.2833">
        <ele>1105.92237</ele>
        <time>2024-01-12T14:18:59Z</time>
      </trkpt>
      <trkpt lat="42.93989" lon="0.28329">
        <ele>1106.06593</ele>
        <time>2024-01-12T14:19:00Z</time>
      </trkpt>
      <trkpt lat="42.9399" lon="0.28327">
        <ele>1103.9893</ele>
        <time>2024-01-12T14:19:02Z</time>
      </trkpt>
      <trkpt lat="42.93991" lon="0.28325">
        <ele>1104.39583</ele>
        <time>2024-01-12T14:19:03Z</time>
      </trkpt>
      <trkpt lat="42.93993" lon="0.28324">
        <ele>1104.45327</ele>
        <time>2024-01-12T14:19:04Z</time>
      </trkpt>
      <trkpt lat="42.93993" lon="0.28322">
        <ele>1104.41244</ele>
        <time>2024-01-12T14:19:05Z</time>
      </trkpt>
      <trkpt lat="42.93994" lon="0.28321">
        <ele>1104.35912</ele>
        <time>2024-01-12T14:19:06Z</time>
      </trkpt>
      <trkpt lat="42.93995" lon="0.2832">
        <ele>1104.78331</ele>
        <time>2024-01-12T14:19:07Z</time>
      </trkpt>
      <trkpt lat="42.93997" lon="0.28319">
        <ele>1104.13822</ele>
        <time>2024-01-12T14:19:08Z</time>
      </trkpt>
      <trkpt lat="42.93999" lon="0.28317">
        <ele>1105.51244</ele>
        <time>2024-01-12T14:19:10Z</time>
      </trkpt>
      <trkpt lat="42.94" lon="0.28315">
        <ele>1105.5375</ele>
        <time>2024-01-12T14:19:11Z</time>
      </trkpt>
      <trkpt lat="42.94001" lon="0.28314">
        <ele>1106.51709</ele>
        <time>2024-01-12T14:19:12Z</time>
      </trkpt>
      <trkpt lat="42.94002" lon="0.28313">
        <ele>1107.0868</ele>
        <time>2024-01-12T14:19:13Z</time>
      </trkpt>
      <trkpt lat="42.94003" lon="0.28312">
        <ele>1105.88334</ele>
        <time>2024-01-12T14:19:14Z</time>
      </trkpt>
      <trkpt lat="42.94003" lon="0.28311">
        <ele>1104.85002</ele>
        <time>2024-01-12T14:19:15Z</time>
      </trkpt>
      <trkpt lat="42.94004" lon="0.2831">
        <ele>1105.22126</ele>
        <time>2024-01-12T14:19:16Z</time>
      </trkpt>
      <trkpt lat="42.94005" lon="0.28309">
        <ele>1105.57071</ele>
        <time>2024-01-12T14:19:17Z</time>
      </trkpt>
      <trkpt lat="42.94005" lon="0.28307">
        <ele>1105.76047</ele>
        <time>2024-01-12T14:19:18Z</time>
      </trkpt>
      <trkpt lat="42.94006" lon="0.28306">
        <ele>1106.38141</ele>
        <time>2024-01-12T14:19:19Z</time>
      </trkpt>
      <trkpt lat="42.94006" lon="0.28305">
        <ele>1104.85516</ele>
        <time>2024-01-12T14:19:20Z</time>
      </trkpt>
      <trkpt lat="42.94007" lon="0.28304">
        <ele>1103.48711</ele>
        <time>2024-01-12T14:19:21Z</time>
      </trkpt>
      <trkpt lat="42.94008" lon="0.28303">
        <ele>1103.81608</ele>
        <time>2024-01-12T14:19:22Z</time>
      </trkpt>
      <trkpt lat="42.94009" lon="0.28302">
        <ele>1104.72815</ele>
        <time>2024-01-12T14:19:23Z</time>
      </trkpt>
      <trkpt lat="42.9401" lon="0.28301">
        <ele>1105.11369</ele>
        <time>2024-01-12T14:19:24Z</time>
      </trkpt>
      <trkpt lat="42.94011" lon="0.28299">
        <ele>1105.58814</ele>
        <time>2024-01-12T14:19:25Z</time>
      </trkpt>
      <trkpt lat="42.94012" lon="0.28298">
        <ele>1104.95241</ele>
        <time>2024-01-12T14:19:26Z</time>
      </trkpt>
      <trkpt lat="42.94013" lon="0.28297">
        <ele>1105.00693</ele>
        <time>2024-01-12T14:19:27Z</time>
      </trkpt>
      <trkpt lat="42.94013" lon="0.28296">
        <ele>1105.09772</ele>
        <time>2024-01-12T14:19:28Z</time>
      </trkpt>
      <trkpt lat="42.94015" lon="0.28295">
        <ele>1105.75254</ele>
        <time>2024-01-12T14:19:29Z</time>
      </trkpt>
      <trkpt lat="42.94016" lon="0.28293">
        <ele>1105.59851</ele>
        <time>2024-01-12T14:19:30Z</time>
      </trkpt>
      <trkpt lat="42.94016" lon="0.28292">
        <ele>1105.98833</ele>
        <time>2024-01-12T14:19:31Z</time>
      </trkpt>
      <trkpt lat="42.94018" lon="0.28291">
        <ele>1105.9904</ele>
        <time>2024-01-12T14:19:32Z</time>
      </trkpt>
      <trkpt lat="42.94018" lon="0.2829">
        <ele>1106.4972</ele>
        <time>2024-01-12T14:19:33Z</time>
      </trkpt>
      <trkpt lat="42.9402" lon="0.28289">
        <ele>1105.34703</ele>
        <time>2024-01-12T14:19:35Z</time>
      </trkpt>
      <trkpt lat="42.94021" lon="0.28288">
        <ele>1106.17791</ele>
        <time>2024-01-12T14:19:36Z</time>
      </trkpt>
      <trkpt lat="42.94021" lon="0.28286">
        <ele>1107.30863</ele>
        <time>2024-01-12T14:19:37Z</time>
      </trkpt>
      <trkpt lat="42.94022" lon="0.28285">
        <ele>1107.08894</ele>
        <time>2024-01-12T14:19:38Z</time>
      </trkpt>
      <trkpt lat="42.94023" lon="0.28284">
        <ele>1106.88491</ele>
        <time>2024-01-12T14:19:39Z</time>
      </trkpt>
      <trkpt lat="42.94023" lon="0.28282">
        <ele>1105.37006</ele>
        <time>2024-01-12T14:19:40Z</time>
      </trkpt>
      <trkpt lat="42.94024" lon="0.28282">
        <ele>1105.24019</ele>
        <time>2024-01-12T14:19:41Z</time>
      </trkpt>
      <trkpt lat="42.94027" lon="0.2828">
        <ele>1105.56941</ele>
        <time>2024-01-12T14:19:43Z</time>
      </trkpt>
      <trkpt lat="42.94028" lon="0.28279">
        <ele>1105.27543</ele>
        <time>2024-01-12T14:19:44Z</time>
      </trkpt>
      <trkpt lat="42.94029" lon="0.28278">
        <ele>1105.51237</ele>
        <time>2024-01-12T14:19:45Z</time>
      </trkpt>
      <trkpt lat="42.9403" lon="0.28277">
        <ele>1105.25714</ele>
        <time>2024-01-12T14:19:46Z</time>
      </trkpt>
      <trkpt lat="42.9403" lon="0.28276">
        <ele>1104.21736</ele>
        <time>2024-01-12T14:19:47Z</time>
      </trkpt>
      <trkpt lat="42.94031" lon="0.28275">
        <ele>1104.69281</ele>
        <time>2024-01-12T14:19:48Z</time>
      </trkpt>
      <trkpt lat="42.94032" lon="0.28274">
        <ele>1105.4793</ele>
        <time>2024-01-12T14:19:49Z</time>
      </trkpt>
      <trkpt lat="42.94033" lon="0.28272">
        <ele>1105.145</ele>
        <time>2024-01-12T14:19:50Z</time>
      </trkpt>
      <trkpt lat="42.94034" lon="0.28271">
        <ele>1105.08199</ele>
        <time>2024-01-12T14:19:51Z</time>
      </trkpt>
      <trkpt lat="42.94035" lon="0.2827">
        <ele>1105.33952</ele>
        <time>2024-01-12T14:19:52Z</time>
      </trkpt>
      <trkpt lat="42.94036" lon="0.28269">
        <ele>1104.7179</ele>
        <time>2024-01-12T14:19:53Z</time>
      </trkpt>
      <trkpt lat="42.94037" lon="0.28267">
        <ele>1104.22021</ele>
        <time>2024-01-12T14:19:55Z</time>
      </trkpt>
      <trkpt lat="42.94038" lon="0.28266">
        <ele>1104.34391</ele>
        <time>2024-01-12T14:19:56Z</time>
      </trkpt>
      <trkpt lat="42.94039" lon="0.28265">
        <ele>1103.90402</ele>
        <time>2024-01-12T14:19:57Z</time>
      </trkpt>
      <trkpt lat="42.9404" lon="0.28264">
        <ele>1103.40122</ele>
        <time>2024-01-12T14:19:58Z</time>
      </trkpt>
      <trkpt lat="42.94041" lon="0.28262">
        <ele>1103.63752</ele>
        <time>2024-01-12T14:19:59Z</time>
      </trkpt>
      <trkpt lat="42.94042" lon="0.28261">
        <ele>1103.83183</ele>
        <time>2024-01-12T14:20:00Z</time>
      </trkpt>
      <trkpt lat="42.94043" lon="0.2826">
        <ele>1103.86955</ele>
        <time>2024-01-12T14:20:01Z</time>
      </trkpt>
      <trkpt lat="42.94044" lon="0.28259">
        <ele>1104.74981</ele>
        <time>2024-01-12T14:20:02Z</time>
      </trkpt>
      <trkpt lat="42.94046" lon="0.28257">
        <ele>1104.82459</ele>
        <time>2024-01-12T14:20:03Z</time>
      </trkpt>
      <trkpt lat="42.94047" lon="0.28255">
        <ele>1103.79002</ele>
        <time>2024-01-12T14:20:05Z</time>
      </trkpt>
      <trkpt lat="42.94047" lon="0.28254">
        <ele>1103.81075</ele>
        <time>2024-01-12T14:20:06Z</time>
      </trkpt>
      <trkpt lat="42.94048" lon="0.28253">
        <ele>1103.42721</ele>
        <time>2024-01-12T14:20:07Z</time>
      </trkpt>
      <trkpt lat="42.94049" lon="0.28252">
        <ele>1104.03417</ele>
        <time>2024-01-12T14:20:08Z</time>
      </trkpt>
      <trkpt lat="42.9405" lon="0.28251">
        <ele>1104.78268</ele>
        <time>2024-01-12T14:20:09Z</time>
      </trkpt>
      <trkpt lat="42.94051" lon="0.28249">
        <ele>1105.04123</ele>
        <time>2024-01-12T14:20:10Z</time>
      </trkpt>
      <trkpt lat="42.94052" lon="0.28248">
        <ele>1105.44451</ele>
        <time>2024-01-12T14:20:11Z</time>
      </trkpt>
      <trkpt lat="42.94053" lon="0.28246">
        <ele>1105.0846</ele>
        <time>2024-01-12T14:20:12Z</time>
      </trkpt>
      <trkpt lat="42.94054" lon="0.28245">
        <ele>1104.85482</ele>
        <time>2024-01-12T14:20:14Z</time>
      </trkpt>
      <trkpt lat="42.94055" lon="0.28244">
        <ele>1103.75902</ele>
        <time>2024-01-12T14:20:15Z</time>
      </trkpt>
      <trkpt lat="42.94056" lon="0.28243">
        <ele>1103.17829</ele>
        <time>2024-01-12T14:20:16Z</time>
      </trkpt>
      <trkpt lat="42.94057" lon="0.28242">
        <ele>1102.84134</ele>
        <time>2024-01-12T14:20:17Z</time>
      </trkpt>
      <trkpt lat="42.94058" lon="0.2824">
        <ele>1103.22637</ele>
        <time>2024-01-12T14:20:18Z</time>
      </trkpt>
      <trkpt lat="42.9406" lon="0.28238">
        <ele>1102.64156</ele>
        <time>2024-01-12T14:20:20Z</time>
      </trkpt>
      <trkpt lat="42.94061" lon="0.28237">
        <ele>1103.01855</ele>
        <time>2024-01-12T14:20:21Z</time>
      </trkpt>
      <trkpt lat="42.94062" lon="0.28236">
        <ele>1103.49076</ele>
        <time>2024-01-12T14:20:22Z</time>
      </trkpt>
      <trkpt lat="42.94063" lon="0.28234">
        <ele>1104.33312</ele>
        <time>2024-01-12T14:20:23Z</time>
      </trkpt>
      <trkpt lat="42.94063" lon="0.28233">
        <ele>1104.44615</ele>
        <time>2024-01-12T14:20:24Z</time>
      </trkpt>
      <trkpt lat="42.94065" lon="0.28232">
        <ele>1104.08591</ele>
        <time>2024-01-12T14:20:25Z</time>
      </trkpt>
      <trkpt lat="42.94066" lon="0.2823">
        <ele>1103.61251</ele>
        <time>2024-01-12T14:20:27Z</time>
      </trkpt>
      <trkpt lat="42.94067" lon="0.28229">
        <ele>1103.01234</ele>
        <time>2024-01-12T14:20:28Z</time>
      </trkpt>
      <trkpt lat="42.94068" lon="0.28227">
        <ele>1103.38141</ele>
        <time>2024-01-12T14:20:29Z</time>
      </trkpt>
      <trkpt lat="42.94069" lon="0.28226">
        <ele>1103.44766</ele>
        <time>2024-01-12T14:20:30Z</time>
      </trkpt>
      <trkpt lat="42.9407" lon="0.28223">
        <ele>1103.73906</ele>
        <time>2024-01-12T14:20:32Z</time>
      </trkpt>
      <trkpt lat="42.94071" lon="0.28222">
        <ele>1104.34817</ele>
        <time>2024-01-12T14:20:33Z</time>
      </trkpt>
      <trkpt lat="42.94072" lon="0.2822">
        <ele>1103.8095</ele>
        <time>2024-01-12T14:20:34Z</time>
      </trkpt>
      <trkpt lat="42.94072" lon="0.28219">
        <ele>1104.41033</ele>
        <time>2024-01-12T14:20:35Z</time>
      </trkpt>
      <trkpt lat="42.94073" lon="0.28218">
        <ele>1104.34196</ele>
        <time>2024-01-12T14:20:36Z</time>
      </trkpt>
      <trkpt lat="42.94074" lon="0.28217">
        <ele>1104.33293</ele>
        <time>2024-01-12T14:20:37Z</time>
      </trkpt>
      <trkpt lat="42.94074" lon="0.28216">
        <ele>1104.40206</ele>
        <time>2024-01-12T14:20:38Z</time>
      </trkpt>
      <trkpt lat="42.94075" lon="0.28214">
        <ele>1104.80573</ele>
        <time>2024-01-12T14:20:39Z</time>
      </trkpt>
      <trkpt lat="42.94076" lon="0.28213">
        <ele>1105.22305</ele>
        <time>2024-01-12T14:20:40Z</time>
      </trkpt>
      <trkpt lat="42.94076" lon="0.28211">
        <ele>1105.37405</ele>
        <time>2024-01-12T14:20:41Z</time>
      </trkpt>
      <trkpt lat="42.94077" lon="0.2821">
        <ele>1104.70188</ele>
        <time>2024-01-12T14:20:42Z</time>
      </trkpt>
      <trkpt lat="42.94078" lon="0.28209">
        <ele>1104.78655</ele>
        <time>2024-01-12T14:20:43Z</time>
      </trkpt>
      <trkpt lat="42.94079" lon="0.28207">
        <ele>1103.74314</ele>
        <time>2024-01-12T14:20:44Z</time>
      </trkpt>
      <trkpt lat="42.9408" lon="0.28206">
        <ele>1103.79909</ele>
        <time>2024-01-12T14:20:45Z</time>
      </trkpt>
      <trkpt lat="42.94081" lon="0.28205">
        <ele>1104.18578</ele>
        <time>2024-01-12T14:20:46Z</time>
      </trkpt>
      <trkpt lat="42.94082" lon="0.28204">
        <ele>1104.70512</ele>
        <time>2024-01-12T14:20:47Z</time>
      </trkpt>
      <trkpt lat="42.94082" lon="0.28203">
        <ele>1104.7999</ele>
        <time>2024-01-12T14:20:48Z</time>
      </trkpt>
      <trkpt lat="42.94083" lon="0.28201">
        <ele>1104.30101</ele>
        <time>2024-01-12T14:20:49Z</time>
      </trkpt>
      <trkpt lat="42.94084" lon="0.282">
        <ele>1104.13091</ele>
        <time>2024-01-12T14:20:50Z</time>
      </trkpt>
      <trkpt lat="42.94084" lon="0.28198">
        <ele>1103.91218</ele>
        <time>2024-01-12T14:20:51Z</time>
      </trkpt>
      <trkpt lat="42.94085" lon="0.28196">
        <ele>1103.69989</ele>
        <time>2024-01-12T14:20:52Z</time>
      </trkpt>
      <trkpt lat="42.94085" lon="0.28195">
        <ele>1103.58384</ele>
        <time>2024-01-12T14:20:53Z</time>
      </trkpt>
      <trkpt lat="42.94086" lon="0.28194">
        <ele>1103.29128</ele>
        <time>2024-01-12T14:20:54Z</time>
      </trkpt>
      <trkpt lat="42.94086" lon="0.28192">
        <ele>1101.91306</ele>
        <time>2024-01-12T14:20:55Z</time>
      </trkpt>
      <trkpt lat="42.94087" lon="0.28191">
        <ele>1101.56297</ele>
        <time>2024-01-12T14:20:56Z</time>
      </trkpt>
      <trkpt lat="42.94088" lon="0.28189">
        <ele>1101.70555</ele>
        <time>2024-01-12T14:20:57Z</time>
      </trkpt>
      <trkpt lat="42.94088" lon="0.28188">
        <ele>1102.38146</ele>
        <time>2024-01-12T14:20:58Z</time>
      </trkpt>
      <trkpt lat="42.9409" lon="0.28186">
        <ele>1102.71111</ele>
        <time>2024-01-12T14:20:59Z</time>
      </trkpt>
      <trkpt lat="42.94091" lon="0.28184">
        <ele>1103.18398</ele>
        <time>2024-01-12T14:21:00Z</time>
      </trkpt>
      <trkpt lat="42.94092" lon="0.28183">
        <ele>1103.583</ele>
        <time>2024-01-12T14:21:01Z</time>
      </trkpt>
      <trkpt lat="42.94093" lon="0.28181">
        <ele>1104.1718</ele>
        <time>2024-01-12T14:21:02Z</time>
      </trkpt>
      <trkpt lat="42.94093" lon="0.28179">
        <ele>1103.75631</ele>
        <time>2024-01-12T14:21:03Z</time>
      </trkpt>
      <trkpt lat="42.94094" lon="0.28177">
        <ele>1104.53943</ele>
        <time>2024-01-12T14:21:04Z</time>
      </trkpt>
      <trkpt lat="42.94095" lon="0.28176">
        <ele>1103.93306</ele>
        <time>2024-01-12T14:21:05Z</time>
      </trkpt>
      <trkpt lat="42.94095" lon="0.28175">
        <ele>1103.78565</ele>
        <time>2024-01-12T14:21:06Z</time>
      </trkpt>
      <trkpt lat="42.94096" lon="0.28173">
        <ele>1104.51263</ele>
        <time>2024-01-12T14:21:07Z</time>
      </trkpt>
      <trkpt lat="42.94097" lon="0.28172">
        <ele>1104.51562</ele>
        <time>2024-01-12T14:21:08Z</time>
      </trkpt>
      <trkpt lat="42.94097" lon="0.2817">
        <ele>1104.08371</ele>
        <time>2024-01-12T14:21:09Z</time>
      </trkpt>
      <trkpt lat="42.94098" lon="0.28169">
        <ele>1103.93401</ele>
        <time>2024-01-12T14:21:10Z</time>
      </trkpt>
      <trkpt lat="42.94098" lon="0.28167">
        <ele>1103.43473</ele>
        <time>2024-01-12T14:21:11Z</time>
      </trkpt>
      <trkpt lat="42.94099" lon="0.28166">
        <ele>1103.21769</ele>
        <time>2024-01-12T14:21:12Z</time>
      </trkpt>
      <trkpt lat="42.941" lon="0.28165">
        <ele>1102.92459</ele>
        <time>2024-01-12T14:21:13Z</time>
      </trkpt>
      <trkpt lat="42.94101" lon="0.28164">
        <ele>1103.20001</ele>
        <time>2024-01-12T14:21:14Z</time>
      </trkpt>
      <trkpt lat="42.94101" lon="0.28162">
        <ele>1103.24828</ele>
        <time>2024-01-12T14:21:15Z</time>
      </trkpt>
      <trkpt lat="42.94103" lon="0.28161">
        <ele>1102.77411</ele>
        <time>2024-01-12T14:21:16Z</time>
      </trkpt>
      <trkpt lat="42.94103" lon="0.28159">
        <ele>1102.83049</ele>
        <time>2024-01-12T14:21:17Z</time>
      </trkpt>
      <trkpt lat="42.94104" lon="0.28158">
        <ele>1102.50435</ele>
        <time>2024-01-12T14:21:18Z</time>
      </trkpt>
      <trkpt lat="42.94104" lon="0.28157">
        <ele>1102.42121</ele>
        <time>2024-01-12T14:21:19Z</time>
      </trkpt>
      <trkpt lat="42.94105" lon="0.28155">
        <ele>1102.37369</ele>
        <time>2024-01-12T14:21:20Z</time>
      </trkpt>
      <trkpt lat="42.94105" lon="0.28154">
        <ele>1101.97344</ele>
        <time>2024-01-12T14:21:21Z</time>
      </trkpt>
      <trkpt lat="42.94106" lon="0.28152">
        <ele>1101.96321</ele>
        <time>2024-01-12T14:21:22Z</time>
      </trkpt>
      <trkpt lat="42.94107" lon="0.28152">
        <ele>1101.86348</ele>
        <time>2024-01-12T14:21:23Z</time>
      </trkpt>
      <trkpt lat="42.94108" lon="0.2815">
        <ele>1101.91128</ele>
        <time>2024-01-12T14:21:24Z</time>
      </trkpt>
      <trkpt lat="42.94108" lon="0.28148">
        <ele>1101.71797</ele>
        <time>2024-01-12T14:21:26Z</time>
      </trkpt>
      <trkpt lat="42.94109" lon="0.28147">
        <ele>1101.48099</ele>
        <time>2024-01-12T14:21:27Z</time>
      </trkpt>
      <trkpt lat="42.9411" lon="0.28145">
        <ele>1101.80243</ele>
        <time>2024-01-12T14:21:28Z</time>
      </trkpt>
      <trkpt lat="42.9411" lon="0.28144">
        <ele>1099.93694</ele>
        <time>2024-01-12T14:21:29Z</time>
      </trkpt>
      <trkpt lat="42.94111" lon="0.28143">
        <ele>1099.68381</ele>
        <time>2024-01-12T14:21:30Z</time>
      </trkpt>
      <trkpt lat="42.94111" lon="0.28142">
        <ele>1099.96111</ele>
        <time>2024-01-12T14:21:31Z</time>
      </trkpt>
      <trkpt lat="42.94112" lon="0.2814">
        <ele>1099.71225</ele>
        <time>2024-01-12T14:21:32Z</time>
      </trkpt>
      <trkpt lat="42.94112" lon="0.28139">
        <ele>1099.18341</ele>
        <time>2024-01-12T14:21:33Z</time>
      </trkpt>
      <trkpt lat="42.94113" lon="0.28137">
        <ele>1098.95499</ele>
        <time>2024-01-12T14:21:34Z</time>
      </trkpt>
      <trkpt lat="42.94114" lon="0.28136">
        <ele>1098.32745</ele>
        <time>2024-01-12T14:21:35Z</time>
      </trkpt>
      <trkpt lat="42.94114" lon="0.28134">
        <ele>1097.71592</ele>
        <time>2024-01-12T14:21:36Z</time>
      </trkpt>
      <trkpt lat="42.94115" lon="0.28133">
        <ele>1097.55996</ele>
        <time>2024-01-12T14:21:37Z</time>
      </trkpt>
      <trkpt lat="42.94116" lon="0.28132">
        <ele>1096.73249</ele>
        <time>2024-01-12T14:21:38Z</time>
      </trkpt>
      <trkpt lat="42.94117" lon="0.2813">
        <ele>1096.05646</ele>
        <time>2024-01-12T14:21:40Z</time>
      </trkpt>
      <trkpt lat="42.94118" lon="0.28129">
        <ele>1096.14325</ele>
        <time>2024-01-12T14:21:41Z</time>
      </trkpt>
      <trkpt lat="42.94119" lon="0.28128">
        <ele>1096.38166</ele>
        <time>2024-01-12T14:21:42Z</time>
      </trkpt>
      <trkpt lat="42.9412" lon="0.28127">
        <ele>1096.40885</ele>
        <time>2024-01-12T14:21:43Z</time>
      </trkpt>
      <trkpt lat="42.94121" lon="0.28126">
        <ele>1096.58903</ele>
        <time>2024-01-12T14:21:44Z</time>
      </trkpt>
      <trkpt lat="42.94122" lon="0.28125">
        <ele>1096.39346</ele>
        <time>2024-01-12T14:21:45Z</time>
      </trkpt>
      <trkpt lat="42.94123" lon="0.28124">
        <ele>1096.81513</ele>
        <time>2024-01-12T14:21:46Z</time>
      </trkpt>
      <trkpt lat="42.94124" lon="0.28123">
        <ele>1096.90429</ele>
        <time>2024-01-12T14:21:47Z</time>
      </trkpt>
      <trkpt lat="42.94125" lon="0.28122">
        <ele>1096.46395</ele>
        <time>2024-01-12T14:21:48Z</time>
      </trkpt>
      <trkpt lat="42.94126" lon="0.28121">
        <ele>1096.23338</ele>
        <time>2024-01-12T14:21:49Z</time>
      </trkpt>
      <trkpt lat="42.94127" lon="0.2812">
        <ele>1095.94759</ele>
        <time>2024-01-12T14:21:50Z</time>
      </trkpt>
      <trkpt lat="42.94128" lon="0.28119">
        <ele>1095.15433</ele>
        <time>2024-01-12T14:21:51Z</time>
      </trkpt>
      <trkpt lat="42.94129" lon="0.28118">
        <ele>1095.19602</ele>
        <time>2024-01-12T14:21:52Z</time>
      </trkpt>
      <trkpt lat="42.9413" lon="0.28118">
        <ele>1095.92495</ele>
        <time>2024-01-12T14:21:53Z</time>
      </trkpt>
      <trkpt lat="42.94131" lon="0.28117">
        <ele>1095.67117</ele>
        <time>2024-01-12T14:21:54Z</time>
      </trkpt>
      <trkpt lat="42.94132" lon="0.28116">
        <ele>1095.58755</ele>
        <time>2024-01-12T14:21:55Z</time>
      </trkpt>
      <trkpt lat="42.94134" lon="0.28114">
        <ele>1095.55264</ele>
        <time>2024-01-12T14:21:56Z</time>
      </trkpt>
      <trkpt lat="42.94135" lon="0.28113">
        <ele>1095.4498</ele>
        <time>2024-01-12T14:21:57Z</time>
      </trkpt>
      <trkpt lat="42.94137" lon="0.28112">
        <ele>1095.24835</ele>
        <time>2024-01-12T14:21:59Z</time>
      </trkpt>
      <trkpt lat="42.94137" lon="0.28111">
        <ele>1095.20892</ele>
        <time>2024-01-12T14:22:00Z</time>
      </trkpt>
      <trkpt lat="42.94138" lon="0.28111">
        <ele>1095.11093</ele>
        <time>2024-01-12T14:22:01Z</time>
      </trkpt>
      <trkpt lat="42.9414" lon="0.2811">
        <ele>1096.09211</ele>
        <time>2024-01-12T14:22:02Z</time>
      </trkpt>
      <trkpt lat="42.9414" lon="0.28109">
        <ele>1095.63378</ele>
        <time>2024-01-12T14:22:03Z</time>
      </trkpt>
      <trkpt lat="42.94142" lon="0.28107">
        <ele>1094.08642</ele>
        <time>2024-01-12T14:22:05Z</time>
      </trkpt>
      <trkpt lat="42.94143" lon="0.28105">
        <ele>1094.05075</ele>
        <time>2024-01-12T14:22:06Z</time>
      </trkpt>
      <trkpt lat="42.94145" lon="0.28105">
        <ele>1093.99919</ele>
        <time>2024-01-12T14:22:07Z</time>
      </trkpt>
      <trkpt lat="42.94146" lon="0.28104">
        <ele>1094.33407</ele>
        <time>2024-01-12T14:22:08Z</time>
      </trkpt>
      <trkpt lat="42.94147" lon="0.28102">
        <ele>1094.66494</ele>
        <time>2024-01-12T14:22:09Z</time>
      </trkpt>
      <trkpt lat="42.94148" lon="0.28102">
        <ele>1095.01791</ele>
        <time>2024-01-12T14:22:10Z</time>
      </trkpt>
      <trkpt lat="42.94149" lon="0.28101">
        <ele>1095.03855</ele>
        <time>2024-01-12T14:22:11Z</time>
      </trkpt>
      <trkpt lat="42.94149" lon="0.281">
        <ele>1094.62195</ele>
        <time>2024-01-12T14:22:12Z</time>
      </trkpt>
      <trkpt lat="42.94151" lon="0.28099">
        <ele>1095.11961</ele>
        <time>2024-01-12T14:22:13Z</time>
      </trkpt>
      <trkpt lat="42.94152" lon="0.28098">
        <ele>1094.16241</ele>
        <time>2024-01-12T14:22:14Z</time>
      </trkpt>
      <trkpt lat="42.94153" lon="0.28097">
        <ele>1094.20865</ele>
        <time>2024-01-12T14:22:15Z</time>
      </trkpt>
      <trkpt lat="42.94154" lon="0.28096">
        <ele>1093.93626</ele>
        <time>2024-01-12T14:22:16Z</time>
      </trkpt>
      <trkpt lat="42.94155" lon="0.28095">
        <ele>1093.52531</ele>
        <time>2024-01-12T14:22:17Z</time>
      </trkpt>
      <trkpt lat="42.94156" lon="0.28094">
        <ele>1093.3664</ele>
        <time>2024-01-12T14:22:18Z</time>
      </trkpt>
      <trkpt lat="42.94158" lon="0.28093">
        <ele>1094.79392</ele>
        <time>2024-01-12T14:22:20Z</time>
      </trkpt>
      <trkpt lat="42.94159" lon="0.28091">
        <ele>1095.01861</ele>
        <time>2024-01-12T14:22:21Z</time>
      </trkpt>
      <trkpt lat="42.9416" lon="0.2809">
        <ele>1094.29014</ele>
        <time>2024-01-12T14:22:22Z</time>
      </trkpt>
      <trkpt lat="42.94161" lon="0.28089">
        <ele>1094.83227</ele>
        <time>2024-01-12T14:22:23Z</time>
      </trkpt>
      <trkpt lat="42.94162" lon="0.28088">
        <ele>1094.19589</ele>
        <time>2024-01-12T14:22:24Z</time>
      </trkpt>
      <trkpt lat="42.94163" lon="0.28088">
        <ele>1093.94922</ele>
        <time>2024-01-12T14:22:25Z</time>
      </trkpt>
      <trkpt lat="42.94164" lon="0.28087">
        <ele>1094.15564</ele>
        <time>2024-01-12T14:22:26Z</time>
      </trkpt>
      <trkpt lat="42.94166" lon="0.28086">
        <ele>1093.21582</ele>
        <time>2024-01-12T14:22:27Z</time>
      </trkpt>
      <trkpt lat="42.94167" lon="0.28084">
        <ele>1092.62486</ele>
        <time>2024-01-12T14:22:29Z</time>
      </trkpt>
      <trkpt lat="42.94168" lon="0.28083">
        <ele>1092.31735</ele>
        <time>2024-01-12T14:22:30Z</time>
      </trkpt>
      <trkpt lat="42.94169" lon="0.28082">
        <ele>1092.49134</ele>
        <time>2024-01-12T14:22:31Z</time>
      </trkpt>
      <trkpt lat="42.9417" lon="0.28081">
        <ele>1092.27552</ele>
        <time>2024-01-12T14:22:32Z</time>
      </trkpt>
      <trkpt lat="42.94171" lon="0.2808">
        <ele>1092.13021</ele>
        <time>2024-01-12T14:22:33Z</time>
      </trkpt>
      <trkpt lat="42.94172" lon="0.2808">
        <ele>1092.1823</ele>
        <time>2024-01-12T14:22:34Z</time>
      </trkpt>
      <trkpt lat="42.94173" lon="0.28079">
        <ele>1091.55196</ele>
        <time>2024-01-12T14:22:35Z</time>
      </trkpt>
      <trkpt lat="42.94173" lon="0.28078">
        <ele>1090.77186</ele>
        <time>2024-01-12T14:22:36Z</time>
      </trkpt>
      <trkpt lat="42.94175" lon="0.28077">
        <ele>1090.41355</ele>
        <time>2024-01-12T14:22:37Z</time>
      </trkpt>
      <trkpt lat="42.94176" lon="0.28076">
        <ele>1090.97553</ele>
        <time>2024-01-12T14:22:38Z</time>
      </trkpt>
      <trkpt lat="42.94177" lon="0.28075">
        <ele>1090.77195</ele>
        <time>2024-01-12T14:22:39Z</time>
      </trkpt>
      <trkpt lat="42.94178" lon="0.28074">
        <ele>1091.20492</ele>
        <time>2024-01-12T14:22:40Z</time>
      </trkpt>
      <trkpt lat="42.94179" lon="0.28074">
        <ele>1091.54063</ele>
        <time>2024-01-12T14:22:41Z</time>
      </trkpt>
      <trkpt lat="42.9418" lon="0.28073">
        <ele>1091.57765</ele>
        <time>2024-01-12T14:22:42Z</time>
      </trkpt>
      <trkpt lat="42.94181" lon="0.28072">
        <ele>1091.22367</ele>
        <time>2024-01-12T14:22:43Z</time>
      </trkpt>
      <trkpt lat="42.94182" lon="0.28071">
        <ele>1090.984</ele>
        <time>2024-01-12T14:22:44Z</time>
      </trkpt>
      <trkpt lat="42.94183" lon="0.2807">
        <ele>1090.36087</ele>
        <time>2024-01-12T14:22:45Z</time>
      </trkpt>
      <trkpt lat="42.94183" lon="0.28069">
        <ele>1090.31032</ele>
        <time>2024-01-12T14:22:46Z</time>
      </trkpt>
      <trkpt lat="42.94184" lon="0.28068">
        <ele>1089.15975</ele>
        <time>2024-01-12T14:22:47Z</time>
      </trkpt>
      <trkpt lat="42.94185" lon="0.28067">
        <ele>1089.09074</ele>
        <time>2024-01-12T14:22:48Z</time>
      </trkpt>
      <trkpt lat="42.94186" lon="0.28066">
        <ele>1089.24378</ele>
        <time>2024-01-12T14:22:49Z</time>
      </trkpt>
      <trkpt lat="42.94188" lon="0.28065">
        <ele>1089.67803</ele>
        <time>2024-01-12T14:22:50Z</time>
      </trkpt>
      <trkpt lat="42.94189" lon="0.28064">
        <ele>1090.29384</ele>
        <time>2024-01-12T14:22:51Z</time>
      </trkpt>
      <trkpt lat="42.94191" lon="0.28063">
        <ele>1090.59452</ele>
        <time>2024-01-12T14:22:52Z</time>
      </trkpt>
      <trkpt lat="42.94192" lon="0.28062">
        <ele>1090.42265</ele>
        <time>2024-01-12T14:22:53Z</time>
      </trkpt>
      <trkpt lat="42.94194" lon="0.28061">
        <ele>1090.55919</ele>
        <time>2024-01-12T14:22:55Z</time>
      </trkpt>
      <trkpt lat="42.94194" lon="0.28059">
        <ele>1090.38156</ele>
        <time>2024-01-12T14:22:56Z</time>
      </trkpt>
      <trkpt lat="42.94195" lon="0.28058">
        <ele>1090.21585</ele>
        <time>2024-01-12T14:22:57Z</time>
      </trkpt>
      <trkpt lat="42.94196" lon="0.28058">
        <ele>1089.90214</ele>
        <time>2024-01-12T14:22:58Z</time>
      </trkpt>
      <trkpt lat="42.94198" lon="0.28057">
        <ele>1089.34875</ele>
        <time>2024-01-12T14:22:59Z</time>
      </trkpt>
      <trkpt lat="42.94199" lon="0.28056">
        <ele>1088.80411</ele>
        <time>2024-01-12T14:23:00Z</time>
      </trkpt>
      <trkpt lat="42.942" lon="0.28055">
        <ele>1089.636</ele>
        <time>2024-01-12T14:23:01Z</time>
      </trkpt>
      <trkpt lat="42.94202" lon="0.28054">
        <ele>1090.40484</ele>
        <time>2024-01-12T14:23:03Z</time>
      </trkpt>
      <trkpt lat="42.94203" lon="0.28053">
        <ele>1090.53619</ele>
        <time>2024-01-12T14:23:04Z</time>
      </trkpt>
      <trkpt lat="42.94204" lon="0.28052">
        <ele>1090.17261</ele>
        <time>2024-01-12T14:23:05Z</time>
      </trkpt>
      <trkpt lat="42.94206" lon="0.28051">
        <ele>1090.71626</ele>
        <time>2024-01-12T14:23:06Z</time>
      </trkpt>
      <trkpt lat="42.94207" lon="0.2805">
        <ele>1090.87053</ele>
        <time>2024-01-12T14:23:07Z</time>
      </trkpt>
      <trkpt lat="42.94209" lon="0.28047">
        <ele>1090.41076</ele>
        <time>2024-01-12T14:23:09Z</time>
      </trkpt>
      <trkpt lat="42.9421" lon="0.28046">
        <ele>1090.08418</ele>
        <time>2024-01-12T14:23:10Z</time>
      </trkpt>
      <trkpt lat="42.94211" lon="0.28046">
        <ele>1089.28886</ele>
        <time>2024-01-12T14:23:11Z</time>
      </trkpt>
      <trkpt lat="42.94212" lon="0.28044">
        <ele>1088.69954</ele>
        <time>2024-01-12T14:23:12Z</time>
      </trkpt>
      <trkpt lat="42.94214" lon="0.28043">
        <ele>1088.6798</ele>
        <time>2024-01-12T14:23:13Z</time>
      </trkpt>
      <trkpt lat="42.94214" lon="0.28042">
        <ele>1088.94167</ele>
        <time>2024-01-12T14:23:14Z</time>
      </trkpt>
      <trkpt lat="42.94215" lon="0.28041">
        <ele>1089.33925</ele>
        <time>2024-01-12T14:23:15Z</time>
      </trkpt>
      <trkpt lat="42.94217" lon="0.2804">
        <ele>1089.48149</ele>
        <time>2024-01-12T14:23:16Z</time>
      </trkpt>
      <trkpt lat="42.94217" lon="0.2804">
        <ele>1089.57855</ele>
        <time>2024-01-12T14:23:17Z</time>
      </trkpt>
      <trkpt lat="42.94219" lon="0.28039">
        <ele>1089.45656</ele>
        <time>2024-01-12T14:23:18Z</time>
      </trkpt>
      <trkpt lat="42.94219" lon="0.28038">
        <ele>1088.85781</ele>
        <time>2024-01-12T14:23:19Z</time>
      </trkpt>
      <trkpt lat="42.9422" lon="0.28036">
        <ele>1088.8527</ele>
        <time>2024-01-12T14:23:20Z</time>
      </trkpt>
      <trkpt lat="42.94221" lon="0.28035">
        <ele>1089.23357</ele>
        <time>2024-01-12T14:23:21Z</time>
      </trkpt>
      <trkpt lat="42.94223" lon="0.28033">
        <ele>1090.19993</ele>
        <time>2024-01-12T14:23:23Z</time>
      </trkpt>
      <trkpt lat="42.94223" lon="0.28032">
        <ele>1090.55148</ele>
        <time>2024-01-12T14:23:24Z</time>
      </trkpt>
      <trkpt lat="42.94224" lon="0.28031">
        <ele>1089.86649</ele>
        <time>2024-01-12T14:23:25Z</time>
      </trkpt>
      <trkpt lat="42.94225" lon="0.28029">
        <ele>1088.89509</ele>
        <time>2024-01-12T14:23:26Z</time>
      </trkpt>
      <trkpt lat="42.94226" lon="0.28028">
        <ele>1088.65131</ele>
        <time>2024-01-12T14:23:27Z</time>
      </trkpt>
      <trkpt lat="42.94226" lon="0.28027">
        <ele>1089.34023</ele>
        <time>2024-01-12T14:23:28Z</time>
      </trkpt>
      <trkpt lat="42.94227" lon="0.28026">
        <ele>1089.63767</ele>
        <time>2024-01-12T14:23:29Z</time>
      </trkpt>
      <trkpt lat="42.94227" lon="0.28025">
        <ele>1089.13952</ele>
        <time>2024-01-12T14:23:30Z</time>
      </trkpt>
      <trkpt lat="42.94228" lon="0.28023">
        <ele>1089.01586</ele>
        <time>2024-01-12T14:23:31Z</time>
      </trkpt>
      <trkpt lat="42.9423" lon="0.28023">
        <ele>1089.22914</ele>
        <time>2024-01-12T14:23:32Z</time>
      </trkpt>
      <trkpt lat="42.9423" lon="0.2802">
        <ele>1089.31335</ele>
        <time>2024-01-12T14:23:34Z</time>
      </trkpt>
      <trkpt lat="42.94231" lon="0.28018">
        <ele>1088.32695</ele>
        <time>2024-01-12T14:23:35Z</time>
      </trkpt>
      <trkpt lat="42.94231" lon="0.28017">
        <ele>1087.60559</ele>
        <time>2024-01-12T14:23:36Z</time>
      </trkpt>
      <trkpt lat="42.94232" lon="0.28016">
        <ele>1087.56405</ele>
        <time>2024-01-12T14:23:37Z</time>
      </trkpt>
      <trkpt lat="42.94232" lon="0.28015">
        <ele>1086.94361</ele>
        <time>2024-01-12T14:23:38Z</time>
      </trkpt>
      <trkpt lat="42.94232" lon="0.28013">
        <ele>1087.06821</ele>
        <time>2024-01-12T14:23:39Z</time>
      </trkpt>
      <trkpt lat="42.94232" lon="0.28012">
        <ele>1087.07728</ele>
        <time>2024-01-12T14:23:40Z</time>
      </trkpt>
      <trkpt lat="42.94233" lon="0.28011">
        <ele>1086.53671</ele>
        <time>2024-01-12T14:23:41Z</time>
      </trkpt>
      <trkpt lat="42.94234" lon="0.28008">
        <ele>1086.91758</ele>
        <time>2024-01-12T14:23:42Z</time>
      </trkpt>
      <trkpt lat="42.94235" lon="0.28007">
        <ele>1087.30592</ele>
        <time>2024-01-12T14:23:43Z</time>
      </trkpt>
      <trkpt lat="42.94236" lon="0.28005">
        <ele>1087.31448</ele>
        <time>2024-01-12T14:23:45Z</time>
      </trkpt>
      <trkpt lat="42.94237" lon="0.28002">
        <ele>1086.84921</ele>
        <time>2024-01-12T14:23:46Z</time>
      </trkpt>
      <trkpt lat="42.94238" lon="0.28">
        <ele>1087.73102</ele>
        <time>2024-01-12T14:23:47Z</time>
      </trkpt>
      <trkpt lat="42.9424" lon="0.27998">
        <ele>1089.87697</ele>
        <time>2024-01-12T14:23:49Z</time>
      </trkpt>
      <trkpt lat="42.94241" lon="0.27996">
        <ele>1090.5982</ele>
        <time>2024-01-12T14:23:50Z</time>
      </trkpt>
      <trkpt lat="42.94242" lon="0.27995">
        <ele>1089.77785</ele>
        <time>2024-01-12T14:23:51Z</time>
      </trkpt>
      <trkpt lat="42.94242" lon="0.27994">
        <ele>1090.53309</ele>
        <time>2024-01-12T14:23:52Z</time>
      </trkpt>
      <trkpt lat="42.94244" lon="0.27991">
        <ele>1088.92289</ele>
        <time>2024-01-12T14:23:54Z</time>
      </trkpt>
      <trkpt lat="42.94244" lon="0.2799">
        <ele>1089.32531</ele>
        <time>2024-01-12T14:23:55Z</time>
      </trkpt>
      <trkpt lat="42.94245" lon="0.27989">
        <ele>1089.7198</ele>
        <time>2024-01-12T14:23:56Z</time>
      </trkpt>
      <trkpt lat="42.94246" lon="0.27988">
        <ele>1089.55208</ele>
        <time>2024-01-12T14:23:57Z</time>
      </trkpt>
      <trkpt lat="42.94246" lon="0.27987">
        <ele>1089.0614</ele>
        <time>2024-01-12T14:23:58Z</time>
      </trkpt>
      <trkpt lat="42.94247" lon="0.27986">
        <ele>1088.87878</ele>
        <time>2024-01-12T14:23:59Z</time>
      </trkpt>
      <trkpt lat="42.94247" lon="0.27984">
        <ele>1089.22046</ele>
        <time>2024-01-12T14:24:00Z</time>
      </trkpt>
      <trkpt lat="42.94248" lon="0.27983">
        <ele>1088.74762</ele>
        <time>2024-01-12T14:24:01Z</time>
      </trkpt>
      <trkpt lat="42.94249" lon="0.27983">
        <ele>1088.45587</ele>
        <time>2024-01-12T14:24:02Z</time>
      </trkpt>
      <trkpt lat="42.9425" lon="0.27981">
        <ele>1087.77255</ele>
        <time>2024-01-12T14:24:03Z</time>
      </trkpt>
      <trkpt lat="42.9425" lon="0.2798">
        <ele>1087.21621</ele>
        <time>2024-01-12T14:24:04Z</time>
      </trkpt>
      <trkpt lat="42.94251" lon="0.27978">
        <ele>1087.06105</ele>
        <time>2024-01-12T14:24:05Z</time>
      </trkpt>
      <trkpt lat="42.94252" lon="0.27976">
        <ele>1086.86376</ele>
        <time>2024-01-12T14:24:06Z</time>
      </trkpt>
      <trkpt lat="42.94253" lon="0.27974">
        <ele>1087.42319</ele>
        <time>2024-01-12T14:24:07Z</time>
      </trkpt>
      <trkpt lat="42.94253" lon="0.27973">
        <ele>1087.70463</ele>
        <time>2024-01-12T14:24:08Z</time>
      </trkpt>
      <trkpt lat="42.94254" lon="0.27971">
        <ele>1087.92977</ele>
        <time>2024-01-12T14:24:09Z</time>
      </trkpt>
      <trkpt lat="42.94255" lon="0.27968">
        <ele>1088.79702</ele>
        <time>2024-01-12T14:24:11Z</time>
      </trkpt>
      <trkpt lat="42.94256" lon="0.27967">
        <ele>1088.31291</ele>
        <time>2024-01-12T14:24:12Z</time>
      </trkpt>
      <trkpt lat="42.94256" lon="0.27965">
        <ele>1088.0827</ele>
        <time>2024-01-12T14:24:13Z</time>
      </trkpt>
      <trkpt lat="42.94257" lon="0.27964">
        <ele>1087.57836</ele>
        <time>2024-01-12T14:24:14Z</time>
      </trkpt>
      <trkpt lat="42.94258" lon="0.27962">
        <ele>1087.40267</ele>
        <time>2024-01-12T14:24:16Z</time>
      </trkpt>
      <trkpt lat="42.94258" lon="0.2796">
        <ele>1087.09818</ele>
        <time>2024-01-12T14:24:17Z</time>
      </trkpt>
      <trkpt lat="42.94259" lon="0.27959">
        <ele>1087.49359</ele>
        <time>2024-01-12T14:24:18Z</time>
      </trkpt>
      <trkpt lat="42.9426" lon="0.27958">
        <ele>1087.35711</ele>
        <time>2024-01-12T14:24:19Z</time>
      </trkpt>
      <trkpt lat="42.9426" lon="0.27957">
        <ele>1085.67273</ele>
        <time>2024-01-12T14:24:20Z</time>
      </trkpt>
      <trkpt lat="42.94261" lon="0.27955">
        <ele>1085.08991</ele>
        <time>2024-01-12T14:24:22Z</time>
      </trkpt>
      <trkpt lat="42.94262" lon="0.27953">
        <ele>1085.11406</ele>
        <time>2024-01-12T14:24:23Z</time>
      </trkpt>
      <trkpt lat="42.94262" lon="0.27952">
        <ele>1085.16731</ele>
        <time>2024-01-12T14:24:24Z</time>
      </trkpt>
      <trkpt lat="42.94263" lon="0.2795">
        <ele>1085.55582</ele>
        <time>2024-01-12T14:24:25Z</time>
      </trkpt>
      <trkpt lat="42.94263" lon="0.27949">
        <ele>1086.53765</ele>
        <time>2024-01-12T14:24:26Z</time>
      </trkpt>
      <trkpt lat="42.94264" lon="0.27947">
        <ele>1086.92672</ele>
        <time>2024-01-12T14:24:27Z</time>
      </trkpt>
      <trkpt lat="42.94265" lon="0.27945">
        <ele>1087.7061</ele>
        <time>2024-01-12T14:24:28Z</time>
      </trkpt>
      <trkpt lat="42.94265" lon="0.27943">
        <ele>1086.85776</ele>
        <time>2024-01-12T14:24:29Z</time>
      </trkpt>
      <trkpt lat="42.94266" lon="0.27943">
        <ele>1085.68859</ele>
        <time>2024-01-12T14:24:30Z</time>
      </trkpt>
      <trkpt lat="42.94266" lon="0.27941">
        <ele>1086.09064</ele>
        <time>2024-01-12T14:24:31Z</time>
      </trkpt>
      <trkpt lat="42.94267" lon="0.27939">
        <ele>1087.45754</ele>
        <time>2024-01-12T14:24:32Z</time>
      </trkpt>
      <trkpt lat="42.94268" lon="0.27937">
        <ele>1087.40852</ele>
        <time>2024-01-12T14:24:33Z</time>
      </trkpt>
      <trkpt lat="42.94269" lon="0.27936">
        <ele>1087.07036</ele>
        <time>2024-01-12T14:24:34Z</time>
      </trkpt>
      <trkpt lat="42.9427" lon="0.27934">
        <ele>1086.72149</ele>
        <time>2024-01-12T14:24:35Z</time>
      </trkpt>
      <trkpt lat="42.94271" lon="0.27933">
        <ele>1086.76806</ele>
        <time>2024-01-12T14:24:36Z</time>
      </trkpt>
      <trkpt lat="42.94272" lon="0.27931">
        <ele>1085.83777</ele>
        <time>2024-01-12T14:24:37Z</time>
      </trkpt>
      <trkpt lat="42.94272" lon="0.2793">
        <ele>1084.73641</ele>
        <time>2024-01-12T14:24:38Z</time>
      </trkpt>
      <trkpt lat="42.94273" lon="0.27928">
        <ele>1085.64577</ele>
        <time>2024-01-12T14:24:39Z</time>
      </trkpt>
      <trkpt lat="42.94274" lon="0.27926">
        <ele>1086.35454</ele>
        <time>2024-01-12T14:24:40Z</time>
      </trkpt>
      <trkpt lat="42.94274" lon="0.27925">
        <ele>1086.44651</ele>
        <time>2024-01-12T14:24:41Z</time>
      </trkpt>
      <trkpt lat="42.94275" lon="0.27923">
        <ele>1086.30143</ele>
        <time>2024-01-12T14:24:42Z</time>
      </trkpt>
      <trkpt lat="42.94276" lon="0.27921">
        <ele>1086.00306</ele>
        <time>2024-01-12T14:24:43Z</time>
      </trkpt>
      <trkpt lat="42.94276" lon="0.2792">
        <ele>1083.86642</ele>
        <time>2024-01-12T14:24:44Z</time>
      </trkpt>
      <trkpt lat="42.94276" lon="0.27918">
        <ele>1082.90185</ele>
        <time>2024-01-12T14:24:45Z</time>
      </trkpt>
      <trkpt lat="42.94277" lon="0.27917">
        <ele>1083.32689</ele>
        <time>2024-01-12T14:24:46Z</time>
      </trkpt>
      <trkpt lat="42.94277" lon="0.27915">
        <ele>1083.03665</ele>
        <time>2024-01-12T14:24:47Z</time>
      </trkpt>
      <trkpt lat="42.94277" lon="0.27913">
        <ele>1083.39217</ele>
        <time>2024-01-12T14:24:48Z</time>
      </trkpt>
      <trkpt lat="42.94277" lon="0.27911">
        <ele>1084.3974</ele>
        <time>2024-01-12T14:24:49Z</time>
      </trkpt>
      <trkpt lat="42.94277" lon="0.2791">
        <ele>1084.59826</ele>
        <time>2024-01-12T14:24:50Z</time>
      </trkpt>
      <trkpt lat="42.94277" lon="0.27909">
        <ele>1084.58994</ele>
        <time>2024-01-12T14:24:51Z</time>
      </trkpt>
      <trkpt lat="42.94276" lon="0.27908">
        <ele>1084.15673</ele>
        <time>2024-01-12T14:24:54Z</time>
      </trkpt>
      <trkpt lat="42.94275" lon="0.27906">
        <ele>1083.54286</ele>
        <time>2024-01-12T14:24:56Z</time>
      </trkpt>
      <trkpt lat="42.94274" lon="0.27905">
        <ele>1084.50314</ele>
        <time>2024-01-12T14:25:00Z</time>
      </trkpt>
      <trkpt lat="42.94273" lon="0.27904">
        <ele>1086.199</ele>
        <time>2024-01-12T14:25:03Z</time>
      </trkpt>
      <trkpt lat="42.94274" lon="0.27904">
        <ele>1085.2959</ele>
        <time>2024-01-12T14:25:05Z</time>
      </trkpt>
      <trkpt lat="42.94275" lon="0.27902">
        <ele>1084.52749</ele>
        <time>2024-01-12T14:25:06Z</time>
      </trkpt>
      <trkpt lat="42.94276" lon="0.27902">
        <ele>1084.67178</ele>
        <time>2024-01-12T14:25:07Z</time>
      </trkpt>
      <trkpt lat="42.94277" lon="0.27901">
        <ele>1084.60995</ele>
        <time>2024-01-12T14:25:09Z</time>
      </trkpt>
      <trkpt lat="42.94275" lon="0.27901">
        <ele>1082.58468</ele>
        <time>2024-01-12T14:25:18Z</time>
      </trkpt>
      <trkpt lat="42.94274" lon="0.279">
        <ele>1083.80193</ele>
        <time>2024-01-12T14:25:27Z</time>
      </trkpt>
      <trkpt lat="42.94274" lon="0.27899">
        <ele>1080.77855</ele>
        <time>2024-01-12T14:25:34Z</time>
      </trkpt>
      <trkpt lat="42.94273" lon="0.27899">
        <ele>1082.31782</ele>
        <time>2024-01-12T14:25:38Z</time>
      </trkpt>
      <trkpt lat="42.94272" lon="0.279">
        <ele>1083.19704</ele>
        <time>2024-01-12T14:25:40Z</time>
      </trkpt>
      <trkpt lat="42.94272" lon="0.27902">
        <ele>1084.18731</ele>
        <time>2024-01-12T14:25:42Z</time>
      </trkpt>
      <trkpt lat="42.94272" lon="0.27903">
        <ele>1083.67839</ele>
        <time>2024-01-12T14:25:46Z</time>
      </trkpt>
      <trkpt lat="42.94272" lon="0.27904">
        <ele>1089.19578</ele>
        <time>2024-01-12T14:25:49Z</time>
      </trkpt>
      <trkpt lat="42.94271" lon="0.27904">
        <ele>1091.85993</ele>
        <time>2024-01-12T14:25:51Z</time>
      </trkpt>
      <trkpt lat="42.94271" lon="0.27905">
        <ele>1088.07649</ele>
        <time>2024-01-12T14:25:57Z</time>
      </trkpt>
      <trkpt lat="42.94272" lon="0.27906">
        <ele>1088.98518</ele>
        <time>2024-01-12T14:25:59Z</time>
      </trkpt>
      <trkpt lat="42.94273" lon="0.27904">
        <ele>1087.86308</ele>
        <time>2024-01-12T14:26:14Z</time>
      </trkpt>
      <trkpt lat="42.94274" lon="0.27906">
        <ele>1083.08462</ele>
        <time>2024-01-12T14:26:18Z</time>
      </trkpt>
      <trkpt lat="42.94273" lon="0.27905">
        <ele>1078.84738</ele>
        <time>2024-01-12T14:26:20Z</time>
      </trkpt>
      <trkpt lat="42.94274" lon="0.27903">
        <ele>1079.10628</ele>
        <time>2024-01-12T14:26:23Z</time>
      </trkpt>
      <trkpt lat="42.94275" lon="0.27902">
        <ele>1082.37193</ele>
        <time>2024-01-12T14:26:25Z</time>
      </trkpt>
      <trkpt lat="42.94276" lon="0.279">
        <ele>1074.89216</ele>
        <time>2024-01-12T14:26:31Z</time>
      </trkpt>
      <trkpt lat="42.94275" lon="0.27899">
        <ele>1069.94861</ele>
        <time>2024-01-12T14:26:40Z</time>
      </trkpt>
      <trkpt lat="42.94274" lon="0.27897">
        <ele>1074.8727</ele>
        <time>2024-01-12T14:26:43Z</time>
      </trkpt>
      <trkpt lat="42.94275" lon="0.27899">
        <ele>1082.26057</ele>
        <time>2024-01-12T14:26:48Z</time>
      </trkpt>
      <trkpt lat="42.94276" lon="0.279">
        <ele>1082.53483</ele>
        <time>2024-01-12T14:26:49Z</time>
      </trkpt>
      <trkpt lat="42.94277" lon="0.27902">
        <ele>1083.73853</ele>
        <time>2024-01-12T14:26:50Z</time>
      </trkpt>
      <trkpt lat="42.94276" lon="0.27902">
        <ele>1084.04963</ele>
        <time>2024-01-12T14:26:52Z</time>
      </trkpt>
      <trkpt lat="42.94275" lon="0.27903">
        <ele>1087.56668</ele>
        <time>2024-01-12T14:26:57Z</time>
      </trkpt>
      <trkpt lat="42.94274" lon="0.27904">
        <ele>1085.84243</ele>
        <time>2024-01-12T14:27:01Z</time>
      </trkpt>
      <trkpt lat="42.94275" lon="0.27905">
        <ele>1091.80052</ele>
        <time>2024-01-12T14:27:04Z</time>
      </trkpt>
      <trkpt lat="42.94276" lon="0.27905">
        <ele>1101.11171</ele>
        <time>2024-01-12T14:27:07Z</time>
      </trkpt>
      <trkpt lat="42.94275" lon="0.27906">
        <ele>1092.95928</ele>
        <time>2024-01-12T14:27:18Z</time>
      </trkpt>
      <trkpt lat="42.94275" lon="0.27905">
        <ele>1089.43692</ele>
        <time>2024-01-12T14:27:26Z</time>
      </trkpt>
      <trkpt lat="42.94276" lon="0.27906">
        <ele>1090.01373</ele>
        <time>2024-01-12T14:27:27Z</time>
      </trkpt>
      <trkpt lat="42.94274" lon="0.27904">
        <ele>1083.54002</ele>
        <time>2024-01-12T14:27:31Z</time>
      </trkpt>
      <trkpt lat="42.94275" lon="0.27905">
        <ele>1085.31092</ele>
        <time>2024-01-12T14:27:32Z</time>
      </trkpt>
      <trkpt lat="42.94275" lon="0.27904">
        <ele>1083.37832</ele>
        <time>2024-01-12T14:27:47Z</time>
      </trkpt>
      <trkpt lat="42.94273" lon="0.27904">
        <ele>1089.70777</ele>
        <time>2024-01-12T14:28:02Z</time>
      </trkpt>
      <trkpt lat="42.94275" lon="0.27904">
        <ele>1088.7728</ele>
        <time>2024-01-12T14:28:12Z</time>
      </trkpt>
      <trkpt lat="42.94276" lon="0.27903">
        <ele>1091.27585</ele>
        <time>2024-01-12T14:28:15Z</time>
      </trkpt>
      <trkpt lat="42.94277" lon="0.27905">
        <ele>1081.95958</ele>
        <time>2024-01-12T14:28:42Z</time>
      </trkpt>
      <trkpt lat="42.94277" lon="0.27903">
        <ele>1081.18056</ele>
        <time>2024-01-12T14:28:44Z</time>
      </trkpt>
      <trkpt lat="42.94278" lon="0.27902">
        <ele>1081.68698</ele>
        <time>2024-01-12T14:28:45Z</time>
      </trkpt>
      <trkpt lat="42.94279" lon="0.27901">
        <ele>1082.04763</ele>
        <time>2024-01-12T14:28:46Z</time>
      </trkpt>
      <trkpt lat="42.94279" lon="0.279">
        <ele>1081.03007</ele>
        <time>2024-01-12T14:28:49Z</time>
      </trkpt>
      <trkpt lat="42.94279" lon="0.27898">
        <ele>1080.93947</ele>
        <time>2024-01-12T14:28:51Z</time>
      </trkpt>
      <trkpt lat="42.94278" lon="0.27897">
        <ele>1082.7752</ele>
        <time>2024-01-12T14:28:54Z</time>
      </trkpt>
      <trkpt lat="42.94277" lon="0.27899">
        <ele>1086.27157</ele>
        <time>2024-01-12T14:29:08Z</time>
      </trkpt>
      <trkpt lat="42.94276" lon="0.27899">
        <ele>1081.50928</ele>
        <time>2024-01-12T14:29:13Z</time>
      </trkpt>
      <trkpt lat="42.94275" lon="0.27901">
        <ele>1086.6176</ele>
        <time>2024-01-12T14:29:19Z</time>
      </trkpt>
      <trkpt lat="42.94275" lon="0.27902">
        <ele>1084.53173</ele>
        <time>2024-01-12T14:29:24Z</time>
      </trkpt>
      <trkpt lat="42.94275" lon="0.27904">
        <ele>1086.06571</ele>
        <time>2024-01-12T14:29:32Z</time>
      </trkpt>
      <trkpt lat="42.94274" lon="0.27904">
        <ele>1079.79021</ele>
        <time>2024-01-12T14:29:38Z</time>
      </trkpt>
      <trkpt lat="42.94275" lon="0.27904">
        <ele>1092.10647</ele>
        <time>2024-01-12T14:29:50Z</time>
      </trkpt>
      <trkpt lat="42.94275" lon="0.27903">
        <ele>1084.35385</ele>
        <time>2024-01-12T14:30:04Z</time>
      </trkpt>
      <trkpt lat="42.94276" lon="0.27903">
        <ele>1084.09488</ele>
        <time>2024-01-12T14:30:07Z</time>
      </trkpt>
      <trkpt lat="42.94275" lon="0.27902">
        <ele>1084.65297</ele>
        <time>2024-01-12T14:30:15Z</time>
      </trkpt>
      <trkpt lat="42.94276" lon="0.27903">
        <ele>1084.35795</ele>
        <time>2024-01-12T14:30:18Z</time>
      </trkpt>
      <trkpt lat="42.94277" lon="0.27904">
        <ele>1081.65727</ele>
        <time>2024-01-12T14:30:21Z</time>
      </trkpt>
      <trkpt lat="42.94278" lon="0.27906">
        <ele>1078.39842</ele>
        <time>2024-01-12T14:30:33Z</time>
      </trkpt>
      <trkpt lat="42.94277" lon="0.27904">
        <ele>1089.2056</ele>
        <time>2024-01-12T14:30:45Z</time>
      </trkpt>
      <trkpt lat="42.94279" lon="0.27903">
        <ele>1095.68681</ele>
        <time>2024-01-12T14:30:48Z</time>
      </trkpt>
      <trkpt lat="42.9428" lon="0.27901">
        <ele>1093.83375</ele>
        <time>2024-01-12T14:30:49Z</time>
      </trkpt>
      <trkpt lat="42.94279" lon="0.27901">
        <ele>1092.41254</ele>
        <time>2024-01-12T14:30:55Z</time>
      </trkpt>
      <trkpt lat="42.94279" lon="0.279">
        <ele>1091.55388</ele>
        <time>2024-01-12T14:31:00Z</time>
      </trkpt>
      <trkpt lat="42.9428" lon="0.27899">
        <ele>1086.24106</ele>
        <time>2024-01-12T14:31:14Z</time>
      </trkpt>
      <trkpt lat="42.9428" lon="0.27897">
        <ele>1084.93792</ele>
        <time>2024-01-12T14:31:19Z</time>
      </trkpt>
      <trkpt lat="42.94279" lon="0.27898">
        <ele>1086.43083</ele>
        <time>2024-01-12T14:31:33Z</time>
      </trkpt>
      <trkpt lat="42.94279" lon="0.279">
        <ele>1085.9576</ele>
        <time>2024-01-12T14:31:35Z</time>
      </trkpt>
      <trkpt lat="42.94277" lon="0.27901">
        <ele>1086.15033</ele>
        <time>2024-01-12T14:31:36Z</time>
      </trkpt>
      <trkpt lat="42.94276" lon="0.27901">
        <ele>1088.46486</ele>
        <time>2024-01-12T14:31:38Z</time>
      </trkpt>
      <trkpt lat="42.94275" lon="0.27901">
        <ele>1093.4717</ele>
        <time>2024-01-12T14:31:39Z</time>
      </trkpt>
      <trkpt lat="42.94276" lon="0.27902">
        <ele>1079.00524</ele>
        <time>2024-01-12T14:31:41Z</time>
      </trkpt>
      <trkpt lat="42.94275" lon="0.27901">
        <ele>1077.03685</ele>
        <time>2024-01-12T14:31:43Z</time>
      </trkpt>
      <trkpt lat="42.94274" lon="0.27902">
        <ele>1075.57508</ele>
        <time>2024-01-12T14:31:46Z</time>
      </trkpt>
      <trkpt lat="42.94275" lon="0.27903">
        <ele>1077.45554</ele>
        <time>2024-01-12T14:31:48Z</time>
      </trkpt>
      <trkpt lat="42.94276" lon="0.27902">
        <ele>1083.30753</ele>
        <time>2024-01-12T14:31:54Z</time>
      </trkpt>
      <trkpt lat="42.94275" lon="0.27901">
        <ele>1085.44687</ele>
        <time>2024-01-12T14:32:02Z</time>
      </trkpt>
      <trkpt lat="42.94275" lon="0.27904">
        <ele>1085.69576</ele>
        <time>2024-01-12T14:32:13Z</time>
      </trkpt>
      <trkpt lat="42.94276" lon="0.27903">
        <ele>1084.73583</ele>
        <time>2024-01-12T14:32:25Z</time>
      </trkpt>
      <trkpt lat="42.94275" lon="0.27901">
        <ele>1085.45999</ele>
        <time>2024-01-12T14:32:27Z</time>
      </trkpt>
      <trkpt lat="42.94274" lon="0.27899">
        <ele>1086.68682</ele>
        <time>2024-01-12T14:32:37Z</time>
      </trkpt>
      <trkpt lat="42.94274" lon="0.279">
        <ele>1087.07836</ele>
        <time>2024-01-12T14:32:42Z</time>
      </trkpt>
      <trkpt lat="42.94274" lon="0.27901">
        <ele>1086.08018</ele>
        <time>2024-01-12T14:32:48Z</time>
      </trkpt>
      <trkpt lat="42.94274" lon="0.27902">
        <ele>1086.34313</ele>
        <time>2024-01-12T14:32:53Z</time>
      </trkpt>
      <trkpt lat="42.94274" lon="0.27904">
        <ele>1079.21878</ele>
        <time>2024-01-12T14:32:57Z</time>
      </trkpt>
      <trkpt lat="42.94274" lon="0.27903">
        <ele>1089.10528</ele>
        <time>2024-01-12T14:33:06Z</time>
      </trkpt>
      <trkpt lat="42.94274" lon="0.27904">
        <ele>1084.00325</ele>
        <time>2024-01-12T14:33:14Z</time>
      </trkpt>
      <trkpt lat="42.94276" lon="0.27905">
        <ele>1088.16518</ele>
        <time>2024-01-12T14:33:22Z</time>
      </trkpt>
      <trkpt lat="42.94275" lon="0.27903">
        <ele>1088.54593</ele>
        <time>2024-01-12T14:33:23Z</time>
      </trkpt>
      <trkpt lat="42.94274" lon="0.27903">
        <ele>1085.06384</ele>
        <time>2024-01-12T14:33:36Z</time>
      </trkpt>
      <trkpt lat="42.94273" lon="0.27902">
        <ele>1081.39195</ele>
        <time>2024-01-12T14:33:38Z</time>
      </trkpt>
      <trkpt lat="42.94273" lon="0.27903">
        <ele>1076.33999</ele>
        <time>2024-01-12T14:33:47Z</time>
      </trkpt>
      <trkpt lat="42.94273" lon="0.27905">
        <ele>1073.69622</ele>
        <time>2024-01-12T14:33:49Z</time>
      </trkpt>
      <trkpt lat="42.94272" lon="0.27905">
        <ele>1080.44894</ele>
        <time>2024-01-12T14:33:53Z</time>
      </trkpt>
      <trkpt lat="42.94273" lon="0.27905">
        <ele>1082.21095</ele>
        <time>2024-01-12T14:34:00Z</time>
      </trkpt>
      <trkpt lat="42.94272" lon="0.27906">
        <ele>1090.68527</ele>
        <time>2024-01-12T14:34:09Z</time>
      </trkpt>
      <trkpt lat="42.94273" lon="0.27906">
        <ele>1089.77141</ele>
        <time>2024-01-12T14:34:11Z</time>
      </trkpt>
      <trkpt lat="42.94274" lon="0.27905">
        <ele>1090.65779</ele>
        <time>2024-01-12T14:34:19Z</time>
      </trkpt>
      <trkpt lat="42.94275" lon="0.27904">
        <ele>1088.63017</ele>
        <time>2024-01-12T14:34:21Z</time>
      </trkpt>
      <trkpt lat="42.94276" lon="0.27902">
        <ele>1087.07486</ele>
        <time>2024-01-12T14:34:24Z</time>
      </trkpt>
      <trkpt lat="42.94277" lon="0.27901">
        <ele>1086.62455</ele>
        <time>2024-01-12T14:34:25Z</time>
      </trkpt>
      <trkpt lat="42.94277" lon="0.279">
        <ele>1086.52613</ele>
        <time>2024-01-12T14:34:27Z</time>
      </trkpt>
      <trkpt lat="42.94277" lon="0.27901">
        <ele>1086.0988</ele>
        <time>2024-01-12T14:34:29Z</time>
      </trkpt>
      <trkpt lat="42.94276" lon="0.27902">
        <ele>1086.58363</ele>
        <time>2024-01-12T14:34:32Z</time>
      </trkpt>
      <trkpt lat="42.94275" lon="0.27903">
        <ele>1087.60975</ele>
        <time>2024-01-12T14:34:33Z</time>
      </trkpt>
      <trkpt lat="42.94274" lon="0.27903">
        <ele>1084.09307</ele>
        <time>2024-01-12T14:34:35Z</time>
      </trkpt>
      <trkpt lat="42.94273" lon="0.27904">
        <ele>1083.08351</ele>
        <time>2024-01-12T14:34:39Z</time>
      </trkpt>
      <trkpt lat="42.94272" lon="0.27905">
        <ele>1084.41395</ele>
        <time>2024-01-12T14:34:51Z</time>
      </trkpt>
      <trkpt lat="42.94274" lon="0.27905">
        <ele>1086.34626</ele>
        <time>2024-01-12T14:34:54Z</time>
      </trkpt>
      <trkpt lat="42.94274" lon="0.27906">
        <ele>1074.87385</ele>
        <time>2024-01-12T14:34:56Z</time>
      </trkpt>
      <trkpt lat="42.94275" lon="0.27905">
        <ele>1078.56259</ele>
        <time>2024-01-12T14:35:00Z</time>
      </trkpt>
      <trkpt lat="42.94275" lon="0.27904">
        <ele>1082.60271</ele>
        <time>2024-01-12T14:35:05Z</time>
      </trkpt>
      <trkpt lat="42.94273" lon="0.27904">
        <ele>1081.65379</ele>
        <time>2024-01-12T14:35:06Z</time>
      </trkpt>
      <trkpt lat="42.94275" lon="0.27904">
        <ele>1085.00469</ele>
        <time>2024-01-12T14:35:15Z</time>
      </trkpt>
      <trkpt lat="42.94276" lon="0.27903">
        <ele>1084.43981</ele>
        <time>2024-01-12T14:35:17Z</time>
      </trkpt>
      <trkpt lat="42.94276" lon="0.27902">
        <ele>1086.73844</ele>
        <time>2024-01-12T14:35:20Z</time>
      </trkpt>
      <trkpt lat="42.94275" lon="0.27902">
        <ele>1085.80168</ele>
        <time>2024-01-12T14:35:22Z</time>
      </trkpt>
      <trkpt lat="42.94274" lon="0.27902">
        <ele>1084.94537</ele>
        <time>2024-01-12T14:35:27Z</time>
      </trkpt>
      <trkpt lat="42.94273" lon="0.27902">
        <ele>1084.93867</ele>
        <time>2024-01-12T14:35:28Z</time>
      </trkpt>
      <trkpt lat="42.94274" lon="0.27903">
        <ele>1082.74507</ele>
        <time>2024-01-12T14:35:36Z</time>
      </trkpt>
      <trkpt lat="42.94273" lon="0.27904">
        <ele>1081.32243</ele>
        <time>2024-01-12T14:35:42Z</time>
      </trkpt>
      <trkpt lat="42.94274" lon="0.27904">
        <ele>1081.1121</ele>
        <time>2024-01-12T14:35:50Z</time>
      </trkpt>
      <trkpt lat="42.94273" lon="0.27904">
        <ele>1080.05627</ele>
        <time>2024-01-12T14:35:59Z</time>
      </trkpt>
      <trkpt lat="42.94274" lon="0.27904">
        <ele>1074.61319</ele>
        <time>2024-01-12T14:36:01Z</time>
      </trkpt>
      <trkpt lat="42.94273" lon="0.27903">
        <ele>1076.22923</ele>
        <time>2024-01-12T14:36:03Z</time>
      </trkpt>
      <trkpt lat="42.94274" lon="0.27904">
        <ele>1084.52731</ele>
        <time>2024-01-12T14:36:17Z</time>
      </trkpt>
      <trkpt lat="42.94273" lon="0.27903">
        <ele>1085.14856</ele>
        <time>2024-01-12T14:36:29Z</time>
      </trkpt>
      <trkpt lat="42.94274" lon="0.27903">
        <ele>1083.00524</ele>
        <time>2024-01-12T14:36:34Z</time>
      </trkpt>
      <trkpt lat="42.94275" lon="0.27904">
        <ele>1082.9132</ele>
        <time>2024-01-12T14:36:37Z</time>
      </trkpt>
      <trkpt lat="42.94276" lon="0.27904">
        <ele>1088.61837</ele>
        <time>2024-01-12T14:36:50Z</time>
      </trkpt>
      <trkpt lat="42.94277" lon="0.27905">
        <ele>1087.25598</ele>
        <time>2024-01-12T14:37:05Z</time>
      </trkpt>
      <trkpt lat="42.94276" lon="0.27906">
        <ele>1087.37047</ele>
        <time>2024-01-12T14:37:24Z</time>
      </trkpt>
      <trkpt lat="42.94277" lon="0.27905">
        <ele>1087.81017</ele>
        <time>2024-01-12T14:37:34Z</time>
      </trkpt>
      <trkpt lat="42.94277" lon="0.27903">
        <ele>1090.01617</ele>
        <time>2024-01-12T14:37:36Z</time>
      </trkpt>
      <trkpt lat="42.94276" lon="0.27905">
        <ele>1081.60631</ele>
        <time>2024-01-12T14:37:39Z</time>
      </trkpt>
      <trkpt lat="42.94276" lon="0.27906">
        <ele>1078.92752</ele>
        <time>2024-01-12T14:37:41Z</time>
      </trkpt>
      <trkpt lat="42.94275" lon="0.27905">
        <ele>1081.89762</ele>
        <time>2024-01-12T14:37:47Z</time>
      </trkpt>
      <trkpt lat="42.94274" lon="0.27904">
        <ele>1086.97737</ele>
        <time>2024-01-12T14:37:49Z</time>
      </trkpt>
      <trkpt lat="42.94274" lon="0.27906">
        <ele>1084.60273</ele>
        <time>2024-01-12T14:37:57Z</time>
      </trkpt>
      <trkpt lat="42.94273" lon="0.27905">
        <ele>1085.34595</ele>
        <time>2024-01-12T14:38:09Z</time>
      </trkpt>
      <trkpt lat="42.94271" lon="0.27903">
        <ele>1095.11684</ele>
        <time>2024-01-12T14:38:16Z</time>
      </trkpt>
      <trkpt lat="42.94272" lon="0.27904">
        <ele>1089.33204</ele>
        <time>2024-01-12T14:38:31Z</time>
      </trkpt>
      <trkpt lat="42.94272" lon="0.27905">
        <ele>1088.42418</ele>
        <time>2024-01-12T14:38:40Z</time>
      </trkpt>
      <trkpt lat="42.94273" lon="0.27906">
        <ele>1088.29811</ele>
        <time>2024-01-12T14:38:43Z</time>
      </trkpt>
      <trkpt lat="42.94273" lon="0.27905">
        <ele>1089.09017</ele>
        <time>2024-01-12T14:38:47Z</time>
      </trkpt>
      <trkpt lat="42.94274" lon="0.27906">
        <ele>1087.36347</ele>
        <time>2024-01-12T14:38:49Z</time>
      </trkpt>
      <trkpt lat="42.94275" lon="0.27907">
        <ele>1080.7681</ele>
        <time>2024-01-12T14:38:54Z</time>
      </trkpt>
      <trkpt lat="42.94277" lon="0.27905">
        <ele>1078.90431</ele>
        <time>2024-01-12T14:39:09Z</time>
      </trkpt>
      <trkpt lat="42.94276" lon="0.27906">
        <ele>1080.36476</ele>
        <time>2024-01-12T14:39:18Z</time>
      </trkpt>
      <trkpt lat="42.94277" lon="0.27907">
        <ele>1082.92514</ele>
        <time>2024-01-12T14:39:26Z</time>
      </trkpt>
      <trkpt lat="42.94278" lon="0.27908">
        <ele>1083.14919</ele>
        <time>2024-01-12T14:39:29Z</time>
      </trkpt>
    </trkseg>
  </trk>
</gpx>